<?xml version='1.0' encoding='UTF-8'?><gpx version="1.1" creator="JPX - https://github.com/jenetics/jpx" xmlns="http://www.topografix.com/GPX/1/1"><trk><trkseg><trkpt lat="44.92893284729861" lon="4.349579842866799"><ele>583.8</ele><time>2026-04-06T11:53:52.01Z</time></trkpt><trkpt lat="44.92888613196979" lon="4.349714724209899"><ele>582.6</ele><time>2026-04-06T11:54:20.001Z</time></trkpt><trkpt lat="44.928901233193905" lon="4.349817777615438"><ele>581.4</ele><time>2026-04-06T11:54:21.001Z</time></trkpt><trkpt lat="44.92892980138149" lon="4.349924720437318"><ele>580.2</ele><time>2026-04-06T11:54:22.001Z</time></trkpt><trkpt lat="44.928964798733595" lon="4.350062988698086"><ele>579.0</ele><time>2026-04-06T11:54:23.001Z</time></trkpt><trkpt lat="44.929005973772405" lon="4.350173654559302"><ele>579.0</ele><time>2026-04-06T11:54:24.001Z</time></trkpt><trkpt lat="44.9290357849727" lon="4.35028755582582"><ele>579.0</ele><time>2026-04-06T11:54:25.001Z</time></trkpt><trkpt lat="44.92905833867385" lon="4.350389973936072"><ele>579.0</ele><time>2026-04-06T11:54:26.001Z</time></trkpt><trkpt lat="44.929072605724485" lon="4.350497616996425"><ele>579.0</ele><time>2026-04-06T11:54:27.001Z</time></trkpt><trkpt lat="44.92907584285587" lon="4.350598686478122"><ele>579.0</ele><time>2026-04-06T11:54:28.001Z</time></trkpt><trkpt lat="44.92907929740011" lon="4.350710068715654"><ele>579.0</ele><time>2026-04-06T11:54:29.001Z</time></trkpt><trkpt lat="44.929112713051666" lon="4.350831134830472"><ele>578.0</ele><time>2026-04-06T11:54:30Z</time></trkpt><trkpt lat="44.92914419766458" lon="4.350940731802979"><ele>577.0</ele><time>2026-04-06T11:54:31Z</time></trkpt><trkpt lat="44.929158515576844" lon="4.351090946889726"><ele>576.0</ele><time>2026-04-06T11:54:32Z</time></trkpt><trkpt lat="44.9291487982196" lon="4.351257151297414"><ele>575.0</ele><time>2026-04-06T11:54:33Z</time></trkpt><trkpt lat="44.929166469405644" lon="4.351443378696904"><ele>574.0</ele><time>2026-04-06T11:54:34Z</time></trkpt><trkpt lat="44.92919900842236" lon="4.351654251908643"><ele>576.3333333333334</ele><time>2026-04-06T11:54:35Z</time></trkpt><trkpt lat="44.9292426216349" lon="4.351864691702053"><ele>578.6666666666666</ele><time>2026-04-06T11:54:36Z</time></trkpt><trkpt lat="44.92930318190236" lon="4.352086998933238"><ele>581.0</ele><time>2026-04-06T11:54:37Z</time></trkpt><trkpt lat="44.92938707454742" lon="4.352296950006949"><ele>581.0</ele><time>2026-04-06T11:54:38Z</time></trkpt><trkpt lat="44.929496354273674" lon="4.352503968969094"><ele>581.0</ele><time>2026-04-06T11:54:39Z</time></trkpt><trkpt lat="44.929618214250844" lon="4.352709141583258"><ele>581.0</ele><time>2026-04-06T11:54:40Z</time></trkpt><trkpt lat="44.92971892143741" lon="4.352915265611066"><ele>578.0</ele><time>2026-04-06T11:54:41Z</time></trkpt><trkpt lat="44.92979619700508" lon="4.3531517491831195"><ele>575.0</ele><time>2026-04-06T11:54:42Z</time></trkpt><trkpt lat="44.92981972132522" lon="4.353428570545112"><ele>572.0</ele><time>2026-04-06T11:54:43Z</time></trkpt><trkpt lat="44.929834820113896" lon="4.353667771462994"><ele>568.3333333333333</ele><time>2026-04-06T11:54:44Z</time></trkpt><trkpt lat="44.92986095292731" lon="4.3539046044323735"><ele>564.6666666666666</ele><time>2026-04-06T11:54:45Z</time></trkpt><trkpt lat="44.92988586529987" lon="4.354132992954095"><ele>561.0</ele><time>2026-04-06T11:54:46Z</time></trkpt><trkpt lat="44.92991462839961" lon="4.35436010896701"><ele>561.0</ele><time>2026-04-06T11:54:47Z</time></trkpt><trkpt lat="44.92995922762972" lon="4.354598853760577"><ele>561.0</ele><time>2026-04-06T11:54:48Z</time></trkpt><trkpt lat="44.93004192042697" lon="4.3548277896421785"><ele>561.0</ele><time>2026-04-06T11:54:49Z</time></trkpt><trkpt lat="44.930129867166386" lon="4.355035868154492"><ele>564.0</ele><time>2026-04-06T11:54:50Z</time></trkpt><trkpt lat="44.930220605324976" lon="4.355224102370113"><ele>567.0</ele><time>2026-04-06T11:54:51Z</time></trkpt><trkpt lat="44.930304163000535" lon="4.3554117382021795"><ele>570.0</ele><time>2026-04-06T11:54:52Z</time></trkpt><trkpt lat="44.93037406496428" lon="4.355630884906873"><ele>564.0</ele><time>2026-04-06T11:54:53Z</time></trkpt><trkpt lat="44.93044770982424" lon="4.355806115762959"><ele>558.0</ele><time>2026-04-06T11:54:54Z</time></trkpt><trkpt lat="44.930552586442495" lon="4.355971188072586"><ele>552.0</ele><time>2026-04-06T11:54:55Z</time></trkpt><trkpt lat="44.93066593183267" lon="4.356119734671698"><ele>552.0</ele><time>2026-04-06T11:54:56Z</time></trkpt><trkpt lat="44.93076502143685" lon="4.356255589410196"><ele>552.0</ele><time>2026-04-06T11:54:57Z</time></trkpt><trkpt lat="44.93086687384396" lon="4.356399259128741"><ele>552.0</ele><time>2026-04-06T11:54:58Z</time></trkpt><trkpt lat="44.9309572138261" lon="4.356554478836244"><ele>552.0</ele><time>2026-04-06T11:54:59Z</time></trkpt><trkpt lat="44.931026957700475" lon="4.356747451884821"><ele>553.6666666666666</ele><time>2026-04-06T11:55:00Z</time></trkpt><trkpt lat="44.9310565482291" lon="4.356982849613433"><ele>555.3333333333333</ele><time>2026-04-06T11:55:01Z</time></trkpt><trkpt lat="44.93104868307524" lon="4.357241218310278"><ele>557.0</ele><time>2026-04-06T11:55:02Z</time></trkpt><trkpt lat="44.93102794122795" lon="4.357448061779652"><ele>557.0</ele><time>2026-04-06T11:55:03Z</time></trkpt><trkpt lat="44.931013153664935" lon="4.357660766529877"><ele>557.0</ele><time>2026-04-06T11:55:04Z</time></trkpt><trkpt lat="44.93102682593022" lon="4.357867025419333"><ele>557.0</ele><time>2026-04-06T11:55:05Z</time></trkpt><trkpt lat="44.931093665506964" lon="4.35804367120675"><ele>557.0</ele><time>2026-04-06T11:55:06Z</time></trkpt><trkpt lat="44.93119141623743" lon="4.358197108439155"><ele>554.6666666666666</ele><time>2026-04-06T11:55:07Z</time></trkpt><trkpt lat="44.93132641325083" lon="4.358304021441469"><ele>552.3333333333334</ele><time>2026-04-06T11:55:08Z</time></trkpt><trkpt lat="44.93148224242977" lon="4.358385700738172"><ele>550.0</ele><time>2026-04-06T11:55:09Z</time></trkpt><trkpt lat="44.9316419472417" lon="4.358485901074979"><ele>555.6666666666667</ele><time>2026-04-06T11:55:10Z</time></trkpt><trkpt lat="44.931786286880964" lon="4.358638617339521"><ele>561.3333333333334</ele><time>2026-04-06T11:55:11Z</time></trkpt><trkpt lat="44.93192708941314" lon="4.358807160154367"><ele>567.0</ele><time>2026-04-06T11:55:12Z</time></trkpt><trkpt lat="44.93205220497493" lon="4.358977315279948"><ele>567.0</ele><time>2026-04-06T11:55:13Z</time></trkpt><trkpt lat="44.93215974536268" lon="4.35917176558373"><ele>567.0</ele><time>2026-04-06T11:55:14Z</time></trkpt><trkpt lat="44.9322590263716" lon="4.35938081220611"><ele>567.0</ele><time>2026-04-06T11:55:15Z</time></trkpt><trkpt lat="44.932342595606045" lon="4.359565214212943"><ele>563.6666666666666</ele><time>2026-04-06T11:55:16Z</time></trkpt><trkpt lat="44.93241879767634" lon="4.359759466443645"><ele>560.3333333333333</ele><time>2026-04-06T11:55:17Z</time></trkpt><trkpt lat="44.932482953345755" lon="4.359945081445852"><ele>557.0</ele><time>2026-04-06T11:55:18Z</time></trkpt><trkpt lat="44.93251221647665" lon="4.360161088151804"><ele>557.0</ele><time>2026-04-06T11:55:18.999Z</time></trkpt><trkpt lat="44.93253655186126" lon="4.3603609715176"><ele>557.0</ele><time>2026-04-06T11:55:19.999Z</time></trkpt><trkpt lat="44.93253993950318" lon="4.360569125050979"><ele>557.0</ele><time>2026-04-06T11:55:20.999Z</time></trkpt><trkpt lat="44.93252512966335" lon="4.360758896065422"><ele>557.0</ele><time>2026-04-06T11:55:21.999Z</time></trkpt><trkpt lat="44.93248414795272" lon="4.360938838943327"><ele>554.6666666666666</ele><time>2026-04-06T11:55:22.999Z</time></trkpt><trkpt lat="44.932391688105966" lon="4.3611038086889025"><ele>552.3333333333334</ele><time>2026-04-06T11:55:23.999Z</time></trkpt><trkpt lat="44.93226545517423" lon="4.3612305420358695"><ele>550.0</ele><time>2026-04-06T11:55:24.999Z</time></trkpt><trkpt lat="44.9321300118978" lon="4.3613236515456695"><ele>551.25</ele><time>2026-04-06T11:55:25.999Z</time></trkpt><trkpt lat="44.932004591736046" lon="4.36142793378751"><ele>552.5</ele><time>2026-04-06T11:55:26.999Z</time></trkpt><trkpt lat="44.93191545313662" lon="4.361585340970668"><ele>553.75</ele><time>2026-04-06T11:55:27.999Z</time></trkpt><trkpt lat="44.931862829768285" lon="4.361784897056545"><ele>555.0</ele><time>2026-04-06T11:55:28.999Z</time></trkpt><trkpt lat="44.93185248213819" lon="4.36199541565285"><ele>555.0</ele><time>2026-04-06T11:55:29.999Z</time></trkpt><trkpt lat="44.931878199894676" lon="4.362186752170129"><ele>555.0</ele><time>2026-04-06T11:55:30.999Z</time></trkpt><trkpt lat="44.931901315429094" lon="4.362358654361369"><ele>555.0</ele><time>2026-04-06T11:55:31.999Z</time></trkpt><trkpt lat="44.93194938885712" lon="4.36251185658138"><ele>555.0</ele><time>2026-04-06T11:55:32.999Z</time></trkpt><trkpt lat="44.93201887618856" lon="4.362628989669698"><ele>554.0</ele><time>2026-04-06T11:55:33.999Z</time></trkpt><trkpt lat="44.932090821898306" lon="4.362714099786664"><ele>553.0</ele><time>2026-04-06T11:55:34.999Z</time></trkpt><trkpt lat="44.93216683963422" lon="4.362750254287223"><ele>552.0</ele><time>2026-04-06T11:55:35.999Z</time></trkpt><trkpt lat="44.932227440712474" lon="4.362798130815369"><ele>551.0</ele><time>2026-04-06T11:55:37.999Z</time></trkpt><trkpt lat="44.93215050596918" lon="4.362888809011917"><ele>550.0</ele><time>2026-04-06T11:55:39.999Z</time></trkpt><trkpt lat="44.93205593929454" lon="4.36291793089035"><ele>549.0</ele><time>2026-04-06T11:55:40.999Z</time></trkpt><trkpt lat="44.931978911496834" lon="4.362990249547913"><ele>548.1666666666666</ele><time>2026-04-06T11:55:41.999Z</time></trkpt><trkpt lat="44.93190429189266" lon="4.363054233449312"><ele>547.3333333333334</ele><time>2026-04-06T11:55:42.999Z</time></trkpt><trkpt lat="44.931851565839935" lon="4.36310943553299"><ele>546.5</ele><time>2026-04-06T11:55:43.999Z</time></trkpt><trkpt lat="44.93180494111295" lon="4.363269185167675"><ele>545.6666666666667</ele><time>2026-04-06T11:55:45.999Z</time></trkpt><trkpt lat="44.931826941397055" lon="4.363366020129045"><ele>544.8333333333334</ele><time>2026-04-06T11:55:46.999Z</time></trkpt><trkpt lat="44.931875742712236" lon="4.3634491176134445"><ele>544.0</ele><time>2026-04-06T11:55:47.999Z</time></trkpt><trkpt lat="44.93196011572312" lon="4.363542996860253"><ele>544.0</ele><time>2026-04-06T11:55:48.999Z</time></trkpt><trkpt lat="44.93207044772235" lon="4.363611131298615"><ele>544.0</ele><time>2026-04-06T11:55:49.999Z</time></trkpt><trkpt lat="44.93218012849673" lon="4.363667590320771"><ele>544.0</ele><time>2026-04-06T11:55:50.999Z</time></trkpt><trkpt lat="44.93227704371338" lon="4.363738658928004"><ele>544.0</ele><time>2026-04-06T11:55:51.999Z</time></trkpt><trkpt lat="44.93236588137348" lon="4.363825359692773"><ele>542.2</ele><time>2026-04-06T11:55:52.999Z</time></trkpt><trkpt lat="44.932449878063004" lon="4.363947616760105"><ele>540.4</ele><time>2026-04-06T11:55:53.999Z</time></trkpt><trkpt lat="44.93251843167628" lon="4.36405281803735"><ele>538.6</ele><time>2026-04-06T11:55:54.999Z</time></trkpt><trkpt lat="44.93256591799809" lon="4.364157880194004"><ele>536.8</ele><time>2026-04-06T11:55:56Z</time></trkpt><trkpt lat="44.93262821743036" lon="4.364234451928642"><ele>535.0</ele><time>2026-04-06T11:55:57Z</time></trkpt><trkpt lat="44.93269493829442" lon="4.364292347424572"><ele>535.0</ele><time>2026-04-06T11:55:58Z</time></trkpt><trkpt lat="44.9327905867894" lon="4.364314407668605"><ele>535.0</ele><time>2026-04-06T11:55:59Z</time></trkpt><trkpt lat="44.932889190049735" lon="4.364346545127365"><ele>535.0</ele><time>2026-04-06T11:56:00Z</time></trkpt><trkpt lat="44.93297798997026" lon="4.364364454879041"><ele>535.0</ele><time>2026-04-06T11:56:01Z</time></trkpt><trkpt lat="44.9330691528565" lon="4.364384254500967"><ele>535.0</ele><time>2026-04-06T11:56:02Z</time></trkpt><trkpt lat="44.933157876853905" lon="4.364400058901957"><ele>535.0</ele><time>2026-04-06T11:56:03Z</time></trkpt><trkpt lat="44.93324763595531" lon="4.364411832925006"><ele>535.0</ele><time>2026-04-06T11:56:04Z</time></trkpt><trkpt lat="44.93334394249009" lon="4.364423878706083"><ele>535.0</ele><time>2026-04-06T11:56:05Z</time></trkpt><trkpt lat="44.933432172852235" lon="4.364432534509482"><ele>535.0</ele><time>2026-04-06T11:56:06Z</time></trkpt><trkpt lat="44.93350599881785" lon="4.364445478610641"><ele>535.0</ele><time>2026-04-06T11:56:07Z</time></trkpt><trkpt lat="44.93357520724585" lon="4.364449215465613"><ele>535.0</ele><time>2026-04-06T11:56:08Z</time></trkpt><trkpt lat="44.9336567153095" lon="4.3644063658512"><ele>535.8</ele><time>2026-04-06T11:56:09Z</time></trkpt><trkpt lat="44.93373466090734" lon="4.3643678017274"><ele>536.6</ele><time>2026-04-06T11:56:10Z</time></trkpt><trkpt lat="44.9338240485501" lon="4.3643292126719055"><ele>537.4</ele><time>2026-04-06T11:56:12Z</time></trkpt><trkpt lat="44.933857148579285" lon="4.364492096604964"><ele>538.2</ele><time>2026-04-06T11:56:15Z</time></trkpt><trkpt lat="44.9338528407918" lon="4.364602084667209"><ele>539.0</ele><time>2026-04-06T11:56:16Z</time></trkpt><trkpt lat="44.93385592999826" lon="4.3647169662867915"><ele>537.2</ele><time>2026-04-06T11:56:17Z</time></trkpt><trkpt lat="44.933853498091715" lon="4.364849399364318"><ele>535.4</ele><time>2026-04-06T11:56:18Z</time></trkpt><trkpt lat="44.93384329381504" lon="4.364987793967491"><ele>533.6</ele><time>2026-04-06T11:56:19Z</time></trkpt><trkpt lat="44.93382506574101" lon="4.365110675754781"><ele>531.8</ele><time>2026-04-06T11:56:20Z</time></trkpt><trkpt lat="44.93380135128224" lon="4.365252255956302"><ele>530.0</ele><time>2026-04-06T11:56:21Z</time></trkpt><trkpt lat="44.93379484992798" lon="4.365373413843439"><ele>530.0</ele><time>2026-04-06T11:56:22Z</time></trkpt><trkpt lat="44.93377427772814" lon="4.3654801272648545"><ele>530.0</ele><time>2026-04-06T11:56:24Z</time></trkpt><trkpt lat="44.933606949804144" lon="4.365405862192896"><ele>530.0</ele><time>2026-04-06T11:56:26Z</time></trkpt><trkpt lat="44.93349605734399" lon="4.365364280234521"><ele>530.0</ele><time>2026-04-06T11:56:27Z</time></trkpt><trkpt lat="44.93340091955929" lon="4.3653482012421785"><ele>530.1666666666666</ele><time>2026-04-06T11:56:28Z</time></trkpt><trkpt lat="44.93332265680875" lon="4.365331721029821"><ele>530.3333333333333</ele><time>2026-04-06T11:56:29Z</time></trkpt><trkpt lat="44.93325370534777" lon="4.3652986384947905"><ele>530.5</ele><time>2026-04-06T11:56:30Z</time></trkpt><trkpt lat="44.93319092063993" lon="4.365318230070516"><ele>530.6666666666666</ele><time>2026-04-06T11:56:32Z</time></trkpt><trkpt lat="44.93319198123722" lon="4.365412204608932"><ele>530.8333333333334</ele><time>2026-04-06T11:56:34Z</time></trkpt><trkpt lat="44.93319617529407" lon="4.365568987415725"><ele>531.0</ele><time>2026-04-06T11:56:35Z</time></trkpt><trkpt lat="44.933153258983744" lon="4.365719772159445"><ele>531.0</ele><time>2026-04-06T11:56:36Z</time></trkpt><trkpt lat="44.933131157301126" lon="4.365833625924013"><ele>531.0</ele><time>2026-04-06T11:56:37Z</time></trkpt><trkpt lat="44.933116143706506" lon="4.365939697174452"><ele>531.0</ele><time>2026-04-06T11:56:38Z</time></trkpt><trkpt lat="44.933146827151255" lon="4.366050706600063"><ele>531.0</ele><time>2026-04-06T11:56:40Z</time></trkpt><trkpt lat="44.93322565114032" lon="4.366036514809606"><ele>531.0</ele><time>2026-04-06T11:56:42Z</time></trkpt><trkpt lat="44.93333015922947" lon="4.366088208183793"><ele>531.0</ele><time>2026-04-06T11:56:43Z</time></trkpt><trkpt lat="44.933393278829286" lon="4.366110042749875"><ele>531.0</ele><time>2026-04-06T11:56:44Z</time></trkpt><trkpt lat="44.93346859451486" lon="4.366131873591748"><ele>531.0</ele><time>2026-04-06T11:56:45Z</time></trkpt><trkpt lat="44.933561593690165" lon="4.36614801867605"><ele>531.0</ele><time>2026-04-06T11:56:46Z</time></trkpt><trkpt lat="44.93366595501242" lon="4.366172688986792"><ele>531.0</ele><time>2026-04-06T11:56:47Z</time></trkpt><trkpt lat="44.933748746602255" lon="4.366191275309383"><ele>531.0</ele><time>2026-04-06T11:56:48Z</time></trkpt><trkpt lat="44.933851289338214" lon="4.366208365705281"><ele>531.0</ele><time>2026-04-06T11:56:49Z</time></trkpt><trkpt lat="44.93400741311995" lon="4.366188783760292"><ele>531.0</ele><time>2026-04-06T11:56:51Z</time></trkpt><trkpt lat="44.93410737169862" lon="4.366241540763432"><ele>531.0</ele><time>2026-04-06T11:56:52Z</time></trkpt><trkpt lat="44.9343300591964" lon="4.366245854830825"><ele>531.0</ele><time>2026-04-06T11:56:54Z</time></trkpt><trkpt lat="44.93443911503863" lon="4.366249818976427"><ele>531.0</ele><time>2026-04-06T11:56:55Z</time></trkpt><trkpt lat="44.93454394792953" lon="4.366264749724449"><ele>531.0</ele><time>2026-04-06T11:56:56Z</time></trkpt><trkpt lat="44.9346380815681" lon="4.366265691670387"><ele>531.0</ele><time>2026-04-06T11:56:57Z</time></trkpt><trkpt lat="44.934734593456525" lon="4.366289256359447"><ele>531.0</ele><time>2026-04-06T11:56:59Z</time></trkpt><trkpt lat="44.93479151061969" lon="4.366372102118819"><ele>532.0</ele><time>2026-04-06T11:57:02Z</time></trkpt><trkpt lat="44.93485726028148" lon="4.366409936435212"><ele>533.0</ele><time>2026-04-06T11:57:03Z</time></trkpt><trkpt lat="44.934920973870184" lon="4.366484525549068"><ele>534.0</ele><time>2026-04-06T11:57:05Z</time></trkpt><trkpt lat="44.93494385752393" lon="4.366597985079042"><ele>535.0</ele><time>2026-04-06T11:57:08Z</time></trkpt><trkpt lat="44.93495529744542" lon="4.3667068022985065"><ele>536.0</ele><time>2026-04-06T11:57:10Z</time></trkpt><trkpt lat="44.934918612596185" lon="4.366819655301794"><ele>537.0</ele><time>2026-04-06T11:57:13Z</time></trkpt><trkpt lat="44.93494683589867" lon="4.366904560611143"><ele>537.0</ele><time>2026-04-06T11:57:15Z</time></trkpt><trkpt lat="44.93489906763561" lon="4.366977921896963"><ele>537.0</ele><time>2026-04-06T11:57:18Z</time></trkpt><trkpt lat="44.934907822725" lon="4.3671179141446546"><ele>537.0</ele><time>2026-04-06T11:57:19Z</time></trkpt><trkpt lat="44.93487893029442" lon="4.367025639049306"><ele>537.0</ele><time>2026-04-06T11:57:20Z</time></trkpt><trkpt lat="44.93476461879245" lon="4.366913636041693"><ele>537.0</ele><time>2026-04-06T11:57:22Z</time></trkpt><trkpt lat="44.93468524170151" lon="4.366922252698685"><ele>537.0</ele><time>2026-04-06T11:57:25Z</time></trkpt><trkpt lat="44.93464367389992" lon="4.366993222120267"><ele>537.0</ele><time>2026-04-06T11:57:26Z</time></trkpt><trkpt lat="44.93456051801616" lon="4.36713151494676"><ele>537.0</ele><time>2026-04-06T11:57:27Z</time></trkpt><trkpt lat="44.93453400341773" lon="4.367033950390952"><ele>537.0</ele><time>2026-04-06T11:57:28Z</time></trkpt><trkpt lat="44.934495197537395" lon="4.367139687708826"><ele>537.0</ele><time>2026-04-06T11:57:30Z</time></trkpt><trkpt lat="44.934958637498056" lon="4.369520613705548"><ele>538.1666666666666</ele><time>2026-04-06T11:57:31Z</time></trkpt><trkpt lat="44.93493398219196" lon="4.369653820088666"><ele>539.3333333333334</ele><time>2026-04-06T11:57:32Z</time></trkpt><trkpt lat="44.93490470281977" lon="4.369765990865586"><ele>540.5</ele><time>2026-04-06T11:57:33Z</time></trkpt><trkpt lat="44.93488744409122" lon="4.369899574977183"><ele>541.6666666666667</ele><time>2026-04-06T11:57:34Z</time></trkpt><trkpt lat="44.93484258309566" lon="4.369963408842927"><ele>542.8333333333334</ele><time>2026-04-06T11:57:35Z</time></trkpt><trkpt lat="44.93480483216912" lon="4.370086580196647"><ele>544.0</ele><time>2026-04-06T11:57:36Z</time></trkpt><trkpt lat="44.93479276514795" lon="4.370193164706621"><ele>544.0</ele><time>2026-04-06T11:57:37Z</time></trkpt><trkpt lat="44.93481136264662" lon="4.370353654341739"><ele>544.0</ele><time>2026-04-06T11:57:39Z</time></trkpt><trkpt lat="44.93482423915633" lon="4.370554720957246"><ele>544.0</ele><time>2026-04-06T11:57:41Z</time></trkpt><trkpt lat="44.93485875361598" lon="4.370764876886193"><ele>544.0</ele><time>2026-04-06T11:57:43Z</time></trkpt><trkpt lat="44.9348830938575" lon="4.370866849705593"><ele>542.5</ele><time>2026-04-06T11:57:44Z</time></trkpt><trkpt lat="44.9349442330577" lon="4.371077055845115"><ele>541.0</ele><time>2026-04-06T11:57:46Z</time></trkpt><trkpt lat="44.93496757680145" lon="4.371184848821586"><ele>539.5</ele><time>2026-04-06T11:57:47Z</time></trkpt><trkpt lat="44.93499772417332" lon="4.3712810301837655"><ele>538.0</ele><time>2026-04-06T11:57:48Z</time></trkpt><trkpt lat="44.93422007869164" lon="4.369528918391674"><ele>539.5</ele><time>2026-04-06T11:57:50Z</time></trkpt><trkpt lat="44.934187248973615" lon="4.369633493636982"><ele>541.0</ele><time>2026-04-06T11:57:51Z</time></trkpt><trkpt lat="44.934178654650594" lon="4.369780361490061"><ele>542.5</ele><time>2026-04-06T11:57:53Z</time></trkpt><trkpt lat="44.93414530690345" lon="4.369612270194025"><ele>544.0</ele><time>2026-04-06T11:57:54Z</time></trkpt><trkpt lat="44.93425459814158" lon="4.369910668771198"><ele>544.0</ele><time>2026-04-06T11:58:03Z</time></trkpt><trkpt lat="44.93432325070822" lon="4.3700009865924345"><ele>544.0</ele><time>2026-04-06T11:58:08Z</time></trkpt><trkpt lat="44.934434457773904" lon="4.3700910020697545"><ele>544.0</ele><time>2026-04-06T11:58:15Z</time></trkpt><trkpt lat="44.93480191832751" lon="4.370756037825245"><ele>543.0</ele><time>2026-04-06T11:58:24Z</time></trkpt><trkpt lat="44.93484774780279" lon="4.370836113209509"><ele>542.0</ele><time>2026-04-06T11:58:25Z</time></trkpt><trkpt lat="44.934908393004775" lon="4.370927219698248"><ele>541.0</ele><time>2026-04-06T11:58:27Z</time></trkpt><trkpt lat="44.93496019558874" lon="4.371007842875501"><ele>540.0</ele><time>2026-04-06T11:58:29Z</time></trkpt><trkpt lat="44.934991454185344" lon="4.371133602698976"><ele>539.0</ele><time>2026-04-06T11:58:32Z</time></trkpt><trkpt lat="44.9350084070729" lon="4.371225264214016"><ele>538.0</ele><time>2026-04-06T11:58:33Z</time></trkpt><trkpt lat="44.935031270208576" lon="4.3713549650404815"><ele>538.4</ele><time>2026-04-06T11:58:34Z</time></trkpt><trkpt lat="44.93502181930664" lon="4.371449257046502"><ele>538.8</ele><time>2026-04-06T11:58:37Z</time></trkpt><trkpt lat="44.93500606217389" lon="4.371613258681494"><ele>539.2</ele><time>2026-04-06T12:02:25Z</time></trkpt><trkpt lat="44.934996463666074" lon="4.371720479021735"><ele>539.6</ele><time>2026-04-06T12:02:26Z</time></trkpt><trkpt lat="44.93499185204352" lon="4.371863958344844"><ele>540.0</ele><time>2026-04-06T12:02:27Z</time></trkpt><trkpt lat="44.935012029784055" lon="4.372048022833395"><ele>539.6666666666666</ele><time>2026-04-06T12:02:28Z</time></trkpt><trkpt lat="44.9349781343871" lon="4.372296988104809"><ele>539.3333333333333</ele><time>2026-04-06T12:02:29Z</time></trkpt><trkpt lat="44.934961391328116" lon="4.3725466695497275"><ele>539.0</ele><time>2026-04-06T12:02:30Z</time></trkpt><trkpt lat="44.93493254557182" lon="4.372832990593263"><ele>539.0</ele><time>2026-04-06T12:02:31Z</time></trkpt><trkpt lat="44.93490257405968" lon="4.373118751402522"><ele>539.0</ele><time>2026-04-06T12:02:32Z</time></trkpt><trkpt lat="44.93488287324483" lon="4.3733901518245535"><ele>539.0</ele><time>2026-04-06T12:02:33Z</time></trkpt><trkpt lat="44.93491008363654" lon="4.373665396694209"><ele>540.0</ele><time>2026-04-06T12:02:34Z</time></trkpt><trkpt lat="44.934949666443146" lon="4.373921467701526"><ele>541.0</ele><time>2026-04-06T12:02:35Z</time></trkpt><trkpt lat="44.934986661644515" lon="4.374175935220059"><ele>542.0</ele><time>2026-04-06T12:02:36Z</time></trkpt><trkpt lat="44.93500210333694" lon="4.37441789273217"><ele>542.0</ele><time>2026-04-06T12:02:37Z</time></trkpt><trkpt lat="44.93505316618543" lon="4.374602477987745"><ele>542.0</ele><time>2026-04-06T12:02:38Z</time></trkpt><trkpt lat="44.93513991430975" lon="4.374763848926283"><ele>542.0</ele><time>2026-04-06T12:02:39Z</time></trkpt><trkpt lat="44.9352762301015" lon="4.374949432036297"><ele>533.3333333333333</ele><time>2026-04-06T12:02:40Z</time></trkpt><trkpt lat="44.93540632201916" lon="4.375135956497626"><ele>524.6666666666666</ele><time>2026-04-06T12:02:41Z</time></trkpt><trkpt lat="44.93553730133328" lon="4.3753243882175745"><ele>516.0</ele><time>2026-04-06T12:02:42Z</time></trkpt><trkpt lat="44.935667988001" lon="4.375512398955653"><ele>513.6666666666666</ele><time>2026-04-06T12:02:43Z</time></trkpt><trkpt lat="44.93580950234567" lon="4.375715814337752"><ele>511.3333333333333</ele><time>2026-04-06T12:02:44Z</time></trkpt><trkpt lat="44.935941131090004" lon="4.37596284204252"><ele>509.0</ele><time>2026-04-06T12:02:45Z</time></trkpt><trkpt lat="44.936084767637944" lon="4.376145832384751"><ele>512.3333333333333</ele><time>2026-04-06T12:02:46Z</time></trkpt><trkpt lat="44.936183596338054" lon="4.376373374963799"><ele>515.6666666666666</ele><time>2026-04-06T12:02:47Z</time></trkpt><trkpt lat="44.936272326838335" lon="4.376580762932959"><ele>519.0</ele><time>2026-04-06T12:02:48Z</time></trkpt><trkpt lat="44.93634162300364" lon="4.376747330013734"><ele>519.0</ele><time>2026-04-06T12:02:49Z</time></trkpt><trkpt lat="44.936423741543415" lon="4.376956879655565"><ele>519.0</ele><time>2026-04-06T12:02:50Z</time></trkpt><trkpt lat="44.93650058886729" lon="4.377161384990242"><ele>519.0</ele><time>2026-04-06T12:02:51Z</time></trkpt><trkpt lat="44.93657469903789" lon="4.377363587674532"><ele>516.6666666666666</ele><time>2026-04-06T12:02:52Z</time></trkpt><trkpt lat="44.93664668844486" lon="4.377565021906896"><ele>514.3333333333333</ele><time>2026-04-06T12:02:53Z</time></trkpt><trkpt lat="44.93671022215024" lon="4.377746536415592"><ele>512.0</ele><time>2026-04-06T12:02:54Z</time></trkpt><trkpt lat="44.936775673918056" lon="4.377949372085424"><ele>513.3333333333333</ele><time>2026-04-06T12:02:55Z</time></trkpt><trkpt lat="44.93681762996487" lon="4.378160662853926"><ele>514.6666666666666</ele><time>2026-04-06T12:02:56Z</time></trkpt><trkpt lat="44.93686292912768" lon="4.378371994555486"><ele>516.0</ele><time>2026-04-06T12:02:57Z</time></trkpt><trkpt lat="44.93688099465073" lon="4.37857529335843"><ele>516.0</ele><time>2026-04-06T12:02:58Z</time></trkpt><trkpt lat="44.93690496800875" lon="4.378771049274309"><ele>516.0</ele><time>2026-04-06T12:02:59Z</time></trkpt><trkpt lat="44.93694325378086" lon="4.378954656096223"><ele>516.0</ele><time>2026-04-06T12:03:00Z</time></trkpt><trkpt lat="44.93694331250972" lon="4.379114881684833"><ele>516.0</ele><time>2026-04-06T12:03:01Z</time></trkpt><trkpt lat="44.93694568326893" lon="4.3792712716183795"><ele>516.75</ele><time>2026-04-06T12:03:02Z</time></trkpt><trkpt lat="44.9369159994531" lon="4.379442003426951"><ele>517.5</ele><time>2026-04-06T12:03:03Z</time></trkpt><trkpt lat="44.93688401305854" lon="4.379591780803333"><ele>518.25</ele><time>2026-04-06T12:03:04Z</time></trkpt><trkpt lat="44.93679395599982" lon="4.379738557109096"><ele>519.0</ele><time>2026-04-06T12:03:05Z</time></trkpt><trkpt lat="44.9370562730307" lon="4.37976571268201"><ele>521.0</ele><time>2026-04-06T12:03:07Z</time></trkpt><trkpt lat="44.937099657074" lon="4.379983497628883"><ele>523.0</ele><time>2026-04-06T12:03:09Z</time></trkpt><trkpt lat="44.937162019548445" lon="4.380218197754761"><ele>525.0</ele><time>2026-04-06T12:03:10Z</time></trkpt><trkpt lat="44.93720509579901" lon="4.38045700310509"><ele>526.5</ele><time>2026-04-06T12:03:11Z</time></trkpt><trkpt lat="44.93718275361121" lon="4.38086139853311"><ele>528.0</ele><time>2026-04-06T12:03:12Z</time></trkpt><trkpt lat="44.937099672671245" lon="4.381108620355912"><ele>528.0</ele><time>2026-04-06T12:03:13Z</time></trkpt><trkpt lat="44.93702133073616" lon="4.381279947561064"><ele>528.0</ele><time>2026-04-06T12:03:14Z</time></trkpt><trkpt lat="44.936280392159155" lon="4.381121333010187"><ele>530.75</ele><time>2026-04-06T12:03:15Z</time></trkpt><trkpt lat="44.936183884513525" lon="4.381259216872469"><ele>533.5</ele><time>2026-04-06T12:03:16Z</time></trkpt><trkpt lat="44.936084148192684" lon="4.381389550217598"><ele>536.25</ele><time>2026-04-06T12:03:17Z</time></trkpt><trkpt lat="44.935979602314966" lon="4.381504746687174"><ele>539.0</ele><time>2026-04-06T12:03:18Z</time></trkpt><trkpt lat="44.93588678638801" lon="4.381608757490759"><ele>542.0</ele><time>2026-04-06T12:03:19Z</time></trkpt><trkpt lat="44.93579546556299" lon="4.3817035389084635"><ele>545.0</ele><time>2026-04-06T12:03:20Z</time></trkpt><trkpt lat="44.93569942300284" lon="4.381820136962585"><ele>548.0</ele><time>2026-04-06T12:03:21Z</time></trkpt><trkpt lat="44.93561480535617" lon="4.381939479416159"><ele>551.0</ele><time>2026-04-06T12:03:22Z</time></trkpt><trkpt lat="44.935555871718435" lon="4.382081938452204"><ele>550.5</ele><time>2026-04-06T12:03:23Z</time></trkpt><trkpt lat="44.935518016482646" lon="4.382250017013345"><ele>550.0</ele><time>2026-04-06T12:03:24Z</time></trkpt><trkpt lat="44.9354885185479" lon="4.3824065937700265"><ele>549.5</ele><time>2026-04-06T12:03:25Z</time></trkpt><trkpt lat="44.93546279654591" lon="4.3825741120836055"><ele>549.0</ele><time>2026-04-06T12:03:26Z</time></trkpt><trkpt lat="44.93545779907785" lon="4.382712246908822"><ele>549.0</ele><time>2026-04-06T12:03:27Z</time></trkpt><trkpt lat="44.935441844428205" lon="4.382827245438053"><ele>549.0</ele><time>2026-04-06T12:03:28Z</time></trkpt><trkpt lat="44.935431122099764" lon="4.382935693799905"><ele>549.0</ele><time>2026-04-06T12:03:29Z</time></trkpt><trkpt lat="44.93543054080004" lon="4.383074758950814"><ele>549.0</ele><time>2026-04-06T12:03:31Z</time></trkpt><trkpt lat="44.935504044587766" lon="4.383153167188326"><ele>549.0</ele><time>2026-04-06T12:03:34Z</time></trkpt><trkpt lat="44.935568878801995" lon="4.383219665489362"><ele>549.0</ele><time>2026-04-06T12:03:48Z</time></trkpt><trkpt lat="44.93550247228072" lon="4.383198780934862"><ele>549.6666666666666</ele><time>2026-04-06T12:04:33Z</time></trkpt><trkpt lat="44.93551890266584" lon="4.38310076250296"><ele>550.3333333333334</ele><time>2026-04-06T12:05:33Z</time></trkpt><trkpt lat="44.93547456308156" lon="4.383017460861887"><ele>551.0</ele><time>2026-04-06T12:05:36Z</time></trkpt><trkpt lat="44.93541076536744" lon="4.383054235414095"><ele>551.6666666666667</ele><time>2026-04-06T12:05:44Z</time></trkpt><trkpt lat="44.9353907257011" lon="4.383192238248375"><ele>552.3333333333334</ele><time>2026-04-06T12:05:46Z</time></trkpt><trkpt lat="44.935385005428394" lon="4.383347403167571"><ele>553.0</ele><time>2026-04-06T12:05:48Z</time></trkpt><trkpt lat="44.93539924567753" lon="4.38350487814936"><ele>553.0</ele><time>2026-04-06T12:05:50Z</time></trkpt><trkpt lat="44.93537449243303" lon="4.383633809665145"><ele>553.0</ele><time>2026-04-06T12:05:52Z</time></trkpt><trkpt lat="44.93538198747807" lon="4.383776084017593"><ele>553.0</ele><time>2026-04-06T12:05:54Z</time></trkpt><trkpt lat="44.935386964672844" lon="4.3838705634125885"><ele>553.0</ele><time>2026-04-06T12:05:56Z</time></trkpt><trkpt lat="44.93523618782907" lon="4.383846065241528"><ele>553.0</ele><time>2026-04-06T12:05:59Z</time></trkpt><trkpt lat="44.935162395595064" lon="4.383858483873842"><ele>553.1666666666667</ele><time>2026-04-06T12:06:00Z</time></trkpt><trkpt lat="44.9350556234818" lon="4.383871148078816"><ele>553.3333333333334</ele><time>2026-04-06T12:06:02Z</time></trkpt><trkpt lat="44.93496685589125" lon="4.383860733519622"><ele>553.5</ele><time>2026-04-06T12:06:04Z</time></trkpt><trkpt lat="44.93487343880838" lon="4.383858205909613"><ele>553.6666666666666</ele><time>2026-04-06T12:06:06Z</time></trkpt><trkpt lat="44.93477921228044" lon="4.383862005835024"><ele>553.8333333333333</ele><time>2026-04-06T12:06:08Z</time></trkpt><trkpt lat="44.93471622144791" lon="4.383843725940275"><ele>554.0</ele><time>2026-04-06T12:06:10Z</time></trkpt><trkpt lat="44.93463404960729" lon="4.383782760624567"><ele>556.4</ele><time>2026-04-06T12:06:12Z</time></trkpt><trkpt lat="44.93459751525258" lon="4.383636401434999"><ele>558.8</ele><time>2026-04-06T12:06:24.999Z</time></trkpt><trkpt lat="44.93457887547304" lon="4.383521727788994"><ele>561.2</ele><time>2026-04-06T12:06:25.999Z</time></trkpt><trkpt lat="44.93454786192571" lon="4.383401776151859"><ele>563.6</ele><time>2026-04-06T12:06:26.999Z</time></trkpt><trkpt lat="44.93452023967619" lon="4.383265484886028"><ele>566.0</ele><time>2026-04-06T12:06:27.999Z</time></trkpt><trkpt lat="44.93451421658266" lon="4.3831379768348055"><ele>566.0</ele><time>2026-04-06T12:06:28.999Z</time></trkpt><trkpt lat="44.93452289625899" lon="4.38301452237524"><ele>566.0</ele><time>2026-04-06T12:06:29.999Z</time></trkpt><trkpt lat="44.93451718809846" lon="4.3828832002422695"><ele>566.0</ele><time>2026-04-06T12:06:30.999Z</time></trkpt><trkpt lat="44.93451123855214" lon="4.38275255544277"><ele>566.0</ele><time>2026-04-06T12:06:31.999Z</time></trkpt><trkpt lat="44.93449920618646" lon="4.382617998615166"><ele>566.0</ele><time>2026-04-06T12:06:32.999Z</time></trkpt><trkpt lat="44.93448921293028" lon="4.38249733041866"><ele>566.0</ele><time>2026-04-06T12:06:33.999Z</time></trkpt><trkpt lat="44.93448227090157" lon="4.382359052251062"><ele>566.0</ele><time>2026-04-06T12:06:35Z</time></trkpt><trkpt lat="44.934478248112804" lon="4.382217724569578"><ele>566.0</ele><time>2026-04-06T12:06:36Z</time></trkpt><trkpt lat="44.9344682412129" lon="4.382073859443106"><ele>566.0</ele><time>2026-04-06T12:06:37Z</time></trkpt><trkpt lat="44.934449379883254" lon="4.381941305205901"><ele>566.0</ele><time>2026-04-06T12:06:38Z</time></trkpt><trkpt lat="44.934416197729405" lon="4.381799342348489"><ele>566.0</ele><time>2026-04-06T12:06:39Z</time></trkpt><trkpt lat="44.93437136069653" lon="4.381649970833844"><ele>566.0</ele><time>2026-04-06T12:06:40Z</time></trkpt><trkpt lat="44.93432292640406" lon="4.381489117657505"><ele>566.0</ele><time>2026-04-06T12:06:41Z</time></trkpt><trkpt lat="44.93427033760676" lon="4.381327597244015"><ele>566.0</ele><time>2026-04-06T12:06:42Z</time></trkpt><trkpt lat="44.93422311135441" lon="4.381156387301865"><ele>571.5</ele><time>2026-04-06T12:06:43Z</time></trkpt><trkpt lat="44.93419019083966" lon="4.380980643188733"><ele>577.0</ele><time>2026-04-06T12:06:44Z</time></trkpt><trkpt lat="44.93416971708468" lon="4.3807918727684845"><ele>582.5</ele><time>2026-04-06T12:06:45Z</time></trkpt><trkpt lat="44.93416369296786" lon="4.380609801221821"><ele>588.0</ele><time>2026-04-06T12:06:46Z</time></trkpt><trkpt lat="44.93416837160757" lon="4.380427112937563"><ele>589.6</ele><time>2026-04-06T12:06:47Z</time></trkpt><trkpt lat="44.93418590146246" lon="4.380258103584996"><ele>591.1999999999999</ele><time>2026-04-06T12:06:48Z</time></trkpt><trkpt lat="44.93419767093375" lon="4.380119989644182"><ele>592.8</ele><time>2026-04-06T12:06:49Z</time></trkpt><trkpt lat="44.934187017965215" lon="4.3800029315161995"><ele>594.4</ele><time>2026-04-06T12:06:50Z</time></trkpt><trkpt lat="44.934155170721866" lon="4.379909629777778"><ele>596.0</ele><time>2026-04-06T12:06:51Z</time></trkpt><trkpt lat="44.934096077825174" lon="4.379825829543888"><ele>596.0</ele><time>2026-04-06T12:06:52Z</time></trkpt><trkpt lat="44.93405418653746" lon="4.379738310631086"><ele>596.0</ele><time>2026-04-06T12:06:53Z</time></trkpt><trkpt lat="44.934009001489564" lon="4.3796686703696"><ele>596.0</ele><time>2026-04-06T12:06:54Z</time></trkpt><trkpt lat="44.93395525300408" lon="4.379576968169077"><ele>596.0</ele><time>2026-04-06T12:06:55Z</time></trkpt><trkpt lat="44.933882998149414" lon="4.379543528857339"><ele>596.0</ele><time>2026-04-06T12:06:56Z</time></trkpt><trkpt lat="44.93378861640485" lon="4.379515916546475"><ele>596.0</ele><time>2026-04-06T12:06:57Z</time></trkpt><trkpt lat="44.9337154443721" lon="4.379589435321823"><ele>599.25</ele><time>2026-04-06T12:06:58Z</time></trkpt><trkpt lat="44.93362631546769" lon="4.379559427158261"><ele>602.5</ele><time>2026-04-06T12:06:59Z</time></trkpt><trkpt lat="44.933518362751734" lon="4.379592144407365"><ele>605.75</ele><time>2026-04-06T12:07:00Z</time></trkpt><trkpt lat="44.93348292057438" lon="4.379672800692394"><ele>609.0</ele><time>2026-04-06T12:07:01Z</time></trkpt><trkpt lat="44.93338029798205" lon="4.379011309851408"><ele>610.8</ele><time>2026-04-06T12:07:02Z</time></trkpt><trkpt lat="44.93329584221827" lon="4.378964254206318"><ele>612.5999999999999</ele><time>2026-04-06T12:07:03Z</time></trkpt><trkpt lat="44.93320385867014" lon="4.3789308766599735"><ele>614.4</ele><time>2026-04-06T12:07:04Z</time></trkpt><trkpt lat="44.93312992883285" lon="4.378891351893861"><ele>616.1999999999999</ele><time>2026-04-06T12:07:06Z</time></trkpt><trkpt lat="44.9332029066637" lon="4.37877896447371"><ele>618.0</ele><time>2026-04-06T12:07:09Z</time></trkpt><trkpt lat="44.93323508085862" lon="4.37867694201812"><ele>618.8571428571429</ele><time>2026-04-06T12:07:10Z</time></trkpt><trkpt lat="44.93322091893568" lon="4.37858152698319"><ele>619.7142857142858</ele><time>2026-04-06T12:07:11Z</time></trkpt><trkpt lat="44.93319050948831" lon="4.378501462353018"><ele>620.5714285714287</ele><time>2026-04-06T12:07:12Z</time></trkpt><trkpt lat="44.93315513438335" lon="4.378396900054713"><ele>621.4285714285714</ele><time>2026-04-06T12:07:13Z</time></trkpt><trkpt lat="44.93311474668426" lon="4.3782999057530985"><ele>622.2857142857142</ele><time>2026-04-06T12:07:14Z</time></trkpt><trkpt lat="44.93306655509706" lon="4.378213827544214"><ele>623.1428571428572</ele><time>2026-04-06T12:07:15Z</time></trkpt><trkpt lat="44.93301637880439" lon="4.378142659372277"><ele>624.0</ele><time>2026-04-06T12:07:16Z</time></trkpt><trkpt lat="44.93295256652963" lon="4.378052123951134"><ele>629.2</ele><time>2026-04-06T12:07:17Z</time></trkpt><trkpt lat="44.93287106511348" lon="4.377936901537735"><ele>634.4</ele><time>2026-04-06T12:07:18Z</time></trkpt><trkpt lat="44.93282010310267" lon="4.377831038014679"><ele>639.6</ele><time>2026-04-06T12:07:19Z</time></trkpt><trkpt lat="44.93273565349117" lon="4.377755916281961"><ele>644.8</ele><time>2026-04-06T12:07:20Z</time></trkpt><trkpt lat="44.93267430182231" lon="4.3776718850021865"><ele>650.0</ele><time>2026-04-06T12:07:21Z</time></trkpt><trkpt lat="44.9326142520434" lon="4.377569526618108"><ele>650.0</ele><time>2026-04-06T12:07:22Z</time></trkpt><trkpt lat="44.932564824425555" lon="4.377468462924429"><ele>650.0</ele><time>2026-04-06T12:07:23Z</time></trkpt><trkpt lat="44.93253341509866" lon="4.377369458540485"><ele>650.0</ele><time>2026-04-06T12:07:24Z</time></trkpt><trkpt lat="44.93249047311522" lon="4.3772613678997905"><ele>650.0</ele><time>2026-04-06T12:07:25Z</time></trkpt><trkpt lat="44.9324805589665" lon="4.377139375765193"><ele>650.0</ele><time>2026-04-06T12:07:26Z</time></trkpt><trkpt lat="44.93248690891275" lon="4.377000760210538"><ele>650.0</ele><time>2026-04-06T12:07:27Z</time></trkpt><trkpt lat="44.93245692540476" lon="4.376870778580241"><ele>650.0</ele><time>2026-04-06T12:07:28Z</time></trkpt><trkpt lat="44.93246069494853" lon="4.376750045500091"><ele>650.0</ele><time>2026-04-06T12:07:29Z</time></trkpt><trkpt lat="44.93246988855583" lon="4.376660892820781"><ele>650.0</ele><time>2026-04-06T12:07:30Z</time></trkpt><trkpt lat="44.93245585041676" lon="4.376573667234892"><ele>650.0</ele><time>2026-04-06T12:07:31Z</time></trkpt><trkpt lat="44.93243908795626" lon="4.376471899751042"><ele>650.0</ele><time>2026-04-06T12:07:32Z</time></trkpt><trkpt lat="44.932425157542845" lon="4.376375425677256"><ele>650.0</ele><time>2026-04-06T12:07:33Z</time></trkpt><trkpt lat="44.93233683133205" lon="4.376224557096689"><ele>653.0</ele><time>2026-04-06T12:07:35Z</time></trkpt><trkpt lat="44.93229305690957" lon="4.37613301558876"><ele>656.0</ele><time>2026-04-06T12:07:36Z</time></trkpt><trkpt lat="44.93224658557276" lon="4.3759532550442675"><ele>659.0</ele><time>2026-04-06T12:07:37Z</time></trkpt><trkpt lat="44.932217066834404" lon="4.375848491689084"><ele>662.0</ele><time>2026-04-06T12:07:38Z</time></trkpt><trkpt lat="44.932167716598016" lon="4.375733429002452"><ele>665.0</ele><time>2026-04-06T12:07:39Z</time></trkpt><trkpt lat="44.932130453429444" lon="4.37562693170313"><ele>665.0</ele><time>2026-04-06T12:07:40Z</time></trkpt><trkpt lat="44.93203402686421" lon="4.375572772025728"><ele>665.0</ele><time>2026-04-06T12:07:41Z</time></trkpt><trkpt lat="44.93193327382464" lon="4.375545636969442"><ele>665.0</ele><time>2026-04-06T12:07:42Z</time></trkpt><trkpt lat="44.93188145386946" lon="4.375487393782928"><ele>665.0</ele><time>2026-04-06T12:07:43Z</time></trkpt><trkpt lat="44.93170897494629" lon="4.375475514423017"><ele>665.0</ele><time>2026-04-06T12:07:44Z</time></trkpt><trkpt lat="44.931614574682634" lon="4.3754461571411225"><ele>669.4</ele><time>2026-04-06T12:07:45Z</time></trkpt><trkpt lat="44.931532924588375" lon="4.375377617608973"><ele>673.8</ele><time>2026-04-06T12:07:46Z</time></trkpt><trkpt lat="44.93141869148081" lon="4.375323788746237"><ele>678.2</ele><time>2026-04-06T12:07:47Z</time></trkpt><trkpt lat="44.93135482210608" lon="4.375259171928853"><ele>682.6</ele><time>2026-04-06T12:07:48Z</time></trkpt><trkpt lat="44.9312706440871" lon="4.375230681650017"><ele>687.0</ele><time>2026-04-06T12:07:49Z</time></trkpt><trkpt lat="44.93110925878416" lon="4.3751757452531725"><ele>687.0</ele><time>2026-04-06T12:07:51Z</time></trkpt><trkpt lat="44.9309329520395" lon="4.375124831274456"><ele>687.0</ele><time>2026-04-06T12:07:53Z</time></trkpt><trkpt lat="44.93085604044208" lon="4.375099664487495"><ele>687.0</ele><time>2026-04-06T12:07:54Z</time></trkpt><trkpt lat="44.930783366970736" lon="4.37507167739544"><ele>687.0</ele><time>2026-04-06T12:07:55Z</time></trkpt><trkpt lat="44.930712870386756" lon="4.375105501727013"><ele>687.0</ele><time>2026-04-06T12:07:56Z</time></trkpt><trkpt lat="44.93084466182316" lon="4.375328434222602"><ele>687.0</ele><time>2026-04-06T12:07:58Z</time></trkpt><trkpt lat="44.93090996787776" lon="4.375453011837184"><ele>687.0</ele><time>2026-04-06T12:08:00Z</time></trkpt><trkpt lat="44.930979235946864" lon="4.3755578341360835"><ele>687.0</ele><time>2026-04-06T12:08:01Z</time></trkpt><trkpt lat="44.931041841927076" lon="4.3755689180803605"><ele>687.0</ele><time>2026-04-06T12:08:05Z</time></trkpt><trkpt lat="44.93105598149783" lon="4.375476777379167"><ele>687.0</ele><time>2026-04-06T12:08:10Z</time></trkpt><trkpt lat="44.93101126948344" lon="4.375570390824614"><ele>687.0</ele><time>2026-04-06T12:08:16Z</time></trkpt><trkpt lat="44.93092563552547" lon="4.375541766968646"><ele>685.8333333333334</ele><time>2026-04-06T12:08:18Z</time></trkpt><trkpt lat="44.93089436171586" lon="4.375622242863246"><ele>684.6666666666666</ele><time>2026-04-06T12:08:26Z</time></trkpt><trkpt lat="44.93092408440145" lon="4.375701386680573"><ele>683.5</ele><time>2026-04-06T12:08:28Z</time></trkpt><trkpt lat="44.930871918236726" lon="4.375770372641586"><ele>682.3333333333333</ele><time>2026-04-06T12:08:30Z</time></trkpt><trkpt lat="44.930805623254315" lon="4.375886536630698"><ele>681.1666666666666</ele><time>2026-04-06T12:08:34Z</time></trkpt><trkpt lat="44.93076556732047" lon="4.37598781922237"><ele>680.0</ele><time>2026-04-06T12:08:39Z</time></trkpt><trkpt lat="44.930845315444785" lon="4.376153383911142"><ele>684.6666666666666</ele><time>2026-04-06T12:08:40Z</time></trkpt><trkpt lat="44.93085911397463" lon="4.376284011858641"><ele>689.3333333333333</ele><time>2026-04-06T12:08:43Z</time></trkpt><trkpt lat="44.93083168583023" lon="4.376405864218487"><ele>694.0</ele><time>2026-04-06T12:08:46Z</time></trkpt><trkpt lat="44.93073328985003" lon="4.3764013728164235"><ele>698.6666666666666</ele><time>2026-04-06T12:08:48Z</time></trkpt><trkpt lat="44.93067205717486" lon="4.376451180018918"><ele>703.3333333333334</ele><time>2026-04-06T12:08:50Z</time></trkpt><trkpt lat="44.93058397554986" lon="4.376475789126565"><ele>708.0</ele><time>2026-04-06T12:08:52Z</time></trkpt><trkpt lat="44.930524261087264" lon="4.37641681841194"><ele>710.0</ele><time>2026-04-06T12:08:55Z</time></trkpt><trkpt lat="44.930462874431846" lon="4.376568849255472"><ele>712.0</ele><time>2026-04-06T12:09:03Z</time></trkpt><trkpt lat="44.93044778923699" lon="4.376672437777145"><ele>714.0</ele><time>2026-04-06T12:09:04Z</time></trkpt><trkpt lat="44.930410112066944" lon="4.376845671909492"><ele>716.0</ele><time>2026-04-06T12:09:06Z</time></trkpt><trkpt lat="44.9303789776617" lon="4.376987928193939"><ele>718.0</ele><time>2026-04-06T12:09:08Z</time></trkpt><trkpt lat="44.93035200715193" lon="4.377080271989483"><ele>718.0</ele><time>2026-04-06T12:09:09Z</time></trkpt><trkpt lat="44.93029778198177" lon="4.377234792344176"><ele>718.0</ele><time>2026-04-06T12:09:11Z</time></trkpt><trkpt lat="44.930261848431336" lon="4.3773830394056645"><ele>718.0</ele><time>2026-04-06T12:09:13Z</time></trkpt><trkpt lat="44.93031093294421" lon="4.377608493615958"><ele>718.0</ele><time>2026-04-06T12:09:14Z</time></trkpt><trkpt lat="44.93028834758109" lon="4.377715087492667"><ele>718.0</ele><time>2026-04-06T12:09:15Z</time></trkpt><trkpt lat="44.93023003265016" lon="4.377856435590913"><ele>718.0</ele><time>2026-04-06T12:09:16Z</time></trkpt><trkpt lat="44.930191962785564" lon="4.378030315933107"><ele>718.0</ele><time>2026-04-06T12:09:17Z</time></trkpt><trkpt lat="44.930027845538575" lon="4.378052804529115"><ele>718.0</ele><time>2026-04-06T12:09:18Z</time></trkpt><trkpt lat="44.92999031867073" lon="4.378132050808887"><ele>722.2</ele><time>2026-04-06T12:09:19Z</time></trkpt><trkpt lat="44.92991588505049" lon="4.3782437246923624"><ele>726.4</ele><time>2026-04-06T12:09:21Z</time></trkpt><trkpt lat="44.92980977452485" lon="4.378336108762584"><ele>730.6</ele><time>2026-04-06T12:09:23Z</time></trkpt><trkpt lat="44.92973228413172" lon="4.378392788097126"><ele>734.8000000000001</ele><time>2026-04-06T12:09:26Z</time></trkpt><trkpt lat="44.92965772561808" lon="4.378448132448146"><ele>739.0</ele><time>2026-04-06T12:09:28Z</time></trkpt><trkpt lat="44.92956577555856" lon="4.37849649656518"><ele>739.0</ele><time>2026-04-06T12:09:30Z</time></trkpt><trkpt lat="44.92949218455522" lon="4.378647604286206"><ele>739.0</ele><time>2026-04-06T12:09:48Z</time></trkpt><trkpt lat="44.929540741668816" lon="4.378540131450229"><ele>739.0</ele><time>2026-04-06T12:10:06Z</time></trkpt><trkpt lat="44.92949449287311" lon="4.378454158333419"><ele>739.0</ele><time>2026-04-06T12:10:09Z</time></trkpt><trkpt lat="44.929407272307905" lon="4.378442298313702"><ele>739.0</ele><time>2026-04-06T12:10:11Z</time></trkpt><trkpt lat="44.92933743236541" lon="4.3783562563601475"><ele>739.0</ele><time>2026-04-06T12:10:13Z</time></trkpt><trkpt lat="44.92930014201931" lon="4.378241072275361"><ele>739.0</ele><time>2026-04-06T12:10:15Z</time></trkpt><trkpt lat="44.92923114848511" lon="4.378215005975736"><ele>739.0</ele><time>2026-04-06T12:10:17Z</time></trkpt><trkpt lat="44.92921015531495" lon="4.378079776207352"><ele>739.0</ele><time>2026-04-06T12:10:18Z</time></trkpt><trkpt lat="44.929218141419554" lon="4.3779857786187435"><ele>739.0</ele><time>2026-04-06T12:10:21Z</time></trkpt><trkpt lat="44.92915991372009" lon="4.3778734477673655"><ele>739.0</ele><time>2026-04-06T12:10:23Z</time></trkpt><trkpt lat="44.92911266076653" lon="4.377780738461525"><ele>743.6</ele><time>2026-04-06T12:10:26Z</time></trkpt><trkpt lat="44.92904915327418" lon="4.377681515346522"><ele>748.2</ele><time>2026-04-06T12:10:29Z</time></trkpt><trkpt lat="44.928996457111964" lon="4.377609096761089"><ele>752.8000000000001</ele><time>2026-04-06T12:10:31Z</time></trkpt><trkpt lat="44.928938352542" lon="4.377551313850993"><ele>757.4000000000001</ele><time>2026-04-06T12:10:33Z</time></trkpt><trkpt lat="44.92880319092695" lon="4.3774015838448985"><ele>762.0</ele><time>2026-04-06T12:10:34Z</time></trkpt><trkpt lat="44.928720293945936" lon="4.377352752301212"><ele>762.0</ele><time>2026-04-06T12:10:35Z</time></trkpt><trkpt lat="44.9286641820475" lon="4.377289851564606"><ele>762.0</ele><time>2026-04-06T12:10:36Z</time></trkpt><trkpt lat="44.928585951198556" lon="4.377293723388917"><ele>762.0</ele><time>2026-04-06T12:10:37Z</time></trkpt><trkpt lat="44.92852188444853" lon="4.377200885621947"><ele>762.0</ele><time>2026-04-06T12:10:38Z</time></trkpt><trkpt lat="44.928428491975815" lon="4.3771324503534395"><ele>762.0</ele><time>2026-04-06T12:10:39Z</time></trkpt><trkpt lat="44.92833553597545" lon="4.377048887120565"><ele>765.0</ele><time>2026-04-06T12:10:40Z</time></trkpt><trkpt lat="44.928245623565914" lon="4.376967345314102"><ele>768.0</ele><time>2026-04-06T12:10:41Z</time></trkpt><trkpt lat="44.9281404332662" lon="4.376921100674259"><ele>771.0</ele><time>2026-04-06T12:10:42Z</time></trkpt><trkpt lat="44.92807017326491" lon="4.3768419250082005"><ele>774.0</ele><time>2026-04-06T12:10:43Z</time></trkpt><trkpt lat="44.92792634663834" lon="4.376809091009736"><ele>774.0</ele><time>2026-04-06T12:10:45Z</time></trkpt><trkpt lat="44.927850043987604" lon="4.376765873883254"><ele>774.0</ele><time>2026-04-06T12:10:46Z</time></trkpt><trkpt lat="44.92778443002741" lon="4.3767590771924185"><ele>774.0</ele><time>2026-04-06T12:10:47Z</time></trkpt><trkpt lat="44.927768919353035" lon="4.376637250096377"><ele>774.0</ele><time>2026-04-06T12:10:49Z</time></trkpt><trkpt lat="44.927815474972235" lon="4.376554680138769"><ele>774.0</ele><time>2026-04-06T12:10:50Z</time></trkpt><trkpt lat="44.92785393528741" lon="4.3764193822617266"><ele>774.0</ele><time>2026-04-06T12:10:51Z</time></trkpt><trkpt lat="44.92789829879165" lon="4.376259702833353"><ele>774.3333333333334</ele><time>2026-04-06T12:10:52Z</time></trkpt><trkpt lat="44.92790949762186" lon="4.376155402748333"><ele>774.6666666666667</ele><time>2026-04-06T12:10:53Z</time></trkpt><trkpt lat="44.927931425042665" lon="4.376071112643628"><ele>775.0</ele><time>2026-04-06T12:10:54Z</time></trkpt><trkpt lat="44.927961474882785" lon="4.375955599650813"><ele>775.3333333333334</ele><time>2026-04-06T12:10:55Z</time></trkpt><trkpt lat="44.92799626474708" lon="4.375821865757515"><ele>775.6666666666667</ele><time>2026-04-06T12:10:56Z</time></trkpt><trkpt lat="44.92806121427695" lon="4.375681758393175"><ele>776.0</ele><time>2026-04-06T12:10:57Z</time></trkpt><trkpt lat="44.928129242589016" lon="4.375556199985729"><ele>778.0</ele><time>2026-04-06T12:10:58Z</time></trkpt><trkpt lat="44.928196494926844" lon="4.375351952875958"><ele>780.0</ele><time>2026-04-06T12:10:59Z</time></trkpt><trkpt lat="44.92820981853528" lon="4.375254772346057"><ele>782.0</ele><time>2026-04-06T12:11:00Z</time></trkpt><trkpt lat="44.92822858473528" lon="4.3751178942837585"><ele>784.0</ele><time>2026-04-06T12:11:02Z</time></trkpt><trkpt lat="44.927934631119086" lon="4.375065210671823"><ele>783.9999999999999</ele><time>2026-04-06T12:11:04Z</time></trkpt><trkpt lat="44.9279245700953" lon="4.374953184268042"><ele>784.0</ele><time>2026-04-06T12:11:32Z</time></trkpt><trkpt lat="44.92795631394919" lon="4.374785577879884"><ele>784.0</ele><time>2026-04-06T12:11:42Z</time></trkpt><trkpt lat="44.927982390768456" lon="4.374682537415891"><ele>784.0</ele><time>2026-04-06T12:11:43Z</time></trkpt><trkpt lat="44.92800073616197" lon="4.374573000023423"><ele>783.9999999999999</ele><time>2026-04-06T12:11:44Z</time></trkpt><trkpt lat="44.92801133917009" lon="4.374454521810572"><ele>784.0</ele><time>2026-04-06T12:11:45Z</time></trkpt><trkpt lat="44.92801997995823" lon="4.374352276653394"><ele>786.1666666666666</ele><time>2026-04-06T12:11:46Z</time></trkpt><trkpt lat="44.92803874419768" lon="4.374250199242111"><ele>788.3333333333333</ele><time>2026-04-06T12:11:47Z</time></trkpt><trkpt lat="44.92806698538496" lon="4.374144612749178"><ele>790.5</ele><time>2026-04-06T12:11:48Z</time></trkpt><trkpt lat="44.9281045224375" lon="4.374037576948729"><ele>792.6666666666667</ele><time>2026-04-06T12:11:49Z</time></trkpt><trkpt lat="44.928142884739295" lon="4.373932168157258"><ele>794.8333333333334</ele><time>2026-04-06T12:11:50Z</time></trkpt><trkpt lat="44.928166844021426" lon="4.373831893159079"><ele>797.0</ele><time>2026-04-06T12:11:51Z</time></trkpt><trkpt lat="44.928177762800004" lon="4.3737175007656"><ele>798.1666666666667</ele><time>2026-04-06T12:11:52Z</time></trkpt><trkpt lat="44.928180066302474" lon="4.373612650785284"><ele>799.3333333333334</ele><time>2026-04-06T12:11:53Z</time></trkpt><trkpt lat="44.928187048046624" lon="4.373520437263814"><ele>800.5</ele><time>2026-04-06T12:11:54Z</time></trkpt><trkpt lat="44.92814968865429" lon="4.373406937824962"><ele>801.6666666666667</ele><time>2026-04-06T12:11:56Z</time></trkpt><trkpt lat="44.92809768063172" lon="4.373344167976152"><ele>802.8333333333334</ele><time>2026-04-06T12:11:58Z</time></trkpt><trkpt lat="44.928033802931786" lon="4.373271999511584"><ele>804.0</ele><time>2026-04-06T12:11:59Z</time></trkpt><trkpt lat="44.927970842346156" lon="4.373218879361196"><ele>804.0</ele><time>2026-04-06T12:12:00Z</time></trkpt><trkpt lat="44.92791204571452" lon="4.373185499461159"><ele>804.0</ele><time>2026-04-06T12:12:01Z</time></trkpt><trkpt lat="44.92784723843076" lon="4.373142325128582"><ele>804.0</ele><time>2026-04-06T12:12:02Z</time></trkpt><trkpt lat="44.9277718342668" lon="4.373039658447046"><ele>804.0</ele><time>2026-04-06T12:12:04Z</time></trkpt><trkpt lat="44.92767546633927" lon="4.37292544301813"><ele>804.0</ele><time>2026-04-06T12:12:06Z</time></trkpt><trkpt lat="44.927608111929445" lon="4.372817265896485"><ele>801.6</ele><time>2026-04-06T12:12:08Z</time></trkpt><trkpt lat="44.92755834594929" lon="4.372739687771081"><ele>799.2</ele><time>2026-04-06T12:12:09Z</time></trkpt><trkpt lat="44.927488160964096" lon="4.37269520464637"><ele>796.8000000000001</ele><time>2026-04-06T12:12:10Z</time></trkpt><trkpt lat="44.92739749583513" lon="4.372649258743895"><ele>794.4000000000001</ele><time>2026-04-06T12:12:12Z</time></trkpt><trkpt lat="44.92728046077622" lon="4.372667514120533"><ele>792.0</ele><time>2026-04-06T12:12:14Z</time></trkpt><trkpt lat="44.92716227326751" lon="4.372701381578108"><ele>792.0</ele><time>2026-04-06T12:12:16Z</time></trkpt><trkpt lat="44.927094008923795" lon="4.372715100366384"><ele>792.0</ele><time>2026-04-06T12:12:17Z</time></trkpt><trkpt lat="44.927000115107546" lon="4.3727688822598925"><ele>792.0</ele><time>2026-04-06T12:12:18Z</time></trkpt><trkpt lat="44.92690514381146" lon="4.372843574282922"><ele>792.0</ele><time>2026-04-06T12:12:19Z</time></trkpt><trkpt lat="44.92682550426174" lon="4.372911246862993"><ele>792.0</ele><time>2026-04-06T12:12:20Z</time></trkpt><trkpt lat="44.92674768785311" lon="4.372976372323652"><ele>791.8333333333334</ele><time>2026-04-06T12:12:21Z</time></trkpt><trkpt lat="44.92667162673187" lon="4.373021182683795"><ele>791.6666666666667</ele><time>2026-04-06T12:12:22Z</time></trkpt><trkpt lat="44.92660964350014" lon="4.373060726171255"><ele>791.5</ele><time>2026-04-06T12:12:23Z</time></trkpt><trkpt lat="44.92652552827305" lon="4.3730950197840475"><ele>791.3333333333334</ele><time>2026-04-06T12:12:25Z</time></trkpt><trkpt lat="44.9263835529924" lon="4.373054278881729"><ele>791.1666666666667</ele><time>2026-04-06T12:12:27Z</time></trkpt><trkpt lat="44.92632127682328" lon="4.373026920703168"><ele>791.0</ele><time>2026-04-06T12:12:28Z</time></trkpt><trkpt lat="44.9262298711388" lon="4.372981709652781"><ele>791.0000000000001</ele><time>2026-04-06T12:12:30Z</time></trkpt><trkpt lat="44.92615523029916" lon="4.372942069264511"><ele>791.0</ele><time>2026-04-06T12:12:32Z</time></trkpt><trkpt lat="44.92609477194071" lon="4.37291597011088"><ele>791.0</ele><time>2026-04-06T12:12:33Z</time></trkpt><trkpt lat="44.92597926547806" lon="4.372863051568964"><ele>791.0</ele><time>2026-04-06T12:12:35Z</time></trkpt><trkpt lat="44.92590707591722" lon="4.372832074000839"><ele>791.0000000000001</ele><time>2026-04-06T12:12:36Z</time></trkpt><trkpt lat="44.92583303710405" lon="4.372813713875539"><ele>791.0</ele><time>2026-04-06T12:12:37Z</time></trkpt><trkpt lat="44.92575942690922" lon="4.372806034849288"><ele>792.8333333333334</ele><time>2026-04-06T12:12:38Z</time></trkpt><trkpt lat="44.92567869326096" lon="4.372821912103111"><ele>794.6666666666667</ele><time>2026-04-06T12:12:39Z</time></trkpt><trkpt lat="44.92560603930593" lon="4.3728480420808005"><ele>796.5</ele><time>2026-04-06T12:12:40Z</time></trkpt><trkpt lat="44.92554227950347" lon="4.37287493857585"><ele>798.3333333333333</ele><time>2026-04-06T12:12:41Z</time></trkpt><trkpt lat="44.92547669464662" lon="4.372921042286215"><ele>800.1666666666666</ele><time>2026-04-06T12:12:42Z</time></trkpt><trkpt lat="44.9254012054165" lon="4.372969300398342"><ele>802.0</ele><time>2026-04-06T12:12:43Z</time></trkpt><trkpt lat="44.92533234535655" lon="4.373022807671127"><ele>805.2857142857143</ele><time>2026-04-06T12:12:44Z</time></trkpt><trkpt lat="44.92526661352821" lon="4.373085028616009"><ele>808.5714285714287</ele><time>2026-04-06T12:12:45Z</time></trkpt><trkpt lat="44.92519836646428" lon="4.373130243827881"><ele>811.8571428571429</ele><time>2026-04-06T12:12:46Z</time></trkpt><trkpt lat="44.925134297448885" lon="4.37317305282048"><ele>815.1428571428571</ele><time>2026-04-06T12:12:47Z</time></trkpt><trkpt lat="44.925070604895794" lon="4.373203769264446"><ele>818.4285714285714</ele><time>2026-04-06T12:12:48Z</time></trkpt><trkpt lat="44.92500092845474" lon="4.373223525430028"><ele>821.7142857142857</ele><time>2026-04-06T12:12:49Z</time></trkpt><trkpt lat="44.92491708938268" lon="4.373205710100878"><ele>825.0</ele><time>2026-04-06T12:12:50Z</time></trkpt><trkpt lat="44.9248275570633" lon="4.373163957906206"><ele>825.0</ele><time>2026-04-06T12:12:51Z</time></trkpt><trkpt lat="44.92473624451029" lon="4.373153684685876"><ele>825.0</ele><time>2026-04-06T12:12:52Z</time></trkpt><trkpt lat="44.92466838320764" lon="4.373135962829631"><ele>825.0</ele><time>2026-04-06T12:12:53Z</time></trkpt><trkpt lat="44.924604719549954" lon="4.373120312959997"><ele>825.0</ele><time>2026-04-06T12:12:54Z</time></trkpt><trkpt lat="44.92448924244616" lon="4.3730799428184515"><ele>825.0</ele><time>2026-04-06T12:12:56Z</time></trkpt><trkpt lat="44.92442708925906" lon="4.373096650775316"><ele>825.0</ele><time>2026-04-06T12:12:57Z</time></trkpt><trkpt lat="44.92435190328511" lon="4.373129327425241"><ele>825.0</ele><time>2026-04-06T12:12:58Z</time></trkpt><trkpt lat="44.92428732083144" lon="4.3731821119147325"><ele>825.0</ele><time>2026-04-06T12:12:59Z</time></trkpt><trkpt lat="44.92420585277924" lon="4.373254512086267"><ele>825.0</ele><time>2026-04-06T12:13:01Z</time></trkpt><trkpt lat="44.92410683946522" lon="4.373345306224417"><ele>825.0</ele><time>2026-04-06T12:13:03Z</time></trkpt><trkpt lat="44.92406688192229" lon="4.373470801540239"><ele>825.0</ele><time>2026-04-06T12:13:05Z</time></trkpt><trkpt lat="44.92405846835812" lon="4.373581344005033"><ele>825.0</ele><time>2026-04-06T12:13:08Z</time></trkpt><trkpt lat="44.924053088704376" lon="4.373675177645505"><ele>825.0</ele><time>2026-04-06T12:13:10Z</time></trkpt><trkpt lat="44.92403392704631" lon="4.373920075954337"><ele>825.0</ele><time>2026-04-06T12:13:12Z</time></trkpt><trkpt lat="44.92401240564153" lon="4.374081256063329"><ele>825.0</ele><time>2026-04-06T12:13:14Z</time></trkpt><trkpt lat="44.923993080596645" lon="4.374282791802635"><ele>825.0</ele><time>2026-04-06T12:13:16Z</time></trkpt><trkpt lat="44.92397354934389" lon="4.37436758038952"><ele>825.0</ele><time>2026-04-06T12:13:17Z</time></trkpt><trkpt lat="44.92397506128016" lon="4.37450228697118"><ele>825.0</ele><time>2026-04-06T12:13:19Z</time></trkpt><trkpt lat="44.923999094501816" lon="4.374646350668572"><ele>825.0</ele><time>2026-04-06T12:13:21Z</time></trkpt><trkpt lat="44.92394232810996" lon="4.374750295300718"><ele>825.0</ele><time>2026-04-06T12:13:23Z</time></trkpt><trkpt lat="44.92396010030865" lon="4.374912415276407"><ele>826.1666666666666</ele><time>2026-04-06T12:13:25Z</time></trkpt><trkpt lat="44.92394320826571" lon="4.375062654233"><ele>827.3333333333333</ele><time>2026-04-06T12:13:26Z</time></trkpt><trkpt lat="44.92394501353341" lon="4.375167314432536"><ele>828.5</ele><time>2026-04-06T12:13:27Z</time></trkpt><trkpt lat="44.92393834428334" lon="4.375276792070364"><ele>829.6666666666666</ele><time>2026-04-06T12:13:28Z</time></trkpt><trkpt lat="44.923923980185776" lon="4.3753753329669385"><ele>830.8333333333333</ele><time>2026-04-06T12:13:29Z</time></trkpt><trkpt lat="44.923873609896475" lon="4.375477691601816"><ele>832.0</ele><time>2026-04-06T12:13:30Z</time></trkpt><trkpt lat="44.923818103829575" lon="4.375567407047011"><ele>834.4000000000001</ele><time>2026-04-06T12:13:31Z</time></trkpt><trkpt lat="44.92372126460696" lon="4.37572950915683"><ele>836.8000000000001</ele><time>2026-04-06T12:13:33Z</time></trkpt><trkpt lat="44.92367753083041" lon="4.375822774711579"><ele>839.2</ele><time>2026-04-06T12:13:34Z</time></trkpt><trkpt lat="44.92357744856469" lon="4.375937907579139"><ele>841.6</ele><time>2026-04-06T12:13:36Z</time></trkpt><trkpt lat="44.923529922661416" lon="4.3760025900970705"><ele>844.0</ele><time>2026-04-06T12:13:37Z</time></trkpt><trkpt lat="44.92347742874781" lon="4.376075637659828"><ele>843.9999999999999</ele><time>2026-04-06T12:13:38Z</time></trkpt><trkpt lat="44.92342416444695" lon="4.376138050113085"><ele>844.0</ele><time>2026-04-06T12:13:39Z</time></trkpt><trkpt lat="44.92337408843542" lon="4.376208639075557"><ele>844.0</ele><time>2026-04-06T12:13:40Z</time></trkpt><trkpt lat="44.9233372676897" lon="4.376292673466078"><ele>844.0</ele><time>2026-04-06T12:13:41Z</time></trkpt><trkpt lat="44.92330504006314" lon="4.376372292968502"><ele>843.9999999999999</ele><time>2026-04-06T12:13:42Z</time></trkpt><trkpt lat="44.923257981656405" lon="4.376484770571377"><ele>844.0</ele><time>2026-04-06T12:13:44Z</time></trkpt><trkpt lat="44.923219804467486" lon="4.376621324825354"><ele>839.9999999999999</ele><time>2026-04-06T12:13:47Z</time></trkpt><trkpt lat="44.92321720425821" lon="4.376725221742302"><ele>836.0</ele><time>2026-04-06T12:13:57Z</time></trkpt><trkpt lat="44.92324504823723" lon="4.37683043740775"><ele>832.0</ele><time>2026-04-06T12:14:18Z</time></trkpt><trkpt lat="44.9232138680593" lon="4.376736506859336"><ele>828.0</ele><time>2026-04-06T12:14:32Z</time></trkpt><trkpt lat="44.923172615564674" lon="4.3768594772411085"><ele>823.9999999999999</ele><time>2026-04-06T12:14:55Z</time></trkpt><trkpt lat="44.92313108297541" lon="4.376929479728275"><ele>820.0</ele><time>2026-04-06T12:14:57Z</time></trkpt><trkpt lat="44.923064502673064" lon="4.377000670131672"><ele>819.9999999999999</ele><time>2026-04-06T12:15:01Z</time></trkpt><trkpt lat="44.922965192448004" lon="4.377041631150666"><ele>820.0</ele><time>2026-04-06T12:15:04Z</time></trkpt><trkpt lat="44.92289008359854" lon="4.377092870935124"><ele>820.0</ele><time>2026-04-06T12:15:06Z</time></trkpt><trkpt lat="44.922830081149584" lon="4.377138469726435"><ele>820.0</ele><time>2026-04-06T12:15:09Z</time></trkpt><trkpt lat="44.922753644592206" lon="4.377183213037638"><ele>819.9999999999999</ele><time>2026-04-06T12:15:12Z</time></trkpt><trkpt lat="44.92271164140478" lon="4.377276588731296"><ele>820.0</ele><time>2026-04-06T12:15:14Z</time></trkpt><trkpt lat="44.92263997457121" lon="4.377308147563092"><ele>820.75</ele><time>2026-04-06T12:15:16Z</time></trkpt><trkpt lat="44.92252692053618" lon="4.377335369975489"><ele>821.5</ele><time>2026-04-06T12:15:18Z</time></trkpt><trkpt lat="44.92243984247589" lon="4.3772124549444325"><ele>822.25</ele><time>2026-04-06T12:15:19Z</time></trkpt><trkpt lat="44.92233663700371" lon="4.377176268710209"><ele>823.0</ele><time>2026-04-06T12:15:21Z</time></trkpt><trkpt lat="44.92222604535854" lon="4.377223172496232"><ele>822.9999999999999</ele><time>2026-04-06T12:15:23Z</time></trkpt><trkpt lat="44.92215360218083" lon="4.377263545799097"><ele>823.0</ele><time>2026-04-06T12:15:24Z</time></trkpt><trkpt lat="44.922077163099324" lon="4.377319387980669"><ele>823.0</ele><time>2026-04-06T12:15:25Z</time></trkpt><trkpt lat="44.92201250244476" lon="4.377381159550471"><ele>823.0</ele><time>2026-04-06T12:15:26Z</time></trkpt><trkpt lat="44.92197145436232" lon="4.377453894587308"><ele>822.9999999999999</ele><time>2026-04-06T12:15:27Z</time></trkpt><trkpt lat="44.9219408555707" lon="4.377532436770119"><ele>823.0</ele><time>2026-04-06T12:15:29Z</time></trkpt><trkpt lat="44.92193600673799" lon="4.377658585925999"><ele>822.9999999999999</ele><time>2026-04-06T12:15:31Z</time></trkpt><trkpt lat="44.921915509617335" lon="4.377762884645089"><ele>823.0</ele><time>2026-04-06T12:15:33Z</time></trkpt><trkpt lat="44.92186761042488" lon="4.3778232794893475"><ele>823.0</ele><time>2026-04-06T12:15:35Z</time></trkpt><trkpt lat="44.921828982713514" lon="4.377921098546421"><ele>823.0</ele><time>2026-04-06T12:15:37Z</time></trkpt><trkpt lat="44.92176958399748" lon="4.37803556379445"><ele>822.9999999999999</ele><time>2026-04-06T12:15:39Z</time></trkpt><trkpt lat="44.921742596636015" lon="4.378132910539805"><ele>823.0</ele><time>2026-04-06T12:15:40Z</time></trkpt><trkpt lat="44.92167822281925" lon="4.378243886394173"><ele>825.5999999999999</ele><time>2026-04-06T12:15:42Z</time></trkpt><trkpt lat="44.92156989225433" lon="4.378261975208718"><ele>828.1999999999999</ele><time>2026-04-06T12:15:44Z</time></trkpt><trkpt lat="44.92148428069295" lon="4.378305666446516"><ele>830.8</ele><time>2026-04-06T12:15:46Z</time></trkpt><trkpt lat="44.92138923707351" lon="4.378303737881091"><ele>833.4</ele><time>2026-04-06T12:15:48Z</time></trkpt><trkpt lat="44.92126463100571" lon="4.378305780473341"><ele>836.0</ele><time>2026-04-06T12:15:50Z</time></trkpt><trkpt lat="44.92118898725609" lon="4.3783622442462615"><ele>836.0</ele><time>2026-04-06T12:15:52Z</time></trkpt><trkpt lat="44.92110928666791" lon="4.378494650276016"><ele>836.0</ele><time>2026-04-06T12:15:54Z</time></trkpt><trkpt lat="44.92105882397888" lon="4.378579229536046"><ele>836.0</ele><time>2026-04-06T12:15:55Z</time></trkpt><trkpt lat="44.92099250479438" lon="4.378633958383532"><ele>836.0</ele><time>2026-04-06T12:15:56Z</time></trkpt><trkpt lat="44.92091200636535" lon="4.378660698474122"><ele>836.0</ele><time>2026-04-06T12:15:57Z</time></trkpt><trkpt lat="44.92080737333897" lon="4.3786962486402"><ele>836.5</ele><time>2026-04-06T12:15:58Z</time></trkpt><trkpt lat="44.92067881984246" lon="4.378762514668628"><ele>837.0</ele><time>2026-04-06T12:15:59Z</time></trkpt><trkpt lat="44.92057302004058" lon="4.37882740725909"><ele>837.5</ele><time>2026-04-06T12:16:00Z</time></trkpt><trkpt lat="44.92047615696499" lon="4.378868952642515"><ele>838.0</ele><time>2026-04-06T12:16:01Z</time></trkpt><trkpt lat="44.92036799058666" lon="4.378934242194382"><ele>841.3333333333333</ele><time>2026-04-06T12:16:02Z</time></trkpt><trkpt lat="44.92026140130892" lon="4.378955224734926"><ele>844.6666666666666</ele><time>2026-04-06T12:16:03Z</time></trkpt><trkpt lat="44.920178085417774" lon="4.378968243772898"><ele>848.0</ele><time>2026-04-06T12:16:04Z</time></trkpt><trkpt lat="44.9201109772812" lon="4.378961389934177"><ele>851.3333333333333</ele><time>2026-04-06T12:16:05Z</time></trkpt><trkpt lat="44.920047399552246" lon="4.379005093949861"><ele>854.6666666666666</ele><time>2026-04-06T12:16:06Z</time></trkpt><trkpt lat="44.91999329905751" lon="4.37905287743071"><ele>858.0</ele><time>2026-04-06T12:16:07Z</time></trkpt><trkpt lat="44.91992235626681" lon="4.37907947936508"><ele>858.5</ele><time>2026-04-06T12:16:08Z</time></trkpt><trkpt lat="44.91984548552985" lon="4.379216441275269"><ele>859.0</ele><time>2026-04-06T12:16:10Z</time></trkpt><trkpt lat="44.91981818302919" lon="4.3792985070108"><ele>859.5</ele><time>2026-04-06T12:16:11Z</time></trkpt><trkpt lat="44.91977960129967" lon="4.379377350299538"><ele>860.0</ele><time>2026-04-06T12:16:12Z</time></trkpt><trkpt lat="44.91970680775415" lon="4.379449895641324"><ele>860.5</ele><time>2026-04-06T12:16:14Z</time></trkpt><trkpt lat="44.919612317025624" lon="4.379416610708898"><ele>861.0</ele><time>2026-04-06T12:16:58Z</time></trkpt><trkpt lat="44.91948439116306" lon="4.379365733175321"><ele>861.0</ele><time>2026-04-06T12:17:00Z</time></trkpt><trkpt lat="44.91940923823339" lon="4.379341449990787"><ele>861.0</ele><time>2026-04-06T12:17:01Z</time></trkpt><trkpt lat="44.91933213349704" lon="4.379282023319277"><ele>861.0</ele><time>2026-04-06T12:17:02Z</time></trkpt><trkpt lat="44.91926599485208" lon="4.379232973185587"><ele>861.0</ele><time>2026-04-06T12:17:03Z</time></trkpt><trkpt lat="44.91921301293132" lon="4.37918177852807"><ele>861.0</ele><time>2026-04-06T12:17:04Z</time></trkpt><trkpt lat="44.91913947861287" lon="4.379117429582388"><ele>861.0</ele><time>2026-04-06T12:17:05Z</time></trkpt><trkpt lat="44.919060989352204" lon="4.379053571743082"><ele>860.1999999999999</ele><time>2026-04-06T12:17:06Z</time></trkpt><trkpt lat="44.91897137429753" lon="4.378979696495853"><ele>859.3999999999999</ele><time>2026-04-06T12:17:07Z</time></trkpt><trkpt lat="44.91885092934454" lon="4.378888996146201"><ele>858.6</ele><time>2026-04-06T12:17:08Z</time></trkpt><trkpt lat="44.918767703205646" lon="4.3788271682702575"><ele>857.8</ele><time>2026-04-06T12:17:09Z</time></trkpt><trkpt lat="44.91868557388207" lon="4.378765815936483"><ele>857.0</ele><time>2026-04-06T12:17:10Z</time></trkpt><trkpt lat="44.91858877779415" lon="4.378714743313667"><ele>857.0</ele><time>2026-04-06T12:17:11Z</time></trkpt><trkpt lat="44.91850919945301" lon="4.378658324945835"><ele>857.0</ele><time>2026-04-06T12:17:12Z</time></trkpt><trkpt lat="44.918421707595094" lon="4.37857744573275"><ele>857.0</ele><time>2026-04-06T12:17:13Z</time></trkpt><trkpt lat="44.91832203198874" lon="4.378481936266693"><ele>857.0</ele><time>2026-04-06T12:17:14Z</time></trkpt><trkpt lat="44.91817050886474" lon="4.378372993574653"><ele>858.4000000000001</ele><time>2026-04-06T12:17:15Z</time></trkpt><trkpt lat="44.918067019557604" lon="4.378314808230177"><ele>859.8000000000001</ele><time>2026-04-06T12:17:16Z</time></trkpt><trkpt lat="44.91797199179221" lon="4.378252318346413"><ele>861.2</ele><time>2026-04-06T12:17:17Z</time></trkpt><trkpt lat="44.91789878620012" lon="4.3781994413782375"><ele>862.6</ele><time>2026-04-06T12:17:18Z</time></trkpt><trkpt lat="44.91781071344666" lon="4.3781712617551145"><ele>864.0</ele><time>2026-04-06T12:17:19Z</time></trkpt><trkpt lat="44.91774139232238" lon="4.378163194864866"><ele>864.0</ele><time>2026-04-06T12:17:20Z</time></trkpt><trkpt lat="44.91766491378408" lon="4.378173812555858"><ele>864.0000000000001</ele><time>2026-04-06T12:17:21Z</time></trkpt><trkpt lat="44.91757579979987" lon="4.378157633423427"><ele>864.0000000000001</ele><time>2026-04-06T12:17:22Z</time></trkpt><trkpt lat="44.91745565384668" lon="4.378136102990535"><ele>864.0</ele><time>2026-04-06T12:17:23Z</time></trkpt><trkpt lat="44.91735166845213" lon="4.378110019554441"><ele>864.0</ele><time>2026-04-06T12:17:24Z</time></trkpt><trkpt lat="44.91722399062028" lon="4.378069276666663"><ele>866.2</ele><time>2026-04-06T12:17:25Z</time></trkpt><trkpt lat="44.917154679470364" lon="4.3780445011707085"><ele>868.4000000000001</ele><time>2026-04-06T12:17:26Z</time></trkpt><trkpt lat="44.91702217724834" lon="4.377946776697809"><ele>870.6</ele><time>2026-04-06T12:17:28Z</time></trkpt><trkpt lat="44.916943403577484" lon="4.377895371693405"><ele>872.8</ele><time>2026-04-06T12:17:29Z</time></trkpt><trkpt lat="44.91685574510336" lon="4.3778445231652565"><ele>875.0</ele><time>2026-04-06T12:17:30Z</time></trkpt><trkpt lat="44.916752442463206" lon="4.377799555621289"><ele>879.3333333333334</ele><time>2026-04-06T12:17:31Z</time></trkpt><trkpt lat="44.91664887648636" lon="4.377759791842158"><ele>883.6666666666667</ele><time>2026-04-06T12:17:32Z</time></trkpt><trkpt lat="44.91656715423401" lon="4.377729807877305"><ele>888.0</ele><time>2026-04-06T12:17:33Z</time></trkpt><trkpt lat="44.9165009829441" lon="4.37768680444458"><ele>892.3333333333333</ele><time>2026-04-06T12:17:34Z</time></trkpt><trkpt lat="44.9164330878245" lon="4.377620918357803"><ele>896.6666666666666</ele><time>2026-04-06T12:17:35Z</time></trkpt><trkpt lat="44.91637526476924" lon="4.377556102082622"><ele>901.0</ele><time>2026-04-06T12:17:36Z</time></trkpt><trkpt lat="44.91630858342761" lon="4.377469680726208"><ele>901.0</ele><time>2026-04-06T12:17:37Z</time></trkpt><trkpt lat="44.916252987173394" lon="4.3773765329502226"><ele>900.9999999999999</ele><time>2026-04-06T12:17:38Z</time></trkpt><trkpt lat="44.91621066202857" lon="4.377271998463154"><ele>900.9999999999999</ele><time>2026-04-06T12:17:39Z</time></trkpt><trkpt lat="44.91608708368813" lon="4.377220829311031"><ele>901.0</ele><time>2026-04-06T12:17:41Z</time></trkpt><trkpt lat="44.91599108201326" lon="4.377224786920793"><ele>901.0</ele><time>2026-04-06T12:17:42Z</time></trkpt><trkpt lat="44.915897456837364" lon="4.37724101528252"><ele>900.75</ele><time>2026-04-06T12:17:43Z</time></trkpt><trkpt lat="44.91577263957882" lon="4.377260312611159"><ele>900.5</ele><time>2026-04-06T12:17:44Z</time></trkpt><trkpt lat="44.915666868275565" lon="4.377271233275132"><ele>900.25</ele><time>2026-04-06T12:17:45Z</time></trkpt><trkpt lat="44.915553822268514" lon="4.377257872381332"><ele>900.0</ele><time>2026-04-06T12:17:46Z</time></trkpt><trkpt lat="44.91544413923243" lon="4.377231963811625"><ele>900.0</ele><time>2026-04-06T12:17:47Z</time></trkpt><trkpt lat="44.915325395373955" lon="4.377200496567981"><ele>900.0</ele><time>2026-04-06T12:17:48Z</time></trkpt><trkpt lat="44.91522579399241" lon="4.377201246278498"><ele>900.0</ele><time>2026-04-06T12:17:49Z</time></trkpt><trkpt lat="44.91513339599333" lon="4.377178896169649"><ele>900.0</ele><time>2026-04-06T12:17:50Z</time></trkpt><trkpt lat="44.91505901711747" lon="4.377170062374998"><ele>900.0</ele><time>2026-04-06T12:17:51Z</time></trkpt><trkpt lat="44.91499754797491" lon="4.3771989957897475"><ele>901.0</ele><time>2026-04-06T12:17:52Z</time></trkpt><trkpt lat="44.91495195307626" lon="4.3773119725363046"><ele>902.0</ele><time>2026-04-06T12:17:54Z</time></trkpt><trkpt lat="44.91495009251874" lon="4.377429563550227"><ele>903.0</ele><time>2026-04-06T12:17:55Z</time></trkpt><trkpt lat="44.91495244359602" lon="4.3775374814721895"><ele>904.0</ele><time>2026-04-06T12:17:56Z</time></trkpt><trkpt lat="44.914973952879585" lon="4.377687091787205"><ele>905.0</ele><time>2026-04-06T12:17:57Z</time></trkpt><trkpt lat="44.9149730466087" lon="4.377816804827112"><ele>905.0000000000001</ele><time>2026-04-06T12:17:58Z</time></trkpt><trkpt lat="44.91496468238557" lon="4.377936916236957"><ele>905.0</ele><time>2026-04-06T12:17:59Z</time></trkpt><trkpt lat="44.91496250513699" lon="4.378030391678053"><ele>905.0</ele><time>2026-04-06T12:18:00Z</time></trkpt><trkpt lat="44.91489559079732" lon="4.3781193001634415"><ele>905.0</ele><time>2026-04-06T12:18:02Z</time></trkpt><trkpt lat="44.91483073460632" lon="4.378121490636545"><ele>905.0000000000001</ele><time>2026-04-06T12:18:03Z</time></trkpt><trkpt lat="44.91472612484627" lon="4.378138566059214"><ele>905.0</ele><time>2026-04-06T12:18:05Z</time></trkpt><trkpt lat="44.91465377109112" lon="4.37812767745357"><ele>905.0</ele><time>2026-04-06T12:18:06Z</time></trkpt><trkpt lat="44.91455278275586" lon="4.378098203157636"><ele>905.0</ele><time>2026-04-06T12:18:07Z</time></trkpt><trkpt lat="44.91442089223758" lon="4.378062512469476"><ele>905.0</ele><time>2026-04-06T12:18:08Z</time></trkpt><trkpt lat="44.91433574646042" lon="4.3780274336538705"><ele>905.0</ele><time>2026-04-06T12:18:09Z</time></trkpt><trkpt lat="44.914249792209375" lon="4.377996037736587"><ele>905.0</ele><time>2026-04-06T12:18:10Z</time></trkpt><trkpt lat="44.91416695460644" lon="4.3779825192863315"><ele>905.0000000000001</ele><time>2026-04-06T12:18:11Z</time></trkpt><trkpt lat="44.914103142881835" lon="4.377968179903197"><ele>905.0</ele><time>2026-04-06T12:18:12Z</time></trkpt><trkpt lat="44.91420747751111" lon="4.377930443861489"><ele>905.0</ele><time>2026-04-06T12:18:18Z</time></trkpt><trkpt lat="44.91426660280535" lon="4.377877527789101"><ele>905.0</ele><time>2026-04-06T12:18:19Z</time></trkpt><trkpt lat="44.91433710629694" lon="4.377798329983641"><ele>905.0000000000001</ele><time>2026-04-06T12:18:20Z</time></trkpt><trkpt lat="44.914401581110326" lon="4.377685677595568"><ele>905.0</ele><time>2026-04-06T12:18:21Z</time></trkpt><trkpt lat="44.91446530360015" lon="4.377594835500265"><ele>905.0</ele><time>2026-04-06T12:18:22Z</time></trkpt><trkpt lat="44.914509002165914" lon="4.377434508317262"><ele>905.0</ele><time>2026-04-06T12:18:24Z</time></trkpt><trkpt lat="44.914507559962445" lon="4.377337994797797"><ele>905.0</ele><time>2026-04-06T12:18:25Z</time></trkpt><trkpt lat="44.914496276873216" lon="4.37723202266346"><ele>905.0</ele><time>2026-04-06T12:18:26Z</time></trkpt><trkpt lat="44.91447514523071" lon="4.377087798906122"><ele>905.0</ele><time>2026-04-06T12:18:27Z</time></trkpt><trkpt lat="44.9144350401994" lon="4.376929133069191"><ele>905.1666666666667</ele><time>2026-04-06T12:18:28Z</time></trkpt><trkpt lat="44.9144144603598" lon="4.376796602867833"><ele>905.3333333333334</ele><time>2026-04-06T12:18:29Z</time></trkpt><trkpt lat="44.914422197595385" lon="4.376683193265621"><ele>905.5</ele><time>2026-04-06T12:18:30Z</time></trkpt><trkpt lat="44.91444945455653" lon="4.376582029026768"><ele>905.6666666666667</ele><time>2026-04-06T12:18:31Z</time></trkpt><trkpt lat="44.91449924522601" lon="4.376485250994045"><ele>905.8333333333334</ele><time>2026-04-06T12:18:32Z</time></trkpt><trkpt lat="44.9145330928152" lon="4.376396974646644"><ele>906.0</ele><time>2026-04-06T12:18:33Z</time></trkpt><trkpt lat="44.91452958021849" lon="4.3762694131249695"><ele>906.0</ele><time>2026-04-06T12:18:35Z</time></trkpt><trkpt lat="44.914398651716915" lon="4.376227409745486"><ele>906.0</ele><time>2026-04-06T12:18:37Z</time></trkpt><trkpt lat="44.914299883562364" lon="4.376197960203782"><ele>906.0</ele><time>2026-04-06T12:18:38Z</time></trkpt><trkpt lat="44.914191864042586" lon="4.376141951394786"><ele>906.0</ele><time>2026-04-06T12:18:39Z</time></trkpt><trkpt lat="44.914086020723836" lon="4.376110132296399"><ele>907.6666666666666</ele><time>2026-04-06T12:18:40Z</time></trkpt><trkpt lat="44.91401345810662" lon="4.376117740403748"><ele>909.3333333333333</ele><time>2026-04-06T12:18:41Z</time></trkpt><trkpt lat="44.913944253392174" lon="4.376135494825584"><ele>911.0</ele><time>2026-04-06T12:18:42Z</time></trkpt><trkpt lat="44.91386406881632" lon="4.3761688433511905"><ele>912.6666666666666</ele><time>2026-04-06T12:18:43Z</time></trkpt><trkpt lat="44.91377258022977" lon="4.376226755938103"><ele>914.3333333333333</ele><time>2026-04-06T12:18:44Z</time></trkpt><trkpt lat="44.91369878069255" lon="4.376242229524922"><ele>916.0</ele><time>2026-04-06T12:18:45Z</time></trkpt><trkpt lat="44.913613915192975" lon="4.376248109005022"><ele>916.0</ele><time>2026-04-06T12:18:46Z</time></trkpt><trkpt lat="44.91352360853069" lon="4.376254903645316"><ele>915.9999999999999</ele><time>2026-04-06T12:18:47Z</time></trkpt><trkpt lat="44.91344172592113" lon="4.376186239935809"><ele>915.9999999999999</ele><time>2026-04-06T12:18:49Z</time></trkpt><trkpt lat="44.9134348465954" lon="4.376048984167678"><ele>916.0</ele><time>2026-04-06T12:18:50Z</time></trkpt><trkpt lat="44.91349662667581" lon="4.375910229703506"><ele>916.0</ele><time>2026-04-06T12:18:51Z</time></trkpt><trkpt lat="44.91351220978054" lon="4.375791773085128"><ele>916.0</ele><time>2026-04-06T12:18:52Z</time></trkpt><trkpt lat="44.91354317858285" lon="4.375682907280023"><ele>915.9999999999999</ele><time>2026-04-06T12:18:53Z</time></trkpt><trkpt lat="44.91357779637723" lon="4.3755586759646725"><ele>915.9999999999999</ele><time>2026-04-06T12:18:54Z</time></trkpt><trkpt lat="44.913601102941215" lon="4.375421048349722"><ele>916.0</ele><time>2026-04-06T12:18:55Z</time></trkpt><trkpt lat="44.91359650208451" lon="4.3752790449061285"><ele>916.0</ele><time>2026-04-06T12:18:56Z</time></trkpt><trkpt lat="44.913610332749556" lon="4.375162658363364"><ele>915.4</ele><time>2026-04-06T12:18:57Z</time></trkpt><trkpt lat="44.913631466098764" lon="4.375057171031119"><ele>914.8</ele><time>2026-04-06T12:18:58Z</time></trkpt><trkpt lat="44.913663324510665" lon="4.374859662727093"><ele>914.1999999999999</ele><time>2026-04-06T12:19:00Z</time></trkpt><trkpt lat="44.91365848609622" lon="4.37472471214096"><ele>913.5999999999999</ele><time>2026-04-06T12:19:01Z</time></trkpt><trkpt lat="44.91364408829728" lon="4.374610222545847"><ele>913.0</ele><time>2026-04-06T12:19:02Z</time></trkpt><trkpt lat="44.91359222894434" lon="4.374516008234627"><ele>911.9999999999999</ele><time>2026-04-06T12:19:03Z</time></trkpt><trkpt lat="44.91355915017504" lon="4.374420824752313"><ele>911.0</ele><time>2026-04-06T12:19:04Z</time></trkpt><trkpt lat="44.91350786840707" lon="4.37429419616689"><ele>910.0</ele><time>2026-04-06T12:19:06Z</time></trkpt><trkpt lat="44.91346037906071" lon="4.374190543631703"><ele>909.0</ele><time>2026-04-06T12:19:08Z</time></trkpt><trkpt lat="44.913419985400495" lon="4.37411028808047"><ele>907.9999999999999</ele><time>2026-04-06T12:19:09Z</time></trkpt><trkpt lat="44.91334609691267" lon="4.374013466030166"><ele>907.0</ele><time>2026-04-06T12:19:10Z</time></trkpt><trkpt lat="44.91322604787824" lon="4.3739359574667915"><ele>914.0</ele><time>2026-04-06T12:19:11Z</time></trkpt><trkpt lat="44.91317584661296" lon="4.373820986437634"><ele>921.0</ele><time>2026-04-06T12:19:12Z</time></trkpt><trkpt lat="44.91315529369175" lon="4.373659716624081"><ele>928.0</ele><time>2026-04-06T12:19:13Z</time></trkpt><trkpt lat="44.91313923003691" lon="4.373503316446783"><ele>935.0</ele><time>2026-04-06T12:19:14Z</time></trkpt><trkpt lat="44.91312537652307" lon="4.373325120598603"><ele>935.0</ele><time>2026-04-06T12:19:15Z</time></trkpt><trkpt lat="44.91310543684033" lon="4.373155130077248"><ele>935.0</ele><time>2026-04-06T12:19:16Z</time></trkpt><trkpt lat="44.91309282321648" lon="4.372989249184055"><ele>935.0</ele><time>2026-04-06T12:19:17Z</time></trkpt><trkpt lat="44.91305603392336" lon="4.3728515656344245"><ele>935.0</ele><time>2026-04-06T12:19:18Z</time></trkpt><trkpt lat="44.91303191299347" lon="4.3727249893607"><ele>935.0</ele><time>2026-04-06T12:19:19Z</time></trkpt><trkpt lat="44.91300174326423" lon="4.372610277775293"><ele>934.0</ele><time>2026-04-06T12:19:20Z</time></trkpt><trkpt lat="44.91294537811349" lon="4.3725122689691505"><ele>933.0</ele><time>2026-04-06T12:19:21Z</time></trkpt><trkpt lat="44.912883045060326" lon="4.372410907707873"><ele>932.0</ele><time>2026-04-06T12:19:22Z</time></trkpt><trkpt lat="44.912804828221624" lon="4.372315357054994"><ele>931.0</ele><time>2026-04-06T12:19:23Z</time></trkpt><trkpt lat="44.912704448773795" lon="4.3722376257111115"><ele>930.0</ele><time>2026-04-06T12:19:24Z</time></trkpt><trkpt lat="44.912610964835515" lon="4.372157621070559"><ele>932.75</ele><time>2026-04-06T12:19:25Z</time></trkpt><trkpt lat="44.91251218870444" lon="4.372081646453789"><ele>935.5</ele><time>2026-04-06T12:19:26Z</time></trkpt><trkpt lat="44.91241960459904" lon="4.3719849764412935"><ele>938.25</ele><time>2026-04-06T12:19:27Z</time></trkpt><trkpt lat="44.91233586095679" lon="4.371859424269529"><ele>941.0</ele><time>2026-04-06T12:19:28Z</time></trkpt><trkpt lat="44.912296397852096" lon="4.371693152544291"><ele>941.0000000000001</ele><time>2026-04-06T12:19:29Z</time></trkpt><trkpt lat="44.91227159292162" lon="4.371546071512511"><ele>941.0</ele><time>2026-04-06T12:19:30Z</time></trkpt><trkpt lat="44.912241306553796" lon="4.371434792916267"><ele>941.0</ele><time>2026-04-06T12:19:31Z</time></trkpt><trkpt lat="44.91220915070335" lon="4.371322145407576"><ele>941.0</ele><time>2026-04-06T12:19:32Z</time></trkpt><trkpt lat="44.912158128746555" lon="4.371238577802998"><ele>941.0000000000001</ele><time>2026-04-06T12:19:33Z</time></trkpt><trkpt lat="44.912080129473956" lon="4.371192664155931"><ele>941.0</ele><time>2026-04-06T12:19:34Z</time></trkpt><trkpt lat="44.911985249044506" lon="4.371175639686713"><ele>941.75</ele><time>2026-04-06T12:19:35Z</time></trkpt><trkpt lat="44.9118866441283" lon="4.371166482034515"><ele>942.5</ele><time>2026-04-06T12:19:36Z</time></trkpt><trkpt lat="44.91179399863627" lon="4.3711456313739605"><ele>943.25</ele><time>2026-04-06T12:19:37Z</time></trkpt><trkpt lat="44.91172475036795" lon="4.371082365599208"><ele>944.0</ele><time>2026-04-06T12:19:38Z</time></trkpt><trkpt lat="44.91158410525169" lon="4.370931182366485"><ele>944.0</ele><time>2026-04-06T12:19:39Z</time></trkpt><trkpt lat="44.911497099459496" lon="4.370773923152029"><ele>944.0</ele><time>2026-04-06T12:19:40Z</time></trkpt><trkpt lat="44.91137675782091" lon="4.370620433006364"><ele>944.0</ele><time>2026-04-06T12:19:41Z</time></trkpt><trkpt lat="44.9112754577533" lon="4.370494431648952"><ele>944.0</ele><time>2026-04-06T12:19:42Z</time></trkpt><trkpt lat="44.91115741032628" lon="4.370358126168403"><ele>945.5</ele><time>2026-04-06T12:19:43Z</time></trkpt><trkpt lat="44.91106001880673" lon="4.370219127430828"><ele>947.0</ele><time>2026-04-06T12:19:44Z</time></trkpt><trkpt lat="44.910975529839696" lon="4.370072789228305"><ele>948.5</ele><time>2026-04-06T12:19:45Z</time></trkpt><trkpt lat="44.91091044297293" lon="4.36991399915674"><ele>950.0</ele><time>2026-04-06T12:19:46Z</time></trkpt><trkpt lat="44.91088385584478" lon="4.369717368194279"><ele>948.25</ele><time>2026-04-06T12:19:47Z</time></trkpt><trkpt lat="44.91083613203613" lon="4.3695183629989796"><ele>946.5</ele><time>2026-04-06T12:19:48Z</time></trkpt><trkpt lat="44.91079488306326" lon="4.369346990114523"><ele>944.75</ele><time>2026-04-06T12:19:49Z</time></trkpt><trkpt lat="44.91074508904244" lon="4.369179724827559"><ele>943.0</ele><time>2026-04-06T12:19:50Z</time></trkpt><trkpt lat="44.910681272684904" lon="4.3690391633877"><ele>943.0</ele><time>2026-04-06T12:19:51Z</time></trkpt><trkpt lat="44.91063405315023" lon="4.368894757748772"><ele>943.0</ele><time>2026-04-06T12:19:52Z</time></trkpt><trkpt lat="44.91058984295493" lon="4.368735365089306"><ele>943.0</ele><time>2026-04-06T12:19:53Z</time></trkpt><trkpt lat="44.910576010646615" lon="4.368556126868725"><ele>943.0</ele><time>2026-04-06T12:19:54Z</time></trkpt><trkpt lat="44.9105202452487" lon="4.3683816953737615"><ele>943.5</ele><time>2026-04-06T12:19:55Z</time></trkpt><trkpt lat="44.91050596391443" lon="4.368181144737651"><ele>944.0</ele><time>2026-04-06T12:19:56Z</time></trkpt><trkpt lat="44.910503007458566" lon="4.3679725314150275"><ele>944.5</ele><time>2026-04-06T12:19:57Z</time></trkpt><trkpt lat="44.91051661884704" lon="4.3677721268192"><ele>945.0</ele><time>2026-04-06T12:19:58Z</time></trkpt><trkpt lat="44.91051247502201" lon="4.367597951190289"><ele>945.0</ele><time>2026-04-06T12:19:59Z</time></trkpt><trkpt lat="44.91049250229926" lon="4.367450884830547"><ele>945.0</ele><time>2026-04-06T12:20:00Z</time></trkpt><trkpt lat="44.91046042282476" lon="4.367301487478177"><ele>945.0</ele><time>2026-04-06T12:20:01Z</time></trkpt><trkpt lat="44.91041318177784" lon="4.367150059884031"><ele>945.0</ele><time>2026-04-06T12:20:02Z</time></trkpt><trkpt lat="44.910344091097436" lon="4.366971871097905"><ele>945.0</ele><time>2026-04-06T12:20:03Z</time></trkpt><trkpt lat="44.91026232257141" lon="4.366778906668603"><ele>945.0</ele><time>2026-04-06T12:20:04Z</time></trkpt><trkpt lat="44.910190579361156" lon="4.366569080893229"><ele>945.0</ele><time>2026-04-06T12:20:05Z</time></trkpt><trkpt lat="44.91010844853988" lon="4.366418193080927"><ele>943.5</ele><time>2026-04-06T12:20:06Z</time></trkpt><trkpt lat="44.91003291355515" lon="4.366245910488471"><ele>942.0</ele><time>2026-04-06T12:20:07Z</time></trkpt><trkpt lat="44.90996994407839" lon="4.3660686676492455"><ele>940.5</ele><time>2026-04-06T12:20:08Z</time></trkpt><trkpt lat="44.90989696363856" lon="4.365902148588257"><ele>939.0</ele><time>2026-04-06T12:20:09Z</time></trkpt><trkpt lat="44.909810235098185" lon="4.365754407321093"><ele>939.0</ele><time>2026-04-06T12:20:10Z</time></trkpt><trkpt lat="44.90973824447951" lon="4.365596062925001"><ele>939.0</ele><time>2026-04-06T12:20:11Z</time></trkpt><trkpt lat="44.909670620505636" lon="4.365447323034406"><ele>939.0</ele><time>2026-04-06T12:20:12Z</time></trkpt><trkpt lat="44.909602853356034" lon="4.365298268221118"><ele>939.0</ele><time>2026-04-06T12:20:13Z</time></trkpt><trkpt lat="44.90939996325607" lon="4.365749059201433"><ele>938.0</ele><time>2026-04-06T12:20:14Z</time></trkpt><trkpt lat="44.90914660983587" lon="4.365546725339037"><ele>937.0</ele><time>2026-04-06T12:20:15Z</time></trkpt><trkpt lat="44.90902823077853" lon="4.365401800747872"><ele>936.0</ele><time>2026-04-06T12:20:16Z</time></trkpt><trkpt lat="44.90891020428034" lon="4.365244994211485"><ele>936.0</ele><time>2026-04-06T12:20:17Z</time></trkpt><trkpt lat="44.90881915509847" lon="4.365117542313044"><ele>935.9999999999999</ele><time>2026-04-06T12:20:18Z</time></trkpt><trkpt lat="44.90877439000621" lon="4.365011167073079"><ele>935.9999999999999</ele><time>2026-04-06T12:20:19Z</time></trkpt><trkpt lat="44.90870157488642" lon="4.364834100430315"><ele>936.0</ele><time>2026-04-06T12:20:21Z</time></trkpt><trkpt lat="44.908666800458164" lon="4.364747907812905"><ele>936.0</ele><time>2026-04-06T12:20:22Z</time></trkpt><trkpt lat="44.90860282554658" lon="4.364639543800484"><ele>926.0</ele><time>2026-04-06T12:20:23Z</time></trkpt><trkpt lat="44.90875286935106" lon="4.363861366278484"><ele>926.0</ele><time>2026-04-06T12:20:24Z</time></trkpt><trkpt lat="44.90867448838251" lon="4.363769127144519"><ele>925.9999999999999</ele><time>2026-04-06T12:20:25Z</time></trkpt><trkpt lat="44.90861743077973" lon="4.363698116691931"><ele>925.9999999999999</ele><time>2026-04-06T12:20:26Z</time></trkpt><trkpt lat="44.908530199899864" lon="4.3636260169239485"><ele>926.0</ele><time>2026-04-06T12:20:28Z</time></trkpt><trkpt lat="44.90851876973887" lon="4.363496593210069"><ele>926.0</ele><time>2026-04-06T12:20:52Z</time></trkpt><trkpt lat="44.90848963619364" lon="4.36338693005865"><ele>926.0</ele><time>2026-04-06T12:20:53Z</time></trkpt><trkpt lat="44.90844220625638" lon="4.363250036960646"><ele>926.0</ele><time>2026-04-06T12:20:54Z</time></trkpt><trkpt lat="44.908388209239064" lon="4.363080929857186"><ele>926.0</ele><time>2026-04-06T12:20:55Z</time></trkpt><trkpt lat="44.90834181146045" lon="4.362889584448802"><ele>926.0</ele><time>2026-04-06T12:20:56Z</time></trkpt><trkpt lat="44.90826943448936" lon="4.362699479281608"><ele>925.75</ele><time>2026-04-06T12:20:57Z</time></trkpt><trkpt lat="44.908205115425474" lon="4.362527769212705"><ele>925.5</ele><time>2026-04-06T12:20:58Z</time></trkpt><trkpt lat="44.908158448561096" lon="4.362366407678328"><ele>925.25</ele><time>2026-04-06T12:20:59Z</time></trkpt><trkpt lat="44.90810558459452" lon="4.362197102164083"><ele>925.0</ele><time>2026-04-06T12:21:00Z</time></trkpt><trkpt lat="44.908054065827606" lon="4.36202359309847"><ele>925.0</ele><time>2026-04-06T12:21:01Z</time></trkpt><trkpt lat="44.90801168208267" lon="4.361846114255605"><ele>925.0</ele><time>2026-04-06T12:21:02Z</time></trkpt><trkpt lat="44.90796707182222" lon="4.361658296838247"><ele>925.0</ele><time>2026-04-06T12:21:03Z</time></trkpt><trkpt lat="44.90793736941281" lon="4.3614743380547845"><ele>925.0</ele><time>2026-04-06T12:21:04Z</time></trkpt><trkpt lat="44.907897042193355" lon="4.361307782573157"><ele>923.25</ele><time>2026-04-06T12:21:05Z</time></trkpt><trkpt lat="44.9078478969943" lon="4.361135173337984"><ele>921.5</ele><time>2026-04-06T12:21:06Z</time></trkpt><trkpt lat="44.90780296232623" lon="4.360963263684631"><ele>919.75</ele><time>2026-04-06T12:21:07Z</time></trkpt><trkpt lat="44.90776865522704" lon="4.360787949795527"><ele>918.0</ele><time>2026-04-06T12:21:08Z</time></trkpt><trkpt lat="44.907747598456986" lon="4.360593727058515"><ele>918.75</ele><time>2026-04-06T12:21:09Z</time></trkpt><trkpt lat="44.90773933528072" lon="4.360390720386493"><ele>919.5</ele><time>2026-04-06T12:21:10Z</time></trkpt><trkpt lat="44.90772059454599" lon="4.360198959291251"><ele>920.25</ele><time>2026-04-06T12:21:11Z</time></trkpt><trkpt lat="44.90771299780354" lon="4.360013409442065"><ele>921.0</ele><time>2026-04-06T12:21:12Z</time></trkpt><trkpt lat="44.90772944299512" lon="4.359845637873253"><ele>923.5</ele><time>2026-04-06T12:21:13Z</time></trkpt><trkpt lat="44.907757146164734" lon="4.359681261026086"><ele>926.0</ele><time>2026-04-06T12:21:14Z</time></trkpt><trkpt lat="44.90779946035552" lon="4.359512050224212"><ele>928.5</ele><time>2026-04-06T12:21:15Z</time></trkpt><trkpt lat="44.90786155635661" lon="4.359367097456519"><ele>931.0</ele><time>2026-04-06T12:21:16Z</time></trkpt><trkpt lat="44.907933960934265" lon="4.359235469071122"><ele>931.0</ele><time>2026-04-06T12:21:17Z</time></trkpt><trkpt lat="44.90805463423698" lon="4.359108407982098"><ele>931.0</ele><time>2026-04-06T12:21:18Z</time></trkpt><trkpt lat="44.90818449984378" lon="4.358994087212807"><ele>931.0</ele><time>2026-04-06T12:21:19Z</time></trkpt><trkpt lat="44.90832052026656" lon="4.358878557267311"><ele>932.5</ele><time>2026-04-06T12:21:20Z</time></trkpt><trkpt lat="44.90845002869449" lon="4.358754407491689"><ele>934.0</ele><time>2026-04-06T12:21:21Z</time></trkpt><trkpt lat="44.908572216447624" lon="4.3586235955916734"><ele>935.5</ele><time>2026-04-06T12:21:22Z</time></trkpt><trkpt lat="44.90868890427092" lon="4.358521481863753"><ele>937.0</ele><time>2026-04-06T12:21:23Z</time></trkpt><trkpt lat="44.9087926758227" lon="4.35843496693284"><ele>937.0</ele><time>2026-04-06T12:21:24Z</time></trkpt><trkpt lat="44.9088986039857" lon="4.3583360271909894"><ele>937.0</ele><time>2026-04-06T12:21:25Z</time></trkpt><trkpt lat="44.90898907909359" lon="4.358248472064909"><ele>937.0</ele><time>2026-04-06T12:21:26Z</time></trkpt><trkpt lat="44.909079412921464" lon="4.35817110176674"><ele>937.0</ele><time>2026-04-06T12:21:27Z</time></trkpt><trkpt lat="44.909164238532085" lon="4.35809826212317"><ele>937.0</ele><time>2026-04-06T12:21:28Z</time></trkpt><trkpt lat="44.90922824858047" lon="4.3580206864051085"><ele>937.1666666666666</ele><time>2026-04-06T12:21:29Z</time></trkpt><trkpt lat="44.909262562328486" lon="4.3578941276454435"><ele>937.3333333333333</ele><time>2026-04-06T12:21:31Z</time></trkpt><trkpt lat="44.90924404815198" lon="4.357807791893727"><ele>937.5</ele><time>2026-04-06T12:21:32Z</time></trkpt><trkpt lat="44.90921975963416" lon="4.357717526239262"><ele>937.6666666666667</ele><time>2026-04-06T12:21:33Z</time></trkpt><trkpt lat="44.90916897026294" lon="4.35762012016625"><ele>937.8333333333334</ele><time>2026-04-06T12:21:34Z</time></trkpt><trkpt lat="44.909063397990565" lon="4.357502332233213"><ele>938.0</ele><time>2026-04-06T12:21:35Z</time></trkpt><trkpt lat="44.90898998542034" lon="4.3573821573956"><ele>938.0</ele><time>2026-04-06T12:21:36Z</time></trkpt><trkpt lat="44.90888689677345" lon="4.357280212573655"><ele>938.0</ele><time>2026-04-06T12:21:37Z</time></trkpt><trkpt lat="44.90880428519476" lon="4.357194749593898"><ele>938.0</ele><time>2026-04-06T12:21:38Z</time></trkpt><trkpt lat="44.90873862742239" lon="4.357106400692806"><ele>938.0</ele><time>2026-04-06T12:21:39Z</time></trkpt><trkpt lat="44.90867526621271" lon="4.357000656421813"><ele>938.0</ele><time>2026-04-06T12:21:40Z</time></trkpt><trkpt lat="44.908629140828026" lon="4.356865272767598"><ele>935.0</ele><time>2026-04-06T12:21:41Z</time></trkpt><trkpt lat="44.90857456887833" lon="4.356722449242312"><ele>932.0</ele><time>2026-04-06T12:21:42Z</time></trkpt><trkpt lat="44.90854795150639" lon="4.356596719485172"><ele>929.0</ele><time>2026-04-06T12:21:43Z</time></trkpt><trkpt lat="44.908548122797" lon="4.3564429564007225"><ele>926.0</ele><time>2026-04-06T12:21:44Z</time></trkpt><trkpt lat="44.90853647731958" lon="4.356307047008631"><ele>923.0</ele><time>2026-04-06T12:21:45Z</time></trkpt><trkpt lat="44.90852598641429" lon="4.356172685158474"><ele>920.4</ele><time>2026-04-06T12:21:46Z</time></trkpt><trkpt lat="44.908522317417585" lon="4.3560463141832155"><ele>917.8</ele><time>2026-04-06T12:21:47Z</time></trkpt><trkpt lat="44.90851695293019" lon="4.355900658588553"><ele>915.2</ele><time>2026-04-06T12:21:48Z</time></trkpt><trkpt lat="44.908534391054005" lon="4.355767931149714"><ele>912.6</ele><time>2026-04-06T12:21:49Z</time></trkpt><trkpt lat="44.90853839161398" lon="4.355636287619089"><ele>910.0</ele><time>2026-04-06T12:21:50Z</time></trkpt><trkpt lat="44.90855965448543" lon="4.355507574288557"><ele>909.8</ele><time>2026-04-06T12:21:51Z</time></trkpt><trkpt lat="44.908549553595265" lon="4.355386805269074"><ele>909.6</ele><time>2026-04-06T12:21:52Z</time></trkpt><trkpt lat="44.90855474673909" lon="4.355269174236306"><ele>909.4000000000001</ele><time>2026-04-06T12:21:53Z</time></trkpt><trkpt lat="44.90855139361734" lon="4.355155943891362"><ele>909.2</ele><time>2026-04-06T12:21:54Z</time></trkpt><trkpt lat="44.90845254150022" lon="4.355012556180439"><ele>909.0</ele><time>2026-04-06T12:21:56Z</time></trkpt><trkpt lat="44.90837139057513" lon="4.354936697674207"><ele>908.8000000000001</ele><time>2026-04-06T12:21:57Z</time></trkpt><trkpt lat="44.908285778709654" lon="4.354863875298237"><ele>908.6000000000001</ele><time>2026-04-06T12:21:58Z</time></trkpt><trkpt lat="44.908164829492094" lon="4.354806260139033"><ele>908.4</ele><time>2026-04-06T12:21:59Z</time></trkpt><trkpt lat="44.90806103691812" lon="4.354742721582589"><ele>908.2</ele><time>2026-04-06T12:22:00Z</time></trkpt><trkpt lat="44.90798656551329" lon="4.3546700477007505"><ele>908.0</ele><time>2026-04-06T12:22:01Z</time></trkpt><trkpt lat="44.90789883276421" lon="4.354579404156325"><ele>908.0</ele><time>2026-04-06T12:22:02Z</time></trkpt><trkpt lat="44.907812949541245" lon="4.354495121033794"><ele>908.0</ele><time>2026-04-06T12:22:03Z</time></trkpt><trkpt lat="44.90774310875475" lon="4.354378699223813"><ele>908.0</ele><time>2026-04-06T12:22:04Z</time></trkpt><trkpt lat="44.90767120953639" lon="4.354264304901634"><ele>908.0</ele><time>2026-04-06T12:22:05Z</time></trkpt><trkpt lat="44.90761933771361" lon="4.354137970943315"><ele>908.0</ele><time>2026-04-06T12:22:06Z</time></trkpt><trkpt lat="44.907576019776116" lon="4.353997384456289"><ele>910.75</ele><time>2026-04-06T12:22:07Z</time></trkpt><trkpt lat="44.90754495339751" lon="4.3538348207560365"><ele>913.5</ele><time>2026-04-06T12:22:08Z</time></trkpt><trkpt lat="44.90746736459438" lon="4.353663018458709"><ele>916.25</ele><time>2026-04-06T12:22:09Z</time></trkpt><trkpt lat="44.90742795327767" lon="4.353489354485144"><ele>919.0</ele><time>2026-04-06T12:22:10Z</time></trkpt><trkpt lat="44.907395119521276" lon="4.353293640628064"><ele>919.0</ele><time>2026-04-06T12:22:11Z</time></trkpt><trkpt lat="44.90736086636372" lon="4.353125008905606"><ele>919.0</ele><time>2026-04-06T12:22:12Z</time></trkpt><trkpt lat="44.9073312074088" lon="4.352963692918781"><ele>919.0</ele><time>2026-04-06T12:22:13Z</time></trkpt><trkpt lat="44.90728735701508" lon="4.352819610775395"><ele>919.0</ele><time>2026-04-06T12:22:14Z</time></trkpt><trkpt lat="44.90725167517195" lon="4.3526678389898334"><ele>918.0</ele><time>2026-04-06T12:22:15Z</time></trkpt><trkpt lat="44.90722387086793" lon="4.352506205774243"><ele>917.0</ele><time>2026-04-06T12:22:16Z</time></trkpt><trkpt lat="44.907212660534015" lon="4.352329366139101"><ele>916.0</ele><time>2026-04-06T12:22:17Z</time></trkpt><trkpt lat="44.90722471733231" lon="4.35217628791029"><ele>915.0</ele><time>2026-04-06T12:22:18Z</time></trkpt><trkpt lat="44.90720649533567" lon="4.352031023173238"><ele>912.8</ele><time>2026-04-06T12:22:19Z</time></trkpt><trkpt lat="44.90718529664994" lon="4.351914265995631"><ele>910.6</ele><time>2026-04-06T12:22:20Z</time></trkpt><trkpt lat="44.90714762071099" lon="4.351810787148964"><ele>908.4000000000001</ele><time>2026-04-06T12:22:21Z</time></trkpt><trkpt lat="44.907076495419226" lon="4.351719464039609"><ele>906.2</ele><time>2026-04-06T12:22:22Z</time></trkpt><trkpt lat="44.90698809147642" lon="4.35163712089143"><ele>904.0</ele><time>2026-04-06T12:22:23Z</time></trkpt><trkpt lat="44.90687030586114" lon="4.351543314066221"><ele>905.5</ele><time>2026-04-06T12:22:24Z</time></trkpt><trkpt lat="44.90674074024629" lon="4.3514496594048975"><ele>907.0</ele><time>2026-04-06T12:22:25Z</time></trkpt><trkpt lat="44.90661743651289" lon="4.351350342711541"><ele>908.5</ele><time>2026-04-06T12:22:26Z</time></trkpt><trkpt lat="44.906523835324734" lon="4.351243223216297"><ele>910.0</ele><time>2026-04-06T12:22:27Z</time></trkpt><trkpt lat="44.906427943462084" lon="4.351140915687107"><ele>910.0</ele><time>2026-04-06T12:22:28Z</time></trkpt><trkpt lat="44.90634517369133" lon="4.351013087736493"><ele>910.0</ele><time>2026-04-06T12:22:29Z</time></trkpt><trkpt lat="44.90624374171959" lon="4.3508852499099095"><ele>910.0</ele><time>2026-04-06T12:22:30Z</time></trkpt><trkpt lat="44.90616737111194" lon="4.350741859747249"><ele>910.0</ele><time>2026-04-06T12:22:31Z</time></trkpt><trkpt lat="44.90613489923872" lon="4.350564497146046"><ele>909.5</ele><time>2026-04-06T12:22:32Z</time></trkpt><trkpt lat="44.906079266267255" lon="4.350383215673957"><ele>909.0</ele><time>2026-04-06T12:22:33Z</time></trkpt><trkpt lat="44.90601693094254" lon="4.350213690832661"><ele>908.5</ele><time>2026-04-06T12:22:34Z</time></trkpt><trkpt lat="44.905974219576315" lon="4.350054754716887"><ele>908.0</ele><time>2026-04-06T12:22:35Z</time></trkpt><trkpt lat="44.90595433905087" lon="4.349880292809773"><ele>908.0000000000001</ele><time>2026-04-06T12:22:36Z</time></trkpt><trkpt lat="44.90596836933976" lon="4.349708653117293"><ele>908.0</ele><time>2026-04-06T12:22:37Z</time></trkpt><trkpt lat="44.90597607704219" lon="4.349552096320788"><ele>908.0</ele><time>2026-04-06T12:22:38Z</time></trkpt><trkpt lat="44.90597244715253" lon="4.349454821314412"><ele>908.0</ele><time>2026-04-06T12:22:39Z</time></trkpt><trkpt lat="44.90598079765908" lon="4.349364924526416"><ele>908.0000000000001</ele><time>2026-04-06T12:22:40Z</time></trkpt><trkpt lat="44.90603272102398" lon="4.349278459390108"><ele>908.0</ele><time>2026-04-06T12:22:41Z</time></trkpt><trkpt lat="44.90607778510812" lon="4.34920183536439"><ele>910.5</ele><time>2026-04-06T12:22:42Z</time></trkpt><trkpt lat="44.90613156416971" lon="4.349113954636316"><ele>913.0</ele><time>2026-04-06T12:22:43Z</time></trkpt><trkpt lat="44.90621224310717" lon="4.349005794634132"><ele>915.5</ele><time>2026-04-06T12:22:44Z</time></trkpt><trkpt lat="44.90630454833104" lon="4.348883065659942"><ele>918.0</ele><time>2026-04-06T12:22:45Z</time></trkpt><trkpt lat="44.90643254745208" lon="4.348729621638319"><ele>916.6666666666667</ele><time>2026-04-06T12:22:46Z</time></trkpt><trkpt lat="44.906580075504564" lon="4.348560701764648"><ele>915.3333333333334</ele><time>2026-04-06T12:22:47Z</time></trkpt><trkpt lat="44.90670294958333" lon="4.348395471988162"><ele>914.0</ele><time>2026-04-06T12:22:48Z</time></trkpt><trkpt lat="44.90684417898484" lon="4.348258481225766"><ele>914.0</ele><time>2026-04-06T12:22:49Z</time></trkpt><trkpt lat="44.906991335343776" lon="4.348157502283653"><ele>914.0</ele><time>2026-04-06T12:22:50Z</time></trkpt><trkpt lat="44.90713803607385" lon="4.348036170416913"><ele>914.0</ele><time>2026-04-06T12:22:51Z</time></trkpt><trkpt lat="44.907261200831805" lon="4.347896322083166"><ele>913.6666666666667</ele><time>2026-04-06T12:22:52Z</time></trkpt><trkpt lat="44.9074009334579" lon="4.347752515553026"><ele>913.3333333333333</ele><time>2026-04-06T12:22:53Z</time></trkpt><trkpt lat="44.90753572706994" lon="4.347599510231103"><ele>913.0</ele><time>2026-04-06T12:22:54Z</time></trkpt><trkpt lat="44.90766126331539" lon="4.347453497194896"><ele>913.0</ele><time>2026-04-06T12:22:55Z</time></trkpt><trkpt lat="44.907774862849166" lon="4.3473066005692065"><ele>913.0</ele><time>2026-04-06T12:22:56Z</time></trkpt><trkpt lat="44.90785957479543" lon="4.347172707881493"><ele>913.0</ele><time>2026-04-06T12:22:57Z</time></trkpt><trkpt lat="44.90794283084798" lon="4.347059688901888"><ele>913.0</ele><time>2026-04-06T12:22:58Z</time></trkpt><trkpt lat="44.90800642823555" lon="4.346981770854296"><ele>914.4999999999999</ele><time>2026-04-06T12:22:59Z</time></trkpt><trkpt lat="44.90806257606106" lon="4.346941208848895"><ele>916.0</ele><time>2026-04-06T12:23:00Z</time></trkpt><trkpt lat="44.90812002231009" lon="4.34686742874869"><ele>917.5</ele><time>2026-04-06T12:23:02Z</time></trkpt><trkpt lat="44.90815758383397" lon="4.346794066086557"><ele>919.0</ele><time>2026-04-06T12:23:04Z</time></trkpt><trkpt lat="44.90814941712385" lon="4.34664086668475"><ele>920.4999999999999</ele><time>2026-04-06T12:23:07Z</time></trkpt><trkpt lat="44.908154554538825" lon="4.346537067071902"><ele>922.0</ele><time>2026-04-06T12:23:09Z</time></trkpt><trkpt lat="44.908242808827886" lon="4.346526094791764"><ele>922.0</ele><time>2026-04-06T12:23:10Z</time></trkpt><trkpt lat="44.9083267511819" lon="4.346517213099619"><ele>922.0</ele><time>2026-04-06T12:23:11Z</time></trkpt><trkpt lat="44.90842210604853" lon="4.346514202127509"><ele>922.0</ele><time>2026-04-06T12:23:12Z</time></trkpt><trkpt lat="44.90849969964374" lon="4.346517805851183"><ele>922.0</ele><time>2026-04-06T12:23:13Z</time></trkpt><trkpt lat="44.90862677011032" lon="4.346552908302686"><ele>922.0</ele><time>2026-04-06T12:23:14Z</time></trkpt><trkpt lat="44.90870249953335" lon="4.346565255109925"><ele>920.2</ele><time>2026-04-06T12:23:15Z</time></trkpt><trkpt lat="44.90879555039419" lon="4.346581721935859"><ele>918.4000000000001</ele><time>2026-04-06T12:23:16Z</time></trkpt><trkpt lat="44.90887632794192" lon="4.346556065578668"><ele>916.5999999999999</ele><time>2026-04-06T12:23:17Z</time></trkpt><trkpt lat="44.90896407111734" lon="4.3465323060625805"><ele>914.8</ele><time>2026-04-06T12:23:18Z</time></trkpt><trkpt lat="44.90907450830924" lon="4.34642841340137"><ele>913.0</ele><time>2026-04-06T12:23:19Z</time></trkpt><trkpt lat="44.909171338340386" lon="4.3463275968451285"><ele>912.4999999999999</ele><time>2026-04-06T12:23:20Z</time></trkpt><trkpt lat="44.909233442886794" lon="4.3462299489864975"><ele>912.0</ele><time>2026-04-06T12:23:21Z</time></trkpt><trkpt lat="44.909296850371106" lon="4.346167122862935"><ele>911.5</ele><time>2026-04-06T12:23:22Z</time></trkpt><trkpt lat="44.90932923874158" lon="4.346084479637362"><ele>911.0</ele><time>2026-04-06T12:23:23Z</time></trkpt><trkpt lat="44.90934065243839" lon="4.345964770625626"><ele>910.4999999999999</ele><time>2026-04-06T12:23:24Z</time></trkpt><trkpt lat="44.90936510262735" lon="4.345867611642093"><ele>910.0</ele><time>2026-04-06T12:23:25Z</time></trkpt><trkpt lat="44.90940778299337" lon="4.345700259835116"><ele>908.8571428571429</ele><time>2026-04-06T12:23:27Z</time></trkpt><trkpt lat="44.909434920043545" lon="4.345616346618783"><ele>907.7142857142858</ele><time>2026-04-06T12:23:28Z</time></trkpt><trkpt lat="44.90947247977103" lon="4.345534688857368"><ele>906.5714285714286</ele><time>2026-04-06T12:23:29Z</time></trkpt><trkpt lat="44.909520170484825" lon="4.345462493507383"><ele>905.4285714285714</ele><time>2026-04-06T12:23:30Z</time></trkpt><trkpt lat="44.90958493624887" lon="4.34537250228863"><ele>904.2857142857143</ele><time>2026-04-06T12:23:31Z</time></trkpt><trkpt lat="44.90962343276441" lon="4.345271710707314"><ele>903.1428571428571</ele><time>2026-04-06T12:23:32Z</time></trkpt><trkpt lat="44.90966015829125" lon="4.345196839188342"><ele>902.0</ele><time>2026-04-06T12:23:33Z</time></trkpt><trkpt lat="44.90969745738155" lon="4.345112050404219"><ele>901.0000000000001</ele><time>2026-04-06T12:23:34Z</time></trkpt><trkpt lat="44.90975367115025" lon="4.345038976557062"><ele>900.0</ele><time>2026-04-06T12:23:35Z</time></trkpt><trkpt lat="44.90983007166866" lon="4.344991282156992"><ele>899.0</ele><time>2026-04-06T12:23:36Z</time></trkpt><trkpt lat="44.90989600911061" lon="4.344931380173035"><ele>898.0</ele><time>2026-04-06T12:23:37Z</time></trkpt><trkpt lat="44.90993949523644" lon="4.3448434151405175"><ele>897.0000000000001</ele><time>2026-04-06T12:23:38Z</time></trkpt><trkpt lat="44.909977761510405" lon="4.344767368587713"><ele>896.0</ele><time>2026-04-06T12:23:39Z</time></trkpt><trkpt lat="44.910016268562465" lon="4.344683584481551"><ele>894.5000000000001</ele><time>2026-04-06T12:23:40Z</time></trkpt><trkpt lat="44.91004408962752" lon="4.344602209011105"><ele>893.0</ele><time>2026-04-06T12:23:41Z</time></trkpt><trkpt lat="44.910083446257644" lon="4.34449515730847"><ele>891.5</ele><time>2026-04-06T12:23:42Z</time></trkpt><trkpt lat="44.91010973194338" lon="4.344389499379936"><ele>890.0</ele><time>2026-04-06T12:23:43Z</time></trkpt><trkpt lat="44.9101345528608" lon="4.344284689207466"><ele>888.5000000000001</ele><time>2026-04-06T12:23:44Z</time></trkpt><trkpt lat="44.91017651649016" lon="4.344152821030059"><ele>887.0</ele><time>2026-04-06T12:23:46Z</time></trkpt><trkpt lat="44.91027182163728" lon="4.3440332983295376"><ele>884.4000000000001</ele><time>2026-04-06T12:23:48Z</time></trkpt><trkpt lat="44.91032416638776" lon="4.343962911117939"><ele>881.8000000000001</ele><time>2026-04-06T12:23:49Z</time></trkpt><trkpt lat="44.910382358517964" lon="4.343850974961744"><ele>879.2</ele><time>2026-04-06T12:23:50Z</time></trkpt><trkpt lat="44.910437962694424" lon="4.343786810462779"><ele>876.6</ele><time>2026-04-06T12:23:51Z</time></trkpt><trkpt lat="44.91049756896486" lon="4.343588020243055"><ele>874.0</ele><time>2026-04-06T12:23:53Z</time></trkpt><trkpt lat="44.91051341144428" lon="4.343495406704452"><ele>874.0</ele><time>2026-04-06T12:23:54Z</time></trkpt><trkpt lat="44.91057531469864" lon="4.343351365521375"><ele>874.0000000000001</ele><time>2026-04-06T12:23:55Z</time></trkpt><trkpt lat="44.91062745787485" lon="4.343212474291625"><ele>874.0000000000001</ele><time>2026-04-06T12:23:56Z</time></trkpt><trkpt lat="44.910675494597804" lon="4.3430969902372345"><ele>874.0</ele><time>2026-04-06T12:23:57Z</time></trkpt><trkpt lat="44.91073648243822" lon="4.343025572815439"><ele>874.0</ele><time>2026-04-06T12:23:58Z</time></trkpt><trkpt lat="44.91080018356501" lon="4.342888853963962"><ele>873.1666666666666</ele><time>2026-04-06T12:23:59Z</time></trkpt><trkpt lat="44.91086412691141" lon="4.342794008659975"><ele>872.3333333333333</ele><time>2026-04-06T12:24:00Z</time></trkpt><trkpt lat="44.91091977686905" lon="4.342699313367451"><ele>871.5</ele><time>2026-04-06T12:24:01Z</time></trkpt><trkpt lat="44.91097280614837" lon="4.342607506522954"><ele>870.6666666666667</ele><time>2026-04-06T12:24:02Z</time></trkpt><trkpt lat="44.911023025540885" lon="4.342505790618188"><ele>869.8333333333334</ele><time>2026-04-06T12:24:03Z</time></trkpt><trkpt lat="44.91106599434104" lon="4.342427714761422"><ele>869.0</ele><time>2026-04-06T12:24:04Z</time></trkpt><trkpt lat="44.911128055765666" lon="4.342323870631785"><ele>869.0</ele><time>2026-04-06T12:24:06Z</time></trkpt><trkpt lat="44.911169888260446" lon="4.342240930919953"><ele>869.0000000000001</ele><time>2026-04-06T12:24:07Z</time></trkpt><trkpt lat="44.91121402026834" lon="4.3421738595679535"><ele>869.0000000000001</ele><time>2026-04-06T12:24:08Z</time></trkpt><trkpt lat="44.91128897989798" lon="4.342094093519494"><ele>869.0</ele><time>2026-04-06T12:24:09Z</time></trkpt><trkpt lat="44.91137730789655" lon="4.341993975658339"><ele>869.0</ele><time>2026-04-06T12:24:10Z</time></trkpt><trkpt lat="44.91145475117964" lon="4.341882930106975"><ele>868.8000000000001</ele><time>2026-04-06T12:24:11Z</time></trkpt><trkpt lat="44.9115257079277" lon="4.341766854302729"><ele>868.6000000000001</ele><time>2026-04-06T12:24:12Z</time></trkpt><trkpt lat="44.91157323739969" lon="4.341622713267063"><ele>868.4</ele><time>2026-04-06T12:24:13Z</time></trkpt><trkpt lat="44.911630673879245" lon="4.341505318053195"><ele>868.2</ele><time>2026-04-06T12:24:14Z</time></trkpt><trkpt lat="44.9116793071439" lon="4.341394481951327"><ele>868.0</ele><time>2026-04-06T12:24:15Z</time></trkpt><trkpt lat="44.911729806724026" lon="4.34128847218721"><ele>866.4999999999999</ele><time>2026-04-06T12:24:16Z</time></trkpt><trkpt lat="44.91175180635493" lon="4.341187901180479"><ele>865.0</ele><time>2026-04-06T12:24:17Z</time></trkpt><trkpt lat="44.91179413684318" lon="4.341099801431562"><ele>863.5</ele><time>2026-04-06T12:24:18Z</time></trkpt><trkpt lat="44.9118509552196" lon="4.341034333773697"><ele>862.0</ele><time>2026-04-06T12:24:19Z</time></trkpt><trkpt lat="44.91191118305931" lon="4.340942477071552"><ele>860.4999999999999</ele><time>2026-04-06T12:24:21Z</time></trkpt><trkpt lat="44.912013882174655" lon="4.340863409805718"><ele>859.0</ele><time>2026-04-06T12:24:23Z</time></trkpt><trkpt lat="44.91213011451595" lon="4.340814616009181"><ele>859.0</ele><time>2026-04-06T12:24:25Z</time></trkpt><trkpt lat="44.91224470757212" lon="4.340807996721834"><ele>859.0000000000001</ele><time>2026-04-06T12:24:27Z</time></trkpt><trkpt lat="44.9123131759656" lon="4.340843393957568"><ele>859.0000000000001</ele><time>2026-04-06T12:24:28Z</time></trkpt><trkpt lat="44.91243712379661" lon="4.340846743652799"><ele>859.0</ele><time>2026-04-06T12:24:30Z</time></trkpt><trkpt lat="44.9125042556456" lon="4.34084398997633"><ele>859.0</ele><time>2026-04-06T12:24:31Z</time></trkpt><trkpt lat="44.91258895831004" lon="4.340856838212898"><ele>855.6666666666666</ele><time>2026-04-06T12:24:32Z</time></trkpt><trkpt lat="44.91266747726253" lon="4.3408738250828645"><ele>852.3333333333333</ele><time>2026-04-06T12:24:33Z</time></trkpt><trkpt lat="44.9127443330278" lon="4.34088765371499"><ele>849.0</ele><time>2026-04-06T12:24:34Z</time></trkpt><trkpt lat="44.91282803541588" lon="4.340896929337959"><ele>845.6666666666667</ele><time>2026-04-06T12:24:35Z</time></trkpt><trkpt lat="44.912932796203336" lon="4.340892032776196"><ele>842.3333333333334</ele><time>2026-04-06T12:24:37Z</time></trkpt><trkpt lat="44.91302231593492" lon="4.340895111060093"><ele>839.0</ele><time>2026-04-06T12:24:39Z</time></trkpt><trkpt lat="44.91310571780667" lon="4.340939253520407"><ele>839.0000000000001</ele><time>2026-04-06T12:24:42Z</time></trkpt><trkpt lat="44.91319272957694" lon="4.34095973158637"><ele>839.0</ele><time>2026-04-06T12:24:44Z</time></trkpt><trkpt lat="44.91330252042929" lon="4.341017374606705"><ele>839.0</ele><time>2026-04-06T12:24:46Z</time></trkpt><trkpt lat="44.913361126379705" lon="4.341058130301613"><ele>839.0</ele><time>2026-04-06T12:24:47Z</time></trkpt><trkpt lat="44.91342316608678" lon="4.34110526919498"><ele>839.0000000000001</ele><time>2026-04-06T12:24:48Z</time></trkpt><trkpt lat="44.91350362686514" lon="4.34113234234349"><ele>839.0</ele><time>2026-04-06T12:24:49Z</time></trkpt><trkpt lat="44.91357052753389" lon="4.341167510780917"><ele>832.75</ele><time>2026-04-06T12:24:50Z</time></trkpt><trkpt lat="44.9136980034909" lon="4.341221005081797"><ele>826.5</ele><time>2026-04-06T12:24:52Z</time></trkpt><trkpt lat="44.913805295238795" lon="4.341287779843771"><ele>820.25</ele><time>2026-04-06T12:24:54Z</time></trkpt><trkpt lat="44.91388827131708" lon="4.3413518915188964"><ele>814.0</ele><time>2026-04-06T12:24:56Z</time></trkpt><trkpt lat="44.91399173732675" lon="4.341327878953515"><ele>814.0</ele><time>2026-04-06T12:24:58Z</time></trkpt><trkpt lat="44.914112270564445" lon="4.341282305945208"><ele>814.0</ele><time>2026-04-06T12:25:00Z</time></trkpt><trkpt lat="44.9142342258567" lon="4.3412417760980695"><ele>814.0</ele><time>2026-04-06T12:25:02Z</time></trkpt><trkpt lat="44.914328654971506" lon="4.341220943175044"><ele>814.0</ele><time>2026-04-06T12:25:04Z</time></trkpt><trkpt lat="44.914424362610504" lon="4.34114431920354"><ele>815.2</ele><time>2026-04-06T12:25:07Z</time></trkpt><trkpt lat="44.9144752813461" lon="4.341079439112985"><ele>816.4000000000001</ele><time>2026-04-06T12:25:08Z</time></trkpt><trkpt lat="44.914573823414784" lon="4.340976954360743"><ele>817.6</ele><time>2026-04-06T12:25:10Z</time></trkpt><trkpt lat="44.914651373761146" lon="4.340932036342283"><ele>818.8</ele><time>2026-04-06T12:25:11Z</time></trkpt><trkpt lat="44.91473460662907" lon="4.340848155987344"><ele>820.0</ele><time>2026-04-06T12:25:12Z</time></trkpt><trkpt lat="44.91479970527707" lon="4.340775238813198"><ele>819.9999999999999</ele><time>2026-04-06T12:25:13Z</time></trkpt><trkpt lat="44.91485701553516" lon="4.34070140993007"><ele>820.0</ele><time>2026-04-06T12:25:14Z</time></trkpt><trkpt lat="44.91490986396278" lon="4.340629741883785"><ele>820.0</ele><time>2026-04-06T12:25:15Z</time></trkpt><trkpt lat="44.91496504180403" lon="4.340483583775105"><ele>820.0</ele><time>2026-04-06T12:25:17Z</time></trkpt><trkpt lat="44.91499524756846" lon="4.340401799291579"><ele>819.9999999999999</ele><time>2026-04-06T12:25:18Z</time></trkpt><trkpt lat="44.915029324786474" lon="4.340270527557687"><ele>820.0</ele><time>2026-04-06T12:25:20Z</time></trkpt><trkpt lat="44.9150268274651" lon="4.340125288462098"><ele>815.6</ele><time>2026-04-06T12:25:22Z</time></trkpt><trkpt lat="44.91502369329215" lon="4.340035833780755"><ele>811.2</ele><time>2026-04-06T12:25:23Z</time></trkpt><trkpt lat="44.91503335879219" lon="4.339859419125199"><ele>806.8</ele><time>2026-04-06T12:25:25Z</time></trkpt><trkpt lat="44.91506875782166" lon="4.339710672499911"><ele>802.4</ele><time>2026-04-06T12:25:27Z</time></trkpt><trkpt lat="44.91511410222015" lon="4.339598955822219"><ele>798.0</ele><time>2026-04-06T12:25:29Z</time></trkpt><trkpt lat="44.91508891092959" lon="4.339488495498962"><ele>794.8333333333334</ele><time>2026-04-06T12:25:32Z</time></trkpt><trkpt lat="44.915026808541384" lon="4.33950767214355"><ele>791.6666666666667</ele><time>2026-04-06T12:25:34Z</time></trkpt><trkpt lat="44.91500587580265" lon="4.33941863540503"><ele>788.5</ele><time>2026-04-06T12:25:37Z</time></trkpt><trkpt lat="44.915053048553936" lon="4.339314358641529"><ele>785.3333333333334</ele><time>2026-04-06T12:25:39Z</time></trkpt><trkpt lat="44.91503654672955" lon="4.339208005986048"><ele>782.1666666666667</ele><time>2026-04-06T12:25:41Z</time></trkpt><trkpt lat="44.91504033268248" lon="4.339102826602787"><ele>779.0</ele><time>2026-04-06T12:25:44Z</time></trkpt><trkpt lat="44.914926034597585" lon="4.339111105581941"><ele>779.0</ele><time>2026-04-06T12:25:46Z</time></trkpt><trkpt lat="44.914803048631256" lon="4.339181240909417"><ele>779.0</ele><time>2026-04-06T12:25:48Z</time></trkpt><trkpt lat="44.91474754998395" lon="4.339239106796863"><ele>779.0</ele><time>2026-04-06T12:25:49Z</time></trkpt><trkpt lat="44.91469906683148" lon="4.3393097929694715"><ele>779.0</ele><time>2026-04-06T12:25:50Z</time></trkpt><trkpt lat="44.914678227867604" lon="4.339409581578939"><ele>779.0</ele><time>2026-04-06T12:25:51Z</time></trkpt><trkpt lat="44.91461952839336" lon="4.339543808225322"><ele>779.0000000000001</ele><time>2026-04-06T12:25:53Z</time></trkpt><trkpt lat="44.91456817053548" lon="4.339638949619476"><ele>779.0</ele><time>2026-04-06T12:25:55Z</time></trkpt><trkpt lat="44.91449508384594" lon="4.339671520141135"><ele>779.0</ele><time>2026-04-06T12:25:57Z</time></trkpt><trkpt lat="44.91443494749271" lon="4.339698068426566"><ele>779.0</ele><time>2026-04-06T12:26:00Z</time></trkpt><trkpt lat="44.91436437532637" lon="4.339679053877847"><ele>779.0000000000001</ele><time>2026-04-06T12:26:04Z</time></trkpt><trkpt lat="44.91431415036882" lon="4.339567772202878"><ele>779.0</ele><time>2026-04-06T12:26:07Z</time></trkpt><trkpt lat="44.91430724686216" lon="4.339439402638964"><ele>779.0000000000001</ele><time>2026-04-06T12:26:10Z</time></trkpt><trkpt lat="44.91434438785152" lon="4.339358488742121"><ele>779.0</ele><time>2026-04-06T12:26:13Z</time></trkpt><trkpt lat="44.91436518127015" lon="4.339246884069714"><ele>779.0</ele><time>2026-04-06T12:26:19Z</time></trkpt><trkpt lat="44.91432992736274" lon="4.339120936796313"><ele>779.0</ele><time>2026-04-06T12:26:21Z</time></trkpt><trkpt lat="44.914343604965076" lon="4.339026114841149"><ele>779.0000000000001</ele><time>2026-04-06T12:26:32Z</time></trkpt><trkpt lat="44.91435668066211" lon="4.338894179757867"><ele>779.0</ele><time>2026-04-06T12:26:45Z</time></trkpt><trkpt lat="44.91433788178917" lon="4.3388050119278025"><ele>775.8000000000001</ele><time>2026-04-06T12:26:47Z</time></trkpt><trkpt lat="44.91434849800793" lon="4.3386832527412516"><ele>772.6</ele><time>2026-04-06T12:26:49Z</time></trkpt><trkpt lat="44.91430590117165" lon="4.338521812094817"><ele>769.4</ele><time>2026-04-06T12:26:51Z</time></trkpt><trkpt lat="44.914339030906696" lon="4.338332193257903"><ele>766.2</ele><time>2026-04-06T12:26:53Z</time></trkpt><trkpt lat="44.914328947373846" lon="4.338193800152294"><ele>763.0</ele><time>2026-04-06T12:26:54Z</time></trkpt><trkpt lat="44.914360486531635" lon="4.338046273583454"><ele>760.5</ele><time>2026-04-06T12:26:55Z</time></trkpt><trkpt lat="44.91437207221355" lon="4.337917115406446"><ele>758.0</ele><time>2026-04-06T12:26:56Z</time></trkpt><trkpt lat="44.9143750162331" lon="4.3377936629162495"><ele>755.5</ele><time>2026-04-06T12:26:57Z</time></trkpt><trkpt lat="44.914373084215796" lon="4.3376785458809985"><ele>753.0</ele><time>2026-04-06T12:26:58Z</time></trkpt><trkpt lat="44.91435834291121" lon="4.337551101261146"><ele>750.5</ele><time>2026-04-06T12:26:59Z</time></trkpt><trkpt lat="44.914336556588886" lon="4.337437171281081"><ele>748.0</ele><time>2026-04-06T12:27:00Z</time></trkpt><trkpt lat="44.914320000052264" lon="4.337337175561799"><ele>748.0</ele><time>2026-04-06T12:27:01Z</time></trkpt><trkpt lat="44.91432837834395" lon="4.337236694445294"><ele>748.0</ele><time>2026-04-06T12:27:02Z</time></trkpt><trkpt lat="44.91436824821725" lon="4.337147551713431"><ele>748.0</ele><time>2026-04-06T12:27:03Z</time></trkpt><trkpt lat="44.91440478555477" lon="4.337017339374436"><ele>748.0</ele><time>2026-04-06T12:27:04Z</time></trkpt><trkpt lat="44.91442596433785" lon="4.336896201763035"><ele>748.0</ele><time>2026-04-06T12:27:05Z</time></trkpt><trkpt lat="44.9144522982805" lon="4.336760768743871"><ele>748.0</ele><time>2026-04-06T12:27:06Z</time></trkpt><trkpt lat="44.91442536379009" lon="4.336644329183598"><ele>746.5</ele><time>2026-04-06T12:27:07Z</time></trkpt><trkpt lat="44.91436502970861" lon="4.336539660107487"><ele>745.0</ele><time>2026-04-06T12:27:09Z</time></trkpt><trkpt lat="44.914316818663536" lon="4.336477055777293"><ele>743.5</ele><time>2026-04-06T12:27:10Z</time></trkpt><trkpt lat="44.914247596960905" lon="4.336387738530554"><ele>742.0</ele><time>2026-04-06T12:27:11Z</time></trkpt><trkpt lat="44.914186540858466" lon="4.336291080084934"><ele>740.5</ele><time>2026-04-06T12:27:12Z</time></trkpt><trkpt lat="44.91413243495893" lon="4.336205740358164"><ele>739.0</ele><time>2026-04-06T12:27:13Z</time></trkpt><trkpt lat="44.914071311921674" lon="4.336109817587214"><ele>739.0</ele><time>2026-04-06T12:27:14Z</time></trkpt><trkpt lat="44.91400703397485" lon="4.3360091094512505"><ele>739.0</ele><time>2026-04-06T12:27:15Z</time></trkpt><trkpt lat="44.91390896829227" lon="4.335925719378989"><ele>739.0</ele><time>2026-04-06T12:27:16Z</time></trkpt><trkpt lat="44.91384079730414" lon="4.335823073779116"><ele>739.0</ele><time>2026-04-06T12:27:17Z</time></trkpt><trkpt lat="44.91379372278368" lon="4.33568940959854"><ele>739.0</ele><time>2026-04-06T12:27:18Z</time></trkpt><trkpt lat="44.91372415646572" lon="4.335550537943826"><ele>732.6</ele><time>2026-04-06T12:27:19Z</time></trkpt><trkpt lat="44.91365779823749" lon="4.3354276698389045"><ele>726.2</ele><time>2026-04-06T12:27:20Z</time></trkpt><trkpt lat="44.91357615485586" lon="4.335307072077961"><ele>719.8000000000001</ele><time>2026-04-06T12:27:21Z</time></trkpt><trkpt lat="44.91356647633872" lon="4.3351630322016215"><ele>713.4000000000001</ele><time>2026-04-06T12:27:22Z</time></trkpt><trkpt lat="44.91353466266828" lon="4.335041956933301"><ele>707.0</ele><time>2026-04-06T12:27:23Z</time></trkpt><trkpt lat="44.913480193697595" lon="4.334927759045464"><ele>707.0</ele><time>2026-04-06T12:27:24Z</time></trkpt><trkpt lat="44.913408437696965" lon="4.334821900366247"><ele>707.0</ele><time>2026-04-06T12:27:25Z</time></trkpt><trkpt lat="44.913381285447855" lon="4.334701578312611"><ele>707.0</ele><time>2026-04-06T12:27:26Z</time></trkpt><trkpt lat="44.913338913157574" lon="4.334567123223255"><ele>707.0</ele><time>2026-04-06T12:27:27Z</time></trkpt><trkpt lat="44.91331439137174" lon="4.334454440652432"><ele>707.0</ele><time>2026-04-06T12:27:28Z</time></trkpt><trkpt lat="44.91329558905528" lon="4.3343532588145"><ele>708.8</ele><time>2026-04-06T12:27:29Z</time></trkpt><trkpt lat="44.91327603637336" lon="4.3342147886936955"><ele>710.6</ele><time>2026-04-06T12:27:31Z</time></trkpt><trkpt lat="44.91326680255773" lon="4.334036901733028"><ele>712.4</ele><time>2026-04-06T12:27:33Z</time></trkpt><trkpt lat="44.91325207630161" lon="4.333932370778488"><ele>714.1999999999999</ele><time>2026-04-06T12:27:34Z</time></trkpt><trkpt lat="44.9131988577078" lon="4.333847132152553"><ele>716.0</ele><time>2026-04-06T12:27:35Z</time></trkpt><trkpt lat="44.91314028164592" lon="4.333763013850943"><ele>716.0</ele><time>2026-04-06T12:27:36Z</time></trkpt><trkpt lat="44.91310677735637" lon="4.33367652997696"><ele>716.0</ele><time>2026-04-06T12:27:37Z</time></trkpt><trkpt lat="44.91305538814293" lon="4.333585105732723"><ele>716.0</ele><time>2026-04-06T12:27:38Z</time></trkpt><trkpt lat="44.913007238097904" lon="4.333492897788973"><ele>716.0</ele><time>2026-04-06T12:27:39Z</time></trkpt><trkpt lat="44.912913992453326" lon="4.333363859499237"><ele>716.0</ele><time>2026-04-06T12:27:41Z</time></trkpt><trkpt lat="44.91287073374563" lon="4.3332851314627"><ele>716.0</ele><time>2026-04-06T12:27:42Z</time></trkpt><trkpt lat="44.91283918951955" lon="4.3331880883480025"><ele>717.4</ele><time>2026-04-06T12:27:43Z</time></trkpt><trkpt lat="44.91279176173983" lon="4.333038219858839"><ele>718.8</ele><time>2026-04-06T12:27:45Z</time></trkpt><trkpt lat="44.91271452251532" lon="4.332873896845989"><ele>720.1999999999999</ele><time>2026-04-06T12:27:47Z</time></trkpt><trkpt lat="44.91265458765095" lon="4.332797437273162"><ele>721.5999999999999</ele><time>2026-04-06T12:27:48Z</time></trkpt><trkpt lat="44.91258996684881" lon="4.3327073222788615"><ele>723.0</ele><time>2026-04-06T12:27:49Z</time></trkpt><trkpt lat="44.91253801250354" lon="4.332632182067737"><ele>723.0</ele><time>2026-04-06T12:27:50Z</time></trkpt><trkpt lat="44.912443390301334" lon="4.332577143269324"><ele>723.0</ele><time>2026-04-06T12:27:51Z</time></trkpt><trkpt lat="44.91237538664879" lon="4.332584124996412"><ele>723.0</ele><time>2026-04-06T12:27:52Z</time></trkpt><trkpt lat="44.91226869380357" lon="4.332522048472642"><ele>723.0</ele><time>2026-04-06T12:27:54Z</time></trkpt><trkpt lat="44.91216911782938" lon="4.3324457504104235"><ele>723.0</ele><time>2026-04-06T12:27:56Z</time></trkpt><trkpt lat="44.912098021497435" lon="4.332323729050439"><ele>723.0</ele><time>2026-04-06T12:27:58Z</time></trkpt><trkpt lat="44.912004072458274" lon="4.332237128194884"><ele>723.0</ele><time>2026-04-06T12:28:00Z</time></trkpt><trkpt lat="44.911954229389735" lon="4.332181406375042"><ele>723.0</ele><time>2026-04-06T12:28:01Z</time></trkpt><trkpt lat="44.91190927305529" lon="4.332109896980076"><ele>723.0</ele><time>2026-04-06T12:28:02Z</time></trkpt><trkpt lat="44.91186769857018" lon="4.3320183047347784"><ele>723.0</ele><time>2026-04-06T12:28:03Z</time></trkpt><trkpt lat="44.9117964866639" lon="4.331879396751023"><ele>723.0</ele><time>2026-04-06T12:28:05Z</time></trkpt><trkpt lat="44.91171585790685" lon="4.331957585966907"><ele>718.1666666666666</ele><time>2026-04-06T12:28:08Z</time></trkpt><trkpt lat="44.911635329099596" lon="4.331935070776846"><ele>713.3333333333334</ele><time>2026-04-06T12:28:12Z</time></trkpt><trkpt lat="44.91154571871087" lon="4.331936894297048"><ele>708.5</ele><time>2026-04-06T12:28:14Z</time></trkpt><trkpt lat="44.91146915035698" lon="4.331949074258277"><ele>703.6666666666667</ele><time>2026-04-06T12:28:23Z</time></trkpt><trkpt lat="44.911406838055576" lon="4.33197991130001"><ele>698.8333333333334</ele><time>2026-04-06T12:28:29Z</time></trkpt><trkpt lat="44.91144586213609" lon="4.331898465262421"><ele>694.0</ele><time>2026-04-06T12:28:45Z</time></trkpt><trkpt lat="44.91149988853269" lon="4.331803377760035"><ele>694.0</ele><time>2026-04-06T12:28:48Z</time></trkpt><trkpt lat="44.91141728191363" lon="4.331740799859113"><ele>694.0</ele><time>2026-04-06T12:28:51Z</time></trkpt><trkpt lat="44.91132652543924" lon="4.331793687521973"><ele>694.0</ele><time>2026-04-06T12:28:54Z</time></trkpt><trkpt lat="44.91125620748669" lon="4.331812868502448"><ele>694.0</ele><time>2026-04-06T12:28:57Z</time></trkpt><trkpt lat="44.911173398994386" lon="4.33178470755695"><ele>694.0</ele><time>2026-04-06T12:28:59Z</time></trkpt><trkpt lat="44.91110528241038" lon="4.331801496128437"><ele>694.0</ele><time>2026-04-06T12:29:01Z</time></trkpt><trkpt lat="44.91104571556287" lon="4.331882105472925"><ele>694.0</ele><time>2026-04-06T12:29:04Z</time></trkpt><trkpt lat="44.91097874564107" lon="4.331908500291837"><ele>694.0</ele><time>2026-04-06T12:29:06Z</time></trkpt><trkpt lat="44.91090408502545" lon="4.331982363373745"><ele>694.0</ele><time>2026-04-06T12:29:09Z</time></trkpt><trkpt lat="44.910843037049425" lon="4.332036765077662"><ele>694.0</ele><time>2026-04-06T12:29:12Z</time></trkpt><trkpt lat="44.91076250162147" lon="4.332111732863038"><ele>694.0</ele><time>2026-04-06T12:29:14Z</time></trkpt><trkpt lat="44.91068966776686" lon="4.3321038901800435"><ele>694.0</ele><time>2026-04-06T12:29:16Z</time></trkpt><trkpt lat="44.91063550114779" lon="4.332174287299571"><ele>693.8333333333334</ele><time>2026-04-06T12:29:18Z</time></trkpt><trkpt lat="44.91057965965101" lon="4.3322257028604065"><ele>693.6666666666667</ele><time>2026-04-06T12:29:20Z</time></trkpt><trkpt lat="44.91051536102903" lon="4.332293402216681"><ele>693.5</ele><time>2026-04-06T12:29:22Z</time></trkpt><trkpt lat="44.91045217103514" lon="4.332395548272038"><ele>693.3333333333334</ele><time>2026-04-06T12:29:26Z</time></trkpt><trkpt lat="44.91038698188441" lon="4.332394535345915"><ele>693.1666666666666</ele><time>2026-04-06T12:29:28Z</time></trkpt><trkpt lat="44.910318054984685" lon="4.332415294982935"><ele>693.0</ele><time>2026-04-06T12:29:29Z</time></trkpt><trkpt lat="44.91023705639636" lon="4.33247487792376"><ele>693.0</ele><time>2026-04-06T12:29:30Z</time></trkpt><trkpt lat="44.9101614931653" lon="4.332524835490969"><ele>693.0</ele><time>2026-04-06T12:29:31Z</time></trkpt><trkpt lat="44.910117887668264" lon="4.3325970324514"><ele>693.0</ele><time>2026-04-06T12:29:32Z</time></trkpt><trkpt lat="44.91005683627657" lon="4.332651889391187"><ele>693.0</ele><time>2026-04-06T12:29:33Z</time></trkpt><trkpt lat="44.91001270067192" lon="4.3327237214611065"><ele>693.0</ele><time>2026-04-06T12:29:34Z</time></trkpt><trkpt lat="44.9099333908385" lon="4.3328369058652045"><ele>693.0</ele><time>2026-04-06T12:29:36Z</time></trkpt><trkpt lat="44.909864746761365" lon="4.3329633446347815"><ele>690.4</ele><time>2026-04-06T12:29:38Z</time></trkpt><trkpt lat="44.90983216978526" lon="4.333125615821207"><ele>687.8</ele><time>2026-04-06T12:29:40Z</time></trkpt><trkpt lat="44.90987911508234" lon="4.333210707129193"><ele>685.2</ele><time>2026-04-06T12:29:46Z</time></trkpt><trkpt lat="44.90987960967756" lon="4.333073582487619"><ele>682.6</ele><time>2026-04-06T12:29:51Z</time></trkpt><trkpt lat="44.90984397646755" lon="4.33299035037216"><ele>680.0</ele><time>2026-04-06T12:29:52Z</time></trkpt><trkpt lat="44.90985524274981" lon="4.332866717480812"><ele>678.3333333333333</ele><time>2026-04-06T12:29:54Z</time></trkpt><trkpt lat="44.90986939354205" lon="4.332756374764776"><ele>676.6666666666666</ele><time>2026-04-06T12:29:55Z</time></trkpt><trkpt lat="44.90984978446334" lon="4.332664368220847"><ele>675.0</ele><time>2026-04-06T12:29:56Z</time></trkpt><trkpt lat="44.90979269840255" lon="4.33256991376297"><ele>673.3333333333334</ele><time>2026-04-06T12:29:57Z</time></trkpt><trkpt lat="44.90976086032324" lon="4.332484750971156"><ele>671.6666666666667</ele><time>2026-04-06T12:29:58Z</time></trkpt><trkpt lat="44.90975281507177" lon="4.332360572656626"><ele>670.0</ele><time>2026-04-06T12:29:59Z</time></trkpt><trkpt lat="44.909723401290975" lon="4.332270747616366"><ele>666.2</ele><time>2026-04-06T12:30:00Z</time></trkpt><trkpt lat="44.909729766131385" lon="4.3321820855131685"><ele>662.4</ele><time>2026-04-06T12:30:01Z</time></trkpt><trkpt lat="44.90969491984795" lon="4.332097868496988"><ele>658.5999999999999</ele><time>2026-04-06T12:30:02Z</time></trkpt><trkpt lat="44.90953592802908" lon="4.332018417721265"><ele>654.8</ele><time>2026-04-06T12:30:03Z</time></trkpt><trkpt lat="44.909450702261" lon="4.332023231934172"><ele>651.0</ele><time>2026-04-06T12:30:04Z</time></trkpt><trkpt lat="44.90938529188951" lon="4.3320444517800265"><ele>651.0</ele><time>2026-04-06T12:30:07Z</time></trkpt><trkpt lat="44.90929277798927" lon="4.332033831824238"><ele>651.0</ele><time>2026-04-06T12:30:11Z</time></trkpt><trkpt lat="44.90923449633874" lon="4.331995879786726"><ele>651.0</ele><time>2026-04-06T12:30:14Z</time></trkpt><trkpt lat="44.90915537003086" lon="4.331943450491159"><ele>651.0</ele><time>2026-04-06T12:30:15Z</time></trkpt><trkpt lat="44.909017238323514" lon="4.3318808717034605"><ele>651.0</ele><time>2026-04-06T12:30:16Z</time></trkpt><trkpt lat="44.90889963533207" lon="4.331866261893402"><ele>651.3333333333334</ele><time>2026-04-06T12:30:17Z</time></trkpt><trkpt lat="44.90879601849507" lon="4.331842455919175"><ele>651.6666666666666</ele><time>2026-04-06T12:30:18Z</time></trkpt><trkpt lat="44.90872523548619" lon="4.331840405813297"><ele>652.0</ele><time>2026-04-06T12:30:19Z</time></trkpt><trkpt lat="44.908652218453916" lon="4.331872537686915"><ele>652.3333333333333</ele><time>2026-04-06T12:30:20Z</time></trkpt><trkpt lat="44.90858047953087" lon="4.331900300237416"><ele>652.6666666666666</ele><time>2026-04-06T12:30:21Z</time></trkpt><trkpt lat="44.90848432190535" lon="4.3319255401356465"><ele>653.0</ele><time>2026-04-06T12:30:22Z</time></trkpt><trkpt lat="44.90840395119277" lon="4.331971818814329"><ele>653.3333333333333</ele><time>2026-04-06T12:30:23Z</time></trkpt><trkpt lat="44.9083311291468" lon="4.331991643089164"><ele>653.6666666666666</ele><time>2026-04-06T12:30:24Z</time></trkpt><trkpt lat="44.908264012171294" lon="4.331962652032145"><ele>654.0</ele><time>2026-04-06T12:30:25Z</time></trkpt><trkpt lat="44.908178641449275" lon="4.331944399191429"><ele>654.3333333333334</ele><time>2026-04-06T12:30:26Z</time></trkpt><trkpt lat="44.90811184614822" lon="4.331983564774697"><ele>654.6666666666667</ele><time>2026-04-06T12:30:27Z</time></trkpt><trkpt lat="44.90803177603932" lon="4.331999792108409"><ele>655.0</ele><time>2026-04-06T12:30:29Z</time></trkpt><trkpt lat="44.908023399539424" lon="4.3318428413617225"><ele>655.0</ele><time>2026-04-06T12:30:32Z</time></trkpt><trkpt lat="44.90794842024442" lon="4.331735949554406"><ele>655.0</ele><time>2026-04-06T12:30:36Z</time></trkpt><trkpt lat="44.90785628875866" lon="4.33165081547987"><ele>655.0</ele><time>2026-04-06T12:30:38Z</time></trkpt><trkpt lat="44.90776224439741" lon="4.331582146949255"><ele>655.0</ele><time>2026-04-06T12:30:39Z</time></trkpt><trkpt lat="44.90766758646167" lon="4.331544806865052"><ele>655.0</ele><time>2026-04-06T12:30:40Z</time></trkpt><trkpt lat="44.90757605378485" lon="4.33153505202537"><ele>657.4</ele><time>2026-04-06T12:30:41Z</time></trkpt><trkpt lat="44.907497024278456" lon="4.331518546798117"><ele>659.8</ele><time>2026-04-06T12:30:42Z</time></trkpt><trkpt lat="44.90741956672193" lon="4.331520934744913"><ele>662.2</ele><time>2026-04-06T12:30:43Z</time></trkpt><trkpt lat="44.90729203476284" lon="4.331498784204149"><ele>664.6</ele><time>2026-04-06T12:30:45Z</time></trkpt><trkpt lat="44.90719621483436" lon="4.331393715760914"><ele>667.0</ele><time>2026-04-06T12:30:47Z</time></trkpt><trkpt lat="44.907177353485096" lon="4.331269566630005"><ele>663.4000000000001</ele><time>2026-04-06T12:30:48Z</time></trkpt><trkpt lat="44.90707918969561" lon="4.331207165625102"><ele>659.8000000000001</ele><time>2026-04-06T12:30:50Z</time></trkpt><trkpt lat="44.90700135395713" lon="4.331180170270388"><ele>656.2</ele><time>2026-04-06T12:30:51Z</time></trkpt><trkpt lat="44.90691357052387" lon="4.3311416722333975"><ele>652.6</ele><time>2026-04-06T12:30:52Z</time></trkpt><trkpt lat="44.906835942473265" lon="4.331150009619352"><ele>649.0</ele><time>2026-04-06T12:30:53Z</time></trkpt><trkpt lat="44.90670232362554" lon="4.331111831452187"><ele>649.0</ele><time>2026-04-06T12:30:55Z</time></trkpt><trkpt lat="44.90662142239472" lon="4.3310706923845785"><ele>649.0</ele><time>2026-04-06T12:30:56Z</time></trkpt><trkpt lat="44.906555016425884" lon="4.33103972728046"><ele>649.0</ele><time>2026-04-06T12:30:57Z</time></trkpt><trkpt lat="44.90648615781757" lon="4.331024738127187"><ele>649.0</ele><time>2026-04-06T12:30:58Z</time></trkpt><trkpt lat="44.90637223878603" lon="4.330958504633504"><ele>649.0</ele><time>2026-04-06T12:31:00Z</time></trkpt><trkpt lat="44.90625835704077" lon="4.330911165315754"><ele>649.0</ele><time>2026-04-06T12:31:02Z</time></trkpt><trkpt lat="44.906195214795886" lon="4.330917066811512"><ele>649.0</ele><time>2026-04-06T12:31:03Z</time></trkpt><trkpt lat="44.90612378854045" lon="4.330931476893854"><ele>649.0</ele><time>2026-04-06T12:31:04Z</time></trkpt><trkpt lat="44.9060482290114" lon="4.3309374273292045"><ele>649.0</ele><time>2026-04-06T12:31:05Z</time></trkpt><trkpt lat="44.90597408129138" lon="4.330942749070026"><ele>649.0</ele><time>2026-04-06T12:31:06Z</time></trkpt><trkpt lat="44.90585132856353" lon="4.330971485259427"><ele>649.0</ele><time>2026-04-06T12:31:08Z</time></trkpt><trkpt lat="44.90580304259125" lon="4.330913388770842"><ele>648.3333333333334</ele><time>2026-04-06T12:31:09Z</time></trkpt><trkpt lat="44.905708134298244" lon="4.330873264276321"><ele>647.6666666666667</ele><time>2026-04-06T12:31:11Z</time></trkpt><trkpt lat="44.90560457586548" lon="4.330820716482657"><ele>647.0</ele><time>2026-04-06T12:31:13Z</time></trkpt><trkpt lat="44.905544277325994" lon="4.33078633362745"><ele>646.3333333333334</ele><time>2026-04-06T12:31:15Z</time></trkpt><trkpt lat="44.90550132339732" lon="4.330717883622084"><ele>645.6666666666666</ele><time>2026-04-06T12:31:17Z</time></trkpt><trkpt lat="44.905432598335544" lon="4.330644406689446"><ele>645.0</ele><time>2026-04-06T12:31:20Z</time></trkpt><trkpt lat="44.90535718923322" lon="4.330626130556821"><ele>645.0</ele><time>2026-04-06T12:31:21Z</time></trkpt><trkpt lat="44.90528085226205" lon="4.3305814890936"><ele>645.0</ele><time>2026-04-06T12:31:22Z</time></trkpt><trkpt lat="44.90522324126854" lon="4.330526083207703"><ele>645.0</ele><time>2026-04-06T12:31:23Z</time></trkpt><trkpt lat="44.90517874163177" lon="4.330372615249648"><ele>645.0</ele><time>2026-04-06T12:31:25Z</time></trkpt><trkpt lat="44.905138636891834" lon="4.330239128178991"><ele>645.0</ele><time>2026-04-06T12:31:27Z</time></trkpt><trkpt lat="44.90508751991358" lon="4.330120315683523"><ele>640.8333333333334</ele><time>2026-04-06T12:31:29Z</time></trkpt><trkpt lat="44.90505598938615" lon="4.330014417172829"><ele>636.6666666666666</ele><time>2026-04-06T12:31:31Z</time></trkpt><trkpt lat="44.905035587615956" lon="4.329900139599998"><ele>632.5</ele><time>2026-04-06T12:31:33Z</time></trkpt><trkpt lat="44.90496917182861" lon="4.329840502783291"><ele>628.3333333333333</ele><time>2026-04-06T12:31:35Z</time></trkpt><trkpt lat="44.90490561975004" lon="4.329862930137654"><ele>624.1666666666666</ele><time>2026-04-06T12:31:37Z</time></trkpt><trkpt lat="44.9048436688719" lon="4.329931349233534"><ele>620.0</ele><time>2026-04-06T12:31:52Z</time></trkpt><trkpt lat="44.90478564487777" lon="4.330011689744743"><ele>620.0</ele><time>2026-04-06T12:31:53Z</time></trkpt><trkpt lat="44.90473758405451" lon="4.330102914923379"><ele>620.0</ele><time>2026-04-06T12:31:54Z</time></trkpt><trkpt lat="44.90468892742618" lon="4.330161440263853"><ele>620.0</ele><time>2026-04-06T12:31:55Z</time></trkpt><trkpt lat="44.90463409849481" lon="4.330224623977665"><ele>620.0</ele><time>2026-04-06T12:31:56Z</time></trkpt><trkpt lat="44.90455323399169" lon="4.33026316788635"><ele>620.0</ele><time>2026-04-06T12:31:57Z</time></trkpt><trkpt lat="44.9044268591981" lon="4.33025707776546"><ele>620.0</ele><time>2026-04-06T12:31:58Z</time></trkpt><trkpt lat="44.90432875219252" lon="4.330250245396091"><ele>619.6666666666666</ele><time>2026-04-06T12:31:59Z</time></trkpt><trkpt lat="44.904241082061" lon="4.330236978059889"><ele>619.3333333333333</ele><time>2026-04-06T12:32:00Z</time></trkpt><trkpt lat="44.904140007554545" lon="4.330204695130745"><ele>619.0</ele><time>2026-04-06T12:32:01Z</time></trkpt><trkpt lat="44.90405330040232" lon="4.330196977814651"><ele>618.6666666666666</ele><time>2026-04-06T12:32:02Z</time></trkpt><trkpt lat="44.90397706225288" lon="4.330189610012117"><ele>618.3333333333334</ele><time>2026-04-06T12:32:03Z</time></trkpt><trkpt lat="44.90388453801982" lon="4.330178744462111"><ele>618.0</ele><time>2026-04-06T12:32:04Z</time></trkpt><trkpt lat="44.90379117183057" lon="4.330150276262451"><ele>618.0</ele><time>2026-04-06T12:32:05Z</time></trkpt><trkpt lat="44.903692893399466" lon="4.330146979021909"><ele>618.0</ele><time>2026-04-06T12:32:06Z</time></trkpt><trkpt lat="44.90359078077303" lon="4.3301536458980845"><ele>618.0</ele><time>2026-04-06T12:32:07Z</time></trkpt><trkpt lat="44.9034894027497" lon="4.330160546874378"><ele>618.0</ele><time>2026-04-06T12:32:08Z</time></trkpt><trkpt lat="44.90338286811269" lon="4.3301358230192815"><ele>618.0</ele><time>2026-04-06T12:32:09Z</time></trkpt><trkpt lat="44.90330078220622" lon="4.330089375720055"><ele>620.8</ele><time>2026-04-06T12:32:10Z</time></trkpt><trkpt lat="44.9032165972543" lon="4.330021163043902"><ele>623.5999999999999</ele><time>2026-04-06T12:32:11Z</time></trkpt><trkpt lat="44.90312184777426" lon="4.329979150044375"><ele>626.4000000000001</ele><time>2026-04-06T12:32:12Z</time></trkpt><trkpt lat="44.903035215650185" lon="4.32995257341118"><ele>629.2</ele><time>2026-04-06T12:32:13Z</time></trkpt><trkpt lat="44.90295194632253" lon="4.329920595221069"><ele>632.0</ele><time>2026-04-06T12:32:14Z</time></trkpt><trkpt lat="44.90286907954487" lon="4.329873938931532"><ele>632.0</ele><time>2026-04-06T12:32:15Z</time></trkpt><trkpt lat="44.90278304783852" lon="4.329828647090897"><ele>632.0</ele><time>2026-04-06T12:32:16Z</time></trkpt><trkpt lat="44.902697490049185" lon="4.32976431533494"><ele>632.0</ele><time>2026-04-06T12:32:17Z</time></trkpt><trkpt lat="44.90262329753225" lon="4.329713516351864"><ele>632.0</ele><time>2026-04-06T12:32:18Z</time></trkpt><trkpt lat="44.902546835995" lon="4.329654713083377"><ele>632.0</ele><time>2026-04-06T12:32:19Z</time></trkpt><trkpt lat="44.90246434119201" lon="4.329608993459638"><ele>632.0</ele><time>2026-04-06T12:32:20Z</time></trkpt><trkpt lat="44.902391532955015" lon="4.329559943660535"><ele>631.6666666666666</ele><time>2026-04-06T12:32:21Z</time></trkpt><trkpt lat="44.902317533049164" lon="4.329546844960533"><ele>631.3333333333333</ele><time>2026-04-06T12:32:22Z</time></trkpt><trkpt lat="44.90224562159133" lon="4.329557815371808"><ele>631.0</ele><time>2026-04-06T12:32:23Z</time></trkpt><trkpt lat="44.90217855429801" lon="4.329569267040752"><ele>630.6666666666666</ele><time>2026-04-06T12:32:24Z</time></trkpt><trkpt lat="44.9021160578027" lon="4.329626556689901"><ele>630.3333333333334</ele><time>2026-04-06T12:32:25Z</time></trkpt><trkpt lat="44.902032638769754" lon="4.329702033107784"><ele>630.0</ele><time>2026-04-06T12:32:26Z</time></trkpt><trkpt lat="44.90196809086358" lon="4.329768630044773"><ele>631.1666666666666</ele><time>2026-04-06T12:32:27Z</time></trkpt><trkpt lat="44.901908007681946" lon="4.329847221512677"><ele>632.3333333333334</ele><time>2026-04-06T12:32:28Z</time></trkpt><trkpt lat="44.90180477671091" lon="4.329915275567781"><ele>633.5</ele><time>2026-04-06T12:32:30Z</time></trkpt><trkpt lat="44.90171711142877" lon="4.329890934154245"><ele>634.6666666666667</ele><time>2026-04-06T12:32:32Z</time></trkpt><trkpt lat="44.9016955196349" lon="4.329806926787233"><ele>635.8333333333334</ele><time>2026-04-06T12:32:33Z</time></trkpt><trkpt lat="44.90164132926939" lon="4.329710700607389"><ele>637.0</ele><time>2026-04-06T12:32:34Z</time></trkpt><trkpt lat="44.90158999896153" lon="4.32960497350645"><ele>637.0</ele><time>2026-04-06T12:32:35Z</time></trkpt><trkpt lat="44.90154927988445" lon="4.329494486161217"><ele>637.0</ele><time>2026-04-06T12:32:36Z</time></trkpt><trkpt lat="44.90151237759355" lon="4.329396122573925"><ele>637.0</ele><time>2026-04-06T12:32:37Z</time></trkpt><trkpt lat="44.90147706461324" lon="4.329301083694743"><ele>637.0</ele><time>2026-04-06T12:32:38Z</time></trkpt><trkpt lat="44.90144222012637" lon="4.329199939023148"><ele>637.0</ele><time>2026-04-06T12:32:39Z</time></trkpt><trkpt lat="44.90140028293179" lon="4.329109803945614"><ele>637.0</ele><time>2026-04-06T12:32:40Z</time></trkpt><trkpt lat="44.90134526579338" lon="4.329023278835142"><ele>637.0</ele><time>2026-04-06T12:32:41Z</time></trkpt><trkpt lat="44.9013034919325" lon="4.328935694808066"><ele>637.0</ele><time>2026-04-06T12:32:42Z</time></trkpt><trkpt lat="44.90125657794201" lon="4.328851220079582"><ele>637.0</ele><time>2026-04-06T12:32:43Z</time></trkpt><trkpt lat="44.901173984716756" lon="4.328740602943758"><ele>637.0</ele><time>2026-04-06T12:32:45Z</time></trkpt><trkpt lat="44.90113421068979" lon="4.328669761564574"><ele>637.0</ele><time>2026-04-06T12:32:46Z</time></trkpt><trkpt lat="44.90104582429613" lon="4.328541389652188"><ele>637.8</ele><time>2026-04-06T12:32:48Z</time></trkpt><trkpt lat="44.90097376156675" lon="4.328513074089751"><ele>638.6</ele><time>2026-04-06T12:32:49Z</time></trkpt><trkpt lat="44.90081856139406" lon="4.328447719180274"><ele>639.4</ele><time>2026-04-06T12:32:51Z</time></trkpt><trkpt lat="44.90073921989493" lon="4.3284108543775845"><ele>640.1999999999999</ele><time>2026-04-06T12:32:52Z</time></trkpt><trkpt lat="44.90066078804407" lon="4.328392586501468"><ele>641.0</ele><time>2026-04-06T12:32:53Z</time></trkpt><trkpt lat="44.90059771898175" lon="4.328399141210912"><ele>641.0</ele><time>2026-04-06T12:32:54Z</time></trkpt><trkpt lat="44.90048078321976" lon="4.3285205293095395"><ele>641.0</ele><time>2026-04-06T12:32:56Z</time></trkpt><trkpt lat="44.90040977671643" lon="4.328563256784997"><ele>641.0</ele><time>2026-04-06T12:32:57Z</time></trkpt><trkpt lat="44.9003307405938" lon="4.328546215059294"><ele>641.0</ele><time>2026-04-06T12:32:58Z</time></trkpt><trkpt lat="44.90026629782444" lon="4.3285930726676805"><ele>641.0</ele><time>2026-04-06T12:32:59Z</time></trkpt><trkpt lat="44.90019369409425" lon="4.328612447187233"><ele>641.0</ele><time>2026-04-06T12:33:00Z</time></trkpt><trkpt lat="44.9001120335397" lon="4.328590993824087"><ele>642.1999999999999</ele><time>2026-04-06T12:33:01Z</time></trkpt><trkpt lat="44.900029967499655" lon="4.328558557642307"><ele>643.4</ele><time>2026-04-06T12:33:02Z</time></trkpt><trkpt lat="44.89996438975403" lon="4.328518813528082"><ele>644.6</ele><time>2026-04-06T12:33:03Z</time></trkpt><trkpt lat="44.89983882779262" lon="4.328483582852603"><ele>645.8</ele><time>2026-04-06T12:33:05Z</time></trkpt><trkpt lat="44.89977798119901" lon="4.328458825690289"><ele>647.0</ele><time>2026-04-06T12:33:06Z</time></trkpt><trkpt lat="44.89967164596692" lon="4.328377377780364"><ele>647.0</ele><time>2026-04-06T12:33:08Z</time></trkpt><trkpt lat="44.899581355050316" lon="4.3282718621661465"><ele>647.0</ele><time>2026-04-06T12:33:10Z</time></trkpt><trkpt lat="44.899528623135716" lon="4.328172057373336"><ele>647.0</ele><time>2026-04-06T12:33:11Z</time></trkpt><trkpt lat="44.8994527128946" lon="4.328094166047405"><ele>647.0</ele><time>2026-04-06T12:33:12Z</time></trkpt><trkpt lat="44.89935876751414" lon="4.328023413399361"><ele>647.0</ele><time>2026-04-06T12:33:13Z</time></trkpt><trkpt lat="44.899298829420474" lon="4.327951187988607"><ele>647.5</ele><time>2026-04-06T12:33:14Z</time></trkpt><trkpt lat="44.89923759404815" lon="4.327873404058776"><ele>648.0</ele><time>2026-04-06T12:33:15Z</time></trkpt><trkpt lat="44.899185768210266" lon="4.327803188485287"><ele>648.5</ele><time>2026-04-06T12:33:16Z</time></trkpt><trkpt lat="44.89912624197094" lon="4.327724754930525"><ele>649.0</ele><time>2026-04-06T12:33:17Z</time></trkpt><trkpt lat="44.899074453966364" lon="4.327640446842573"><ele>649.5</ele><time>2026-04-06T12:33:18Z</time></trkpt><trkpt lat="44.899019365294926" lon="4.327573268395692"><ele>650.0</ele><time>2026-04-06T12:33:19Z</time></trkpt><trkpt lat="44.89895875408664" lon="4.327513956883419"><ele>650.0</ele><time>2026-04-06T12:33:20Z</time></trkpt><trkpt lat="44.898900353947965" lon="4.327462349587821"><ele>650.0</ele><time>2026-04-06T12:33:21Z</time></trkpt><trkpt lat="44.89884042647677" lon="4.3274259929321"><ele>650.0</ele><time>2026-04-06T12:33:22Z</time></trkpt><trkpt lat="44.89875018198641" lon="4.327355821602954"><ele>650.0</ele><time>2026-04-06T12:33:24Z</time></trkpt><trkpt lat="44.898725884265836" lon="4.327270705730879"><ele>650.0</ele><time>2026-04-06T12:33:25Z</time></trkpt><trkpt lat="44.89870282933342" lon="4.327183609927207"><ele>650.0</ele><time>2026-04-06T12:33:26Z</time></trkpt><trkpt lat="44.89861196942323" lon="4.327041889281088"><ele>650.5</ele><time>2026-04-06T12:33:28Z</time></trkpt><trkpt lat="44.898557004760015" lon="4.326971222220145"><ele>651.0</ele><time>2026-04-06T12:33:29Z</time></trkpt><trkpt lat="44.898506457128846" lon="4.326901198084052"><ele>651.5</ele><time>2026-04-06T12:33:30Z</time></trkpt><trkpt lat="44.898451355855805" lon="4.326821801003175"><ele>652.0</ele><time>2026-04-06T12:33:31Z</time></trkpt><trkpt lat="44.89838540953714" lon="4.326762835745125"><ele>652.5</ele><time>2026-04-06T12:33:32Z</time></trkpt><trkpt lat="44.89831703847915" lon="4.326725325213258"><ele>653.0</ele><time>2026-04-06T12:33:33Z</time></trkpt><trkpt lat="44.89824768442875" lon="4.326620396652616"><ele>653.0000000000001</ele><time>2026-04-06T12:33:35Z</time></trkpt><trkpt lat="44.89820163300192" lon="4.326536556906318"><ele>653.0</ele><time>2026-04-06T12:33:36Z</time></trkpt><trkpt lat="44.898149226882495" lon="4.326423353608799"><ele>653.0</ele><time>2026-04-06T12:33:37Z</time></trkpt><trkpt lat="44.898100438296396" lon="4.326352466112322"><ele>653.0</ele><time>2026-04-06T12:33:38Z</time></trkpt><trkpt lat="44.898052460594734" lon="4.32628246715214"><ele>653.0</ele><time>2026-04-06T12:33:39Z</time></trkpt><trkpt lat="44.898006757926716" lon="4.326211861662644"><ele>653.0000000000001</ele><time>2026-04-06T12:33:40Z</time></trkpt><trkpt lat="44.897967501528115" lon="4.326132820510364"><ele>653.0</ele><time>2026-04-06T12:33:41Z</time></trkpt><trkpt lat="44.89789738943463" lon="4.326006440160997"><ele>653.4</ele><time>2026-04-06T12:33:43Z</time></trkpt><trkpt lat="44.89782715179412" lon="4.325921127105154"><ele>653.8</ele><time>2026-04-06T12:33:45Z</time></trkpt><trkpt lat="44.89772951739488" lon="4.325942084072411"><ele>654.2</ele><time>2026-04-06T12:33:46Z</time></trkpt><trkpt lat="44.89763749781031" lon="4.325958977473305"><ele>654.6</ele><time>2026-04-06T12:33:47Z</time></trkpt><trkpt lat="44.897541431010794" lon="4.325925506830766"><ele>655.0</ele><time>2026-04-06T12:33:48Z</time></trkpt><trkpt lat="44.897471616307044" lon="4.325886567252068"><ele>655.0</ele><time>2026-04-06T12:33:49Z</time></trkpt><trkpt lat="44.89740489117396" lon="4.325802040553723"><ele>655.0</ele><time>2026-04-06T12:33:50Z</time></trkpt><trkpt lat="44.89732708815815" lon="4.325755592914973"><ele>655.0</ele><time>2026-04-06T12:33:51Z</time></trkpt><trkpt lat="44.89723982397886" lon="4.325704213781685"><ele>655.0</ele><time>2026-04-06T12:33:53Z</time></trkpt><trkpt lat="44.897120804034074" lon="4.325775304490685"><ele>655.0</ele><time>2026-04-06T12:33:55Z</time></trkpt><trkpt lat="44.89704427631538" lon="4.3258433564045085"><ele>655.0</ele><time>2026-04-06T12:33:56Z</time></trkpt><trkpt lat="44.89697441240519" lon="4.325918548782362"><ele>655.0</ele><time>2026-04-06T12:33:57Z</time></trkpt><trkpt lat="44.8969094113216" lon="4.326030629614487"><ele>655.0</ele><time>2026-04-06T12:33:58Z</time></trkpt><trkpt lat="44.89685031325444" lon="4.32615310288558"><ele>655.0</ele><time>2026-04-06T12:33:59Z</time></trkpt><trkpt lat="44.89679069078162" lon="4.326302595365946"><ele>655.0</ele><time>2026-04-06T12:34:00Z</time></trkpt><trkpt lat="44.89671847207388" lon="4.326414115742765"><ele>657.8</ele><time>2026-04-06T12:34:01Z</time></trkpt><trkpt lat="44.89668179687738" lon="4.326505254353521"><ele>660.6</ele><time>2026-04-06T12:34:02Z</time></trkpt><trkpt lat="44.8966552672581" lon="4.326613997069339"><ele>663.4000000000001</ele><time>2026-04-06T12:34:04Z</time></trkpt><trkpt lat="44.89654496323799" lon="4.326493579812129"><ele>666.2</ele><time>2026-04-06T12:34:07Z</time></trkpt><trkpt lat="44.89649144952681" lon="4.326364465644692"><ele>669.0</ele><time>2026-04-06T12:34:08Z</time></trkpt><trkpt lat="44.89644727130462" lon="4.326263465417097"><ele>669.0</ele><time>2026-04-06T12:34:09Z</time></trkpt><trkpt lat="44.896372247477146" lon="4.326205781705584"><ele>669.0</ele><time>2026-04-06T12:34:10Z</time></trkpt><trkpt lat="44.89627265299439" lon="4.326150547530673"><ele>669.0</ele><time>2026-04-06T12:34:11Z</time></trkpt><trkpt lat="44.89616559607434" lon="4.32609913282412"><ele>669.0</ele><time>2026-04-06T12:34:12Z</time></trkpt><trkpt lat="44.89603229266811" lon="4.326051191478878"><ele>669.0</ele><time>2026-04-06T12:34:13Z</time></trkpt><trkpt lat="44.89591272642144" lon="4.325996700759955"><ele>672.2</ele><time>2026-04-06T12:34:14Z</time></trkpt><trkpt lat="44.895787099898975" lon="4.325940701669442"><ele>675.4000000000001</ele><time>2026-04-06T12:34:15Z</time></trkpt><trkpt lat="44.895691534113844" lon="4.325953200965574"><ele>678.6</ele><time>2026-04-06T12:34:16Z</time></trkpt><trkpt lat="44.895613570092344" lon="4.325999726083791"><ele>681.8</ele><time>2026-04-06T12:34:17Z</time></trkpt><trkpt lat="44.89553303531147" lon="4.326074366715925"><ele>685.0</ele><time>2026-04-06T12:34:18Z</time></trkpt><trkpt lat="44.895456212177194" lon="4.326172163575819"><ele>685.0</ele><time>2026-04-06T12:34:19Z</time></trkpt><trkpt lat="44.89537909142203" lon="4.326297175221223"><ele>685.0</ele><time>2026-04-06T12:34:20Z</time></trkpt><trkpt lat="44.89530292451588" lon="4.326374909931197"><ele>685.0</ele><time>2026-04-06T12:34:21Z</time></trkpt><trkpt lat="44.89526535445278" lon="4.3264501987066275"><ele>685.0</ele><time>2026-04-06T12:34:22Z</time></trkpt><trkpt lat="44.895206661694495" lon="4.326563175416941"><ele>685.0</ele><time>2026-04-06T12:34:24Z</time></trkpt><trkpt lat="44.89513903994697" lon="4.326504137656512"><ele>687.3333333333334</ele><time>2026-04-06T12:34:26Z</time></trkpt><trkpt lat="44.89511306799926" lon="4.326411635416398"><ele>689.6666666666667</ele><time>2026-04-06T12:34:27Z</time></trkpt><trkpt lat="44.895016885870724" lon="4.326367476293999"><ele>692.0</ele><time>2026-04-06T12:34:28Z</time></trkpt><trkpt lat="44.89494492155646" lon="4.326337633462198"><ele>694.3333333333334</ele><time>2026-04-06T12:34:30Z</time></trkpt><trkpt lat="44.894969689596024" lon="4.326195184857927"><ele>696.6666666666666</ele><time>2026-04-06T12:34:33Z</time></trkpt><trkpt lat="44.89499145461024" lon="4.326108033587898"><ele>699.0</ele><time>2026-04-06T12:34:36Z</time></trkpt><trkpt lat="44.894998898060834" lon="4.326007204900943"><ele>699.0</ele><time>2026-04-06T12:34:37Z</time></trkpt><trkpt lat="44.89493427579975" lon="4.3259207557786405"><ele>699.0</ele><time>2026-04-06T12:34:40Z</time></trkpt><trkpt lat="44.89486188844956" lon="4.325904162956614"><ele>699.0</ele><time>2026-04-06T12:34:42Z</time></trkpt><trkpt lat="44.89481794571907" lon="4.325831238589222"><ele>699.0</ele><time>2026-04-06T12:34:44Z</time></trkpt><trkpt lat="44.8947364062247" lon="4.325755032230564"><ele>699.0</ele><time>2026-04-06T12:34:46Z</time></trkpt><trkpt lat="44.89470115169259" lon="4.3256707603716915"><ele>699.0</ele><time>2026-04-06T12:34:48Z</time></trkpt><trkpt lat="44.8946928767996" lon="4.325568330056665"><ele>699.5</ele><time>2026-04-06T12:34:50Z</time></trkpt><trkpt lat="44.894665601134896" lon="4.325464683529873"><ele>700.0</ele><time>2026-04-06T12:34:53Z</time></trkpt><trkpt lat="44.8946534721288" lon="4.325374756700248"><ele>700.5</ele><time>2026-04-06T12:34:55Z</time></trkpt><trkpt lat="44.894659888682156" lon="4.325282632351542"><ele>701.0</ele><time>2026-04-06T12:34:57Z</time></trkpt><trkpt lat="44.89463026056108" lon="4.32519216901859"><ele>701.5</ele><time>2026-04-06T12:34:59Z</time></trkpt><trkpt lat="44.89458386779478" lon="4.325067840264251"><ele>702.0</ele><time>2026-04-06T12:35:01Z</time></trkpt><trkpt lat="44.89449379944485" lon="4.325057559356566"><ele>702.0000000000001</ele><time>2026-04-06T12:35:03Z</time></trkpt><trkpt lat="44.894455248297696" lon="4.324963852627655"><ele>702.0</ele><time>2026-04-06T12:35:06Z</time></trkpt><trkpt lat="44.89445911685051" lon="4.324869969091802"><ele>702.0</ele><time>2026-04-06T12:35:08Z</time></trkpt><trkpt lat="44.89440111662288" lon="4.324818360237299"><ele>702.0</ele><time>2026-04-06T12:35:10Z</time></trkpt><trkpt lat="44.8943481218932" lon="4.324750594664199"><ele>702.0</ele><time>2026-04-06T12:35:14Z</time></trkpt><trkpt lat="44.89429080558657" lon="4.324664880823266"><ele>702.0000000000001</ele><time>2026-04-06T12:35:17Z</time></trkpt><trkpt lat="44.894306262255995" lon="4.324575841000072"><ele>702.0</ele><time>2026-04-06T12:35:19Z</time></trkpt><trkpt lat="44.894261488948864" lon="4.324510434719609"><ele>710.0</ele><time>2026-04-06T12:35:21Z</time></trkpt><trkpt lat="44.8942097065596" lon="4.324380237440275"><ele>718.0</ele><time>2026-04-06T12:35:23Z</time></trkpt><trkpt lat="44.894180254346374" lon="4.324286946276065"><ele>726.0</ele><time>2026-04-06T12:35:25Z</time></trkpt><trkpt lat="44.89416113198094" lon="4.324152888513187"><ele>734.0</ele><time>2026-04-06T12:35:28Z</time></trkpt><trkpt lat="44.89405234404406" lon="4.324087480956382"><ele>742.0</ele><time>2026-04-06T12:35:30Z</time></trkpt><trkpt lat="44.89399960926174" lon="4.323990425293466"><ele>742.0</ele><time>2026-04-06T12:35:32Z</time></trkpt><trkpt lat="44.89391807578534" lon="4.323974243742042"><ele>742.0</ele><time>2026-04-06T12:35:33Z</time></trkpt><trkpt lat="44.893864596787246" lon="4.323867755219648"><ele>742.0</ele><time>2026-04-06T12:35:36Z</time></trkpt><trkpt lat="44.89381283057762" lon="4.323801909818174"><ele>742.0</ele><time>2026-04-06T12:35:40Z</time></trkpt><trkpt lat="44.89373891905148" lon="4.323675344000856"><ele>742.0</ele><time>2026-04-06T12:35:42Z</time></trkpt><trkpt lat="44.89367836294105" lon="4.323594010128682"><ele>742.0</ele><time>2026-04-06T12:35:43Z</time></trkpt><trkpt lat="44.89359895587778" lon="4.323564218661226"><ele>743.4000000000001</ele><time>2026-04-06T12:35:44Z</time></trkpt><trkpt lat="44.8934789577178" lon="4.323433828652569"><ele>744.8000000000001</ele><time>2026-04-06T12:35:46Z</time></trkpt><trkpt lat="44.89341222801002" lon="4.323351134785584"><ele>746.2</ele><time>2026-04-06T12:35:47Z</time></trkpt><trkpt lat="44.89336273279918" lon="4.323278382964188"><ele>747.6</ele><time>2026-04-06T12:35:48Z</time></trkpt><trkpt lat="44.89331270328128" lon="4.323207121154322"><ele>749.0</ele><time>2026-04-06T12:35:49Z</time></trkpt><trkpt lat="44.89323919753255" lon="4.323122920259494"><ele>752.8333333333333</ele><time>2026-04-06T12:35:51Z</time></trkpt><trkpt lat="44.89321517298503" lon="4.322977562159716"><ele>756.6666666666666</ele><time>2026-04-06T12:35:54Z</time></trkpt><trkpt lat="44.893211579222076" lon="4.322876171845754"><ele>760.5</ele><time>2026-04-06T12:35:56Z</time></trkpt><trkpt lat="44.89315969644913" lon="4.322778554272795"><ele>764.3333333333333</ele><time>2026-04-06T12:35:58Z</time></trkpt><trkpt lat="44.89314397626946" lon="4.322667754390347"><ele>768.1666666666666</ele><time>2026-04-06T12:36:00Z</time></trkpt><trkpt lat="44.89307032476944" lon="4.32259604284647"><ele>772.0</ele><time>2026-04-06T12:36:03Z</time></trkpt><trkpt lat="44.892975506239246" lon="4.322592841454003"><ele>771.9999999999999</ele><time>2026-04-06T12:36:05Z</time></trkpt><trkpt lat="44.892887883128545" lon="4.322578501954071"><ele>772.0</ele><time>2026-04-06T12:36:07Z</time></trkpt><trkpt lat="44.892810964294036" lon="4.322581427001122"><ele>772.0</ele><time>2026-04-06T12:36:09Z</time></trkpt><trkpt lat="44.89272436354648" lon="4.322543761415288"><ele>772.0</ele><time>2026-04-06T12:36:12Z</time></trkpt><trkpt lat="44.892660783168644" lon="4.322516384574361"><ele>771.9999999999999</ele><time>2026-04-06T12:36:14Z</time></trkpt><trkpt lat="44.8925973862365" lon="4.32254013842465"><ele>772.0</ele><time>2026-04-06T12:36:20Z</time></trkpt><trkpt lat="44.89254357159852" lon="4.322435966411854"><ele>774.8</ele><time>2026-04-06T12:36:27Z</time></trkpt><trkpt lat="44.89246112931453" lon="4.322501176639089"><ele>777.6</ele><time>2026-04-06T12:36:29Z</time></trkpt><trkpt lat="44.89240111250155" lon="4.32255602015686"><ele>780.4</ele><time>2026-04-06T12:36:31Z</time></trkpt><trkpt lat="44.89229650357554" lon="4.322546541662175"><ele>783.1999999999999</ele><time>2026-04-06T12:36:34Z</time></trkpt><trkpt lat="44.892208183593944" lon="4.322613314363842"><ele>786.0</ele><time>2026-04-06T12:36:36Z</time></trkpt><trkpt lat="44.89208315575887" lon="4.322625014390881"><ele>786.0</ele><time>2026-04-06T12:36:40Z</time></trkpt><trkpt lat="44.89202080855324" lon="4.32270805974345"><ele>786.0</ele><time>2026-04-06T12:36:43Z</time></trkpt><trkpt lat="44.89196854093844" lon="4.322784210286468"><ele>786.0</ele><time>2026-04-06T12:36:44Z</time></trkpt><trkpt lat="44.891921304741786" lon="4.322844608247402"><ele>786.0</ele><time>2026-04-06T12:36:47Z</time></trkpt><trkpt lat="44.89177836423296" lon="4.322769387440105"><ele>786.0</ele><time>2026-04-06T12:36:50Z</time></trkpt><trkpt lat="44.89166858865594" lon="4.322831052956084"><ele>787.6666666666666</ele><time>2026-04-06T12:36:52Z</time></trkpt><trkpt lat="44.891590736907155" lon="4.322859365552801"><ele>789.3333333333333</ele><time>2026-04-06T12:36:53Z</time></trkpt><trkpt lat="44.891471851240624" lon="4.3228360994569925"><ele>791.0</ele><time>2026-04-06T12:36:55Z</time></trkpt><trkpt lat="44.891405356210264" lon="4.322830783629213"><ele>792.6666666666666</ele><time>2026-04-06T12:36:56Z</time></trkpt><trkpt lat="44.89132468261961" lon="4.322863161042022"><ele>794.3333333333333</ele><time>2026-04-06T12:36:58Z</time></trkpt><trkpt lat="44.89128505605535" lon="4.322938492272726"><ele>796.0</ele><time>2026-04-06T12:37:02Z</time></trkpt><trkpt lat="44.8912150566513" lon="4.3229209278861696"><ele>796.0</ele><time>2026-04-06T12:37:03Z</time></trkpt><trkpt lat="44.891171208274145" lon="4.322998664465897"><ele>796.0</ele><time>2026-04-06T12:37:05Z</time></trkpt><trkpt lat="44.891080962059604" lon="4.323091686967937"><ele>796.0</ele><time>2026-04-06T12:37:08Z</time></trkpt><trkpt lat="44.89102787799907" lon="4.32317487277592"><ele>796.0</ele><time>2026-04-06T12:37:09Z</time></trkpt><trkpt lat="44.89097329259056" lon="4.3232642594891075"><ele>796.0</ele><time>2026-04-06T12:37:10Z</time></trkpt><trkpt lat="44.890899996477835" lon="4.323403771019161"><ele>799.5999999999999</ele><time>2026-04-06T12:37:11Z</time></trkpt><trkpt lat="44.89086993041568" lon="4.3235068799446426"><ele>803.2</ele><time>2026-04-06T12:37:12Z</time></trkpt><trkpt lat="44.89078560413403" lon="4.323551039417463"><ele>806.8</ele><time>2026-04-06T12:37:15Z</time></trkpt><trkpt lat="44.89069904872208" lon="4.32364354993299"><ele>810.4000000000001</ele><time>2026-04-06T12:37:19Z</time></trkpt><trkpt lat="44.89062397888336" lon="4.323820511075262"><ele>814.0</ele><time>2026-04-06T12:37:23Z</time></trkpt><trkpt lat="44.89056842624799" lon="4.323934464996322"><ele>818.4999999999999</ele><time>2026-04-06T12:37:25Z</time></trkpt><trkpt lat="44.89051322334997" lon="4.323986520709013"><ele>823.0</ele><time>2026-04-06T12:37:26Z</time></trkpt><trkpt lat="44.890453283291635" lon="4.324086989382538"><ele>827.5</ele><time>2026-04-06T12:37:28Z</time></trkpt><trkpt lat="44.89041292447799" lon="4.324197072334772"><ele>832.0</ele><time>2026-04-06T12:37:30Z</time></trkpt><trkpt lat="44.89039168176303" lon="4.324308620569869"><ele>836.4999999999999</ele><time>2026-04-06T12:37:34Z</time></trkpt><trkpt lat="44.89047030923534" lon="4.324365581416502"><ele>841.0</ele><time>2026-04-06T12:37:39Z</time></trkpt><trkpt lat="44.89046429113356" lon="4.324521925525867"><ele>840.9999999999999</ele><time>2026-04-06T12:37:43Z</time></trkpt><trkpt lat="44.89047584065447" lon="4.3246151182374675"><ele>841.0</ele><time>2026-04-06T12:37:45Z</time></trkpt><trkpt lat="44.89046464898659" lon="4.324705639191729"><ele>841.0</ele><time>2026-04-06T12:37:47Z</time></trkpt><trkpt lat="44.89050385749763" lon="4.324853785271404"><ele>841.0</ele><time>2026-04-06T12:37:50Z</time></trkpt><trkpt lat="44.890532409130394" lon="4.324951227346088"><ele>840.9999999999999</ele><time>2026-04-06T12:37:52Z</time></trkpt><trkpt lat="44.89056234667172" lon="4.325036771193332"><ele>841.0</ele><time>2026-04-06T12:37:55Z</time></trkpt><trkpt lat="44.890532568557916" lon="4.3251347051212505"><ele>846.4</ele><time>2026-04-06T12:37:57Z</time></trkpt><trkpt lat="44.89050986110713" lon="4.325220407641303"><ele>851.8</ele><time>2026-04-06T12:37:58Z</time></trkpt><trkpt lat="44.89049835900665" lon="4.325364411419301"><ele>857.1999999999999</ele><time>2026-04-06T12:38:00Z</time></trkpt><trkpt lat="44.890474568591856" lon="4.3255178558153755"><ele>862.5999999999999</ele><time>2026-04-06T12:38:02Z</time></trkpt><trkpt lat="44.8904934398904" lon="4.325670066614727"><ele>868.0</ele><time>2026-04-06T12:38:04Z</time></trkpt><trkpt lat="44.890429837595164" lon="4.325746961251407"><ele>868.8333333333333</ele><time>2026-04-06T12:38:06Z</time></trkpt><trkpt lat="44.89035235536677" lon="4.325799104815995"><ele>869.6666666666666</ele><time>2026-04-06T12:38:09Z</time></trkpt><trkpt lat="44.890303509164376" lon="4.325886264225609"><ele>870.5</ele><time>2026-04-06T12:38:11Z</time></trkpt><trkpt lat="44.89022104036174" lon="4.325901053943953"><ele>871.3333333333333</ele><time>2026-04-06T12:38:14Z</time></trkpt><trkpt lat="44.89019976392901" lon="4.326030646012995"><ele>872.1666666666666</ele><time>2026-04-06T12:38:16Z</time></trkpt><trkpt lat="44.8901283503303" lon="4.326093847300004"><ele>873.0</ele><time>2026-04-06T12:38:19Z</time></trkpt><trkpt lat="44.890008457073094" lon="4.326061288365127"><ele>873.0</ele><time>2026-04-06T12:38:21Z</time></trkpt><trkpt lat="44.88993089209398" lon="4.326107976242055"><ele>873.0</ele><time>2026-04-06T12:38:24Z</time></trkpt><trkpt lat="44.889886028831405" lon="4.326217483716981"><ele>873.0</ele><time>2026-04-06T12:38:25Z</time></trkpt><trkpt lat="44.88977797983043" lon="4.326250364498912"><ele>873.0</ele><time>2026-04-06T12:38:27Z</time></trkpt><trkpt lat="44.8897126981061" lon="4.326319914743339"><ele>873.0</ele><time>2026-04-06T12:38:30Z</time></trkpt><trkpt lat="44.88961998772718" lon="4.326419065414281"><ele>873.5</ele><time>2026-04-06T12:38:32Z</time></trkpt><trkpt lat="44.88954237972044" lon="4.32641826991421"><ele>874.0</ele><time>2026-04-06T12:38:35Z</time></trkpt><trkpt lat="44.8894498490526" lon="4.326456360088282"><ele>874.5</ele><time>2026-04-06T12:38:38Z</time></trkpt><trkpt lat="44.88935770201832" lon="4.326429956637123"><ele>875.0</ele><time>2026-04-06T12:38:39Z</time></trkpt><trkpt lat="44.889318469091634" lon="4.326503733997723"><ele>875.5</ele><time>2026-04-06T12:38:41Z</time></trkpt><trkpt lat="44.889250738473656" lon="4.326478208665191"><ele>876.0</ele><time>2026-04-06T12:38:44Z</time></trkpt><trkpt lat="44.88917577322015" lon="4.32634772638224"><ele>876.0</ele><time>2026-04-06T12:38:45Z</time></trkpt><trkpt lat="44.88906593881763" lon="4.326324057887192"><ele>876.0</ele><time>2026-04-06T12:38:47Z</time></trkpt><trkpt lat="44.88900240616315" lon="4.326312996658802"><ele>876.0</ele><time>2026-04-06T12:38:49Z</time></trkpt><trkpt lat="44.888461326068494" lon="4.326183738898402"><ele>880.5999999999999</ele><time>2026-04-06T12:38:51Z</time></trkpt><trkpt lat="44.888409438049976" lon="4.326120132678543"><ele>885.1999999999999</ele><time>2026-04-06T12:38:52Z</time></trkpt><trkpt lat="44.88833200806844" lon="4.3260663177906755"><ele>889.8000000000001</ele><time>2026-04-06T12:38:53Z</time></trkpt><trkpt lat="44.88825994238178" lon="4.326085020088791"><ele>894.4000000000001</ele><time>2026-04-06T12:38:55Z</time></trkpt><trkpt lat="44.88820026109074" lon="4.325983724753202"><ele>899.0</ele><time>2026-04-06T12:38:57Z</time></trkpt><trkpt lat="44.88808527699317" lon="4.325898263011216"><ele>899.0</ele><time>2026-04-06T12:38:59Z</time></trkpt><trkpt lat="44.887957577474594" lon="4.325798913159798"><ele>899.0000000000001</ele><time>2026-04-06T12:39:00Z</time></trkpt><trkpt lat="44.88789100094176" lon="4.325748752436723"><ele>899.0000000000001</ele><time>2026-04-06T12:39:01Z</time></trkpt><trkpt lat="44.887811862533994" lon="4.325679385743478"><ele>899.0</ele><time>2026-04-06T12:39:02Z</time></trkpt><trkpt lat="44.88774946490936" lon="4.325607470395761"><ele>899.0</ele><time>2026-04-06T12:39:03Z</time></trkpt><trkpt lat="44.88769722038719" lon="4.325551393972325"><ele>900.5000000000001</ele><time>2026-04-06T12:39:04Z</time></trkpt><trkpt lat="44.88764167318574" lon="4.325490770010799"><ele>902.0</ele><time>2026-04-06T12:39:05Z</time></trkpt><trkpt lat="44.88758352206352" lon="4.325413779008289"><ele>903.5</ele><time>2026-04-06T12:39:06Z</time></trkpt><trkpt lat="44.88752511580758" lon="4.32534732593514"><ele>905.0</ele><time>2026-04-06T12:39:07Z</time></trkpt><trkpt lat="44.88750546052338" lon="4.325255853637625"><ele>906.5000000000001</ele><time>2026-04-06T12:39:08Z</time></trkpt><trkpt lat="44.88743681549677" lon="4.3251132724887995"><ele>908.0</ele><time>2026-04-06T12:39:10Z</time></trkpt><trkpt lat="44.887349136350714" lon="4.324997850189956"><ele>908.0</ele><time>2026-04-06T12:39:12Z</time></trkpt><trkpt lat="44.88725139010625" lon="4.32491324275517"><ele>908.0</ele><time>2026-04-06T12:39:14Z</time></trkpt><trkpt lat="44.88717078685457" lon="4.324857606920084"><ele>908.0</ele><time>2026-04-06T12:39:16Z</time></trkpt><trkpt lat="44.887070459222066" lon="4.324861142607762"><ele>908.0</ele><time>2026-04-06T12:39:18Z</time></trkpt><trkpt lat="44.88696826795357" lon="4.324830653168237"><ele>908.0</ele><time>2026-04-06T12:39:20Z</time></trkpt><trkpt lat="44.88689596029336" lon="4.324838639760811"><ele>908.0</ele><time>2026-04-06T12:39:21Z</time></trkpt><trkpt lat="44.88681659842582" lon="4.324893487176764"><ele>908.0</ele><time>2026-04-06T12:39:22Z</time></trkpt><trkpt lat="44.88673068770598" lon="4.3248906780022125"><ele>908.0</ele><time>2026-04-06T12:39:23Z</time></trkpt><trkpt lat="44.88663303095221" lon="4.324884281498975"><ele>908.0</ele><time>2026-04-06T12:39:24Z</time></trkpt><trkpt lat="44.88652543255078" lon="4.324884680441393"><ele>908.0</ele><time>2026-04-06T12:39:25Z</time></trkpt><trkpt lat="44.88640377426017" lon="4.324915070182872"><ele>907.5000000000001</ele><time>2026-04-06T12:39:26Z</time></trkpt><trkpt lat="44.88630443364338" lon="4.324931472345611"><ele>907.0</ele><time>2026-04-06T12:39:27Z</time></trkpt><trkpt lat="44.886225394067154" lon="4.324938253385308"><ele>906.5</ele><time>2026-04-06T12:39:28Z</time></trkpt><trkpt lat="44.88614466673167" lon="4.3249177877054334"><ele>906.0</ele><time>2026-04-06T12:39:29Z</time></trkpt><trkpt lat="44.886079269271214" lon="4.324872819821381"><ele>905.5000000000001</ele><time>2026-04-06T12:39:30Z</time></trkpt><trkpt lat="44.886022849610185" lon="4.324801099120957"><ele>905.0</ele><time>2026-04-06T12:39:31Z</time></trkpt><trkpt lat="44.88598196840224" lon="4.324699978395277"><ele>908.8333333333334</ele><time>2026-04-06T12:39:32Z</time></trkpt><trkpt lat="44.88592491073947" lon="4.324653863846721"><ele>912.6666666666667</ele><time>2026-04-06T12:39:33Z</time></trkpt><trkpt lat="44.88586426618965" lon="4.324593550128195"><ele>916.5</ele><time>2026-04-06T12:39:34Z</time></trkpt><trkpt lat="44.88581487643864" lon="4.324532826268431"><ele>920.3333333333333</ele><time>2026-04-06T12:39:35Z</time></trkpt><trkpt lat="44.88577881695463" lon="4.3244580153416186"><ele>924.1666666666666</ele><time>2026-04-06T12:39:36Z</time></trkpt><trkpt lat="44.88569741343697" lon="4.324354457709316"><ele>928.0</ele><time>2026-04-06T12:39:38Z</time></trkpt><trkpt lat="44.885638540761164" lon="4.324272109336251"><ele>927.9999999999999</ele><time>2026-04-06T12:39:40Z</time></trkpt><trkpt lat="44.88560369377705" lon="4.3241442675492925"><ele>928.0</ele><time>2026-04-06T12:39:42Z</time></trkpt><trkpt lat="44.885538639707164" lon="4.32410694433913"><ele>928.0</ele><time>2026-04-06T12:39:46Z</time></trkpt><trkpt lat="44.88551868648396" lon="4.3240056517756384"><ele>928.0</ele><time>2026-04-06T12:39:47Z</time></trkpt><trkpt lat="44.88546490149732" lon="4.323950585330266"><ele>927.9999999999999</ele><time>2026-04-06T12:39:49Z</time></trkpt><trkpt lat="44.8853940602894" lon="4.323908686941105"><ele>928.0</ele><time>2026-04-06T12:39:53Z</time></trkpt><trkpt lat="44.885343195218844" lon="4.3238478790835035"><ele>928.1666666666666</ele><time>2026-04-06T12:40:14Z</time></trkpt><trkpt lat="44.88530981843155" lon="4.323770439292409"><ele>928.3333333333333</ele><time>2026-04-06T12:40:20Z</time></trkpt><trkpt lat="44.8852464949237" lon="4.323712313135211"><ele>928.5</ele><time>2026-04-06T12:41:57Z</time></trkpt><trkpt lat="44.88521327606386" lon="4.323620249542992"><ele>928.6666666666667</ele><time>2026-04-06T12:41:59Z</time></trkpt><trkpt lat="44.8851599155576" lon="4.323505044957116"><ele>928.8333333333334</ele><time>2026-04-06T12:42:01Z</time></trkpt><trkpt lat="44.88509349566186" lon="4.323387166294387"><ele>929.0</ele><time>2026-04-06T12:42:03Z</time></trkpt><trkpt lat="44.88500243622609" lon="4.323280044751123"><ele>929.0</ele><time>2026-04-06T12:42:05Z</time></trkpt><trkpt lat="44.88490784293792" lon="4.323191811965436"><ele>929.0000000000001</ele><time>2026-04-06T12:42:07Z</time></trkpt><trkpt lat="44.88491578667501" lon="4.323342989701911"><ele>929.0000000000001</ele><time>2026-04-06T12:42:13Z</time></trkpt><trkpt lat="44.88497930306876" lon="4.32343632956922"><ele>929.0</ele><time>2026-04-06T12:42:15Z</time></trkpt><trkpt lat="44.88502668361436" lon="4.323524792818352"><ele>929.0</ele><time>2026-04-06T12:42:17Z</time></trkpt><trkpt lat="44.88505370429326" lon="4.323605148083759"><ele>929.0000000000001</ele><time>2026-04-06T12:42:19Z</time></trkpt><trkpt lat="44.88503938780027" lon="4.323705839398957"><ele>929.0</ele><time>2026-04-06T12:42:39Z</time></trkpt><trkpt lat="44.88500320573616" lon="4.323794462409134"><ele>929.0</ele><time>2026-04-06T12:42:56Z</time></trkpt><trkpt lat="44.8849639801534" lon="4.323699011605745"><ele>929.0</ele><time>2026-04-06T12:45:13Z</time></trkpt><trkpt lat="44.88493605741892" lon="4.323592027129553"><ele>929.0000000000001</ele><time>2026-04-06T12:45:15Z</time></trkpt><trkpt lat="44.88485515958305" lon="4.323539878237483"><ele>929.0</ele><time>2026-04-06T12:45:17Z</time></trkpt><trkpt lat="44.8847887490996" lon="4.323540097717039"><ele>929.0000000000001</ele><time>2026-04-06T12:45:19Z</time></trkpt><trkpt lat="44.88470721942766" lon="4.323485387152956"><ele>929.0</ele><time>2026-04-06T12:45:22Z</time></trkpt><trkpt lat="44.88465876821261" lon="4.323415036978112"><ele>929.0</ele><time>2026-04-06T12:45:24Z</time></trkpt><trkpt lat="44.884626850010584" lon="4.323311584820525"><ele>929.0</ele><time>2026-04-06T12:45:26Z</time></trkpt><trkpt lat="44.88455475147026" lon="4.3232997184911905"><ele>929.0000000000001</ele><time>2026-04-06T12:45:29Z</time></trkpt><trkpt lat="44.884445673883164" lon="4.323274563289259"><ele>929.0</ele><time>2026-04-06T12:45:32Z</time></trkpt><trkpt lat="44.88435960447006" lon="4.323258877772992"><ele>929.0000000000001</ele><time>2026-04-06T12:45:34Z</time></trkpt><trkpt lat="44.88429685470089" lon="4.32327597588902"><ele>929.0</ele><time>2026-04-06T12:45:36Z</time></trkpt><trkpt lat="44.884235660553784" lon="4.323325146863145"><ele>929.0</ele><time>2026-04-06T12:45:39Z</time></trkpt><trkpt lat="44.88414336977219" lon="4.32330468485308"><ele>929.0</ele><time>2026-04-06T12:45:42Z</time></trkpt><trkpt lat="44.88407689998285" lon="4.3233026489665765"><ele>929.0000000000001</ele><time>2026-04-06T12:45:44Z</time></trkpt><trkpt lat="44.8839905937229" lon="4.323273042730914"><ele>929.0</ele><time>2026-04-06T12:45:46Z</time></trkpt><trkpt lat="44.88391011303826" lon="4.323298358857826"><ele>925.6666666666667</ele><time>2026-04-06T12:45:48Z</time></trkpt><trkpt lat="44.883835584889646" lon="4.323299995428534"><ele>922.3333333333334</ele><time>2026-04-06T12:45:53Z</time></trkpt><trkpt lat="44.88373870971916" lon="4.323281783042171"><ele>919.0</ele><time>2026-04-06T12:45:56Z</time></trkpt><trkpt lat="44.88365299300762" lon="4.323296015091533"><ele>915.6666666666667</ele><time>2026-04-06T12:45:59Z</time></trkpt><trkpt lat="44.88354611373174" lon="4.323330803451902"><ele>912.3333333333334</ele><time>2026-04-06T12:46:02Z</time></trkpt><trkpt lat="44.88347582849048" lon="4.323275360832271"><ele>909.0</ele><time>2026-04-06T12:46:03Z</time></trkpt><trkpt lat="44.882978524377" lon="4.3232746020661335"><ele>906.6666666666666</ele><time>2026-04-06T12:46:04Z</time></trkpt><trkpt lat="44.88288539711132" lon="4.323368299742333"><ele>904.3333333333333</ele><time>2026-04-06T12:46:06Z</time></trkpt><trkpt lat="44.88278655837456" lon="4.323399733245316"><ele>902.0</ele><time>2026-04-06T12:46:08Z</time></trkpt><trkpt lat="44.88269389427751" lon="4.323438728968676"><ele>899.6666666666666</ele><time>2026-04-06T12:46:10Z</time></trkpt><trkpt lat="44.882684492478525" lon="4.3235294256679495"><ele>897.3333333333333</ele><time>2026-04-06T12:46:11Z</time></trkpt><trkpt lat="44.88266014403504" lon="4.3236203604653625"><ele>895.0</ele><time>2026-04-06T12:46:12Z</time></trkpt><trkpt lat="44.88256362384212" lon="4.3236958033603345"><ele>894.9999999999999</ele><time>2026-04-06T12:46:14Z</time></trkpt><trkpt lat="44.88247090339577" lon="4.323787828873607"><ele>895.0</ele><time>2026-04-06T12:46:16Z</time></trkpt><trkpt lat="44.88242316846335" lon="4.323867448312145"><ele>895.0</ele><time>2026-04-06T12:48:01Z</time></trkpt><trkpt lat="44.882422499700056" lon="4.323978253523425"><ele>895.0</ele><time>2026-04-06T12:49:08Z</time></trkpt><trkpt lat="44.882367041030975" lon="4.324055123854973"><ele>894.9999999999999</ele><time>2026-04-06T12:49:20Z</time></trkpt><trkpt lat="44.88229456005678" lon="4.324073137406223"><ele>895.0</ele><time>2026-04-06T12:49:25Z</time></trkpt><trkpt lat="44.882281702311666" lon="4.32421763168693"><ele>891.6666666666666</ele><time>2026-04-06T12:49:29Z</time></trkpt><trkpt lat="44.882237175611586" lon="4.32428864478095"><ele>888.3333333333333</ele><time>2026-04-06T12:49:32Z</time></trkpt><trkpt lat="44.8822363583487" lon="4.324400788775807"><ele>885.0</ele><time>2026-04-06T12:49:34Z</time></trkpt><trkpt lat="44.88219003323663" lon="4.32447288983599"><ele>881.6666666666667</ele><time>2026-04-06T12:49:36Z</time></trkpt><trkpt lat="44.882112856068446" lon="4.324553515991056"><ele>878.3333333333334</ele><time>2026-04-06T12:49:39Z</time></trkpt><trkpt lat="44.882050786469875" lon="4.324628716432287"><ele>875.0</ele><time>2026-04-06T12:49:43Z</time></trkpt><trkpt lat="44.881980342181414" lon="4.324654605612905"><ele>875.0000000000001</ele><time>2026-04-06T12:49:46Z</time></trkpt><trkpt lat="44.88191321695225" lon="4.324640685741476"><ele>875.0</ele><time>2026-04-06T12:49:49Z</time></trkpt><trkpt lat="44.881834587844025" lon="4.324575809482085"><ele>875.0</ele><time>2026-04-06T12:49:52Z</time></trkpt><trkpt lat="44.881763343137735" lon="4.324526789623453"><ele>875.0</ele><time>2026-04-06T12:49:55Z</time></trkpt><trkpt lat="44.88172346157666" lon="4.32442312528085"><ele>875.0000000000001</ele><time>2026-04-06T12:49:57Z</time></trkpt><trkpt lat="44.88164201359394" lon="4.324417226092162"><ele>875.0</ele><time>2026-04-06T12:49:59Z</time></trkpt><trkpt lat="44.88155784097778" lon="4.324375938211151"><ele>875.1428571428571</ele><time>2026-04-06T12:50:01Z</time></trkpt><trkpt lat="44.88149723179194" lon="4.324345193399431"><ele>875.2857142857142</ele><time>2026-04-06T12:50:03Z</time></trkpt><trkpt lat="44.88143203014045" lon="4.324333178957209"><ele>875.4285714285714</ele><time>2026-04-06T12:50:05Z</time></trkpt><trkpt lat="44.88135412594647" lon="4.324301418592785"><ele>875.5714285714286</ele><time>2026-04-06T12:50:08Z</time></trkpt><trkpt lat="44.881268228907494" lon="4.324317366284415"><ele>875.7142857142857</ele><time>2026-04-06T12:50:11Z</time></trkpt><trkpt lat="44.88123425067408" lon="4.3244182712672075"><ele>875.8571428571429</ele><time>2026-04-06T12:50:14Z</time></trkpt><trkpt lat="44.88121059987886" lon="4.324503599522127"><ele>876.0</ele><time>2026-04-06T12:50:17Z</time></trkpt><trkpt lat="44.8811391225697" lon="4.324621086669501"><ele>876.0</ele><time>2026-04-06T12:50:20Z</time></trkpt><trkpt lat="44.881070683386184" lon="4.324660523023151"><ele>876.0</ele><time>2026-04-06T12:50:23Z</time></trkpt><trkpt lat="44.88100910351553" lon="4.324722921934626"><ele>876.0</ele><time>2026-04-06T12:50:27Z</time></trkpt><trkpt lat="44.88100092543835" lon="4.3248751721442495"><ele>876.0</ele><time>2026-04-06T12:50:30Z</time></trkpt><trkpt lat="44.880930063214464" lon="4.324950223386636"><ele>876.0</ele><time>2026-04-06T12:50:32Z</time></trkpt><trkpt lat="44.88087474510741" lon="4.324993285655278"><ele>876.0</ele><time>2026-04-06T12:50:34Z</time></trkpt><trkpt lat="44.88081467279376" lon="4.325099609872479"><ele>872.5</ele><time>2026-04-06T12:50:36Z</time></trkpt><trkpt lat="44.88073302731793" lon="4.325073195805284"><ele>869.0</ele><time>2026-04-06T12:50:38Z</time></trkpt><trkpt lat="44.88067575080057" lon="4.325111599279964"><ele>865.5</ele><time>2026-04-06T12:50:40Z</time></trkpt><trkpt lat="44.88062460818699" lon="4.3252176672762745"><ele>862.0</ele><time>2026-04-06T12:50:42Z</time></trkpt><trkpt lat="44.88063557040085" lon="4.325327301507936"><ele>858.5</ele><time>2026-04-06T12:50:44Z</time></trkpt><trkpt lat="44.88061241822161" lon="4.325437451206244"><ele>855.0</ele><time>2026-04-06T12:50:46Z</time></trkpt><trkpt lat="44.880567073014866" lon="4.325500737172147"><ele>852.5</ele><time>2026-04-06T12:50:48Z</time></trkpt><trkpt lat="44.880554783468654" lon="4.3256195447400225"><ele>850.0</ele><time>2026-04-06T12:50:50Z</time></trkpt><trkpt lat="44.880485341003705" lon="4.325713428100066"><ele>847.5</ele><time>2026-04-06T12:50:52Z</time></trkpt><trkpt lat="44.88043026555027" lon="4.325783545031104"><ele>845.0</ele><time>2026-04-06T12:50:54Z</time></trkpt><trkpt lat="44.88036316123723" lon="4.3258660847148445"><ele>842.5</ele><time>2026-04-06T12:50:56Z</time></trkpt><trkpt lat="44.880357781833354" lon="4.325984416864263"><ele>840.0</ele><time>2026-04-06T12:50:58Z</time></trkpt><trkpt lat="44.8802983334359" lon="4.3260376268879295"><ele>840.0</ele><time>2026-04-06T12:51:00Z</time></trkpt><trkpt lat="44.88023627347368" lon="4.326189761201326"><ele>840.0</ele><time>2026-04-06T12:51:02Z</time></trkpt><trkpt lat="44.880197330792434" lon="4.326273331827536"><ele>840.0</ele><time>2026-04-06T12:51:03Z</time></trkpt><trkpt lat="44.88014708360454" lon="4.326345725761833"><ele>840.0</ele><time>2026-04-06T12:51:04Z</time></trkpt><trkpt lat="44.880049386649596" lon="4.326366299359008"><ele>840.0</ele><time>2026-04-06T12:51:06Z</time></trkpt><trkpt lat="44.87993555094803" lon="4.3263744216624564"><ele>840.2</ele><time>2026-04-06T12:51:08Z</time></trkpt><trkpt lat="44.87984313512012" lon="4.326439461500973"><ele>840.4</ele><time>2026-04-06T12:51:10Z</time></trkpt><trkpt lat="44.879775168167704" lon="4.326588596829829"><ele>840.5999999999999</ele><time>2026-04-06T12:51:12Z</time></trkpt><trkpt lat="44.879794904319866" lon="4.326680239419309"><ele>840.8</ele><time>2026-04-06T12:51:13Z</time></trkpt><trkpt lat="44.87973077129021" lon="4.326772946864804"><ele>841.0</ele><time>2026-04-06T12:51:15Z</time></trkpt><trkpt lat="44.87970046757812" lon="4.326865989642576"><ele>840.9999999999999</ele><time>2026-04-06T12:51:18Z</time></trkpt><trkpt lat="44.87967182138564" lon="4.326981689891657"><ele>841.0</ele><time>2026-04-06T12:51:20Z</time></trkpt><trkpt lat="44.879629636357066" lon="4.3270581624381625"><ele>841.0</ele><time>2026-04-06T12:51:22Z</time></trkpt><trkpt lat="44.87956696551487" lon="4.327159362922369"><ele>841.0</ele><time>2026-04-06T12:51:24Z</time></trkpt><trkpt lat="44.87949074196035" lon="4.327193551258009"><ele>840.9999999999999</ele><time>2026-04-06T12:51:26Z</time></trkpt><trkpt lat="44.879421681526" lon="4.327250698309763"><ele>841.0</ele><time>2026-04-06T12:51:30Z</time></trkpt><trkpt lat="44.8793414529654" lon="4.327270677419073"><ele>838.1428571428572</ele><time>2026-04-06T12:51:32Z</time></trkpt><trkpt lat="44.87927704524585" lon="4.327280538957421"><ele>835.2857142857142</ele><time>2026-04-06T12:51:34Z</time></trkpt><trkpt lat="44.87920860078932" lon="4.327276805185441"><ele>832.4285714285714</ele><time>2026-04-06T12:51:38Z</time></trkpt><trkpt lat="44.87913679210053" lon="4.3273122776177395"><ele>829.5714285714287</ele><time>2026-04-06T12:51:39Z</time></trkpt><trkpt lat="44.87905398527846" lon="4.327370176547707"><ele>826.7142857142858</ele><time>2026-04-06T12:51:40Z</time></trkpt><trkpt lat="44.87898998944343" lon="4.327407836679725"><ele>823.8571428571429</ele><time>2026-04-06T12:51:41Z</time></trkpt><trkpt lat="44.878931442607445" lon="4.327479952802742"><ele>821.0</ele><time>2026-04-06T12:51:42Z</time></trkpt><trkpt lat="44.878871135911474" lon="4.327558525307131"><ele>821.0</ele><time>2026-04-06T12:51:46Z</time></trkpt><trkpt lat="44.878810605179936" lon="4.327636256626516"><ele>821.0</ele><time>2026-04-06T12:51:48Z</time></trkpt><trkpt lat="44.87872456897299" lon="4.327672258418264"><ele>821.0</ele><time>2026-04-06T12:51:51Z</time></trkpt><trkpt lat="44.878650951789815" lon="4.32769739215962"><ele>821.0</ele><time>2026-04-06T12:51:53Z</time></trkpt><trkpt lat="44.87853395319346" lon="4.327672684664028"><ele>821.0</ele><time>2026-04-06T12:51:56Z</time></trkpt><trkpt lat="44.87843913557546" lon="4.327672902700178"><ele>820.4285714285714</ele><time>2026-04-06T12:51:58Z</time></trkpt><trkpt lat="44.87836737137737" lon="4.327653196493732"><ele>819.8571428571429</ele><time>2026-04-06T12:52:00Z</time></trkpt><trkpt lat="44.87829522612329" lon="4.327637704480628"><ele>819.2857142857142</ele><time>2026-04-06T12:52:02Z</time></trkpt><trkpt lat="44.87823349667954" lon="4.327613954176193"><ele>818.7142857142858</ele><time>2026-04-06T12:52:07Z</time></trkpt><trkpt lat="44.87815957777642" lon="4.327608068589148"><ele>818.1428571428571</ele><time>2026-04-06T12:52:10Z</time></trkpt><trkpt lat="44.87809234738007" lon="4.3276093801055815"><ele>817.5714285714286</ele><time>2026-04-06T12:52:15Z</time></trkpt><trkpt lat="44.87802222834058" lon="4.3276279590436095"><ele>817.0</ele><time>2026-04-06T12:52:19Z</time></trkpt><trkpt lat="44.877942952527526" lon="4.327673162500074"><ele>816.9999999999999</ele><time>2026-04-06T12:52:22Z</time></trkpt><trkpt lat="44.87787574106698" lon="4.327696532831158"><ele>817.0</ele><time>2026-04-06T12:52:26Z</time></trkpt><trkpt lat="44.87780181121695" lon="4.327739434244195"><ele>817.0</ele><time>2026-04-06T12:52:31Z</time></trkpt><trkpt lat="44.87771134311319" lon="4.327725901403866"><ele>817.0</ele><time>2026-04-06T12:52:35Z</time></trkpt><trkpt lat="44.87764451126501" lon="4.327781535596711"><ele>816.9999999999999</ele><time>2026-04-06T12:52:39Z</time></trkpt><trkpt lat="44.877647587152474" lon="4.327893791098732"><ele>817.0</ele><time>2026-04-06T12:52:42Z</time></trkpt><trkpt lat="44.877668594269196" lon="4.328038008065572"><ele>813.6666666666666</ele><time>2026-04-06T12:52:44Z</time></trkpt><trkpt lat="44.877716106615" lon="4.328111402524072"><ele>810.3333333333333</ele><time>2026-04-06T12:52:47Z</time></trkpt><trkpt lat="44.87778537766755" lon="4.328228083996409"><ele>807.0</ele><time>2026-04-06T12:52:50Z</time></trkpt><trkpt lat="44.87781411606372" lon="4.328326124564644"><ele>803.6666666666667</ele><time>2026-04-06T12:52:53Z</time></trkpt><trkpt lat="44.87784251673096" lon="4.328417847013267"><ele>800.3333333333334</ele><time>2026-04-06T12:52:55Z</time></trkpt><trkpt lat="44.877838972238386" lon="4.328516042218648"><ele>797.0</ele><time>2026-04-06T12:52:57Z</time></trkpt><trkpt lat="44.877814152240916" lon="4.328616829363457"><ele>797.0000000000001</ele><time>2026-04-06T12:53:00Z</time></trkpt><trkpt lat="44.87786376325462" lon="4.328737475142076"><ele>797.0</ele><time>2026-04-06T12:53:03Z</time></trkpt><trkpt lat="44.87791886366914" lon="4.328805260528632"><ele>797.0</ele><time>2026-04-06T12:53:05Z</time></trkpt><trkpt lat="44.877892316243084" lon="4.328903869139296"><ele>797.0</ele><time>2026-04-06T12:53:07Z</time></trkpt><trkpt lat="44.877912475761576" lon="4.329022660677981"><ele>797.0000000000001</ele><time>2026-04-06T12:53:09Z</time></trkpt><trkpt lat="44.87795555724591" lon="4.32912433643824"><ele>797.0</ele><time>2026-04-06T12:53:11Z</time></trkpt><trkpt lat="44.87803377989132" lon="4.329273821559473"><ele>797.2</ele><time>2026-04-06T12:53:12Z</time></trkpt><trkpt lat="44.87800876091798" lon="4.329412536563755"><ele>797.4000000000001</ele><time>2026-04-06T12:53:14Z</time></trkpt><trkpt lat="44.878022162066685" lon="4.329566441338955"><ele>797.5999999999999</ele><time>2026-04-06T12:53:16Z</time></trkpt><trkpt lat="44.87806917760975" lon="4.3296477658423305"><ele>797.8</ele><time>2026-04-06T12:53:17Z</time></trkpt><trkpt lat="44.87809366029093" lon="4.329772142243218"><ele>798.0</ele><time>2026-04-06T12:53:18Z</time></trkpt><trkpt lat="44.87813082279936" lon="4.329863428266168"><ele>798.0</ele><time>2026-04-06T12:53:19Z</time></trkpt><trkpt lat="44.87811058476341" lon="4.330071372245252"><ele>798.0</ele><time>2026-04-06T12:53:20Z</time></trkpt><trkpt lat="44.878157501243436" lon="4.330161632558943"><ele>798.0</ele><time>2026-04-06T12:53:22Z</time></trkpt><trkpt lat="44.87817252406534" lon="4.330281743273458"><ele>798.0</ele><time>2026-04-06T12:53:39Z</time></trkpt><trkpt lat="44.87818469286925" lon="4.330391258226681"><ele>798.0</ele><time>2026-04-06T12:53:40Z</time></trkpt><trkpt lat="44.8781989861228" lon="4.330552090821161"><ele>798.3333333333334</ele><time>2026-04-06T12:53:42Z</time></trkpt><trkpt lat="44.87819770508155" lon="4.330644799832976"><ele>798.6666666666667</ele><time>2026-04-06T12:53:43Z</time></trkpt><trkpt lat="44.87821666529428" lon="4.3307984215414335"><ele>799.0</ele><time>2026-04-06T12:53:45Z</time></trkpt><trkpt lat="44.87823603467512" lon="4.330892158126831"><ele>799.3333333333334</ele><time>2026-04-06T12:53:47Z</time></trkpt><trkpt lat="44.87816574714596" lon="4.330946290384775"><ele>799.6666666666667</ele><time>2026-04-06T12:53:50Z</time></trkpt><trkpt lat="44.878090076054924" lon="4.330968178888286"><ele>800.0</ele><time>2026-04-06T12:53:52Z</time></trkpt><trkpt lat="44.87799704174463" lon="4.330947392049139"><ele>800.0000000000001</ele><time>2026-04-06T12:53:54Z</time></trkpt><trkpt lat="44.87793299816832" lon="4.330902733721143"><ele>800.0</ele><time>2026-04-06T12:53:55Z</time></trkpt><trkpt lat="44.87786918543996" lon="4.330876904908695"><ele>800.0</ele><time>2026-04-06T12:53:56Z</time></trkpt><trkpt lat="44.87777576612601" lon="4.3308525190382126"><ele>800.0</ele><time>2026-04-06T12:53:57Z</time></trkpt><trkpt lat="44.87768066074317" lon="4.330830943604253"><ele>800.0000000000001</ele><time>2026-04-06T12:53:58Z</time></trkpt><trkpt lat="44.877587412798356" lon="4.330799566068052"><ele>800.0</ele><time>2026-04-06T12:53:59Z</time></trkpt><trkpt lat="44.87749268271455" lon="4.330778698454543"><ele>800.0000000000001</ele><time>2026-04-06T12:54:00Z</time></trkpt><trkpt lat="44.87741106366621" lon="4.330784361292366"><ele>800.0</ele><time>2026-04-06T12:54:01Z</time></trkpt><trkpt lat="44.87733779437963" lon="4.3308001948294805"><ele>800.0</ele><time>2026-04-06T12:54:02Z</time></trkpt><trkpt lat="44.87726947679376" lon="4.330816989937769"><ele>800.0</ele><time>2026-04-06T12:54:03Z</time></trkpt><trkpt lat="44.87720320395569" lon="4.330847531219819"><ele>800.0000000000001</ele><time>2026-04-06T12:54:04Z</time></trkpt><trkpt lat="44.87707680887559" lon="4.330845202205218"><ele>800.0</ele><time>2026-04-06T12:54:06Z</time></trkpt><trkpt lat="44.877009162319645" lon="4.330828940783661"><ele>800.0</ele><time>2026-04-06T12:54:07Z</time></trkpt><trkpt lat="44.876937515793884" lon="4.330764376825159"><ele>800.0</ele><time>2026-04-06T12:54:08Z</time></trkpt><trkpt lat="44.87686775963341" lon="4.33073103789403"><ele>800.0</ele><time>2026-04-06T12:54:09Z</time></trkpt><trkpt lat="44.87680347955044" lon="4.330700315197661"><ele>800.0</ele><time>2026-04-06T12:54:10Z</time></trkpt><trkpt lat="44.87671196670141" lon="4.330620115817873"><ele>800.0</ele><time>2026-04-06T12:54:12Z</time></trkpt><trkpt lat="44.87654607588861" lon="4.330748501216004"><ele>800.1666666666667</ele><time>2026-04-06T12:54:14Z</time></trkpt><trkpt lat="44.87642941395125" lon="4.330794296508132"><ele>800.3333333333334</ele><time>2026-04-06T12:54:16Z</time></trkpt><trkpt lat="44.876368434358426" lon="4.330850536808505"><ele>800.5</ele><time>2026-04-06T12:54:17Z</time></trkpt><trkpt lat="44.87630370367675" lon="4.330894150792034"><ele>800.6666666666667</ele><time>2026-04-06T12:54:18Z</time></trkpt><trkpt lat="44.87623366514299" lon="4.330976566712256"><ele>800.8333333333334</ele><time>2026-04-06T12:54:19Z</time></trkpt><trkpt lat="44.876224192286536" lon="4.331075729501672"><ele>801.0</ele><time>2026-04-06T12:54:20Z</time></trkpt><trkpt lat="44.8761768335487" lon="4.3311598849518695"><ele>801.0</ele><time>2026-04-06T12:54:21Z</time></trkpt><trkpt lat="44.87607494361271" lon="4.331172422196419"><ele>801.0</ele><time>2026-04-06T12:54:22Z</time></trkpt><trkpt lat="44.8760091598955" lon="4.331241280622662"><ele>801.0</ele><time>2026-04-06T12:54:23Z</time></trkpt><trkpt lat="44.87595240547435" lon="4.331308352000488"><ele>801.0</ele><time>2026-04-06T12:54:24Z</time></trkpt><trkpt lat="44.87587961512753" lon="4.331395932296432"><ele>801.0</ele><time>2026-04-06T12:54:26Z</time></trkpt><trkpt lat="44.87592604208974" lon="4.331504261413289"><ele>801.0</ele><time>2026-04-06T12:54:29Z</time></trkpt><trkpt lat="44.87595639490362" lon="4.3316264332242325"><ele>797.5999999999999</ele><time>2026-04-06T12:54:30Z</time></trkpt><trkpt lat="44.87597780882438" lon="4.33178919995089"><ele>794.2</ele><time>2026-04-06T12:54:31Z</time></trkpt><trkpt lat="44.87598771352623" lon="4.331900778083561"><ele>790.8</ele><time>2026-04-06T12:54:32Z</time></trkpt><trkpt lat="44.87599472850226" lon="4.332024934956926"><ele>787.4000000000001</ele><time>2026-04-06T12:54:33Z</time></trkpt><trkpt lat="44.87599216111605" lon="4.332139884329058"><ele>784.0</ele><time>2026-04-06T12:54:34Z</time></trkpt><trkpt lat="44.87595522195178" lon="4.332304842023804"><ele>790.75</ele><time>2026-04-06T12:54:35Z</time></trkpt><trkpt lat="44.87586362650523" lon="4.332449329042731"><ele>797.5</ele><time>2026-04-06T12:54:37Z</time></trkpt><trkpt lat="44.87579831227367" lon="4.332597907117012"><ele>804.25</ele><time>2026-04-06T12:54:39Z</time></trkpt><trkpt lat="44.87570984998806" lon="4.332805171444961"><ele>811.0</ele><time>2026-04-06T12:54:40Z</time></trkpt><trkpt lat="44.875648209918765" lon="4.3329999206950225"><ele>810.0</ele><time>2026-04-06T12:54:41Z</time></trkpt><trkpt lat="44.87562370840092" lon="4.333226614663347"><ele>809.0</ele><time>2026-04-06T12:54:42Z</time></trkpt><trkpt lat="44.87562180907715" lon="4.333431598954267"><ele>808.0</ele><time>2026-04-06T12:54:43Z</time></trkpt><trkpt lat="44.87561139123036" lon="4.333598635667456"><ele>807.0</ele><time>2026-04-06T12:54:44Z</time></trkpt><trkpt lat="44.875594217044636" lon="4.3338106870050375"><ele>805.8</ele><time>2026-04-06T12:54:45Z</time></trkpt><trkpt lat="44.875573615266596" lon="4.333972673535666"><ele>804.6</ele><time>2026-04-06T12:54:46Z</time></trkpt><trkpt lat="44.875537636333874" lon="4.334110236034185"><ele>803.4</ele><time>2026-04-06T12:54:47Z</time></trkpt><trkpt lat="44.87551293970829" lon="4.334229581373804"><ele>802.1999999999999</ele><time>2026-04-06T12:54:48Z</time></trkpt><trkpt lat="44.87548831861097" lon="4.3343220728946505"><ele>801.0</ele><time>2026-04-06T12:54:49Z</time></trkpt><trkpt lat="44.87545858242923" lon="4.334490546013852"><ele>801.0</ele><time>2026-04-06T12:54:51Z</time></trkpt><trkpt lat="44.87539964583951" lon="4.334716582654596"><ele>801.0</ele><time>2026-04-06T12:54:53Z</time></trkpt><trkpt lat="44.875382309930906" lon="4.334825719629186"><ele>801.0</ele><time>2026-04-06T12:54:54Z</time></trkpt><trkpt lat="44.87540015486926" lon="4.3349116968519805"><ele>801.0</ele><time>2026-04-06T12:54:55Z</time></trkpt><trkpt lat="44.87546933097632" lon="4.334971843843113"><ele>801.0</ele><time>2026-04-06T12:54:56Z</time></trkpt><trkpt lat="44.875509083708735" lon="4.335196676803237"><ele>801.0</ele><time>2026-04-06T12:54:57Z</time></trkpt><trkpt lat="44.87552209519656" lon="4.335399387731888"><ele>801.0</ele><time>2026-04-06T12:54:58Z</time></trkpt><trkpt lat="44.87552639801744" lon="4.33552090996261"><ele>801.0</ele><time>2026-04-06T12:54:59Z</time></trkpt><trkpt lat="44.875529852579675" lon="4.335680638116011"><ele>801.0</ele><time>2026-04-06T12:55:00Z</time></trkpt><trkpt lat="44.875531636132926" lon="4.335805590019993"><ele>801.0</ele><time>2026-04-06T12:55:01Z</time></trkpt><trkpt lat="44.87553192169756" lon="4.33593634876763"><ele>802.5999999999999</ele><time>2026-04-06T12:55:02Z</time></trkpt><trkpt lat="44.87552770823582" lon="4.3360824854923035"><ele>804.2</ele><time>2026-04-06T12:55:03Z</time></trkpt><trkpt lat="44.87553322838344" lon="4.336221528596952"><ele>805.8</ele><time>2026-04-06T12:55:04Z</time></trkpt><trkpt lat="44.875504843590576" lon="4.336339608477633"><ele>807.4000000000001</ele><time>2026-04-06T12:55:05Z</time></trkpt><trkpt lat="44.87549163941921" lon="4.336458667293699"><ele>809.0</ele><time>2026-04-06T12:55:06Z</time></trkpt><trkpt lat="44.8754734737921" lon="4.336574659711284"><ele>809.3333333333334</ele><time>2026-04-06T12:55:07Z</time></trkpt><trkpt lat="44.87544925023336" lon="4.336673299918519"><ele>809.6666666666667</ele><time>2026-04-06T12:55:08Z</time></trkpt><trkpt lat="44.87542502870165" lon="4.33675711467751"><ele>810.0</ele><time>2026-04-06T12:55:09Z</time></trkpt><trkpt lat="44.875379057532584" lon="4.336823210398934"><ele>810.3333333333333</ele><time>2026-04-06T12:55:15Z</time></trkpt><trkpt lat="44.87522707703322" lon="4.336773662644468"><ele>810.6666666666666</ele><time>2026-04-06T12:55:17Z</time></trkpt><trkpt lat="44.875162044028485" lon="4.33670440321227"><ele>811.0</ele><time>2026-04-06T12:55:18Z</time></trkpt><trkpt lat="44.87508862271295" lon="4.33660538429765"><ele>813.4</ele><time>2026-04-06T12:55:19Z</time></trkpt><trkpt lat="44.874993363556825" lon="4.336523947548477"><ele>815.8</ele><time>2026-04-06T12:55:20Z</time></trkpt><trkpt lat="44.87492291812996" lon="4.336451926108826"><ele>818.1999999999999</ele><time>2026-04-06T12:55:21Z</time></trkpt><trkpt lat="44.87485204444813" lon="4.336355310224773"><ele>820.5999999999999</ele><time>2026-04-06T12:55:22Z</time></trkpt><trkpt lat="44.8747601113193" lon="4.33631819289579"><ele>823.0</ele><time>2026-04-06T12:55:23Z</time></trkpt><trkpt lat="44.87468678157772" lon="4.336264522302205"><ele>822.4999999999999</ele><time>2026-04-06T12:55:24Z</time></trkpt><trkpt lat="44.87460465912368" lon="4.3362020728963895"><ele>822.0</ele><time>2026-04-06T12:55:25Z</time></trkpt><trkpt lat="44.874534603642836" lon="4.3361513726292085"><ele>821.5</ele><time>2026-04-06T12:55:26Z</time></trkpt><trkpt lat="44.87445797330153" lon="4.336098672173155"><ele>821.0</ele><time>2026-04-06T12:55:27Z</time></trkpt><trkpt lat="44.87439050098982" lon="4.336008815903979"><ele>820.4999999999999</ele><time>2026-04-06T12:55:28Z</time></trkpt><trkpt lat="44.874316022469785" lon="4.335932826328767"><ele>820.0</ele><time>2026-04-06T12:55:29Z</time></trkpt><trkpt lat="44.87422114101849" lon="4.33585899517087"><ele>820.0</ele><time>2026-04-06T12:55:30Z</time></trkpt><trkpt lat="44.8741633043578" lon="4.335787009938629"><ele>820.0</ele><time>2026-04-06T12:55:31Z</time></trkpt><trkpt lat="44.87408837994108" lon="4.335712457510331"><ele>820.0</ele><time>2026-04-06T12:55:32Z</time></trkpt><trkpt lat="44.87398983736076" lon="4.335611454177782"><ele>820.0</ele><time>2026-04-06T12:55:33Z</time></trkpt><trkpt lat="44.87390391742282" lon="4.335522101808125"><ele>820.0</ele><time>2026-04-06T12:55:34Z</time></trkpt><trkpt lat="44.87376376571519" lon="4.335388405824166"><ele>819.2</ele><time>2026-04-06T12:55:35Z</time></trkpt><trkpt lat="44.87366117059148" lon="4.335299791281405"><ele>818.4</ele><time>2026-04-06T12:55:36Z</time></trkpt><trkpt lat="44.873569246148655" lon="4.335212542390925"><ele>817.5999999999999</ele><time>2026-04-06T12:55:37Z</time></trkpt><trkpt lat="44.8734781598483" lon="4.335087603878926"><ele>816.8</ele><time>2026-04-06T12:55:38Z</time></trkpt><trkpt lat="44.873426109107584" lon="4.335002554688124"><ele>816.0</ele><time>2026-04-06T12:55:39Z</time></trkpt><trkpt lat="44.87337646214855" lon="4.3349283229687545"><ele>816.0</ele><time>2026-04-06T12:55:40Z</time></trkpt><trkpt lat="44.87335454352855" lon="4.334815650822879"><ele>816.0</ele><time>2026-04-06T12:55:42Z</time></trkpt><trkpt lat="44.87331393384504" lon="4.3347434334204"><ele>816.0</ele><time>2026-04-06T12:55:44Z</time></trkpt><trkpt lat="44.873282346856485" lon="4.3346646923829635"><ele>816.0</ele><time>2026-04-06T12:55:47Z</time></trkpt><trkpt lat="44.873258618183556" lon="4.33458198164236"><ele>816.0</ele><time>2026-04-06T12:55:50Z</time></trkpt><trkpt lat="44.87325056998323" lon="4.33447721996051"><ele>816.0</ele><time>2026-04-06T12:56:29Z</time></trkpt><trkpt lat="44.87323236627733" lon="4.334373721484924"><ele>816.0</ele><time>2026-04-06T12:56:32Z</time></trkpt><trkpt lat="44.87321362769381" lon="4.3342875783658155"><ele>820.4</ele><time>2026-04-06T12:56:34Z</time></trkpt><trkpt lat="44.87316354456842" lon="4.334161022879833"><ele>824.8</ele><time>2026-04-06T12:56:36Z</time></trkpt><trkpt lat="44.87313989772155" lon="4.3340346643131005"><ele>829.1999999999999</ele><time>2026-04-06T12:56:37Z</time></trkpt><trkpt lat="44.87309227600622" lon="4.333924570018173"><ele>833.5999999999999</ele><time>2026-04-06T12:56:38Z</time></trkpt><trkpt lat="44.87300085275168" lon="4.333853472125332"><ele>838.0</ele><time>2026-04-06T12:56:39Z</time></trkpt><trkpt lat="44.87298228349471" lon="4.333748266157398"><ele>841.5999999999999</ele><time>2026-04-06T12:56:40Z</time></trkpt><trkpt lat="44.87295711920249" lon="4.33356561639928"><ele>845.1999999999999</ele><time>2026-04-06T12:56:42Z</time></trkpt><trkpt lat="44.87293732884702" lon="4.333448160513133"><ele>848.8</ele><time>2026-04-06T12:56:43Z</time></trkpt><trkpt lat="44.87290671920991" lon="4.333315690190997"><ele>852.4</ele><time>2026-04-06T12:56:44Z</time></trkpt><trkpt lat="44.87287888260045" lon="4.333212618223866"><ele>856.0</ele><time>2026-04-06T12:56:45Z</time></trkpt><trkpt lat="44.872846607982844" lon="4.3331191479951885"><ele>854.0</ele><time>2026-04-06T12:56:46Z</time></trkpt><trkpt lat="44.87280164024931" lon="4.3330432275293065"><ele>852.0</ele><time>2026-04-06T12:56:47Z</time></trkpt><trkpt lat="44.87267950482087" lon="4.332914944197806"><ele>850.0</ele><time>2026-04-06T12:56:49Z</time></trkpt><trkpt lat="44.87257347946003" lon="4.332831536393909"><ele>848.0</ele><time>2026-04-06T12:56:50Z</time></trkpt><trkpt lat="44.87246463067623" lon="4.332745247514243"><ele>848.0</ele><time>2026-04-06T12:56:51Z</time></trkpt><trkpt lat="44.87233896350391" lon="4.33265190637121"><ele>848.0</ele><time>2026-04-06T12:56:52Z</time></trkpt><trkpt lat="44.87223313052485" lon="4.332558388165726"><ele>848.0</ele><time>2026-04-06T12:56:53Z</time></trkpt><trkpt lat="44.87210963037893" lon="4.332444373277718"><ele>848.0</ele><time>2026-04-06T12:56:54Z</time></trkpt><trkpt lat="44.872011108451744" lon="4.332337817010689"><ele>848.0</ele><time>2026-04-06T12:56:55Z</time></trkpt><trkpt lat="44.871927232448805" lon="4.332258328267088"><ele>848.0</ele><time>2026-04-06T12:56:56Z</time></trkpt><trkpt lat="44.871827960309716" lon="4.332191300016693"><ele>848.0</ele><time>2026-04-06T12:56:57Z</time></trkpt><trkpt lat="44.87174399993028" lon="4.332103991867564"><ele>848.0</ele><time>2026-04-06T12:56:58Z</time></trkpt><trkpt lat="44.87168390511187" lon="4.3320099595125985"><ele>848.0</ele><time>2026-04-06T12:56:59Z</time></trkpt><trkpt lat="44.87160647357466" lon="4.33191669502851"><ele>849.0</ele><time>2026-04-06T12:57:00Z</time></trkpt><trkpt lat="44.8715537591146" lon="4.331828596277319"><ele>850.0</ele><time>2026-04-06T12:57:01Z</time></trkpt><trkpt lat="44.87145926585359" lon="4.331729632164996"><ele>851.0</ele><time>2026-04-06T12:57:03Z</time></trkpt><trkpt lat="44.87135591793778" lon="4.331764818277036"><ele>852.0</ele><time>2026-04-06T12:57:04Z</time></trkpt><trkpt lat="44.871233648685816" lon="4.331940776590995"><ele>852.0</ele><time>2026-04-06T12:57:05Z</time></trkpt><trkpt lat="44.87113651676899" lon="4.331984538410865"><ele>852.0</ele><time>2026-04-06T12:57:06Z</time></trkpt><trkpt lat="44.87106229729889" lon="4.332017977923415"><ele>852.0</ele><time>2026-04-06T12:57:07Z</time></trkpt><trkpt lat="44.871120669746105" lon="4.332169065793243"><ele>852.0</ele><time>2026-04-06T12:57:09Z</time></trkpt><trkpt lat="44.87115902590181" lon="4.332243488300335"><ele>852.0</ele><time>2026-04-06T12:57:10Z</time></trkpt><trkpt lat="44.871277884208034" lon="4.332349771007502"><ele>848.2</ele><time>2026-04-06T12:57:11Z</time></trkpt><trkpt lat="44.87133649661821" lon="4.332457856811743"><ele>844.4000000000001</ele><time>2026-04-06T12:57:12Z</time></trkpt><trkpt lat="44.87137067524343" lon="4.332567244111153"><ele>840.5999999999999</ele><time>2026-04-06T12:57:13Z</time></trkpt><trkpt lat="44.87138332681137" lon="4.332686128048998"><ele>836.8</ele><time>2026-04-06T12:57:14Z</time></trkpt><trkpt lat="44.871421447461174" lon="4.3328370911230145"><ele>833.0</ele><time>2026-04-06T12:57:15Z</time></trkpt><trkpt lat="44.87147835739473" lon="4.332999052470867"><ele>831.4</ele><time>2026-04-06T12:57:16Z</time></trkpt><trkpt lat="44.87151573424632" lon="4.333157127481826"><ele>829.8</ele><time>2026-04-06T12:57:17Z</time></trkpt><trkpt lat="44.8715560279477" lon="4.333297495790569"><ele>828.2</ele><time>2026-04-06T12:57:18Z</time></trkpt><trkpt lat="44.8715823154495" lon="4.33341868231931"><ele>826.6</ele><time>2026-04-06T12:57:19Z</time></trkpt><trkpt lat="44.871595778105835" lon="4.333548752019678"><ele>825.0</ele><time>2026-04-06T12:57:20Z</time></trkpt><trkpt lat="44.871588871981004" lon="4.333654008690158"><ele>825.0</ele><time>2026-04-06T12:57:21Z</time></trkpt><trkpt lat="44.87157956016327" lon="4.333759230606737"><ele>825.0</ele><time>2026-04-06T12:57:22Z</time></trkpt><trkpt lat="44.87156010132423" lon="4.333912885677505"><ele>825.0</ele><time>2026-04-06T12:57:23Z</time></trkpt><trkpt lat="44.8715262629311" lon="4.334083649081423"><ele>825.0</ele><time>2026-04-06T12:57:24Z</time></trkpt><trkpt lat="44.87146229583796" lon="4.334272478493228"><ele>825.5</ele><time>2026-04-06T12:57:25Z</time></trkpt><trkpt lat="44.871410994573914" lon="4.334454383728259"><ele>826.0</ele><time>2026-04-06T12:57:26Z</time></trkpt><trkpt lat="44.87138978114487" lon="4.334641518281247"><ele>826.5</ele><time>2026-04-06T12:57:27Z</time></trkpt><trkpt lat="44.871356319343484" lon="4.3347969654909235"><ele>827.0</ele><time>2026-04-06T12:57:28Z</time></trkpt><trkpt lat="44.87133377921248" lon="4.334950780335034"><ele>824.8</ele><time>2026-04-06T12:57:29Z</time></trkpt><trkpt lat="44.87135412634436" lon="4.335126905585139"><ele>822.6</ele><time>2026-04-06T12:57:30Z</time></trkpt><trkpt lat="44.87133096192158" lon="4.33531588283814"><ele>820.4</ele><time>2026-04-06T12:57:31Z</time></trkpt><trkpt lat="44.87129864426586" lon="4.335438401806028"><ele>818.1999999999999</ele><time>2026-04-06T12:57:32Z</time></trkpt><trkpt lat="44.871276149754706" lon="4.335547067539417"><ele>816.0</ele><time>2026-04-06T12:57:33Z</time></trkpt><trkpt lat="44.8712352278984" lon="4.335647850225663"><ele>812.75</ele><time>2026-04-06T12:57:34Z</time></trkpt><trkpt lat="44.87116256978003" lon="4.3357623201222735"><ele>809.5</ele><time>2026-04-06T12:57:36Z</time></trkpt><trkpt lat="44.87109508757124" lon="4.335830381644549"><ele>806.25</ele><time>2026-04-06T12:57:38Z</time></trkpt><trkpt lat="44.87101569765935" lon="4.335847797905275"><ele>803.0</ele><time>2026-04-06T12:57:39Z</time></trkpt><trkpt lat="44.87086279739561" lon="4.33571632665753"><ele>809.5</ele><time>2026-04-06T12:57:40Z</time></trkpt><trkpt lat="44.87076067357259" lon="4.335806743186837"><ele>816.0</ele><time>2026-04-06T12:57:41Z</time></trkpt><trkpt lat="44.870649451160894" lon="4.335951162713385"><ele>822.5</ele><time>2026-04-06T12:57:42Z</time></trkpt><trkpt lat="44.870588871032" lon="4.336074426182657"><ele>829.0</ele><time>2026-04-06T12:57:43Z</time></trkpt><trkpt lat="44.87058915707877" lon="4.336202769029101"><ele>829.0</ele><time>2026-04-06T12:57:44Z</time></trkpt><trkpt lat="44.87057008956363" lon="4.336302275648392"><ele>829.0</ele><time>2026-04-06T12:57:45Z</time></trkpt><trkpt lat="44.870535368701816" lon="4.3364500432976865"><ele>829.0</ele><time>2026-04-06T12:57:46Z</time></trkpt><trkpt lat="44.87046183213622" lon="4.336580733474239"><ele>829.0</ele><time>2026-04-06T12:57:47Z</time></trkpt><trkpt lat="44.870393127557" lon="4.336665310862261"><ele>829.0</ele><time>2026-04-06T12:57:48Z</time></trkpt><trkpt lat="44.87031198876614" lon="4.336724883500608"><ele>829.4000000000001</ele><time>2026-04-06T12:57:49Z</time></trkpt><trkpt lat="44.87024183800251" lon="4.336793420667523"><ele>829.8</ele><time>2026-04-06T12:57:50Z</time></trkpt><trkpt lat="44.87016153076062" lon="4.336861686120854"><ele>830.2</ele><time>2026-04-06T12:57:51Z</time></trkpt><trkpt lat="44.870057441330495" lon="4.336850198552775"><ele>830.5999999999999</ele><time>2026-04-06T12:57:52Z</time></trkpt><trkpt lat="44.869931077664795" lon="4.336923643269052"><ele>831.0</ele><time>2026-04-06T12:57:53Z</time></trkpt><trkpt lat="44.869857909394106" lon="4.337009481340661"><ele>831.0</ele><time>2026-04-06T12:57:54Z</time></trkpt><trkpt lat="44.86977554933762" lon="4.337088135889799"><ele>831.0</ele><time>2026-04-06T12:57:55Z</time></trkpt><trkpt lat="44.86971227688132" lon="4.337153067323764"><ele>831.0</ele><time>2026-04-06T12:57:56Z</time></trkpt><trkpt lat="44.8696525188777" lon="4.337221982096375"><ele>831.0</ele><time>2026-04-06T12:57:57Z</time></trkpt><trkpt lat="44.86958827357223" lon="4.337308881093834"><ele>831.0</ele><time>2026-04-06T12:57:58Z</time></trkpt><trkpt lat="44.869540843406305" lon="4.3374190919116895"><ele>831.0</ele><time>2026-04-06T12:57:59Z</time></trkpt><trkpt lat="44.8694687428219" lon="4.337528766239495"><ele>833.0</ele><time>2026-04-06T12:58:00Z</time></trkpt><trkpt lat="44.869386984398574" lon="4.337597196674884"><ele>835.0</ele><time>2026-04-06T12:58:01Z</time></trkpt><trkpt lat="44.869298821219516" lon="4.337715128509512"><ele>837.0</ele><time>2026-04-06T12:58:03Z</time></trkpt><trkpt lat="44.86925210389915" lon="4.337776904045914"><ele>839.0</ele><time>2026-04-06T12:58:04Z</time></trkpt><trkpt lat="44.869261440687744" lon="4.33789082139397"><ele>841.0</ele><time>2026-04-06T12:58:06Z</time></trkpt><trkpt lat="44.86933552140946" lon="4.337999822459991"><ele>830.3333333333333</ele><time>2026-04-06T12:58:08Z</time></trkpt><trkpt lat="44.8694551096679" lon="4.338248853609238"><ele>819.6666666666667</ele><time>2026-04-06T12:58:09Z</time></trkpt><trkpt lat="44.869524326420716" lon="4.338413419343147"><ele>809.0</ele><time>2026-04-06T12:58:10Z</time></trkpt><trkpt lat="44.86963942490955" lon="4.338644747311086"><ele>809.0</ele><time>2026-04-06T12:58:11Z</time></trkpt><trkpt lat="44.86974337716778" lon="4.338850749384617"><ele>809.0</ele><time>2026-04-06T12:58:12Z</time></trkpt><trkpt lat="44.86980104910935" lon="4.338996116037119"><ele>809.0</ele><time>2026-04-06T12:58:13Z</time></trkpt><trkpt lat="44.869844946788426" lon="4.339177518889698"><ele>809.0</ele><time>2026-04-06T12:58:14Z</time></trkpt><trkpt lat="44.86986541791306" lon="4.339337979366942"><ele>810.75</ele><time>2026-04-06T12:58:15Z</time></trkpt><trkpt lat="44.86989201456645" lon="4.339493266034541"><ele>812.5</ele><time>2026-04-06T12:58:16Z</time></trkpt><trkpt lat="44.86990137708994" lon="4.339602583594931"><ele>814.25</ele><time>2026-04-06T12:58:17Z</time></trkpt><trkpt lat="44.86989180941433" lon="4.339848578507084"><ele>816.0</ele><time>2026-04-06T12:58:19Z</time></trkpt><trkpt lat="44.869879687822824" lon="4.340037928235343"><ele>816.0</ele><time>2026-04-06T12:58:20Z</time></trkpt><trkpt lat="44.86986576079289" lon="4.340184732662693"><ele>816.0</ele><time>2026-04-06T12:58:21Z</time></trkpt><trkpt lat="44.869833236466995" lon="4.340329627389481"><ele>816.0</ele><time>2026-04-06T12:58:22Z</time></trkpt><trkpt lat="44.86977962601298" lon="4.340413338167806"><ele>816.0</ele><time>2026-04-06T12:58:23Z</time></trkpt><trkpt lat="44.869738140915565" lon="4.340510997218588"><ele>816.0</ele><time>2026-04-06T12:58:24Z</time></trkpt><trkpt lat="44.86969349247797" lon="4.3405900634003505"><ele>816.0</ele><time>2026-04-06T12:58:25Z</time></trkpt><trkpt lat="44.869582524039984" lon="4.340565735843697"><ele>816.5999999999999</ele><time>2026-04-06T12:58:26Z</time></trkpt><trkpt lat="44.86950923639757" lon="4.340597680839082"><ele>817.2</ele><time>2026-04-06T12:58:27Z</time></trkpt><trkpt lat="44.869398524989805" lon="4.340591136651013"><ele>817.8</ele><time>2026-04-06T12:58:28Z</time></trkpt><trkpt lat="44.86929823213889" lon="4.340618135834525"><ele>818.4000000000001</ele><time>2026-04-06T12:58:29Z</time></trkpt><trkpt lat="44.869198681006274" lon="4.340642435997544"><ele>819.0</ele><time>2026-04-06T12:58:30Z</time></trkpt><trkpt lat="44.869050970190756" lon="4.34064442731226"><ele>819.0</ele><time>2026-04-06T12:58:31Z</time></trkpt><trkpt lat="44.86895159255061" lon="4.340641788299944"><ele>819.0</ele><time>2026-04-06T12:58:32Z</time></trkpt><trkpt lat="44.86884051240353" lon="4.340640127568624"><ele>819.0</ele><time>2026-04-06T12:58:33Z</time></trkpt><trkpt lat="44.86872866842265" lon="4.340647811503279"><ele>819.0</ele><time>2026-04-06T12:58:34Z</time></trkpt><trkpt lat="44.868635446110886" lon="4.340670621036713"><ele>819.0</ele><time>2026-04-06T12:58:35Z</time></trkpt><trkpt lat="44.86855970133079" lon="4.34071006520088"><ele>819.0</ele><time>2026-04-06T12:58:36Z</time></trkpt><trkpt lat="44.8685070769643" lon="4.340796441924512"><ele>819.0</ele><time>2026-04-06T12:58:37Z</time></trkpt><trkpt lat="44.86854616018473" lon="4.340955570212859"><ele>819.0</ele><time>2026-04-06T12:58:38Z</time></trkpt><trkpt lat="44.86864376804203" lon="4.341034665969021"><ele>819.0</ele><time>2026-04-06T12:58:39Z</time></trkpt><trkpt lat="44.86870925193359" lon="4.3411167051934605"><ele>819.0</ele><time>2026-04-06T12:58:40Z</time></trkpt><trkpt lat="44.86878344223293" lon="4.341207065069688"><ele>819.0</ele><time>2026-04-06T12:58:41Z</time></trkpt><trkpt lat="44.868883158253176" lon="4.341372250063414"><ele>819.0</ele><time>2026-04-06T12:58:42Z</time></trkpt><trkpt lat="44.868993068059005" lon="4.3415002996659515"><ele>819.0</ele><time>2026-04-06T12:58:43Z</time></trkpt><trkpt lat="44.8690890663845" lon="4.341633514330003"><ele>819.0</ele><time>2026-04-06T12:58:44Z</time></trkpt><trkpt lat="44.869198884359946" lon="4.341717493418675"><ele>813.0</ele><time>2026-04-06T12:58:45Z</time></trkpt><trkpt lat="44.869292414608154" lon="4.341800314436163"><ele>807.0</ele><time>2026-04-06T12:58:46Z</time></trkpt><trkpt lat="44.86935954807696" lon="4.341918629843202"><ele>801.0</ele><time>2026-04-06T12:58:47Z</time></trkpt><trkpt lat="44.86944102175792" lon="4.342047933099014"><ele>795.0</ele><time>2026-04-06T12:58:48Z</time></trkpt><trkpt lat="44.86952182656613" lon="4.342174941005908"><ele>797.0</ele><time>2026-04-06T12:58:49Z</time></trkpt><trkpt lat="44.86960348872597" lon="4.34228175422457"><ele>799.0</ele><time>2026-04-06T12:58:50Z</time></trkpt><trkpt lat="44.86968526595208" lon="4.3423947191220185"><ele>801.0</ele><time>2026-04-06T12:58:51Z</time></trkpt><trkpt lat="44.86976996849247" lon="4.3425081310499785"><ele>803.0</ele><time>2026-04-06T12:58:52Z</time></trkpt><trkpt lat="44.86984436153887" lon="4.342621142752451"><ele>803.0</ele><time>2026-04-06T12:58:53Z</time></trkpt><trkpt lat="44.86988321934029" lon="4.342723217849448"><ele>803.0</ele><time>2026-04-06T12:58:54Z</time></trkpt><trkpt lat="44.86990751386148" lon="4.342812961804659"><ele>803.0</ele><time>2026-04-06T12:58:55Z</time></trkpt><trkpt lat="44.869924597015796" lon="4.342932663276192"><ele>803.0</ele><time>2026-04-06T12:58:57Z</time></trkpt><trkpt lat="44.86985489295257" lon="4.342956848776992"><ele>803.0</ele><time>2026-04-06T12:58:59Z</time></trkpt><trkpt lat="44.86970859338257" lon="4.3430191463939"><ele>802.0</ele><time>2026-04-06T12:59:01Z</time></trkpt><trkpt lat="44.86959218644755" lon="4.34311521687625"><ele>801.0</ele><time>2026-04-06T12:59:02Z</time></trkpt><trkpt lat="44.86952412148523" lon="4.343146143940603"><ele>800.0</ele><time>2026-04-06T12:59:03Z</time></trkpt><trkpt lat="44.86943104585733" lon="4.343158117238134"><ele>799.0</ele><time>2026-04-06T12:59:04Z</time></trkpt><trkpt lat="44.86935297226901" lon="4.3431733240293084"><ele>798.0</ele><time>2026-04-06T12:59:05Z</time></trkpt><trkpt lat="44.86924526057957" lon="4.343201388391545"><ele>805.6666666666667</ele><time>2026-04-06T12:59:06Z</time></trkpt><trkpt lat="44.869186733051954" lon="4.343240406364588"><ele>813.3333333333334</ele><time>2026-04-06T12:59:07Z</time></trkpt><trkpt lat="44.869076833583115" lon="4.343439232881427"><ele>821.0</ele><time>2026-04-06T12:59:08Z</time></trkpt><trkpt lat="44.86927261487057" lon="4.343767709652386"><ele>813.5</ele><time>2026-04-06T12:59:09Z</time></trkpt><trkpt lat="44.86934729594629" lon="4.343881146892839"><ele>806.0</ele><time>2026-04-06T12:59:10Z</time></trkpt><trkpt lat="44.869443603634856" lon="4.344054709000466"><ele>798.5</ele><time>2026-04-06T12:59:11Z</time></trkpt><trkpt lat="44.869523103482656" lon="4.344169908818214"><ele>791.0</ele><time>2026-04-06T12:59:12Z</time></trkpt><trkpt lat="44.869612328745944" lon="4.344284028598727"><ele>791.0</ele><time>2026-04-06T12:59:13Z</time></trkpt><trkpt lat="44.8697434943036" lon="4.3444316552836915"><ele>791.0</ele><time>2026-04-06T12:59:14Z</time></trkpt><trkpt lat="44.86981274954094" lon="4.344575215843894"><ele>791.0</ele><time>2026-04-06T12:59:15Z</time></trkpt><trkpt lat="44.86985158252397" lon="4.344715883564739"><ele>791.0</ele><time>2026-04-06T12:59:16Z</time></trkpt><trkpt lat="44.86986865640665" lon="4.344824684733789"><ele>793.1999999999999</ele><time>2026-04-06T12:59:17Z</time></trkpt><trkpt lat="44.869915702553314" lon="4.344932479191623"><ele>795.4</ele><time>2026-04-06T12:59:18Z</time></trkpt><trkpt lat="44.86994786808845" lon="4.345047539233179"><ele>797.6</ele><time>2026-04-06T12:59:19Z</time></trkpt><trkpt lat="44.8699827479063" lon="4.345171982368628"><ele>799.8</ele><time>2026-04-06T12:59:20Z</time></trkpt><trkpt lat="44.87002766961781" lon="4.34530027579152"><ele>802.0</ele><time>2026-04-06T12:59:21Z</time></trkpt><trkpt lat="44.87007534363516" lon="4.345461349585082"><ele>803.75</ele><time>2026-04-06T12:59:22Z</time></trkpt><trkpt lat="44.87010723913994" lon="4.345612039011823"><ele>805.5</ele><time>2026-04-06T12:59:23Z</time></trkpt><trkpt lat="44.87014763834867" lon="4.345788545081792"><ele>807.25</ele><time>2026-04-06T12:59:24Z</time></trkpt><trkpt lat="44.870151097784905" lon="4.34595215594233"><ele>809.0</ele><time>2026-04-06T12:59:25Z</time></trkpt><trkpt lat="44.87018032242856" lon="4.346112650302263"><ele>803.2</ele><time>2026-04-06T12:59:26Z</time></trkpt><trkpt lat="44.870216403782145" lon="4.346234976165242"><ele>797.4000000000001</ele><time>2026-04-06T12:59:27Z</time></trkpt><trkpt lat="44.87027519785265" lon="4.346378049836307"><ele>791.6</ele><time>2026-04-06T12:59:28Z</time></trkpt><trkpt lat="44.870322337996775" lon="4.346504033495128"><ele>785.8</ele><time>2026-04-06T12:59:29Z</time></trkpt><trkpt lat="44.87037976177921" lon="4.346656299410676"><ele>780.0</ele><time>2026-04-06T12:59:30Z</time></trkpt><trkpt lat="44.87043310435295" lon="4.346802186695206"><ele>780.0</ele><time>2026-04-06T12:59:31Z</time></trkpt><trkpt lat="44.870483435300486" lon="4.346924166589184"><ele>780.0</ele><time>2026-04-06T12:59:32Z</time></trkpt><trkpt lat="44.87057862217265" lon="4.347006000468013"><ele>780.0</ele><time>2026-04-06T12:59:33Z</time></trkpt><trkpt lat="44.870727019043315" lon="4.347118603963001"><ele>780.0</ele><time>2026-04-06T12:59:35Z</time></trkpt><trkpt lat="44.87084129436259" lon="4.347115742768943"><ele>781.75</ele><time>2026-04-06T12:59:36Z</time></trkpt><trkpt lat="44.87097341270752" lon="4.347152116809931"><ele>783.5</ele><time>2026-04-06T12:59:37Z</time></trkpt><trkpt lat="44.8711003344837" lon="4.347172248618099"><ele>785.25</ele><time>2026-04-06T12:59:38Z</time></trkpt><trkpt lat="44.87124436894051" lon="4.347187756374874"><ele>787.0</ele><time>2026-04-06T12:59:39Z</time></trkpt><trkpt lat="44.871404560209506" lon="4.347249772968368"><ele>787.0</ele><time>2026-04-06T12:59:40Z</time></trkpt><trkpt lat="44.87160179049956" lon="4.347305530769938"><ele>787.0</ele><time>2026-04-06T12:59:41Z</time></trkpt><trkpt lat="44.87172782331563" lon="4.347362538386922"><ele>787.0</ele><time>2026-04-06T12:59:42Z</time></trkpt><trkpt lat="44.871854604011965" lon="4.347464485713028"><ele>783.5</ele><time>2026-04-06T12:59:43Z</time></trkpt><trkpt lat="44.87194631494019" lon="4.34757906003493"><ele>780.0</ele><time>2026-04-06T12:59:44Z</time></trkpt><trkpt lat="44.872015972714955" lon="4.34770899903993"><ele>776.5</ele><time>2026-04-06T12:59:45Z</time></trkpt><trkpt lat="44.87209521938232" lon="4.347898436036002"><ele>773.0</ele><time>2026-04-06T12:59:46Z</time></trkpt><trkpt lat="44.87218629494228" lon="4.348050866300359"><ele>773.0</ele><time>2026-04-06T12:59:47Z</time></trkpt><trkpt lat="44.87228680700465" lon="4.348184868488704"><ele>773.0</ele><time>2026-04-06T12:59:48Z</time></trkpt><trkpt lat="44.87238385101923" lon="4.3482666419805724"><ele>773.0</ele><time>2026-04-06T12:59:49Z</time></trkpt><trkpt lat="44.87245258125392" lon="4.348388556310129"><ele>773.0</ele><time>2026-04-06T12:59:50Z</time></trkpt><trkpt lat="44.872512737489885" lon="4.348509053763205"><ele>773.0</ele><time>2026-04-06T12:59:51Z</time></trkpt><trkpt lat="44.872556278309084" lon="4.348641610453349"><ele>773.0</ele><time>2026-04-06T12:59:52Z</time></trkpt><trkpt lat="44.87257612603975" lon="4.348796986563171"><ele>773.0</ele><time>2026-04-06T12:59:53Z</time></trkpt><trkpt lat="44.872555055687236" lon="4.348907851587323"><ele>773.0</ele><time>2026-04-06T12:59:54Z</time></trkpt><trkpt lat="44.87253316617948" lon="4.3490686856385015"><ele>773.0</ele><time>2026-04-06T12:59:55Z</time></trkpt><trkpt lat="44.87249235154117" lon="4.349242558785644"><ele>773.5000000000001</ele><time>2026-04-06T12:59:56Z</time></trkpt><trkpt lat="44.87245702775642" lon="4.3493567609588135"><ele>774.0</ele><time>2026-04-06T12:59:57Z</time></trkpt><trkpt lat="44.87241250069738" lon="4.349448667976438"><ele>774.5</ele><time>2026-04-06T12:59:58Z</time></trkpt><trkpt lat="44.8723584834179" lon="4.349512592158862"><ele>775.0</ele><time>2026-04-06T12:59:59Z</time></trkpt><trkpt lat="44.87223404109203" lon="4.3494818369339034"><ele>775.5000000000001</ele><time>2026-04-06T13:00:00Z</time></trkpt><trkpt lat="44.87217743876183" lon="4.3495372470208755"><ele>776.0</ele><time>2026-04-06T13:00:01Z</time></trkpt><trkpt lat="44.87212618077365" lon="4.349616412567862"><ele>774.8</ele><time>2026-04-06T13:00:02Z</time></trkpt><trkpt lat="44.87206750536731" lon="4.3497108598066605"><ele>773.5999999999999</ele><time>2026-04-06T13:00:03Z</time></trkpt><trkpt lat="44.87200571070925" lon="4.349829562919617"><ele>772.4</ele><time>2026-04-06T13:00:04Z</time></trkpt><trkpt lat="44.8719486316385" lon="4.349923160337649"><ele>771.2</ele><time>2026-04-06T13:00:05Z</time></trkpt><trkpt lat="44.87187329662669" lon="4.349997163993675"><ele>770.0</ele><time>2026-04-06T13:00:06Z</time></trkpt><trkpt lat="44.87175356915033" lon="4.350095395326632"><ele>771.2</ele><time>2026-04-06T13:00:07Z</time></trkpt><trkpt lat="44.87163797113747" lon="4.350132719366914"><ele>772.4</ele><time>2026-04-06T13:00:08Z</time></trkpt><trkpt lat="44.871533698062464" lon="4.3502206676356705"><ele>773.5999999999999</ele><time>2026-04-06T13:00:09Z</time></trkpt><trkpt lat="44.87148006708085" lon="4.350303747087004"><ele>774.8</ele><time>2026-04-06T13:00:10Z</time></trkpt><trkpt lat="44.87143198087287" lon="4.350428114153981"><ele>776.0</ele><time>2026-04-06T13:00:11Z</time></trkpt><trkpt lat="44.87143770856987" lon="4.350544349688022"><ele>776.0</ele><time>2026-04-06T13:00:12Z</time></trkpt><trkpt lat="44.87140522801339" lon="4.3507588217204605"><ele>776.0</ele><time>2026-04-06T13:00:13Z</time></trkpt><trkpt lat="44.87136466460853" lon="4.350988691046594"><ele>776.0</ele><time>2026-04-06T13:00:14Z</time></trkpt><trkpt lat="44.871347685355396" lon="4.351131634441734"><ele>776.0</ele><time>2026-04-06T13:00:15Z</time></trkpt><trkpt lat="44.871341976626695" lon="4.351264215437681"><ele>776.0000000000001</ele><time>2026-04-06T13:00:16Z</time></trkpt><trkpt lat="44.8713100966382" lon="4.351354573630824"><ele>776.0</ele><time>2026-04-06T13:00:17Z</time></trkpt><trkpt lat="44.87125678381112" lon="4.351498417848378"><ele>776.0</ele><time>2026-04-06T13:00:19Z</time></trkpt><trkpt lat="44.871208964925025" lon="4.351435651307759"><ele>776.0</ele><time>2026-04-06T13:01:06Z</time></trkpt><trkpt lat="44.87117315961838" lon="4.35130853573755"><ele>776.0000000000001</ele><time>2026-04-06T13:01:08Z</time></trkpt><trkpt lat="44.87111396031001" lon="4.351218977106466"><ele>776.0</ele><time>2026-04-06T13:01:11Z</time></trkpt><trkpt lat="44.871007814151916" lon="4.351081407709014"><ele>776.0000000000001</ele><time>2026-04-06T13:01:13Z</time></trkpt><trkpt lat="44.87095352432306" lon="4.35097607567619"><ele>776.0</ele><time>2026-04-06T13:01:15Z</time></trkpt><trkpt lat="44.87093300615601" lon="4.35085625173412"><ele>776.0</ele><time>2026-04-06T13:01:19Z</time></trkpt><trkpt lat="44.87093655185667" lon="4.350748727655983"><ele>776.0</ele><time>2026-04-06T13:01:20Z</time></trkpt><trkpt lat="44.87091701703076" lon="4.350655860466118"><ele>776.0000000000001</ele><time>2026-04-06T13:01:21Z</time></trkpt><trkpt lat="44.870896098979465" lon="4.350544320027369"><ele>776.0</ele><time>2026-04-06T13:01:23Z</time></trkpt><trkpt lat="44.870894731409486" lon="4.350450065719347"><ele>780.1666666666667</ele><time>2026-04-06T13:01:25Z</time></trkpt><trkpt lat="44.87092054985927" lon="4.3503098650938155"><ele>784.3333333333334</ele><time>2026-04-06T13:01:28Z</time></trkpt><trkpt lat="44.87091868893803" lon="4.350183393279328"><ele>788.5</ele><time>2026-04-06T13:01:30Z</time></trkpt><trkpt lat="44.870906457393126" lon="4.350046426312953"><ele>792.6666666666667</ele><time>2026-04-06T13:01:32Z</time></trkpt><trkpt lat="44.870858515337744" lon="4.349950071266404"><ele>796.8333333333334</ele><time>2026-04-06T13:01:35Z</time></trkpt><trkpt lat="44.87087432009058" lon="4.349845433111924"><ele>801.0</ele><time>2026-04-06T13:01:38Z</time></trkpt><trkpt lat="44.87088609895086" lon="4.349734261199313"><ele>801.8333333333334</ele><time>2026-04-06T13:01:40Z</time></trkpt><trkpt lat="44.870940924993036" lon="4.349568584602617"><ele>802.6666666666667</ele><time>2026-04-06T13:01:44Z</time></trkpt><trkpt lat="44.87093175026954" lon="4.349472381701789"><ele>803.5</ele><time>2026-04-06T13:01:46Z</time></trkpt><trkpt lat="44.870924692760894" lon="4.3493689474760115"><ele>804.3333333333334</ele><time>2026-04-06T13:01:49Z</time></trkpt><trkpt lat="44.870920165560364" lon="4.349258206898569"><ele>805.1666666666667</ele><time>2026-04-06T13:01:51Z</time></trkpt><trkpt lat="44.8709047753349" lon="4.349146566752516"><ele>806.0</ele><time>2026-04-06T13:01:53Z</time></trkpt><trkpt lat="44.870873485771725" lon="4.3490045224084675"><ele>807.5999999999999</ele><time>2026-04-06T13:01:54Z</time></trkpt><trkpt lat="44.87084530540992" lon="4.348845214079334"><ele>809.2</ele><time>2026-04-06T13:01:55Z</time></trkpt><trkpt lat="44.87084332731606" lon="4.348699627409917"><ele>810.8</ele><time>2026-04-06T13:01:56Z</time></trkpt><trkpt lat="44.87083622540613" lon="4.34860587818116"><ele>812.4000000000001</ele><time>2026-04-06T13:02:01Z</time></trkpt><trkpt lat="44.870761333986614" lon="4.348536859298694"><ele>814.0</ele><time>2026-04-06T13:02:03Z</time></trkpt><trkpt lat="44.87068585348854" lon="4.348475714554951"><ele>813.9999999999999</ele><time>2026-04-06T13:02:05Z</time></trkpt><trkpt lat="44.87066034516196" lon="4.348374728828796"><ele>814.0</ele><time>2026-04-06T13:02:08Z</time></trkpt><trkpt lat="44.8706463307885" lon="4.348255425392731"><ele>814.0</ele><time>2026-04-06T13:02:11Z</time></trkpt><trkpt lat="44.87059803127178" lon="4.348168979487735"><ele>814.0</ele><time>2026-04-06T13:02:14Z</time></trkpt><trkpt lat="44.87045968778102" lon="4.348144457328775"><ele>813.9999999999999</ele><time>2026-04-06T13:02:15Z</time></trkpt><trkpt lat="44.870487407126156" lon="4.348058271838731"><ele>814.0</ele><time>2026-04-06T13:02:17Z</time></trkpt><trkpt lat="44.87046041732816" lon="4.347961653885939"><ele>810.8000000000001</ele><time>2026-04-06T13:02:18Z</time></trkpt><trkpt lat="44.870425337643304" lon="4.347806917645627"><ele>807.6</ele><time>2026-04-06T13:02:20Z</time></trkpt><trkpt lat="44.870413550931026" lon="4.347711444845634"><ele>804.4</ele><time>2026-04-06T13:02:23Z</time></trkpt><trkpt lat="44.870344695316476" lon="4.347645077589586"><ele>801.2</ele><time>2026-04-06T13:02:25Z</time></trkpt><trkpt lat="44.87026153781326" lon="4.34762928370056"><ele>798.0</ele><time>2026-04-06T13:02:26Z</time></trkpt><trkpt lat="44.87020960802918" lon="4.347448685466647"><ele>800.8</ele><time>2026-04-06T13:02:28Z</time></trkpt><trkpt lat="44.87009572919574" lon="4.3474292131627585"><ele>803.5999999999999</ele><time>2026-04-06T13:02:30Z</time></trkpt><trkpt lat="44.87000923396129" lon="4.347441367699433"><ele>806.4000000000001</ele><time>2026-04-06T13:02:31Z</time></trkpt><trkpt lat="44.869935067446086" lon="4.347442964338206"><ele>809.2</ele><time>2026-04-06T13:02:33Z</time></trkpt><trkpt lat="44.86982418272986" lon="4.347329846968622"><ele>812.0</ele><time>2026-04-06T13:02:35Z</time></trkpt><trkpt lat="44.869795058346305" lon="4.347232299757782"><ele>811.75</ele><time>2026-04-06T13:02:36Z</time></trkpt><trkpt lat="44.86968854959514" lon="4.347126750150701"><ele>811.5</ele><time>2026-04-06T13:02:38Z</time></trkpt><trkpt lat="44.86959566763501" lon="4.347076006005582"><ele>811.25</ele><time>2026-04-06T13:02:39Z</time></trkpt><trkpt lat="44.86952807977823" lon="4.3470009339206195"><ele>811.0</ele><time>2026-04-06T13:02:40Z</time></trkpt><trkpt lat="44.86937770522213" lon="4.346872842851872"><ele>810.9999999999999</ele><time>2026-04-06T13:02:42Z</time></trkpt><trkpt lat="44.86932697020722" lon="4.346797893913085"><ele>811.0</ele><time>2026-04-06T13:02:43Z</time></trkpt><trkpt lat="44.869296730613925" lon="4.346665080227422"><ele>811.0</ele><time>2026-04-06T13:02:45Z</time></trkpt><trkpt lat="44.86925548885072" lon="4.346578354285625"><ele>811.0</ele><time>2026-04-06T13:02:47Z</time></trkpt><trkpt lat="44.86925954081363" lon="4.3464228112951755"><ele>810.9999999999999</ele><time>2026-04-06T13:02:49Z</time></trkpt><trkpt lat="44.86921702984116" lon="4.346323878150401"><ele>811.0</ele><time>2026-04-06T13:02:52Z</time></trkpt><trkpt lat="44.86918320026046" lon="4.346239797316996"><ele>816.4</ele><time>2026-04-06T13:02:54Z</time></trkpt><trkpt lat="44.8691500356923" lon="4.346127924795583"><ele>821.8</ele><time>2026-04-06T13:02:55Z</time></trkpt><trkpt lat="44.869118202018846" lon="4.346022181688898"><ele>827.1999999999999</ele><time>2026-04-06T13:02:59Z</time></trkpt><trkpt lat="44.86906769672338" lon="4.345901673399143"><ele>832.5999999999999</ele><time>2026-04-06T13:03:02Z</time></trkpt><trkpt lat="44.86900782840878" lon="4.3458484477639745"><ele>838.0</ele><time>2026-04-06T13:03:04Z</time></trkpt><trkpt lat="44.86847772003055" lon="4.345088395150417"><ele>841.2</ele><time>2026-04-06T13:03:05Z</time></trkpt><trkpt lat="44.86839627954116" lon="4.345032452481762"><ele>844.4</ele><time>2026-04-06T13:03:07Z</time></trkpt><trkpt lat="44.8683351418053" lon="4.344963577869436"><ele>847.6000000000001</ele><time>2026-04-06T13:03:09Z</time></trkpt><trkpt lat="44.86825141761684" lon="4.344885204905893"><ele>850.8000000000001</ele><time>2026-04-06T13:03:11Z</time></trkpt><trkpt lat="44.868148643868444" lon="4.344817623378205"><ele>854.0</ele><time>2026-04-06T13:03:13Z</time></trkpt><trkpt lat="44.86808325373824" lon="4.3447218442892845"><ele>855.6</ele><time>2026-04-06T13:03:15Z</time></trkpt><trkpt lat="44.86801976383505" lon="4.344600890847377"><ele>857.2</ele><time>2026-04-06T13:03:17Z</time></trkpt><trkpt lat="44.86798302409963" lon="4.34447216837449"><ele>858.8000000000001</ele><time>2026-04-06T13:03:18Z</time></trkpt><trkpt lat="44.86792559128435" lon="4.344339448974889"><ele>860.4000000000001</ele><time>2026-04-06T13:03:19Z</time></trkpt><trkpt lat="44.867888720949686" lon="4.344253599211891"><ele>862.0</ele><time>2026-04-06T13:03:20Z</time></trkpt><trkpt lat="44.86784812518084" lon="4.344166813195613"><ele>862.0</ele><time>2026-04-06T13:03:21Z</time></trkpt><trkpt lat="44.86781851272283" lon="4.344054192385117"><ele>862.0</ele><time>2026-04-06T13:03:23Z</time></trkpt><trkpt lat="44.86775655735108" lon="4.343889983652088"><ele>862.0</ele><time>2026-04-06T13:03:25Z</time></trkpt><trkpt lat="44.867695923210135" lon="4.343760358764234"><ele>862.0</ele><time>2026-04-06T13:03:27Z</time></trkpt><trkpt lat="44.86765527743765" lon="4.343660118847197"><ele>862.0</ele><time>2026-04-06T13:03:29Z</time></trkpt><trkpt lat="44.86760504787103" lon="4.343549675004622"><ele>865.4999999999999</ele><time>2026-04-06T13:03:31Z</time></trkpt><trkpt lat="44.867546724052886" lon="4.3434637617517105"><ele>869.0</ele><time>2026-04-06T13:03:33Z</time></trkpt><trkpt lat="44.867491186584424" lon="4.343383698397293"><ele>872.5</ele><time>2026-04-06T13:03:35Z</time></trkpt><trkpt lat="44.86745388440508" lon="4.343272166337812"><ele>876.0</ele><time>2026-04-06T13:03:40Z</time></trkpt><trkpt lat="44.86743001513658" lon="4.343172332809095"><ele>879.4999999999999</ele><time>2026-04-06T13:03:42Z</time></trkpt><trkpt lat="44.86737365878305" lon="4.34305165154292"><ele>883.0</ele><time>2026-04-06T13:03:45Z</time></trkpt><trkpt lat="44.867346104091276" lon="4.342964422579688"><ele>884.8</ele><time>2026-04-06T13:03:47Z</time></trkpt><trkpt lat="44.86729201563643" lon="4.342861469792536"><ele>886.5999999999999</ele><time>2026-04-06T13:03:49Z</time></trkpt><trkpt lat="44.86723132069344" lon="4.342808766976301"><ele>888.4000000000001</ele><time>2026-04-06T13:03:50Z</time></trkpt><trkpt lat="44.86711749676601" lon="4.342716787777162"><ele>890.2</ele><time>2026-04-06T13:03:55Z</time></trkpt><trkpt lat="44.86706390366545" lon="4.34262984438742"><ele>892.0</ele><time>2026-04-06T13:03:56Z</time></trkpt><trkpt lat="44.866997749422865" lon="4.342511833615193"><ele>892.0</ele><time>2026-04-06T13:03:57Z</time></trkpt><trkpt lat="44.86690549022182" lon="4.342415809180399"><ele>892.0</ele><time>2026-04-06T13:03:58Z</time></trkpt><trkpt lat="44.86685305350887" lon="4.3423653273516205"><ele>892.0</ele><time>2026-04-06T13:03:59Z</time></trkpt><trkpt lat="44.86680160479354" lon="4.342263696502115"><ele>892.0</ele><time>2026-04-06T13:04:01Z</time></trkpt><trkpt lat="44.86674196042263" lon="4.342151733641369"><ele>892.0</ele><time>2026-04-06T13:04:03Z</time></trkpt><trkpt lat="44.866674793925434" lon="4.342076374437664"><ele>894.8</ele><time>2026-04-06T13:04:08Z</time></trkpt><trkpt lat="44.86663936587388" lon="4.341955591141359"><ele>897.6</ele><time>2026-04-06T13:04:12Z</time></trkpt><trkpt lat="44.86659525397478" lon="4.341806332656881"><ele>900.3999999999999</ele><time>2026-04-06T13:04:14Z</time></trkpt><trkpt lat="44.866569555368926" lon="4.3416864344314305"><ele>903.1999999999999</ele><time>2026-04-06T13:04:16Z</time></trkpt><trkpt lat="44.86654240177664" lon="4.341574008551102"><ele>906.0</ele><time>2026-04-06T13:04:19Z</time></trkpt><trkpt lat="44.86652674345588" lon="4.3414748513540555"><ele>906.8</ele><time>2026-04-06T13:04:20Z</time></trkpt><trkpt lat="44.866523281956454" lon="4.341344072573618"><ele>907.5999999999999</ele><time>2026-04-06T13:04:24Z</time></trkpt><trkpt lat="44.8665037468495" lon="4.341160896783394"><ele>908.4</ele><time>2026-04-06T13:04:26Z</time></trkpt><trkpt lat="44.86647387268758" lon="4.341033746862415"><ele>909.2</ele><time>2026-04-06T13:04:27Z</time></trkpt><trkpt lat="44.866441474445246" lon="4.34090712606796"><ele>910.0</ele><time>2026-04-06T13:04:28Z</time></trkpt><trkpt lat="44.866427712446296" lon="4.34076639554187"><ele>910.0</ele><time>2026-04-06T13:04:29Z</time></trkpt><trkpt lat="44.866394726359914" lon="4.340669814443549"><ele>910.0</ele><time>2026-04-06T13:04:30Z</time></trkpt><trkpt lat="44.86634016311276" lon="4.340593319591428"><ele>910.0</ele><time>2026-04-06T13:04:31Z</time></trkpt><trkpt lat="44.866291448496334" lon="4.340499144215003"><ele>910.0</ele><time>2026-04-06T13:04:34Z</time></trkpt><trkpt lat="44.866244963373276" lon="4.3403749356106855"><ele>910.0</ele><time>2026-04-06T13:04:36Z</time></trkpt><trkpt lat="44.866186101140734" lon="4.3402235478411875"><ele>910.3333333333333</ele><time>2026-04-06T13:04:38Z</time></trkpt><trkpt lat="44.86616183965842" lon="4.34012637314659"><ele>910.6666666666666</ele><time>2026-04-06T13:04:40Z</time></trkpt><trkpt lat="44.86612982461067" lon="4.340026216659636"><ele>911.0</ele><time>2026-04-06T13:04:42Z</time></trkpt><trkpt lat="44.86607776066269" lon="4.339897892964485"><ele>911.3333333333333</ele><time>2026-04-06T13:04:45Z</time></trkpt><trkpt lat="44.866061630369714" lon="4.339796987842623"><ele>911.6666666666666</ele><time>2026-04-06T13:04:47Z</time></trkpt><trkpt lat="44.86606828331974" lon="4.339680825592156"><ele>912.0</ele><time>2026-04-06T13:04:49Z</time></trkpt><trkpt lat="44.86601970154089" lon="4.339604106082733"><ele>912.0</ele><time>2026-04-06T13:04:51Z</time></trkpt><trkpt lat="44.865983516388745" lon="4.339466095988533"><ele>912.0</ele><time>2026-04-06T13:04:53Z</time></trkpt><trkpt lat="44.865983106197355" lon="4.339288509657672"><ele>912.0</ele><time>2026-04-06T13:04:56Z</time></trkpt><trkpt lat="44.86597084398695" lon="4.339152519298534"><ele>912.0</ele><time>2026-04-06T13:04:57Z</time></trkpt><trkpt lat="44.865935808587594" lon="4.339021638237361"><ele>912.0</ele><time>2026-04-06T13:04:58Z</time></trkpt><trkpt lat="44.865888283347836" lon="4.338952962323252"><ele>917.0</ele><time>2026-04-06T13:05:00Z</time></trkpt><trkpt lat="44.86584582880877" lon="4.33883138339194"><ele>922.0</ele><time>2026-04-06T13:05:02Z</time></trkpt><trkpt lat="44.86582712169343" lon="4.3387149904813045"><ele>927.0</ele><time>2026-04-06T13:05:05Z</time></trkpt><trkpt lat="44.86580096738309" lon="4.3385953317068155"><ele>932.0</ele><time>2026-04-06T13:05:06Z</time></trkpt><trkpt lat="44.865789031513756" lon="4.3384818479017175"><ele>937.0</ele><time>2026-04-06T13:05:08Z</time></trkpt><trkpt lat="44.86577911565672" lon="4.338370322970164"><ele>942.0</ele><time>2026-04-06T13:05:10Z</time></trkpt><trkpt lat="44.86575845009942" lon="4.338270770928007"><ele>942.0</ele><time>2026-04-06T13:05:13Z</time></trkpt><trkpt lat="44.86575615151973" lon="4.338154565684426"><ele>942.0</ele><time>2026-04-06T13:05:15Z</time></trkpt><trkpt lat="44.8657624676974" lon="4.338042380010248"><ele>942.0</ele><time>2026-04-06T13:05:18Z</time></trkpt><trkpt lat="44.86575338140888" lon="4.3379514183967975"><ele>942.0</ele><time>2026-04-06T13:05:22Z</time></trkpt><trkpt lat="44.865742321271426" lon="4.337809256240639"><ele>942.0</ele><time>2026-04-06T13:05:26Z</time></trkpt><trkpt lat="44.865741234111574" lon="4.337690090087682"><ele>942.0</ele><time>2026-04-06T13:05:29Z</time></trkpt><trkpt lat="44.86575395219408" lon="4.337469024519249"><ele>945.2</ele><time>2026-04-06T13:05:31Z</time></trkpt><trkpt lat="44.86576908973201" lon="4.337358798941537"><ele>948.4000000000001</ele><time>2026-04-06T13:05:32Z</time></trkpt><trkpt lat="44.86578101341238" lon="4.337220371001346"><ele>951.5999999999999</ele><time>2026-04-06T13:05:33Z</time></trkpt><trkpt lat="44.86577916525236" lon="4.337123778805797"><ele>954.8</ele><time>2026-04-06T13:05:34Z</time></trkpt><trkpt lat="44.865780069019245" lon="4.337023769182867"><ele>958.0</ele><time>2026-04-06T13:05:35Z</time></trkpt><trkpt lat="44.865755562544464" lon="4.336732906437336"><ele>962.0</ele><time>2026-04-06T13:05:37Z</time></trkpt><trkpt lat="44.86574384379829" lon="4.336642722552848"><ele>966.0</ele><time>2026-04-06T13:05:38Z</time></trkpt><trkpt lat="44.86574991909123" lon="4.336520944330071"><ele>970.0</ele><time>2026-04-06T13:05:39Z</time></trkpt><trkpt lat="44.86570810830536" lon="4.336381028386381"><ele>974.0</ele><time>2026-04-06T13:05:41Z</time></trkpt><trkpt lat="44.86565327251639" lon="4.336294038780262"><ele>978.0</ele><time>2026-04-06T13:05:45Z</time></trkpt><trkpt lat="44.86560626816719" lon="4.336157019971522"><ele>980.2857142857143</ele><time>2026-04-06T13:05:50Z</time></trkpt><trkpt lat="44.86557365728423" lon="4.336038189022838"><ele>982.5714285714287</ele><time>2026-04-06T13:05:53Z</time></trkpt><trkpt lat="44.86555583653995" lon="4.335952110964187"><ele>984.8571428571429</ele><time>2026-04-06T13:05:56Z</time></trkpt><trkpt lat="44.865527106592836" lon="4.335870936865678"><ele>987.1428571428571</ele><time>2026-04-06T13:05:59Z</time></trkpt><trkpt lat="44.86551003275235" lon="4.33578408642522"><ele>989.4285714285714</ele><time>2026-04-06T13:06:01Z</time></trkpt><trkpt lat="44.86549494153096" lon="4.335692129550775"><ele>991.7142857142858</ele><time>2026-04-06T13:06:04Z</time></trkpt><trkpt lat="44.8654841300416" lon="4.335595256293019"><ele>994.0</ele><time>2026-04-06T13:06:07Z</time></trkpt><trkpt lat="44.865468997234956" lon="4.335488972360824"><ele>995.8333333333333</ele><time>2026-04-06T13:06:11Z</time></trkpt><trkpt lat="44.865442215651385" lon="4.335370611558852"><ele>997.6666666666666</ele><time>2026-04-06T13:06:17Z</time></trkpt><trkpt lat="44.865419184204555" lon="4.335268916356816"><ele>999.5</ele><time>2026-04-06T13:06:21Z</time></trkpt><trkpt lat="44.865389516351414" lon="4.335165947847095"><ele>1001.3333333333333</ele><time>2026-04-06T13:06:25Z</time></trkpt><trkpt lat="44.86536202334921" lon="4.335072967248018"><ele>1003.1666666666666</ele><time>2026-04-06T13:06:29Z</time></trkpt><trkpt lat="44.86532828595488" lon="4.334957283989844"><ele>1005.0</ele><time>2026-04-06T13:06:32Z</time></trkpt><trkpt lat="44.8652913785387" lon="4.334849598966401"><ele>1005.0</ele><time>2026-04-06T13:06:34Z</time></trkpt><trkpt lat="44.86522796695078" lon="4.334805794518621"><ele>1005.0</ele><time>2026-04-06T13:06:35Z</time></trkpt><trkpt lat="44.8651891375052" lon="4.3346719803656315"><ele>1005.0</ele><time>2026-04-06T13:06:37Z</time></trkpt><trkpt lat="44.865089465459725" lon="4.334521048331237"><ele>1005.0</ele><time>2026-04-06T13:06:39Z</time></trkpt><trkpt lat="44.865028992383884" lon="4.3344801029723605"><ele>1005.0</ele><time>2026-04-06T13:06:40Z</time></trkpt><trkpt lat="44.864972834390066" lon="4.334387019746361"><ele>1005.6666666666666</ele><time>2026-04-06T13:06:42Z</time></trkpt><trkpt lat="44.8649412040945" lon="4.334269416091661"><ele>1006.3333333333333</ele><time>2026-04-06T13:06:45Z</time></trkpt><trkpt lat="44.86490389593302" lon="4.334182949744283"><ele>1007.0</ele><time>2026-04-06T13:06:46Z</time></trkpt><trkpt lat="44.86488452532081" lon="4.33409779429493"><ele>1007.6666666666666</ele><time>2026-04-06T13:06:50Z</time></trkpt><trkpt lat="44.864867207610665" lon="4.333973590013879"><ele>1008.3333333333333</ele><time>2026-04-06T13:06:53Z</time></trkpt><trkpt lat="44.864850842679594" lon="4.333870978685198"><ele>1009.0</ele><time>2026-04-06T13:06:57Z</time></trkpt><trkpt lat="44.864845529063416" lon="4.333735024939067"><ele>1008.9999999999999</ele><time>2026-04-06T13:06:59Z</time></trkpt><trkpt lat="44.86481141378872" lon="4.333637600963643"><ele>1009.0</ele><time>2026-04-06T13:07:01Z</time></trkpt><trkpt lat="44.864791437367174" lon="4.333536487197988"><ele>1009.0</ele><time>2026-04-06T13:07:11Z</time></trkpt><trkpt lat="44.86471703091119" lon="4.333518995311288"><ele>1009.0</ele><time>2026-04-06T13:07:16Z</time></trkpt><trkpt lat="44.86460849147899" lon="4.333468300062522"><ele>1008.9999999999999</ele><time>2026-04-06T13:07:27Z</time></trkpt><trkpt lat="44.864533922159474" lon="4.33349454554872"><ele>1009.0</ele><time>2026-04-06T13:07:30Z</time></trkpt><trkpt lat="44.864370287437794" lon="4.333534715701205"><ele>1009.0</ele><time>2026-04-06T13:07:39.651Z</time></trkpt><trkpt lat="44.864414454416334" lon="4.3334678923083265"><ele>1009.0</ele><time>2026-04-06T13:09:03Z</time></trkpt><trkpt lat="44.864416272263725" lon="4.333376151635958"><ele>1009.0</ele><time>2026-04-06T13:09:04Z</time></trkpt><trkpt lat="44.864413959826436" lon="4.333286996349618"><ele>1009.0</ele><time>2026-04-06T13:09:05Z</time></trkpt><trkpt lat="44.864416052217855" lon="4.333174605574054"><ele>1009.0</ele><time>2026-04-06T13:09:06Z</time></trkpt><trkpt lat="44.86443767094479" lon="4.333064412392337"><ele>1009.0</ele><time>2026-04-06T13:09:07Z</time></trkpt><trkpt lat="44.86447763901108" lon="4.332943896642066"><ele>1009.0</ele><time>2026-04-06T13:09:08Z</time></trkpt><trkpt lat="44.86452666644002" lon="4.332846647908084"><ele>1010.4000000000001</ele><time>2026-04-06T13:09:09Z</time></trkpt><trkpt lat="44.86458378685348" lon="4.332743814646367"><ele>1011.8000000000001</ele><time>2026-04-06T13:09:10Z</time></trkpt><trkpt lat="44.86463002938479" lon="4.332628707131735"><ele>1013.1999999999999</ele><time>2026-04-06T13:09:11Z</time></trkpt><trkpt lat="44.8646704501271" lon="4.3324926161811765"><ele>1014.5999999999999</ele><time>2026-04-06T13:09:12Z</time></trkpt><trkpt lat="44.864703981091814" lon="4.332375749381835"><ele>1016.0</ele><time>2026-04-06T13:09:13Z</time></trkpt><trkpt lat="44.86474418446889" lon="4.332256019861199"><ele>1018.4</ele><time>2026-04-06T13:09:14Z</time></trkpt><trkpt lat="44.86480203576775" lon="4.332131023767925"><ele>1020.8</ele><time>2026-04-06T13:09:15Z</time></trkpt><trkpt lat="44.86485616360558" lon="4.331996945298269"><ele>1023.1999999999999</ele><time>2026-04-06T13:09:16Z</time></trkpt><trkpt lat="44.86492230810334" lon="4.33187855643984"><ele>1025.6</ele><time>2026-04-06T13:09:17Z</time></trkpt><trkpt lat="44.86497714173432" lon="4.331782451398718"><ele>1028.0</ele><time>2026-04-06T13:09:18Z</time></trkpt><trkpt lat="44.86502985507779" lon="4.331693972638217"><ele>1028.0</ele><time>2026-04-06T13:09:19Z</time></trkpt><trkpt lat="44.86509506361067" lon="4.331611382975443"><ele>1028.0</ele><time>2026-04-06T13:09:20Z</time></trkpt><trkpt lat="44.86515614467491" lon="4.331514532513948"><ele>1028.0</ele><time>2026-04-06T13:09:21Z</time></trkpt><trkpt lat="44.86520672387305" lon="4.331428936255648"><ele>1028.0</ele><time>2026-04-06T13:09:22Z</time></trkpt><trkpt lat="44.86527069363188" lon="4.331363079156918"><ele>1028.0</ele><time>2026-04-06T13:09:23Z</time></trkpt><trkpt lat="44.865311576352916" lon="4.331290797081628"><ele>1028.0</ele><time>2026-04-06T13:09:24Z</time></trkpt><trkpt lat="44.86539724623702" lon="4.331169575371445"><ele>1027.6</ele><time>2026-04-06T13:09:26Z</time></trkpt><trkpt lat="44.865426573670234" lon="4.33105616363191"><ele>1027.1999999999998</ele><time>2026-04-06T13:09:27Z</time></trkpt><trkpt lat="44.865437534963085" lon="4.330938351707404"><ele>1026.8</ele><time>2026-04-06T13:09:28Z</time></trkpt><trkpt lat="44.86543346740545" lon="4.330807896088174"><ele>1026.3999999999999</ele><time>2026-04-06T13:09:29Z</time></trkpt><trkpt lat="44.865382747189386" lon="4.3306584794940175"><ele>1026.0</ele><time>2026-04-06T13:09:30Z</time></trkpt><trkpt lat="44.86536864185849" lon="4.330527536108169"><ele>1026.0</ele><time>2026-04-06T13:09:31Z</time></trkpt><trkpt lat="44.86532809429046" lon="4.3304158045217065"><ele>1026.0</ele><time>2026-04-06T13:09:32Z</time></trkpt><trkpt lat="44.86529603320339" lon="4.330302575267281"><ele>1026.0</ele><time>2026-04-06T13:09:33Z</time></trkpt><trkpt lat="44.86526063816471" lon="4.330193711107498"><ele>1026.0</ele><time>2026-04-06T13:09:34Z</time></trkpt><trkpt lat="44.86523304698043" lon="4.330084041303045"><ele>1026.0</ele><time>2026-04-06T13:09:35Z</time></trkpt><trkpt lat="44.86521407116324" lon="4.329978756478991"><ele>1026.0</ele><time>2026-04-06T13:09:36Z</time></trkpt><trkpt lat="44.86519233844739" lon="4.32988127106578"><ele>1026.0</ele><time>2026-04-06T13:09:37Z</time></trkpt><trkpt lat="44.86517667870273" lon="4.329778309192211"><ele>1026.0</ele><time>2026-04-06T13:09:38Z</time></trkpt><trkpt lat="44.8651764364336" lon="4.329658799438904"><ele>1026.0</ele><time>2026-04-06T13:09:39Z</time></trkpt><trkpt lat="44.86518196324448" lon="4.32956320866281"><ele>1026.0</ele><time>2026-04-06T13:09:40Z</time></trkpt><trkpt lat="44.86515310495283" lon="4.329483471219726"><ele>1026.0</ele><time>2026-04-06T13:09:41Z</time></trkpt><trkpt lat="44.865096120659636" lon="4.329375386354441"><ele>1026.0</ele><time>2026-04-06T13:09:43Z</time></trkpt><trkpt lat="44.86496450247298" lon="4.329306993667839"><ele>1027.1666666666667</ele><time>2026-04-06T13:09:45Z</time></trkpt><trkpt lat="44.86489178180394" lon="4.329296368757042"><ele>1028.3333333333333</ele><time>2026-04-06T13:09:46Z</time></trkpt><trkpt lat="44.86482411599549" lon="4.329266189569635"><ele>1029.5</ele><time>2026-04-06T13:09:47Z</time></trkpt><trkpt lat="44.864720473150456" lon="4.329202360488683"><ele>1030.6666666666665</ele><time>2026-04-06T13:09:49Z</time></trkpt><trkpt lat="44.864646948357056" lon="4.329182155673336"><ele>1031.8333333333333</ele><time>2026-04-06T13:09:50Z</time></trkpt><trkpt lat="44.8645669396461" lon="4.32917640214059"><ele>1033.0</ele><time>2026-04-06T13:09:51Z</time></trkpt><trkpt lat="44.8644830031758" lon="4.329168603393064"><ele>1033.0</ele><time>2026-04-06T13:09:52Z</time></trkpt><trkpt lat="44.864419811921266" lon="4.3291793664829"><ele>1033.0</ele><time>2026-04-06T13:09:53Z</time></trkpt><trkpt lat="44.86433531734588" lon="4.329152464465974"><ele>1033.0</ele><time>2026-04-06T13:09:54Z</time></trkpt><trkpt lat="44.8642460327371" lon="4.329126496743482"><ele>1033.0</ele><time>2026-04-06T13:09:55Z</time></trkpt><trkpt lat="44.8641662831664" lon="4.329086014771795"><ele>1033.0</ele><time>2026-04-06T13:09:56Z</time></trkpt><trkpt lat="44.86407017193457" lon="4.329036981337806"><ele>1033.0</ele><time>2026-04-06T13:09:57Z</time></trkpt><trkpt lat="44.86397321966922" lon="4.328986965237677"><ele>1035.0</ele><time>2026-04-06T13:09:58Z</time></trkpt><trkpt lat="44.86388468363567" lon="4.328928622364018"><ele>1037.0</ele><time>2026-04-06T13:09:59Z</time></trkpt><trkpt lat="44.86379962973069" lon="4.328872262571337"><ele>1039.0</ele><time>2026-04-06T13:10:00Z</time></trkpt><trkpt lat="44.86371816772734" lon="4.328824631915117"><ele>1041.0</ele><time>2026-04-06T13:10:01Z</time></trkpt><trkpt lat="44.86363478061549" lon="4.328776818305302"><ele>1043.0</ele><time>2026-04-06T13:10:02Z</time></trkpt><trkpt lat="44.863559785513786" lon="4.328727970555573"><ele>1043.0</ele><time>2026-04-06T13:10:03Z</time></trkpt><trkpt lat="44.86347681165863" lon="4.3286539694026525"><ele>1043.0</ele><time>2026-04-06T13:10:04Z</time></trkpt><trkpt lat="44.8634009173104" lon="4.328589114994049"><ele>1043.0</ele><time>2026-04-06T13:10:05Z</time></trkpt><trkpt lat="44.86331779406459" lon="4.328536423343262"><ele>1043.0</ele><time>2026-04-06T13:10:06Z</time></trkpt><trkpt lat="44.863238174069956" lon="4.328482571992536"><ele>1043.0</ele><time>2026-04-06T13:10:07Z</time></trkpt><trkpt lat="44.86316273164045" lon="4.328395024940739"><ele>1043.6</ele><time>2026-04-06T13:10:08Z</time></trkpt><trkpt lat="44.86308845898462" lon="4.328285078775501"><ele>1044.1999999999998</ele><time>2026-04-06T13:10:09Z</time></trkpt><trkpt lat="44.86301911212436" lon="4.328189901677292"><ele>1044.8</ele><time>2026-04-06T13:10:10Z</time></trkpt><trkpt lat="44.86295678275009" lon="4.328093961697258"><ele>1045.3999999999999</ele><time>2026-04-06T13:10:11Z</time></trkpt><trkpt lat="44.8628800023636" lon="4.328013421756194"><ele>1046.0</ele><time>2026-04-06T13:10:12Z</time></trkpt><trkpt lat="44.862790060256366" lon="4.327896172777162"><ele>1046.0</ele><time>2026-04-06T13:10:13Z</time></trkpt><trkpt lat="44.8627450003328" lon="4.327786077206462"><ele>1046.0</ele><time>2026-04-06T13:10:14Z</time></trkpt><trkpt lat="44.86268289028716" lon="4.327675241175208"><ele>1046.0</ele><time>2026-04-06T13:10:15Z</time></trkpt><trkpt lat="44.86262782568838" lon="4.327572617701135"><ele>1046.0</ele><time>2026-04-06T13:10:16Z</time></trkpt><trkpt lat="44.86256945622233" lon="4.327485242526212"><ele>1046.0</ele><time>2026-04-06T13:10:17Z</time></trkpt><trkpt lat="44.86253024580963" lon="4.327409406317616"><ele>1046.0</ele><time>2026-04-06T13:10:18Z</time></trkpt><trkpt lat="44.86247417193383" lon="4.327329792469036"><ele>1042.25</ele><time>2026-04-06T13:10:19Z</time></trkpt><trkpt lat="44.8624012897364" lon="4.327277925476948"><ele>1038.5</ele><time>2026-04-06T13:10:20Z</time></trkpt><trkpt lat="44.862328901680456" lon="4.327130673925862"><ele>1034.75</ele><time>2026-04-06T13:10:22Z</time></trkpt><trkpt lat="44.86228660853843" lon="4.326929710530995"><ele>1031.0</ele><time>2026-04-06T13:10:24Z</time></trkpt><trkpt lat="44.86224113267926" lon="4.3267671427092775"><ele>1031.0</ele><time>2026-04-06T13:10:25Z</time></trkpt><trkpt lat="44.86217355950095" lon="4.326664509360084"><ele>1031.0</ele><time>2026-04-06T13:10:26Z</time></trkpt><trkpt lat="44.862130907844794" lon="4.326570479916854"><ele>1031.0</ele><time>2026-04-06T13:10:27Z</time></trkpt><trkpt lat="44.86209844282042" lon="4.3264903624502"><ele>1031.0</ele><time>2026-04-06T13:10:28Z</time></trkpt><trkpt lat="44.862085398870974" lon="4.326298856162237"><ele>1031.0</ele><time>2026-04-06T13:10:30Z</time></trkpt><trkpt lat="44.86208551309883" lon="4.326209355215664"><ele>1031.0</ele><time>2026-04-06T13:10:31Z</time></trkpt><trkpt lat="44.862054779671745" lon="4.326117041092794"><ele>1031.6666666666667</ele><time>2026-04-06T13:10:32Z</time></trkpt><trkpt lat="44.86206501367493" lon="4.3260084537420935"><ele>1032.3333333333335</ele><time>2026-04-06T13:10:33Z</time></trkpt><trkpt lat="44.862003961391416" lon="4.3258969629773905"><ele>1033.0</ele><time>2026-04-06T13:10:34Z</time></trkpt><trkpt lat="44.86194714290714" lon="4.325824268017826"><ele>1033.6666666666667</ele><time>2026-04-06T13:10:35Z</time></trkpt><trkpt lat="44.86189748804345" lon="4.325747408295425"><ele>1034.3333333333333</ele><time>2026-04-06T13:10:36Z</time></trkpt><trkpt lat="44.86185306135904" lon="4.325667589717405"><ele>1035.0</ele><time>2026-04-06T13:10:37Z</time></trkpt><trkpt lat="44.86182958962071" lon="4.3255650952890115"><ele>1035.6666666666667</ele><time>2026-04-06T13:10:38Z</time></trkpt><trkpt lat="44.86178392658161" lon="4.325468339800384"><ele>1036.3333333333333</ele><time>2026-04-06T13:10:39Z</time></trkpt><trkpt lat="44.861737176731225" lon="4.325375595235088"><ele>1037.0</ele><time>2026-04-06T13:10:40Z</time></trkpt><trkpt lat="44.861660840064026" lon="4.3253108752209535"><ele>1037.6666666666665</ele><time>2026-04-06T13:10:41Z</time></trkpt><trkpt lat="44.86159121937491" lon="4.3252830555439665"><ele>1038.3333333333333</ele><time>2026-04-06T13:10:42Z</time></trkpt><trkpt lat="44.861508847074724" lon="4.325293804617372"><ele>1039.0</ele><time>2026-04-06T13:10:43Z</time></trkpt><trkpt lat="44.86142395441752" lon="4.325328719872517"><ele>1036.0</ele><time>2026-04-06T13:10:44Z</time></trkpt><trkpt lat="44.86135015563273" lon="4.3253570693186205"><ele>1033.0</ele><time>2026-04-06T13:10:45Z</time></trkpt><trkpt lat="44.86127156369245" lon="4.325356828318074"><ele>1030.0</ele><time>2026-04-06T13:10:46Z</time></trkpt><trkpt lat="44.861200221016865" lon="4.325335529999189"><ele>1027.0</ele><time>2026-04-06T13:10:47Z</time></trkpt><trkpt lat="44.86113409083748" lon="4.32528512192443"><ele>1023.9999999999999</ele><time>2026-04-06T13:10:48Z</time></trkpt><trkpt lat="44.861075489095384" lon="4.325226700382323"><ele>1021.0</ele><time>2026-04-06T13:10:49Z</time></trkpt><trkpt lat="44.8610246137108" lon="4.325136374508095"><ele>1020.9999999999999</ele><time>2026-04-06T13:10:50Z</time></trkpt><trkpt lat="44.860976885312226" lon="4.325041532730149"><ele>1021.0</ele><time>2026-04-06T13:10:51Z</time></trkpt><trkpt lat="44.86093577396105" lon="4.3249472478333875"><ele>1021.0</ele><time>2026-04-06T13:10:52Z</time></trkpt><trkpt lat="44.86089105609312" lon="4.324842479709391"><ele>1021.0</ele><time>2026-04-06T13:10:53Z</time></trkpt><trkpt lat="44.86087472021796" lon="4.324736507600908"><ele>1020.9999999999999</ele><time>2026-04-06T13:10:54Z</time></trkpt><trkpt lat="44.8608540483561" lon="4.324634480419866"><ele>1021.0</ele><time>2026-04-06T13:10:55Z</time></trkpt><trkpt lat="44.860830530323064" lon="4.3245470015625465"><ele>1020.1666666666666</ele><time>2026-04-06T13:10:56Z</time></trkpt><trkpt lat="44.860787316307196" lon="4.324479149982026"><ele>1019.3333333333333</ele><time>2026-04-06T13:10:57Z</time></trkpt><trkpt lat="44.86069406589533" lon="4.324422380437159"><ele>1018.5</ele><time>2026-04-06T13:10:58Z</time></trkpt><trkpt lat="44.86060967579266" lon="4.324344056055084"><ele>1017.6666666666667</ele><time>2026-04-06T13:10:59Z</time></trkpt><trkpt lat="44.860545881816705" lon="4.324261226965779"><ele>1016.8333333333334</ele><time>2026-04-06T13:11:00Z</time></trkpt><trkpt lat="44.86049115803246" lon="4.324182683371414"><ele>1016.0</ele><time>2026-04-06T13:11:01Z</time></trkpt><trkpt lat="44.8604349937707" lon="4.3240956210219625"><ele>1016.0000000000001</ele><time>2026-04-06T13:11:02Z</time></trkpt><trkpt lat="44.86038055897561" lon="4.324020523671588"><ele>1016.0</ele><time>2026-04-06T13:11:03Z</time></trkpt><trkpt lat="44.86032446287531" lon="4.323954707472928"><ele>1016.0</ele><time>2026-04-06T13:11:04Z</time></trkpt><trkpt lat="44.86027160975495" lon="4.323897082008197"><ele>1016.0</ele><time>2026-04-06T13:11:05Z</time></trkpt><trkpt lat="44.8602533409509" lon="4.323809097430453"><ele>1016.0000000000001</ele><time>2026-04-06T13:11:06Z</time></trkpt><trkpt lat="44.860172641222626" lon="4.323784066418494"><ele>1016.0</ele><time>2026-04-06T13:11:07Z</time></trkpt><trkpt lat="44.86008673841088" lon="4.323730944612274"><ele>1014.1666666666667</ele><time>2026-04-06T13:11:08Z</time></trkpt><trkpt lat="44.859997487704625" lon="4.323668109926393"><ele>1012.3333333333334</ele><time>2026-04-06T13:11:09Z</time></trkpt><trkpt lat="44.85992458974058" lon="4.323580649054487"><ele>1010.5</ele><time>2026-04-06T13:11:10Z</time></trkpt><trkpt lat="44.859864919645894" lon="4.323500196064868"><ele>1008.6666666666667</ele><time>2026-04-06T13:11:11Z</time></trkpt><trkpt lat="44.85982533549275" lon="4.323407829041271"><ele>1006.8333333333334</ele><time>2026-04-06T13:11:12Z</time></trkpt><trkpt lat="44.8597804957703" lon="4.323310620234708"><ele>1005.0</ele><time>2026-04-06T13:11:13Z</time></trkpt><trkpt lat="44.859765593489655" lon="4.323206698851817"><ele>1005.0</ele><time>2026-04-06T13:11:14Z</time></trkpt><trkpt lat="44.85975001936166" lon="4.323104368918807"><ele>1005.0</ele><time>2026-04-06T13:11:15Z</time></trkpt><trkpt lat="44.85973227376315" lon="4.32299338952199"><ele>1005.0</ele><time>2026-04-06T13:11:16Z</time></trkpt><trkpt lat="44.85970812296266" lon="4.322875214253678"><ele>1005.0</ele><time>2026-04-06T13:11:17Z</time></trkpt><trkpt lat="44.85968773437284" lon="4.32273408257213"><ele>1005.0</ele><time>2026-04-06T13:11:18Z</time></trkpt><trkpt lat="44.85967917055644" lon="4.322610544293193"><ele>1005.0</ele><time>2026-04-06T13:11:19Z</time></trkpt><trkpt lat="44.85966177074963" lon="4.322490382322192"><ele>1005.8</ele><time>2026-04-06T13:11:20Z</time></trkpt><trkpt lat="44.85963984162883" lon="4.3223661464674175"><ele>1006.6</ele><time>2026-04-06T13:11:21Z</time></trkpt><trkpt lat="44.859595249154424" lon="4.322225456165981"><ele>1007.4000000000001</ele><time>2026-04-06T13:11:22Z</time></trkpt><trkpt lat="44.85953534910304" lon="4.322103086638369"><ele>1008.2</ele><time>2026-04-06T13:11:23Z</time></trkpt><trkpt lat="44.859475206473526" lon="4.321970936060955"><ele>1009.0</ele><time>2026-04-06T13:11:24Z</time></trkpt><trkpt lat="44.85942323026403" lon="4.321849290562077"><ele>1008.9999999999999</ele><time>2026-04-06T13:11:25Z</time></trkpt><trkpt lat="44.85938526421268" lon="4.321728160323678"><ele>1009.0</ele><time>2026-04-06T13:11:26Z</time></trkpt><trkpt lat="44.859341322454135" lon="4.321611851801346"><ele>1009.0</ele><time>2026-04-06T13:11:27Z</time></trkpt><trkpt lat="44.85930059200034" lon="4.321516384900534"><ele>1009.0</ele><time>2026-04-06T13:11:28Z</time></trkpt><trkpt lat="44.8592755397472" lon="4.321434103032528"><ele>1008.9999999999999</ele><time>2026-04-06T13:11:29Z</time></trkpt><trkpt lat="44.85923027159248" lon="4.321307557602389"><ele>1009.0</ele><time>2026-04-06T13:11:31Z</time></trkpt><trkpt lat="44.85920648132176" lon="4.321211646866301"><ele>1007.1666666666666</ele><time>2026-04-06T13:12:14Z</time></trkpt><trkpt lat="44.859125520664904" lon="4.321131118793524"><ele>1005.3333333333333</ele><time>2026-04-06T13:12:16Z</time></trkpt><trkpt lat="44.85907091237946" lon="4.321082344216322"><ele>1003.5</ele><time>2026-04-06T13:12:17Z</time></trkpt><trkpt lat="44.85901167478613" lon="4.3210259410237954"><ele>1001.6666666666667</ele><time>2026-04-06T13:12:18Z</time></trkpt><trkpt lat="44.85894599425811" lon="4.320961527951969"><ele>999.8333333333334</ele><time>2026-04-06T13:12:19Z</time></trkpt><trkpt lat="44.858878603263136" lon="4.320876629752395"><ele>998.0</ele><time>2026-04-06T13:12:20Z</time></trkpt><trkpt lat="44.85881067392644" lon="4.320803102549013"><ele>998.0000000000001</ele><time>2026-04-06T13:12:21Z</time></trkpt><trkpt lat="44.85874099800854" lon="4.320742698692127"><ele>998.0</ele><time>2026-04-06T13:12:22Z</time></trkpt><trkpt lat="44.85867527264746" lon="4.320679602967998"><ele>998.0</ele><time>2026-04-06T13:12:23Z</time></trkpt><trkpt lat="44.858609119063345" lon="4.3206188861161605"><ele>998.0</ele><time>2026-04-06T13:12:24Z</time></trkpt><trkpt lat="44.8585440146615" lon="4.320548314580175"><ele>998.0000000000001</ele><time>2026-04-06T13:12:25Z</time></trkpt><trkpt lat="44.8584780274793" lon="4.320479617183521"><ele>998.0</ele><time>2026-04-06T13:12:26Z</time></trkpt><trkpt lat="44.858408107048966" lon="4.320422632282182"><ele>1001.8333333333334</ele><time>2026-04-06T13:12:27Z</time></trkpt><trkpt lat="44.85832979651064" lon="4.32037689478043"><ele>1005.6666666666667</ele><time>2026-04-06T13:12:28Z</time></trkpt><trkpt lat="44.85826171528753" lon="4.320346494488997"><ele>1009.5</ele><time>2026-04-06T13:12:29Z</time></trkpt><trkpt lat="44.858192989032936" lon="4.320329050877469"><ele>1013.3333333333333</ele><time>2026-04-06T13:12:30Z</time></trkpt><trkpt lat="44.858127441584934" lon="4.320311508303093"><ele>1017.1666666666666</ele><time>2026-04-06T13:12:31Z</time></trkpt><trkpt lat="44.8580232458041" lon="4.32034948793507"><ele>1021.0</ele><time>2026-04-06T13:12:33Z</time></trkpt><trkpt lat="44.85796514469375" lon="4.320397302487473"><ele>1020.9999999999999</ele><time>2026-04-06T13:12:34Z</time></trkpt><trkpt lat="44.85789463882736" lon="4.3204308144406065"><ele>1021.0</ele><time>2026-04-06T13:12:35Z</time></trkpt><trkpt lat="44.85783120260147" lon="4.3204534954565235"><ele>1021.0</ele><time>2026-04-06T13:12:36Z</time></trkpt><trkpt lat="44.85777049921697" lon="4.3205012043232385"><ele>1021.0</ele><time>2026-04-06T13:12:37Z</time></trkpt><trkpt lat="44.85771071951242" lon="4.320538000576799"><ele>1020.9999999999999</ele><time>2026-04-06T13:12:38Z</time></trkpt><trkpt lat="44.857625674107275" lon="4.320580910970014"><ele>1021.0</ele><time>2026-04-06T13:12:40Z</time></trkpt><trkpt lat="44.85751061793672" lon="4.320633946167428"><ele>1023.1999999999999</ele><time>2026-04-06T13:12:42Z</time></trkpt><trkpt lat="44.85740879704783" lon="4.320773210891714"><ele>1025.3999999999999</ele><time>2026-04-06T13:12:48Z</time></trkpt><trkpt lat="44.85732583499542" lon="4.320843347900274"><ele>1027.6</ele><time>2026-04-06T13:12:52Z</time></trkpt><trkpt lat="44.857208587890156" lon="4.320882412325728"><ele>1029.8</ele><time>2026-04-06T13:12:54Z</time></trkpt><trkpt lat="44.85714594232631" lon="4.320896964782054"><ele>1032.0</ele><time>2026-04-06T13:12:56Z</time></trkpt><trkpt lat="44.85704082602946" lon="4.320906494709899"><ele>1032.0</ele><time>2026-04-06T13:13:00Z</time></trkpt><trkpt lat="44.85698980514969" lon="4.320981246590527"><ele>1032.0</ele><time>2026-04-06T13:13:02Z</time></trkpt><trkpt lat="44.85691856794709" lon="4.320993950308927"><ele>1032.0</ele><time>2026-04-06T13:13:04Z</time></trkpt><trkpt lat="44.85688328079085" lon="4.32109524645157"><ele>1032.0</ele><time>2026-04-06T13:13:06Z</time></trkpt><trkpt lat="44.85684548367795" lon="4.321179586944166"><ele>1032.0</ele><time>2026-04-06T13:13:07Z</time></trkpt><trkpt lat="44.85677676106227" lon="4.321211795985934"><ele>1032.0</ele><time>2026-04-06T13:13:10Z</time></trkpt><trkpt lat="44.85666788153301" lon="4.32129434735983"><ele>1035.4</ele><time>2026-04-06T13:13:12Z</time></trkpt><trkpt lat="44.85660840275484" lon="4.321424186233056"><ele>1038.8000000000002</ele><time>2026-04-06T13:13:14Z</time></trkpt><trkpt lat="44.856577827334185" lon="4.321555242246266"><ele>1042.2</ele><time>2026-04-06T13:13:16Z</time></trkpt><trkpt lat="44.856484495572495" lon="4.321617179256262"><ele>1045.6000000000001</ele><time>2026-04-06T13:13:18Z</time></trkpt><trkpt lat="44.85640578414071" lon="4.321614421709179"><ele>1049.0</ele><time>2026-04-06T13:13:20Z</time></trkpt><trkpt lat="44.85636601405319" lon="4.3217124610806295"><ele>1049.0</ele><time>2026-04-06T13:13:23Z</time></trkpt><trkpt lat="44.856291562922756" lon="4.321776000003031"><ele>1049.0</ele><time>2026-04-06T13:13:24Z</time></trkpt><trkpt lat="44.85623451579644" lon="4.3218403763131095"><ele>1049.0</ele><time>2026-04-06T13:13:27Z</time></trkpt><trkpt lat="44.856163535436906" lon="4.321852866964435"><ele>1049.0</ele><time>2026-04-06T13:13:29Z</time></trkpt><trkpt lat="44.85608397103188" lon="4.321820094290547"><ele>1049.0</ele><time>2026-04-06T13:13:32Z</time></trkpt><trkpt lat="44.85602072263061" lon="4.321803537453416"><ele>1049.0</ele><time>2026-04-06T13:13:33Z</time></trkpt><trkpt lat="44.85594784902294" lon="4.32179331191223"><ele>1058.0</ele><time>2026-04-06T13:13:34Z</time></trkpt><trkpt lat="44.85577228505082" lon="4.321790794822905"><ele>1067.0</ele><time>2026-04-06T13:13:37Z</time></trkpt><trkpt lat="44.85565795923114" lon="4.321823695981535"><ele>1076.0</ele><time>2026-04-06T13:13:39Z</time></trkpt><trkpt lat="44.85558028820009" lon="4.32168708110853"><ele>1085.0</ele><time>2026-04-06T13:13:41Z</time></trkpt><trkpt lat="44.855499367858584" lon="4.321763051565311"><ele>1085.0</ele><time>2026-04-06T13:13:42Z</time></trkpt><trkpt lat="44.855449721561335" lon="4.321701206733629"><ele>1085.0</ele><time>2026-04-06T13:13:43Z</time></trkpt><trkpt lat="44.8553884274521" lon="4.321599872181017"><ele>1085.0</ele><time>2026-04-06T13:13:45Z</time></trkpt><trkpt lat="44.85491905246142" lon="4.321480650469377"><ele>1088.0</ele><time>2026-04-06T13:13:46Z</time></trkpt><trkpt lat="44.85487651433778" lon="4.321336588376814"><ele>1091.0</ele><time>2026-04-06T13:13:47Z</time></trkpt><trkpt lat="44.85484962229135" lon="4.321197871213074"><ele>1094.0</ele><time>2026-04-06T13:13:48Z</time></trkpt><trkpt lat="44.85482736565314" lon="4.321057101508526"><ele>1097.0</ele><time>2026-04-06T13:13:49Z</time></trkpt><trkpt lat="44.85480178770433" lon="4.320925360018107"><ele>1100.0</ele><time>2026-04-06T13:13:50Z</time></trkpt><trkpt lat="44.854784266332814" lon="4.320792245971754"><ele>1100.0</ele><time>2026-04-06T13:13:51Z</time></trkpt><trkpt lat="44.854776488912684" lon="4.320669773774749"><ele>1100.0</ele><time>2026-04-06T13:13:52Z</time></trkpt><trkpt lat="44.854767971298834" lon="4.320535140553525"><ele>1100.0</ele><time>2026-04-06T13:13:53Z</time></trkpt><trkpt lat="44.854751400808844" lon="4.320399495611841"><ele>1100.0</ele><time>2026-04-06T13:13:54Z</time></trkpt><trkpt lat="44.85472019618464" lon="4.320262152846895"><ele>1100.0</ele><time>2026-04-06T13:13:55Z</time></trkpt><trkpt lat="44.854681656565276" lon="4.320133728388868"><ele>1102.75</ele><time>2026-04-06T13:13:56Z</time></trkpt><trkpt lat="44.8546361397728" lon="4.31999376874211"><ele>1105.5</ele><time>2026-04-06T13:13:57Z</time></trkpt><trkpt lat="44.85457625901596" lon="4.319859705698581"><ele>1108.25</ele><time>2026-04-06T13:13:58Z</time></trkpt><trkpt lat="44.85448780901835" lon="4.319727484853759"><ele>1111.0</ele><time>2026-04-06T13:13:59Z</time></trkpt><trkpt lat="44.854422736004324" lon="4.31961457030993"><ele>1112.3999999999999</ele><time>2026-04-06T13:14:00Z</time></trkpt><trkpt lat="44.854350441189226" lon="4.319487933972405"><ele>1113.8</ele><time>2026-04-06T13:14:01Z</time></trkpt><trkpt lat="44.85428317304066" lon="4.319366793925109"><ele>1115.1999999999998</ele><time>2026-04-06T13:14:02Z</time></trkpt><trkpt lat="44.85423701312458" lon="4.319237037591349"><ele>1116.6</ele><time>2026-04-06T13:14:03Z</time></trkpt><trkpt lat="44.8542109782827" lon="4.3190999423550815"><ele>1118.0</ele><time>2026-04-06T13:14:04Z</time></trkpt><trkpt lat="44.8542006622879" lon="4.31895012227184"><ele>1115.0</ele><time>2026-04-06T13:14:05Z</time></trkpt><trkpt lat="44.85416982925586" lon="4.318832947750175"><ele>1112.0</ele><time>2026-04-06T13:14:06Z</time></trkpt><trkpt lat="44.85413252171779" lon="4.318746077297827"><ele>1109.0</ele><time>2026-04-06T13:14:07Z</time></trkpt><trkpt lat="44.85408356653097" lon="4.318666815080178"><ele>1106.0</ele><time>2026-04-06T13:14:08Z</time></trkpt><trkpt lat="44.854067139848524" lon="4.318559118390799"><ele>1103.0</ele><time>2026-04-06T13:14:09Z</time></trkpt><trkpt lat="44.85406736978403" lon="4.318460674182067"><ele>1100.0</ele><time>2026-04-06T13:14:10Z</time></trkpt><trkpt lat="44.854086681510694" lon="4.318282612049003"><ele>1100.0</ele><time>2026-04-06T13:14:12Z</time></trkpt><trkpt lat="44.854097526865935" lon="4.318080146698802"><ele>1100.0</ele><time>2026-04-06T13:14:14Z</time></trkpt><trkpt lat="44.85409667206272" lon="4.317971212296097"><ele>1100.0</ele><time>2026-04-06T13:14:15Z</time></trkpt><trkpt lat="44.8541018984969" lon="4.3178537505748835"><ele>1100.0</ele><time>2026-04-06T13:14:16Z</time></trkpt><trkpt lat="44.85409878514895" lon="4.317713333543242"><ele>1100.0</ele><time>2026-04-06T13:14:17Z</time></trkpt><trkpt lat="44.85408182243206" lon="4.317580583486362"><ele>1100.8333333333335</ele><time>2026-04-06T13:14:18Z</time></trkpt><trkpt lat="44.854052240378145" lon="4.317467004923135"><ele>1101.6666666666667</ele><time>2026-04-06T13:14:19Z</time></trkpt><trkpt lat="44.8540215847746" lon="4.317355753981058"><ele>1102.5</ele><time>2026-04-06T13:14:20Z</time></trkpt><trkpt lat="44.85399136469876" lon="4.3172436467809705"><ele>1103.3333333333333</ele><time>2026-04-06T13:14:21Z</time></trkpt><trkpt lat="44.85396435949575" lon="4.317125032303725"><ele>1104.1666666666665</ele><time>2026-04-06T13:14:22Z</time></trkpt><trkpt lat="44.853939436613494" lon="4.317009411773178"><ele>1105.0</ele><time>2026-04-06T13:14:23Z</time></trkpt><trkpt lat="44.85393084744831" lon="4.316872522570213"><ele>1105.0</ele><time>2026-04-06T13:14:25Z</time></trkpt><trkpt lat="44.85391014219796" lon="4.316757384907231"><ele>1105.0</ele><time>2026-04-06T13:14:28Z</time></trkpt><trkpt lat="44.85397031536325" lon="4.316869257069924"><ele>1105.0</ele><time>2026-04-06T13:14:40Z</time></trkpt><trkpt lat="44.85398578977043" lon="4.317037425110861"><ele>1105.0</ele><time>2026-04-06T13:14:42Z</time></trkpt><trkpt lat="44.85399463703546" lon="4.317152790771961"><ele>1105.0</ele><time>2026-04-06T13:14:43Z</time></trkpt><trkpt lat="44.854015778117386" lon="4.317252028685724"><ele>1105.0</ele><time>2026-04-06T13:14:44Z</time></trkpt><trkpt lat="44.8540391809539" lon="4.317337533526667"><ele>1105.0</ele><time>2026-04-06T13:14:45Z</time></trkpt><trkpt lat="44.854082877326384" lon="4.317471250486379"><ele>1105.0</ele><time>2026-04-06T13:14:47Z</time></trkpt><trkpt lat="44.85415353057505" lon="4.317425346290893"><ele>1105.0</ele><time>2026-04-06T13:15:05Z</time></trkpt><trkpt lat="44.854147741157334" lon="4.317238742807343"><ele>1105.0</ele><time>2026-04-06T13:15:07Z</time></trkpt><trkpt lat="44.854134260970056" lon="4.3171141274564775"><ele>1106.5</ele><time>2026-04-06T13:15:08Z</time></trkpt><trkpt lat="44.85412959011511" lon="4.3169752402092065"><ele>1108.0</ele><time>2026-04-06T13:15:09Z</time></trkpt><trkpt lat="44.85412083103313" lon="4.316808897160667"><ele>1109.5</ele><time>2026-04-06T13:15:10Z</time></trkpt><trkpt lat="44.854105380903356" lon="4.316603442743126"><ele>1111.0</ele><time>2026-04-06T13:15:11Z</time></trkpt><trkpt lat="44.85410276042334" lon="4.316444354166332"><ele>1112.3999999999999</ele><time>2026-04-06T13:15:12Z</time></trkpt><trkpt lat="44.85408562260894" lon="4.316304041013338"><ele>1113.8</ele><time>2026-04-06T13:15:13Z</time></trkpt><trkpt lat="44.85404232495749" lon="4.316179231606942"><ele>1115.1999999999998</ele><time>2026-04-06T13:15:14Z</time></trkpt><trkpt lat="44.85396421210279" lon="4.316063989716503"><ele>1116.6</ele><time>2026-04-06T13:15:15Z</time></trkpt><trkpt lat="44.85388511602126" lon="4.315964240408474"><ele>1118.0</ele><time>2026-04-06T13:15:16Z</time></trkpt><trkpt lat="44.85381368809862" lon="4.315836152340016"><ele>1118.0</ele><time>2026-04-06T13:15:17Z</time></trkpt><trkpt lat="44.85373888014329" lon="4.315698665097531"><ele>1118.0</ele><time>2026-04-06T13:15:18Z</time></trkpt><trkpt lat="44.8536613109309" lon="4.315561953174249"><ele>1118.0</ele><time>2026-04-06T13:15:19Z</time></trkpt><trkpt lat="44.85359270800673" lon="4.315454066364533"><ele>1118.0</ele><time>2026-04-06T13:15:20Z</time></trkpt><trkpt lat="44.85349681572775" lon="4.315365428502382"><ele>1119.6</ele><time>2026-04-06T13:15:21Z</time></trkpt><trkpt lat="44.853391557360034" lon="4.315289433927003"><ele>1121.1999999999998</ele><time>2026-04-06T13:15:22Z</time></trkpt><trkpt lat="44.853284838837595" lon="4.315217168517146"><ele>1122.8</ele><time>2026-04-06T13:15:23Z</time></trkpt><trkpt lat="44.85319976110139" lon="4.315124917480384"><ele>1124.3999999999999</ele><time>2026-04-06T13:15:24Z</time></trkpt><trkpt lat="44.853131201570534" lon="4.3150158947863675"><ele>1126.0</ele><time>2026-04-06T13:15:25Z</time></trkpt><trkpt lat="44.85310606626367" lon="4.31488515717277"><ele>1126.0</ele><time>2026-04-06T13:15:26Z</time></trkpt><trkpt lat="44.85309352729218" lon="4.314750795627444"><ele>1126.0</ele><time>2026-04-06T13:15:27Z</time></trkpt><trkpt lat="44.85310148689355" lon="4.314649537046885"><ele>1126.0</ele><time>2026-04-06T13:15:28Z</time></trkpt><trkpt lat="44.85304165645868" lon="4.314541990979264"><ele>1126.0</ele><time>2026-04-06T13:15:30Z</time></trkpt><trkpt lat="44.85300097674479" lon="4.3144739016297695"><ele>1126.0</ele><time>2026-04-06T13:15:34Z</time></trkpt><trkpt lat="44.853051480962534" lon="4.314279503414661"><ele>1125.8333333333333</ele><time>2026-04-06T13:15:36Z</time></trkpt><trkpt lat="44.85308045361807" lon="4.314154491195639"><ele>1125.6666666666665</ele><time>2026-04-06T13:15:37Z</time></trkpt><trkpt lat="44.85310136907793" lon="4.314049974749991"><ele>1125.5</ele><time>2026-04-06T13:15:38Z</time></trkpt><trkpt lat="44.853107174670164" lon="4.313945253942685"><ele>1125.3333333333333</ele><time>2026-04-06T13:15:39Z</time></trkpt><trkpt lat="44.85309820477214" lon="4.313778761851897"><ele>1125.1666666666667</ele><time>2026-04-06T13:15:41Z</time></trkpt><trkpt lat="44.85309378454993" lon="4.313681025716188"><ele>1125.0</ele><time>2026-04-06T13:15:42Z</time></trkpt><trkpt lat="44.85305993078874" lon="4.3135966339685226"><ele>1125.0</ele><time>2026-04-06T13:15:43Z</time></trkpt><trkpt lat="44.85303749178527" lon="4.313505490451093"><ele>1125.0</ele><time>2026-04-06T13:15:44Z</time></trkpt><trkpt lat="44.85301167643593" lon="4.313411851392259"><ele>1125.0</ele><time>2026-04-06T13:15:45Z</time></trkpt><trkpt lat="44.85295820017643" lon="4.3132835352270815"><ele>1125.0</ele><time>2026-04-06T13:15:47Z</time></trkpt><trkpt lat="44.85291578053842" lon="4.313214400325323"><ele>1125.0</ele><time>2026-04-06T13:15:50Z</time></trkpt><trkpt lat="44.85286082980023" lon="4.313154776022971"><ele>1125.0</ele><time>2026-04-06T13:16:13Z</time></trkpt><trkpt lat="44.85286336235083" lon="4.3130351747962505"><ele>1123.1666666666667</ele><time>2026-04-06T13:16:44Z</time></trkpt><trkpt lat="44.85286718736738" lon="4.3129208564410595"><ele>1121.3333333333333</ele><time>2026-04-06T13:16:46Z</time></trkpt><trkpt lat="44.85286996546976" lon="4.312807058811031"><ele>1119.5</ele><time>2026-04-06T13:16:48Z</time></trkpt><trkpt lat="44.85284567299157" lon="4.312677221655123"><ele>1117.6666666666665</ele><time>2026-04-06T13:16:50Z</time></trkpt><trkpt lat="44.852823576101436" lon="4.312580382096083"><ele>1115.8333333333333</ele><time>2026-04-06T13:16:52Z</time></trkpt><trkpt lat="44.85277779955919" lon="4.3124400019624725"><ele>1114.0</ele><time>2026-04-06T13:16:54Z</time></trkpt><trkpt lat="44.85274457986638" lon="4.312321063833791"><ele>1111.0</ele><time>2026-04-06T13:16:56Z</time></trkpt><trkpt lat="44.852717503621705" lon="4.312197724007445"><ele>1108.0</ele><time>2026-04-06T13:16:58Z</time></trkpt><trkpt lat="44.85269315679258" lon="4.312087761967292"><ele>1105.0</ele><time>2026-04-06T13:17:00Z</time></trkpt><trkpt lat="44.85265143924768" lon="4.3119731102045815"><ele>1102.0</ele><time>2026-04-06T13:17:02Z</time></trkpt><trkpt lat="44.85258946191364" lon="4.31189655992371"><ele>1099.0</ele><time>2026-04-06T13:17:04Z</time></trkpt><trkpt lat="44.8525822141618" lon="4.311808084211828"><ele>1096.0</ele><time>2026-04-06T13:17:06Z</time></trkpt><trkpt lat="44.852544090553366" lon="4.3117021458587965"><ele>1095.6</ele><time>2026-04-06T13:17:08Z</time></trkpt><trkpt lat="44.85250643206099" lon="4.311570167878105"><ele>1095.1999999999998</ele><time>2026-04-06T13:17:10Z</time></trkpt><trkpt lat="44.852472058409774" lon="4.311448961897397"><ele>1094.8000000000002</ele><time>2026-04-06T13:17:12Z</time></trkpt><trkpt lat="44.85242494884729" lon="4.311330524098109"><ele>1094.4</ele><time>2026-04-06T13:17:14Z</time></trkpt><trkpt lat="44.85236547826707" lon="4.311192140094693"><ele>1094.0</ele><time>2026-04-06T13:17:16Z</time></trkpt><trkpt lat="44.85226526330639" lon="4.311103325914733"><ele>1092.0</ele><time>2026-04-06T13:17:18Z</time></trkpt><trkpt lat="44.852248871470266" lon="4.3110024109444085"><ele>1090.0</ele><time>2026-04-06T13:17:22Z</time></trkpt><trkpt lat="44.85221483880199" lon="4.310901354688081"><ele>1088.0</ele><time>2026-04-06T13:17:25Z</time></trkpt><trkpt lat="44.85216762595747" lon="4.310831203450561"><ele>1086.0</ele><time>2026-04-06T13:17:29Z</time></trkpt><trkpt lat="44.85218027944017" lon="4.310737012726497"><ele>1084.0</ele><time>2026-04-06T13:17:35Z</time></trkpt><trkpt lat="44.85208877146522" lon="4.310704138898715"><ele>1082.0</ele><time>2026-04-06T13:17:37Z</time></trkpt><trkpt lat="44.85199483700806" lon="4.310733961181457"><ele>1082.0</ele><time>2026-04-06T13:17:39Z</time></trkpt><trkpt lat="44.851931410694775" lon="4.310721308862469"><ele>1082.0</ele><time>2026-04-06T13:17:41Z</time></trkpt><trkpt lat="44.85185763041523" lon="4.3106902356157075"><ele>1082.0</ele><time>2026-04-06T13:17:44Z</time></trkpt><trkpt lat="44.851793856633286" lon="4.310656741432632"><ele>1082.0</ele><time>2026-04-06T13:17:46Z</time></trkpt><trkpt lat="44.85171085734641" lon="4.310670509242994"><ele>1082.0</ele><time>2026-04-06T13:17:48Z</time></trkpt><trkpt lat="44.85162537740076" lon="4.310698899460502"><ele>1082.0</ele><time>2026-04-06T13:17:51Z</time></trkpt><trkpt lat="44.851569580741774" lon="4.3107646338471985"><ele>1079.3333333333335</ele><time>2026-04-06T13:17:53Z</time></trkpt><trkpt lat="44.851516761856196" lon="4.310845751013267"><ele>1076.6666666666667</ele><time>2026-04-06T13:17:56Z</time></trkpt><trkpt lat="44.851454278710136" lon="4.310772309056059"><ele>1074.0</ele><time>2026-04-06T13:18:00Z</time></trkpt><trkpt lat="44.85146210618319" lon="4.3106779044367896"><ele>1071.3333333333333</ele><time>2026-04-06T13:18:05Z</time></trkpt><trkpt lat="44.85140768654347" lon="4.3106010284856"><ele>1068.6666666666665</ele><time>2026-04-06T13:18:08Z</time></trkpt><trkpt lat="44.85133705378479" lon="4.3105983992066585"><ele>1066.0</ele><time>2026-04-06T13:18:10Z</time></trkpt><trkpt lat="44.85125885260757" lon="4.310637380150705"><ele>1066.0</ele><time>2026-04-06T13:18:13Z</time></trkpt><trkpt lat="44.8512146779873" lon="4.31071950262013"><ele>1066.0</ele><time>2026-04-06T13:18:16Z</time></trkpt><trkpt lat="44.85114617225941" lon="4.310697209193521"><ele>1066.0</ele><time>2026-04-06T13:18:23Z</time></trkpt><trkpt lat="44.851129391927955" lon="4.310594801816958"><ele>1066.0</ele><time>2026-04-06T13:18:33Z</time></trkpt><trkpt lat="44.85108441435727" lon="4.310675508558305"><ele>1066.0</ele><time>2026-04-06T13:18:39Z</time></trkpt><trkpt lat="44.85105749834718" lon="4.310756161315331"><ele>1066.0</ele><time>2026-04-06T13:19:05Z</time></trkpt><trkpt lat="44.85099165919692" lon="4.310657625135647"><ele>1064.1666666666665</ele><time>2026-04-06T13:19:18Z</time></trkpt><trkpt lat="44.85098534929262" lon="4.31054798118581"><ele>1062.3333333333333</ele><time>2026-04-06T13:19:21Z</time></trkpt><trkpt lat="44.85096353401038" lon="4.3104309598834805"><ele>1060.5</ele><time>2026-04-06T13:19:28Z</time></trkpt><trkpt lat="44.85096875520417" lon="4.310321676043263"><ele>1058.6666666666667</ele><time>2026-04-06T13:19:32Z</time></trkpt><trkpt lat="44.85093352812897" lon="4.31024556054606"><ele>1056.8333333333335</ele><time>2026-04-06T13:19:39Z</time></trkpt><trkpt lat="44.85085935848191" lon="4.310317153122626"><ele>1055.0</ele><time>2026-04-06T13:19:46Z</time></trkpt><trkpt lat="44.85082788950755" lon="4.310223891844139"><ele>1050.6666666666667</ele><time>2026-04-06T13:19:49Z</time></trkpt><trkpt lat="44.85083901101556" lon="4.310101949638784"><ele>1046.3333333333335</ele><time>2026-04-06T13:19:51Z</time></trkpt><trkpt lat="44.8508553603533" lon="4.309992537689897"><ele>1042.0</ele><time>2026-04-06T13:19:53Z</time></trkpt><trkpt lat="44.85086771186179" lon="4.309873580856642"><ele>1037.6666666666667</ele><time>2026-04-06T13:19:56Z</time></trkpt><trkpt lat="44.85091906136595" lon="4.309781300105157"><ele>1033.3333333333333</ele><time>2026-04-06T13:19:59Z</time></trkpt><trkpt lat="44.850920006351764" lon="4.309681050876618"><ele>1029.0</ele><time>2026-04-06T13:20:01Z</time></trkpt><trkpt lat="44.85088651800091" lon="4.309543108140402"><ele>1026.2</ele><time>2026-04-06T13:20:05Z</time></trkpt><trkpt lat="44.850827266578534" lon="4.309480388732991"><ele>1023.4000000000001</ele><time>2026-04-06T13:20:07Z</time></trkpt><trkpt lat="44.850804988857526" lon="4.309384937595045"><ele>1020.6</ele><time>2026-04-06T13:20:09Z</time></trkpt><trkpt lat="44.850754930525554" lon="4.309251147461065"><ele>1017.8</ele><time>2026-04-06T13:20:12Z</time></trkpt><trkpt lat="44.85067792764866" lon="4.309006806810241"><ele>1015.0</ele><time>2026-04-06T13:20:17Z</time></trkpt><trkpt lat="44.85063523804489" lon="4.308872473294751"><ele>1013.8</ele><time>2026-04-06T13:20:19Z</time></trkpt><trkpt lat="44.85056107601293" lon="4.308826455629337"><ele>1012.6</ele><time>2026-04-06T13:20:22Z</time></trkpt><trkpt lat="44.85048989932513" lon="4.308853538701544"><ele>1011.4000000000001</ele><time>2026-04-06T13:20:25Z</time></trkpt><trkpt lat="44.85043051250806" lon="4.3087842690663205"><ele>1010.2</ele><time>2026-04-06T13:20:29Z</time></trkpt><trkpt lat="44.85047147672433" lon="4.308690439864336"><ele>1009.0</ele><time>2026-04-06T13:20:32Z</time></trkpt><trkpt lat="44.850464734525616" lon="4.308488623070231"><ele>1008.9999999999999</ele><time>2026-04-06T13:20:34Z</time></trkpt><trkpt lat="44.85038171657335" lon="4.3084115753623635"><ele>1009.0</ele><time>2026-04-06T13:20:36Z</time></trkpt><trkpt lat="44.850383575752765" lon="4.308307669358801"><ele>1009.0</ele><time>2026-04-06T13:21:49Z</time></trkpt><trkpt lat="44.85036856355767" lon="4.3082042291799905"><ele>1009.0</ele><time>2026-04-06T13:21:50Z</time></trkpt><trkpt lat="44.85033524743469" lon="4.308080854275111"><ele>1008.9999999999999</ele><time>2026-04-06T13:21:51Z</time></trkpt><trkpt lat="44.850310898194614" lon="4.3079582378552645"><ele>1009.0</ele><time>2026-04-06T13:21:52Z</time></trkpt><trkpt lat="44.85028467130332" lon="4.30783359600373"><ele>1007.8333333333333</ele><time>2026-04-06T13:21:53Z</time></trkpt><trkpt lat="44.85027987460799" lon="4.307708009637376"><ele>1006.6666666666666</ele><time>2026-04-06T13:21:54Z</time></trkpt><trkpt lat="44.850263721472345" lon="4.307586754657405"><ele>1005.5</ele><time>2026-04-06T13:21:55Z</time></trkpt><trkpt lat="44.850249601134955" lon="4.307462918533886"><ele>1004.3333333333333</ele><time>2026-04-06T13:21:56Z</time></trkpt><trkpt lat="44.85022714762995" lon="4.307338636311247"><ele>1003.1666666666666</ele><time>2026-04-06T13:21:57Z</time></trkpt><trkpt lat="44.85019553179719" lon="4.307219891300989"><ele>1002.0</ele><time>2026-04-06T13:21:58Z</time></trkpt><trkpt lat="44.850153166682375" lon="4.307109344378189"><ele>1004.3333333333334</ele><time>2026-04-06T13:21:59Z</time></trkpt><trkpt lat="44.850081667307464" lon="4.307022876318434"><ele>1006.6666666666667</ele><time>2026-04-06T13:22:00Z</time></trkpt><trkpt lat="44.85001128461075" lon="4.306940262292506"><ele>1009.0</ele><time>2026-04-06T13:22:01Z</time></trkpt><trkpt lat="44.84993833047083" lon="4.306867344233849"><ele>1011.3333333333334</ele><time>2026-04-06T13:22:02Z</time></trkpt><trkpt lat="44.84986755889" lon="4.306801317338559"><ele>1013.6666666666667</ele><time>2026-04-06T13:22:03Z</time></trkpt><trkpt lat="44.84979263123235" lon="4.306733755822727"><ele>1016.0</ele><time>2026-04-06T13:22:04Z</time></trkpt><trkpt lat="44.84971033546438" lon="4.30664923252078"><ele>1016.0</ele><time>2026-04-06T13:22:05Z</time></trkpt><trkpt lat="44.84964941428045" lon="4.306594500897545"><ele>1015.9999999999999</ele><time>2026-04-06T13:22:06Z</time></trkpt><trkpt lat="44.849550750589884" lon="4.306565576181241"><ele>1015.9999999999999</ele><time>2026-04-06T13:22:07Z</time></trkpt><trkpt lat="44.8494313258409" lon="4.306578286817829"><ele>1016.0</ele><time>2026-04-06T13:22:08Z</time></trkpt><trkpt lat="44.84931149969541" lon="4.3066121014242285"><ele>1016.0</ele><time>2026-04-06T13:22:09Z</time></trkpt><trkpt lat="44.84920105789421" lon="4.3066282835467735"><ele>1016.4</ele><time>2026-04-06T13:22:10Z</time></trkpt><trkpt lat="44.84910175131994" lon="4.306656789036251"><ele>1016.8</ele><time>2026-04-06T13:22:11Z</time></trkpt><trkpt lat="44.849019897736795" lon="4.306662230821449"><ele>1017.1999999999999</ele><time>2026-04-06T13:22:12Z</time></trkpt><trkpt lat="44.84893884461627" lon="4.306598121962204"><ele>1017.5999999999999</ele><time>2026-04-06T13:22:13Z</time></trkpt><trkpt lat="44.84886522239666" lon="4.30650716649332"><ele>1018.0</ele><time>2026-04-06T13:22:14Z</time></trkpt><trkpt lat="44.8488361718013" lon="4.306368794746263"><ele>1021.0</ele><time>2026-04-06T13:22:15Z</time></trkpt><trkpt lat="44.848777029067804" lon="4.306254445855303"><ele>1024.0</ele><time>2026-04-06T13:22:16Z</time></trkpt><trkpt lat="44.84868555210216" lon="4.306161827535358"><ele>1027.0</ele><time>2026-04-06T13:22:17Z</time></trkpt><trkpt lat="44.8485896648412" lon="4.306085708870737"><ele>1030.0</ele><time>2026-04-06T13:22:18Z</time></trkpt><trkpt lat="44.848498879529025" lon="4.306045450496621"><ele>1033.0</ele><time>2026-04-06T13:22:19Z</time></trkpt><trkpt lat="44.8483798521219" lon="4.3060222205368905"><ele>1033.0</ele><time>2026-04-06T13:22:20Z</time></trkpt><trkpt lat="44.848250723644796" lon="4.306006267459077"><ele>1033.0</ele><time>2026-04-06T13:22:21Z</time></trkpt><trkpt lat="44.84813831148349" lon="4.30597017320466"><ele>1033.0</ele><time>2026-04-06T13:22:22Z</time></trkpt><trkpt lat="44.84802622869909" lon="4.305912375953201"><ele>1033.0</ele><time>2026-04-06T13:22:23Z</time></trkpt><trkpt lat="44.84791726599425" lon="4.305827700761663"><ele>1033.0</ele><time>2026-04-06T13:22:24Z</time></trkpt><trkpt lat="44.847829873587294" lon="4.305702455388524"><ele>1033.0</ele><time>2026-04-06T13:22:25Z</time></trkpt><trkpt lat="44.84776436250526" lon="4.305565020876527"><ele>1033.0</ele><time>2026-04-06T13:22:26Z</time></trkpt><trkpt lat="44.847701657973886" lon="4.3054426165961805"><ele>1033.0</ele><time>2026-04-06T13:22:27Z</time></trkpt><trkpt lat="44.84764243515109" lon="4.305318855426773"><ele>1032.8333333333333</ele><time>2026-04-06T13:22:28Z</time></trkpt><trkpt lat="44.847603580427915" lon="4.305190488753259"><ele>1032.6666666666665</ele><time>2026-04-06T13:22:29Z</time></trkpt><trkpt lat="44.8475540697686" lon="4.305085871637792"><ele>1032.5</ele><time>2026-04-06T13:22:30Z</time></trkpt><trkpt lat="44.8475030388366" lon="4.30497329227893"><ele>1032.3333333333333</ele><time>2026-04-06T13:22:31Z</time></trkpt><trkpt lat="44.84745430886463" lon="4.3048791439779155"><ele>1032.1666666666667</ele><time>2026-04-06T13:22:32Z</time></trkpt><trkpt lat="44.84742004443059" lon="4.3048002104854906"><ele>1032.0</ele><time>2026-04-06T13:22:33Z</time></trkpt><trkpt lat="44.847405637327206" lon="4.304703964111612"><ele>1031.4</ele><time>2026-04-06T13:22:34Z</time></trkpt><trkpt lat="44.84741454223676" lon="4.304598104943692"><ele>1030.8000000000002</ele><time>2026-04-06T13:22:35Z</time></trkpt><trkpt lat="44.84741911190259" lon="4.304487331787673"><ele>1030.2</ele><time>2026-04-06T13:22:36Z</time></trkpt><trkpt lat="44.8475288764272" lon="4.304396472967987"><ele>1029.6000000000001</ele><time>2026-04-06T13:22:37Z</time></trkpt><trkpt lat="44.8476199131506" lon="4.3043214561672825"><ele>1029.0</ele><time>2026-04-06T13:22:38Z</time></trkpt><trkpt lat="44.847711659225965" lon="4.304253304622844"><ele>1032.25</ele><time>2026-04-06T13:22:39Z</time></trkpt><trkpt lat="44.84777609307426" lon="4.304130583141722"><ele>1035.5</ele><time>2026-04-06T13:22:40Z</time></trkpt><trkpt lat="44.8478122239539" lon="4.3040055721603085"><ele>1038.75</ele><time>2026-04-06T13:22:41Z</time></trkpt><trkpt lat="44.847859998037165" lon="4.303842829987914"><ele>1042.0</ele><time>2026-04-06T13:22:42Z</time></trkpt><trkpt lat="44.84788451481151" lon="4.303664739446922"><ele>1042.0</ele><time>2026-04-06T13:22:43Z</time></trkpt><trkpt lat="44.8479103288687" lon="4.303509569132129"><ele>1042.0</ele><time>2026-04-06T13:22:44Z</time></trkpt><trkpt lat="44.84794377284045" lon="4.303355086981851"><ele>1042.0</ele><time>2026-04-06T13:22:45Z</time></trkpt><trkpt lat="44.84798218676804" lon="4.303218786279395"><ele>1042.0</ele><time>2026-04-06T13:22:46Z</time></trkpt><trkpt lat="44.84801854073097" lon="4.303064374654909"><ele>1042.0</ele><time>2026-04-06T13:22:47Z</time></trkpt><trkpt lat="44.84805629697602" lon="4.302907209421308"><ele>1042.8</ele><time>2026-04-06T13:22:48Z</time></trkpt><trkpt lat="44.84808662960611" lon="4.302769507659699"><ele>1043.6</ele><time>2026-04-06T13:22:49Z</time></trkpt><trkpt lat="44.84809476596673" lon="4.302628030185273"><ele>1044.3999999999999</ele><time>2026-04-06T13:22:50Z</time></trkpt><trkpt lat="44.84806545398679" lon="4.302488737225208"><ele>1045.2</ele><time>2026-04-06T13:22:51Z</time></trkpt><trkpt lat="44.848000025785545" lon="4.302356817969261"><ele>1046.0</ele><time>2026-04-06T13:22:52Z</time></trkpt><trkpt lat="44.84793700515744" lon="4.302243740132881"><ele>1046.6</ele><time>2026-04-06T13:22:53Z</time></trkpt><trkpt lat="44.84788460484782" lon="4.302115154680902"><ele>1047.1999999999998</ele><time>2026-04-06T13:22:54Z</time></trkpt><trkpt lat="44.847845034200084" lon="4.301973147124278"><ele>1047.8000000000002</ele><time>2026-04-06T13:22:55Z</time></trkpt><trkpt lat="44.8478249859101" lon="4.301821900767095"><ele>1048.4</ele><time>2026-04-06T13:22:56Z</time></trkpt><trkpt lat="44.847835117746286" lon="4.301652729485878"><ele>1049.0</ele><time>2026-04-06T13:22:57Z</time></trkpt><trkpt lat="44.847887299448125" lon="4.301464535310715"><ele>1046.25</ele><time>2026-04-06T13:22:58Z</time></trkpt><trkpt lat="44.84793926144004" lon="4.301298265127724"><ele>1043.5</ele><time>2026-04-06T13:22:59Z</time></trkpt><trkpt lat="44.84799025364623" lon="4.301152897074249"><ele>1040.75</ele><time>2026-04-06T13:23:00Z</time></trkpt><trkpt lat="44.84803660055668" lon="4.301010783947981"><ele>1038.0</ele><time>2026-04-06T13:23:01Z</time></trkpt><trkpt lat="44.84808199200779" lon="4.300883180997571"><ele>1038.0</ele><time>2026-04-06T13:23:02Z</time></trkpt><trkpt lat="44.84811777827561" lon="4.300766076535326"><ele>1038.0</ele><time>2026-04-06T13:23:03Z</time></trkpt><trkpt lat="44.848156391321474" lon="4.300657947167518"><ele>1038.0</ele><time>2026-04-06T13:23:04Z</time></trkpt><trkpt lat="44.84818191556101" lon="4.300561875194721"><ele>1038.0</ele><time>2026-04-06T13:23:05Z</time></trkpt><trkpt lat="44.848200798995855" lon="4.300433089566428"><ele>1038.0</ele><time>2026-04-06T13:23:07Z</time></trkpt><trkpt lat="44.84820799368694" lon="4.300343783101969"><ele>1038.0</ele><time>2026-04-06T13:23:09Z</time></trkpt><trkpt lat="44.84822358234798" lon="4.300170263845505"><ele>1036.6</ele><time>2026-04-06T13:23:21Z</time></trkpt><trkpt lat="44.8481659085351" lon="4.300072316515722"><ele>1035.1999999999998</ele><time>2026-04-06T13:23:22Z</time></trkpt><trkpt lat="44.84814528982437" lon="4.299957577288022"><ele>1033.8</ele><time>2026-04-06T13:23:23Z</time></trkpt><trkpt lat="44.84814214553952" lon="4.299834904522521"><ele>1032.3999999999999</ele><time>2026-04-06T13:23:24Z</time></trkpt><trkpt lat="44.84818439943286" lon="4.299706646154264"><ele>1031.0</ele><time>2026-04-06T13:23:25Z</time></trkpt><trkpt lat="44.84826937266917" lon="4.299600900894011"><ele>1030.8</ele><time>2026-04-06T13:23:26Z</time></trkpt><trkpt lat="44.84832843047988" lon="4.2994892260176485"><ele>1030.6</ele><time>2026-04-06T13:23:27Z</time></trkpt><trkpt lat="44.84838510641265" lon="4.299385299516399"><ele>1030.4</ele><time>2026-04-06T13:23:28Z</time></trkpt><trkpt lat="44.84844670663866" lon="4.299288066740736"><ele>1030.2</ele><time>2026-04-06T13:23:29Z</time></trkpt><trkpt lat="44.84851270686886" lon="4.2991934634460245"><ele>1030.0</ele><time>2026-04-06T13:23:30Z</time></trkpt><trkpt lat="44.8485772294679" lon="4.299090399603778"><ele>1030.0</ele><time>2026-04-06T13:23:31Z</time></trkpt><trkpt lat="44.84862046522461" lon="4.298973651534872"><ele>1030.0</ele><time>2026-04-06T13:23:32Z</time></trkpt><trkpt lat="44.84864425609575" lon="4.298835943844571"><ele>1030.0</ele><time>2026-04-06T13:23:33Z</time></trkpt><trkpt lat="44.84864835844088" lon="4.29869912825956"><ele>1030.0</ele><time>2026-04-06T13:23:34Z</time></trkpt><trkpt lat="44.84862080522656" lon="4.29857549869496"><ele>1030.0</ele><time>2026-04-06T13:23:35Z</time></trkpt><trkpt lat="44.84861809344956" lon="4.298465331546584"><ele>1030.6666666666665</ele><time>2026-04-06T13:23:36Z</time></trkpt><trkpt lat="44.84863682192167" lon="4.298369269795605"><ele>1031.3333333333333</ele><time>2026-04-06T13:23:37Z</time></trkpt><trkpt lat="44.84864048283163" lon="4.298270671556607"><ele>1032.0</ele><time>2026-04-06T13:23:38Z</time></trkpt><trkpt lat="44.84865104503556" lon="4.298165453202778"><ele>1032.6666666666667</ele><time>2026-04-06T13:23:39Z</time></trkpt><trkpt lat="44.84865191793651" lon="4.298054673133382"><ele>1033.3333333333335</ele><time>2026-04-06T13:23:40Z</time></trkpt><trkpt lat="44.84867596722119" lon="4.297955794702702"><ele>1034.0</ele><time>2026-04-06T13:23:41Z</time></trkpt><trkpt lat="44.848671480864255" lon="4.297834713173925"><ele>1034.0</ele><time>2026-04-06T13:23:42Z</time></trkpt><trkpt lat="44.84868116439434" lon="4.297711863300295"><ele>1034.0</ele><time>2026-04-06T13:23:43Z</time></trkpt><trkpt lat="44.84868598198865" lon="4.2975946637358255"><ele>1034.0</ele><time>2026-04-06T13:23:44Z</time></trkpt><trkpt lat="44.848678017220806" lon="4.297462413393376"><ele>1034.0</ele><time>2026-04-06T13:23:45Z</time></trkpt><trkpt lat="44.848654200253264" lon="4.297338733777716"><ele>1034.0</ele><time>2026-04-06T13:23:46Z</time></trkpt><trkpt lat="44.84858961577217" lon="4.297235502481525"><ele>1035.8</ele><time>2026-04-06T13:23:47Z</time></trkpt><trkpt lat="44.84851161277497" lon="4.2971567857333826"><ele>1037.6000000000001</ele><time>2026-04-06T13:23:48Z</time></trkpt><trkpt lat="44.84842251080337" lon="4.297064046331736"><ele>1039.4</ele><time>2026-04-06T13:23:49Z</time></trkpt><trkpt lat="44.848337180489594" lon="4.296998028134133"><ele>1041.2</ele><time>2026-04-06T13:23:50Z</time></trkpt><trkpt lat="44.848249497025854" lon="4.296943023744302"><ele>1043.0</ele><time>2026-04-06T13:23:51Z</time></trkpt><trkpt lat="44.84817438985923" lon="4.296881975526663"><ele>1043.0</ele><time>2026-04-06T13:23:52Z</time></trkpt><trkpt lat="44.84808884581285" lon="4.2968498832680835"><ele>1043.0</ele><time>2026-04-06T13:23:53Z</time></trkpt><trkpt lat="44.84797528767239" lon="4.296847431945825"><ele>1043.0</ele><time>2026-04-06T13:23:54Z</time></trkpt><trkpt lat="44.8478589534066" lon="4.2968464553507255"><ele>1043.0</ele><time>2026-04-06T13:23:55Z</time></trkpt><trkpt lat="44.84774798013847" lon="4.296828431217749"><ele>1043.0</ele><time>2026-04-06T13:23:56Z</time></trkpt><trkpt lat="44.847646905830125" lon="4.296789898372062"><ele>1041.5</ele><time>2026-04-06T13:23:57Z</time></trkpt><trkpt lat="44.84753046791789" lon="4.296769789534928"><ele>1040.0</ele><time>2026-04-06T13:23:58Z</time></trkpt><trkpt lat="44.84741218028741" lon="4.296752050438809"><ele>1038.5</ele><time>2026-04-06T13:23:59Z</time></trkpt><trkpt lat="44.8473019416291" lon="4.296743621327023"><ele>1037.0</ele><time>2026-04-06T13:24:00Z</time></trkpt><trkpt lat="44.84718892189252" lon="4.296722091869752"><ele>1037.0</ele><time>2026-04-06T13:24:01Z</time></trkpt><trkpt lat="44.84708858356235" lon="4.2967181148234115"><ele>1037.0</ele><time>2026-04-06T13:24:02Z</time></trkpt><trkpt lat="44.84699108811526" lon="4.296730140103956"><ele>1037.0</ele><time>2026-04-06T13:24:03Z</time></trkpt><trkpt lat="44.846894514814196" lon="4.296759795314979"><ele>1037.0</ele><time>2026-04-06T13:24:04Z</time></trkpt><trkpt lat="44.84679935091812" lon="4.296800846658589"><ele>1037.0</ele><time>2026-04-06T13:24:05Z</time></trkpt><trkpt lat="44.84670364051377" lon="4.296832498108047"><ele>1037.2</ele><time>2026-04-06T13:24:06Z</time></trkpt><trkpt lat="44.84660954531271" lon="4.296866071263359"><ele>1037.4</ele><time>2026-04-06T13:24:07Z</time></trkpt><trkpt lat="44.84651421332411" lon="4.296896197437911"><ele>1037.6</ele><time>2026-04-06T13:24:08Z</time></trkpt><trkpt lat="44.84641656783727" lon="4.296914526310475"><ele>1037.8</ele><time>2026-04-06T13:24:09Z</time></trkpt><trkpt lat="44.84631790758629" lon="4.296926790581302"><ele>1038.0</ele><time>2026-04-06T13:24:10Z</time></trkpt><trkpt lat="44.846224652713914" lon="4.296913812598997"><ele>1038.0</ele><time>2026-04-06T13:24:11Z</time></trkpt><trkpt lat="44.84613321801623" lon="4.296878401396293"><ele>1038.0</ele><time>2026-04-06T13:24:12Z</time></trkpt><trkpt lat="44.846045397282886" lon="4.296837315791833"><ele>1038.0</ele><time>2026-04-06T13:24:13Z</time></trkpt><trkpt lat="44.84595763429003" lon="4.296781453423983"><ele>1038.0</ele><time>2026-04-06T13:24:14Z</time></trkpt><trkpt lat="44.84586696949304" lon="4.296732551348519"><ele>1038.0</ele><time>2026-04-06T13:24:15Z</time></trkpt><trkpt lat="44.8457752333267" lon="4.296657784191227"><ele>1037.8</ele><time>2026-04-06T13:24:16Z</time></trkpt><trkpt lat="44.84567665863976" lon="4.296593106508457"><ele>1037.6</ele><time>2026-04-06T13:24:17Z</time></trkpt><trkpt lat="44.845574589468505" lon="4.296521223041154"><ele>1037.4</ele><time>2026-04-06T13:24:18Z</time></trkpt><trkpt lat="44.84548871977207" lon="4.296445842263615"><ele>1037.2</ele><time>2026-04-06T13:24:19Z</time></trkpt><trkpt lat="44.84543007054267" lon="4.296344205865046"><ele>1037.0</ele><time>2026-04-06T13:24:20Z</time></trkpt><trkpt lat="44.84541905003785" lon="4.296226587676083"><ele>1037.0</ele><time>2026-04-06T13:24:21Z</time></trkpt><trkpt lat="44.84542164439975" lon="4.296082422832767"><ele>1037.0</ele><time>2026-04-06T13:24:22Z</time></trkpt><trkpt lat="44.845486950048205" lon="4.295944216960691"><ele>1037.0</ele><time>2026-04-06T13:24:23Z</time></trkpt><trkpt lat="44.84556418418154" lon="4.2958130206041"><ele>1037.0</ele><time>2026-04-06T13:24:24Z</time></trkpt><trkpt lat="44.84566106138757" lon="4.295719190253934"><ele>1037.0</ele><time>2026-04-06T13:24:25Z</time></trkpt><trkpt lat="44.84574940447033" lon="4.295643139845719"><ele>1037.0</ele><time>2026-04-06T13:24:26Z</time></trkpt><trkpt lat="44.84585363354756" lon="4.295577129320395"><ele>1037.0</ele><time>2026-04-06T13:24:27Z</time></trkpt><trkpt lat="44.84597205120174" lon="4.295536600210283"><ele>1037.0</ele><time>2026-04-06T13:24:28Z</time></trkpt><trkpt lat="44.84608436159846" lon="4.2955030385299855"><ele>1037.5</ele><time>2026-04-06T13:24:29Z</time></trkpt><trkpt lat="44.84620324606205" lon="4.2954804419545605"><ele>1038.0</ele><time>2026-04-06T13:24:30Z</time></trkpt><trkpt lat="44.846317953799485" lon="4.295457945388796"><ele>1038.5</ele><time>2026-04-06T13:24:31Z</time></trkpt><trkpt lat="44.84642500322413" lon="4.295404894103997"><ele>1039.0</ele><time>2026-04-06T13:24:32Z</time></trkpt><trkpt lat="44.84652870117416" lon="4.295324754865614"><ele>1039.0</ele><time>2026-04-06T13:24:33Z</time></trkpt><trkpt lat="44.84662493835014" lon="4.29522957741602"><ele>1039.0</ele><time>2026-04-06T13:24:34Z</time></trkpt><trkpt lat="44.846715575483906" lon="4.295120146974529"><ele>1039.0</ele><time>2026-04-06T13:24:35Z</time></trkpt><trkpt lat="44.84676284266443" lon="4.294957910327547"><ele>1039.0</ele><time>2026-04-06T13:24:36Z</time></trkpt><trkpt lat="44.84681719302276" lon="4.29480749552237"><ele>1043.25</ele><time>2026-04-06T13:24:37Z</time></trkpt><trkpt lat="44.84688155430631" lon="4.2946588500752005"><ele>1047.5</ele><time>2026-04-06T13:24:38Z</time></trkpt><trkpt lat="44.846933998928705" lon="4.294499942128066"><ele>1051.75</ele><time>2026-04-06T13:24:39Z</time></trkpt><trkpt lat="44.84699561376657" lon="4.294349573242932"><ele>1056.0</ele><time>2026-04-06T13:24:40Z</time></trkpt><trkpt lat="44.84706608342011" lon="4.294203667111897"><ele>1056.0</ele><time>2026-04-06T13:24:41Z</time></trkpt><trkpt lat="44.84714581635574" lon="4.294063921259615"><ele>1056.0</ele><time>2026-04-06T13:24:42Z</time></trkpt><trkpt lat="44.84722807390498" lon="4.293926809656395"><ele>1056.0</ele><time>2026-04-06T13:24:43Z</time></trkpt><trkpt lat="44.84730653536241" lon="4.293791918676953"><ele>1056.0</ele><time>2026-04-06T13:24:44Z</time></trkpt><trkpt lat="44.8473941596828" lon="4.293659505829046"><ele>1056.0</ele><time>2026-04-06T13:24:45Z</time></trkpt><trkpt lat="44.84748299408939" lon="4.293519206151885"><ele>1056.0</ele><time>2026-04-06T13:24:46Z</time></trkpt><trkpt lat="44.84755484913683" lon="4.293381235302653"><ele>1056.0</ele><time>2026-04-06T13:24:47Z</time></trkpt><trkpt lat="44.847626695271096" lon="4.29323656738021"><ele>1056.0</ele><time>2026-04-06T13:24:48Z</time></trkpt><trkpt lat="44.84769820979448" lon="4.293077572337219"><ele>1056.0</ele><time>2026-04-06T13:24:49Z</time></trkpt><trkpt lat="44.847764389924365" lon="4.292936230824172"><ele>1056.0</ele><time>2026-04-06T13:24:50Z</time></trkpt><trkpt lat="44.84783293116743" lon="4.292794304108695"><ele>1056.0</ele><time>2026-04-06T13:24:51Z</time></trkpt><trkpt lat="44.84786156727625" lon="4.292618720625278"><ele>1056.0</ele><time>2026-04-06T13:24:52Z</time></trkpt><trkpt lat="44.84789733765409" lon="4.292452435917738"><ele>1056.0</ele><time>2026-04-06T13:24:53Z</time></trkpt><trkpt lat="44.84793344425016" lon="4.29227055494085"><ele>1056.0</ele><time>2026-04-06T13:24:54Z</time></trkpt><trkpt lat="44.84796913197725" lon="4.2920907839186455"><ele>1056.0</ele><time>2026-04-06T13:24:55Z</time></trkpt><trkpt lat="44.84800801970521" lon="4.291910112424207"><ele>1056.0</ele><time>2026-04-06T13:24:56Z</time></trkpt><trkpt lat="44.848047702511394" lon="4.2917325020205315"><ele>1054.5</ele><time>2026-04-06T13:24:57Z</time></trkpt><trkpt lat="44.84808839648202" lon="4.29155616419915"><ele>1053.0</ele><time>2026-04-06T13:24:58Z</time></trkpt><trkpt lat="44.84812876621595" lon="4.291394356173309"><ele>1051.5</ele><time>2026-04-06T13:24:59Z</time></trkpt><trkpt lat="44.84819307688879" lon="4.291231379157103"><ele>1050.0</ele><time>2026-04-06T13:25:00Z</time></trkpt><trkpt lat="44.84825565333701" lon="4.291059299662899"><ele>1050.25</ele><time>2026-04-06T13:25:01Z</time></trkpt><trkpt lat="44.84832120972717" lon="4.290888705934117"><ele>1050.5</ele><time>2026-04-06T13:25:02Z</time></trkpt><trkpt lat="44.84839095717099" lon="4.290722989850471"><ele>1050.75</ele><time>2026-04-06T13:25:03Z</time></trkpt><trkpt lat="44.84846481520551" lon="4.290557336659135"><ele>1051.0</ele><time>2026-04-06T13:25:04Z</time></trkpt><trkpt lat="44.84855265456889" lon="4.290398043317269"><ele>1051.0</ele><time>2026-04-06T13:25:05Z</time></trkpt><trkpt lat="44.84864315585125" lon="4.290248013067035"><ele>1051.0</ele><time>2026-04-06T13:25:06Z</time></trkpt><trkpt lat="44.848744033865806" lon="4.290102854943353"><ele>1051.0</ele><time>2026-04-06T13:25:07Z</time></trkpt><trkpt lat="44.848828965737496" lon="4.289951766396676"><ele>1051.0</ele><time>2026-04-06T13:25:08Z</time></trkpt><trkpt lat="44.84891341772333" lon="4.2898145401039205"><ele>1047.25</ele><time>2026-04-06T13:25:09Z</time></trkpt><trkpt lat="44.84898910807078" lon="4.289675863009055"><ele>1043.5</ele><time>2026-04-06T13:25:10Z</time></trkpt><trkpt lat="44.84905670388196" lon="4.289523623580101"><ele>1039.75</ele><time>2026-04-06T13:25:11Z</time></trkpt><trkpt lat="44.849113338622395" lon="4.289365974762691"><ele>1036.0</ele><time>2026-04-06T13:25:12Z</time></trkpt><trkpt lat="44.84915950279036" lon="4.289208132399642"><ele>1036.0</ele><time>2026-04-06T13:25:13Z</time></trkpt><trkpt lat="44.849198705858946" lon="4.289042084605433"><ele>1036.0</ele><time>2026-04-06T13:25:14Z</time></trkpt><trkpt lat="44.84926473569023" lon="4.28888783589553"><ele>1036.0</ele><time>2026-04-06T13:25:15Z</time></trkpt><trkpt lat="44.84932608700506" lon="4.288730444461644"><ele>1036.0</ele><time>2026-04-06T13:25:16Z</time></trkpt><trkpt lat="44.84939337401141" lon="4.288600272569569"><ele>1036.0</ele><time>2026-04-06T13:25:17Z</time></trkpt><trkpt lat="44.84944992301449" lon="4.2884541736574"><ele>1036.0</ele><time>2026-04-06T13:25:18Z</time></trkpt><trkpt lat="44.849493572571895" lon="4.288314566855807"><ele>1036.0</ele><time>2026-04-06T13:25:19Z</time></trkpt><trkpt lat="44.84951639263355" lon="4.288161168700514"><ele>1036.0</ele><time>2026-04-06T13:25:20Z</time></trkpt><trkpt lat="44.84951460153861" lon="4.288006442073871"><ele>1036.0</ele><time>2026-04-06T13:25:21Z</time></trkpt><trkpt lat="44.84947850045997" lon="4.287853599471136"><ele>1034.75</ele><time>2026-04-06T13:25:22Z</time></trkpt><trkpt lat="44.84940747052526" lon="4.287729558825052"><ele>1033.5</ele><time>2026-04-06T13:25:23Z</time></trkpt><trkpt lat="44.84930310302809" lon="4.287654083217942"><ele>1032.25</ele><time>2026-04-06T13:25:24Z</time></trkpt><trkpt lat="44.84918726620225" lon="4.28762157363637"><ele>1031.0</ele><time>2026-04-06T13:25:25Z</time></trkpt><trkpt lat="44.84907161331108" lon="4.2875977539166525"><ele>1031.0</ele><time>2026-04-06T13:25:26Z</time></trkpt><trkpt lat="44.848961598561644" lon="4.287549985903753"><ele>1031.0</ele><time>2026-04-06T13:25:27Z</time></trkpt><trkpt lat="44.848858747674264" lon="4.287451020186736"><ele>1031.0</ele><time>2026-04-06T13:25:28Z</time></trkpt><trkpt lat="44.84877781644457" lon="4.287298238697413"><ele>1031.0</ele><time>2026-04-06T13:25:29Z</time></trkpt><trkpt lat="44.84866832747884" lon="4.287147934230741"><ele>1031.25</ele><time>2026-04-06T13:25:30Z</time></trkpt><trkpt lat="44.84856272830482" lon="4.287053062084273"><ele>1031.5</ele><time>2026-04-06T13:25:31Z</time></trkpt><trkpt lat="44.84842658174176" lon="4.286974494158032"><ele>1031.75</ele><time>2026-04-06T13:25:32Z</time></trkpt><trkpt lat="44.84831072146517" lon="4.286892181734891"><ele>1032.0</ele><time>2026-04-06T13:25:33Z</time></trkpt><trkpt lat="44.848182059434805" lon="4.286779228630369"><ele>1036.0</ele><time>2026-04-06T13:25:34Z</time></trkpt><trkpt lat="44.84805729127348" lon="4.286670171319675"><ele>1040.0</ele><time>2026-04-06T13:25:35Z</time></trkpt><trkpt lat="44.84793532536185" lon="4.286579592820696"><ele>1044.0</ele><time>2026-04-06T13:25:36Z</time></trkpt><trkpt lat="44.8478125447317" lon="4.28650045432727"><ele>1048.0</ele><time>2026-04-06T13:25:37Z</time></trkpt><trkpt lat="44.84770655602871" lon="4.286410965583341"><ele>1048.5</ele><time>2026-04-06T13:25:38Z</time></trkpt><trkpt lat="44.84759663697277" lon="4.286335080686289"><ele>1049.0</ele><time>2026-04-06T13:25:39Z</time></trkpt><trkpt lat="44.847491110825025" lon="4.286248164087885"><ele>1049.5</ele><time>2026-04-06T13:25:40Z</time></trkpt><trkpt lat="44.84737242085121" lon="4.286160987117822"><ele>1050.0</ele><time>2026-04-06T13:25:41Z</time></trkpt><trkpt lat="44.84724678593805" lon="4.286092337334001"><ele>1050.0</ele><time>2026-04-06T13:25:42Z</time></trkpt><trkpt lat="44.847142430846645" lon="4.286040499499167"><ele>1050.0</ele><time>2026-04-06T13:25:43Z</time></trkpt><trkpt lat="44.8470321767764" lon="4.285990073890937"><ele>1050.0</ele><time>2026-04-06T13:25:44Z</time></trkpt><trkpt lat="44.84694030455499" lon="4.285921828665832"><ele>1050.0</ele><time>2026-04-06T13:25:45Z</time></trkpt><trkpt lat="44.846884508361235" lon="4.2858125164634"><ele>1050.0</ele><time>2026-04-06T13:25:46Z</time></trkpt><trkpt lat="44.84683469348091" lon="4.285715377199162"><ele>1050.0</ele><time>2026-04-06T13:25:47Z</time></trkpt><trkpt lat="44.84681371430148" lon="4.28561991242821"><ele>1050.0</ele><time>2026-04-06T13:25:49Z</time></trkpt><trkpt lat="44.8468297548612" lon="4.28546948198494"><ele>1050.0</ele><time>2026-04-06T13:25:52Z</time></trkpt><trkpt lat="44.84672865657596" lon="4.285477815910967"><ele>1050.0</ele><time>2026-04-06T13:25:53Z</time></trkpt><trkpt lat="44.84661398617687" lon="4.285412888892316"><ele>1050.0</ele><time>2026-04-06T13:25:55Z</time></trkpt><trkpt lat="44.84653422646526" lon="4.285365635442834"><ele>1048.6</ele><time>2026-04-06T13:25:56Z</time></trkpt><trkpt lat="44.84643731793151" lon="4.2852979592571385"><ele>1047.2</ele><time>2026-04-06T13:25:57Z</time></trkpt><trkpt lat="44.846355961240704" lon="4.28521650910927"><ele>1045.8</ele><time>2026-04-06T13:25:58Z</time></trkpt><trkpt lat="44.84626385561793" lon="4.285104531511468"><ele>1044.4</ele><time>2026-04-06T13:25:59Z</time></trkpt><trkpt lat="44.84619044323002" lon="4.28500418033686"><ele>1043.0</ele><time>2026-04-06T13:26:00Z</time></trkpt><trkpt lat="44.84611724116882" lon="4.284900764828096"><ele>1043.0</ele><time>2026-04-06T13:26:01Z</time></trkpt><trkpt lat="44.84604735132974" lon="4.284800744751587"><ele>1043.0</ele><time>2026-04-06T13:26:02Z</time></trkpt><trkpt lat="44.84598650305708" lon="4.284719668803191"><ele>1043.0</ele><time>2026-04-06T13:26:03Z</time></trkpt><trkpt lat="44.84592441866325" lon="4.284643937248588"><ele>1043.0</ele><time>2026-04-06T13:26:04Z</time></trkpt><trkpt lat="44.84586412733834" lon="4.284585205594043"><ele>1043.0</ele><time>2026-04-06T13:26:05Z</time></trkpt><trkpt lat="44.845736175028165" lon="4.284492369028829"><ele>1044.0</ele><time>2026-04-06T13:26:07Z</time></trkpt><trkpt lat="44.84565416191565" lon="4.284494728521639"><ele>1045.0</ele><time>2026-04-06T13:26:09Z</time></trkpt><trkpt lat="44.845586480820245" lon="4.284519733947117"><ele>1046.0</ele><time>2026-04-06T13:26:11Z</time></trkpt><trkpt lat="44.845515617564814" lon="4.284594762324727"><ele>1047.0</ele><time>2026-04-06T13:26:15Z</time></trkpt><trkpt lat="44.84545856692338" lon="4.28463662165359"><ele>1048.0</ele><time>2026-04-06T13:26:16Z</time></trkpt><trkpt lat="44.84537892709947" lon="4.284696062644803"><ele>1049.0</ele><time>2026-04-06T13:26:17Z</time></trkpt><trkpt lat="44.84527582010187" lon="4.28477118831152"><ele>1053.25</ele><time>2026-04-06T13:26:18Z</time></trkpt><trkpt lat="44.84518864053404" lon="4.284828703286751"><ele>1057.5</ele><time>2026-04-06T13:26:19Z</time></trkpt><trkpt lat="44.845090886554324" lon="4.284839800396633"><ele>1061.75</ele><time>2026-04-06T13:26:20Z</time></trkpt><trkpt lat="44.84491322073254" lon="4.28487618087874"><ele>1066.0</ele><time>2026-04-06T13:26:21Z</time></trkpt><trkpt lat="44.84479342031642" lon="4.284861931721503"><ele>1067.5</ele><time>2026-04-06T13:26:22Z</time></trkpt><trkpt lat="44.84466465939555" lon="4.284841189429945"><ele>1069.0</ele><time>2026-04-06T13:26:23Z</time></trkpt><trkpt lat="44.84442117776836" lon="4.283945124166205"><ele>1059.0</ele><time>2026-04-06T13:26:24Z</time></trkpt><trkpt lat="44.84431479643941" lon="4.283916126227198"><ele>1049.0</ele><time>2026-04-06T13:26:25Z</time></trkpt><trkpt lat="44.84421494755612" lon="4.283880441387667"><ele>1039.0</ele><time>2026-04-06T13:26:26Z</time></trkpt><trkpt lat="44.84411634107362" lon="4.283841774932514"><ele>1029.0</ele><time>2026-04-06T13:26:27Z</time></trkpt><trkpt lat="44.84402543336295" lon="4.28378211197247"><ele>1019.0</ele><time>2026-04-06T13:26:28Z</time></trkpt><trkpt lat="44.84393758570504" lon="4.283747827998895"><ele>1017.8000000000001</ele><time>2026-04-06T13:26:29Z</time></trkpt><trkpt lat="44.843851629536715" lon="4.283727772805991"><ele>1016.6000000000001</ele><time>2026-04-06T13:26:30Z</time></trkpt><trkpt lat="44.84377549542674" lon="4.283726977146667"><ele>1015.4</ele><time>2026-04-06T13:26:31Z</time></trkpt><trkpt lat="44.84367937527721" lon="4.283668548750693"><ele>1014.2</ele><time>2026-04-06T13:26:33Z</time></trkpt><trkpt lat="44.84366579435542" lon="4.283545080299417"><ele>1013.0</ele><time>2026-04-06T13:26:34Z</time></trkpt><trkpt lat="44.843622624686674" lon="4.283422352480462"><ele>1013.0</ele><time>2026-04-06T13:26:35Z</time></trkpt><trkpt lat="44.84358045040349" lon="4.2833137196188025"><ele>1013.0</ele><time>2026-04-06T13:26:36Z</time></trkpt><trkpt lat="44.84353163097501" lon="4.28320798558395"><ele>1013.0</ele><time>2026-04-06T13:26:37Z</time></trkpt><trkpt lat="44.84347351481408" lon="4.283114141295809"><ele>1013.0</ele><time>2026-04-06T13:26:38Z</time></trkpt><trkpt lat="44.84341928556261" lon="4.283054566088718"><ele>1013.0</ele><time>2026-04-06T13:26:39Z</time></trkpt><trkpt lat="44.843431630828995" lon="4.282886228211874"><ele>1014.5999999999999</ele><time>2026-04-06T13:26:41Z</time></trkpt><trkpt lat="44.8434377680632" lon="4.282678046401603"><ele>1016.1999999999999</ele><time>2026-04-06T13:26:43Z</time></trkpt><trkpt lat="44.84340748615256" lon="4.282573717032177"><ele>1017.8</ele><time>2026-04-06T13:26:44Z</time></trkpt><trkpt lat="44.84336244615481" lon="4.282476808311232"><ele>1019.4</ele><time>2026-04-06T13:26:45Z</time></trkpt><trkpt lat="44.84332021258246" lon="4.282366190583159"><ele>1021.0</ele><time>2026-04-06T13:26:46Z</time></trkpt><trkpt lat="44.84325907966962" lon="4.282270900919516"><ele>1020.3333333333333</ele><time>2026-04-06T13:26:47Z</time></trkpt><trkpt lat="44.843188854071975" lon="4.282206537929296"><ele>1019.6666666666666</ele><time>2026-04-06T13:26:48Z</time></trkpt><trkpt lat="44.84312141100529" lon="4.282159201001635"><ele>1019.0</ele><time>2026-04-06T13:26:49Z</time></trkpt><trkpt lat="44.84305656661265" lon="4.282110853249458"><ele>1018.3333333333333</ele><time>2026-04-06T13:26:50Z</time></trkpt><trkpt lat="44.843015783914275" lon="4.282025321217633"><ele>1017.6666666666666</ele><time>2026-04-06T13:26:51Z</time></trkpt><trkpt lat="44.8429571530166" lon="4.281898016322411"><ele>1017.0</ele><time>2026-04-06T13:26:53Z</time></trkpt><trkpt lat="44.842958007543864" lon="4.281793966151884"><ele>1017.0</ele><time>2026-04-06T13:26:55Z</time></trkpt><trkpt lat="44.84308340783995" lon="4.281735859241402"><ele>1017.0</ele><time>2026-04-06T13:26:57Z</time></trkpt><trkpt lat="44.84313718651336" lon="4.281675697957318"><ele>1017.0</ele><time>2026-04-06T13:27:00Z</time></trkpt><trkpt lat="44.84351840908843" lon="4.2816644216365765"><ele>1014.2</ele><time>2026-04-06T13:27:01Z</time></trkpt><trkpt lat="44.84356617151275" lon="4.281579493218461"><ele>1011.4000000000001</ele><time>2026-04-06T13:27:02Z</time></trkpt><trkpt lat="44.843641507395596" lon="4.2814834388859015"><ele>1008.5999999999999</ele><time>2026-04-06T13:27:03Z</time></trkpt><trkpt lat="44.84367782972606" lon="4.281372652506475"><ele>1005.8</ele><time>2026-04-06T13:27:04Z</time></trkpt><trkpt lat="44.84370898483072" lon="4.2812366441693746"><ele>1003.0</ele><time>2026-04-06T13:27:05Z</time></trkpt><trkpt lat="44.8437477189901" lon="4.281069504527307"><ele>1003.0</ele><time>2026-04-06T13:27:06Z</time></trkpt><trkpt lat="44.843804691703546" lon="4.280940368889551"><ele>1003.0</ele><time>2026-04-06T13:27:07Z</time></trkpt><trkpt lat="44.84386282849114" lon="4.280759928193818"><ele>1003.0</ele><time>2026-04-06T13:27:08Z</time></trkpt><trkpt lat="44.84391678078238" lon="4.28062223646717"><ele>1003.0</ele><time>2026-04-06T13:27:09Z</time></trkpt><trkpt lat="44.843952613695535" lon="4.280502484984043"><ele>1002.4999999999999</ele><time>2026-04-06T13:27:10Z</time></trkpt><trkpt lat="44.84399431160896" lon="4.280395172272875"><ele>1002.0</ele><time>2026-04-06T13:27:11Z</time></trkpt><trkpt lat="44.843989676909445" lon="4.280297322219007"><ele>1001.5</ele><time>2026-04-06T13:27:12Z</time></trkpt><trkpt lat="44.843961511283986" lon="4.280158331960166"><ele>1001.0</ele><time>2026-04-06T13:27:13Z</time></trkpt><trkpt lat="44.84394487643983" lon="4.28002416171784"><ele>1000.4999999999999</ele><time>2026-04-06T13:27:14Z</time></trkpt><trkpt lat="44.84394557547387" lon="4.279900066364819"><ele>1000.0</ele><time>2026-04-06T13:27:15Z</time></trkpt><trkpt lat="44.84393493619534" lon="4.279770460508365"><ele>997.8</ele><time>2026-04-06T13:27:16Z</time></trkpt><trkpt lat="44.843901697432024" lon="4.27964470363448"><ele>995.6</ele><time>2026-04-06T13:27:17Z</time></trkpt><trkpt lat="44.84393400170184" lon="4.279541521058237"><ele>993.4000000000001</ele><time>2026-04-06T13:27:18Z</time></trkpt><trkpt lat="44.84390410426923" lon="4.279414138498672"><ele>991.2</ele><time>2026-04-06T13:27:19Z</time></trkpt><trkpt lat="44.843869034348025" lon="4.27929013469121"><ele>989.0</ele><time>2026-04-06T13:27:20Z</time></trkpt><trkpt lat="44.84381678427233" lon="4.279186115585989"><ele>989.0</ele><time>2026-04-06T13:27:21Z</time></trkpt><trkpt lat="44.843765182211136" lon="4.279094731748405"><ele>989.0000000000001</ele><time>2026-04-06T13:27:22Z</time></trkpt><trkpt lat="44.843682430995315" lon="4.279024838752133"><ele>989.0000000000001</ele><time>2026-04-06T13:27:23Z</time></trkpt><trkpt lat="44.84359865731142" lon="4.2789490746773"><ele>989.0</ele><time>2026-04-06T13:27:24Z</time></trkpt><trkpt lat="44.84350547194381" lon="4.278885660869325"><ele>989.0</ele><time>2026-04-06T13:27:25Z</time></trkpt><trkpt lat="44.84342365433692" lon="4.27883704537468"><ele>994.0</ele><time>2026-04-06T13:27:26Z</time></trkpt><trkpt lat="44.84334812008728" lon="4.278800681821423"><ele>999.0000000000001</ele><time>2026-04-06T13:27:27Z</time></trkpt><trkpt lat="44.84328377821465" lon="4.278771689498975"><ele>1004.0000000000001</ele><time>2026-04-06T13:27:28Z</time></trkpt><trkpt lat="44.84323237054677" lon="4.278644631816949"><ele>1009.0</ele><time>2026-04-06T13:27:30Z</time></trkpt><trkpt lat="44.84317426137399" lon="4.2784872888307754"><ele>1014.0</ele><time>2026-04-06T13:27:32Z</time></trkpt><trkpt lat="44.84327392517136" lon="4.278388620541307"><ele>1014.0</ele><time>2026-04-06T13:27:35Z</time></trkpt><trkpt lat="44.843336410988705" lon="4.278367732355704"><ele>1014.0</ele><time>2026-04-06T13:27:36Z</time></trkpt><trkpt lat="44.84341662310343" lon="4.278356441939427"><ele>1014.0</ele><time>2026-04-06T13:27:37Z</time></trkpt><trkpt lat="44.84349557723584" lon="4.278340647282557"><ele>1014.0</ele><time>2026-04-06T13:27:38Z</time></trkpt><trkpt lat="44.84357103392598" lon="4.278341426820235"><ele>1014.0</ele><time>2026-04-06T13:27:39Z</time></trkpt><trkpt lat="44.84366793832269" lon="4.278321286555907"><ele>1014.0</ele><time>2026-04-06T13:27:40Z</time></trkpt><trkpt lat="44.843781315143374" lon="4.2782631798752"><ele>1010.8000000000001</ele><time>2026-04-06T13:27:41Z</time></trkpt><trkpt lat="44.84387863641899" lon="4.278247123437947"><ele>1007.6000000000001</ele><time>2026-04-06T13:27:42Z</time></trkpt><trkpt lat="44.843958299773455" lon="4.278218720814586"><ele>1004.4</ele><time>2026-04-06T13:27:43Z</time></trkpt><trkpt lat="44.84405180119652" lon="4.27816857047022"><ele>1001.2</ele><time>2026-04-06T13:27:44Z</time></trkpt><trkpt lat="44.84414503596015" lon="4.278162948545785"><ele>998.0</ele><time>2026-04-06T13:27:45Z</time></trkpt><trkpt lat="44.844241084397936" lon="4.278168634054092"><ele>997.5999999999999</ele><time>2026-04-06T13:27:46Z</time></trkpt><trkpt lat="44.84431895781679" lon="4.2781853989548"><ele>997.1999999999999</ele><time>2026-04-06T13:27:47Z</time></trkpt><trkpt lat="44.844414390474356" lon="4.278207054875266"><ele>996.8</ele><time>2026-04-06T13:27:48Z</time></trkpt><trkpt lat="44.8445321752997" lon="4.278259938508766"><ele>996.4</ele><time>2026-04-06T13:27:49Z</time></trkpt><trkpt lat="44.84461736571933" lon="4.2782663657102376"><ele>996.0</ele><time>2026-04-06T13:27:50Z</time></trkpt><trkpt lat="44.84471848427753" lon="4.278303004673685"><ele>996.0</ele><time>2026-04-06T13:27:51Z</time></trkpt><trkpt lat="44.844831655864496" lon="4.278341820327984"><ele>996.0</ele><time>2026-04-06T13:27:52Z</time></trkpt><trkpt lat="44.844905423619686" lon="4.278352498879535"><ele>996.0</ele><time>2026-04-06T13:27:53Z</time></trkpt><trkpt lat="44.845013389231546" lon="4.278335964434706"><ele>996.0</ele><time>2026-04-06T13:27:54Z</time></trkpt><trkpt lat="44.84507696933626" lon="4.278344056095928"><ele>996.0</ele><time>2026-04-06T13:27:55Z</time></trkpt><trkpt lat="44.84514926848476" lon="4.27835225134784"><ele>996.0</ele><time>2026-04-06T13:27:56Z</time></trkpt><trkpt lat="44.845276963892275" lon="4.2783381738540225"><ele>997.1999999999999</ele><time>2026-04-06T13:27:58Z</time></trkpt><trkpt lat="44.84534947451933" lon="4.2783148406986555"><ele>998.3999999999999</ele><time>2026-04-06T13:27:59Z</time></trkpt><trkpt lat="44.845458792171165" lon="4.27840193053202"><ele>999.6</ele><time>2026-04-06T13:28:01Z</time></trkpt><trkpt lat="44.845558724908315" lon="4.278449648547162"><ele>1000.8</ele><time>2026-04-06T13:28:02Z</time></trkpt><trkpt lat="44.84565801233006" lon="4.278463115881406"><ele>1002.0</ele><time>2026-04-06T13:28:03Z</time></trkpt><trkpt lat="44.84578857395997" lon="4.278459875183018"><ele>1002.0</ele><time>2026-04-06T13:28:04Z</time></trkpt><trkpt lat="44.84590332091515" lon="4.278466612774398"><ele>1002.0</ele><time>2026-04-06T13:28:05Z</time></trkpt><trkpt lat="44.84597527330337" lon="4.278496513218397"><ele>1002.0</ele><time>2026-04-06T13:28:06Z</time></trkpt><trkpt lat="44.84605489198748" lon="4.278547369686638"><ele>1002.0</ele><time>2026-04-06T13:28:07Z</time></trkpt><trkpt lat="44.84613321218136" lon="4.278578685894811"><ele>1002.0</ele><time>2026-04-06T13:28:08Z</time></trkpt><trkpt lat="44.8462193314509" lon="4.278560475915461"><ele>1002.0</ele><time>2026-04-06T13:28:09Z</time></trkpt><trkpt lat="44.8463120772406" lon="4.278545674880259"><ele>1001.2</ele><time>2026-04-06T13:28:10Z</time></trkpt><trkpt lat="44.84641569759931" lon="4.278523893140251"><ele>1000.4000000000001</ele><time>2026-04-06T13:28:11Z</time></trkpt><trkpt lat="44.8465260318926" lon="4.278469099972067"><ele>999.5999999999999</ele><time>2026-04-06T13:28:12Z</time></trkpt><trkpt lat="44.846630608083046" lon="4.2784541307665505"><ele>998.8</ele><time>2026-04-06T13:28:13Z</time></trkpt><trkpt lat="44.846742029663666" lon="4.278441743208447"><ele>998.0</ele><time>2026-04-06T13:28:14Z</time></trkpt><trkpt lat="44.84684411998563" lon="4.278435498682797"><ele>995.8</ele><time>2026-04-06T13:28:15Z</time></trkpt><trkpt lat="44.846922094531095" lon="4.278429981385137"><ele>993.5999999999999</ele><time>2026-04-06T13:28:16Z</time></trkpt><trkpt lat="44.84703687619283" lon="4.278444035349929"><ele>991.4000000000001</ele><time>2026-04-06T13:28:17Z</time></trkpt><trkpt lat="44.847140454468565" lon="4.278433687602146"><ele>989.2</ele><time>2026-04-06T13:28:18Z</time></trkpt><trkpt lat="44.84723426172554" lon="4.27843279507115"><ele>987.0</ele><time>2026-04-06T13:28:19Z</time></trkpt><trkpt lat="44.84730533975173" lon="4.278422319403639"><ele>987.0</ele><time>2026-04-06T13:28:20Z</time></trkpt><trkpt lat="44.84737558298506" lon="4.278384662756024"><ele>987.0</ele><time>2026-04-06T13:28:21Z</time></trkpt><trkpt lat="44.8475062795144" lon="4.27832246819994"><ele>987.0</ele><time>2026-04-06T13:28:23Z</time></trkpt><trkpt lat="44.84758002956109" lon="4.278302346432508"><ele>987.0</ele><time>2026-04-06T13:28:24Z</time></trkpt><trkpt lat="44.84765247768127" lon="4.27834941128521"><ele>987.0</ele><time>2026-04-06T13:28:25Z</time></trkpt><trkpt lat="44.84770787898104" lon="4.278413063162976"><ele>987.0</ele><time>2026-04-06T13:28:26Z</time></trkpt><trkpt lat="44.8477678362765" lon="4.2784520265092105"><ele>985.3333333333334</ele><time>2026-04-06T13:28:27Z</time></trkpt><trkpt lat="44.84782543835618" lon="4.278491470796919"><ele>983.6666666666667</ele><time>2026-04-06T13:28:28Z</time></trkpt><trkpt lat="44.84788864009432" lon="4.278504521498162"><ele>982.0</ele><time>2026-04-06T13:28:29Z</time></trkpt><trkpt lat="44.8479988868798" lon="4.27852649225809"><ele>980.3333333333334</ele><time>2026-04-06T13:28:31Z</time></trkpt><trkpt lat="44.84812159224446" lon="4.278464479069425"><ele>978.6666666666667</ele><time>2026-04-06T13:28:33Z</time></trkpt><trkpt lat="44.84817679745294" lon="4.278391324185307"><ele>977.0</ele><time>2026-04-06T13:28:34Z</time></trkpt><trkpt lat="44.84824898495251" lon="4.278291826556365"><ele>977.0000000000001</ele><time>2026-04-06T13:28:35Z</time></trkpt><trkpt lat="44.84831273076876" lon="4.278206122865747"><ele>977.0</ele><time>2026-04-06T13:28:36Z</time></trkpt><trkpt lat="44.848359191363954" lon="4.278115549856112"><ele>977.0</ele><time>2026-04-06T13:28:37Z</time></trkpt><trkpt lat="44.84840152977293" lon="4.278024970984806"><ele>977.0</ele><time>2026-04-06T13:28:38Z</time></trkpt><trkpt lat="44.84842008424811" lon="4.277920366651382"><ele>977.0000000000001</ele><time>2026-04-06T13:28:39Z</time></trkpt><trkpt lat="44.848438482809605" lon="4.27774490443276"><ele>977.0</ele><time>2026-04-06T13:28:41Z</time></trkpt><trkpt lat="44.84844705038507" lon="4.277637766597979"><ele>974.1666666666667</ele><time>2026-04-06T13:28:42Z</time></trkpt><trkpt lat="44.848474161052586" lon="4.277515866403991"><ele>971.3333333333334</ele><time>2026-04-06T13:28:43Z</time></trkpt><trkpt lat="44.84849454669454" lon="4.277418291535304"><ele>968.5</ele><time>2026-04-06T13:28:44Z</time></trkpt><trkpt lat="44.848515798660344" lon="4.277262434685789"><ele>965.6666666666667</ele><time>2026-04-06T13:28:46Z</time></trkpt><trkpt lat="44.84852705428539" lon="4.277164174224173"><ele>962.8333333333334</ele><time>2026-04-06T13:28:48Z</time></trkpt><trkpt lat="44.84855506175751" lon="4.277045479138146"><ele>960.0</ele><time>2026-04-06T13:28:51Z</time></trkpt><trkpt lat="44.84855868331285" lon="4.276921427444808"><ele>959.1666666666666</ele><time>2026-04-06T13:28:53Z</time></trkpt><trkpt lat="44.84858128102838" lon="4.276831019123923"><ele>958.3333333333333</ele><time>2026-04-06T13:28:55Z</time></trkpt><trkpt lat="44.8486000700013" lon="4.276652685430481"><ele>957.5</ele><time>2026-04-06T13:28:57Z</time></trkpt><trkpt lat="44.84862693078148" lon="4.27651644241799"><ele>956.6666666666666</ele><time>2026-04-06T13:28:59Z</time></trkpt><trkpt lat="44.84864653982738" lon="4.276423053667928"><ele>955.8333333333333</ele><time>2026-04-06T13:29:00Z</time></trkpt><trkpt lat="44.84866216793439" lon="4.276335953521911"><ele>955.0</ele><time>2026-04-06T13:29:01Z</time></trkpt><trkpt lat="44.848700300318235" lon="4.276257869121196"><ele>954.8571428571427</ele><time>2026-04-06T13:29:02Z</time></trkpt><trkpt lat="44.84872424255815" lon="4.276163089956033"><ele>954.7142857142857</ele><time>2026-04-06T13:29:03Z</time></trkpt><trkpt lat="44.84873834957884" lon="4.27606924624249"><ele>954.5714285714284</ele><time>2026-04-06T13:29:04Z</time></trkpt><trkpt lat="44.848764094407436" lon="4.275984421467803"><ele>954.4285714285713</ele><time>2026-04-06T13:29:05Z</time></trkpt><trkpt lat="44.848753634067315" lon="4.27586766348097"><ele>954.2857142857142</ele><time>2026-04-06T13:29:07Z</time></trkpt><trkpt lat="44.84877358750874" lon="4.275781978577605"><ele>954.1428571428571</ele><time>2026-04-06T13:29:09Z</time></trkpt><trkpt lat="44.84877435874869" lon="4.275680366407855"><ele>954.0</ele><time>2026-04-06T13:29:12Z</time></trkpt><trkpt lat="44.848762855087514" lon="4.275592129098564"><ele>952.6</ele><time>2026-04-06T13:29:14Z</time></trkpt><trkpt lat="44.84873787079432" lon="4.2754779611893925"><ele>951.2</ele><time>2026-04-06T13:29:16Z</time></trkpt><trkpt lat="44.848716752061634" lon="4.275361003072184"><ele>949.8000000000001</ele><time>2026-04-06T13:29:18Z</time></trkpt><trkpt lat="44.84872658133678" lon="4.275237987056692"><ele>948.4000000000001</ele><time>2026-04-06T13:29:21Z</time></trkpt><trkpt lat="44.84869632539597" lon="4.275106980578737"><ele>947.0</ele><time>2026-04-06T13:29:24Z</time></trkpt><trkpt lat="44.848665483807224" lon="4.274978369593634"><ele>947.0000000000001</ele><time>2026-04-06T13:29:27Z</time></trkpt><trkpt lat="44.848617176779854" lon="4.274891026871827"><ele>947.0</ele><time>2026-04-06T13:29:35Z</time></trkpt><trkpt lat="44.8485768851422" lon="4.274820854806833"><ele>947.0</ele><time>2026-04-06T13:29:51Z</time></trkpt><trkpt lat="44.84854174088422" lon="4.274731242888599"><ele>947.0</ele><time>2026-04-06T13:30:06Z</time></trkpt><trkpt lat="44.84849503850634" lon="4.274606292304253"><ele>947.0000000000001</ele><time>2026-04-06T13:30:09Z</time></trkpt><trkpt lat="44.84848135209946" lon="4.274479969539134"><ele>947.0</ele><time>2026-04-06T13:30:11Z</time></trkpt><trkpt lat="44.84843650010372" lon="4.274357665245788"><ele>949.4000000000001</ele><time>2026-04-06T13:30:13Z</time></trkpt><trkpt lat="44.848393166665005" lon="4.274199627109015"><ele>951.8000000000001</ele><time>2026-04-06T13:30:15Z</time></trkpt><trkpt lat="44.84832991268685" lon="4.274090308585259"><ele>954.2</ele><time>2026-04-06T13:30:17Z</time></trkpt><trkpt lat="44.848284270258304" lon="4.273943427333956"><ele>956.6</ele><time>2026-04-06T13:30:19Z</time></trkpt><trkpt lat="44.84824620153615" lon="4.273860244615304"><ele>959.0</ele><time>2026-04-06T13:30:20Z</time></trkpt><trkpt lat="44.84830853723459" lon="4.273942987210306"><ele>959.0</ele><time>2026-04-06T13:30:21Z</time></trkpt><trkpt lat="44.848317508018404" lon="4.273740544192242"><ele>959.0000000000001</ele><time>2026-04-06T13:30:24Z</time></trkpt><trkpt lat="44.84830057049016" lon="4.273621438522876"><ele>959.0000000000001</ele><time>2026-04-06T13:30:25Z</time></trkpt><trkpt lat="44.848278920861155" lon="4.2735094955301935"><ele>959.0</ele><time>2026-04-06T13:30:26Z</time></trkpt><trkpt lat="44.848285663808504" lon="4.273379892526196"><ele>959.0</ele><time>2026-04-06T13:30:27Z</time></trkpt><trkpt lat="44.84827442725584" lon="4.273241669209389"><ele>959.0000000000001</ele><time>2026-04-06T13:30:28Z</time></trkpt><trkpt lat="44.848252427234094" lon="4.273133585771953"><ele>959.0</ele><time>2026-04-06T13:30:29Z</time></trkpt><trkpt lat="44.84821523469846" lon="4.273033667791857"><ele>959.0</ele><time>2026-04-06T13:30:30Z</time></trkpt><trkpt lat="44.848197724741595" lon="4.272915315106572"><ele>959.0</ele><time>2026-04-06T13:30:32Z</time></trkpt><trkpt lat="44.848218854958695" lon="4.272784407822296"><ele>959.0000000000001</ele><time>2026-04-06T13:30:34Z</time></trkpt><trkpt lat="44.84822453393474" lon="4.2726402162181065"><ele>959.0</ele><time>2026-04-06T13:30:38Z</time></trkpt><trkpt lat="44.84825704880567" lon="4.272450109885431"><ele>956.8333333333334</ele><time>2026-04-06T13:30:40Z</time></trkpt><trkpt lat="44.848237761013365" lon="4.272335416817298"><ele>954.6666666666667</ele><time>2026-04-06T13:30:42Z</time></trkpt><trkpt lat="44.84824974178636" lon="4.272209781902183"><ele>952.5</ele><time>2026-04-06T13:30:45Z</time></trkpt><trkpt lat="44.848245606126866" lon="4.27210872756967"><ele>950.3333333333333</ele><time>2026-04-06T13:30:46Z</time></trkpt><trkpt lat="44.84822750095484" lon="4.272000587556074"><ele>948.1666666666666</ele><time>2026-04-06T13:30:48Z</time></trkpt><trkpt lat="44.848216219935246" lon="4.27189192324133"><ele>946.0</ele><time>2026-04-06T13:30:51Z</time></trkpt><trkpt lat="44.84820144611026" lon="4.271760788664039"><ele>942.9999999999999</ele><time>2026-04-06T13:30:53Z</time></trkpt><trkpt lat="44.84819218156401" lon="4.271657193452615"><ele>940.0</ele><time>2026-04-06T13:30:55Z</time></trkpt><trkpt lat="44.84818672576091" lon="4.271535724203128"><ele>937.0</ele><time>2026-04-06T13:30:58Z</time></trkpt><trkpt lat="44.84816484180141" lon="4.271416079080723"><ele>934.0</ele><time>2026-04-06T13:31:01Z</time></trkpt><trkpt lat="44.848172631255814" lon="4.271313679239318"><ele>930.9999999999999</ele><time>2026-04-06T13:31:04Z</time></trkpt><trkpt lat="44.8481461607953" lon="4.271220822425508"><ele>928.0</ele><time>2026-04-06T13:31:06Z</time></trkpt><trkpt lat="44.84812571211404" lon="4.271091254109441"><ele>925.4999999999999</ele><time>2026-04-06T13:31:08Z</time></trkpt><trkpt lat="44.848061642524954" lon="4.27095614966856"><ele>923.0</ele><time>2026-04-06T13:31:10Z</time></trkpt><trkpt lat="44.84804842823592" lon="4.270868266294315"><ele>920.5</ele><time>2026-04-06T13:31:13Z</time></trkpt><trkpt lat="44.84801598803012" lon="4.270769309115078"><ele>918.0</ele><time>2026-04-06T13:31:16Z</time></trkpt><trkpt lat="44.84799806380516" lon="4.270668311546647"><ele>915.4999999999999</ele><time>2026-04-06T13:31:17Z</time></trkpt><trkpt lat="44.84792252424885" lon="4.270623315370512"><ele>913.0</ele><time>2026-04-06T13:31:19Z</time></trkpt><trkpt lat="44.84786854695622" lon="4.2705559766682075"><ele>912.4999999999999</ele><time>2026-04-06T13:31:21Z</time></trkpt><trkpt lat="44.84780456722554" lon="4.270479046652662"><ele>912.0</ele><time>2026-04-06T13:31:23Z</time></trkpt><trkpt lat="44.84771737224798" lon="4.2704513098306105"><ele>911.5</ele><time>2026-04-06T13:31:25Z</time></trkpt><trkpt lat="44.84762005170989" lon="4.2704133104113415"><ele>911.0</ele><time>2026-04-06T13:31:28Z</time></trkpt><trkpt lat="44.84754407677848" lon="4.270397429971223"><ele>910.4999999999999</ele><time>2026-04-06T13:31:31Z</time></trkpt><trkpt lat="44.84749016783281" lon="4.270338288965787"><ele>910.0</ele><time>2026-04-06T13:31:33Z</time></trkpt><trkpt lat="44.84740919963488" lon="4.270275200794724"><ele>909.9999999999999</ele><time>2026-04-06T13:31:37Z</time></trkpt><trkpt lat="44.847341553431725" lon="4.270266357751436"><ele>910.0</ele><time>2026-04-06T13:31:40Z</time></trkpt><trkpt lat="44.84724767874162" lon="4.27028205289687"><ele>910.0</ele><time>2026-04-06T13:31:43Z</time></trkpt><trkpt lat="44.84718453934425" lon="4.270241296037205"><ele>910.0</ele><time>2026-04-06T13:31:47Z</time></trkpt><trkpt lat="44.84713755388469" lon="4.270122867784196"><ele>909.9999999999999</ele><time>2026-04-06T13:31:50Z</time></trkpt><trkpt lat="44.84710300237272" lon="4.270008405472011"><ele>910.0</ele><time>2026-04-06T13:31:51Z</time></trkpt><trkpt lat="44.84707237158061" lon="4.269872534467341"><ele>904.2</ele><time>2026-04-06T13:31:53Z</time></trkpt><trkpt lat="44.84707301209199" lon="4.269759567577625"><ele>898.4</ele><time>2026-04-06T13:31:55Z</time></trkpt><trkpt lat="44.84702818543918" lon="4.269584734684407"><ele>892.5999999999999</ele><time>2026-04-06T13:31:57Z</time></trkpt><trkpt lat="44.84703900433103" lon="4.2694843494533705"><ele>886.8</ele><time>2026-04-06T13:31:58Z</time></trkpt><trkpt lat="44.84703181283331" lon="4.2693697050634025"><ele>881.0</ele><time>2026-04-06T13:32:00Z</time></trkpt><trkpt lat="44.84698770096989" lon="4.269238668506782"><ele>881.0000000000001</ele><time>2026-04-06T13:32:02Z</time></trkpt><trkpt lat="44.84694667456515" lon="4.26916261147085"><ele>881.0</ele><time>2026-04-06T13:32:05Z</time></trkpt><trkpt lat="44.84693142310688" lon="4.269071280649295"><ele>881.0</ele><time>2026-04-06T13:32:06Z</time></trkpt><trkpt lat="44.846888959895544" lon="4.268980345829926"><ele>881.0</ele><time>2026-04-06T13:32:09Z</time></trkpt><trkpt lat="44.84687496378677" lon="4.268858751079518"><ele>881.0000000000001</ele><time>2026-04-06T13:32:12Z</time></trkpt><trkpt lat="44.84680533882277" lon="4.268739499163739"><ele>881.0</ele><time>2026-04-06T13:32:15Z</time></trkpt><trkpt lat="44.846728437152834" lon="4.268673250516745"><ele>879.6666666666667</ele><time>2026-04-06T13:32:18Z</time></trkpt><trkpt lat="44.84665420737423" lon="4.268606503024494"><ele>878.3333333333334</ele><time>2026-04-06T13:32:21Z</time></trkpt><trkpt lat="44.84669296683921" lon="4.268488085885177"><ele>877.0</ele><time>2026-04-06T13:32:25Z</time></trkpt><trkpt lat="44.846770548293435" lon="4.268493637746402"><ele>875.6666666666667</ele><time>2026-04-06T13:32:29Z</time></trkpt><trkpt lat="44.84677679910161" lon="4.268385105136488"><ele>874.3333333333334</ele><time>2026-04-06T13:32:31Z</time></trkpt><trkpt lat="44.84668288915579" lon="4.2683074757377595"><ele>873.0</ele><time>2026-04-06T13:32:33Z</time></trkpt><trkpt lat="44.846610368714586" lon="4.268314518732819"><ele>873.0</ele><time>2026-04-06T13:32:35Z</time></trkpt><trkpt lat="44.84653733454847" lon="4.2682886986796635"><ele>873.0</ele><time>2026-04-06T13:32:37Z</time></trkpt><trkpt lat="44.846463148930546" lon="4.268336126806591"><ele>873.0</ele><time>2026-04-06T13:32:39Z</time></trkpt><trkpt lat="44.84641009506887" lon="4.268284518240974"><ele>873.0</ele><time>2026-04-06T13:32:42Z</time></trkpt><trkpt lat="44.84641155841495" lon="4.268186124891445"><ele>873.0</ele><time>2026-04-06T13:32:46Z</time></trkpt><trkpt lat="44.846503151706735" lon="4.2681361357809875"><ele>873.0</ele><time>2026-04-06T13:32:50Z</time></trkpt><trkpt lat="44.84660664341609" lon="4.268056287219913"><ele>869.8</ele><time>2026-04-06T13:32:53Z</time></trkpt><trkpt lat="44.84671045180183" lon="4.268058962298527"><ele>866.5999999999999</ele><time>2026-04-06T13:32:54Z</time></trkpt><trkpt lat="44.84685426979859" lon="4.268064559949441"><ele>863.4000000000001</ele><time>2026-04-06T13:32:55Z</time></trkpt><trkpt lat="44.84695526179742" lon="4.2680779081637885"><ele>860.2</ele><time>2026-04-06T13:32:56Z</time></trkpt><trkpt lat="44.847033052290044" lon="4.268126401965859"><ele>857.0</ele><time>2026-04-06T13:32:57Z</time></trkpt><trkpt lat="44.84711285634488" lon="4.268217277414634"><ele>857.0</ele><time>2026-04-06T13:32:59Z</time></trkpt><trkpt lat="44.84720646471341" lon="4.268327392851383"><ele>857.0</ele><time>2026-04-06T13:33:01Z</time></trkpt><trkpt lat="44.84730601543043" lon="4.268391818503332"><ele>857.0</ele><time>2026-04-06T13:33:02Z</time></trkpt><trkpt lat="44.847380316899866" lon="4.2684361666706065"><ele>857.0</ele><time>2026-04-06T13:33:03Z</time></trkpt><trkpt lat="44.84743286161573" lon="4.268503675554951"><ele>857.0</ele><time>2026-04-06T13:33:04Z</time></trkpt><trkpt lat="44.847451795998694" lon="4.268603728453978"><ele>857.0</ele><time>2026-04-06T13:33:05Z</time></trkpt><trkpt lat="44.847551842447" lon="4.268719969046434"><ele>857.0</ele><time>2026-04-06T13:33:07Z</time></trkpt><trkpt lat="44.84763896615218" lon="4.268789475557576"><ele>857.0</ele><time>2026-04-06T13:33:09Z</time></trkpt><trkpt lat="44.847716676113485" lon="4.268720403464493"><ele>857.0</ele><time>2026-04-06T13:33:10Z</time></trkpt><trkpt lat="44.84782418171032" lon="4.2687556021460455"><ele>857.0</ele><time>2026-04-06T13:33:11Z</time></trkpt><trkpt lat="44.84793731488852" lon="4.268810916916568"><ele>858.4000000000001</ele><time>2026-04-06T13:33:12Z</time></trkpt><trkpt lat="44.84805607524264" lon="4.268895863300221"><ele>859.8000000000001</ele><time>2026-04-06T13:33:13Z</time></trkpt><trkpt lat="44.848156726017436" lon="4.268940400394062"><ele>861.2</ele><time>2026-04-06T13:33:14Z</time></trkpt><trkpt lat="44.848235306006565" lon="4.2689844893784175"><ele>862.6</ele><time>2026-04-06T13:33:15Z</time></trkpt><trkpt lat="44.848316382302784" lon="4.269044408270502"><ele>864.0</ele><time>2026-04-06T13:33:16Z</time></trkpt><trkpt lat="44.84839523950731" lon="4.2690871417922205"><ele>858.8000000000001</ele><time>2026-04-06T13:33:17Z</time></trkpt><trkpt lat="44.848491353291514" lon="4.269129442867453"><ele>853.6000000000001</ele><time>2026-04-06T13:33:18Z</time></trkpt><trkpt lat="44.84857644758423" lon="4.26919095188563"><ele>848.4</ele><time>2026-04-06T13:33:19Z</time></trkpt><trkpt lat="44.848654496182085" lon="4.269226200085414"><ele>843.2</ele><time>2026-04-06T13:33:20Z</time></trkpt><trkpt lat="44.848750329543186" lon="4.269239111290189"><ele>838.0</ele><time>2026-04-06T13:33:21Z</time></trkpt><trkpt lat="44.84883879464894" lon="4.2692482460075425"><ele>837.9999999999999</ele><time>2026-04-06T13:33:22Z</time></trkpt><trkpt lat="44.84892321145194" lon="4.269265092439984"><ele>838.0</ele><time>2026-04-06T13:33:23Z</time></trkpt><trkpt lat="44.84900928970629" lon="4.269294074153426"><ele>838.0</ele><time>2026-04-06T13:33:24Z</time></trkpt><trkpt lat="44.84908917246908" lon="4.269314977054354"><ele>838.0</ele><time>2026-04-06T13:33:25Z</time></trkpt><trkpt lat="44.84915512972246" lon="4.269389710643668"><ele>837.9999999999999</ele><time>2026-04-06T13:33:26Z</time></trkpt><trkpt lat="44.84919644322581" lon="4.2694635995172"><ele>838.0</ele><time>2026-04-06T13:33:27Z</time></trkpt><trkpt lat="44.8492404096474" lon="4.269535384882927"><ele>837.9999999999999</ele><time>2026-04-06T13:33:28Z</time></trkpt><trkpt lat="44.849290712450816" lon="4.269629982247649"><ele>838.0</ele><time>2026-04-06T13:33:29Z</time></trkpt><trkpt lat="44.84933835074661" lon="4.269722198250827"><ele>838.0</ele><time>2026-04-06T13:33:30Z</time></trkpt><trkpt lat="44.84938955996313" lon="4.269825655941602"><ele>838.0</ele><time>2026-04-06T13:33:31Z</time></trkpt><trkpt lat="44.849437153928335" lon="4.269941468595676"><ele>837.9999999999999</ele><time>2026-04-06T13:33:32Z</time></trkpt><trkpt lat="44.84946610602978" lon="4.2700310238293415"><ele>838.0</ele><time>2026-04-06T13:33:33Z</time></trkpt><trkpt lat="44.84950971183593" lon="4.270177201102543"><ele>838.3333333333333</ele><time>2026-04-06T13:33:34Z</time></trkpt><trkpt lat="44.84953831880638" lon="4.270293663602995"><ele>838.6666666666666</ele><time>2026-04-06T13:33:35Z</time></trkpt><trkpt lat="44.849570598857404" lon="4.270402471079174"><ele>839.0</ele><time>2026-04-06T13:33:36Z</time></trkpt><trkpt lat="44.84962083877258" lon="4.270503048041931"><ele>839.3333333333333</ele><time>2026-04-06T13:33:37Z</time></trkpt><trkpt lat="44.84965877828303" lon="4.270622998740216"><ele>839.6666666666666</ele><time>2026-04-06T13:33:38Z</time></trkpt><trkpt lat="44.849688626352645" lon="4.270730663352324"><ele>840.0</ele><time>2026-04-06T13:33:39Z</time></trkpt><trkpt lat="44.84972935659906" lon="4.270848068757525"><ele>840.0</ele><time>2026-04-06T13:33:40Z</time></trkpt><trkpt lat="44.84977344138904" lon="4.2709652325730145"><ele>840.0</ele><time>2026-04-06T13:33:41Z</time></trkpt><trkpt lat="44.849839364836534" lon="4.2710374872612595"><ele>840.0</ele><time>2026-04-06T13:33:42Z</time></trkpt><trkpt lat="44.84993250561156" lon="4.271135962425783"><ele>840.0</ele><time>2026-04-06T13:33:43Z</time></trkpt><trkpt lat="44.850012671933406" lon="4.2712390300269805"><ele>840.0</ele><time>2026-04-06T13:33:44Z</time></trkpt><trkpt lat="44.850097410632166" lon="4.271314208634404"><ele>837.8</ele><time>2026-04-06T13:33:45Z</time></trkpt><trkpt lat="44.850173301168276" lon="4.271407429328801"><ele>835.6</ele><time>2026-04-06T13:33:46Z</time></trkpt><trkpt lat="44.85024383778489" lon="4.271510077730278"><ele>833.4000000000001</ele><time>2026-04-06T13:33:47Z</time></trkpt><trkpt lat="44.8502935449111" lon="4.271570538961698"><ele>831.2</ele><time>2026-04-06T13:33:48Z</time></trkpt><trkpt lat="44.850371645556535" lon="4.271665932834097"><ele>829.0</ele><time>2026-04-06T13:33:49Z</time></trkpt><trkpt lat="44.85041317512778" lon="4.27176855998337"><ele>828.25</ele><time>2026-04-06T13:33:50Z</time></trkpt><trkpt lat="44.850465325379645" lon="4.271908169827651"><ele>827.5</ele><time>2026-04-06T13:33:51Z</time></trkpt><trkpt lat="44.85052444397557" lon="4.272057921437572"><ele>826.75</ele><time>2026-04-06T13:33:52Z</time></trkpt><trkpt lat="44.85055252036566" lon="4.272221911645757"><ele>826.0</ele><time>2026-04-06T13:33:53Z</time></trkpt><trkpt lat="44.85058634051026" lon="4.272370198226015"><ele>825.9999999999999</ele><time>2026-04-06T13:33:54Z</time></trkpt><trkpt lat="44.850632799648885" lon="4.2725319958456875"><ele>826.0</ele><time>2026-04-06T13:33:55Z</time></trkpt><trkpt lat="44.85065372612434" lon="4.2726444630871345"><ele>826.0</ele><time>2026-04-06T13:33:56Z</time></trkpt><trkpt lat="44.85066239877557" lon="4.2727444711081"><ele>826.0</ele><time>2026-04-06T13:33:57Z</time></trkpt><trkpt lat="44.8506696204758" lon="4.2728397819376145"><ele>825.9999999999999</ele><time>2026-04-06T13:33:59Z</time></trkpt><trkpt lat="44.85069325531968" lon="4.2729457269670315"><ele>826.0</ele><time>2026-04-06T13:34:00Z</time></trkpt><trkpt lat="44.85071858127733" lon="4.27302999446432"><ele>827.1666666666666</ele><time>2026-04-06T13:34:01Z</time></trkpt><trkpt lat="44.85072531080002" lon="4.273153622321948"><ele>828.3333333333333</ele><time>2026-04-06T13:34:02Z</time></trkpt><trkpt lat="44.8507304745721" lon="4.273267232361565"><ele>829.5</ele><time>2026-04-06T13:34:03Z</time></trkpt><trkpt lat="44.85075551077109" lon="4.273359179518795"><ele>830.6666666666667</ele><time>2026-04-06T13:34:04Z</time></trkpt><trkpt lat="44.85079184762556" lon="4.2734481889235285"><ele>831.8333333333334</ele><time>2026-04-06T13:34:05Z</time></trkpt><trkpt lat="44.85084117111135" lon="4.273528661272738"><ele>833.0</ele><time>2026-04-06T13:34:06Z</time></trkpt><trkpt lat="44.8509356249216" lon="4.2735778270573475"><ele>827.75</ele><time>2026-04-06T13:34:08Z</time></trkpt><trkpt lat="44.85106525171337" lon="4.273576472184167"><ele>822.5</ele><time>2026-04-06T13:34:09Z</time></trkpt><trkpt lat="44.851208164540076" lon="4.273804927677643"><ele>817.25</ele><time>2026-04-06T13:34:10Z</time></trkpt><trkpt lat="44.85126141958957" lon="4.273918673649848"><ele>812.0</ele><time>2026-04-06T13:34:11Z</time></trkpt><trkpt lat="44.85130194087141" lon="4.274023843928457"><ele>812.0</ele><time>2026-04-06T13:34:12Z</time></trkpt><trkpt lat="44.85133897010982" lon="4.274105227397109"><ele>812.0</ele><time>2026-04-06T13:34:13Z</time></trkpt><trkpt lat="44.851445622824436" lon="4.274337681591701"><ele>812.0</ele><time>2026-04-06T13:34:14Z</time></trkpt><trkpt lat="44.85149385861304" lon="4.274542484549133"><ele>812.0</ele><time>2026-04-06T13:34:15Z</time></trkpt><trkpt lat="44.85156117289018" lon="4.274735702082074"><ele>811.25</ele><time>2026-04-06T13:34:16Z</time></trkpt><trkpt lat="44.85163648415258" lon="4.2749420891894605"><ele>810.5</ele><time>2026-04-06T13:34:17Z</time></trkpt><trkpt lat="44.85170944166783" lon="4.275088206090559"><ele>809.75</ele><time>2026-04-06T13:34:18Z</time></trkpt><trkpt lat="44.85177058867998" lon="4.275264226391997"><ele>809.0</ele><time>2026-04-06T13:34:19Z</time></trkpt><trkpt lat="44.851848361541606" lon="4.27544286760143"><ele>807.25</ele><time>2026-04-06T13:34:20Z</time></trkpt><trkpt lat="44.85193165757888" lon="4.275623803627455"><ele>805.5</ele><time>2026-04-06T13:34:21Z</time></trkpt><trkpt lat="44.85201732823236" lon="4.275759262235812"><ele>803.75</ele><time>2026-04-06T13:34:22Z</time></trkpt><trkpt lat="44.85211057644319" lon="4.275904705388443"><ele>802.0</ele><time>2026-04-06T13:34:23Z</time></trkpt><trkpt lat="44.85217509200523" lon="4.2760762252534725"><ele>802.0</ele><time>2026-04-06T13:34:24Z</time></trkpt><trkpt lat="44.85227789240695" lon="4.276199323423063"><ele>802.0</ele><time>2026-04-06T13:34:25Z</time></trkpt><trkpt lat="44.85234299020348" lon="4.276367924978827"><ele>802.0</ele><time>2026-04-06T13:34:26Z</time></trkpt><trkpt lat="44.852401973657166" lon="4.276532626163009"><ele>802.0</ele><time>2026-04-06T13:34:27Z</time></trkpt><trkpt lat="44.8524890113333" lon="4.276676307131974"><ele>802.4000000000001</ele><time>2026-04-06T13:34:28Z</time></trkpt><trkpt lat="44.85256081369615" lon="4.276818322042766"><ele>802.8000000000001</ele><time>2026-04-06T13:34:29Z</time></trkpt><trkpt lat="44.85263543361961" lon="4.276932134637697"><ele>803.2</ele><time>2026-04-06T13:34:30Z</time></trkpt><trkpt lat="44.852703692520784" lon="4.2770165373482065"><ele>803.6</ele><time>2026-04-06T13:34:31Z</time></trkpt><trkpt lat="44.85273072066876" lon="4.277116358482181"><ele>804.0</ele><time>2026-04-06T13:34:32Z</time></trkpt><trkpt lat="44.85272031758685" lon="4.277216733429456"><ele>802.8000000000001</ele><time>2026-04-06T13:34:33Z</time></trkpt><trkpt lat="44.852681934458275" lon="4.277316789029873"><ele>801.6</ele><time>2026-04-06T13:34:34Z</time></trkpt><trkpt lat="44.85258186976352" lon="4.277435247987566"><ele>800.4</ele><time>2026-04-06T13:34:35Z</time></trkpt><trkpt lat="44.852580354735636" lon="4.2775876691920125"><ele>799.2</ele><time>2026-04-06T13:34:37Z</time></trkpt><trkpt lat="44.852610693079846" lon="4.277684004743978"><ele>798.0</ele><time>2026-04-06T13:34:39Z</time></trkpt><trkpt lat="44.8527103639902" lon="4.277685118089004"><ele>798.0</ele><time>2026-04-06T13:34:40Z</time></trkpt><trkpt lat="44.85277860049136" lon="4.277666303496506"><ele>798.0</ele><time>2026-04-06T13:34:41Z</time></trkpt><trkpt lat="44.85284219210196" lon="4.2775944235100125"><ele>798.0</ele><time>2026-04-06T13:34:42Z</time></trkpt><trkpt lat="44.85291980984832" lon="4.277561755314476"><ele>798.0</ele><time>2026-04-06T13:34:43Z</time></trkpt><trkpt lat="44.853006227377364" lon="4.277565826582451"><ele>798.0</ele><time>2026-04-06T13:34:44Z</time></trkpt><trkpt lat="44.85308464761623" lon="4.277606496687695"><ele>798.0</ele><time>2026-04-06T13:34:45Z</time></trkpt><trkpt lat="44.85316324588014" lon="4.277636740685754"><ele>798.0</ele><time>2026-04-06T13:34:46Z</time></trkpt><trkpt lat="44.85322660065552" lon="4.277705774642747"><ele>798.0</ele><time>2026-04-06T13:34:47Z</time></trkpt><trkpt lat="44.853308487901145" lon="4.277722500336525"><ele>798.0</ele><time>2026-04-06T13:34:48Z</time></trkpt><trkpt lat="44.85335651227505" lon="4.27778082840738"><ele>798.0</ele><time>2026-04-06T13:34:49Z</time></trkpt><trkpt lat="44.853414543827284" lon="4.277707148555797"><ele>798.0</ele><time>2026-04-06T13:34:51Z</time></trkpt><trkpt lat="44.853452623906364" lon="4.277595393834079"><ele>798.0</ele><time>2026-04-06T13:34:52Z</time></trkpt><trkpt lat="44.853469774041606" lon="4.27746842450846"><ele>797.5999999999999</ele><time>2026-04-06T13:34:53Z</time></trkpt><trkpt lat="44.853495170246006" lon="4.277341110817569"><ele>797.1999999999999</ele><time>2026-04-06T13:34:54Z</time></trkpt><trkpt lat="44.853588450695504" lon="4.277247594646593"><ele>796.8</ele><time>2026-04-06T13:34:56Z</time></trkpt><trkpt lat="44.85368828190299" lon="4.2772407935918855"><ele>796.4</ele><time>2026-04-06T13:34:57Z</time></trkpt><trkpt lat="44.8537641817097" lon="4.277376953382147"><ele>796.0</ele><time>2026-04-06T13:34:58Z</time></trkpt><trkpt lat="44.8538629368963" lon="4.2774424392538855"><ele>796.0</ele><time>2026-04-06T13:34:59Z</time></trkpt><trkpt lat="44.85396581790371" lon="4.277509090663423"><ele>796.0</ele><time>2026-04-06T13:35:00Z</time></trkpt><trkpt lat="44.85404310973391" lon="4.277531900626006"><ele>796.0</ele><time>2026-04-06T13:35:01Z</time></trkpt><trkpt lat="44.85411466952217" lon="4.277588707087575"><ele>796.0</ele><time>2026-04-06T13:35:03Z</time></trkpt><trkpt lat="44.854106470894514" lon="4.2774901559035445"><ele>796.0</ele><time>2026-04-06T13:36:37Z</time></trkpt><trkpt lat="44.85401166999604" lon="4.277346243918793"><ele>801.4</ele><time>2026-04-06T13:36:39Z</time></trkpt><trkpt lat="44.853942587156666" lon="4.277263402852898"><ele>806.8</ele><time>2026-04-06T13:36:40Z</time></trkpt><trkpt lat="44.8538648293989" lon="4.277173569899552"><ele>812.1999999999999</ele><time>2026-04-06T13:36:41Z</time></trkpt><trkpt lat="44.85378355620583" lon="4.27709338905402"><ele>817.5999999999999</ele><time>2026-04-06T13:36:42Z</time></trkpt><trkpt lat="44.853697931360315" lon="4.27700716052094"><ele>823.0</ele><time>2026-04-06T13:36:43Z</time></trkpt><trkpt lat="44.85361581658888" lon="4.27692032872589"><ele>823.0</ele><time>2026-04-06T13:36:44Z</time></trkpt><trkpt lat="44.8535376439672" lon="4.276818267218702"><ele>823.0</ele><time>2026-04-06T13:36:45Z</time></trkpt><trkpt lat="44.853470886327216" lon="4.276710881447142"><ele>823.0</ele><time>2026-04-06T13:36:46Z</time></trkpt><trkpt lat="44.85338578020677" lon="4.276601554765815"><ele>823.0</ele><time>2026-04-06T13:36:47Z</time></trkpt><trkpt lat="44.853318882012104" lon="4.2764737917267475"><ele>823.0</ele><time>2026-04-06T13:36:48Z</time></trkpt><trkpt lat="44.853261513219294" lon="4.276373648196347"><ele>824.2</ele><time>2026-04-06T13:36:49Z</time></trkpt><trkpt lat="44.85319179673454" lon="4.276282799159793"><ele>825.4</ele><time>2026-04-06T13:36:50Z</time></trkpt><trkpt lat="44.853112415886095" lon="4.276163503250804"><ele>826.6</ele><time>2026-04-06T13:36:51Z</time></trkpt><trkpt lat="44.85304074939498" lon="4.2760628648887336"><ele>827.8000000000001</ele><time>2026-04-06T13:36:52Z</time></trkpt><trkpt lat="44.852979389387336" lon="4.275944641370929"><ele>829.0</ele><time>2026-04-06T13:36:53Z</time></trkpt><trkpt lat="44.85296805018271" lon="4.275779102058012"><ele>829.0</ele><time>2026-04-06T13:36:54Z</time></trkpt><trkpt lat="44.85292042957688" lon="4.275638383573057"><ele>829.0</ele><time>2026-04-06T13:36:55Z</time></trkpt><trkpt lat="44.852878407630335" lon="4.275463360762075"><ele>829.0</ele><time>2026-04-06T13:36:56Z</time></trkpt><trkpt lat="44.85282920552628" lon="4.275304202033522"><ele>829.0</ele><time>2026-04-06T13:36:57Z</time></trkpt><trkpt lat="44.85282094318135" lon="4.275108071358593"><ele>835.5</ele><time>2026-04-06T13:36:58Z</time></trkpt><trkpt lat="44.85278595379303" lon="4.27491399797157"><ele>842.0</ele><time>2026-04-06T13:36:59Z</time></trkpt><trkpt lat="44.85273108194204" lon="4.274726746999233"><ele>848.5</ele><time>2026-04-06T13:37:00Z</time></trkpt><trkpt lat="44.852679578067914" lon="4.274557781528435"><ele>855.0</ele><time>2026-04-06T13:37:01Z</time></trkpt><trkpt lat="44.852646095078995" lon="4.274387253783919"><ele>852.0</ele><time>2026-04-06T13:37:02Z</time></trkpt><trkpt lat="44.852603602180146" lon="4.274229985701258"><ele>849.0</ele><time>2026-04-06T13:37:03Z</time></trkpt><trkpt lat="44.852576574568495" lon="4.274077372922539"><ele>846.0</ele><time>2026-04-06T13:37:04Z</time></trkpt><trkpt lat="44.85252314474677" lon="4.273908479136186"><ele>843.0</ele><time>2026-04-06T13:37:05Z</time></trkpt><trkpt lat="44.852454740799296" lon="4.273745494046046"><ele>843.0</ele><time>2026-04-06T13:37:06Z</time></trkpt><trkpt lat="44.85238437033174" lon="4.273590632066058"><ele>843.0</ele><time>2026-04-06T13:37:07Z</time></trkpt><trkpt lat="44.85231638107409" lon="4.273438829503293"><ele>843.0</ele><time>2026-04-06T13:37:08Z</time></trkpt><trkpt lat="44.852278042878" lon="4.2732975080034645"><ele>843.0</ele><time>2026-04-06T13:37:09Z</time></trkpt><trkpt lat="44.8522286938332" lon="4.2731590329533775"><ele>848.0</ele><time>2026-04-06T13:37:10Z</time></trkpt><trkpt lat="44.852194144073074" lon="4.272995683474733"><ele>853.0</ele><time>2026-04-06T13:37:11Z</time></trkpt><trkpt lat="44.85217506958" lon="4.27280823411826"><ele>858.0</ele><time>2026-04-06T13:37:12Z</time></trkpt><trkpt lat="44.8521494011164" lon="4.272628680447618"><ele>863.0</ele><time>2026-04-06T13:37:13Z</time></trkpt><trkpt lat="44.852109104872376" lon="4.272450687880242"><ele>863.0</ele><time>2026-04-06T13:37:14Z</time></trkpt><trkpt lat="44.852085325005724" lon="4.272273359331179"><ele>863.0</ele><time>2026-04-06T13:37:15Z</time></trkpt><trkpt lat="44.85201021590769" lon="4.272129517227214"><ele>863.0</ele><time>2026-04-06T13:37:16Z</time></trkpt><trkpt lat="44.85193744567199" lon="4.272008857153015"><ele>863.0</ele><time>2026-04-06T13:37:17Z</time></trkpt><trkpt lat="44.851850563716084" lon="4.271857742580845"><ele>862.6666666666667</ele><time>2026-04-06T13:37:18Z</time></trkpt><trkpt lat="44.851753486283116" lon="4.271674708260418"><ele>862.3333333333333</ele><time>2026-04-06T13:37:19Z</time></trkpt><trkpt lat="44.851670739417926" lon="4.271494109775058"><ele>862.0</ele><time>2026-04-06T13:37:20Z</time></trkpt><trkpt lat="44.85158759365556" lon="4.271302010159518"><ele>862.0</ele><time>2026-04-06T13:37:21Z</time></trkpt><trkpt lat="44.85151468658366" lon="4.271149496126014"><ele>862.0</ele><time>2026-04-06T13:37:22Z</time></trkpt><trkpt lat="44.851435012747864" lon="4.271020940473979"><ele>862.0</ele><time>2026-04-06T13:37:23Z</time></trkpt><trkpt lat="44.851364311688435" lon="4.27095571879513"><ele>862.0</ele><time>2026-04-06T13:37:24Z</time></trkpt><trkpt lat="44.85126748067425" lon="4.270873100746186"><ele>862.0</ele><time>2026-04-06T13:37:25Z</time></trkpt><trkpt lat="44.85120886732377" lon="4.27080248562516"><ele>861.9999999999999</ele><time>2026-04-06T13:37:26Z</time></trkpt><trkpt lat="44.85120856073264" lon="4.270610938840677"><ele>862.0</ele><time>2026-04-06T13:37:28Z</time></trkpt><trkpt lat="44.851260556087674" lon="4.2705007293389485"><ele>862.0</ele><time>2026-04-06T13:37:29Z</time></trkpt><trkpt lat="44.85126000514517" lon="4.270386683201095"><ele>862.0</ele><time>2026-04-06T13:37:30Z</time></trkpt><trkpt lat="44.85122991694306" lon="4.270308011785792"><ele>861.9999999999999</ele><time>2026-04-06T13:37:31Z</time></trkpt><trkpt lat="44.851194621841486" lon="4.2702300574360175"><ele>862.0</ele><time>2026-04-06T13:37:32Z</time></trkpt><trkpt lat="44.85109008324604" lon="4.270229988987571"><ele>863.25</ele><time>2026-04-06T13:37:33Z</time></trkpt><trkpt lat="44.8509772126198" lon="4.2701527296012705"><ele>864.5</ele><time>2026-04-06T13:37:34Z</time></trkpt><trkpt lat="44.850876040363964" lon="4.269994671753608"><ele>865.75</ele><time>2026-04-06T13:37:35Z</time></trkpt><trkpt lat="44.8508241855572" lon="4.269848336210727"><ele>867.0</ele><time>2026-04-06T13:37:36Z</time></trkpt><trkpt lat="44.85077055243624" lon="4.269719020933969"><ele>867.0</ele><time>2026-04-06T13:37:37Z</time></trkpt><trkpt lat="44.85071214840474" lon="4.26953611245883"><ele>867.0</ele><time>2026-04-06T13:37:38Z</time></trkpt><trkpt lat="44.85068257550348" lon="4.269371897706244"><ele>867.0</ele><time>2026-04-06T13:37:39Z</time></trkpt><trkpt lat="44.85063475311838" lon="4.269206094019134"><ele>867.0</ele><time>2026-04-06T13:37:40Z</time></trkpt><trkpt lat="44.850587122211884" lon="4.269050916902166"><ele>872.0</ele><time>2026-04-06T13:37:41Z</time></trkpt><trkpt lat="44.85055005415351" lon="4.268886634785485"><ele>877.0</ele><time>2026-04-06T13:37:42Z</time></trkpt><trkpt lat="44.85049842624075" lon="4.268742517841256"><ele>882.0</ele><time>2026-04-06T13:37:43Z</time></trkpt><trkpt lat="44.85046598505179" lon="4.2685878378183695"><ele>887.0</ele><time>2026-04-06T13:37:44Z</time></trkpt><trkpt lat="44.8504118592799" lon="4.268423839565391"><ele>887.0</ele><time>2026-04-06T13:37:45Z</time></trkpt><trkpt lat="44.85033271090961" lon="4.2682895527976985"><ele>887.0</ele><time>2026-04-06T13:37:46Z</time></trkpt><trkpt lat="44.85028129361832" lon="4.2681698744632515"><ele>887.0</ele><time>2026-04-06T13:37:47Z</time></trkpt><trkpt lat="44.85021326636929" lon="4.268023898262122"><ele>887.0</ele><time>2026-04-06T13:37:48Z</time></trkpt><trkpt lat="44.85016074192224" lon="4.267891262130551"><ele>887.0</ele><time>2026-04-06T13:37:49Z</time></trkpt><trkpt lat="44.850109665777026" lon="4.267752991830318"><ele>887.0</ele><time>2026-04-06T13:37:50Z</time></trkpt><trkpt lat="44.85005481576864" lon="4.267608549531395"><ele>887.0</ele><time>2026-04-06T13:37:51Z</time></trkpt><trkpt lat="44.85000036264789" lon="4.267477897479146"><ele>887.0</ele><time>2026-04-06T13:37:52Z</time></trkpt><trkpt lat="44.84995456350351" lon="4.267348194432222"><ele>887.0</ele><time>2026-04-06T13:37:53Z</time></trkpt><trkpt lat="44.84990598590936" lon="4.267188571323157"><ele>887.0</ele><time>2026-04-06T13:37:54Z</time></trkpt><trkpt lat="44.849869693140754" lon="4.267021304756384"><ele>887.0</ele><time>2026-04-06T13:37:55Z</time></trkpt><trkpt lat="44.84983367064309" lon="4.266843647742942"><ele>887.0</ele><time>2026-04-06T13:37:56Z</time></trkpt><trkpt lat="44.84977939860754" lon="4.266668191189016"><ele>887.0</ele><time>2026-04-06T13:37:57Z</time></trkpt><trkpt lat="44.84974725120948" lon="4.266507549241838"><ele>889.25</ele><time>2026-04-06T13:37:58Z</time></trkpt><trkpt lat="44.8497132563984" lon="4.266360039364355"><ele>891.5</ele><time>2026-04-06T13:37:59Z</time></trkpt><trkpt lat="44.84968224922439" lon="4.266219502013673"><ele>893.75</ele><time>2026-04-06T13:38:00Z</time></trkpt><trkpt lat="44.849652024557365" lon="4.26606298574668"><ele>896.0</ele><time>2026-04-06T13:38:01Z</time></trkpt><trkpt lat="44.84962539439786" lon="4.265891810871449"><ele>896.0</ele><time>2026-04-06T13:38:02Z</time></trkpt><trkpt lat="44.84961322964811" lon="4.265753313354675"><ele>895.9999999999999</ele><time>2026-04-06T13:38:03Z</time></trkpt><trkpt lat="44.849606794150546" lon="4.265621943051607"><ele>895.9999999999999</ele><time>2026-04-06T13:38:04Z</time></trkpt><trkpt lat="44.84960700212286" lon="4.2654950941689345"><ele>896.0</ele><time>2026-04-06T13:38:05Z</time></trkpt><trkpt lat="44.849615939257035" lon="4.2653571026929855"><ele>896.0</ele><time>2026-04-06T13:38:06Z</time></trkpt><trkpt lat="44.849640440599586" lon="4.265254631874782"><ele>896.5000000000001</ele><time>2026-04-06T13:38:07Z</time></trkpt><trkpt lat="44.849636168900446" lon="4.265152137130733"><ele>897.0</ele><time>2026-04-06T13:38:08Z</time></trkpt><trkpt lat="44.849594712053744" lon="4.265042477478809"><ele>897.5</ele><time>2026-04-06T13:38:09Z</time></trkpt><trkpt lat="44.84952369480728" lon="4.265005594444741"><ele>898.0</ele><time>2026-04-06T13:38:10Z</time></trkpt><trkpt lat="44.84944518576784" lon="4.2649557041823964"><ele>898.5000000000001</ele><time>2026-04-06T13:38:11Z</time></trkpt><trkpt lat="44.84937507038169" lon="4.264854482081792"><ele>899.0</ele><time>2026-04-06T13:38:12Z</time></trkpt><trkpt lat="44.84933322557311" lon="4.264756292421883"><ele>901.2</ele><time>2026-04-06T13:38:13Z</time></trkpt><trkpt lat="44.8492982632967" lon="4.264663646251675"><ele>903.4000000000001</ele><time>2026-04-06T13:38:14Z</time></trkpt><trkpt lat="44.849281800806075" lon="4.264526073672918"><ele>905.6</ele><time>2026-04-06T13:38:15Z</time></trkpt><trkpt lat="44.849310756189475" lon="4.26438160010378"><ele>907.8</ele><time>2026-04-06T13:38:16Z</time></trkpt><trkpt lat="44.849330864834926" lon="4.264256568719249"><ele>910.0</ele><time>2026-04-06T13:38:17Z</time></trkpt><trkpt lat="44.8493451635437" lon="4.264116261973338"><ele>910.0</ele><time>2026-04-06T13:38:18Z</time></trkpt><trkpt lat="44.84939638418084" lon="4.2639774454847315"><ele>910.0</ele><time>2026-04-06T13:38:19Z</time></trkpt><trkpt lat="44.84943122020426" lon="4.263831891337926"><ele>910.0</ele><time>2026-04-06T13:38:20Z</time></trkpt><trkpt lat="44.8494411110019" lon="4.263688087969619"><ele>910.0</ele><time>2026-04-06T13:38:21Z</time></trkpt><trkpt lat="44.8494531737029" lon="4.263569371337887"><ele>910.0</ele><time>2026-04-06T13:38:22Z</time></trkpt><trkpt lat="44.84944253680644" lon="4.263451157357302"><ele>910.8</ele><time>2026-04-06T13:38:23Z</time></trkpt><trkpt lat="44.849421917726026" lon="4.26334564685558"><ele>911.6</ele><time>2026-04-06T13:38:24Z</time></trkpt><trkpt lat="44.84931440178257" lon="4.26332453825155"><ele>912.4000000000001</ele><time>2026-04-06T13:38:25Z</time></trkpt><trkpt lat="44.84926210772751" lon="4.263194336348073"><ele>913.2</ele><time>2026-04-06T13:38:26Z</time></trkpt><trkpt lat="44.84921982712473" lon="4.26305625957441"><ele>914.0</ele><time>2026-04-06T13:38:27Z</time></trkpt><trkpt lat="44.84919263367485" lon="4.26296694764588"><ele>908.75</ele><time>2026-04-06T13:38:28Z</time></trkpt><trkpt lat="44.84915158805472" lon="4.262830301183126"><ele>903.5</ele><time>2026-04-06T13:38:29Z</time></trkpt><trkpt lat="44.84911193381947" lon="4.262662350287841"><ele>898.25</ele><time>2026-04-06T13:38:30Z</time></trkpt><trkpt lat="44.84907311726098" lon="4.262509110713097"><ele>893.0</ele><time>2026-04-06T13:38:31Z</time></trkpt><trkpt lat="44.84904045025778" lon="4.26233823066909"><ele>894.8</ele><time>2026-04-06T13:38:32Z</time></trkpt><trkpt lat="44.84904061121475" lon="4.262185597330959"><ele>896.5999999999999</ele><time>2026-04-06T13:38:33Z</time></trkpt><trkpt lat="44.849018234906566" lon="4.262055333548109"><ele>898.4000000000001</ele><time>2026-04-06T13:38:34Z</time></trkpt><trkpt lat="44.84901668474717" lon="4.261919085123199"><ele>900.2</ele><time>2026-04-06T13:38:35Z</time></trkpt><trkpt lat="44.84899962349096" lon="4.261791395341971"><ele>902.0</ele><time>2026-04-06T13:38:36Z</time></trkpt><trkpt lat="44.8489973695132" lon="4.26167189447004"><ele>902.0</ele><time>2026-04-06T13:38:37Z</time></trkpt><trkpt lat="44.84897833060257" lon="4.261545662761199"><ele>902.0</ele><time>2026-04-06T13:38:38Z</time></trkpt><trkpt lat="44.84896068029514" lon="4.261419951575334"><ele>902.0</ele><time>2026-04-06T13:38:39Z</time></trkpt><trkpt lat="44.848944928870566" lon="4.261298752158969"><ele>902.0</ele><time>2026-04-06T13:38:40Z</time></trkpt><trkpt lat="44.848932804660954" lon="4.261161222420116"><ele>902.0</ele><time>2026-04-06T13:38:41Z</time></trkpt><trkpt lat="44.84890251024931" lon="4.261021803420666"><ele>902.8333333333334</ele><time>2026-04-06T13:38:42Z</time></trkpt><trkpt lat="44.848886511358884" lon="4.260889527156049"><ele>903.6666666666667</ele><time>2026-04-06T13:38:43Z</time></trkpt><trkpt lat="44.84887505835398" lon="4.260761277117569"><ele>904.5</ele><time>2026-04-06T13:38:44Z</time></trkpt><trkpt lat="44.84887031203487" lon="4.26063614766038"><ele>905.3333333333333</ele><time>2026-04-06T13:38:45Z</time></trkpt><trkpt lat="44.84887514265836" lon="4.260533165405552"><ele>906.1666666666666</ele><time>2026-04-06T13:38:46Z</time></trkpt><trkpt lat="44.84885139081319" lon="4.260427596735878"><ele>907.0</ele><time>2026-04-06T13:38:47Z</time></trkpt><trkpt lat="44.848834969451275" lon="4.260310535602256"><ele>907.3333333333333</ele><time>2026-04-06T13:38:48Z</time></trkpt><trkpt lat="44.84880989134382" lon="4.260203735715815"><ele>907.6666666666666</ele><time>2026-04-06T13:38:49Z</time></trkpt><trkpt lat="44.84878221786419" lon="4.260117560422824"><ele>908.0</ele><time>2026-04-06T13:38:50Z</time></trkpt><trkpt lat="44.848721909043064" lon="4.259996108386074"><ele>908.3333333333333</ele><time>2026-04-06T13:38:52Z</time></trkpt><trkpt lat="44.8486578992544" lon="4.259854124496589"><ele>908.6666666666666</ele><time>2026-04-06T13:38:54Z</time></trkpt><trkpt lat="44.848617892400846" lon="4.259765382919329"><ele>909.0</ele><time>2026-04-06T13:38:55Z</time></trkpt><trkpt lat="44.84861111115227" lon="4.259643122398584"><ele>910.1666666666666</ele><time>2026-04-06T13:38:56Z</time></trkpt><trkpt lat="44.848584498201404" lon="4.259556394958559"><ele>911.3333333333333</ele><time>2026-04-06T13:38:57Z</time></trkpt><trkpt lat="44.84849895432606" lon="4.25949233310167"><ele>912.5</ele><time>2026-04-06T13:39:00Z</time></trkpt><trkpt lat="44.84842675383095" lon="4.259533728889426"><ele>913.6666666666666</ele><time>2026-04-06T13:39:01Z</time></trkpt><trkpt lat="44.84836768046782" lon="4.259617672929381"><ele>914.8333333333333</ele><time>2026-04-06T13:39:02Z</time></trkpt><trkpt lat="44.848300406574694" lon="4.259739211125616"><ele>916.0</ele><time>2026-04-06T13:39:03Z</time></trkpt><trkpt lat="44.848229088919055" lon="4.2598373826763885"><ele>910.5999999999999</ele><time>2026-04-06T13:39:04Z</time></trkpt><trkpt lat="44.84816130730553" lon="4.259939533735042"><ele>905.1999999999999</ele><time>2026-04-06T13:39:05Z</time></trkpt><trkpt lat="44.84807827968542" lon="4.2600457410629975"><ele>899.8000000000001</ele><time>2026-04-06T13:39:06Z</time></trkpt><trkpt lat="44.84801257944525" lon="4.260165166844735"><ele>894.4000000000001</ele><time>2026-04-06T13:39:07Z</time></trkpt><trkpt lat="44.847949778080825" lon="4.260268595013479"><ele>889.0</ele><time>2026-04-06T13:39:08Z</time></trkpt><trkpt lat="44.8478911307644" lon="4.260378848604623"><ele>888.9999999999999</ele><time>2026-04-06T13:39:09Z</time></trkpt><trkpt lat="44.84784149809477" lon="4.260474871231764"><ele>889.0</ele><time>2026-04-06T13:39:10Z</time></trkpt><trkpt lat="44.84779151024066" lon="4.260546055237905"><ele>889.0</ele><time>2026-04-06T13:39:11Z</time></trkpt><trkpt lat="44.84774009709309" lon="4.260606255640194"><ele>889.0</ele><time>2026-04-06T13:39:12Z</time></trkpt><trkpt lat="44.84767845701044" lon="4.260639896607449"><ele>888.9999999999999</ele><time>2026-04-06T13:39:13Z</time></trkpt><trkpt lat="44.84761019190817" lon="4.260606193830271"><ele>889.0</ele><time>2026-04-06T13:39:14Z</time></trkpt><trkpt lat="44.847512986904555" lon="4.26054827086551"><ele>891.5</ele><time>2026-04-06T13:39:15Z</time></trkpt><trkpt lat="44.847403655671336" lon="4.260492567585602"><ele>894.0</ele><time>2026-04-06T13:39:16Z</time></trkpt><trkpt lat="44.8472921241117" lon="4.260415774204307"><ele>896.5</ele><time>2026-04-06T13:39:17Z</time></trkpt><trkpt lat="44.847192292349405" lon="4.260348621889938"><ele>899.0</ele><time>2026-04-06T13:39:18Z</time></trkpt><trkpt lat="44.84708980636958" lon="4.26030322724817"><ele>899.0</ele><time>2026-04-06T13:39:19Z</time></trkpt><trkpt lat="44.84699961865897" lon="4.2602372602105"><ele>899.0000000000001</ele><time>2026-04-06T13:39:20Z</time></trkpt><trkpt lat="44.84691877484475" lon="4.260181447699689"><ele>899.0000000000001</ele><time>2026-04-06T13:39:21Z</time></trkpt><trkpt lat="44.846832849448376" lon="4.260123672051195"><ele>899.0</ele><time>2026-04-06T13:39:22Z</time></trkpt><trkpt lat="44.84675438395982" lon="4.260072455305622"><ele>899.0</ele><time>2026-04-06T13:39:23Z</time></trkpt><trkpt lat="44.846671615748996" lon="4.260024326950828"><ele>899.1666666666667</ele><time>2026-04-06T13:39:24Z</time></trkpt><trkpt lat="44.84656519507148" lon="4.25993727919836"><ele>899.3333333333334</ele><time>2026-04-06T13:39:26Z</time></trkpt><trkpt lat="44.84651441963641" lon="4.259841384999709"><ele>899.5</ele><time>2026-04-06T13:39:27Z</time></trkpt><trkpt lat="44.84647596057718" lon="4.259741299757028"><ele>899.6666666666667</ele><time>2026-04-06T13:39:28Z</time></trkpt><trkpt lat="44.84641534237496" lon="4.259674765716836"><ele>899.8333333333334</ele><time>2026-04-06T13:39:29Z</time></trkpt><trkpt lat="44.84635421218025" lon="4.259623896798236"><ele>900.0</ele><time>2026-04-06T13:39:30Z</time></trkpt><trkpt lat="44.84626444198081" lon="4.259502551788082"><ele>900.0</ele><time>2026-04-06T13:39:32Z</time></trkpt><trkpt lat="44.84621292907631" lon="4.259353689083105"><ele>900.0</ele><time>2026-04-06T13:39:34Z</time></trkpt><trkpt lat="44.84617050959395" lon="4.259277512467433"><ele>900.0</ele><time>2026-04-06T13:39:36Z</time></trkpt><trkpt lat="44.84618721465203" lon="4.2591916069895515"><ele>900.0</ele><time>2026-04-06T13:39:41Z</time></trkpt><trkpt lat="44.846042116683996" lon="4.259154872063546"><ele>900.0</ele><time>2026-04-06T13:39:45Z</time></trkpt><trkpt lat="44.84596848319163" lon="4.259152051160232"><ele>898.1666666666666</ele><time>2026-04-06T13:39:46Z</time></trkpt><trkpt lat="44.84588956005934" lon="4.259158607580301"><ele>896.3333333333333</ele><time>2026-04-06T13:39:47Z</time></trkpt><trkpt lat="44.84581784714503" lon="4.259138757518875"><ele>894.5</ele><time>2026-04-06T13:39:48Z</time></trkpt><trkpt lat="44.845720365185905" lon="4.259130760396304"><ele>892.6666666666666</ele><time>2026-04-06T13:39:50Z</time></trkpt><trkpt lat="44.84565303395616" lon="4.2591431519785035"><ele>890.8333333333333</ele><time>2026-04-06T13:39:52Z</time></trkpt><trkpt lat="44.845582329094434" lon="4.259134530226274"><ele>889.0</ele><time>2026-04-06T13:39:55Z</time></trkpt><trkpt lat="44.84550720910748" lon="4.259171866536087"><ele>888.9999999999999</ele><time>2026-04-06T13:40:21Z</time></trkpt><trkpt lat="44.84543705191619" lon="4.259137137097235"><ele>889.0</ele><time>2026-04-06T13:40:36Z</time></trkpt><trkpt lat="44.845361749711735" lon="4.259096568713159"><ele>889.0</ele><time>2026-04-06T13:40:39Z</time></trkpt><trkpt lat="44.84529580946241" lon="4.259046048011414"><ele>889.0</ele><time>2026-04-06T13:40:42Z</time></trkpt><trkpt lat="44.84526601343626" lon="4.258904281356167"><ele>888.9999999999999</ele><time>2026-04-06T13:40:45Z</time></trkpt><trkpt lat="44.84521804016665" lon="4.258794621516687"><ele>889.0</ele><time>2026-04-06T13:40:47Z</time></trkpt><trkpt lat="44.84518156887276" lon="4.258711914508247"><ele>893.4000000000001</ele><time>2026-04-06T13:40:49Z</time></trkpt><trkpt lat="44.84512819285837" lon="4.25862745028392"><ele>897.8000000000001</ele><time>2026-04-06T13:40:51Z</time></trkpt><trkpt lat="44.845092223863" lon="4.258548897783404"><ele>902.1999999999999</ele><time>2026-04-06T13:40:56Z</time></trkpt><trkpt lat="44.845016541843265" lon="4.2584205171082194"><ele>906.5999999999999</ele><time>2026-04-06T13:40:57Z</time></trkpt><trkpt lat="44.84501948722795" lon="4.258286926211133"><ele>911.0</ele><time>2026-04-06T13:41:00Z</time></trkpt><trkpt lat="44.84490985722018" lon="4.258189680944199"><ele>911.5999999999999</ele><time>2026-04-06T13:41:02Z</time></trkpt><trkpt lat="44.84488633355577" lon="4.258053393296627"><ele>912.1999999999999</ele><time>2026-04-06T13:41:06Z</time></trkpt><trkpt lat="44.844853102186136" lon="4.25796592350009"><ele>912.8000000000001</ele><time>2026-04-06T13:41:09Z</time></trkpt><trkpt lat="44.84481856917822" lon="4.2578342751855045"><ele>913.4000000000001</ele><time>2026-04-06T13:41:12Z</time></trkpt><trkpt lat="44.84470365625981" lon="4.257748577353625"><ele>914.0</ele><time>2026-04-06T13:41:15Z</time></trkpt><trkpt lat="44.84470156093575" lon="4.257617361661203"><ele>914.0</ele><time>2026-04-06T13:41:17.999Z</time></trkpt><trkpt lat="44.84461303440568" lon="4.25756686865384"><ele>914.0000000000001</ele><time>2026-04-06T13:41:20.999Z</time></trkpt><trkpt lat="44.84448785636629" lon="4.257494673236083"><ele>914.0000000000001</ele><time>2026-04-06T13:41:23Z</time></trkpt><trkpt lat="44.844403465847336" lon="4.257486112333199"><ele>914.0</ele><time>2026-04-06T13:41:25Z</time></trkpt><trkpt lat="44.84434076612997" lon="4.2574263384896245"><ele>914.0</ele><time>2026-04-06T13:41:29Z</time></trkpt><trkpt lat="44.84431605546356" lon="4.257338040153721"><ele>914.0000000000001</ele><time>2026-04-06T13:42:03Z</time></trkpt><trkpt lat="44.844267151344795" lon="4.257423161709605"><ele>914.0</ele><time>2026-04-06T13:42:36Z</time></trkpt><trkpt lat="44.84429394935151" lon="4.257294848714734"><ele>914.0</ele><time>2026-04-06T13:42:43Z</time></trkpt><trkpt lat="44.844335939045095" lon="4.257367918301864"><ele>914.0</ele><time>2026-04-06T13:42:48Z</time></trkpt><trkpt lat="44.844245502637435" lon="4.257359253941661"><ele>914.0000000000001</ele><time>2026-04-06T13:42:49Z</time></trkpt><trkpt lat="44.84430804913563" lon="4.2573053796181135"><ele>914.0</ele><time>2026-04-06T13:42:52Z</time></trkpt><trkpt lat="44.84436048748043" lon="4.257234311894478"><ele>914.0000000000001</ele><time>2026-04-06T13:43:14Z</time></trkpt><trkpt lat="44.84438472936824" lon="4.257318856018784"><ele>914.0</ele><time>2026-04-06T13:43:17Z</time></trkpt><trkpt lat="44.844334812106666" lon="4.2572507730119264"><ele>914.0000000000001</ele><time>2026-04-06T13:43:23.999Z</time></trkpt><trkpt lat="44.844299154152466" lon="4.257161623054181"><ele>914.0000000000001</ele><time>2026-04-06T13:43:28Z</time></trkpt><trkpt lat="44.844289384847556" lon="4.257069045109101"><ele>914.0</ele><time>2026-04-06T13:43:30Z</time></trkpt><trkpt lat="44.844224880349095" lon="4.257033365300728"><ele>914.0000000000001</ele><time>2026-04-06T13:43:46Z</time></trkpt><trkpt lat="44.84431083646182" lon="4.257018605034177"><ele>914.0000000000001</ele><time>2026-04-06T13:44:11Z</time></trkpt><trkpt lat="44.844196176213835" lon="4.257040153616291"><ele>919.6666666666667</ele><time>2026-04-06T13:44:32Z</time></trkpt><trkpt lat="44.84413495479737" lon="4.256941383895699"><ele>925.3333333333334</ele><time>2026-04-06T13:44:54Z</time></trkpt><trkpt lat="44.844194728633134" lon="4.2569998873716965"><ele>931.0</ele><time>2026-04-06T13:45:00Z</time></trkpt><trkpt lat="44.84414044801068" lon="4.256953438723741"><ele>936.6666666666667</ele><time>2026-04-06T13:45:10Z</time></trkpt><trkpt lat="44.84427582645419" lon="4.256902280826903"><ele>942.3333333333334</ele><time>2026-04-06T13:45:27.999Z</time></trkpt><trkpt lat="44.84420349544443" lon="4.256867743294304"><ele>948.0</ele><time>2026-04-06T13:45:55Z</time></trkpt><trkpt lat="44.84411811438663" lon="4.2569080215239365"><ele>948.0</ele><time>2026-04-06T13:46:06Z</time></trkpt><trkpt lat="44.844072996670356" lon="4.256830741948172"><ele>948.0</ele><time>2026-04-06T13:46:34Z</time></trkpt><trkpt lat="44.844038769227886" lon="4.256754415761862"><ele>948.0</ele><time>2026-04-06T13:46:36Z</time></trkpt><trkpt lat="44.84396173951709" lon="4.256686047229819"><ele>948.0</ele><time>2026-04-06T13:46:39Z</time></trkpt><trkpt lat="44.84388447727186" lon="4.256657483632072"><ele>948.0</ele><time>2026-04-06T13:46:43Z</time></trkpt><trkpt lat="44.84382126140123" lon="4.2566446290152715"><ele>948.0</ele><time>2026-04-06T13:46:47Z</time></trkpt><trkpt lat="44.8437479840499" lon="4.25659976906111"><ele>948.0</ele><time>2026-04-06T13:47:03Z</time></trkpt><trkpt lat="44.84381764672981" lon="4.256536937592211"><ele>948.0</ele><time>2026-04-06T13:47:15Z</time></trkpt><trkpt lat="44.84382413149789" lon="4.256707549109072"><ele>948.0</ele><time>2026-04-06T13:47:38.999Z</time></trkpt><trkpt lat="44.84377499274835" lon="4.25663600807927"><ele>948.0</ele><time>2026-04-06T13:48:42Z</time></trkpt><trkpt lat="44.84367231706311" lon="4.2566220829366905"><ele>948.0</ele><time>2026-04-06T13:48:48Z</time></trkpt><trkpt lat="44.843626517949325" lon="4.2565398665181515"><ele>948.0</ele><time>2026-04-06T13:48:51Z</time></trkpt><trkpt lat="44.84356094036277" lon="4.2564639861596625"><ele>948.0</ele><time>2026-04-06T13:48:54Z</time></trkpt><trkpt lat="44.843512338879094" lon="4.2563490821689305"><ele>948.0</ele><time>2026-04-06T13:48:56Z</time></trkpt><trkpt lat="44.84345677391999" lon="4.256239140940534"><ele>948.0</ele><time>2026-04-06T13:48:59Z</time></trkpt><trkpt lat="44.84340283349635" lon="4.256105606037981"><ele>948.0</ele><time>2026-04-06T13:49:02Z</time></trkpt><trkpt lat="44.843344561853385" lon="4.256054156667364"><ele>952.0</ele><time>2026-04-06T13:49:03Z</time></trkpt><trkpt lat="44.84324970396287" lon="4.256002613127456"><ele>956.0</ele><time>2026-04-06T13:49:05Z</time></trkpt><trkpt lat="44.84318603400073" lon="4.255924240805063"><ele>960.0</ele><time>2026-04-06T13:49:08Z</time></trkpt><trkpt lat="44.843104134238104" lon="4.2559056190905"><ele>964.0</ele><time>2026-04-06T13:49:10Z</time></trkpt><trkpt lat="44.84304005376004" lon="4.25597682073798"><ele>968.0</ele><time>2026-04-06T13:49:14Z</time></trkpt><trkpt lat="44.8429676445177" lon="4.255983774491491"><ele>972.0</ele><time>2026-04-06T13:49:16Z</time></trkpt><trkpt lat="44.84291753734117" lon="4.255929390617033"><ele>972.0</ele><time>2026-04-06T13:49:18Z</time></trkpt><trkpt lat="44.842846143024666" lon="4.255891119522732"><ele>972.0</ele><time>2026-04-06T13:49:22Z</time></trkpt><trkpt lat="44.84280440523063" lon="4.255718429142875"><ele>972.0</ele><time>2026-04-06T13:49:26Z</time></trkpt><trkpt lat="44.84274238742574" lon="4.255648014236401"><ele>972.0</ele><time>2026-04-06T13:49:28Z</time></trkpt><trkpt lat="44.84265253384465" lon="4.2555428361286864"><ele>972.0</ele><time>2026-04-06T13:49:29.999Z</time></trkpt><trkpt lat="44.84251147405212" lon="4.255544598627707"><ele>974.8</ele><time>2026-04-06T13:49:32.999Z</time></trkpt><trkpt lat="44.84240198277701" lon="4.2555175861960395"><ele>977.6</ele><time>2026-04-06T13:49:33.999Z</time></trkpt><trkpt lat="44.84234096828769" lon="4.255359294816892"><ele>980.3999999999999</ele><time>2026-04-06T13:49:37.999Z</time></trkpt><trkpt lat="44.84227321367839" lon="4.255328362165585"><ele>983.1999999999999</ele><time>2026-04-06T13:49:39.999Z</time></trkpt><trkpt lat="44.842209704322094" lon="4.25526729072867"><ele>986.0</ele><time>2026-04-06T13:49:41.999Z</time></trkpt><trkpt lat="44.842177411728215" lon="4.255178774102205"><ele>986.0</ele><time>2026-04-06T13:49:43.999Z</time></trkpt><trkpt lat="44.84208567627674" lon="4.2550927515022465"><ele>986.0</ele><time>2026-04-06T13:49:46Z</time></trkpt><trkpt lat="44.8421449949022" lon="4.254881445540454"><ele>986.0</ele><time>2026-04-06T13:49:48Z</time></trkpt><trkpt lat="44.842058053138665" lon="4.254823116624501"><ele>986.0</ele><time>2026-04-06T13:49:51Z</time></trkpt><trkpt lat="44.84200708421633" lon="4.254711031298552"><ele>983.6666666666667</ele><time>2026-04-06T13:49:53Z</time></trkpt><trkpt lat="44.84191870788811" lon="4.254648998362518"><ele>981.3333333333334</ele><time>2026-04-06T13:49:58Z</time></trkpt><trkpt lat="44.841858557373264" lon="4.254600976569202"><ele>979.0</ele><time>2026-04-06T13:50:00Z</time></trkpt><trkpt lat="44.841767068378694" lon="4.254611636724969"><ele>976.6666666666667</ele><time>2026-04-06T13:50:06Z</time></trkpt><trkpt lat="44.841696148917315" lon="4.254593701244829"><ele>974.3333333333334</ele><time>2026-04-06T13:50:14Z</time></trkpt><trkpt lat="44.84176164929692" lon="4.254545927087231"><ele>972.0</ele><time>2026-04-06T13:52:09Z</time></trkpt><trkpt lat="44.84168335344896" lon="4.25464036609964"><ele>977.1666666666666</ele><time>2026-04-06T13:52:23Z</time></trkpt><trkpt lat="44.841652616524065" lon="4.254551013469246"><ele>982.3333333333333</ele><time>2026-04-06T13:52:29Z</time></trkpt><trkpt lat="44.841584676561894" lon="4.254488985394104"><ele>987.5</ele><time>2026-04-06T13:52:36Z</time></trkpt><trkpt lat="44.84152937229949" lon="4.254445125278768"><ele>992.6666666666666</ele><time>2026-04-06T13:52:38Z</time></trkpt><trkpt lat="44.84152658872152" lon="4.254344034103017"><ele>997.8333333333333</ele><time>2026-04-06T13:52:40Z</time></trkpt><trkpt lat="44.84145319090911" lon="4.254243672446194"><ele>1003.0</ele><time>2026-04-06T13:52:42Z</time></trkpt><trkpt lat="44.84140182215488" lon="4.254177978124912"><ele>1003.0</ele><time>2026-04-06T13:52:44Z</time></trkpt><trkpt lat="44.841349977535444" lon="4.254110056058257"><ele>1002.9999999999999</ele><time>2026-04-06T13:52:46Z</time></trkpt><trkpt lat="44.841317284836855" lon="4.254018267874056"><ele>1003.0</ele><time>2026-04-06T13:53:13Z</time></trkpt><trkpt lat="44.84128802851406" lon="4.253911098462347"><ele>1003.0</ele><time>2026-04-06T13:53:15Z</time></trkpt><trkpt lat="44.841252664264296" lon="4.253837161609617"><ele>1002.9999999999999</ele><time>2026-04-06T13:53:16Z</time></trkpt><trkpt lat="44.8412061033763" lon="4.253767161429526"><ele>1003.0</ele><time>2026-04-06T13:53:17Z</time></trkpt><trkpt lat="44.84113878469988" lon="4.25372722079241"><ele>1003.0</ele><time>2026-04-06T13:53:18Z</time></trkpt><trkpt lat="44.841060795466156" lon="4.2535951418611235"><ele>1000.4999999999999</ele><time>2026-04-06T13:53:20Z</time></trkpt><trkpt lat="44.84100645274997" lon="4.2535376199763055"><ele>998.0</ele><time>2026-04-06T13:53:21Z</time></trkpt><trkpt lat="44.84094436170152" lon="4.2534952898788445"><ele>995.5</ele><time>2026-04-06T13:53:22Z</time></trkpt><trkpt lat="44.8408644246778" lon="4.253382586154905"><ele>993.0</ele><time>2026-04-06T13:53:24Z</time></trkpt><trkpt lat="44.84077278666306" lon="4.253356705886216"><ele>990.4999999999999</ele><time>2026-04-06T13:53:26Z</time></trkpt><trkpt lat="44.84071449484556" lon="4.253292791391574"><ele>988.0</ele><time>2026-04-06T13:53:29Z</time></trkpt><trkpt lat="44.84065911655027" lon="4.253190174010367"><ele>990.8571428571429</ele><time>2026-04-06T13:53:33Z</time></trkpt><trkpt lat="44.84056617024628" lon="4.253166401641965"><ele>993.7142857142857</ele><time>2026-04-06T13:53:36Z</time></trkpt><trkpt lat="44.84049577044428" lon="4.253139589232779"><ele>996.5714285714286</ele><time>2026-04-06T13:53:38Z</time></trkpt><trkpt lat="44.840506115726114" lon="4.253043633613775"><ele>999.4285714285714</ele><time>2026-04-06T13:53:40.999Z</time></trkpt><trkpt lat="44.84048348334349" lon="4.252953873682484"><ele>1002.2857142857142</ele><time>2026-04-06T13:53:42.999Z</time></trkpt><trkpt lat="44.84040594730046" lon="4.252941134279964"><ele>1005.1428571428571</ele><time>2026-04-06T13:53:44.999Z</time></trkpt><trkpt lat="44.84038183562728" lon="4.252858477687841"><ele>1008.0</ele><time>2026-04-06T13:53:47.999Z</time></trkpt><trkpt lat="44.84031751826275" lon="4.252810790403291"><ele>1008.0</ele><time>2026-04-06T13:53:49.999Z</time></trkpt><trkpt lat="44.840239451285875" lon="4.252757559023905"><ele>1008.0</ele><time>2026-04-06T13:53:50.999Z</time></trkpt><trkpt lat="44.840171219774604" lon="4.2527370528164825"><ele>1008.0</ele><time>2026-04-06T13:53:53.999Z</time></trkpt><trkpt lat="44.84013834974229" lon="4.252585809538685"><ele>1008.0</ele><time>2026-04-06T13:53:55.999Z</time></trkpt><trkpt lat="44.84002075718953" lon="4.252496417179183"><ele>1008.0</ele><time>2026-04-06T13:53:58Z</time></trkpt><trkpt lat="44.83992780384813" lon="4.252414881557342"><ele>1010.75</ele><time>2026-04-06T13:53:59Z</time></trkpt><trkpt lat="44.83981195501269" lon="4.252293034807359"><ele>1013.5</ele><time>2026-04-06T13:54:00Z</time></trkpt><trkpt lat="44.83966721840123" lon="4.252269000508979"><ele>1016.25</ele><time>2026-04-06T13:54:01Z</time></trkpt><trkpt lat="44.83953852839938" lon="4.252264436297716"><ele>1019.0</ele><time>2026-04-06T13:54:02Z</time></trkpt><trkpt lat="44.83936575002006" lon="4.252310259288106"><ele>1023.25</ele><time>2026-04-06T13:54:03Z</time></trkpt><trkpt lat="44.839215698573135" lon="4.252297448022078"><ele>1027.5</ele><time>2026-04-06T13:54:04Z</time></trkpt><trkpt lat="44.83910518649923" lon="4.252277585838757"><ele>1031.75</ele><time>2026-04-06T13:54:06Z</time></trkpt><trkpt lat="44.8389659313217" lon="4.252315018095397"><ele>1036.0</ele><time>2026-04-06T13:54:08Z</time></trkpt><trkpt lat="44.83887193247729" lon="4.252331253041027"><ele>1036.0</ele><time>2026-04-06T13:54:10Z</time></trkpt><trkpt lat="44.83879954591043" lon="4.252367734418842"><ele>1036.0</ele><time>2026-04-06T13:54:12Z</time></trkpt><trkpt lat="44.83872926377279" lon="4.252325709468553"><ele>1036.0</ele><time>2026-04-06T13:54:14Z</time></trkpt><trkpt lat="44.8387396887387" lon="4.25222321092718"><ele>1036.0</ele><time>2026-04-06T13:54:19Z</time></trkpt><trkpt lat="44.838679269948486" lon="4.252190657500095"><ele>1036.0</ele><time>2026-04-06T13:54:22Z</time></trkpt><trkpt lat="44.83862985986552" lon="4.2521120036141085"><ele>1036.0</ele><time>2026-04-06T13:54:24Z</time></trkpt><trkpt lat="44.83855371856619" lon="4.252102565300788"><ele>1036.0</ele><time>2026-04-06T13:54:27Z</time></trkpt><trkpt lat="44.83847479282982" lon="4.252120272883601"><ele>1041.6</ele><time>2026-04-06T13:54:29Z</time></trkpt><trkpt lat="44.8384388931019" lon="4.252002338390482"><ele>1047.1999999999998</ele><time>2026-04-06T13:54:32Z</time></trkpt><trkpt lat="44.838338194633465" lon="4.251997505492136"><ele>1052.8000000000002</ele><time>2026-04-06T13:54:34Z</time></trkpt><trkpt lat="44.838268320487614" lon="4.251945449287713"><ele>1058.4</ele><time>2026-04-06T13:54:35Z</time></trkpt><trkpt lat="44.83815359708395" lon="4.25190003008734"><ele>1064.0</ele><time>2026-04-06T13:54:36Z</time></trkpt><trkpt lat="44.83804623408198" lon="4.251836859454134"><ele>1064.0</ele><time>2026-04-06T13:54:38Z</time></trkpt><trkpt lat="44.83794313721065" lon="4.251770585535526"><ele>1064.0</ele><time>2026-04-06T13:54:40Z</time></trkpt><trkpt lat="44.83790659504508" lon="4.25169565889184"><ele>1064.0</ele><time>2026-04-06T13:54:41Z</time></trkpt><trkpt lat="44.8378684621454" lon="4.251610223713747"><ele>1064.0</ele><time>2026-04-06T13:54:46Z</time></trkpt><trkpt lat="44.837788596248394" lon="4.251520308268436"><ele>1064.0</ele><time>2026-04-06T13:54:49Z</time></trkpt><trkpt lat="44.83772399450362" lon="4.251419962119415"><ele>1064.0</ele><time>2026-04-06T13:54:52Z</time></trkpt><trkpt lat="44.83765128432916" lon="4.251391675628751"><ele>1062.3333333333335</ele><time>2026-04-06T13:54:56Z</time></trkpt><trkpt lat="44.83768881530135" lon="4.2513172086749"><ele>1060.6666666666667</ele><time>2026-04-06T13:55:35Z</time></trkpt><trkpt lat="44.83765487163762" lon="4.251439712159359"><ele>1059.0</ele><time>2026-04-06T13:55:43Z</time></trkpt><trkpt lat="44.837583721798836" lon="4.251384945003197"><ele>1057.3333333333333</ele><time>2026-04-06T13:56:01.999Z</time></trkpt><trkpt lat="44.83765828943017" lon="4.251431265220991"><ele>1055.6666666666665</ele><time>2026-04-06T13:56:08Z</time></trkpt><trkpt lat="44.837614971396754" lon="4.251309929901484"><ele>1054.0</ele><time>2026-04-06T13:56:23Z</time></trkpt><trkpt lat="44.83765476080217" lon="4.251394428501744"><ele>1054.0</ele><time>2026-04-06T13:56:33Z</time></trkpt><trkpt lat="44.83771096972074" lon="4.25147179015619"><ele>1054.0</ele><time>2026-04-06T13:56:37Z</time></trkpt><trkpt lat="44.837713581544875" lon="4.25133787195554"><ele>1054.0</ele><time>2026-04-06T13:56:58Z</time></trkpt><trkpt lat="44.83771104551128" lon="4.251231448552789"><ele>1054.0</ele><time>2026-04-06T13:57:00Z</time></trkpt><trkpt lat="44.83766076189095" lon="4.25132475245332"><ele>1054.0</ele><time>2026-04-06T13:57:04Z</time></trkpt><trkpt lat="44.83758867534193" lon="4.251213085332227"><ele>1054.0</ele><time>2026-04-06T13:57:07Z</time></trkpt><trkpt lat="44.83751850476769" lon="4.251179017817711"><ele>1061.6000000000001</ele><time>2026-04-06T13:57:10Z</time></trkpt><trkpt lat="44.83746676223791" lon="4.251120089293509"><ele>1069.2</ele><time>2026-04-06T13:57:11Z</time></trkpt><trkpt lat="44.83737230148279" lon="4.251104667230116"><ele>1076.8000000000002</ele><time>2026-04-06T13:57:14Z</time></trkpt><trkpt lat="44.83726810882717" lon="4.251041169328873"><ele>1084.4</ele><time>2026-04-06T13:57:17Z</time></trkpt><trkpt lat="44.837205617261354" lon="4.251001311175908"><ele>1092.0</ele><time>2026-04-06T13:57:19Z</time></trkpt><trkpt lat="44.83709881784573" lon="4.25096788878211"><ele>1092.0</ele><time>2026-04-06T13:57:25Z</time></trkpt><trkpt lat="44.837075971456926" lon="4.250883862198892"><ele>1092.0</ele><time>2026-04-06T13:57:29Z</time></trkpt><trkpt lat="44.83702978825012" lon="4.250786034940053"><ele>1092.0</ele><time>2026-04-06T13:57:34Z</time></trkpt><trkpt lat="44.836959106013104" lon="4.250749161803501"><ele>1092.0</ele><time>2026-04-06T13:57:37Z</time></trkpt><trkpt lat="44.83683707411638" lon="4.250692250654351"><ele>1092.0</ele><time>2026-04-06T13:57:40Z</time></trkpt><trkpt lat="44.83677240287066" lon="4.250652179836015"><ele>1092.0</ele><time>2026-04-06T13:57:44Z</time></trkpt><trkpt lat="44.836713813974676" lon="4.250610211841562"><ele>1098.5</ele><time>2026-04-06T13:58:20Z</time></trkpt><trkpt lat="44.83665224763804" lon="4.250530844525801"><ele>1105.0</ele><time>2026-04-06T13:58:24Z</time></trkpt><trkpt lat="44.836582462456214" lon="4.250458196990002"><ele>1111.5</ele><time>2026-04-06T13:58:27Z</time></trkpt><trkpt lat="44.83653263655131" lon="4.250376192655442"><ele>1118.0</ele><time>2026-04-06T13:58:29Z</time></trkpt><trkpt lat="44.836474541737815" lon="4.250283536321913"><ele>1124.5</ele><time>2026-04-06T13:58:31Z</time></trkpt><trkpt lat="44.836433831493" lon="4.250175385870579"><ele>1131.0</ele><time>2026-04-06T13:58:33Z</time></trkpt><trkpt lat="44.83634328589463" lon="4.250156030286428"><ele>1131.0</ele><time>2026-04-06T13:58:34Z</time></trkpt><trkpt lat="44.83628584999926" lon="4.250067368043171"><ele>1131.0</ele><time>2026-04-06T13:58:36Z</time></trkpt><trkpt lat="44.83626835997138" lon="4.249896956115252"><ele>1131.0</ele><time>2026-04-06T13:58:40Z</time></trkpt><trkpt lat="44.83619884239701" lon="4.2497965685706225"><ele>1131.0</ele><time>2026-04-06T13:58:43Z</time></trkpt><trkpt lat="44.836139916068724" lon="4.249725419310532"><ele>1131.0</ele><time>2026-04-06T13:58:44Z</time></trkpt><trkpt lat="44.83608407851134" lon="4.24967048774228"><ele>1132.8</ele><time>2026-04-06T13:58:45Z</time></trkpt><trkpt lat="44.83600691520887" lon="4.249588409498038"><ele>1134.6</ele><time>2026-04-06T13:58:46Z</time></trkpt><trkpt lat="44.83591284527586" lon="4.249472635918405"><ele>1136.4</ele><time>2026-04-06T13:58:47Z</time></trkpt><trkpt lat="44.83588825165037" lon="4.249367453780531"><ele>1138.2</ele><time>2026-04-06T13:58:48Z</time></trkpt><trkpt lat="44.83583457063604" lon="4.249192378830172"><ele>1140.0</ele><time>2026-04-06T13:58:50Z</time></trkpt><trkpt lat="44.83578853856212" lon="4.249057966906532"><ele>1143.0</ele><time>2026-04-06T13:58:52Z</time></trkpt><trkpt lat="44.835750927479516" lon="4.2489752206490845"><ele>1146.0</ele><time>2026-04-06T13:58:54Z</time></trkpt><trkpt lat="44.835734512301215" lon="4.248880402074623"><ele>1149.0</ele><time>2026-04-06T13:58:56Z</time></trkpt><trkpt lat="44.835704538212106" lon="4.248802294026181"><ele>1152.0</ele><time>2026-04-06T13:59:01Z</time></trkpt><trkpt lat="44.835707740788926" lon="4.2486006102097305"><ele>1155.0</ele><time>2026-04-06T13:59:03Z</time></trkpt><trkpt lat="44.835685490701174" lon="4.24844969418061"><ele>1157.6666666666667</ele><time>2026-04-06T13:59:06Z</time></trkpt><trkpt lat="44.83566359889939" lon="4.248345773442832"><ele>1160.3333333333333</ele><time>2026-04-06T13:59:07Z</time></trkpt><trkpt lat="44.83570535253438" lon="4.248250411109022"><ele>1163.0</ele><time>2026-04-06T13:59:08Z</time></trkpt><trkpt lat="44.83571836161477" lon="4.248149184879234"><ele>1165.6666666666665</ele><time>2026-04-06T13:59:09Z</time></trkpt><trkpt lat="44.83571086194571" lon="4.24801185417191"><ele>1168.3333333333333</ele><time>2026-04-06T13:59:11Z</time></trkpt><trkpt lat="44.83569307479937" lon="4.247923178730917"><ele>1171.0</ele><time>2026-04-06T13:59:14Z</time></trkpt><trkpt lat="44.835687407938565" lon="4.24780890711998"><ele>1173.5714285714284</ele><time>2026-04-06T13:59:19Z</time></trkpt><trkpt lat="44.835652378084674" lon="4.247734040576293"><ele>1176.142857142857</ele><time>2026-04-06T13:59:25Z</time></trkpt><trkpt lat="44.83563103904757" lon="4.247645021807167"><ele>1178.7142857142858</ele><time>2026-04-06T13:59:43Z</time></trkpt><trkpt lat="44.83564927632046" lon="4.247528434854066"><ele>1181.2857142857142</ele><time>2026-04-06T13:59:46Z</time></trkpt><trkpt lat="44.83562600041052" lon="4.247434478426986"><ele>1183.857142857143</ele><time>2026-04-06T13:59:48Z</time></trkpt><trkpt lat="44.83560116265761" lon="4.247326725603357"><ele>1186.4285714285713</ele><time>2026-04-06T13:59:52Z</time></trkpt><trkpt lat="44.83557273905194" lon="4.247225595729509"><ele>1189.0</ele><time>2026-04-06T13:59:55Z</time></trkpt><trkpt lat="44.835581622949036" lon="4.247133837629494"><ele>1190.7142857142858</ele><time>2026-04-06T13:59:57Z</time></trkpt><trkpt lat="44.83555571578207" lon="4.247030910151032"><ele>1192.4285714285716</ele><time>2026-04-06T14:00:00Z</time></trkpt><trkpt lat="44.83554052727671" lon="4.246935600353667"><ele>1194.1428571428573</ele><time>2026-04-06T14:00:04Z</time></trkpt><trkpt lat="44.83548170196902" lon="4.246844684412244"><ele>1195.857142857143</ele><time>2026-04-06T14:00:06.999Z</time></trkpt><trkpt lat="44.835455393195474" lon="4.246757251957699"><ele>1197.5714285714287</ele><time>2026-04-06T14:00:09.999Z</time></trkpt><trkpt lat="44.83542438272691" lon="4.246676762185491"><ele>1199.2857142857144</ele><time>2026-04-06T14:00:11.999Z</time></trkpt><trkpt lat="44.835381865944335" lon="4.246607523505988"><ele>1201.0</ele><time>2026-04-06T14:00:12.999Z</time></trkpt><trkpt lat="44.83531905196147" lon="4.246570461517723"><ele>1201.0</ele><time>2026-04-06T14:00:16Z</time></trkpt><trkpt lat="44.83528749007618" lon="4.246482585278237"><ele>1201.0</ele><time>2026-04-06T14:00:19Z</time></trkpt><trkpt lat="44.8352535039945" lon="4.246360639393716"><ele>1201.0</ele><time>2026-04-06T14:00:23Z</time></trkpt><trkpt lat="44.83526288985744" lon="4.246249699080461"><ele>1201.0</ele><time>2026-04-06T14:00:26Z</time></trkpt><trkpt lat="44.83525799391563" lon="4.246116952408452"><ele>1201.0</ele><time>2026-04-06T14:00:28Z</time></trkpt><trkpt lat="44.835247911239485" lon="4.245995406824713"><ele>1201.0</ele><time>2026-04-06T14:00:32Z</time></trkpt><trkpt lat="44.83528928458283" lon="4.245928476694854"><ele>1205.3999999999999</ele><time>2026-04-06T14:01:47Z</time></trkpt><trkpt lat="44.835264206094806" lon="4.245827865192946"><ele>1209.8</ele><time>2026-04-06T14:03:03Z</time></trkpt><trkpt lat="44.835312044753096" lon="4.245723495780425"><ele>1214.1999999999998</ele><time>2026-04-06T14:03:05Z</time></trkpt><trkpt lat="44.83532747832343" lon="4.245573779038521"><ele>1218.6</ele><time>2026-04-06T14:03:07Z</time></trkpt><trkpt lat="44.83535616309809" lon="4.245422391342937"><ele>1223.0</ele><time>2026-04-06T14:03:09Z</time></trkpt><trkpt lat="44.83544716342207" lon="4.24532836400871"><ele>1225.8333333333335</ele><time>2026-04-06T14:03:11Z</time></trkpt><trkpt lat="44.83550787286408" lon="4.245199040048438"><ele>1228.6666666666667</ele><time>2026-04-06T14:03:13Z</time></trkpt><trkpt lat="44.83553294133635" lon="4.245116918686354"><ele>1231.5</ele><time>2026-04-06T14:03:14Z</time></trkpt><trkpt lat="44.83558795261017" lon="4.244963190441375"><ele>1234.3333333333333</ele><time>2026-04-06T14:03:16Z</time></trkpt><trkpt lat="44.835605968439275" lon="4.244870214813428"><ele>1237.1666666666665</ele><time>2026-04-06T14:03:17Z</time></trkpt><trkpt lat="44.83561657811536" lon="4.244767710916763"><ele>1240.0</ele><time>2026-04-06T14:03:18Z</time></trkpt><trkpt lat="44.835619661034166" lon="4.244660618684329"><ele>1241.4</ele><time>2026-04-06T14:03:19Z</time></trkpt><trkpt lat="44.83561343467749" lon="4.244562319788306"><ele>1242.8</ele><time>2026-04-06T14:03:20Z</time></trkpt><trkpt lat="44.83559920832993" lon="4.244381672191343"><ele>1244.2</ele><time>2026-04-06T14:03:22Z</time></trkpt><trkpt lat="44.835578514189216" lon="4.244227098726674"><ele>1245.6</ele><time>2026-04-06T14:03:24Z</time></trkpt><trkpt lat="44.835568654421245" lon="4.244095079877339"><ele>1247.0</ele><time>2026-04-06T14:03:26Z</time></trkpt><trkpt lat="44.835562492467155" lon="4.2439778387977345"><ele>1248.8</ele><time>2026-04-06T14:03:28Z</time></trkpt><trkpt lat="44.835548549538586" lon="4.243881919139096"><ele>1250.6</ele><time>2026-04-06T14:03:30Z</time></trkpt><trkpt lat="44.8355485559246" lon="4.243726324862801"><ele>1252.3999999999999</ele><time>2026-04-06T14:03:32Z</time></trkpt><trkpt lat="44.83553803426603" lon="4.243592986464977"><ele>1254.2</ele><time>2026-04-06T14:03:34Z</time></trkpt><trkpt lat="44.835546317918684" lon="4.243426900883373"><ele>1256.0</ele><time>2026-04-06T14:03:37Z</time></trkpt><trkpt lat="44.835492673352846" lon="4.24333645866944"><ele>1256.0</ele><time>2026-04-06T14:03:39Z</time></trkpt><trkpt lat="44.83549243459581" lon="4.243225797457183"><ele>1256.0</ele><time>2026-04-06T14:03:41Z</time></trkpt><trkpt lat="44.83549761629735" lon="4.243136493166445"><ele>1256.0</ele><time>2026-04-06T14:03:42Z</time></trkpt><trkpt lat="44.835536853699814" lon="4.24306296434761"><ele>1256.0</ele><time>2026-04-06T14:03:45Z</time></trkpt><trkpt lat="44.835542145249995" lon="4.242968656055805"><ele>1256.0</ele><time>2026-04-06T14:03:47Z</time></trkpt><trkpt lat="44.835539888499724" lon="4.242851991286777"><ele>1256.0</ele><time>2026-04-06T14:03:49Z</time></trkpt><trkpt lat="44.83557175766542" lon="4.242702708119251"><ele>1257.0</ele><time>2026-04-06T14:03:51Z</time></trkpt><trkpt lat="44.83557923908693" lon="4.242489912539026"><ele>1258.0</ele><time>2026-04-06T14:03:53Z</time></trkpt><trkpt lat="44.8355873351749" lon="4.242382364856544"><ele>1259.0</ele><time>2026-04-06T14:03:55Z</time></trkpt><trkpt lat="44.835567607008535" lon="4.242239662587653"><ele>1260.0</ele><time>2026-04-06T14:03:57Z</time></trkpt><trkpt lat="44.835574026693806" lon="4.2420943720693085"><ele>1261.0</ele><time>2026-04-06T14:03:59Z</time></trkpt><trkpt lat="44.835564392972884" lon="4.241977883556295"><ele>1261.6666666666665</ele><time>2026-04-06T14:04:01Z</time></trkpt><trkpt lat="44.83555346381363" lon="4.241846280025869"><ele>1262.3333333333333</ele><time>2026-04-06T14:04:03Z</time></trkpt><trkpt lat="44.83553421127465" lon="4.241707800888907"><ele>1263.0</ele><time>2026-04-06T14:04:05Z</time></trkpt><trkpt lat="44.83551557037014" lon="4.2416180712456155"><ele>1263.6666666666667</ele><time>2026-04-06T14:04:07Z</time></trkpt><trkpt lat="44.83549139625685" lon="4.241518978991315"><ele>1264.3333333333335</ele><time>2026-04-06T14:04:09.999Z</time></trkpt><trkpt lat="44.83548537974556" lon="4.241380957164359"><ele>1265.0</ele><time>2026-04-06T14:04:11.999Z</time></trkpt><trkpt lat="44.83552461218706" lon="4.241311024264324"><ele>1265.1666666666667</ele><time>2026-04-06T14:04:14.999Z</time></trkpt><trkpt lat="44.83555172591129" lon="4.241189269716862"><ele>1265.3333333333335</ele><time>2026-04-06T14:04:18.999Z</time></trkpt><trkpt lat="44.83558709582596" lon="4.241100751915191"><ele>1265.5</ele><time>2026-04-06T14:04:21.999Z</time></trkpt><trkpt lat="44.835618676264936" lon="4.241006699837731"><ele>1265.6666666666667</ele><time>2026-04-06T14:04:24.999Z</time></trkpt><trkpt lat="44.83563957452406" lon="4.240920160032927"><ele>1265.8333333333333</ele><time>2026-04-06T14:04:26.999Z</time></trkpt><trkpt lat="44.835638756024416" lon="4.240827587609239"><ele>1266.0</ele><time>2026-04-06T14:04:29Z</time></trkpt><trkpt lat="44.835703852130074" lon="4.2407466420838125"><ele>1266.0</ele><time>2026-04-06T14:04:31Z</time></trkpt><trkpt lat="44.83573771974265" lon="4.240669486598027"><ele>1266.0</ele><time>2026-04-06T14:04:32Z</time></trkpt><trkpt lat="44.83577000080945" lon="4.240479826683235"><ele>1266.0</ele><time>2026-04-06T14:04:34Z</time></trkpt><trkpt lat="44.83581131446053" lon="4.240386664412213"><ele>1266.0</ele><time>2026-04-06T14:04:35Z</time></trkpt><trkpt lat="44.83584427588685" lon="4.240232252612933"><ele>1266.0</ele><time>2026-04-06T14:04:36Z</time></trkpt><trkpt lat="44.83585584533957" lon="4.240114705724322"><ele>1265.0</ele><time>2026-04-06T14:04:37Z</time></trkpt><trkpt lat="44.83585462978407" lon="4.239971573153774"><ele>1264.0</ele><time>2026-04-06T14:04:38Z</time></trkpt><trkpt lat="44.83582061631221" lon="4.239856390456511"><ele>1263.0</ele><time>2026-04-06T14:04:40Z</time></trkpt><trkpt lat="44.83584846071246" lon="4.239734994605116"><ele>1262.0</ele><time>2026-04-06T14:04:42Z</time></trkpt><trkpt lat="44.835834991912044" lon="4.239624333252929"><ele>1261.0</ele><time>2026-04-06T14:04:44Z</time></trkpt><trkpt lat="44.83577428528626" lon="4.239540900839277"><ele>1260.0</ele><time>2026-04-06T14:04:46Z</time></trkpt><trkpt lat="44.83566842980623" lon="4.239496165859863"><ele>1258.2</ele><time>2026-04-06T14:04:48Z</time></trkpt><trkpt lat="44.8355574809259" lon="4.239475827004844"><ele>1256.4</ele><time>2026-04-06T14:04:50Z</time></trkpt><trkpt lat="44.835474246196" lon="4.23937806544531"><ele>1254.6</ele><time>2026-04-06T14:04:52Z</time></trkpt><trkpt lat="44.83544753644007" lon="4.2392220701494"><ele>1252.8</ele><time>2026-04-06T14:04:57Z</time></trkpt><trkpt lat="44.835390051486065" lon="4.239179798807955"><ele>1251.0</ele><time>2026-04-06T14:05:00Z</time></trkpt><trkpt lat="44.83534466393883" lon="4.23910375413902"><ele>1251.0</ele><time>2026-04-06T14:05:01Z</time></trkpt><trkpt lat="44.835307800790275" lon="4.239027560460963"><ele>1251.0</ele><time>2026-04-06T14:05:04Z</time></trkpt><trkpt lat="44.835242424139224" lon="4.238970614885359"><ele>1251.0</ele><time>2026-04-06T14:05:05Z</time></trkpt><trkpt lat="44.83518186423451" lon="4.238927568080435"><ele>1251.0</ele><time>2026-04-06T14:05:06Z</time></trkpt><trkpt lat="44.835068669634666" lon="4.238871855891096"><ele>1251.0</ele><time>2026-04-06T14:05:08Z</time></trkpt><trkpt lat="44.835000681132954" lon="4.2388408278517025"><ele>1251.0</ele><time>2026-04-06T14:05:09Z</time></trkpt><trkpt lat="44.8348914853001" lon="4.238799479403399"><ele>1254.3333333333333</ele><time>2026-04-06T14:05:11Z</time></trkpt><trkpt lat="44.834827026433345" lon="4.238756214605256"><ele>1257.6666666666667</ele><time>2026-04-06T14:05:13Z</time></trkpt><trkpt lat="44.83477639776276" lon="4.238680585275295"><ele>1261.0</ele><time>2026-04-06T14:05:15Z</time></trkpt><trkpt lat="44.83482466461292" lon="4.2386071559855205"><ele>1264.3333333333335</ele><time>2026-04-06T14:05:18Z</time></trkpt><trkpt lat="44.834885836701666" lon="4.238577169470979"><ele>1267.6666666666667</ele><time>2026-04-06T14:05:24Z</time></trkpt><trkpt lat="44.8349593066453" lon="4.238480176993227"><ele>1271.0</ele><time>2026-04-06T14:05:28Z</time></trkpt><trkpt lat="44.83528928458283" lon="4.245928476694854"><ele>1264.8</ele><time>2026-04-06T14:01:47Z</time></trkpt><trkpt lat="44.835264206094806" lon="4.245827865192946"><ele>1258.6</ele><time>2026-04-06T14:03:03Z</time></trkpt><trkpt lat="44.835312044753096" lon="4.245723495780425"><ele>1252.4</ele><time>2026-04-06T14:03:05Z</time></trkpt><trkpt lat="44.83532747832343" lon="4.245573779038521"><ele>1246.2</ele><time>2026-04-06T14:03:07Z</time></trkpt><trkpt lat="44.83535616309809" lon="4.245422391342937"><ele>1240.0</ele><time>2026-04-06T14:03:09Z</time></trkpt><trkpt lat="44.83544716342207" lon="4.24532836400871"><ele>1240.0</ele><time>2026-04-06T14:03:11Z</time></trkpt><trkpt lat="44.83550787286408" lon="4.245199040048438"><ele>1240.0</ele><time>2026-04-06T14:03:13Z</time></trkpt><trkpt lat="44.83553294133635" lon="4.245116918686354"><ele>1240.0</ele><time>2026-04-06T14:03:14Z</time></trkpt><trkpt lat="44.83558795261017" lon="4.244963190441375"><ele>1240.0</ele><time>2026-04-06T14:03:16Z</time></trkpt><trkpt lat="44.835605968439275" lon="4.244870214813428"><ele>1240.0</ele><time>2026-04-06T14:03:17Z</time></trkpt><trkpt lat="44.83561657811536" lon="4.244767710916763"><ele>1240.0</ele><time>2026-04-06T14:03:18Z</time></trkpt><trkpt lat="44.835619661034166" lon="4.244660618684329"><ele>1241.4</ele><time>2026-04-06T14:03:19Z</time></trkpt><trkpt lat="44.83561343467749" lon="4.244562319788306"><ele>1242.8</ele><time>2026-04-06T14:03:20Z</time></trkpt><trkpt lat="44.83559920832993" lon="4.244381672191343"><ele>1244.2</ele><time>2026-04-06T14:03:22Z</time></trkpt><trkpt lat="44.835578514189216" lon="4.244227098726674"><ele>1245.6</ele><time>2026-04-06T14:03:24Z</time></trkpt><trkpt lat="44.835568654421245" lon="4.244095079877339"><ele>1247.0</ele><time>2026-04-06T14:03:26Z</time></trkpt><trkpt lat="44.835562492467155" lon="4.2439778387977345"><ele>1248.8</ele><time>2026-04-06T14:03:28Z</time></trkpt><trkpt lat="44.835548549538586" lon="4.243881919139096"><ele>1250.6</ele><time>2026-04-06T14:03:30Z</time></trkpt><trkpt lat="44.8355485559246" lon="4.243726324862801"><ele>1252.3999999999999</ele><time>2026-04-06T14:03:32Z</time></trkpt><trkpt lat="44.83553803426603" lon="4.243592986464977"><ele>1254.2</ele><time>2026-04-06T14:03:34Z</time></trkpt><trkpt lat="44.835546317918684" lon="4.243426900883373"><ele>1256.0</ele><time>2026-04-06T14:03:37Z</time></trkpt><trkpt lat="44.835492673352846" lon="4.24333645866944"><ele>1256.0</ele><time>2026-04-06T14:03:39Z</time></trkpt><trkpt lat="44.83549243459581" lon="4.243225797457183"><ele>1256.0</ele><time>2026-04-06T14:03:41Z</time></trkpt><trkpt lat="44.83549761629735" lon="4.243136493166445"><ele>1256.0</ele><time>2026-04-06T14:03:42Z</time></trkpt><trkpt lat="44.835536853699814" lon="4.24306296434761"><ele>1256.0</ele><time>2026-04-06T14:03:45Z</time></trkpt><trkpt lat="44.835542145249995" lon="4.242968656055805"><ele>1256.0</ele><time>2026-04-06T14:03:47Z</time></trkpt><trkpt lat="44.835539888499724" lon="4.242851991286777"><ele>1256.0</ele><time>2026-04-06T14:03:49Z</time></trkpt><trkpt lat="44.83557175766542" lon="4.242702708119251"><ele>1257.0</ele><time>2026-04-06T14:03:51Z</time></trkpt><trkpt lat="44.83557923908693" lon="4.242489912539026"><ele>1258.0</ele><time>2026-04-06T14:03:53Z</time></trkpt><trkpt lat="44.8355873351749" lon="4.242382364856544"><ele>1259.0</ele><time>2026-04-06T14:03:55Z</time></trkpt><trkpt lat="44.835567607008535" lon="4.242239662587653"><ele>1260.0</ele><time>2026-04-06T14:03:57Z</time></trkpt><trkpt lat="44.835574026693806" lon="4.2420943720693085"><ele>1261.0</ele><time>2026-04-06T14:03:59Z</time></trkpt><trkpt lat="44.835564392972884" lon="4.241977883556295"><ele>1261.6666666666665</ele><time>2026-04-06T14:04:01Z</time></trkpt><trkpt lat="44.83555346381363" lon="4.241846280025869"><ele>1262.3333333333333</ele><time>2026-04-06T14:04:03Z</time></trkpt><trkpt lat="44.83553421127465" lon="4.241707800888907"><ele>1263.0</ele><time>2026-04-06T14:04:05Z</time></trkpt><trkpt lat="44.83551557037014" lon="4.2416180712456155"><ele>1263.6666666666667</ele><time>2026-04-06T14:04:07Z</time></trkpt><trkpt lat="44.83549139625685" lon="4.241518978991315"><ele>1264.3333333333335</ele><time>2026-04-06T14:04:09.999Z</time></trkpt><trkpt lat="44.83548537974556" lon="4.241380957164359"><ele>1265.0</ele><time>2026-04-06T14:04:11.999Z</time></trkpt><trkpt lat="44.83552461218706" lon="4.241311024264324"><ele>1265.1666666666667</ele><time>2026-04-06T14:04:14.999Z</time></trkpt><trkpt lat="44.83555172591129" lon="4.241189269716862"><ele>1265.3333333333335</ele><time>2026-04-06T14:04:18.999Z</time></trkpt><trkpt lat="44.83558709582596" lon="4.241100751915191"><ele>1265.5</ele><time>2026-04-06T14:04:21.999Z</time></trkpt><trkpt lat="44.835618676264936" lon="4.241006699837731"><ele>1265.6666666666667</ele><time>2026-04-06T14:04:24.999Z</time></trkpt><trkpt lat="44.83563957452406" lon="4.240920160032927"><ele>1265.8333333333333</ele><time>2026-04-06T14:04:26.999Z</time></trkpt><trkpt lat="44.835638756024416" lon="4.240827587609239"><ele>1266.0</ele><time>2026-04-06T14:04:29Z</time></trkpt><trkpt lat="44.835703852130074" lon="4.2407466420838125"><ele>1266.0</ele><time>2026-04-06T14:04:31Z</time></trkpt><trkpt lat="44.83573771974265" lon="4.240669486598027"><ele>1266.0</ele><time>2026-04-06T14:04:32Z</time></trkpt><trkpt lat="44.83577000080945" lon="4.240479826683235"><ele>1266.0</ele><time>2026-04-06T14:04:34Z</time></trkpt><trkpt lat="44.83581131446053" lon="4.240386664412213"><ele>1266.0</ele><time>2026-04-06T14:04:35Z</time></trkpt><trkpt lat="44.83584427588685" lon="4.240232252612933"><ele>1266.0</ele><time>2026-04-06T14:04:36Z</time></trkpt><trkpt lat="44.83585584533957" lon="4.240114705724322"><ele>1265.0</ele><time>2026-04-06T14:04:37Z</time></trkpt><trkpt lat="44.83585462978407" lon="4.239971573153774"><ele>1264.0</ele><time>2026-04-06T14:04:38Z</time></trkpt><trkpt lat="44.83582061631221" lon="4.239856390456511"><ele>1263.0</ele><time>2026-04-06T14:04:40Z</time></trkpt><trkpt lat="44.83584846071246" lon="4.239734994605116"><ele>1262.0</ele><time>2026-04-06T14:04:42Z</time></trkpt><trkpt lat="44.835834991912044" lon="4.239624333252929"><ele>1261.0</ele><time>2026-04-06T14:04:44Z</time></trkpt><trkpt lat="44.83577428528626" lon="4.239540900839277"><ele>1260.0</ele><time>2026-04-06T14:04:46Z</time></trkpt><trkpt lat="44.83566842980623" lon="4.239496165859863"><ele>1258.2</ele><time>2026-04-06T14:04:48Z</time></trkpt><trkpt lat="44.8355574809259" lon="4.239475827004844"><ele>1256.4</ele><time>2026-04-06T14:04:50Z</time></trkpt><trkpt lat="44.835474246196" lon="4.23937806544531"><ele>1254.6</ele><time>2026-04-06T14:04:52Z</time></trkpt><trkpt lat="44.83544753644007" lon="4.2392220701494"><ele>1252.8</ele><time>2026-04-06T14:04:57Z</time></trkpt><trkpt lat="44.835390051486065" lon="4.239179798807955"><ele>1251.0</ele><time>2026-04-06T14:05:00Z</time></trkpt><trkpt lat="44.83534466393883" lon="4.23910375413902"><ele>1251.0</ele><time>2026-04-06T14:05:01Z</time></trkpt><trkpt lat="44.835307800790275" lon="4.239027560460963"><ele>1251.0</ele><time>2026-04-06T14:05:04Z</time></trkpt><trkpt lat="44.835242424139224" lon="4.238970614885359"><ele>1251.0</ele><time>2026-04-06T14:05:05Z</time></trkpt><trkpt lat="44.83518186423451" lon="4.238927568080435"><ele>1251.0</ele><time>2026-04-06T14:05:06Z</time></trkpt><trkpt lat="44.835068669634666" lon="4.238871855891096"><ele>1251.0</ele><time>2026-04-06T14:05:08Z</time></trkpt><trkpt lat="44.835000681132954" lon="4.2388408278517025"><ele>1251.0</ele><time>2026-04-06T14:05:09Z</time></trkpt><trkpt lat="44.8348914853001" lon="4.238799479403399"><ele>1254.3333333333333</ele><time>2026-04-06T14:05:11Z</time></trkpt><trkpt lat="44.834827026433345" lon="4.238756214605256"><ele>1257.6666666666667</ele><time>2026-04-06T14:05:13Z</time></trkpt><trkpt lat="44.83477639776276" lon="4.238680585275295"><ele>1261.0</ele><time>2026-04-06T14:05:15Z</time></trkpt><trkpt lat="44.83482466461292" lon="4.2386071559855205"><ele>1264.3333333333335</ele><time>2026-04-06T14:05:18Z</time></trkpt><trkpt lat="44.834885836701666" lon="4.238577169470979"><ele>1267.6666666666667</ele><time>2026-04-06T14:05:24Z</time></trkpt><trkpt lat="44.8349593066453" lon="4.238480176993227"><ele>1271.0</ele><time>2026-04-06T14:05:28Z</time></trkpt><trkpt lat="44.83499652482507" lon="4.238382582890721"><ele>1271.0</ele><time>2026-04-06T14:05:30Z</time></trkpt><trkpt lat="44.83501020123232" lon="4.238291242601084"><ele>1271.0</ele><time>2026-04-06T14:05:31Z</time></trkpt><trkpt lat="44.8349903776979" lon="4.2381816906571546"><ele>1271.0</ele><time>2026-04-06T14:05:33Z</time></trkpt><trkpt lat="44.83499053433625" lon="4.238057487541151"><ele>1271.0</ele><time>2026-04-06T14:05:35Z</time></trkpt><trkpt lat="44.835025617878806" lon="4.237978475580863"><ele>1271.0</ele><time>2026-04-06T14:05:37Z</time></trkpt><trkpt lat="44.83504044983509" lon="4.237837413501933"><ele>1271.0</ele><time>2026-04-06T14:05:40Z</time></trkpt><trkpt lat="44.835017481239674" lon="4.237747798421915"><ele>1271.5</ele><time>2026-04-06T14:05:41Z</time></trkpt><trkpt lat="44.83497007077115" lon="4.237627969518933"><ele>1272.0</ele><time>2026-04-06T14:05:45Z</time></trkpt><trkpt lat="44.834974065730435" lon="4.237519881275896"><ele>1272.5</ele><time>2026-04-06T14:05:47Z</time></trkpt><trkpt lat="44.8349760092292" lon="4.237407734277534"><ele>1273.0</ele><time>2026-04-06T14:05:51Z</time></trkpt><trkpt lat="44.83493999160137" lon="4.237294066171479"><ele>1273.5</ele><time>2026-04-06T14:05:54Z</time></trkpt><trkpt lat="44.83495421602656" lon="4.237202219930071"><ele>1274.0</ele><time>2026-04-06T14:05:59Z</time></trkpt><trkpt lat="44.83496778121612" lon="4.237110466466988"><ele>1274.0</ele><time>2026-04-06T14:06:03Z</time></trkpt><trkpt lat="44.835025323213806" lon="4.23705643630517"><ele>1274.0</ele><time>2026-04-06T14:06:18Z</time></trkpt><trkpt lat="44.834955868046144" lon="4.237116112259774"><ele>1274.0</ele><time>2026-04-06T14:06:22Z</time></trkpt><trkpt lat="44.835015091577176" lon="4.237207386415674"><ele>1274.0</ele><time>2026-04-06T14:06:24Z</time></trkpt><trkpt lat="44.835097311731126" lon="4.237348529218103"><ele>1274.0</ele><time>2026-04-06T14:06:27Z</time></trkpt><trkpt lat="44.835167612262346" lon="4.237392774574043"><ele>1274.0</ele><time>2026-04-06T14:06:30Z</time></trkpt><trkpt lat="44.835281649621365" lon="4.237358144699612"><ele>1274.2</ele><time>2026-04-06T14:06:32Z</time></trkpt><trkpt lat="44.835402183103945" lon="4.237383846948147"><ele>1274.4</ele><time>2026-04-06T14:06:33Z</time></trkpt><trkpt lat="44.83551214687135" lon="4.237400579201742"><ele>1274.6</ele><time>2026-04-06T14:06:34Z</time></trkpt><trkpt lat="44.835618791779716" lon="4.237448660196328"><ele>1274.8</ele><time>2026-04-06T14:06:35Z</time></trkpt><trkpt lat="44.83569225707906" lon="4.237485093963437"><ele>1275.0</ele><time>2026-04-06T14:06:36Z</time></trkpt><trkpt lat="44.83577412050958" lon="4.237536433766423"><ele>1275.0</ele><time>2026-04-06T14:06:37Z</time></trkpt><trkpt lat="44.83587392665231" lon="4.237584592008581"><ele>1275.0</ele><time>2026-04-06T14:06:38Z</time></trkpt><trkpt lat="44.83596699583453" lon="4.237634685483527"><ele>1275.0</ele><time>2026-04-06T14:06:39Z</time></trkpt><trkpt lat="44.83604621176209" lon="4.2376845145140525"><ele>1275.0</ele><time>2026-04-06T14:06:40Z</time></trkpt><trkpt lat="44.83611521109649" lon="4.23770475609579"><ele>1275.0</ele><time>2026-04-06T14:06:41Z</time></trkpt><trkpt lat="44.83617831567275" lon="4.237757538059909"><ele>1275.0</ele><time>2026-04-06T14:06:42Z</time></trkpt><trkpt lat="44.83624194774283" lon="4.237793021911165"><ele>1276.5</ele><time>2026-04-06T14:06:43Z</time></trkpt><trkpt lat="44.836312628119465" lon="4.237821681181219"><ele>1278.0</ele><time>2026-04-06T14:06:44Z</time></trkpt><trkpt lat="44.83641383152097" lon="4.237879477688163"><ele>1279.5</ele><time>2026-04-06T14:06:46Z</time></trkpt><trkpt lat="44.836515204843906" lon="4.2379081797199865"><ele>1281.0</ele><time>2026-04-06T14:06:48Z</time></trkpt><trkpt lat="44.83658022494426" lon="4.237922636925859"><ele>1282.5</ele><time>2026-04-06T14:06:49Z</time></trkpt><trkpt lat="44.836654725109526" lon="4.2379144607879216"><ele>1284.0</ele><time>2026-04-06T14:06:50Z</time></trkpt><trkpt lat="44.836766821121586" lon="4.237935011882686"><ele>1285.4</ele><time>2026-04-06T14:06:52Z</time></trkpt><trkpt lat="44.8368601523369" lon="4.2378997557012115"><ele>1286.8000000000002</ele><time>2026-04-06T14:06:54Z</time></trkpt><trkpt lat="44.83690895615279" lon="4.23782405219631"><ele>1288.1999999999998</ele><time>2026-04-06T14:06:55Z</time></trkpt><trkpt lat="44.83697256185963" lon="4.237828079224407"><ele>1289.6</ele><time>2026-04-06T14:06:58Z</time></trkpt><trkpt lat="44.8371607003975" lon="4.237730205751269"><ele>1291.0</ele><time>2026-04-06T14:06:59Z</time></trkpt><trkpt lat="44.83721841456452" lon="4.237657008156986"><ele>1291.0</ele><time>2026-04-06T14:07:00Z</time></trkpt><trkpt lat="44.83728114282509" lon="4.237642923501178"><ele>1291.0</ele><time>2026-04-06T14:07:01Z</time></trkpt><trkpt lat="44.837375017049276" lon="4.237659908426914"><ele>1291.0</ele><time>2026-04-06T14:07:03Z</time></trkpt><trkpt lat="44.83744224113575" lon="4.237727108217101"><ele>1291.0</ele><time>2026-04-06T14:07:05Z</time></trkpt><trkpt lat="44.83751296830235" lon="4.237791653524674"><ele>1291.0</ele><time>2026-04-06T14:07:07Z</time></trkpt><trkpt lat="44.83761042233683" lon="4.237854328803114"><ele>1291.0</ele><time>2026-04-06T14:07:09Z</time></trkpt><trkpt lat="44.83771855453942" lon="4.237867965783962"><ele>1294.0</ele><time>2026-04-06T14:07:11Z</time></trkpt><trkpt lat="44.83786710720166" lon="4.237807566179751"><ele>1297.0</ele><time>2026-04-06T14:07:16Z</time></trkpt><trkpt lat="44.83794205897888" lon="4.237956119838104"><ele>1300.0</ele><time>2026-04-06T14:07:18Z</time></trkpt><trkpt lat="44.838049143458875" lon="4.2379379332082046"><ele>1303.0</ele><time>2026-04-06T14:07:20Z</time></trkpt><trkpt lat="44.83812171010492" lon="4.23802405110645"><ele>1303.0</ele><time>2026-04-06T14:07:22Z</time></trkpt><trkpt lat="44.83818490084876" lon="4.238026992945827"><ele>1303.0</ele><time>2026-04-06T14:07:23Z</time></trkpt><trkpt lat="44.83825263261562" lon="4.238007405017373"><ele>1303.0</ele><time>2026-04-06T14:07:24Z</time></trkpt><trkpt lat="44.838357838491454" lon="4.237976570272093"><ele>1303.0</ele><time>2026-04-06T14:07:25Z</time></trkpt><trkpt lat="44.838443980319866" lon="4.237947897810473"><ele>1303.0</ele><time>2026-04-06T14:07:26Z</time></trkpt><trkpt lat="44.838523349680884" lon="4.237923882614549"><ele>1303.0</ele><time>2026-04-06T14:07:27Z</time></trkpt><trkpt lat="44.838591026861316" lon="4.237899650678904"><ele>1302.0</ele><time>2026-04-06T14:07:28Z</time></trkpt><trkpt lat="44.83865455838226" lon="4.237827675746665"><ele>1301.0</ele><time>2026-04-06T14:07:29Z</time></trkpt><trkpt lat="44.83867297364912" lon="4.237685092955958"><ele>1300.0</ele><time>2026-04-06T14:07:32Z</time></trkpt><trkpt lat="44.83868691377696" lon="4.2375681950352275"><ele>1299.0</ele><time>2026-04-06T14:07:43Z</time></trkpt><trkpt lat="44.83867381195099" lon="4.237466925773329"><ele>1298.0</ele><time>2026-04-06T14:08:47Z</time></trkpt><trkpt lat="44.8386444000663" lon="4.237331146186317"><ele>1297.0</ele><time>2026-04-06T14:09:11Z</time></trkpt><trkpt lat="44.83860223654093" lon="4.237236139250708"><ele>1297.0</ele><time>2026-04-06T14:09:12Z</time></trkpt><trkpt lat="44.83854111871524" lon="4.237129032736456"><ele>1297.0</ele><time>2026-04-06T14:09:13Z</time></trkpt><trkpt lat="44.838471361126324" lon="4.237001318892462"><ele>1297.0</ele><time>2026-04-06T14:09:14Z</time></trkpt><trkpt lat="44.838400114302246" lon="4.23685720894334"><ele>1297.0</ele><time>2026-04-06T14:09:15Z</time></trkpt><trkpt lat="44.83833344051326" lon="4.23671055168587"><ele>1299.1666666666665</ele><time>2026-04-06T14:09:16Z</time></trkpt><trkpt lat="44.838274723658955" lon="4.23659849667405"><ele>1301.3333333333333</ele><time>2026-04-06T14:09:17Z</time></trkpt><trkpt lat="44.83821987094064" lon="4.236511948277654"><ele>1303.5</ele><time>2026-04-06T14:09:18Z</time></trkpt><trkpt lat="44.83818412250969" lon="4.236416370662544"><ele>1305.6666666666667</ele><time>2026-04-06T14:09:19Z</time></trkpt><trkpt lat="44.83815387764899" lon="4.236335878685441"><ele>1307.8333333333335</ele><time>2026-04-06T14:09:20Z</time></trkpt><trkpt lat="44.838113904142254" lon="4.23621063447975"><ele>1310.0</ele><time>2026-04-06T14:09:22Z</time></trkpt><trkpt lat="44.83810230231711" lon="4.236083612347642"><ele>1310.2</ele><time>2026-04-06T14:09:24Z</time></trkpt><trkpt lat="44.83811360573058" lon="4.23597834730068"><ele>1310.4</ele><time>2026-04-06T14:09:26Z</time></trkpt><trkpt lat="44.838103107483256" lon="4.235846317010921"><ele>1310.6</ele><time>2026-04-06T14:09:28Z</time></trkpt><trkpt lat="44.83812827445772" lon="4.235729958123682"><ele>1310.8</ele><time>2026-04-06T14:09:30Z</time></trkpt><trkpt lat="44.838165753743326" lon="4.2356014715203685"><ele>1311.0</ele><time>2026-04-06T14:09:32Z</time></trkpt><trkpt lat="44.83821944384637" lon="4.235476113710865"><ele>1311.6666666666667</ele><time>2026-04-06T14:09:34Z</time></trkpt><trkpt lat="44.83827378467935" lon="4.235403673307081"><ele>1312.3333333333333</ele><time>2026-04-06T14:09:36Z</time></trkpt><trkpt lat="44.838330927278626" lon="4.235301747464904"><ele>1313.0</ele><time>2026-04-06T14:09:37Z</time></trkpt><trkpt lat="44.83835884942719" lon="4.235221036098913"><ele>1313.6666666666665</ele><time>2026-04-06T14:09:38Z</time></trkpt><trkpt lat="44.83839616925844" lon="4.235061872969039"><ele>1314.3333333333333</ele><time>2026-04-06T14:09:40Z</time></trkpt><trkpt lat="44.83843304176337" lon="4.234968124949424"><ele>1315.0</ele><time>2026-04-06T14:09:42Z</time></trkpt><trkpt lat="44.83847014641814" lon="4.234894944090023"><ele>1315.0</ele><time>2026-04-06T14:09:46Z</time></trkpt><trkpt lat="44.83851505333575" lon="4.234814039606253"><ele>1315.0</ele><time>2026-04-06T14:11:55Z</time></trkpt><trkpt lat="44.838557278024105" lon="4.234743678805969"><ele>1315.0</ele><time>2026-04-06T14:12:01Z</time></trkpt><trkpt lat="44.838495005167374" lon="4.234768853865134"><ele>1315.0</ele><time>2026-04-06T14:12:05Z</time></trkpt><trkpt lat="44.838464395605484" lon="4.234872613393512"><ele>1315.0</ele><time>2026-04-06T14:12:35Z</time></trkpt><trkpt lat="44.83844740618818" lon="4.234962792391922"><ele>1315.0</ele><time>2026-04-06T14:12:37Z</time></trkpt><trkpt lat="44.83840606029608" lon="4.235061933698496"><ele>1315.0</ele><time>2026-04-06T14:12:39Z</time></trkpt><trkpt lat="44.838340085380956" lon="4.235217718981719"><ele>1315.0</ele><time>2026-04-06T14:12:41Z</time></trkpt><trkpt lat="44.8382627385473" lon="4.235368428677595"><ele>1315.0</ele><time>2026-04-06T14:12:43Z</time></trkpt><trkpt lat="44.83822584163544" lon="4.235452578398735"><ele>1315.0</ele><time>2026-04-06T14:12:44Z</time></trkpt><trkpt lat="44.838143990134526" lon="4.23557664586198"><ele>1315.0</ele><time>2026-04-06T14:12:46Z</time></trkpt><trkpt lat="44.83803748477092" lon="4.235681763865604"><ele>1315.0</ele><time>2026-04-06T14:12:48Z</time></trkpt><trkpt lat="44.83794002601143" lon="4.235752983423469"><ele>1315.0</ele><time>2026-04-06T14:12:50Z</time></trkpt><trkpt lat="44.837836685858946" lon="4.235800506332128"><ele>1315.0</ele><time>2026-04-06T14:12:52Z</time></trkpt><trkpt lat="44.837760884747844" lon="4.235765889633773"><ele>1315.0</ele><time>2026-04-06T14:12:54Z</time></trkpt><trkpt lat="44.837768767319254" lon="4.235670325401905"><ele>1315.0</ele><time>2026-04-06T14:12:56Z</time></trkpt><trkpt lat="44.83778715350619" lon="4.235535220766653"><ele>1315.0</ele><time>2026-04-06T14:12:58Z</time></trkpt><trkpt lat="44.83777005078036" lon="4.235386064277182"><ele>1315.0</ele><time>2026-04-06T14:13:00Z</time></trkpt><trkpt lat="44.83773457623867" lon="4.2351628696566745"><ele>1315.0</ele><time>2026-04-06T14:13:02Z</time></trkpt><trkpt lat="44.83772090700133" lon="4.235036652084758"><ele>1315.0</ele><time>2026-04-06T14:13:03Z</time></trkpt><trkpt lat="44.83770150717606" lon="4.234944136409928"><ele>1315.0</ele><time>2026-04-06T14:13:04Z</time></trkpt><trkpt lat="44.83772813534623" lon="4.234782711979383"><ele>1318.8</ele><time>2026-04-06T14:13:06Z</time></trkpt><trkpt lat="44.83774789324429" lon="4.234688820585606"><ele>1322.6</ele><time>2026-04-06T14:13:07Z</time></trkpt><trkpt lat="44.83777482447017" lon="4.234528620673901"><ele>1326.4</ele><time>2026-04-06T14:13:09Z</time></trkpt><trkpt lat="44.837826315439926" lon="4.23439758520806"><ele>1330.2</ele><time>2026-04-06T14:13:11Z</time></trkpt><trkpt lat="44.8378913489424" lon="4.234251351130799"><ele>1334.0</ele><time>2026-04-06T14:13:13Z</time></trkpt><trkpt lat="44.83794372502915" lon="4.234152318033565"><ele>1334.0</ele><time>2026-04-06T14:13:14Z</time></trkpt><trkpt lat="44.83800459992036" lon="4.234044646981923"><ele>1334.0</ele><time>2026-04-06T14:13:15Z</time></trkpt><trkpt lat="44.83806925971522" lon="4.233933055322126"><ele>1334.0</ele><time>2026-04-06T14:13:16Z</time></trkpt><trkpt lat="44.83813778539715" lon="4.23384166392979"><ele>1334.0</ele><time>2026-04-06T14:13:17Z</time></trkpt><trkpt lat="44.838197415127254" lon="4.233747482332866"><ele>1334.0</ele><time>2026-04-06T14:13:18Z</time></trkpt><trkpt lat="44.83833059976358" lon="4.233674306714713"><ele>1336.4</ele><time>2026-04-06T14:13:20Z</time></trkpt><trkpt lat="44.8384256957902" lon="4.233588709110908"><ele>1338.8000000000002</ele><time>2026-04-06T14:13:21Z</time></trkpt><trkpt lat="44.83849380575126" lon="4.233541398404265"><ele>1341.1999999999998</ele><time>2026-04-06T14:13:22Z</time></trkpt><trkpt lat="44.838584400412344" lon="4.233594751292682"><ele>1343.6</ele><time>2026-04-06T14:13:24Z</time></trkpt><trkpt lat="44.83868386525451" lon="4.23353134297153"><ele>1346.0</ele><time>2026-04-06T14:13:26Z</time></trkpt><trkpt lat="44.83874359620235" lon="4.2334772127938685"><ele>1346.0</ele><time>2026-04-06T14:13:27Z</time></trkpt><trkpt lat="44.838836877691655" lon="4.233415120448749"><ele>1346.0</ele><time>2026-04-06T14:13:28Z</time></trkpt><trkpt lat="44.83891344266653" lon="4.233365896179503"><ele>1346.0</ele><time>2026-04-06T14:13:29Z</time></trkpt><trkpt lat="44.83900047197439" lon="4.233276744026545"><ele>1346.0</ele><time>2026-04-06T14:13:30Z</time></trkpt><trkpt lat="44.83907422502605" lon="4.233262624186539"><ele>1346.0</ele><time>2026-04-06T14:13:31Z</time></trkpt><trkpt lat="44.839156931332" lon="4.233235532755121"><ele>1346.0</ele><time>2026-04-06T14:13:32Z</time></trkpt><trkpt lat="44.839228834262954" lon="4.233175293696293"><ele>1346.0</ele><time>2026-04-06T14:13:33Z</time></trkpt><trkpt lat="44.83929820642403" lon="4.233082609309926"><ele>1346.0</ele><time>2026-04-06T14:13:34Z</time></trkpt><trkpt lat="44.83934968341141" lon="4.2329895302897675"><ele>1346.0</ele><time>2026-04-06T14:13:35Z</time></trkpt><trkpt lat="44.83939442707295" lon="4.232894734353791"><ele>1346.0</ele><time>2026-04-06T14:13:36Z</time></trkpt><trkpt lat="44.839445168173164" lon="4.232787401991172"><ele>1346.0</ele><time>2026-04-06T14:13:37Z</time></trkpt><trkpt lat="44.83947902876448" lon="4.232635361350914"><ele>1347.3333333333335</ele><time>2026-04-06T14:13:38Z</time></trkpt><trkpt lat="44.83952185388336" lon="4.23251744753686"><ele>1348.6666666666667</ele><time>2026-04-06T14:13:39Z</time></trkpt><trkpt lat="44.83956425288107" lon="4.232394513721304"><ele>1350.0</ele><time>2026-04-06T14:13:40Z</time></trkpt><trkpt lat="44.839618178947255" lon="4.232295466241801"><ele>1351.3333333333333</ele><time>2026-04-06T14:13:41Z</time></trkpt><trkpt lat="44.839678606230514" lon="4.232229673064348"><ele>1352.6666666666665</ele><time>2026-04-06T14:13:42Z</time></trkpt><trkpt lat="44.839755162180275" lon="4.232202284441567"><ele>1354.0</ele><time>2026-04-06T14:13:43Z</time></trkpt><trkpt lat="44.83982504087384" lon="4.232200454270042"><ele>1354.0</ele><time>2026-04-06T14:13:44Z</time></trkpt><trkpt lat="44.83990568007941" lon="4.232253229904942"><ele>1354.0</ele><time>2026-04-06T14:13:45Z</time></trkpt><trkpt lat="44.83998084070467" lon="4.232334636145626"><ele>1354.0</ele><time>2026-04-06T14:13:46Z</time></trkpt><trkpt lat="44.840071146513985" lon="4.232383360035241"><ele>1354.0</ele><time>2026-04-06T14:13:47Z</time></trkpt><trkpt lat="44.840162498519724" lon="4.2323723306159895"><ele>1354.0</ele><time>2026-04-06T14:13:48Z</time></trkpt><trkpt lat="44.84027261290909" lon="4.2323228017295"><ele>1352.6</ele><time>2026-04-06T14:13:49Z</time></trkpt><trkpt lat="44.84037501447551" lon="4.232309784095986"><ele>1351.2</ele><time>2026-04-06T14:13:50Z</time></trkpt><trkpt lat="44.84047163482795" lon="4.232314475991234"><ele>1349.8</ele><time>2026-04-06T14:13:51Z</time></trkpt><trkpt lat="44.84056089113236" lon="4.232325920889946"><ele>1348.3999999999999</ele><time>2026-04-06T14:13:52Z</time></trkpt><trkpt lat="44.840654268088414" lon="4.232330774465829"><ele>1347.0</ele><time>2026-04-06T14:13:53Z</time></trkpt><trkpt lat="44.84073445597145" lon="4.232327881446509"><ele>1346.25</ele><time>2026-04-06T14:13:54Z</time></trkpt><trkpt lat="44.8408151749257" lon="4.232300837099607"><ele>1345.5</ele><time>2026-04-06T14:13:55Z</time></trkpt><trkpt lat="44.8409093531773" lon="4.232179646558745"><ele>1344.75</ele><time>2026-04-06T14:13:56Z</time></trkpt><trkpt lat="44.84096604865387" lon="4.23204655854149"><ele>1344.0</ele><time>2026-04-06T14:13:57Z</time></trkpt><trkpt lat="44.84105168489559" lon="4.231860133064479"><ele>1344.0</ele><time>2026-04-06T14:13:59Z</time></trkpt><trkpt lat="44.841112665718825" lon="4.231756736099199"><ele>1344.0</ele><time>2026-04-06T14:14:00Z</time></trkpt><trkpt lat="44.841164797555514" lon="4.231496966776691"><ele>1344.0</ele><time>2026-04-06T14:14:01Z</time></trkpt><trkpt lat="44.841237202620235" lon="4.231267119504484"><ele>1346.6</ele><time>2026-04-06T14:14:02Z</time></trkpt><trkpt lat="44.84129321125867" lon="4.231117662598981"><ele>1349.2</ele><time>2026-04-06T14:14:03Z</time></trkpt><trkpt lat="44.84136654450083" lon="4.230988047399412"><ele>1351.8</ele><time>2026-04-06T14:14:04Z</time></trkpt><trkpt lat="44.84141782493867" lon="4.230877594781573"><ele>1354.3999999999999</ele><time>2026-04-06T14:14:05Z</time></trkpt><trkpt lat="44.84146893084442" lon="4.230733094081279"><ele>1357.0</ele><time>2026-04-06T14:14:06Z</time></trkpt><trkpt lat="44.841559711197064" lon="4.230585140907328"><ele>1359.0</ele><time>2026-04-06T14:14:07Z</time></trkpt><trkpt lat="44.84163616691099" lon="4.230458212668388"><ele>1361.0</ele><time>2026-04-06T14:14:08Z</time></trkpt><trkpt lat="44.84172408971451" lon="4.230348198079937"><ele>1363.0</ele><time>2026-04-06T14:14:09Z</time></trkpt><trkpt lat="44.841805815721145" lon="4.230241804084718"><ele>1365.0</ele><time>2026-04-06T14:14:10Z</time></trkpt><trkpt lat="44.84188518125006" lon="4.230140807098734"><ele>1365.0</ele><time>2026-04-06T14:14:11Z</time></trkpt><trkpt lat="44.841963178416826" lon="4.23003666367688"><ele>1365.0</ele><time>2026-04-06T14:14:12Z</time></trkpt><trkpt lat="44.84205043028463" lon="4.229956477995998"><ele>1365.0</ele><time>2026-04-06T14:14:13Z</time></trkpt><trkpt lat="44.842124911576555" lon="4.229854465248312"><ele>1365.0</ele><time>2026-04-06T14:14:14Z</time></trkpt><trkpt lat="44.84221951428817" lon="4.229772485495588"><ele>1365.0</ele><time>2026-04-06T14:14:15Z</time></trkpt><trkpt lat="44.84228525615494" lon="4.229637622575315"><ele>1368.1666666666667</ele><time>2026-04-06T14:14:16Z</time></trkpt><trkpt lat="44.84235024276489" lon="4.2294893695246"><ele>1371.3333333333333</ele><time>2026-04-06T14:14:17Z</time></trkpt><trkpt lat="44.84240914465782" lon="4.22942994869002"><ele>1374.5</ele><time>2026-04-06T14:14:18Z</time></trkpt><trkpt lat="44.842488978731865" lon="4.229408906099688"><ele>1377.6666666666665</ele><time>2026-04-06T14:14:19Z</time></trkpt><trkpt lat="44.84256498695732" lon="4.22940841453072"><ele>1380.8333333333333</ele><time>2026-04-06T14:14:20Z</time></trkpt><trkpt lat="44.84265344475612" lon="4.229415432721544"><ele>1384.0</ele><time>2026-04-06T14:14:22Z</time></trkpt><trkpt lat="44.84271408180641" lon="4.229362390882283"><ele>1384.0</ele><time>2026-04-06T14:14:26Z</time></trkpt><trkpt lat="44.842836102047656" lon="4.2294057346229605"><ele>1384.0</ele><time>2026-04-06T14:14:31Z</time></trkpt><trkpt lat="44.84298093077183" lon="4.229357903682859"><ele>1384.0</ele><time>2026-04-06T14:14:33Z</time></trkpt><trkpt lat="44.84308276090284" lon="4.22934110853788"><ele>1384.0</ele><time>2026-04-06T14:14:34Z</time></trkpt><trkpt lat="44.84315475988468" lon="4.229313957101219"><ele>1384.0</ele><time>2026-04-06T14:14:35Z</time></trkpt><trkpt lat="44.84322395581025" lon="4.22931639310015"><ele>1384.0</ele><time>2026-04-06T14:14:36Z</time></trkpt><trkpt lat="44.84328633496494" lon="4.229356571646021"><ele>1384.0</ele><time>2026-04-06T14:14:37Z</time></trkpt><trkpt lat="44.843357626596564" lon="4.229361138508252"><ele>1384.0</ele><time>2026-04-06T14:14:38Z</time></trkpt><trkpt lat="44.843455968749694" lon="4.229400578388773"><ele>1384.0</ele><time>2026-04-06T14:14:40Z</time></trkpt><trkpt lat="44.84355642433512" lon="4.22947600503987"><ele>1384.0</ele><time>2026-04-06T14:14:42Z</time></trkpt><trkpt lat="44.843659453202825" lon="4.229557794244522"><ele>1385.1666666666665</ele><time>2026-04-06T14:14:44Z</time></trkpt><trkpt lat="44.843767326360044" lon="4.22964626147645"><ele>1386.3333333333333</ele><time>2026-04-06T14:14:55Z</time></trkpt><trkpt lat="44.8438299203349" lon="4.229707216111306"><ele>1387.5</ele><time>2026-04-06T14:14:58Z</time></trkpt><trkpt lat="44.843891978051325" lon="4.229731888624809"><ele>1388.6666666666667</ele><time>2026-04-06T14:15:01Z</time></trkpt><trkpt lat="44.843948524693275" lon="4.229776373715992"><ele>1389.8333333333335</ele><time>2026-04-06T14:15:03Z</time></trkpt><trkpt lat="44.8440044465135" lon="4.229847011613263"><ele>1391.0</ele><time>2026-04-06T14:15:06Z</time></trkpt><trkpt lat="44.84397233245454" lon="4.229990967244386"><ele>1391.0</ele><time>2026-04-06T14:15:17Z</time></trkpt><trkpt lat="44.84405478481328" lon="4.229978692984129"><ele>1391.0</ele><time>2026-04-06T14:15:50Z</time></trkpt><trkpt lat="44.84411282999589" lon="4.229901287118174"><ele>1391.0</ele><time>2026-04-06T14:16:01Z</time></trkpt><trkpt lat="44.84412633080805" lon="4.230035904865206"><ele>1391.0</ele><time>2026-04-06T14:16:07Z</time></trkpt><trkpt lat="44.8441630644004" lon="4.23010848614287"><ele>1391.0</ele><time>2026-04-06T14:16:10Z</time></trkpt><trkpt lat="44.84422433756821" lon="4.230186290703971"><ele>1391.0</ele><time>2026-04-06T14:16:13Z</time></trkpt><trkpt lat="44.844224493327616" lon="4.230291420666018"><ele>1391.0</ele><time>2026-04-06T14:16:15Z</time></trkpt><trkpt lat="44.84429608201349" lon="4.230362575718784"><ele>1391.0</ele><time>2026-04-06T14:16:17Z</time></trkpt><trkpt lat="44.84434465910708" lon="4.230505884291053"><ele>1391.0</ele><time>2026-04-06T14:16:20Z</time></trkpt><trkpt lat="44.84443557612244" lon="4.230531958291404"><ele>1391.0</ele><time>2026-04-06T14:16:22Z</time></trkpt><trkpt lat="44.84448270290156" lon="4.230607948606053"><ele>1391.0</ele><time>2026-04-06T14:16:23Z</time></trkpt><trkpt lat="44.84458399846236" lon="4.230649725281382"><ele>1388.6</ele><time>2026-04-06T14:16:24Z</time></trkpt><trkpt lat="44.84467771123574" lon="4.230717793517272"><ele>1386.1999999999998</ele><time>2026-04-06T14:16:25Z</time></trkpt><trkpt lat="44.84479968373829" lon="4.230658439132692"><ele>1383.8000000000002</ele><time>2026-04-06T14:16:26Z</time></trkpt><trkpt lat="44.84489137000372" lon="4.230655038999511"><ele>1381.4</ele><time>2026-04-06T14:16:27Z</time></trkpt><trkpt lat="44.84496335268965" lon="4.2306497805904035"><ele>1379.0</ele><time>2026-04-06T14:16:28Z</time></trkpt><trkpt lat="44.845031324762296" lon="4.230612340961278"><ele>1380.0</ele><time>2026-04-06T14:16:30Z</time></trkpt><trkpt lat="44.84510490158574" lon="4.230589596139996"><ele>1381.0</ele><time>2026-04-06T14:16:31Z</time></trkpt><trkpt lat="44.845167608240985" lon="4.230571345700918"><ele>1382.0</ele><time>2026-04-06T14:16:33Z</time></trkpt><trkpt lat="44.845302053912945" lon="4.23053683467084"><ele>1383.0</ele><time>2026-04-06T14:16:35Z</time></trkpt><trkpt lat="44.845378397623584" lon="4.230544796268695"><ele>1384.0</ele><time>2026-04-06T14:16:37Z</time></trkpt><trkpt lat="44.84545159396877" lon="4.230569850534384"><ele>1385.0</ele><time>2026-04-06T14:16:38Z</time></trkpt><trkpt lat="44.8455432102525" lon="4.230619809458185"><ele>1383.4</ele><time>2026-04-06T14:16:40Z</time></trkpt><trkpt lat="44.84560682576371" lon="4.230664112503279"><ele>1381.8</ele><time>2026-04-06T14:16:41Z</time></trkpt><trkpt lat="44.845698412680626" lon="4.230740741542389"><ele>1380.1999999999998</ele><time>2026-04-06T14:16:43Z</time></trkpt><trkpt lat="44.84577462544442" lon="4.230800900556308"><ele>1378.6</ele><time>2026-04-06T14:16:45Z</time></trkpt><trkpt lat="44.845861813973755" lon="4.230866906744547"><ele>1377.0</ele><time>2026-04-06T14:16:46Z</time></trkpt><trkpt lat="44.84598499252815" lon="4.2309669369273415"><ele>1376.0</ele><time>2026-04-06T14:16:47Z</time></trkpt><trkpt lat="44.84608536550132" lon="4.2310707893768935"><ele>1375.0</ele><time>2026-04-06T14:16:48Z</time></trkpt><trkpt lat="44.846172025990505" lon="4.231174384197929"><ele>1374.0</ele><time>2026-04-06T14:16:49Z</time></trkpt><trkpt lat="44.84623352087597" lon="4.231276922074142"><ele>1373.0</ele><time>2026-04-06T14:16:50Z</time></trkpt><trkpt lat="44.8462915549258" lon="4.231369942802067"><ele>1372.0</ele><time>2026-04-06T14:16:51Z</time></trkpt><trkpt lat="44.846328703143776" lon="4.231602264788933"><ele>1372.0</ele><time>2026-04-06T14:16:52Z</time></trkpt><trkpt lat="44.84636722168232" lon="4.231743946836024"><ele>1372.0</ele><time>2026-04-06T14:16:53Z</time></trkpt><trkpt lat="44.84640086333552" lon="4.231867690213271"><ele>1372.0</ele><time>2026-04-06T14:16:54Z</time></trkpt><trkpt lat="44.84644824495431" lon="4.23204197302057"><ele>1372.0</ele><time>2026-04-06T14:16:56Z</time></trkpt><trkpt lat="44.84647345480663" lon="4.232134040318284"><ele>1372.0</ele><time>2026-04-06T14:16:57Z</time></trkpt><trkpt lat="44.846498002752554" lon="4.232222695286774"><ele>1371.1999999999998</ele><time>2026-04-06T14:16:58Z</time></trkpt><trkpt lat="44.84654260963038" lon="4.232383792951283"><ele>1370.4</ele><time>2026-04-06T14:17:00Z</time></trkpt><trkpt lat="44.84658597898098" lon="4.232516258506735"><ele>1369.6</ele><time>2026-04-06T14:17:02Z</time></trkpt><trkpt lat="44.8466580180839" lon="4.232615635900351"><ele>1368.8000000000002</ele><time>2026-04-06T14:17:05Z</time></trkpt><trkpt lat="44.846715670206976" lon="4.232693342908606"><ele>1368.0</ele><time>2026-04-06T14:17:07Z</time></trkpt><trkpt lat="44.84680770214031" lon="4.232792057996039"><ele>1368.0</ele><time>2026-04-06T14:17:09Z</time></trkpt><trkpt lat="44.84686116600356" lon="4.232839864809968"><ele>1368.0</ele><time>2026-04-06T14:17:11Z</time></trkpt><trkpt lat="44.84689029828091" lon="4.232921200292557"><ele>1368.0</ele><time>2026-04-06T14:17:14Z</time></trkpt><trkpt lat="44.846944560483514" lon="4.232975242341238"><ele>1368.0</ele><time>2026-04-06T14:17:15Z</time></trkpt><trkpt lat="44.84699707823053" lon="4.233032598104877"><ele>1368.0</ele><time>2026-04-06T14:17:16Z</time></trkpt><trkpt lat="44.84705535537893" lon="4.233101576062113"><ele>1368.0</ele><time>2026-04-06T14:17:17Z</time></trkpt><trkpt lat="44.84689134791324" lon="4.23372222334843"><ele>1365.4</ele><time>2026-04-06T14:17:18Z</time></trkpt><trkpt lat="44.84692906948384" lon="4.233884834878334"><ele>1362.8000000000002</ele><time>2026-04-06T14:17:20Z</time></trkpt><trkpt lat="44.846949812173705" lon="4.233976255881137"><ele>1360.2</ele><time>2026-04-06T14:17:21Z</time></trkpt><trkpt lat="44.84698442253914" lon="4.234133153205094"><ele>1357.6</ele><time>2026-04-06T14:17:23Z</time></trkpt><trkpt lat="44.846986517205146" lon="4.234252207302332"><ele>1355.0</ele><time>2026-04-06T14:17:25Z</time></trkpt><trkpt lat="44.84701118372864" lon="4.234335220993541"><ele>1353.1666666666667</ele><time>2026-04-06T14:17:26Z</time></trkpt><trkpt lat="44.847039171767626" lon="4.234472501769566"><ele>1351.3333333333335</ele><time>2026-04-06T14:17:28Z</time></trkpt><trkpt lat="44.847053161305546" lon="4.234594231962019"><ele>1349.5</ele><time>2026-04-06T14:17:30Z</time></trkpt><trkpt lat="44.847074905531116" lon="4.234722278333213"><ele>1347.6666666666667</ele><time>2026-04-06T14:17:34Z</time></trkpt><trkpt lat="44.84709708510176" lon="4.234846559272339"><ele>1345.8333333333333</ele><time>2026-04-06T14:17:39Z</time></trkpt><trkpt lat="44.84713714995188" lon="4.234933948565507"><ele>1344.0</ele><time>2026-04-06T14:17:41Z</time></trkpt><trkpt lat="44.847134470870614" lon="4.235055183178796"><ele>1342.4</ele><time>2026-04-06T14:17:45Z</time></trkpt><trkpt lat="44.84717673918942" lon="4.235163559634271"><ele>1340.8000000000002</ele><time>2026-04-06T14:17:47Z</time></trkpt><trkpt lat="44.84716323101466" lon="4.235300947073656"><ele>1339.1999999999998</ele><time>2026-04-06T14:17:50Z</time></trkpt><trkpt lat="44.84721375331646" lon="4.235398618166582"><ele>1337.6</ele><time>2026-04-06T14:17:52Z</time></trkpt><trkpt lat="44.84725331349908" lon="4.23552184679861"><ele>1336.0</ele><time>2026-04-06T14:17:55Z</time></trkpt><trkpt lat="44.8472327128611" lon="4.235731713150288"><ele>1335.1666666666665</ele><time>2026-04-06T14:17:57Z</time></trkpt><trkpt lat="44.847261135573106" lon="4.235816820685489"><ele>1334.3333333333333</ele><time>2026-04-06T14:17:58Z</time></trkpt><trkpt lat="44.84728762207705" lon="4.235929519434459"><ele>1333.5</ele><time>2026-04-06T14:17:59Z</time></trkpt><trkpt lat="44.84732836697095" lon="4.236008950559358"><ele>1332.6666666666667</ele><time>2026-04-06T14:18:00Z</time></trkpt><trkpt lat="44.84736999324879" lon="4.236122560008975"><ele>1331.8333333333335</ele><time>2026-04-06T14:18:01Z</time></trkpt><trkpt lat="44.847422168240406" lon="4.236234244532053"><ele>1331.0</ele><time>2026-04-06T14:18:05Z</time></trkpt><trkpt lat="44.84746834359815" lon="4.236363867680007"><ele>1331.0</ele><time>2026-04-06T14:18:08Z</time></trkpt><trkpt lat="44.847547181782346" lon="4.236435685859242"><ele>1331.0</ele><time>2026-04-06T14:18:11Z</time></trkpt><trkpt lat="44.847570514364776" lon="4.236614724967374"><ele>1331.0</ele><time>2026-04-06T14:18:14Z</time></trkpt><trkpt lat="44.847561012303345" lon="4.236812593562897"><ele>1331.0</ele><time>2026-04-06T14:18:15Z</time></trkpt><trkpt lat="44.847560621828805" lon="4.2369027549483365"><ele>1331.0</ele><time>2026-04-06T14:18:16Z</time></trkpt><trkpt lat="44.847580006627844" lon="4.2370357695149865"><ele>1330.5</ele><time>2026-04-06T14:18:18Z</time></trkpt><trkpt lat="44.847593963597795" lon="4.237125459280407"><ele>1330.0</ele><time>2026-04-06T14:18:21Z</time></trkpt><trkpt lat="44.84759522455431" lon="4.237216209321653"><ele>1329.5</ele><time>2026-04-06T14:18:22Z</time></trkpt><trkpt lat="44.84763745374685" lon="4.237314593510578"><ele>1329.0</ele><time>2026-04-06T14:18:23Z</time></trkpt><trkpt lat="44.84770625313811" lon="4.237441513387379"><ele>1328.5</ele><time>2026-04-06T14:18:25Z</time></trkpt><trkpt lat="44.84774769373067" lon="4.237539152823888"><ele>1328.0</ele><time>2026-04-06T14:18:26Z</time></trkpt><trkpt lat="44.847797638874034" lon="4.237609987290984"><ele>1324.8000000000002</ele><time>2026-04-06T14:18:27Z</time></trkpt><trkpt lat="44.84785169943299" lon="4.237677175108209"><ele>1321.6</ele><time>2026-04-06T14:18:28Z</time></trkpt><trkpt lat="44.8479101024231" lon="4.237760482379984"><ele>1318.4</ele><time>2026-04-06T14:18:29Z</time></trkpt><trkpt lat="44.84799277933062" lon="4.237868066483095"><ele>1315.1999999999998</ele><time>2026-04-06T14:18:30Z</time></trkpt><trkpt lat="44.84806339742877" lon="4.237950132731792"><ele>1312.0</ele><time>2026-04-06T14:18:31Z</time></trkpt><trkpt lat="44.848141397642756" lon="4.238099472041251"><ele>1312.3333333333333</ele><time>2026-04-06T14:18:33Z</time></trkpt><trkpt lat="44.84814839240264" lon="4.238254697171061"><ele>1312.6666666666665</ele><time>2026-04-06T14:18:35Z</time></trkpt><trkpt lat="44.848151905520936" lon="4.2383614018266815"><ele>1313.0</ele><time>2026-04-06T14:18:36Z</time></trkpt><trkpt lat="44.848149926268384" lon="4.2384582253634955"><ele>1313.3333333333333</ele><time>2026-04-06T14:18:37Z</time></trkpt><trkpt lat="44.84815753131322" lon="4.238549401728351"><ele>1313.6666666666667</ele><time>2026-04-06T14:18:38Z</time></trkpt><trkpt lat="44.84818017133738" lon="4.238648724114598"><ele>1314.0</ele><time>2026-04-06T14:18:39Z</time></trkpt><trkpt lat="44.848197141811625" lon="4.238746241842873"><ele>1314.0</ele><time>2026-04-06T14:18:40Z</time></trkpt><trkpt lat="44.848229114378185" lon="4.238897691788194"><ele>1314.0</ele><time>2026-04-06T14:18:42Z</time></trkpt><trkpt lat="44.848296938578294" lon="4.239039831620173"><ele>1314.0</ele><time>2026-04-06T14:18:44Z</time></trkpt><trkpt lat="44.84832042623942" lon="4.239183266037233"><ele>1314.0</ele><time>2026-04-06T14:18:46Z</time></trkpt><trkpt lat="44.84833130028167" lon="4.239311453618115"><ele>1314.0</ele><time>2026-04-06T14:18:48Z</time></trkpt><trkpt lat="44.84832846802367" lon="4.23941679744979"><ele>1313.5</ele><time>2026-04-06T14:18:51Z</time></trkpt><trkpt lat="44.84830283456352" lon="4.239548860068101"><ele>1313.0</ele><time>2026-04-06T14:18:54Z</time></trkpt><trkpt lat="44.8482807298178" lon="4.239651773876747"><ele>1312.5</ele><time>2026-04-06T14:18:55Z</time></trkpt><trkpt lat="44.848288617068455" lon="4.239749782006067"><ele>1312.0</ele><time>2026-04-06T14:18:56Z</time></trkpt><trkpt lat="44.848287836031055" lon="4.239894942532668"><ele>1311.5</ele><time>2026-04-06T14:18:58Z</time></trkpt><trkpt lat="44.84830044228963" lon="4.240014894775998"><ele>1311.0</ele><time>2026-04-06T14:19:00Z</time></trkpt><trkpt lat="44.84831094195425" lon="4.240154295439839"><ele>1308.4</ele><time>2026-04-06T14:19:02Z</time></trkpt><trkpt lat="44.84831988008299" lon="4.240309562617132"><ele>1305.8</ele><time>2026-04-06T14:19:04Z</time></trkpt><trkpt lat="44.848376394895034" lon="4.240453725665513"><ele>1303.2</ele><time>2026-04-06T14:19:06Z</time></trkpt><trkpt lat="44.84841418138081" lon="4.240603583987924"><ele>1300.6000000000001</ele><time>2026-04-06T14:19:08Z</time></trkpt><trkpt lat="44.84843551947556" lon="4.2406957770429"><ele>1298.0</ele><time>2026-04-06T14:19:09Z</time></trkpt><trkpt lat="44.8484790104131" lon="4.240774277326283"><ele>1295.8000000000002</ele><time>2026-04-06T14:19:10Z</time></trkpt><trkpt lat="44.848555213147726" lon="4.240875997801364"><ele>1293.6</ele><time>2026-04-06T14:19:12Z</time></trkpt><trkpt lat="44.848574455868174" lon="4.241064209236965"><ele>1291.4</ele><time>2026-04-06T14:19:14Z</time></trkpt><trkpt lat="44.84858431212078" lon="4.241155440038317"><ele>1289.1999999999998</ele><time>2026-04-06T14:19:15Z</time></trkpt><trkpt lat="44.84858413602343" lon="4.2412567907316"><ele>1287.0</ele><time>2026-04-06T14:19:16Z</time></trkpt><trkpt lat="44.84862790963937" lon="4.2414027416960165"><ele>1289.0</ele><time>2026-04-06T14:19:18Z</time></trkpt><trkpt lat="44.84868152681144" lon="4.241470134798079"><ele>1291.0</ele><time>2026-04-06T14:19:19Z</time></trkpt><trkpt lat="44.848783152477885" lon="4.241548821810623"><ele>1293.0</ele><time>2026-04-06T14:19:21Z</time></trkpt><trkpt lat="44.8488762574466" lon="4.241609819767554"><ele>1295.0</ele><time>2026-04-06T14:19:23Z</time></trkpt><trkpt lat="44.848952887461294" lon="4.241678495499019"><ele>1297.0</ele><time>2026-04-06T14:19:25Z</time></trkpt><trkpt lat="44.84904157100482" lon="4.241649475264816"><ele>1297.0</ele><time>2026-04-06T14:19:27Z</time></trkpt><trkpt lat="44.84912168182872" lon="4.241699620707931"><ele>1297.0</ele><time>2026-04-06T14:19:32Z</time></trkpt><trkpt lat="44.84919844141526" lon="4.241699251856496"><ele>1297.0</ele><time>2026-04-06T14:19:34Z</time></trkpt><trkpt lat="44.84925716526859" lon="4.241638658804735"><ele>1297.0</ele><time>2026-04-06T14:19:35Z</time></trkpt><trkpt lat="44.84934692348141" lon="4.241573909942925"><ele>1297.0</ele><time>2026-04-06T14:19:38Z</time></trkpt><trkpt lat="44.84942139366438" lon="4.241575191420213"><ele>1297.0</ele><time>2026-04-06T14:19:40Z</time></trkpt><trkpt lat="44.849482138702236" lon="4.241491718717774"><ele>1294.8</ele><time>2026-04-06T14:19:43Z</time></trkpt><trkpt lat="44.84957819710269" lon="4.241463636193282"><ele>1292.6</ele><time>2026-04-06T14:19:46Z</time></trkpt><trkpt lat="44.84964340581288" lon="4.2415118218410655"><ele>1290.3999999999999</ele><time>2026-04-06T14:19:49Z</time></trkpt><trkpt lat="44.84970866385118" lon="4.241485060699116"><ele>1288.1999999999998</ele><time>2026-04-06T14:19:51Z</time></trkpt><trkpt lat="44.84977683828408" lon="4.241482119862185"><ele>1286.0</ele><time>2026-04-06T14:19:53Z</time></trkpt><trkpt lat="44.84990227272201" lon="4.241632921329452"><ele>1286.0</ele><time>2026-04-06T14:19:55Z</time></trkpt><trkpt lat="44.85000194034175" lon="4.241652966445723"><ele>1286.0</ele><time>2026-04-06T14:19:56Z</time></trkpt><trkpt lat="44.85011920930256" lon="4.241626310840806"><ele>1286.0</ele><time>2026-04-06T14:19:57Z</time></trkpt><trkpt lat="44.850224188341315" lon="4.241657276400218"><ele>1286.0</ele><time>2026-04-06T14:19:58Z</time></trkpt><trkpt lat="44.850325680787485" lon="4.241652961580235"><ele>1286.0</ele><time>2026-04-06T14:19:59Z</time></trkpt><trkpt lat="44.8504065731537" lon="4.241655861825341"><ele>1283.6</ele><time>2026-04-06T14:20:00Z</time></trkpt><trkpt lat="44.850506083781475" lon="4.241589371032201"><ele>1281.1999999999998</ele><time>2026-04-06T14:20:01Z</time></trkpt><trkpt lat="44.85059495204448" lon="4.241561607751359"><ele>1278.8000000000002</ele><time>2026-04-06T14:20:02Z</time></trkpt><trkpt lat="44.85069467118217" lon="4.241530427344333"><ele>1276.4</ele><time>2026-04-06T14:20:03Z</time></trkpt><trkpt lat="44.85075998086674" lon="4.241486224163791"><ele>1274.0</ele><time>2026-04-06T14:20:04Z</time></trkpt><trkpt lat="44.85084495063482" lon="4.241455606705218"><ele>1273.0</ele><time>2026-04-06T14:20:05Z</time></trkpt><trkpt lat="44.85091948451409" lon="4.2414236983474645"><ele>1272.0</ele><time>2026-04-06T14:20:06Z</time></trkpt><trkpt lat="44.851032319533516" lon="4.241423259556319"><ele>1271.0</ele><time>2026-04-06T14:20:08Z</time></trkpt><trkpt lat="44.85110771019481" lon="4.2414266681005115"><ele>1270.0</ele><time>2026-04-06T14:20:09Z</time></trkpt><trkpt lat="44.85117664817023" lon="4.2414151652355905"><ele>1269.0</ele><time>2026-04-06T14:20:10Z</time></trkpt><trkpt lat="44.85122430517691" lon="4.241475564706557"><ele>1268.0</ele><time>2026-04-06T14:20:16Z</time></trkpt><trkpt lat="44.85129997768537" lon="4.241482213271861"><ele>1268.0</ele><time>2026-04-06T14:20:19Z</time></trkpt><trkpt lat="44.851327878346424" lon="4.241568425787723"><ele>1268.0</ele><time>2026-04-06T14:20:21Z</time></trkpt><trkpt lat="44.85135161023393" lon="4.241683079526566"><ele>1268.0</ele><time>2026-04-06T14:20:23Z</time></trkpt><trkpt lat="44.85138440576672" lon="4.241764637591332"><ele>1268.0</ele><time>2026-04-06T14:20:25Z</time></trkpt><trkpt lat="44.85146107065557" lon="4.241858210869453"><ele>1268.0</ele><time>2026-04-06T14:20:27Z</time></trkpt><trkpt lat="44.851521749584066" lon="4.2418960898600755"><ele>1268.0</ele><time>2026-04-06T14:20:29Z</time></trkpt><trkpt lat="44.851598686553345" lon="4.241945462840384"><ele>1268.0</ele><time>2026-04-06T14:20:30Z</time></trkpt><trkpt lat="44.851661054783975" lon="4.241991797456554"><ele>1268.0</ele><time>2026-04-06T14:20:31Z</time></trkpt><trkpt lat="44.851730316552796" lon="4.242078472430959"><ele>1268.0</ele><time>2026-04-06T14:20:33Z</time></trkpt><trkpt lat="44.85176499753725" lon="4.242184913377214"><ele>1268.0</ele><time>2026-04-06T14:20:35Z</time></trkpt><trkpt lat="44.851827360481266" lon="4.242197375133499"><ele>1268.0</ele><time>2026-04-06T14:20:38Z</time></trkpt><trkpt lat="44.851866106986336" lon="4.242320182555216"><ele>1268.0</ele><time>2026-04-06T14:20:45Z</time></trkpt><trkpt lat="44.85187812504739" lon="4.242419079736107"><ele>1265.0</ele><time>2026-04-06T14:20:47Z</time></trkpt><trkpt lat="44.85188695604585" lon="4.242577000379175"><ele>1262.0</ele><time>2026-04-06T14:20:49Z</time></trkpt><trkpt lat="44.85188043714537" lon="4.242674428876952"><ele>1259.0</ele><time>2026-04-06T14:20:50Z</time></trkpt><trkpt lat="44.851883436249636" lon="4.242808384946992"><ele>1256.0</ele><time>2026-04-06T14:20:52Z</time></trkpt><trkpt lat="44.85185913805893" lon="4.242952451972381"><ele>1253.0</ele><time>2026-04-06T14:20:56Z</time></trkpt><trkpt lat="44.851828380855636" lon="4.243058239807106"><ele>1253.0</ele><time>2026-04-06T14:21:10Z</time></trkpt><trkpt lat="44.85187593371786" lon="4.243128882842008"><ele>1253.0</ele><time>2026-04-06T14:21:13Z</time></trkpt><trkpt lat="44.85192939011331" lon="4.243214222186103"><ele>1253.0</ele><time>2026-04-06T14:21:16Z</time></trkpt><trkpt lat="44.851958637183934" lon="4.243297145972584"><ele>1253.0</ele><time>2026-04-06T14:21:19Z</time></trkpt><trkpt lat="44.852013744697466" lon="4.243369125262979"><ele>1253.0</ele><time>2026-04-06T14:21:23Z</time></trkpt><trkpt lat="44.85206802964833" lon="4.2434328427952535"><ele>1253.0</ele><time>2026-04-06T14:21:28Z</time></trkpt><trkpt lat="44.85215337214005" lon="4.243480988801433"><ele>1250.3333333333335</ele><time>2026-04-06T14:21:31Z</time></trkpt><trkpt lat="44.85220903470171" lon="4.243529272028787"><ele>1247.6666666666667</ele><time>2026-04-06T14:21:33Z</time></trkpt><trkpt lat="44.85225005267012" lon="4.243610033934188"><ele>1245.0</ele><time>2026-04-06T14:21:39Z</time></trkpt><trkpt lat="44.85234453470079" lon="4.243644779376467"><ele>1242.3333333333333</ele><time>2026-04-06T14:21:49Z</time></trkpt><trkpt lat="44.852403740930605" lon="4.2436834829045305"><ele>1239.6666666666665</ele><time>2026-04-06T14:21:55Z</time></trkpt><trkpt lat="44.85246894633279" lon="4.243702804802016"><ele>1237.0</ele><time>2026-04-06T14:21:58Z</time></trkpt><trkpt lat="44.85248130726013" lon="4.243845762658219"><ele>1237.0</ele><time>2026-04-06T14:22:06Z</time></trkpt><trkpt lat="44.85254247780844" lon="4.243912768940875"><ele>1237.0</ele><time>2026-04-06T14:22:08Z</time></trkpt><trkpt lat="44.85259911763547" lon="4.2439585300037255"><ele>1237.0</ele><time>2026-04-06T14:22:12Z</time></trkpt><trkpt lat="44.85262719317055" lon="4.244064149220853"><ele>1237.0</ele><time>2026-04-06T14:22:15Z</time></trkpt><trkpt lat="44.852596111412716" lon="4.2441455741182"><ele>1237.0</ele><time>2026-04-06T14:22:21Z</time></trkpt><trkpt lat="44.85254336795754" lon="4.244275956178521"><ele>1237.0</ele><time>2026-04-06T14:22:23Z</time></trkpt><trkpt lat="44.85260530096327" lon="4.244306501084612"><ele>1233.5</ele><time>2026-04-06T14:22:25Z</time></trkpt><trkpt lat="44.8526742508098" lon="4.244298980831444"><ele>1230.0</ele><time>2026-04-06T14:22:27Z</time></trkpt><trkpt lat="44.85273962735512" lon="4.244301310348041"><ele>1226.5</ele><time>2026-04-06T14:22:31Z</time></trkpt><trkpt lat="44.852769139886036" lon="4.244403987979409"><ele>1223.0</ele><time>2026-04-06T14:22:35Z</time></trkpt><trkpt lat="44.85282716656268" lon="4.24454211664868"><ele>1219.5</ele><time>2026-04-06T14:22:40Z</time></trkpt><trkpt lat="44.852880039537034" lon="4.244633612862627"><ele>1216.0</ele><time>2026-04-06T14:22:43Z</time></trkpt><trkpt lat="44.852926850363566" lon="4.244698850093275"><ele>1216.0</ele><time>2026-04-06T14:22:45Z</time></trkpt><trkpt lat="44.8529654363101" lon="4.244789176910037"><ele>1216.0</ele><time>2026-04-06T14:22:49Z</time></trkpt><trkpt lat="44.85304029598427" lon="4.244842529808927"><ele>1216.0</ele><time>2026-04-06T14:22:51Z</time></trkpt><trkpt lat="44.85309905466549" lon="4.244922601093155"><ele>1216.0</ele><time>2026-04-06T14:22:53Z</time></trkpt><trkpt lat="44.85315465027092" lon="4.244980943542226"><ele>1216.0</ele><time>2026-04-06T14:22:55Z</time></trkpt><trkpt lat="44.8532497013783" lon="4.245005326909246"><ele>1216.0</ele><time>2026-04-06T14:22:57Z</time></trkpt><trkpt lat="44.853309922039244" lon="4.2450382163638976"><ele>1210.6</ele><time>2026-04-06T14:22:58Z</time></trkpt><trkpt lat="44.85341266740307" lon="4.245125438568712"><ele>1205.1999999999998</ele><time>2026-04-06T14:23:00Z</time></trkpt><trkpt lat="44.85347694955036" lon="4.245139248406152"><ele>1199.8000000000002</ele><time>2026-04-06T14:23:01Z</time></trkpt><trkpt lat="44.85357259261299" lon="4.245146200560783"><ele>1194.4</ele><time>2026-04-06T14:23:03Z</time></trkpt><trkpt lat="44.85366969677984" lon="4.245160009698425"><ele>1189.0</ele><time>2026-04-06T14:23:05Z</time></trkpt><trkpt lat="44.85375630340029" lon="4.245167097872996"><ele>1187.0</ele><time>2026-04-06T14:23:07Z</time></trkpt><trkpt lat="44.85382654530269" lon="4.245159879883701"><ele>1185.0</ele><time>2026-04-06T14:23:09Z</time></trkpt><trkpt lat="44.85391028062362" lon="4.245147830160277"><ele>1183.0</ele><time>2026-04-06T14:23:11Z</time></trkpt><trkpt lat="44.853996030054496" lon="4.245118550700541"><ele>1181.0</ele><time>2026-04-06T14:23:13Z</time></trkpt><trkpt lat="44.85409233557269" lon="4.245068123476062"><ele>1179.0</ele><time>2026-04-06T14:23:15Z</time></trkpt><trkpt lat="44.85415908634695" lon="4.245026706882588"><ele>1177.0</ele><time>2026-04-06T14:23:18Z</time></trkpt><trkpt lat="44.85424316135189" lon="4.244975469384612"><ele>1175.1666666666665</ele><time>2026-04-06T14:23:21Z</time></trkpt><trkpt lat="44.854327377628174" lon="4.244936037550624"><ele>1173.3333333333333</ele><time>2026-04-06T14:23:24Z</time></trkpt><trkpt lat="44.85440829830739" lon="4.244894585667474"><ele>1171.5</ele><time>2026-04-06T14:23:27Z</time></trkpt><trkpt lat="44.854469948009395" lon="4.244861191423606"><ele>1169.6666666666667</ele><time>2026-04-06T14:23:28Z</time></trkpt><trkpt lat="44.85454786799282" lon="4.244831851766334"><ele>1167.8333333333335</ele><time>2026-04-06T14:23:29Z</time></trkpt><trkpt lat="44.85464840397948" lon="4.244847636853449"><ele>1166.0</ele><time>2026-04-06T14:23:30Z</time></trkpt><trkpt lat="44.85470735334626" lon="4.244896647778151"><ele>1166.0</ele><time>2026-04-06T14:23:31Z</time></trkpt><trkpt lat="44.85476556453462" lon="4.244973282508777"><ele>1166.0</ele><time>2026-04-06T14:23:32Z</time></trkpt><trkpt lat="44.85481625459508" lon="4.245033895482297"><ele>1166.0</ele><time>2026-04-06T14:23:33Z</time></trkpt><trkpt lat="44.85486358779462" lon="4.245117253219376"><ele>1166.0</ele><time>2026-04-06T14:23:34Z</time></trkpt><trkpt lat="44.85493508921008" lon="4.245263623646532"><ele>1166.0</ele><time>2026-04-06T14:23:36Z</time></trkpt><trkpt lat="44.8549800488048" lon="4.245339236357248"><ele>1166.0</ele><time>2026-04-06T14:23:37Z</time></trkpt><trkpt lat="44.855030786145335" lon="4.245403752575146"><ele>1166.0</ele><time>2026-04-06T14:23:39Z</time></trkpt><trkpt lat="44.85510751812824" lon="4.245472937214213"><ele>1166.0</ele><time>2026-04-06T14:23:40Z</time></trkpt><trkpt lat="44.85517522493764" lon="4.245523760967892"><ele>1166.0</ele><time>2026-04-06T14:23:41Z</time></trkpt><trkpt lat="44.855237548246976" lon="4.245566474218621"><ele>1166.0</ele><time>2026-04-06T14:23:42Z</time></trkpt><trkpt lat="44.85531862535933" lon="4.245635253773237"><ele>1166.0</ele><time>2026-04-06T14:23:44Z</time></trkpt><trkpt lat="44.85533747920499" lon="4.245815248733718"><ele>1165.0</ele><time>2026-04-06T14:23:47Z</time></trkpt><trkpt lat="44.85536818875942" lon="4.245915988477097"><ele>1164.0</ele><time>2026-04-06T14:23:48Z</time></trkpt><trkpt lat="44.85541903736423" lon="4.246001738464259"><ele>1163.0</ele><time>2026-04-06T14:23:49Z</time></trkpt><trkpt lat="44.855472342288905" lon="4.246125492472553"><ele>1162.0</ele><time>2026-04-06T14:23:50Z</time></trkpt><trkpt lat="44.855519896688705" lon="4.246236669247989"><ele>1161.0</ele><time>2026-04-06T14:23:51Z</time></trkpt><trkpt lat="44.85555377901056" lon="4.24633404376458"><ele>1160.0</ele><time>2026-04-06T14:23:52Z</time></trkpt><trkpt lat="44.855585350806024" lon="4.246429543643288"><ele>1155.6666666666667</ele><time>2026-04-06T14:23:53Z</time></trkpt><trkpt lat="44.85564606605482" lon="4.246592566099501"><ele>1151.3333333333335</ele><time>2026-04-06T14:23:55Z</time></trkpt><trkpt lat="44.85567353307665" lon="4.246682718213626"><ele>1147.0</ele><time>2026-04-06T14:23:56Z</time></trkpt><trkpt lat="44.8557187237014" lon="4.246782297229834"><ele>1142.6666666666667</ele><time>2026-04-06T14:23:57Z</time></trkpt><trkpt lat="44.85574357620352" lon="4.2468700346677295"><ele>1138.3333333333333</ele><time>2026-04-06T14:23:58Z</time></trkpt><trkpt lat="44.855779334511354" lon="4.246961927504814"><ele>1134.0</ele><time>2026-04-06T14:23:59Z</time></trkpt><trkpt lat="44.855840900807046" lon="4.247014917072206"><ele>1134.0</ele><time>2026-04-06T14:24:00Z</time></trkpt><trkpt lat="44.855917925472085" lon="4.247099562332786"><ele>1134.0</ele><time>2026-04-06T14:24:01Z</time></trkpt><trkpt lat="44.85598293180691" lon="4.247200517724796"><ele>1134.0</ele><time>2026-04-06T14:24:02Z</time></trkpt><trkpt lat="44.856027806185146" lon="4.24726731573689"><ele>1134.0</ele><time>2026-04-06T14:24:03Z</time></trkpt><trkpt lat="44.856085924624836" lon="4.247314516811503"><ele>1134.0</ele><time>2026-04-06T14:24:04Z</time></trkpt><trkpt lat="44.8561492490606" lon="4.247373836929595"><ele>1134.0</ele><time>2026-04-06T14:24:05Z</time></trkpt><trkpt lat="44.856301674818006" lon="4.247435672192685"><ele>1131.5714285714287</ele><time>2026-04-06T14:24:07Z</time></trkpt><trkpt lat="44.85636505346014" lon="4.247478103650304"><ele>1129.142857142857</ele><time>2026-04-06T14:24:08Z</time></trkpt><trkpt lat="44.856421183898306" lon="4.247550551558488"><ele>1126.7142857142858</ele><time>2026-04-06T14:24:09Z</time></trkpt><trkpt lat="44.85648991712927" lon="4.247596619107014"><ele>1124.2857142857142</ele><time>2026-04-06T14:24:10Z</time></trkpt><trkpt lat="44.85656084677802" lon="4.247634820682255"><ele>1121.857142857143</ele><time>2026-04-06T14:24:11Z</time></trkpt><trkpt lat="44.85662454192635" lon="4.24767089173285"><ele>1119.4285714285716</ele><time>2026-04-06T14:24:12Z</time></trkpt><trkpt lat="44.85669966423305" lon="4.247682819756389"><ele>1117.0</ele><time>2026-04-06T14:24:13Z</time></trkpt><trkpt lat="44.856764270101344" lon="4.2477590247527255"><ele>1115.1666666666665</ele><time>2026-04-06T14:24:14Z</time></trkpt><trkpt lat="44.85683207099056" lon="4.2478067008316716"><ele>1113.3333333333333</ele><time>2026-04-06T14:24:15Z</time></trkpt><trkpt lat="44.85691935305884" lon="4.247885367834284"><ele>1111.5</ele><time>2026-04-06T14:24:16Z</time></trkpt><trkpt lat="44.85697972170389" lon="4.247938877031235"><ele>1109.6666666666667</ele><time>2026-04-06T14:24:17Z</time></trkpt><trkpt lat="44.85705569146051" lon="4.248005266376146"><ele>1107.8333333333335</ele><time>2026-04-06T14:24:18Z</time></trkpt><trkpt lat="44.8571310395165" lon="4.248053309258398"><ele>1106.0</ele><time>2026-04-06T14:24:19Z</time></trkpt><trkpt lat="44.85716373954474" lon="4.248310195523853"><ele>1102.8333333333335</ele><time>2026-04-06T14:24:20Z</time></trkpt><trkpt lat="44.85722962255389" lon="4.248328053673982"><ele>1099.6666666666667</ele><time>2026-04-06T14:24:21Z</time></trkpt><trkpt lat="44.85729612643652" lon="4.24834489125652"><ele>1096.5</ele><time>2026-04-06T14:24:22Z</time></trkpt><trkpt lat="44.857360299553136" lon="4.248361357899816"><ele>1093.3333333333333</ele><time>2026-04-06T14:24:23Z</time></trkpt><trkpt lat="44.85743462794274" lon="4.248380430293015"><ele>1090.1666666666665</ele><time>2026-04-06T14:24:24Z</time></trkpt><trkpt lat="44.85755203047604" lon="4.2484133897507865"><ele>1087.0</ele><time>2026-04-06T14:24:26Z</time></trkpt><trkpt lat="44.85766398083501" lon="4.248456693046965"><ele>1085.4</ele><time>2026-04-06T14:24:28Z</time></trkpt><trkpt lat="44.857765171620926" lon="4.248509020246268"><ele>1083.8000000000002</ele><time>2026-04-06T14:24:30Z</time></trkpt><trkpt lat="44.85785055915164" lon="4.2485796715119"><ele>1082.2</ele><time>2026-04-06T14:24:32Z</time></trkpt><trkpt lat="44.857934163445236" lon="4.248685748437408"><ele>1080.6000000000001</ele><time>2026-04-06T14:24:34Z</time></trkpt><trkpt lat="44.85798554271301" lon="4.248770305618216"><ele>1079.0</ele><time>2026-04-06T14:24:35Z</time></trkpt><trkpt lat="44.85804823078684" lon="4.248899247389177"><ele>1078.0</ele><time>2026-04-06T14:24:36Z</time></trkpt><trkpt lat="44.8580954948062" lon="4.24900656053856"><ele>1077.0</ele><time>2026-04-06T14:24:37Z</time></trkpt><trkpt lat="44.8581395136285" lon="4.249106082748773"><ele>1076.0</ele><time>2026-04-06T14:24:38Z</time></trkpt><trkpt lat="44.858191063395154" lon="4.249221132163556"><ele>1075.0</ele><time>2026-04-06T14:24:39Z</time></trkpt><trkpt lat="44.85823318375993" lon="4.249305710904291"><ele>1074.0</ele><time>2026-04-06T14:24:40Z</time></trkpt><trkpt lat="44.858271564187504" lon="4.249382778683705"><ele>1073.0</ele><time>2026-04-06T14:24:41Z</time></trkpt><trkpt lat="44.85834330076278" lon="4.249523384672954"><ele>1073.0</ele><time>2026-04-06T14:24:43Z</time></trkpt><trkpt lat="44.85841989995053" lon="4.249630863629279"><ele>1073.0</ele><time>2026-04-06T14:24:45Z</time></trkpt><trkpt lat="44.85850297910827" lon="4.249692192032395"><ele>1073.0</ele><time>2026-04-06T14:24:47Z</time></trkpt><trkpt lat="44.859029170978395" lon="4.249227134034212"><ele>1071.3333333333335</ele><time>2026-04-06T14:24:49Z</time></trkpt><trkpt lat="44.85908251938761" lon="4.249295780597462"><ele>1069.6666666666667</ele><time>2026-04-06T14:24:50Z</time></trkpt><trkpt lat="44.8591370926201" lon="4.249342208618074"><ele>1068.0</ele><time>2026-04-06T14:24:51Z</time></trkpt><trkpt lat="44.85921130335809" lon="4.2494522602459766"><ele>1066.3333333333333</ele><time>2026-04-06T14:24:52Z</time></trkpt><trkpt lat="44.859259784454856" lon="4.249527564503219"><ele>1064.6666666666665</ele><time>2026-04-06T14:24:53Z</time></trkpt><trkpt lat="44.85930699858727" lon="4.249617248887394"><ele>1063.0</ele><time>2026-04-06T14:24:54Z</time></trkpt><trkpt lat="44.85935680270813" lon="4.249766207885141"><ele>1059.0</ele><time>2026-04-06T14:24:55Z</time></trkpt><trkpt lat="44.85940447749448" lon="4.249935813628408"><ele>1055.0</ele><time>2026-04-06T14:24:56Z</time></trkpt><trkpt lat="44.85944176983335" lon="4.250078946480491"><ele>1051.0</ele><time>2026-04-06T14:24:57Z</time></trkpt><trkpt lat="44.859447733116035" lon="4.2502036161619605"><ele>1047.0</ele><time>2026-04-06T14:24:58Z</time></trkpt><trkpt lat="44.85946589000676" lon="4.250321611617074"><ele>1043.0</ele><time>2026-04-06T14:24:59Z</time></trkpt><trkpt lat="44.85949341736998" lon="4.250435300148833"><ele>1043.0</ele><time>2026-04-06T14:25:00Z</time></trkpt><trkpt lat="44.8596022128435" lon="4.250526643296299"><ele>1043.0</ele><time>2026-04-06T14:25:01Z</time></trkpt><trkpt lat="44.859655339164874" lon="4.2506142835780585"><ele>1043.0</ele><time>2026-04-06T14:25:02Z</time></trkpt><trkpt lat="44.859725714099824" lon="4.250722502237907"><ele>1043.0</ele><time>2026-04-06T14:25:03Z</time></trkpt><trkpt lat="44.85978023077124" lon="4.250829284271564"><ele>1043.0</ele><time>2026-04-06T14:25:04Z</time></trkpt><trkpt lat="44.85986674312869" lon="4.2509315372360446"><ele>1041.3333333333335</ele><time>2026-04-06T14:25:05Z</time></trkpt><trkpt lat="44.859947129737584" lon="4.251003694820555"><ele>1039.6666666666667</ele><time>2026-04-06T14:25:06Z</time></trkpt><trkpt lat="44.86003172926078" lon="4.251111031635997"><ele>1038.0</ele><time>2026-04-06T14:25:07Z</time></trkpt><trkpt lat="44.860107750864756" lon="4.251152511236032"><ele>1036.3333333333333</ele><time>2026-04-06T14:25:08Z</time></trkpt><trkpt lat="44.86018125508526" lon="4.251169079344415"><ele>1034.6666666666665</ele><time>2026-04-06T14:25:09Z</time></trkpt><trkpt lat="44.86026099101502" lon="4.2511904910722365"><ele>1033.0</ele><time>2026-04-06T14:25:10Z</time></trkpt><trkpt lat="44.860338936549155" lon="4.251231666582605"><ele>1033.0</ele><time>2026-04-06T14:25:11Z</time></trkpt><trkpt lat="44.86040890127701" lon="4.251272320279327"><ele>1033.0</ele><time>2026-04-06T14:25:12Z</time></trkpt><trkpt lat="44.860477178071626" lon="4.251305254400272"><ele>1033.0</ele><time>2026-04-06T14:25:13Z</time></trkpt><trkpt lat="44.86053878516313" lon="4.251370596468627"><ele>1033.0</ele><time>2026-04-06T14:25:14Z</time></trkpt><trkpt lat="44.86058470053866" lon="4.251441798815574"><ele>1033.0</ele><time>2026-04-06T14:25:15Z</time></trkpt><trkpt lat="44.86063628423509" lon="4.251522083611279"><ele>1033.0</ele><time>2026-04-06T14:25:16Z</time></trkpt><trkpt lat="44.86071591203259" lon="4.251646420262334"><ele>1035.6666666666665</ele><time>2026-04-06T14:25:18Z</time></trkpt><trkpt lat="44.86076392544812" lon="4.251743235025432"><ele>1038.3333333333333</ele><time>2026-04-06T14:25:19Z</time></trkpt><trkpt lat="44.86081545957058" lon="4.251847807926768"><ele>1041.0</ele><time>2026-04-06T14:25:20Z</time></trkpt><trkpt lat="44.8608402675156" lon="4.251952732362594"><ele>1043.6666666666667</ele><time>2026-04-06T14:25:21Z</time></trkpt><trkpt lat="44.860875231266164" lon="4.2520607269242"><ele>1046.3333333333335</ele><time>2026-04-06T14:25:22Z</time></trkpt><trkpt lat="44.86094721582538" lon="4.252172625117998"><ele>1049.0</ele><time>2026-04-06T14:25:23Z</time></trkpt><trkpt lat="44.861009458538284" lon="4.252275656800567"><ele>1043.8</ele><time>2026-04-06T14:25:24Z</time></trkpt><trkpt lat="44.86105139366982" lon="4.2523839047932634"><ele>1038.6000000000001</ele><time>2026-04-06T14:25:25Z</time></trkpt><trkpt lat="44.86109034001237" lon="4.25249627775107"><ele>1033.4</ele><time>2026-04-06T14:25:26Z</time></trkpt><trkpt lat="44.861111669029675" lon="4.252616542268704"><ele>1028.2</ele><time>2026-04-06T14:25:27Z</time></trkpt><trkpt lat="44.861140416111745" lon="4.25276890294855"><ele>1023.0</ele><time>2026-04-06T14:25:28Z</time></trkpt><trkpt lat="44.8611692299408" lon="4.252887285111095"><ele>1023.0</ele><time>2026-04-06T14:25:29Z</time></trkpt><trkpt lat="44.86122085141322" lon="4.253003403735734"><ele>1023.0</ele><time>2026-04-06T14:25:30Z</time></trkpt><trkpt lat="44.86125776413722" lon="4.253136680598797"><ele>1023.0</ele><time>2026-04-06T14:25:31Z</time></trkpt><trkpt lat="44.861287274720944" lon="4.25326432954671"><ele>1023.0</ele><time>2026-04-06T14:25:32Z</time></trkpt><trkpt lat="44.86131044680331" lon="4.253387273828091"><ele>1023.0</ele><time>2026-04-06T14:25:33Z</time></trkpt><trkpt lat="44.86132873438224" lon="4.253494423790018"><ele>1024.4</ele><time>2026-04-06T14:25:34Z</time></trkpt><trkpt lat="44.86138933626428" lon="4.253627361343881"><ele>1025.8</ele><time>2026-04-06T14:25:35Z</time></trkpt><trkpt lat="44.86140747527604" lon="4.253736708708451"><ele>1027.2</ele><time>2026-04-06T14:25:36Z</time></trkpt><trkpt lat="44.86143981908219" lon="4.253864425289919"><ele>1028.6</ele><time>2026-04-06T14:25:37Z</time></trkpt><trkpt lat="44.86146532568204" lon="4.253977420728875"><ele>1030.0</ele><time>2026-04-06T14:25:38Z</time></trkpt><trkpt lat="44.861486733462066" lon="4.254109787259958"><ele>1030.0</ele><time>2026-04-06T14:25:39Z</time></trkpt><trkpt lat="44.86151145445595" lon="4.254221156634896"><ele>1030.0</ele><time>2026-04-06T14:25:40Z</time></trkpt><trkpt lat="44.861540437622956" lon="4.254428745258046"><ele>1030.0</ele><time>2026-04-06T14:25:42Z</time></trkpt><trkpt lat="44.86155968765571" lon="4.254533373422335"><ele>1030.0</ele><time>2026-04-06T14:25:43Z</time></trkpt><trkpt lat="44.861568502800054" lon="4.254637008101909"><ele>1030.0</ele><time>2026-04-06T14:25:44Z</time></trkpt><trkpt lat="44.86154506929772" lon="4.254761366573807"><ele>1028.8333333333333</ele><time>2026-04-06T14:25:45Z</time></trkpt><trkpt lat="44.861558946666754" lon="4.254874686048242"><ele>1027.6666666666665</ele><time>2026-04-06T14:25:46Z</time></trkpt><trkpt lat="44.86154224427307" lon="4.254979085547667"><ele>1026.5</ele><time>2026-04-06T14:25:47Z</time></trkpt><trkpt lat="44.86152812378398" lon="4.255083867606499"><ele>1025.3333333333333</ele><time>2026-04-06T14:25:48Z</time></trkpt><trkpt lat="44.861491728176574" lon="4.2551772880111685"><ele>1024.1666666666667</ele><time>2026-04-06T14:25:49Z</time></trkpt><trkpt lat="44.86146092921885" lon="4.255271862122149"><ele>1023.0</ele><time>2026-04-06T14:25:50Z</time></trkpt><trkpt lat="44.86144028196393" lon="4.2553658621797155"><ele>1023.0</ele><time>2026-04-06T14:25:51Z</time></trkpt><trkpt lat="44.86139107785856" lon="4.255481165102384"><ele>1023.0</ele><time>2026-04-06T14:25:53Z</time></trkpt><trkpt lat="44.86138368229336" lon="4.255626986894259"><ele>1023.0</ele><time>2026-04-06T14:25:56Z</time></trkpt><trkpt lat="44.86136571338228" lon="4.255724696628491"><ele>1023.0</ele><time>2026-04-06T14:25:57Z</time></trkpt><trkpt lat="44.86126193401963" lon="4.256394134264658"><ele>1023.2</ele><time>2026-04-06T14:26:01Z</time></trkpt><trkpt lat="44.861211096064636" lon="4.256488494364076"><ele>1023.4</ele><time>2026-04-06T14:26:02Z</time></trkpt><trkpt lat="44.861153009224566" lon="4.256616591913427"><ele>1023.6000000000001</ele><time>2026-04-06T14:26:03Z</time></trkpt><trkpt lat="44.861024453226506" lon="4.256690324389043"><ele>1023.8000000000001</ele><time>2026-04-06T14:26:04Z</time></trkpt><trkpt lat="44.860976019824776" lon="4.256757751113524"><ele>1024.0</ele><time>2026-04-06T14:26:05Z</time></trkpt><trkpt lat="44.8608998685759" lon="4.256822577096138"><ele>1024.0</ele><time>2026-04-06T14:26:06Z</time></trkpt><trkpt lat="44.86080731114246" lon="4.256807928981469"><ele>1024.0</ele><time>2026-04-06T14:26:07Z</time></trkpt><trkpt lat="44.8607206059877" lon="4.256803461616901"><ele>1024.0</ele><time>2026-04-06T14:26:09Z</time></trkpt><trkpt lat="44.86062577542974" lon="4.256769801204251"><ele>1024.0</ele><time>2026-04-06T14:26:11Z</time></trkpt><trkpt lat="44.86055129717704" lon="4.256850616921952"><ele>1024.0</ele><time>2026-04-06T14:26:20Z</time></trkpt><trkpt lat="44.86063536883458" lon="4.256935726443766"><ele>1024.0</ele><time>2026-04-06T14:26:22Z</time></trkpt><trkpt lat="44.86070904391211" lon="4.257001376692652"><ele>1024.0</ele><time>2026-04-06T14:26:24Z</time></trkpt><trkpt lat="44.86078119920251" lon="4.257092836856989"><ele>1024.0</ele><time>2026-04-06T14:26:26Z</time></trkpt><trkpt lat="44.86082574229711" lon="4.257191148818816"><ele>1024.0</ele><time>2026-04-06T14:26:28Z</time></trkpt><trkpt lat="44.860906527712395" lon="4.257293212311211"><ele>1024.0</ele><time>2026-04-06T14:26:30Z</time></trkpt><trkpt lat="44.861005789024595" lon="4.257373013359284"><ele>1019.4999999999999</ele><time>2026-04-06T14:26:32Z</time></trkpt><trkpt lat="44.86108874517997" lon="4.2574512432105855"><ele>1015.0</ele><time>2026-04-06T14:26:34Z</time></trkpt><trkpt lat="44.86115650838981" lon="4.25754090824082"><ele>1010.5</ele><time>2026-04-06T14:26:36Z</time></trkpt><trkpt lat="44.8612418794769" lon="4.257607896592421"><ele>1006.0</ele><time>2026-04-06T14:26:39Z</time></trkpt><trkpt lat="44.861301226825525" lon="4.257638858715917"><ele>1001.4999999999999</ele><time>2026-04-06T14:26:41Z</time></trkpt><trkpt lat="44.861352440577036" lon="4.257727687481996"><ele>997.0</ele><time>2026-04-06T14:26:44Z</time></trkpt><trkpt lat="44.86131818728769" lon="4.257872040262723"><ele>996.9999999999999</ele><time>2026-04-06T14:26:46Z</time></trkpt><trkpt lat="44.86130368898488" lon="4.257969687661014"><ele>997.0</ele><time>2026-04-06T14:26:47Z</time></trkpt><trkpt lat="44.861286789397845" lon="4.258083508003936"><ele>997.0</ele><time>2026-04-06T14:26:48Z</time></trkpt><trkpt lat="44.86126866788778" lon="4.258184274311556"><ele>997.0</ele><time>2026-04-06T14:26:49Z</time></trkpt><trkpt lat="44.86124572539503" lon="4.2582914130288705"><ele>996.9999999999999</ele><time>2026-04-06T14:26:50Z</time></trkpt><trkpt lat="44.86122432426558" lon="4.258392816084039"><ele>997.0</ele><time>2026-04-06T14:26:51Z</time></trkpt><trkpt lat="44.8611974840895" lon="4.258520264220304"><ele>997.8</ele><time>2026-04-06T14:26:53Z</time></trkpt><trkpt lat="44.86117809857465" lon="4.258622905176436"><ele>998.6</ele><time>2026-04-06T14:26:55Z</time></trkpt><trkpt lat="44.86115345648833" lon="4.258781050426393"><ele>999.3999999999999</ele><time>2026-04-06T14:26:56Z</time></trkpt><trkpt lat="44.861138271968436" lon="4.258906899140816"><ele>1000.1999999999999</ele><time>2026-04-06T14:26:57Z</time></trkpt><trkpt lat="44.86112330096883" lon="4.259012548530536"><ele>1001.0</ele><time>2026-04-06T14:26:58Z</time></trkpt><trkpt lat="44.861102803333786" lon="4.25917334127022"><ele>1008.0</ele><time>2026-04-06T14:27:00Z</time></trkpt><trkpt lat="44.8610970123638" lon="4.2592646570398545"><ele>1015.0</ele><time>2026-04-06T14:27:01Z</time></trkpt><trkpt lat="44.86146145141503" lon="4.259539375440446"><ele>1015.0</ele><time>2026-04-06T14:27:03Z</time></trkpt><trkpt lat="44.86152394490592" lon="4.259610318698564"><ele>1015.0</ele><time>2026-04-06T14:27:04Z</time></trkpt><trkpt lat="44.86164491135594" lon="4.259725719052711"><ele>1015.0</ele><time>2026-04-06T14:27:05Z</time></trkpt><trkpt lat="44.861753417276326" lon="4.259838088318592"><ele>1015.0</ele><time>2026-04-06T14:27:06Z</time></trkpt><trkpt lat="44.8619135347363" lon="4.259943290971426"><ele>1019.0</ele><time>2026-04-06T14:27:07Z</time></trkpt><trkpt lat="44.862009911903506" lon="4.2600184929889835"><ele>1023.0</ele><time>2026-04-06T14:27:08Z</time></trkpt><trkpt lat="44.862123283257176" lon="4.260113803862408"><ele>1027.0</ele><time>2026-04-06T14:27:09Z</time></trkpt><trkpt lat="44.86217498051166" lon="4.260202882548404"><ele>1031.0</ele><time>2026-04-06T14:27:10Z</time></trkpt><trkpt lat="44.862259379346945" lon="4.260341267611911"><ele>1031.0</ele><time>2026-04-06T14:27:12Z</time></trkpt><trkpt lat="44.86228679036017" lon="4.2604575363179675"><ele>1031.0</ele><time>2026-04-06T14:27:13Z</time></trkpt><trkpt lat="44.862312153111695" lon="4.260585027379952"><ele>1031.0</ele><time>2026-04-06T14:27:14Z</time></trkpt><trkpt lat="44.862317761309136" lon="4.260741048806588"><ele>1031.0</ele><time>2026-04-06T14:27:15Z</time></trkpt><trkpt lat="44.86233069373941" lon="4.260872745398167"><ele>1031.0</ele><time>2026-04-06T14:27:16Z</time></trkpt><trkpt lat="44.86233804620815" lon="4.260996944065348"><ele>1032.8333333333335</ele><time>2026-04-06T14:27:17Z</time></trkpt><trkpt lat="44.8623459307803" lon="4.2610908005487635"><ele>1034.6666666666667</ele><time>2026-04-06T14:27:18Z</time></trkpt><trkpt lat="44.86228248914216" lon="4.261190860638337"><ele>1036.5</ele><time>2026-04-06T14:27:19Z</time></trkpt><trkpt lat="44.862256168262476" lon="4.261306513126784"><ele>1038.3333333333333</ele><time>2026-04-06T14:27:20Z</time></trkpt><trkpt lat="44.862236720166806" lon="4.261431557680618"><ele>1040.1666666666665</ele><time>2026-04-06T14:27:21Z</time></trkpt><trkpt lat="44.86221599099339" lon="4.261574991418601"><ele>1042.0</ele><time>2026-04-06T14:27:22Z</time></trkpt><trkpt lat="44.862200264631156" lon="4.261702808218135"><ele>1042.0</ele><time>2026-04-06T14:27:23Z</time></trkpt><trkpt lat="44.862185466209816" lon="4.261795313048959"><ele>1042.0</ele><time>2026-04-06T14:27:24Z</time></trkpt><trkpt lat="44.86217259102485" lon="4.261892743368726"><ele>1042.0</ele><time>2026-04-06T14:27:24.999Z</time></trkpt><trkpt lat="44.86215269330072" lon="4.262071761812433"><ele>1042.0</ele><time>2026-04-06T14:27:26.999Z</time></trkpt><trkpt lat="44.862185116804156" lon="4.2622448136585"><ele>1042.0</ele><time>2026-04-06T14:27:28.999Z</time></trkpt><trkpt lat="44.86224123229711" lon="4.2623973628437035"><ele>1041.2</ele><time>2026-04-06T14:27:30.999Z</time></trkpt><trkpt lat="44.86230553237177" lon="4.262524155520323"><ele>1040.4</ele><time>2026-04-06T14:27:32.999Z</time></trkpt><trkpt lat="44.86241414757334" lon="4.262633236252768"><ele>1039.6</ele><time>2026-04-06T14:27:35Z</time></trkpt><trkpt lat="44.86250401096572" lon="4.262636861298097"><ele>1038.8</ele><time>2026-04-06T14:27:36Z</time></trkpt><trkpt lat="44.86257554238673" lon="4.262639999226603"><ele>1038.0</ele><time>2026-04-06T14:27:37Z</time></trkpt><trkpt lat="44.86265757398767" lon="4.262656388215426"><ele>1038.0</ele><time>2026-04-06T14:27:38Z</time></trkpt><trkpt lat="44.86273493802489" lon="4.262679227815446"><ele>1038.0</ele><time>2026-04-06T14:27:39Z</time></trkpt><trkpt lat="44.862815076490804" lon="4.2626952810798455"><ele>1038.0</ele><time>2026-04-06T14:27:40Z</time></trkpt><trkpt lat="44.86291829996507" lon="4.262696499120728"><ele>1038.0</ele><time>2026-04-06T14:27:41Z</time></trkpt><trkpt lat="44.86300295806372" lon="4.26270212651179"><ele>1038.0</ele><time>2026-04-06T14:27:42Z</time></trkpt><trkpt lat="44.86308864428795" lon="4.262755059741941"><ele>1038.0</ele><time>2026-04-06T14:27:43Z</time></trkpt><trkpt lat="44.86319032488271" lon="4.26282354386098"><ele>1038.0</ele><time>2026-04-06T14:27:45Z</time></trkpt><trkpt lat="44.86323212466419" lon="4.263037672382024"><ele>1038.0</ele><time>2026-04-06T14:27:47Z</time></trkpt><trkpt lat="44.86327910470305" lon="4.26316045956923"><ele>1038.0</ele><time>2026-04-06T14:27:48Z</time></trkpt><trkpt lat="44.8633272465536" lon="4.263290549207982"><ele>1038.0</ele><time>2026-04-06T14:27:49Z</time></trkpt><trkpt lat="44.86337311111009" lon="4.263416469079427"><ele>1036.4</ele><time>2026-04-06T14:27:50Z</time></trkpt><trkpt lat="44.863419202292526" lon="4.263537629742247"><ele>1034.8</ele><time>2026-04-06T14:27:51Z</time></trkpt><trkpt lat="44.8634619070844" lon="4.263670080268775"><ele>1033.2</ele><time>2026-04-06T14:27:52Z</time></trkpt><trkpt lat="44.86347596349664" lon="4.263813789113192"><ele>1031.6</ele><time>2026-04-06T14:27:53Z</time></trkpt><trkpt lat="44.86351651390606" lon="4.263949364410903"><ele>1030.0</ele><time>2026-04-06T14:27:54Z</time></trkpt><trkpt lat="44.863559600361356" lon="4.2641324029551155"><ele>1035.0</ele><time>2026-04-06T14:27:55Z</time></trkpt><trkpt lat="44.863602981381725" lon="4.2643117325127955"><ele>1040.0</ele><time>2026-04-06T14:27:56Z</time></trkpt><trkpt lat="44.86364568950088" lon="4.264485035532394"><ele>1045.0</ele><time>2026-04-06T14:27:57Z</time></trkpt><trkpt lat="44.86372377251979" lon="4.2646422908774575"><ele>1050.0</ele><time>2026-04-06T14:27:58Z</time></trkpt><trkpt lat="44.86379528350284" lon="4.2648047909430185"><ele>1050.0</ele><time>2026-04-06T14:27:59Z</time></trkpt><trkpt lat="44.863828085854394" lon="4.264903167995244"><ele>1050.0</ele><time>2026-04-06T14:28:00Z</time></trkpt><trkpt lat="44.86386069039662" lon="4.26504756007477"><ele>1050.0</ele><time>2026-04-06T14:28:01Z</time></trkpt><trkpt lat="44.863925484621696" lon="4.265171534024474"><ele>1050.0</ele><time>2026-04-06T14:28:02Z</time></trkpt><trkpt lat="44.86397461456877" lon="4.265263438734506"><ele>1050.0</ele><time>2026-04-06T14:28:03Z</time></trkpt><trkpt lat="44.86403746625609" lon="4.265323382013018"><ele>1050.0</ele><time>2026-04-06T14:28:04Z</time></trkpt><trkpt lat="44.86408435350306" lon="4.265416010840089"><ele>1050.0</ele><time>2026-04-06T14:28:05Z</time></trkpt><trkpt lat="44.8641208865015" lon="4.265506904041506"><ele>1050.0</ele><time>2026-04-06T14:28:06Z</time></trkpt><trkpt lat="44.86419333166013" lon="4.265596466766125"><ele>1050.0</ele><time>2026-04-06T14:28:07Z</time></trkpt><trkpt lat="44.86422883296631" lon="4.265687714503271"><ele>1050.0</ele><time>2026-04-06T14:28:08Z</time></trkpt><trkpt lat="44.864293822541754" lon="4.265732926077769"><ele>1050.0</ele><time>2026-04-06T14:28:09Z</time></trkpt><trkpt lat="44.864382852570124" lon="4.265893423206399"><ele>1054.0</ele><time>2026-04-06T14:28:11Z</time></trkpt><trkpt lat="44.86444790125013" lon="4.265981927180167"><ele>1058.0</ele><time>2026-04-06T14:28:12Z</time></trkpt><trkpt lat="44.86450343997839" lon="4.266074634171366"><ele>1062.0</ele><time>2026-04-06T14:28:13Z</time></trkpt><trkpt lat="44.86456831242912" lon="4.2661595428296115"><ele>1066.0</ele><time>2026-04-06T14:28:14Z</time></trkpt><trkpt lat="44.864627250756676" lon="4.266253803130874"><ele>1070.0</ele><time>2026-04-06T14:28:15Z</time></trkpt><trkpt lat="44.86467155564988" lon="4.266347627757486"><ele>1074.0</ele><time>2026-04-06T14:28:16Z</time></trkpt><trkpt lat="44.864692245141946" lon="4.266461030171429"><ele>1074.1666666666667</ele><time>2026-04-06T14:28:17Z</time></trkpt><trkpt lat="44.864724731776775" lon="4.266553567600675"><ele>1074.3333333333333</ele><time>2026-04-06T14:28:18Z</time></trkpt><trkpt lat="44.864723944406876" lon="4.266655563366275"><ele>1074.5</ele><time>2026-04-06T14:28:19Z</time></trkpt><trkpt lat="44.86473643037098" lon="4.266757695208041"><ele>1074.6666666666665</ele><time>2026-04-06T14:28:20Z</time></trkpt><trkpt lat="44.86475759364442" lon="4.266866835615695"><ele>1074.8333333333333</ele><time>2026-04-06T14:28:21Z</time></trkpt><trkpt lat="44.864751187781536" lon="4.26699821469077"><ele>1075.0</ele><time>2026-04-06T14:28:22Z</time></trkpt><trkpt lat="44.86474040145406" lon="4.267123429543472"><ele>1075.0</ele><time>2026-04-06T14:28:23Z</time></trkpt><trkpt lat="44.864731838766815" lon="4.267251690250787"><ele>1075.0</ele><time>2026-04-06T14:28:24Z</time></trkpt><trkpt lat="44.86471362471089" lon="4.267384361989457"><ele>1075.0</ele><time>2026-04-06T14:28:25Z</time></trkpt><trkpt lat="44.86470080921886" lon="4.267527895541177"><ele>1075.0</ele><time>2026-04-06T14:28:26Z</time></trkpt><trkpt lat="44.86467441474137" lon="4.267661741310707"><ele>1075.0</ele><time>2026-04-06T14:28:27Z</time></trkpt><trkpt lat="44.864660513842196" lon="4.267780970785685"><ele>1076.0</ele><time>2026-04-06T14:28:28Z</time></trkpt><trkpt lat="44.864649392231186" lon="4.267901248377987"><ele>1077.0</ele><time>2026-04-06T14:28:29Z</time></trkpt><trkpt lat="44.86468017116578" lon="4.268005924753427"><ele>1078.0</ele><time>2026-04-06T14:28:30Z</time></trkpt><trkpt lat="44.86469726648221" lon="4.268103556610864"><ele>1079.0</ele><time>2026-04-06T14:28:31Z</time></trkpt><trkpt lat="44.864716885962366" lon="4.268216577442398"><ele>1080.0</ele><time>2026-04-06T14:28:32Z</time></trkpt><trkpt lat="44.86473363454351" lon="4.268312259289974"><ele>1081.0</ele><time>2026-04-06T14:28:33Z</time></trkpt><trkpt lat="44.86478917012528" lon="4.268253497836842"><ele>1081.0</ele><time>2026-04-06T14:29:00Z</time></trkpt><trkpt lat="44.86479767242366" lon="4.268142634661059"><ele>1081.0</ele><time>2026-04-06T14:29:10Z</time></trkpt><trkpt lat="44.86475757639743" lon="4.267995673648697"><ele>1081.0</ele><time>2026-04-06T14:29:12Z</time></trkpt><trkpt lat="44.86474278441975" lon="4.267874119310566"><ele>1081.0</ele><time>2026-04-06T14:29:13Z</time></trkpt><trkpt lat="44.86471966719829" lon="4.267776189902622"><ele>1081.0</ele><time>2026-04-06T14:29:14Z</time></trkpt><trkpt lat="44.864693845177484" lon="4.2676934038494245"><ele>1081.0</ele><time>2026-04-06T14:29:15Z</time></trkpt><trkpt lat="44.86468785738778" lon="4.2675395475130244"><ele>1081.0</ele><time>2026-04-06T14:29:17Z</time></trkpt><trkpt lat="44.86469988300336" lon="4.267386113096551"><ele>1081.0</ele><time>2026-04-06T14:29:19Z</time></trkpt><trkpt lat="44.864717247184416" lon="4.267237611258274"><ele>1081.0</ele><time>2026-04-06T14:29:21Z</time></trkpt><trkpt lat="44.86472759850707" lon="4.2670781294525355"><ele>1081.0</ele><time>2026-04-06T14:29:23Z</time></trkpt><trkpt lat="44.86475235427939" lon="4.266966421412258"><ele>1081.0</ele><time>2026-04-06T14:29:24Z</time></trkpt><trkpt lat="44.86474160171963" lon="4.266848703025676"><ele>1080.0</ele><time>2026-04-06T14:29:25Z</time></trkpt><trkpt lat="44.86473242818657" lon="4.266739693085558"><ele>1079.0</ele><time>2026-04-06T14:29:26Z</time></trkpt><trkpt lat="44.864733066151864" lon="4.266628129812833"><ele>1078.0</ele><time>2026-04-06T14:29:27Z</time></trkpt><trkpt lat="44.86472195256609" lon="4.266524700976301"><ele>1077.0</ele><time>2026-04-06T14:29:27.999Z</time></trkpt><trkpt lat="44.86472602869923" lon="4.266434051851857"><ele>1076.0</ele><time>2026-04-06T14:29:28.999Z</time></trkpt><trkpt lat="44.864703898597874" lon="4.266291164876091"><ele>1075.0</ele><time>2026-04-06T14:29:30.999Z</time></trkpt><trkpt lat="44.864676905800096" lon="4.266102475009656"><ele>1074.8333333333333</ele><time>2026-04-06T14:29:32.999Z</time></trkpt><trkpt lat="44.86464132357483" lon="4.266009027771196"><ele>1074.6666666666665</ele><time>2026-04-06T14:29:33.999Z</time></trkpt><trkpt lat="44.864590182499754" lon="4.26585978139965"><ele>1074.5</ele><time>2026-04-06T14:29:35.999Z</time></trkpt><trkpt lat="44.86454094358693" lon="4.2657941375419055"><ele>1074.3333333333333</ele><time>2026-04-06T14:29:36.999Z</time></trkpt><trkpt lat="44.864500726295184" lon="4.265724341236056"><ele>1074.1666666666667</ele><time>2026-04-06T14:29:37.999Z</time></trkpt><trkpt lat="44.86445120564106" lon="4.265664688498198"><ele>1074.0</ele><time>2026-04-06T14:29:38.999Z</time></trkpt><trkpt lat="44.86438934617346" lon="4.2655997190743555"><ele>1074.8</ele><time>2026-04-06T14:29:40Z</time></trkpt><trkpt lat="44.86433441066408" lon="4.265548792898496"><ele>1075.6000000000001</ele><time>2026-04-06T14:29:41Z</time></trkpt><trkpt lat="44.86425785679873" lon="4.265448162049099"><ele>1076.4</ele><time>2026-04-06T14:29:43Z</time></trkpt><trkpt lat="44.86420487974043" lon="4.265373276331433"><ele>1077.2</ele><time>2026-04-06T14:29:45Z</time></trkpt><trkpt lat="44.8641196682373" lon="4.265282754878667"><ele>1078.0</ele><time>2026-04-06T14:29:47Z</time></trkpt><trkpt lat="44.86402112554926" lon="4.265178597312131"><ele>1075.2</ele><time>2026-04-06T14:29:49Z</time></trkpt><trkpt lat="44.863960326376514" lon="4.265065614967633"><ele>1072.4</ele><time>2026-04-06T14:29:51Z</time></trkpt><trkpt lat="44.8639545167206" lon="4.264949290012232"><ele>1069.6000000000001</ele><time>2026-04-06T14:29:53Z</time></trkpt><trkpt lat="44.863894481926465" lon="4.264803853371623"><ele>1066.8</ele><time>2026-04-06T14:29:55Z</time></trkpt><trkpt lat="44.86386414723209" lon="4.264713177873081"><ele>1064.0</ele><time>2026-04-06T14:29:56Z</time></trkpt><trkpt lat="44.863848854083265" lon="4.264596653386339"><ele>1064.0</ele><time>2026-04-06T14:29:57Z</time></trkpt><trkpt lat="44.86382511206261" lon="4.264502079577717"><ele>1064.0</ele><time>2026-04-06T14:29:58Z</time></trkpt><trkpt lat="44.863770878233154" lon="4.264426315764751"><ele>1064.0</ele><time>2026-04-06T14:29:59Z</time></trkpt><trkpt lat="44.86373624963239" lon="4.2643401182787715"><ele>1064.0</ele><time>2026-04-06T14:30:00Z</time></trkpt><trkpt lat="44.86370960707788" lon="4.264243550660285"><ele>1064.0</ele><time>2026-04-06T14:30:01Z</time></trkpt><trkpt lat="44.86367763076417" lon="4.264157594823721"><ele>1064.0</ele><time>2026-04-06T14:30:02Z</time></trkpt><trkpt lat="44.86364547427506" lon="4.264050052702879"><ele>1064.0</ele><time>2026-04-06T14:30:03Z</time></trkpt><trkpt lat="44.863599387541214" lon="4.263942480653727"><ele>1063.5</ele><time>2026-04-06T14:30:04Z</time></trkpt><trkpt lat="44.86357416142377" lon="4.263845594592416"><ele>1063.0</ele><time>2026-04-06T14:30:05Z</time></trkpt><trkpt lat="44.863538719469865" lon="4.263732915780991"><ele>1062.5</ele><time>2026-04-06T14:30:06Z</time></trkpt><trkpt lat="44.863521761078886" lon="4.263596165537772"><ele>1062.0</ele><time>2026-04-06T14:30:07Z</time></trkpt><trkpt lat="44.86347794590259" lon="4.263467275356197"><ele>1061.5</ele><time>2026-04-06T14:30:08Z</time></trkpt><trkpt lat="44.8634458035568" lon="4.263374361822244"><ele>1061.0</ele><time>2026-04-06T14:30:09Z</time></trkpt><trkpt lat="44.86339589518207" lon="4.263260126502122"><ele>1056.3999999999999</ele><time>2026-04-06T14:30:10Z</time></trkpt><trkpt lat="44.86338750383348" lon="4.26312536576499"><ele>1051.8</ele><time>2026-04-06T14:30:11Z</time></trkpt><trkpt lat="44.86335372714922" lon="4.263027629104661"><ele>1047.1999999999998</ele><time>2026-04-06T14:30:12Z</time></trkpt><trkpt lat="44.863293739960426" lon="4.262932593018122"><ele>1042.6</ele><time>2026-04-06T14:30:13Z</time></trkpt><trkpt lat="44.86325719487194" lon="4.262823122295225"><ele>1038.0</ele><time>2026-04-06T14:30:14Z</time></trkpt><trkpt lat="44.86321578730196" lon="4.262678127569795"><ele>1038.0</ele><time>2026-04-06T14:30:16Z</time></trkpt><trkpt lat="44.86313046012084" lon="4.26266798969463"><ele>1038.0</ele><time>2026-04-06T14:30:17Z</time></trkpt><trkpt lat="44.86305751244876" lon="4.262614133341749"><ele>1038.0</ele><time>2026-04-06T14:30:18Z</time></trkpt><trkpt lat="44.86290469813094" lon="4.262577409562967"><ele>1038.0</ele><time>2026-04-06T14:30:20Z</time></trkpt><trkpt lat="44.86281874601588" lon="4.262535922638702"><ele>1038.0</ele><time>2026-04-06T14:30:21Z</time></trkpt><trkpt lat="44.8627497420195" lon="4.262511015127002"><ele>1038.0</ele><time>2026-04-06T14:30:22Z</time></trkpt><trkpt lat="44.86263377246718" lon="4.26250462311018"><ele>1038.0</ele><time>2026-04-06T14:30:23Z</time></trkpt><trkpt lat="44.86244036528888" lon="4.262483642675241"><ele>1038.0</ele><time>2026-04-06T14:30:25Z</time></trkpt><trkpt lat="44.86236789328721" lon="4.262506516870303"><ele>1038.0</ele><time>2026-04-06T14:30:27Z</time></trkpt><trkpt lat="44.86245560714065" lon="4.262513708770182"><ele>1036.0</ele><time>2026-04-06T14:30:28Z</time></trkpt><trkpt lat="44.86239325288958" lon="4.262538349470055"><ele>1034.0</ele><time>2026-04-06T14:30:31Z</time></trkpt><trkpt lat="44.86229358757062" lon="4.262511414942109"><ele>1032.0</ele><time>2026-04-06T14:30:33Z</time></trkpt><trkpt lat="44.86220228624195" lon="4.262471421918612"><ele>1030.0</ele><time>2026-04-06T14:30:35Z</time></trkpt><trkpt lat="44.862128721095814" lon="4.262451640238457"><ele>1028.0</ele><time>2026-04-06T14:30:37Z</time></trkpt><trkpt lat="44.86206168120336" lon="4.262430644199325"><ele>1026.0</ele><time>2026-04-06T14:30:39Z</time></trkpt><trkpt lat="44.861971563412915" lon="4.262421661232139"><ele>1026.0</ele><time>2026-04-06T14:30:41Z</time></trkpt><trkpt lat="44.861889271194265" lon="4.2624589644023185"><ele>1026.0</ele><time>2026-04-06T14:30:43Z</time></trkpt><trkpt lat="44.86178432537457" lon="4.262515971174079"><ele>1026.0</ele><time>2026-04-06T14:30:45Z</time></trkpt><trkpt lat="44.86168634451052" lon="4.262567472051622"><ele>1026.0</ele><time>2026-04-06T14:30:47Z</time></trkpt><trkpt lat="44.86162050863055" lon="4.262658413951649"><ele>1026.0</ele><time>2026-04-06T14:30:49Z</time></trkpt><trkpt lat="44.86156501954577" lon="4.26277706774827"><ele>1023.1666666666666</ele><time>2026-04-06T14:30:51Z</time></trkpt><trkpt lat="44.86153446914631" lon="4.262869453049244"><ele>1020.3333333333333</ele><time>2026-04-06T14:30:53Z</time></trkpt><trkpt lat="44.861479299268936" lon="4.2629349165551345"><ele>1017.5</ele><time>2026-04-06T14:30:55Z</time></trkpt><trkpt lat="44.861512444125495" lon="4.263019066844377"><ele>1014.6666666666666</ele><time>2026-04-06T14:31:04Z</time></trkpt><trkpt lat="44.861585621608064" lon="4.263013735920718"><ele>1011.8333333333333</ele><time>2026-04-06T14:31:07Z</time></trkpt><trkpt lat="44.86158601349478" lon="4.263122247341776"><ele>1009.0</ele><time>2026-04-06T14:31:13Z</time></trkpt><trkpt lat="44.861545398719215" lon="4.263250567941485"><ele>1006.8000000000001</ele><time>2026-04-06T14:31:18Z</time></trkpt><trkpt lat="44.86149524826803" lon="4.263340943567248"><ele>1004.6000000000001</ele><time>2026-04-06T14:31:20Z</time></trkpt><trkpt lat="44.86142338616957" lon="4.263453226235768"><ele>1002.4</ele><time>2026-04-06T14:31:22Z</time></trkpt><trkpt lat="44.86132399255756" lon="4.263480838525143"><ele>1000.2</ele><time>2026-04-06T14:31:24.999Z</time></trkpt><trkpt lat="44.86132222213097" lon="4.26357395308797"><ele>998.0</ele><time>2026-04-06T14:31:26.999Z</time></trkpt><trkpt lat="44.86141142927025" lon="4.263629837746067"><ele>998.0</ele><time>2026-04-06T14:31:28.999Z</time></trkpt><trkpt lat="44.86147948912179" lon="4.263628300475024"><ele>998.0</ele><time>2026-04-06T14:31:29.999Z</time></trkpt><trkpt lat="44.86155869055924" lon="4.2636272697818365"><ele>998.0</ele><time>2026-04-06T14:31:30.999Z</time></trkpt><trkpt lat="44.86165222070813" lon="4.263619662673061"><ele>998.0</ele><time>2026-04-06T14:31:31.999Z</time></trkpt><trkpt lat="44.86176437676538" lon="4.263697265870727"><ele>998.0</ele><time>2026-04-06T14:31:33.999Z</time></trkpt><trkpt lat="44.861880127658615" lon="4.26372554115265"><ele>999.4</ele><time>2026-04-06T14:31:35.999Z</time></trkpt><trkpt lat="44.86197346141798" lon="4.263834728115207"><ele>1000.8</ele><time>2026-04-06T14:31:37.999Z</time></trkpt><trkpt lat="44.86207665065058" lon="4.263980737391492"><ele>1002.2</ele><time>2026-04-06T14:31:39.999Z</time></trkpt><trkpt lat="44.862139419626814" lon="4.264041540159127"><ele>1003.6</ele><time>2026-04-06T14:31:40.999Z</time></trkpt><trkpt lat="44.86219543326651" lon="4.264099737863877"><ele>1005.0</ele><time>2026-04-06T14:31:41.999Z</time></trkpt><trkpt lat="44.862286646799014" lon="4.264206395181611"><ele>1002.0</ele><time>2026-04-06T14:31:43.999Z</time></trkpt><trkpt lat="44.86240077868768" lon="4.264286738423212"><ele>999.0</ele><time>2026-04-06T14:31:46Z</time></trkpt><trkpt lat="44.862480082005725" lon="4.264350969560168"><ele>996.0</ele><time>2026-04-06T14:31:47Z</time></trkpt><trkpt lat="44.86254630839692" lon="4.264400053223275"><ele>993.0</ele><time>2026-04-06T14:31:48Z</time></trkpt><trkpt lat="44.86261659986318" lon="4.264459902393392"><ele>990.0</ele><time>2026-04-06T14:31:49Z</time></trkpt><trkpt lat="44.86266454855713" lon="4.264533115145196"><ele>987.0</ele><time>2026-04-06T14:31:50Z</time></trkpt><trkpt lat="44.86275283156285" lon="4.264726016010033"><ele>992.4000000000001</ele><time>2026-04-06T14:31:52Z</time></trkpt><trkpt lat="44.86280666476032" lon="4.264835784735673"><ele>997.8000000000001</ele><time>2026-04-06T14:31:53Z</time></trkpt><trkpt lat="44.86286559214705" lon="4.2649423527459875"><ele>1003.2</ele><time>2026-04-06T14:31:54Z</time></trkpt><trkpt lat="44.8629450489036" lon="4.2650500550006845"><ele>1008.6</ele><time>2026-04-06T14:31:55Z</time></trkpt><trkpt lat="44.86301928180241" lon="4.265152647453227"><ele>1014.0</ele><time>2026-04-06T14:31:56Z</time></trkpt><trkpt lat="44.86308361620446" lon="4.265319759373993"><ele>1014.0</ele><time>2026-04-06T14:31:58Z</time></trkpt><trkpt lat="44.863190548801356" lon="4.265389038326374"><ele>1014.0000000000001</ele><time>2026-04-06T14:31:59Z</time></trkpt><trkpt lat="44.86326452228088" lon="4.265499560207372"><ele>1014.0000000000001</ele><time>2026-04-06T14:32:00Z</time></trkpt><trkpt lat="44.86333298216374" lon="4.265586479095444"><ele>1014.0</ele><time>2026-04-06T14:32:01Z</time></trkpt><trkpt lat="44.86339994106069" lon="4.265669694159026"><ele>1014.0</ele><time>2026-04-06T14:32:02Z</time></trkpt><trkpt lat="44.86346304955676" lon="4.265752351308414"><ele>1017.8000000000001</ele><time>2026-04-06T14:32:03Z</time></trkpt><trkpt lat="44.86352191266487" lon="4.2658339394180365"><ele>1021.6000000000001</ele><time>2026-04-06T14:32:04Z</time></trkpt><trkpt lat="44.863561855895895" lon="4.265910596432361"><ele>1025.4</ele><time>2026-04-06T14:32:05Z</time></trkpt><trkpt lat="44.863625981842844" lon="4.266025525462171"><ele>1029.2</ele><time>2026-04-06T14:32:07Z</time></trkpt><trkpt lat="44.8637131189643" lon="4.266050125442734"><ele>1033.0</ele><time>2026-04-06T14:32:09Z</time></trkpt><trkpt lat="44.8637849523323" lon="4.2662200876337675"><ele>1033.0</ele><time>2026-04-06T14:32:11Z</time></trkpt><trkpt lat="44.86384996951371" lon="4.2663145837956105"><ele>1033.0</ele><time>2026-04-06T14:32:12Z</time></trkpt><trkpt lat="44.863888513045836" lon="4.266419536292523"><ele>1033.0</ele><time>2026-04-06T14:32:13Z</time></trkpt><trkpt lat="44.86391021211586" lon="4.2665276906789105"><ele>1033.0</ele><time>2026-04-06T14:32:14Z</time></trkpt><trkpt lat="44.863908698181945" lon="4.266689678578418"><ele>1033.0</ele><time>2026-04-06T14:32:15Z</time></trkpt><trkpt lat="44.86388870622878" lon="4.266838066640333"><ele>1033.4</ele><time>2026-04-06T14:32:16Z</time></trkpt><trkpt lat="44.86387737772059" lon="4.2669968351273635"><ele>1033.8</ele><time>2026-04-06T14:32:17Z</time></trkpt><trkpt lat="44.863723496653414" lon="4.267150929359645"><ele>1034.2</ele><time>2026-04-06T14:32:18Z</time></trkpt><trkpt lat="44.86371772048666" lon="4.26724864442838"><ele>1034.6</ele><time>2026-04-06T14:32:19Z</time></trkpt><trkpt lat="44.86370999549413" lon="4.267347799190253"><ele>1035.0</ele><time>2026-04-06T14:32:20Z</time></trkpt><trkpt lat="44.86370897836304" lon="4.267443330175747"><ele>1035.0</ele><time>2026-04-06T14:32:21Z</time></trkpt><trkpt lat="44.863728076833276" lon="4.267615207658498"><ele>1035.0</ele><time>2026-04-06T14:32:23Z</time></trkpt><trkpt lat="44.86375015317985" lon="4.26772574071937"><ele>1035.0</ele><time>2026-04-06T14:32:24Z</time></trkpt><trkpt lat="44.86378857967355" lon="4.267831430013312"><ele>1035.0</ele><time>2026-04-06T14:32:25Z</time></trkpt><trkpt lat="44.86381921854459" lon="4.267947334008465"><ele>1035.0</ele><time>2026-04-06T14:32:26Z</time></trkpt><trkpt lat="44.86385335816382" lon="4.268057592920927"><ele>1037.0</ele><time>2026-04-06T14:32:27Z</time></trkpt><trkpt lat="44.86389777332518" lon="4.268165267095107"><ele>1039.0</ele><time>2026-04-06T14:32:28Z</time></trkpt><trkpt lat="44.86394139803838" lon="4.268266041585872"><ele>1041.0</ele><time>2026-04-06T14:32:29Z</time></trkpt><trkpt lat="44.86394094396686" lon="4.268435305291143"><ele>1043.0</ele><time>2026-04-06T14:32:31Z</time></trkpt><trkpt lat="44.863881432952354" lon="4.268565634127967"><ele>1045.0</ele><time>2026-04-06T14:32:33Z</time></trkpt><trkpt lat="44.86379119796133" lon="4.268625618439837"><ele>1045.0</ele><time>2026-04-06T14:32:34Z</time></trkpt><trkpt lat="44.86370784238175" lon="4.268706465782658"><ele>1045.0</ele><time>2026-04-06T14:32:35Z</time></trkpt><trkpt lat="44.86363193405082" lon="4.2687783757011575"><ele>1045.0</ele><time>2026-04-06T14:32:36Z</time></trkpt><trkpt lat="44.86351677823629" lon="4.268831649130074"><ele>1045.0</ele><time>2026-04-06T14:32:37Z</time></trkpt><trkpt lat="44.863418469577624" lon="4.268878508218943"><ele>1045.0</ele><time>2026-04-06T14:32:38Z</time></trkpt><trkpt lat="44.863335512309106" lon="4.268945779935859"><ele>1042.0</ele><time>2026-04-06T14:32:39Z</time></trkpt><trkpt lat="44.86324993102154" lon="4.26902494748219"><ele>1039.0</ele><time>2026-04-06T14:32:40Z</time></trkpt><trkpt lat="44.86316736070967" lon="4.269110849528944"><ele>1036.0</ele><time>2026-04-06T14:32:41Z</time></trkpt><trkpt lat="44.86308046511363" lon="4.269180410965742"><ele>1033.0</ele><time>2026-04-06T14:32:42Z</time></trkpt><trkpt lat="44.863026028761354" lon="4.269280640630172"><ele>1030.0</ele><time>2026-04-06T14:32:43Z</time></trkpt><trkpt lat="44.862970816439756" lon="4.269359779350511"><ele>1030.0</ele><time>2026-04-06T14:32:44Z</time></trkpt><trkpt lat="44.862901883627565" lon="4.2694790150477875"><ele>1030.0</ele><time>2026-04-06T14:32:45Z</time></trkpt><trkpt lat="44.86284807601187" lon="4.269613034664757"><ele>1030.0</ele><time>2026-04-06T14:32:46Z</time></trkpt><trkpt lat="44.86277103136739" lon="4.269745533774913"><ele>1030.0</ele><time>2026-04-06T14:32:47Z</time></trkpt><trkpt lat="44.86270740866061" lon="4.269865470910875"><ele>1030.0</ele><time>2026-04-06T14:32:48Z</time></trkpt><trkpt lat="44.86266391304209" lon="4.269968638916956"><ele>1034.75</ele><time>2026-04-06T14:32:49Z</time></trkpt><trkpt lat="44.86262013741344" lon="4.270115616775872"><ele>1039.5</ele><time>2026-04-06T14:32:50Z</time></trkpt><trkpt lat="44.86260837791295" lon="4.270212491897461"><ele>1044.25</ele><time>2026-04-06T14:32:51Z</time></trkpt><trkpt lat="44.86262299879097" lon="4.2704257447701455"><ele>1049.0</ele><time>2026-04-06T14:32:52Z</time></trkpt><trkpt lat="44.86265018478975" lon="4.270585357442591"><ele>1047.0</ele><time>2026-04-06T14:32:53Z</time></trkpt><trkpt lat="44.862672655853025" lon="4.270733478642829"><ele>1045.0</ele><time>2026-04-06T14:32:54Z</time></trkpt><trkpt lat="44.86271763944318" lon="4.270890100024596"><ele>1043.0</ele><time>2026-04-06T14:32:55Z</time></trkpt><trkpt lat="44.862772776792156" lon="4.271060387432613"><ele>1041.0</ele><time>2026-04-06T14:32:56Z</time></trkpt><trkpt lat="44.8628217894739" lon="4.271201545981316"><ele>1041.0</ele><time>2026-04-06T14:32:57Z</time></trkpt><trkpt lat="44.862879206389486" lon="4.271316340675775"><ele>1041.0</ele><time>2026-04-06T14:32:58Z</time></trkpt><trkpt lat="44.862953540731716" lon="4.271440271719005"><ele>1041.0</ele><time>2026-04-06T14:32:59Z</time></trkpt><trkpt lat="44.86310673106271" lon="4.271463391989911"><ele>1041.0</ele><time>2026-04-06T14:33:00Z</time></trkpt><trkpt lat="44.86321512511898" lon="4.271589281452535"><ele>1036.6</ele><time>2026-04-06T14:33:01Z</time></trkpt><trkpt lat="44.86334001074586" lon="4.2716960954355825"><ele>1032.1999999999998</ele><time>2026-04-06T14:33:02Z</time></trkpt><trkpt lat="44.863418870641574" lon="4.271784023046053"><ele>1027.8000000000002</ele><time>2026-04-06T14:33:03Z</time></trkpt><trkpt lat="44.86350665658084" lon="4.271814311350385"><ele>1023.4000000000001</ele><time>2026-04-06T14:33:04Z</time></trkpt><trkpt lat="44.863609463356944" lon="4.271813099803977"><ele>1019.0</ele><time>2026-04-06T14:33:05Z</time></trkpt><trkpt lat="44.863721938823254" lon="4.271819244883616"><ele>1019.0</ele><time>2026-04-06T14:33:06Z</time></trkpt><trkpt lat="44.86388024141988" lon="4.271716148090378"><ele>1019.0</ele><time>2026-04-06T14:33:07Z</time></trkpt><trkpt lat="44.86398777734159" lon="4.27167353341875"><ele>1019.0</ele><time>2026-04-06T14:33:08Z</time></trkpt><trkpt lat="44.86409465277412" lon="4.271623234179805"><ele>1019.0</ele><time>2026-04-06T14:33:09Z</time></trkpt><trkpt lat="44.86420259132959" lon="4.2715757791948965"><ele>1016.6</ele><time>2026-04-06T14:33:10Z</time></trkpt><trkpt lat="44.864310705024025" lon="4.2715129324927545"><ele>1014.2</ele><time>2026-04-06T14:33:11Z</time></trkpt><trkpt lat="44.864412921343245" lon="4.271400068124374"><ele>1011.8000000000001</ele><time>2026-04-06T14:33:12Z</time></trkpt><trkpt lat="44.86450283000766" lon="4.271311259477148"><ele>1009.4000000000001</ele><time>2026-04-06T14:33:13Z</time></trkpt><trkpt lat="44.8645854591016" lon="4.271266464506919"><ele>1007.0</ele><time>2026-04-06T14:33:14Z</time></trkpt><trkpt lat="44.864686873666635" lon="4.271262574293916"><ele>1010.0</ele><time>2026-04-06T14:33:15Z</time></trkpt><trkpt lat="44.864784958157855" lon="4.271272072949578"><ele>1013.0</ele><time>2026-04-06T14:33:16Z</time></trkpt><trkpt lat="44.86486342027235" lon="4.271222679523506"><ele>1016.0</ele><time>2026-04-06T14:33:17Z</time></trkpt><trkpt lat="44.86496653975451" lon="4.271162111301968"><ele>1019.0</ele><time>2026-04-06T14:33:18Z</time></trkpt><trkpt lat="44.8650868119918" lon="4.271104719289187"><ele>1022.0</ele><time>2026-04-06T14:33:19Z</time></trkpt><trkpt lat="44.865236460626114" lon="4.270995933657481"><ele>1022.0</ele><time>2026-04-06T14:33:20Z</time></trkpt><trkpt lat="44.865381214823515" lon="4.27089127535913"><ele>1022.0</ele><time>2026-04-06T14:33:21Z</time></trkpt><trkpt lat="44.86549315115889" lon="4.270817646220387"><ele>1022.0</ele><time>2026-04-06T14:33:22Z</time></trkpt><trkpt lat="44.86561044181835" lon="4.270755640592295"><ele>1022.0</ele><time>2026-04-06T14:33:23Z</time></trkpt><trkpt lat="44.865721893057845" lon="4.270680797538354"><ele>1026.5</ele><time>2026-04-06T14:33:23.999Z</time></trkpt><trkpt lat="44.8658389150517" lon="4.270582350877623"><ele>1031.0</ele><time>2026-04-06T14:33:24.999Z</time></trkpt><trkpt lat="44.865954414067545" lon="4.270482519191897"><ele>1035.5</ele><time>2026-04-06T14:33:25.999Z</time></trkpt><trkpt lat="44.86606674451212" lon="4.270390690680429"><ele>1040.0</ele><time>2026-04-06T14:33:26.999Z</time></trkpt><trkpt lat="44.866183921696106" lon="4.270309187680347"><ele>1040.0</ele><time>2026-04-06T14:33:27.999Z</time></trkpt><trkpt lat="44.86629624049445" lon="4.270206938313795"><ele>1040.0</ele><time>2026-04-06T14:33:28.999Z</time></trkpt><trkpt lat="44.86639705223686" lon="4.270103654005349"><ele>1040.0</ele><time>2026-04-06T14:33:29.999Z</time></trkpt><trkpt lat="44.86649878355404" lon="4.2700257361593605"><ele>1040.0</ele><time>2026-04-06T14:33:30.999Z</time></trkpt><trkpt lat="44.86660991161724" lon="4.269975812919162"><ele>1040.0</ele><time>2026-04-06T14:33:31.999Z</time></trkpt><trkpt lat="44.86670749408211" lon="4.269947814109331"><ele>1040.0</ele><time>2026-04-06T14:33:32.999Z</time></trkpt><trkpt lat="44.86678555143558" lon="4.2698974375812275"><ele>1040.0</ele><time>2026-04-06T14:33:33.999Z</time></trkpt><trkpt lat="44.86684936096714" lon="4.269843659668533"><ele>1040.0</ele><time>2026-04-06T14:33:34.999Z</time></trkpt><trkpt lat="44.866939445084064" lon="4.269785208775509"><ele>1040.0</ele><time>2026-04-06T14:33:36.999Z</time></trkpt><trkpt lat="44.867041787470534" lon="4.2698336663336205"><ele>1039.6</ele><time>2026-04-06T14:33:38.999Z</time></trkpt><trkpt lat="44.867144824502006" lon="4.269948312126596"><ele>1039.2</ele><time>2026-04-06T14:33:40.999Z</time></trkpt><trkpt lat="44.86717032664714" lon="4.270049577621604"><ele>1038.8</ele><time>2026-04-06T14:33:41.999Z</time></trkpt><trkpt lat="44.86721852187308" lon="4.270117887629857"><ele>1038.4</ele><time>2026-04-06T14:33:42.999Z</time></trkpt><trkpt lat="44.86726482116782" lon="4.270222155112704"><ele>1038.0</ele><time>2026-04-06T14:33:43.999Z</time></trkpt><trkpt lat="44.86732310449471" lon="4.270316417850601"><ele>1038.0</ele><time>2026-04-06T14:33:44.999Z</time></trkpt><trkpt lat="44.86737258427245" lon="4.270414693632022"><ele>1038.0</ele><time>2026-04-06T14:33:45.999Z</time></trkpt><trkpt lat="44.86740331687617" lon="4.270508372231746"><ele>1038.0</ele><time>2026-04-06T14:33:46.999Z</time></trkpt><trkpt lat="44.86743794246808" lon="4.270632322101925"><ele>1038.0</ele><time>2026-04-06T14:33:47.999Z</time></trkpt><trkpt lat="44.86747997885098" lon="4.270777968630485"><ele>1038.0</ele><time>2026-04-06T14:33:48.999Z</time></trkpt><trkpt lat="44.86750794929909" lon="4.270950160129702"><ele>1035.4</ele><time>2026-04-06T14:33:49.999Z</time></trkpt><trkpt lat="44.86755131753607" lon="4.271110714662861"><ele>1032.8</ele><time>2026-04-06T14:33:50.999Z</time></trkpt><trkpt lat="44.86766957113557" lon="4.27121967484848"><ele>1030.2</ele><time>2026-04-06T14:33:53Z</time></trkpt><trkpt lat="44.86774719406774" lon="4.271274485024423"><ele>1027.6</ele><time>2026-04-06T14:33:54Z</time></trkpt><trkpt lat="44.86783485737338" lon="4.271341231363947"><ele>1025.0</ele><time>2026-04-06T14:33:55Z</time></trkpt><trkpt lat="44.867914918370055" lon="4.271407334781145"><ele>1019.75</ele><time>2026-04-06T14:33:56Z</time></trkpt><trkpt lat="44.86804158754727" lon="4.271500887640498"><ele>1014.5</ele><time>2026-04-06T14:33:57Z</time></trkpt><trkpt lat="44.86814722053938" lon="4.271549005456229"><ele>1009.25</ele><time>2026-04-06T14:33:58Z</time></trkpt><trkpt lat="44.86824412236487" lon="4.271566220572537"><ele>1004.0</ele><time>2026-04-06T14:33:59Z</time></trkpt><trkpt lat="44.86836629330501" lon="4.27155236626145"><ele>1005.0</ele><time>2026-04-06T14:34:00Z</time></trkpt><trkpt lat="44.86845961142632" lon="4.271499721115038"><ele>1006.0000000000001</ele><time>2026-04-06T14:34:01Z</time></trkpt><trkpt lat="44.868534196022395" lon="4.271467459287406"><ele>1007.0000000000001</ele><time>2026-04-06T14:34:02Z</time></trkpt><trkpt lat="44.86860949769884" lon="4.271440040102539"><ele>1008.0</ele><time>2026-04-06T14:34:03Z</time></trkpt><trkpt lat="44.868711134068526" lon="4.271388061706382"><ele>1009.0</ele><time>2026-04-06T14:34:05Z</time></trkpt><trkpt lat="44.86879978583683" lon="4.271482027778396"><ele>1008.9999999999999</ele><time>2026-04-06T14:34:07Z</time></trkpt><trkpt lat="44.86885862559283" lon="4.271515327053426"><ele>1009.0</ele><time>2026-04-06T14:34:08Z</time></trkpt><trkpt lat="44.868963113385895" lon="4.2715441097887705"><ele>1009.0</ele><time>2026-04-06T14:34:09Z</time></trkpt><trkpt lat="44.869041493351226" lon="4.271519783338035"><ele>1009.0</ele><time>2026-04-06T14:34:10Z</time></trkpt><trkpt lat="44.86912642249265" lon="4.271458243761804"><ele>1008.9999999999999</ele><time>2026-04-06T14:34:11Z</time></trkpt><trkpt lat="44.86920728389571" lon="4.271389333369414"><ele>1009.0</ele><time>2026-04-06T14:34:12Z</time></trkpt><trkpt lat="44.86928916435357" lon="4.27130459599009"><ele>1007.2</ele><time>2026-04-06T14:34:13Z</time></trkpt><trkpt lat="44.86936328296383" lon="4.271210483165655"><ele>1005.4000000000001</ele><time>2026-04-06T14:34:14Z</time></trkpt><trkpt lat="44.869446716575254" lon="4.271131575964328"><ele>1003.6</ele><time>2026-04-06T14:34:15Z</time></trkpt><trkpt lat="44.86951302716221" lon="4.271050790033865"><ele>1001.8</ele><time>2026-04-06T14:34:16Z</time></trkpt><trkpt lat="44.86959182170366" lon="4.270977937485162"><ele>1000.0</ele><time>2026-04-06T14:34:17Z</time></trkpt><trkpt lat="44.869650979963446" lon="4.270922454037545"><ele>999.9999999999999</ele><time>2026-04-06T14:34:18Z</time></trkpt><trkpt lat="44.869691506680184" lon="4.270781491046993"><ele>1000.0</ele><time>2026-04-06T14:34:20Z</time></trkpt><trkpt lat="44.86971533072476" lon="4.270683106464382"><ele>1000.0</ele><time>2026-04-06T14:34:22Z</time></trkpt><trkpt lat="44.86967648929954" lon="4.270611094699662"><ele>1000.0</ele><time>2026-04-06T14:34:24Z</time></trkpt><trkpt lat="44.86971025281586" lon="4.270515016104293"><ele>999.9999999999999</ele><time>2026-04-06T14:34:27Z</time></trkpt><trkpt lat="44.86971865327371" lon="4.270609937496824"><ele>1000.0</ele><time>2026-04-06T14:34:30Z</time></trkpt><trkpt lat="44.86978399795019" lon="4.270736777032365"><ele>999.9999999999999</ele><time>2026-04-06T14:34:31Z</time></trkpt><trkpt lat="44.869813120900375" lon="4.27083625320807"><ele>1000.0</ele><time>2026-04-06T14:35:50.999Z</time></trkpt><trkpt lat="44.86979491614102" lon="4.270957734384296"><ele>1000.0</ele><time>2026-04-06T14:35:52.999Z</time></trkpt><trkpt lat="44.86978065531865" lon="4.271085533850653"><ele>1000.0</ele><time>2026-04-06T14:35:54.999Z</time></trkpt><trkpt lat="44.869726371988286" lon="4.271189462903291"><ele>999.9999999999999</ele><time>2026-04-06T14:35:56.999Z</time></trkpt><trkpt lat="44.86966979973262" lon="4.271291566624779"><ele>1000.0</ele><time>2026-04-06T14:35:59Z</time></trkpt><trkpt lat="44.86960501580379" lon="4.27134827208443"><ele>1000.0</ele><time>2026-04-06T14:36:00Z</time></trkpt><trkpt lat="44.86951726995453" lon="4.271437746640086"><ele>1000.0</ele><time>2026-04-06T14:36:02Z</time></trkpt><trkpt lat="44.86944241859021" lon="4.271525427509765"><ele>1000.0</ele><time>2026-04-06T14:36:03Z</time></trkpt><trkpt lat="44.869368498600366" lon="4.271569375785996"><ele>1000.0</ele><time>2026-04-06T14:36:04Z</time></trkpt><trkpt lat="44.86931175708333" lon="4.271635182014264"><ele>1000.0</ele><time>2026-04-06T14:36:05Z</time></trkpt><trkpt lat="44.86925033838795" lon="4.271742957267707"><ele>998.9999999999999</ele><time>2026-04-06T14:36:06Z</time></trkpt><trkpt lat="44.8691819681521" lon="4.2717787328253225"><ele>998.0</ele><time>2026-04-06T14:36:07Z</time></trkpt><trkpt lat="44.86917472450705" lon="4.271869157354025"><ele>997.0</ele><time>2026-04-06T14:36:08Z</time></trkpt><trkpt lat="44.86911791126626" lon="4.271934011399276"><ele>996.0</ele><time>2026-04-06T14:36:09Z</time></trkpt><trkpt lat="44.869093408129885" lon="4.272050606672953"><ele>994.9999999999999</ele><time>2026-04-06T14:36:10Z</time></trkpt><trkpt lat="44.86905808543978" lon="4.272218234630016"><ele>994.0</ele><time>2026-04-06T14:36:12Z</time></trkpt><trkpt lat="44.8690740893544" lon="4.272317373078147"><ele>994.0</ele><time>2026-04-06T14:36:13Z</time></trkpt><trkpt lat="44.86905314469723" lon="4.2724247545347085"><ele>994.0000000000001</ele><time>2026-04-06T14:36:15Z</time></trkpt><trkpt lat="44.86897507028302" lon="4.272384753555061"><ele>994.0000000000001</ele><time>2026-04-06T14:36:19Z</time></trkpt><trkpt lat="44.8688905140176" lon="4.272327837250844"><ele>994.0</ele><time>2026-04-06T14:36:21Z</time></trkpt><trkpt lat="44.86880767815893" lon="4.272277970742232"><ele>994.0</ele><time>2026-04-06T14:36:23Z</time></trkpt><trkpt lat="44.86870591655045" lon="4.27222121987889"><ele>993.9999999999999</ele><time>2026-04-06T14:36:26Z</time></trkpt><trkpt lat="44.86863339747396" lon="4.272191304678552"><ele>994.0</ele><time>2026-04-06T14:36:28Z</time></trkpt><trkpt lat="44.868583557584465" lon="4.2722860893096"><ele>994.0</ele><time>2026-04-06T14:36:32Z</time></trkpt><trkpt lat="44.86853937895137" lon="4.272426586650755"><ele>994.0</ele><time>2026-04-06T14:36:34Z</time></trkpt><trkpt lat="44.868494387645676" lon="4.272506266271165"><ele>993.9999999999999</ele><time>2026-04-06T14:36:35Z</time></trkpt><trkpt lat="44.868427186120634" lon="4.272568714355046"><ele>994.0</ele><time>2026-04-06T14:36:36Z</time></trkpt><trkpt lat="44.868345138112176" lon="4.27265628014544"><ele>990.4999999999999</ele><time>2026-04-06T14:36:37Z</time></trkpt><trkpt lat="44.86826895529263" lon="4.272679111889254"><ele>987.0</ele><time>2026-04-06T14:36:38Z</time></trkpt><trkpt lat="44.868203340571625" lon="4.272747286054367"><ele>983.5</ele><time>2026-04-06T14:36:39Z</time></trkpt><trkpt lat="44.86812484002495" lon="4.272783888015315"><ele>980.0</ele><time>2026-04-06T14:36:42Z</time></trkpt><trkpt lat="44.868020434196936" lon="4.272836980810585"><ele>976.4999999999999</ele><time>2026-04-06T14:36:44Z</time></trkpt><trkpt lat="44.867955424823876" lon="4.272839342967734"><ele>973.0</ele><time>2026-04-06T14:36:46Z</time></trkpt><trkpt lat="44.867901799800656" lon="4.272785803718165"><ele>973.0</ele><time>2026-04-06T14:36:47Z</time></trkpt><trkpt lat="44.86782366656001" lon="4.272717222142761"><ele>973.0</ele><time>2026-04-06T14:36:49Z</time></trkpt><trkpt lat="44.86775354845968" lon="4.2727285792062"><ele>973.0</ele><time>2026-04-06T14:36:50Z</time></trkpt><trkpt lat="44.86765013474642" lon="4.272673532512683"><ele>973.0</ele><time>2026-04-06T14:36:52Z</time></trkpt><trkpt lat="44.86755440087795" lon="4.272622181407242"><ele>973.0</ele><time>2026-04-06T14:36:54Z</time></trkpt><trkpt lat="44.86747467376654" lon="4.272628197277942"><ele>971.1666666666666</ele><time>2026-04-06T14:36:56Z</time></trkpt><trkpt lat="44.86737652686047" lon="4.27266518005794"><ele>969.3333333333333</ele><time>2026-04-06T14:36:58Z</time></trkpt><trkpt lat="44.867318121265875" lon="4.272701648465579"><ele>967.5</ele><time>2026-04-06T14:36:59Z</time></trkpt><trkpt lat="44.86723217505252" lon="4.272751638186425"><ele>965.6666666666667</ele><time>2026-04-06T14:37:01Z</time></trkpt><trkpt lat="44.867153690834556" lon="4.27279676122837"><ele>963.8333333333334</ele><time>2026-04-06T14:37:04Z</time></trkpt><trkpt lat="44.867086288406846" lon="4.272799491895266"><ele>962.0</ele><time>2026-04-06T14:37:06Z</time></trkpt><trkpt lat="44.86700247481238" lon="4.272796348528648"><ele>962.0000000000001</ele><time>2026-04-06T14:37:09Z</time></trkpt><trkpt lat="44.866932640729594" lon="4.2727301542913665"><ele>962.0</ele><time>2026-04-06T14:37:14Z</time></trkpt><trkpt lat="44.866906107685764" lon="4.272635987139654"><ele>962.0</ele><time>2026-04-06T14:37:18Z</time></trkpt><trkpt lat="44.86684405914582" lon="4.272596788961922"><ele>962.0</ele><time>2026-04-06T14:37:21Z</time></trkpt><trkpt lat="44.8667810708972" lon="4.272541635255542"><ele>962.0000000000001</ele><time>2026-04-06T14:37:31Z</time></trkpt><trkpt lat="44.86668688814614" lon="4.2725669956821655"><ele>962.0</ele><time>2026-04-06T14:37:45.999Z</time></trkpt><trkpt lat="44.86675683037788" lon="4.272615875375206"><ele>959.8333333333334</ele><time>2026-04-06T14:37:58.999Z</time></trkpt><trkpt lat="44.86667465154324" lon="4.2725045405825295"><ele>957.6666666666667</ele><time>2026-04-06T14:38:04Z</time></trkpt><trkpt lat="44.86670781800925" lon="4.272649760342897"><ele>955.5</ele><time>2026-04-06T14:38:07Z</time></trkpt><trkpt lat="44.86669742271242" lon="4.272747924321809"><ele>953.3333333333333</ele><time>2026-04-06T14:38:30Z</time></trkpt><trkpt lat="44.86661970915768" lon="4.2727886996477435"><ele>951.1666666666666</ele><time>2026-04-06T14:38:42Z</time></trkpt><trkpt lat="44.8666227127943" lon="4.272893276036409"><ele>949.0</ele><time>2026-04-06T14:38:48Z</time></trkpt><trkpt lat="44.866595568617164" lon="4.2729761688291745"><ele>943.4000000000001</ele><time>2026-04-06T14:38:50Z</time></trkpt><trkpt lat="44.86652740347351" lon="4.273126272217238"><ele>937.8000000000001</ele><time>2026-04-06T14:38:52Z</time></trkpt><trkpt lat="44.866475799327645" lon="4.273245401124616"><ele>932.1999999999999</ele><time>2026-04-06T14:38:55Z</time></trkpt><trkpt lat="44.86642197972753" lon="4.273319435515011"><ele>926.5999999999999</ele><time>2026-04-06T14:38:57Z</time></trkpt><trkpt lat="44.8663316859783" lon="4.273394726967233"><ele>921.0</ele><time>2026-04-06T14:38:59Z</time></trkpt><trkpt lat="44.866233335966555" lon="4.273471145610397"><ele>921.0</ele><time>2026-04-06T14:39:01Z</time></trkpt><trkpt lat="44.86615446223263" lon="4.273485675866586"><ele>921.0</ele><time>2026-04-06T14:39:02Z</time></trkpt><trkpt lat="44.86609049553565" lon="4.273510250035835"><ele>921.0</ele><time>2026-04-06T14:39:03Z</time></trkpt><trkpt lat="44.86608583431079" lon="4.273607721465668"><ele>921.0</ele><time>2026-04-06T14:39:06Z</time></trkpt><trkpt lat="44.86605996715157" lon="4.273720222066904"><ele>921.0</ele><time>2026-04-06T14:39:08Z</time></trkpt><trkpt lat="44.86602246826993" lon="4.273799538376953"><ele>921.0</ele><time>2026-04-06T14:39:10Z</time></trkpt><trkpt lat="44.865974243319926" lon="4.273896590363145"><ele>917.5</ele><time>2026-04-06T14:39:13Z</time></trkpt><trkpt lat="44.865926190475555" lon="4.274005343552934"><ele>914.0</ele><time>2026-04-06T14:39:16Z</time></trkpt><trkpt lat="44.86590406044946" lon="4.274119208482101"><ele>910.5</ele><time>2026-04-06T14:39:19Z</time></trkpt><trkpt lat="44.86584293621104" lon="4.274225903732075"><ele>907.0</ele><time>2026-04-06T14:39:22Z</time></trkpt><trkpt lat="44.865812568883314" lon="4.274314898875108"><ele>903.5</ele><time>2026-04-06T14:39:25Z</time></trkpt><trkpt lat="44.86583373939154" lon="4.274409436959297"><ele>900.0</ele><time>2026-04-06T14:39:27Z</time></trkpt><trkpt lat="44.865770123652645" lon="4.274400643968111"><ele>900.0</ele><time>2026-04-06T14:39:28Z</time></trkpt><trkpt lat="44.865673299705605" lon="4.274421619154559"><ele>900.0</ele><time>2026-04-06T14:39:30Z</time></trkpt><trkpt lat="44.865560448135476" lon="4.274427904505904"><ele>900.0</ele><time>2026-04-06T14:39:32Z</time></trkpt><trkpt lat="44.865480199280945" lon="4.274522151991024"><ele>900.0</ele><time>2026-04-06T14:39:33Z</time></trkpt><trkpt lat="44.86539299049573" lon="4.274601450386809"><ele>900.0</ele><time>2026-04-06T14:39:34Z</time></trkpt><trkpt lat="44.86531394581337" lon="4.274742907625682"><ele>898.0</ele><time>2026-04-06T14:39:36Z</time></trkpt><trkpt lat="44.86521613297653" lon="4.2748068736372264"><ele>896.0</ele><time>2026-04-06T14:39:38Z</time></trkpt><trkpt lat="44.86513046362272" lon="4.274862897828698"><ele>894.0</ele><time>2026-04-06T14:39:40Z</time></trkpt><trkpt lat="44.86503991455336" lon="4.274922112978428"><ele>892.0</ele><time>2026-04-06T14:39:42Z</time></trkpt><trkpt lat="44.864966184452854" lon="4.274895951702525"><ele>890.0</ele><time>2026-04-06T14:39:44Z</time></trkpt><trkpt lat="44.86491280351876" lon="4.274958573386439"><ele>888.0</ele><time>2026-04-06T14:39:46Z</time></trkpt><trkpt lat="44.864987943789664" lon="4.275112846989166"><ele>888.0</ele><time>2026-04-06T14:39:48Z</time></trkpt><trkpt lat="44.86509402105039" lon="4.275119833508179"><ele>888.0</ele><time>2026-04-06T14:39:48.999Z</time></trkpt><trkpt lat="44.86517876299541" lon="4.27508879516244"><ele>888.0</ele><time>2026-04-06T14:39:49.999Z</time></trkpt><trkpt lat="44.86524878931678" lon="4.275066580373327"><ele>888.0</ele><time>2026-04-06T14:39:50.999Z</time></trkpt><trkpt lat="44.865321128301005" lon="4.275048095639307"><ele>888.0</ele><time>2026-04-06T14:39:51.999Z</time></trkpt><trkpt lat="44.86539353934397" lon="4.275030717086965"><ele>888.0</ele><time>2026-04-06T14:39:52.999Z</time></trkpt><trkpt lat="44.86546156305424" lon="4.275014258764313"><ele>887.0</ele><time>2026-04-06T14:39:53.999Z</time></trkpt><trkpt lat="44.86553458345541" lon="4.274994685702774"><ele>886.0</ele><time>2026-04-06T14:39:54.999Z</time></trkpt><trkpt lat="44.86560798003909" lon="4.274982944041165"><ele>885.0</ele><time>2026-04-06T14:39:55.999Z</time></trkpt><trkpt lat="44.86568246164527" lon="4.274974779397211"><ele>884.0</ele><time>2026-04-06T14:39:56.999Z</time></trkpt><trkpt lat="44.86577427990232" lon="4.274964408189195"><ele>883.0</ele><time>2026-04-06T14:39:57.999Z</time></trkpt><trkpt lat="44.86589828101557" lon="4.274950358810944"><ele>882.0</ele><time>2026-04-06T14:39:59.999Z</time></trkpt><trkpt lat="44.86599338779131" lon="4.274939172706841"><ele>881.3333333333334</ele><time>2026-04-06T14:40:00.999Z</time></trkpt><trkpt lat="44.86606816851619" lon="4.274915305205657"><ele>880.6666666666667</ele><time>2026-04-06T14:40:01.999Z</time></trkpt><trkpt lat="44.86616430484121" lon="4.274923495796131"><ele>880.0</ele><time>2026-04-06T14:40:02.999Z</time></trkpt><trkpt lat="44.8662421040696" lon="4.274941925808015"><ele>879.3333333333334</ele><time>2026-04-06T14:40:03.999Z</time></trkpt><trkpt lat="44.86633606046588" lon="4.2749254004604635"><ele>878.6666666666667</ele><time>2026-04-06T14:40:04.999Z</time></trkpt><trkpt lat="44.866418659679226" lon="4.274903240903592"><ele>878.0</ele><time>2026-04-06T14:40:05.999Z</time></trkpt><trkpt lat="44.866536077188584" lon="4.274886691564859"><ele>878.0</ele><time>2026-04-06T14:40:06.999Z</time></trkpt><trkpt lat="44.86662009712622" lon="4.274868170271307"><ele>878.0</ele><time>2026-04-06T14:40:07.999Z</time></trkpt><trkpt lat="44.86668822003607" lon="4.274822940663274"><ele>878.0</ele><time>2026-04-06T14:40:08.999Z</time></trkpt><trkpt lat="44.866766232725475" lon="4.274800029784256"><ele>878.0</ele><time>2026-04-06T14:40:10Z</time></trkpt><trkpt lat="44.86690120051661" lon="4.274796039145578"><ele>878.0</ele><time>2026-04-06T14:40:12Z</time></trkpt><trkpt lat="44.86704124890531" lon="4.27476184238118"><ele>882.5999999999999</ele><time>2026-04-06T14:40:13Z</time></trkpt><trkpt lat="44.867137061753596" lon="4.2747660820376465"><ele>887.1999999999999</ele><time>2026-04-06T14:40:14Z</time></trkpt><trkpt lat="44.867234392625555" lon="4.27475032643681"><ele>891.8</ele><time>2026-04-06T14:40:15Z</time></trkpt><trkpt lat="44.867329652515515" lon="4.274736287900608"><ele>896.4</ele><time>2026-04-06T14:40:16Z</time></trkpt><trkpt lat="44.86742490341825" lon="4.274735278907224"><ele>901.0</ele><time>2026-04-06T14:40:17Z</time></trkpt><trkpt lat="44.86751002936511" lon="4.274718012615623"><ele>901.0</ele><time>2026-04-06T14:40:18Z</time></trkpt><trkpt lat="44.867595530360425" lon="4.274717104031467"><ele>900.9999999999999</ele><time>2026-04-06T14:40:19Z</time></trkpt><trkpt lat="44.86771007734095" lon="4.2746954757454425"><ele>900.9999999999999</ele><time>2026-04-06T14:40:20Z</time></trkpt><trkpt lat="44.867804592394855" lon="4.2746986235168825"><ele>901.0</ele><time>2026-04-06T14:40:21Z</time></trkpt><trkpt lat="44.86790495843662" lon="4.274705491291643"><ele>901.0</ele><time>2026-04-06T14:40:22Z</time></trkpt><trkpt lat="44.86799433628699" lon="4.274731490376219"><ele>901.0</ele><time>2026-04-06T14:40:23Z</time></trkpt><trkpt lat="44.868092276042255" lon="4.274748048499986"><ele>900.9999999999999</ele><time>2026-04-06T14:40:24Z</time></trkpt><trkpt lat="44.86818623698261" lon="4.2747662342042645"><ele>900.9999999999999</ele><time>2026-04-06T14:40:25Z</time></trkpt><trkpt lat="44.86828179390979" lon="4.274784429475179"><ele>901.0</ele><time>2026-04-06T14:40:26Z</time></trkpt><trkpt lat="44.86837365530172" lon="4.274788376227738"><ele>901.0</ele><time>2026-04-06T14:40:27Z</time></trkpt><trkpt lat="44.86846714168155" lon="4.274785949147208"><ele>901.8</ele><time>2026-04-06T14:40:28Z</time></trkpt><trkpt lat="44.86856248151787" lon="4.27475787082576"><ele>902.5999999999999</ele><time>2026-04-06T14:40:29Z</time></trkpt><trkpt lat="44.86865196085843" lon="4.27472573867467"><ele>903.4</ele><time>2026-04-06T14:40:30Z</time></trkpt><trkpt lat="44.86874287772972" lon="4.274675746686437"><ele>904.2</ele><time>2026-04-06T14:40:31Z</time></trkpt><trkpt lat="44.86882794733536" lon="4.274625202060667"><ele>905.0</ele><time>2026-04-06T14:40:32Z</time></trkpt><trkpt lat="44.8689120181251" lon="4.274587842841595"><ele>905.0</ele><time>2026-04-06T14:40:33Z</time></trkpt><trkpt lat="44.86901022135928" lon="4.2746082793567535"><ele>905.0</ele><time>2026-04-06T14:40:34Z</time></trkpt><trkpt lat="44.86910985417146" lon="4.274648864992661"><ele>905.0</ele><time>2026-04-06T14:40:35Z</time></trkpt><trkpt lat="44.86921942554494" lon="4.274693263625795"><ele>905.0</ele><time>2026-04-06T14:40:36Z</time></trkpt><trkpt lat="44.86933254858631" lon="4.2747318179881955"><ele>905.0</ele><time>2026-04-06T14:40:37Z</time></trkpt><trkpt lat="44.869443623120965" lon="4.274764124521434"><ele>899.6</ele><time>2026-04-06T14:40:38Z</time></trkpt><trkpt lat="44.86954544441044" lon="4.274802661363401"><ele>894.2</ele><time>2026-04-06T14:40:39Z</time></trkpt><trkpt lat="44.86964935580848" lon="4.274831535646974"><ele>888.8</ele><time>2026-04-06T14:40:40Z</time></trkpt><trkpt lat="44.869761418096914" lon="4.27484423453367"><ele>883.4</ele><time>2026-04-06T14:40:41Z</time></trkpt><trkpt lat="44.869867194834654" lon="4.274856455161143"><ele>878.0</ele><time>2026-04-06T14:40:42Z</time></trkpt><trkpt lat="44.86997164847882" lon="4.274876935875722"><ele>878.0</ele><time>2026-04-06T14:40:43Z</time></trkpt><trkpt lat="44.87007538201079" lon="4.274953494929975"><ele>878.0</ele><time>2026-04-06T14:40:44Z</time></trkpt><trkpt lat="44.87017781702712" lon="4.275056334238809"><ele>878.0</ele><time>2026-04-06T14:40:45Z</time></trkpt><trkpt lat="44.870286758050106" lon="4.275148690571851"><ele>878.0</ele><time>2026-04-06T14:40:46Z</time></trkpt><trkpt lat="44.870389813382204" lon="4.275232160358504"><ele>881.0</ele><time>2026-04-06T14:40:47Z</time></trkpt><trkpt lat="44.870485067654805" lon="4.2753112499196755"><ele>884.0</ele><time>2026-04-06T14:40:48Z</time></trkpt><trkpt lat="44.87058791575808" lon="4.275394391308911"><ele>887.0</ele><time>2026-04-06T14:40:49Z</time></trkpt><trkpt lat="44.870686605184396" lon="4.275464642022302"><ele>890.0</ele><time>2026-04-06T14:40:50Z</time></trkpt><trkpt lat="44.870782364901984" lon="4.275504602254687"><ele>893.0</ele><time>2026-04-06T14:40:51Z</time></trkpt><trkpt lat="44.87088115277586" lon="4.275542347215933"><ele>895.25</ele><time>2026-04-06T14:40:52Z</time></trkpt><trkpt lat="44.870997669525124" lon="4.275569980354155"><ele>897.5</ele><time>2026-04-06T14:40:53Z</time></trkpt><trkpt lat="44.87111193543889" lon="4.2756002940571305"><ele>899.75</ele><time>2026-04-06T14:40:54Z</time></trkpt><trkpt lat="44.87122876303748" lon="4.275639900231623"><ele>902.0</ele><time>2026-04-06T14:40:55Z</time></trkpt><trkpt lat="44.87133207552289" lon="4.275704631467772"><ele>900.2</ele><time>2026-04-06T14:40:56Z</time></trkpt><trkpt lat="44.87143104493731" lon="4.275769247717679"><ele>898.4000000000001</ele><time>2026-04-06T14:40:57Z</time></trkpt><trkpt lat="44.87152695697968" lon="4.2758341966258175"><ele>896.5999999999999</ele><time>2026-04-06T14:40:58Z</time></trkpt><trkpt lat="44.87162067822507" lon="4.275893500953973"><ele>894.8</ele><time>2026-04-06T14:40:59Z</time></trkpt><trkpt lat="44.87170663940633" lon="4.275976616627586"><ele>893.0</ele><time>2026-04-06T14:41:00Z</time></trkpt><trkpt lat="44.87178811649703" lon="4.276075292002543"><ele>893.0</ele><time>2026-04-06T14:41:01Z</time></trkpt><trkpt lat="44.87183762361181" lon="4.276215993157666"><ele>893.0</ele><time>2026-04-06T14:41:02Z</time></trkpt><trkpt lat="44.87190464935711" lon="4.2763418024881625"><ele>893.0</ele><time>2026-04-06T14:41:03Z</time></trkpt><trkpt lat="44.87197018204263" lon="4.276451189135155"><ele>893.0</ele><time>2026-04-06T14:41:04Z</time></trkpt><trkpt lat="44.87203313930902" lon="4.276556276349643"><ele>893.0</ele><time>2026-04-06T14:41:05Z</time></trkpt><trkpt lat="44.872103812769254" lon="4.276648691908572"><ele>890.5000000000001</ele><time>2026-04-06T14:41:06Z</time></trkpt><trkpt lat="44.87213952984799" lon="4.276760931892585"><ele>888.0</ele><time>2026-04-06T14:41:07Z</time></trkpt><trkpt lat="44.872182818146044" lon="4.27686780615147"><ele>885.5</ele><time>2026-04-06T14:41:08Z</time></trkpt><trkpt lat="44.87222686122726" lon="4.276978336788698"><ele>883.0</ele><time>2026-04-06T14:41:09Z</time></trkpt><trkpt lat="44.87227172890812" lon="4.277080879482921"><ele>880.5000000000001</ele><time>2026-04-06T14:41:10Z</time></trkpt><trkpt lat="44.872316808640484" lon="4.277182203785529"><ele>878.0</ele><time>2026-04-06T14:41:11Z</time></trkpt><trkpt lat="44.87236147377066" lon="4.277278897688535"><ele>877.5000000000001</ele><time>2026-04-06T14:41:12Z</time></trkpt><trkpt lat="44.872418570740564" lon="4.277360064180568"><ele>877.0</ele><time>2026-04-06T14:41:13Z</time></trkpt><trkpt lat="44.87248705464155" lon="4.27740886730661"><ele>876.5</ele><time>2026-04-06T14:41:14Z</time></trkpt><trkpt lat="44.87259981079518" lon="4.277377210960348"><ele>876.0</ele><time>2026-04-06T14:41:16Z</time></trkpt><trkpt lat="44.87261000012073" lon="4.277468916051732"><ele>875.5000000000001</ele><time>2026-04-06T14:41:17Z</time></trkpt><trkpt lat="44.872691549597576" lon="4.277364386087561"><ele>875.0</ele><time>2026-04-06T14:41:19Z</time></trkpt><trkpt lat="44.872707070323614" lon="4.277238868274528"><ele>873.6</ele><time>2026-04-06T14:41:21Z</time></trkpt><trkpt lat="44.87282955989387" lon="4.277231046271411"><ele>872.2</ele><time>2026-04-06T14:41:50.999Z</time></trkpt><trkpt lat="44.87289398652388" lon="4.277199015266806"><ele>870.8</ele><time>2026-04-06T14:42:21Z</time></trkpt><trkpt lat="44.8729737321708" lon="4.277210026387833"><ele>869.4</ele><time>2026-04-06T14:42:23Z</time></trkpt><trkpt lat="44.87307760345989" lon="4.277190686824603"><ele>868.0</ele><time>2026-04-06T14:42:25Z</time></trkpt><trkpt lat="44.873212071162946" lon="4.2772240615375114"><ele>868.0</ele><time>2026-04-06T14:42:27Z</time></trkpt><trkpt lat="44.87331431831007" lon="4.277229602189189"><ele>868.0</ele><time>2026-04-06T14:42:29Z</time></trkpt><trkpt lat="44.8734129888496" lon="4.277254704654238"><ele>868.0</ele><time>2026-04-06T14:42:31Z</time></trkpt><trkpt lat="44.87349088811024" lon="4.277252279116928"><ele>868.0</ele><time>2026-04-06T14:42:33Z</time></trkpt><trkpt lat="44.87357939349067" lon="4.277248659867705"><ele>868.0</ele><time>2026-04-06T14:42:42Z</time></trkpt><trkpt lat="44.87364333567222" lon="4.277323666887596"><ele>864.2</ele><time>2026-04-06T14:42:45Z</time></trkpt><trkpt lat="44.87371651493162" lon="4.277412812104623"><ele>860.4</ele><time>2026-04-06T14:42:48Z</time></trkpt><trkpt lat="44.87379691161598" lon="4.277500072820299"><ele>856.6</ele><time>2026-04-06T14:42:50Z</time></trkpt><trkpt lat="44.87388758557984" lon="4.277594179404354"><ele>852.8000000000001</ele><time>2026-04-06T14:42:52Z</time></trkpt><trkpt lat="44.87394762572109" lon="4.277706028426121"><ele>849.0</ele><time>2026-04-06T14:42:54Z</time></trkpt><trkpt lat="44.87397383314102" lon="4.27783541992596"><ele>849.0</ele><time>2026-04-06T14:42:56Z</time></trkpt><trkpt lat="44.874075731303215" lon="4.277862930506414"><ele>849.0</ele><time>2026-04-06T14:42:58Z</time></trkpt><trkpt lat="44.87414097577081" lon="4.277810817188612"><ele>849.0</ele><time>2026-04-06T14:43:00Z</time></trkpt><trkpt lat="44.8742134998581" lon="4.277773743804944"><ele>849.0</ele><time>2026-04-06T14:43:02Z</time></trkpt><trkpt lat="44.87427809704257" lon="4.277701827324543"><ele>849.0</ele><time>2026-04-06T14:43:04Z</time></trkpt><trkpt lat="44.87435682833218" lon="4.277607562897669"><ele>849.0</ele><time>2026-04-06T14:43:06Z</time></trkpt><trkpt lat="44.874435574160756" lon="4.2775423329245825"><ele>846.8333333333334</ele><time>2026-04-06T14:43:08Z</time></trkpt><trkpt lat="44.874516701956246" lon="4.27748334173131"><ele>844.6666666666667</ele><time>2026-04-06T14:43:10Z</time></trkpt><trkpt lat="44.87457074898351" lon="4.277386424692017"><ele>842.5</ele><time>2026-04-06T14:43:12Z</time></trkpt><trkpt lat="44.8746339076095" lon="4.2773466316983075"><ele>840.3333333333334</ele><time>2026-04-06T14:43:14Z</time></trkpt><trkpt lat="44.874724020973716" lon="4.277308757213336"><ele>838.1666666666667</ele><time>2026-04-06T14:43:16Z</time></trkpt><trkpt lat="44.874801214009906" lon="4.277273186808929"><ele>836.0</ele><time>2026-04-06T14:43:18Z</time></trkpt><trkpt lat="44.87487391314051" lon="4.277247431049202"><ele>836.0000000000001</ele><time>2026-04-06T14:43:20Z</time></trkpt><trkpt lat="44.87493161585111" lon="4.277208984712081"><ele>836.0</ele><time>2026-04-06T14:43:33Z</time></trkpt><trkpt lat="44.87498715301147" lon="4.277139392347334"><ele>836.0</ele><time>2026-04-06T14:44:27Z</time></trkpt><trkpt lat="44.874908969587686" lon="4.277164995824985"><ele>836.0</ele><time>2026-04-06T14:45:12Z</time></trkpt><trkpt lat="44.87484344785615" lon="4.277202133358597"><ele>836.0000000000001</ele><time>2026-04-06T14:45:14Z</time></trkpt><trkpt lat="44.874769018731136" lon="4.277252384680501"><ele>836.0</ele><time>2026-04-06T14:45:16Z</time></trkpt><trkpt lat="44.87468074588381" lon="4.277297415522317"><ele>836.0</ele><time>2026-04-06T14:45:18Z</time></trkpt><trkpt lat="44.874605381146324" lon="4.277337986336189"><ele>836.0</ele><time>2026-04-06T14:45:20Z</time></trkpt><trkpt lat="44.874530743993915" lon="4.277415042212532"><ele>836.0</ele><time>2026-04-06T14:45:22Z</time></trkpt><trkpt lat="44.874456901436794" lon="4.277517125939447"><ele>836.0</ele><time>2026-04-06T14:45:24Z</time></trkpt><trkpt lat="44.8743589186586" lon="4.277571413920199"><ele>836.0</ele><time>2026-04-06T14:45:26Z</time></trkpt><trkpt lat="44.87430040308547" lon="4.277675271654399"><ele>838.1666666666667</ele><time>2026-04-06T14:45:29Z</time></trkpt><trkpt lat="44.87424892768312" lon="4.2777296205722175"><ele>840.3333333333334</ele><time>2026-04-06T14:45:31Z</time></trkpt><trkpt lat="44.87418220564645" lon="4.277753386017617"><ele>842.5</ele><time>2026-04-06T14:45:33Z</time></trkpt><trkpt lat="44.87411208192841" lon="4.277789886641745"><ele>844.6666666666667</ele><time>2026-04-06T14:45:36Z</time></trkpt><trkpt lat="44.87409054426015" lon="4.277680563640989"><ele>846.8333333333334</ele><time>2026-04-06T14:45:39Z</time></trkpt><trkpt lat="44.87403130328061" lon="4.277612990229396"><ele>849.0</ele><time>2026-04-06T14:45:41Z</time></trkpt><trkpt lat="44.873965847763984" lon="4.27751223568438"><ele>849.0</ele><time>2026-04-06T14:45:44Z</time></trkpt><trkpt lat="44.87383619844501" lon="4.277498403933233"><ele>849.0</ele><time>2026-04-06T14:45:46Z</time></trkpt><trkpt lat="44.87376475477875" lon="4.277523268793588"><ele>849.0</ele><time>2026-04-06T14:45:47Z</time></trkpt><trkpt lat="44.87362768436947" lon="4.277514244515194"><ele>849.0</ele><time>2026-04-06T14:45:49Z</time></trkpt><trkpt lat="44.873285271572655" lon="4.277218900619453"><ele>852.1666666666666</ele><time>2026-04-06T14:45:51Z</time></trkpt><trkpt lat="44.87319527930116" lon="4.277232210442217"><ele>855.3333333333333</ele><time>2026-04-06T14:45:52Z</time></trkpt><trkpt lat="44.87312249216203" lon="4.277223497633149"><ele>858.5</ele><time>2026-04-06T14:45:53Z</time></trkpt><trkpt lat="44.87305640678232" lon="4.277203386337861"><ele>861.6666666666666</ele><time>2026-04-06T14:45:54Z</time></trkpt><trkpt lat="44.87299347057638" lon="4.277199854492247"><ele>864.8333333333333</ele><time>2026-04-06T14:45:55Z</time></trkpt><trkpt lat="44.87288904232786" lon="4.277232037069336"><ele>868.0</ele><time>2026-04-06T14:45:56.999Z</time></trkpt><trkpt lat="44.87281387798504" lon="4.277227366724794"><ele>867.9999999999999</ele><time>2026-04-06T14:45:58.999Z</time></trkpt><trkpt lat="44.87283922882355" lon="4.27708746162203"><ele>868.0</ele><time>2026-04-06T14:46:01.999Z</time></trkpt><trkpt lat="44.872876698535904" lon="4.276993946846226"><ele>868.0</ele><time>2026-04-06T14:46:02.999Z</time></trkpt><trkpt lat="44.872910810319624" lon="4.276910694765927"><ele>868.0</ele><time>2026-04-06T14:46:03.999Z</time></trkpt><trkpt lat="44.87294522130784" lon="4.276812162368246"><ele>867.9999999999999</ele><time>2026-04-06T14:46:04.999Z</time></trkpt><trkpt lat="44.87297606797276" lon="4.276718513155727"><ele>868.0</ele><time>2026-04-06T14:46:05.999Z</time></trkpt><trkpt lat="44.8730074282159" lon="4.276633635152824"><ele>868.0</ele><time>2026-04-06T14:46:06.999Z</time></trkpt><trkpt lat="44.87305201644224" lon="4.27656221866514"><ele>868.0</ele><time>2026-04-06T14:46:07.999Z</time></trkpt><trkpt lat="44.87314286952177" lon="4.276543623326748"><ele>868.0</ele><time>2026-04-06T14:46:08.999Z</time></trkpt><trkpt lat="44.873197382727334" lon="4.276497435015229"><ele>868.0</ele><time>2026-04-06T14:46:09.999Z</time></trkpt><trkpt lat="44.873266549315005" lon="4.276471214059607"><ele>868.0</ele><time>2026-04-06T14:46:10.999Z</time></trkpt><trkpt lat="44.87333352769361" lon="4.276462051624259"><ele>868.0</ele><time>2026-04-06T14:46:11.999Z</time></trkpt><trkpt lat="44.873400204174565" lon="4.27646851724229"><ele>868.0</ele><time>2026-04-06T14:46:12.999Z</time></trkpt><trkpt lat="44.87351222030877" lon="4.276511922178256"><ele>863.5999999999999</ele><time>2026-04-06T14:46:14.999Z</time></trkpt><trkpt lat="44.87361688088119" lon="4.276560294102019"><ele>859.1999999999999</ele><time>2026-04-06T14:46:16.999Z</time></trkpt><trkpt lat="44.87371058711846" lon="4.276589703427761"><ele>854.8</ele><time>2026-04-06T14:46:18.999Z</time></trkpt><trkpt lat="44.8737874996174" lon="4.27660307873786"><ele>850.4</ele><time>2026-04-06T14:46:20.999Z</time></trkpt><trkpt lat="44.87386606022527" lon="4.276650044937893"><ele>846.0</ele><time>2026-04-06T14:46:23.999Z</time></trkpt><trkpt lat="44.87401449779325" lon="4.2766791309329255"><ele>846.0</ele><time>2026-04-06T14:46:26.999Z</time></trkpt><trkpt lat="44.87410348778637" lon="4.276621221194101"><ele>846.0</ele><time>2026-04-06T14:46:29Z</time></trkpt><trkpt lat="44.874183623685695" lon="4.276574620533027"><ele>846.0</ele><time>2026-04-06T14:46:31Z</time></trkpt><trkpt lat="44.874261906935494" lon="4.276518234867376"><ele>846.0</ele><time>2026-04-06T14:46:33Z</time></trkpt><trkpt lat="44.87433002427725" lon="4.276451362456843"><ele>846.0</ele><time>2026-04-06T14:46:35Z</time></trkpt><trkpt lat="44.87438616619504" lon="4.276382154880122"><ele>846.0</ele><time>2026-04-06T14:46:37Z</time></trkpt><trkpt lat="44.87444298011984" lon="4.276267423615084"><ele>841.5</ele><time>2026-04-06T14:46:39Z</time></trkpt><trkpt lat="44.87450276919386" lon="4.276191935216053"><ele>837.0</ele><time>2026-04-06T14:46:41Z</time></trkpt><trkpt lat="44.87456583903777" lon="4.276123661119944"><ele>832.5</ele><time>2026-04-06T14:46:43Z</time></trkpt><trkpt lat="44.874662817948504" lon="4.276037504101227"><ele>828.0</ele><time>2026-04-06T14:46:46Z</time></trkpt><trkpt lat="44.874727968259634" lon="4.275991491944353"><ele>823.5</ele><time>2026-04-06T14:46:48Z</time></trkpt><trkpt lat="44.87479383656006" lon="4.2759413071385595"><ele>819.0</ele><time>2026-04-06T14:46:51Z</time></trkpt><trkpt lat="44.87485430148078" lon="4.275893486949018"><ele>819.0</ele><time>2026-04-06T14:46:53Z</time></trkpt><trkpt lat="44.87491858826999" lon="4.275865003558584"><ele>819.0</ele><time>2026-04-06T14:46:55Z</time></trkpt><trkpt lat="44.875000607631875" lon="4.275823181335666"><ele>819.0</ele><time>2026-04-06T14:46:57Z</time></trkpt><trkpt lat="44.875076323786004" lon="4.275767140015448"><ele>819.0</ele><time>2026-04-06T14:47:00Z</time></trkpt><trkpt lat="44.87513311132814" lon="4.275673580467303"><ele>819.0</ele><time>2026-04-06T14:47:03Z</time></trkpt><trkpt lat="44.875168926004534" lon="4.275590951951937"><ele>819.0</ele><time>2026-04-06T14:47:07Z</time></trkpt><trkpt lat="44.87521086418602" lon="4.275520331121522"><ele>812.8333333333334</ele><time>2026-04-06T14:47:11Z</time></trkpt><trkpt lat="44.87527108709766" lon="4.275464133219726"><ele>806.6666666666667</ele><time>2026-04-06T14:47:14Z</time></trkpt><trkpt lat="44.8753183243487" lon="4.275404779440257"><ele>800.5</ele><time>2026-04-06T14:47:16Z</time></trkpt><trkpt lat="44.87536347763823" lon="4.275323076562376"><ele>794.3333333333334</ele><time>2026-04-06T14:47:19Z</time></trkpt><trkpt lat="44.87538387839358" lon="4.275214292017807"><ele>788.1666666666667</ele><time>2026-04-06T14:47:23Z</time></trkpt><trkpt lat="44.87539023593114" lon="4.2751151788906645"><ele>782.0</ele><time>2026-04-06T14:47:26Z</time></trkpt><trkpt lat="44.87540434239864" lon="4.274987781191269"><ele>781.9999999999999</ele><time>2026-04-06T14:47:29Z</time></trkpt><trkpt lat="44.87543785169523" lon="4.274872570961947"><ele>782.0</ele><time>2026-04-06T14:47:32Z</time></trkpt><trkpt lat="44.87547776781071" lon="4.274778766735242"><ele>782.0</ele><time>2026-04-06T14:47:34Z</time></trkpt><trkpt lat="44.87550467510531" lon="4.2746888449619656"><ele>782.0</ele><time>2026-04-06T14:47:35Z</time></trkpt><trkpt lat="44.87553859817505" lon="4.274611874739292"><ele>782.0</ele><time>2026-04-06T14:47:40Z</time></trkpt><trkpt lat="44.8755823699633" lon="4.274685646808566"><ele>781.9999999999999</ele><time>2026-04-06T14:47:59Z</time></trkpt><trkpt lat="44.87564051196717" lon="4.274726783067264"><ele>782.0</ele><time>2026-04-06T14:48:12.999Z</time></trkpt><trkpt lat="44.87563666345471" lon="4.27450801538864"><ele>782.0</ele><time>2026-04-06T14:48:14.999Z</time></trkpt><trkpt lat="44.87561629181403" lon="4.274374414297081"><ele>782.0</ele><time>2026-04-06T14:48:15.999Z</time></trkpt><trkpt lat="44.87559882733875" lon="4.274228377344862"><ele>782.0</ele><time>2026-04-06T14:48:16.999Z</time></trkpt><trkpt lat="44.87557137133607" lon="4.274078161394202"><ele>782.0</ele><time>2026-04-06T14:48:17.999Z</time></trkpt><trkpt lat="44.87556232046351" lon="4.273926956573765"><ele>782.0</ele><time>2026-04-06T14:48:18.999Z</time></trkpt><trkpt lat="44.87557354652408" lon="4.273770078893125"><ele>781.75</ele><time>2026-04-06T14:48:19.999Z</time></trkpt><trkpt lat="44.87560540502332" lon="4.2736031550811795"><ele>781.5</ele><time>2026-04-06T14:48:20.999Z</time></trkpt><trkpt lat="44.87563093762613" lon="4.273432053396177"><ele>781.25</ele><time>2026-04-06T14:48:21.999Z</time></trkpt><trkpt lat="44.875638045244756" lon="4.27325072782701"><ele>781.0</ele><time>2026-04-06T14:48:22.999Z</time></trkpt><trkpt lat="44.87563465383368" lon="4.27306806246536"><ele>780.5999999999999</ele><time>2026-04-06T14:48:23.999Z</time></trkpt><trkpt lat="44.87563666866528" lon="4.272903522283612"><ele>780.2</ele><time>2026-04-06T14:48:24.999Z</time></trkpt><trkpt lat="44.87563213997752" lon="4.2727590529861335"><ele>779.8</ele><time>2026-04-06T14:48:25.999Z</time></trkpt><trkpt lat="44.87565444535345" lon="4.272610411626639"><ele>779.4000000000001</ele><time>2026-04-06T14:48:26.999Z</time></trkpt><trkpt lat="44.87572427463093" lon="4.272475855443775"><ele>779.0</ele><time>2026-04-06T14:48:27.999Z</time></trkpt><trkpt lat="44.87575295815413" lon="4.272372418687045"><ele>778.8000000000001</ele><time>2026-04-06T14:48:28.999Z</time></trkpt><trkpt lat="44.87576677249355" lon="4.272237679763283"><ele>778.6</ele><time>2026-04-06T14:48:30.999Z</time></trkpt><trkpt lat="44.8757480365314" lon="4.272121187111521"><ele>778.4</ele><time>2026-04-06T14:48:32.999Z</time></trkpt><trkpt lat="44.87569903287533" lon="4.271982995773387"><ele>778.2</ele><time>2026-04-06T14:48:35Z</time></trkpt><trkpt lat="44.87563694274046" lon="4.271851791837113"><ele>778.0</ele><time>2026-04-06T14:48:37Z</time></trkpt><trkpt lat="44.87559564650919" lon="4.271764554751649"><ele>777.9999999999999</ele><time>2026-04-06T14:48:38Z</time></trkpt><trkpt lat="44.87556118359107" lon="4.271671913720128"><ele>778.0</ele><time>2026-04-06T14:48:39Z</time></trkpt><trkpt lat="44.87554721078484" lon="4.27157188292065"><ele>778.0</ele><time>2026-04-06T14:48:40Z</time></trkpt><trkpt lat="44.87554140538652" lon="4.271449168631074"><ele>778.0</ele><time>2026-04-06T14:48:41Z</time></trkpt><trkpt lat="44.87551261431565" lon="4.271325015902723"><ele>777.9999999999999</ele><time>2026-04-06T14:48:42Z</time></trkpt><trkpt lat="44.87551812943327" lon="4.2712139421614985"><ele>778.0</ele><time>2026-04-06T14:48:43Z</time></trkpt><trkpt lat="44.87552025114543" lon="4.271095245694863"><ele>778.3333333333333</ele><time>2026-04-06T14:48:44Z</time></trkpt><trkpt lat="44.875524408250506" lon="4.270965978051343"><ele>778.6666666666666</ele><time>2026-04-06T14:48:45Z</time></trkpt><trkpt lat="44.87555828625342" lon="4.270850085104301"><ele>779.0</ele><time>2026-04-06T14:48:46Z</time></trkpt><trkpt lat="44.875566000836585" lon="4.270746596808206"><ele>779.3333333333333</ele><time>2026-04-06T14:48:47Z</time></trkpt><trkpt lat="44.87557272102028" lon="4.270623858994397"><ele>779.6666666666666</ele><time>2026-04-06T14:48:48Z</time></trkpt><trkpt lat="44.875570154260984" lon="4.2704790426938475"><ele>780.0</ele><time>2026-04-06T14:48:49Z</time></trkpt><trkpt lat="44.875695280782026" lon="4.270383506385007"><ele>780.1666666666666</ele><time>2026-04-06T14:48:50Z</time></trkpt><trkpt lat="44.87569499464103" lon="4.270285424553935"><ele>780.3333333333333</ele><time>2026-04-06T14:48:51Z</time></trkpt><trkpt lat="44.87573090819448" lon="4.270188075226601"><ele>780.5</ele><time>2026-04-06T14:48:52Z</time></trkpt><trkpt lat="44.875756245720666" lon="4.27004939338105"><ele>780.6666666666666</ele><time>2026-04-06T14:48:53Z</time></trkpt><trkpt lat="44.875797088564816" lon="4.26996567716453"><ele>780.8333333333333</ele><time>2026-04-06T14:48:55Z</time></trkpt><trkpt lat="44.87584961019959" lon="4.269899714102131"><ele>781.0</ele><time>2026-04-06T14:48:56Z</time></trkpt><trkpt lat="44.875904363229466" lon="4.269842328486288"><ele>779.4</ele><time>2026-04-06T14:48:57Z</time></trkpt><trkpt lat="44.87600990974547" lon="4.269781714712229"><ele>777.8</ele><time>2026-04-06T14:48:58Z</time></trkpt><trkpt lat="44.876084116292716" lon="4.269755040237454"><ele>776.1999999999999</ele><time>2026-04-06T14:48:59Z</time></trkpt><trkpt lat="44.87616819719849" lon="4.269732070694284"><ele>774.5999999999999</ele><time>2026-04-06T14:49:00Z</time></trkpt><trkpt lat="44.87626614018934" lon="4.269705907252455"><ele>773.0</ele><time>2026-04-06T14:49:02Z</time></trkpt><trkpt lat="44.876347126348264" lon="4.2696906664842"><ele>773.0</ele><time>2026-04-06T14:49:03Z</time></trkpt><trkpt lat="44.87648959156674" lon="4.269658623693303"><ele>773.0</ele><time>2026-04-06T14:49:05Z</time></trkpt><trkpt lat="44.8765919568903" lon="4.269663839472283"><ele>773.0</ele><time>2026-04-06T14:49:06Z</time></trkpt><trkpt lat="44.87670105173251" lon="4.269638477155906"><ele>773.0</ele><time>2026-04-06T14:49:07Z</time></trkpt><trkpt lat="44.87679636420518" lon="4.269628970733623"><ele>774.5000000000001</ele><time>2026-04-06T14:49:08Z</time></trkpt><trkpt lat="44.876886941206294" lon="4.269618256894865"><ele>776.0</ele><time>2026-04-06T14:49:09Z</time></trkpt><trkpt lat="44.87696591720222" lon="4.269603940592418"><ele>777.5</ele><time>2026-04-06T14:49:10Z</time></trkpt><trkpt lat="44.87704299805239" lon="4.269594615286753"><ele>779.0</ele><time>2026-04-06T14:49:11Z</time></trkpt><trkpt lat="44.87710661058695" lon="4.269564388765762"><ele>780.5000000000001</ele><time>2026-04-06T14:49:12Z</time></trkpt><trkpt lat="44.877213991397866" lon="4.269527393032462"><ele>782.0</ele><time>2026-04-06T14:49:14Z</time></trkpt><trkpt lat="44.87728353484577" lon="4.2695220799603595"><ele>782.0000000000001</ele><time>2026-04-06T14:49:16Z</time></trkpt><trkpt lat="44.87725600383362" lon="4.26970699504454"><ele>782.0</ele><time>2026-04-06T14:49:20Z</time></trkpt><trkpt lat="44.877207709029825" lon="4.269802876898298"><ele>782.0</ele><time>2026-04-06T14:49:23Z</time></trkpt><trkpt lat="44.87716612631725" lon="4.269882839473989"><ele>782.0</ele><time>2026-04-06T14:49:26Z</time></trkpt><trkpt lat="44.87709560438195" lon="4.269957700970859"><ele>782.0000000000001</ele><time>2026-04-06T14:49:28Z</time></trkpt><trkpt lat="44.87707699750628" lon="4.2700480166656485"><ele>782.0</ele><time>2026-04-06T14:49:30Z</time></trkpt><trkpt lat="44.87703819689064" lon="4.270172197896086"><ele>783.0</ele><time>2026-04-06T14:49:33Z</time></trkpt><trkpt lat="44.877070212757495" lon="4.27033816368002"><ele>784.0</ele><time>2026-04-06T14:49:35Z</time></trkpt><trkpt lat="44.877043317185986" lon="4.270451865188967"><ele>785.0</ele><time>2026-04-06T14:49:37Z</time></trkpt><trkpt lat="44.87703275954478" lon="4.270608065945473"><ele>786.0</ele><time>2026-04-06T14:49:40Z</time></trkpt><trkpt lat="44.87705248400979" lon="4.2707082420979505"><ele>787.0</ele><time>2026-04-06T14:49:41Z</time></trkpt><trkpt lat="44.87708949476237" lon="4.270829828103732"><ele>789.6666666666666</ele><time>2026-04-06T14:49:43Z</time></trkpt><trkpt lat="44.877124276449116" lon="4.270905484201583"><ele>792.3333333333333</ele><time>2026-04-06T14:49:44Z</time></trkpt><trkpt lat="44.877163981547255" lon="4.271017325542844"><ele>795.0</ele><time>2026-04-06T14:49:46Z</time></trkpt><trkpt lat="44.877165939630416" lon="4.27114847556104"><ele>797.6666666666667</ele><time>2026-04-06T14:49:48Z</time></trkpt><trkpt lat="44.87719306814128" lon="4.271250340321704"><ele>800.3333333333334</ele><time>2026-04-06T14:49:52Z</time></trkpt><trkpt lat="44.87718842132589" lon="4.271345736813897"><ele>803.0</ele><time>2026-04-06T14:49:55Z</time></trkpt><trkpt lat="44.87714648559447" lon="4.271414436698306"><ele>804.8333333333334</ele><time>2026-04-06T14:49:56Z</time></trkpt><trkpt lat="44.877128572220066" lon="4.271567305192051"><ele>806.6666666666667</ele><time>2026-04-06T14:49:58Z</time></trkpt><trkpt lat="44.87710220373501" lon="4.2716539121133446"><ele>808.5</ele><time>2026-04-06T14:50:00Z</time></trkpt><trkpt lat="44.87712863188589" lon="4.271746411011149"><ele>810.3333333333333</ele><time>2026-04-06T14:50:02Z</time></trkpt><trkpt lat="44.87715284486369" lon="4.271832829770915"><ele>812.1666666666666</ele><time>2026-04-06T14:50:06Z</time></trkpt><trkpt lat="44.87717174402381" lon="4.271930340963823"><ele>814.0</ele><time>2026-04-06T14:50:20.999Z</time></trkpt><trkpt lat="44.87725630122362" lon="4.271905814196568"><ele>813.9999999999999</ele><time>2026-04-06T14:50:28.999Z</time></trkpt><trkpt lat="44.87729950567277" lon="4.271798400828871"><ele>814.0</ele><time>2026-04-06T14:50:30.999Z</time></trkpt><trkpt lat="44.87732212966512" lon="4.27167098856511"><ele>814.0</ele><time>2026-04-06T14:50:32.999Z</time></trkpt><trkpt lat="44.877369067628585" lon="4.271570551420666"><ele>814.0</ele><time>2026-04-06T14:50:34.999Z</time></trkpt><trkpt lat="44.877423034582065" lon="4.271484956366265"><ele>813.9999999999999</ele><time>2026-04-06T14:50:36.999Z</time></trkpt><trkpt lat="44.8774569979949" lon="4.271383228264186"><ele>814.0</ele><time>2026-04-06T14:50:40Z</time></trkpt><trkpt lat="44.877485164984144" lon="4.271303449105299"><ele>812.1666666666666</ele><time>2026-04-06T14:50:44Z</time></trkpt><trkpt lat="44.87752324639616" lon="4.271213179975365"><ele>810.3333333333333</ele><time>2026-04-06T14:50:47Z</time></trkpt><trkpt lat="44.87758209111638" lon="4.271153892684163"><ele>808.5</ele><time>2026-04-06T14:50:50Z</time></trkpt><trkpt lat="44.87765885899266" lon="4.271112635783659"><ele>806.6666666666667</ele><time>2026-04-06T14:50:53Z</time></trkpt><trkpt lat="44.87772864096543" lon="4.271102101560224"><ele>804.8333333333334</ele><time>2026-04-06T14:50:56Z</time></trkpt><trkpt lat="44.87780162168144" lon="4.271079253229543"><ele>803.0</ele><time>2026-04-06T14:50:58Z</time></trkpt><trkpt lat="44.87788632054728" lon="4.270989266007109"><ele>806.0000000000001</ele><time>2026-04-06T14:51:00Z</time></trkpt><trkpt lat="44.877957312444046" lon="4.270906157350796"><ele>809.0</ele><time>2026-04-06T14:51:02Z</time></trkpt><trkpt lat="44.87801917181036" lon="4.270808237851681"><ele>812.0</ele><time>2026-04-06T14:51:03Z</time></trkpt><trkpt lat="44.878085891314804" lon="4.270724740947303"><ele>815.0</ele><time>2026-04-06T14:51:04Z</time></trkpt><trkpt lat="44.878137238733395" lon="4.270637905996874"><ele>818.0000000000001</ele><time>2026-04-06T14:51:05Z</time></trkpt><trkpt lat="44.878187188329406" lon="4.270578931630772"><ele>821.0</ele><time>2026-04-06T14:51:06Z</time></trkpt><trkpt lat="44.87824019778794" lon="4.270525896088421"><ele>821.0000000000001</ele><time>2026-04-06T14:51:07Z</time></trkpt><trkpt lat="44.87831557163739" lon="4.270484926394294"><ele>821.0</ele><time>2026-04-06T14:51:09Z</time></trkpt><trkpt lat="44.87839335538802" lon="4.270463502095784"><ele>821.0</ele><time>2026-04-06T14:51:11Z</time></trkpt><trkpt lat="44.878491858231875" lon="4.270431391052211"><ele>821.0</ele><time>2026-04-06T14:51:13Z</time></trkpt><trkpt lat="44.8785798773001" lon="4.270379880986023"><ele>821.0000000000001</ele><time>2026-04-06T14:51:16Z</time></trkpt><trkpt lat="44.8785150358347" lon="4.270401959179073"><ele>821.0</ele><time>2026-04-06T14:51:20Z</time></trkpt><trkpt lat="44.87846003163523" lon="4.270509701434589"><ele>821.0</ele><time>2026-04-06T14:51:35Z</time></trkpt><trkpt lat="44.87842311420475" lon="4.2706054363488795"><ele>821.0</ele><time>2026-04-06T14:51:37Z</time></trkpt><trkpt lat="44.878403107967245" lon="4.270763335845412"><ele>821.0</ele><time>2026-04-06T14:51:39Z</time></trkpt><trkpt lat="44.87837652494539" lon="4.2708517057238184"><ele>821.0</ele><time>2026-04-06T14:51:40Z</time></trkpt><trkpt lat="44.878340211893764" lon="4.271045473379116"><ele>821.0</ele><time>2026-04-06T14:51:42Z</time></trkpt><trkpt lat="44.878292259859386" lon="4.2711527275181185"><ele>824.8</ele><time>2026-04-06T14:51:45Z</time></trkpt><trkpt lat="44.878237790890275" lon="4.27129597651575"><ele>828.5999999999999</ele><time>2026-04-06T14:51:47Z</time></trkpt><trkpt lat="44.87820989795264" lon="4.271410865892405"><ele>832.4</ele><time>2026-04-06T14:51:49Z</time></trkpt><trkpt lat="44.87819146122053" lon="4.271516846267039"><ele>836.2</ele><time>2026-04-06T14:51:51Z</time></trkpt><trkpt lat="44.87814963631069" lon="4.27165083189181"><ele>840.0</ele><time>2026-04-06T14:51:53Z</time></trkpt><trkpt lat="44.878106182936115" lon="4.271759759122796"><ele>843.5</ele><time>2026-04-06T14:51:57Z</time></trkpt><trkpt lat="44.878115490085875" lon="4.271868847776197"><ele>847.0</ele><time>2026-04-06T14:51:58Z</time></trkpt><trkpt lat="44.87809666300655" lon="4.271964486103624"><ele>850.5</ele><time>2026-04-06T14:52:00Z</time></trkpt><trkpt lat="44.87812915489982" lon="4.272080626192887"><ele>854.0</ele><time>2026-04-06T14:52:02Z</time></trkpt><trkpt lat="44.878125347818575" lon="4.272183578753029"><ele>857.5</ele><time>2026-04-06T14:52:04Z</time></trkpt><trkpt lat="44.87808995251285" lon="4.2722741361932925"><ele>861.0</ele><time>2026-04-06T14:52:06Z</time></trkpt><trkpt lat="44.87811541015634" lon="4.27236256359711"><ele>863.0</ele><time>2026-04-06T14:52:08Z</time></trkpt><trkpt lat="44.878113200408876" lon="4.272497240814601"><ele>864.9999999999999</ele><time>2026-04-06T14:52:10Z</time></trkpt><trkpt lat="44.87811155651591" lon="4.272595243436384"><ele>866.9999999999999</ele><time>2026-04-06T14:52:11Z</time></trkpt><trkpt lat="44.878100771510056" lon="4.272699212833145"><ele>869.0</ele><time>2026-04-06T14:52:12Z</time></trkpt><trkpt lat="44.87814046561983" lon="4.272863288266047"><ele>871.0</ele><time>2026-04-06T14:52:13Z</time></trkpt><trkpt lat="44.87819907485649" lon="4.272969757103242"><ele>870.3333333333333</ele><time>2026-04-06T14:52:14Z</time></trkpt><trkpt lat="44.878286377320535" lon="4.273112079511882"><ele>869.6666666666666</ele><time>2026-04-06T14:52:15Z</time></trkpt><trkpt lat="44.87834282333702" lon="4.273204723361327"><ele>869.0</ele><time>2026-04-06T14:52:16Z</time></trkpt><trkpt lat="44.87840464828371" lon="4.273255122120021"><ele>868.3333333333333</ele><time>2026-04-06T14:52:18Z</time></trkpt><trkpt lat="44.87843227281047" lon="4.273352760458896"><ele>867.6666666666666</ele><time>2026-04-06T14:52:20Z</time></trkpt><trkpt lat="44.8784778207228" lon="4.273425325746317"><ele>867.0</ele><time>2026-04-06T14:52:21Z</time></trkpt><trkpt lat="44.87857020031534" lon="4.273495536504603"><ele>871.1428571428571</ele><time>2026-04-06T14:52:23Z</time></trkpt><trkpt lat="44.878656720135645" lon="4.27352998673533"><ele>875.2857142857143</ele><time>2026-04-06T14:52:27Z</time></trkpt><trkpt lat="44.87872705103616" lon="4.273555529841192"><ele>879.4285714285714</ele><time>2026-04-06T14:52:28.999Z</time></trkpt><trkpt lat="44.878775211256496" lon="4.273627597462875"><ele>883.5714285714286</ele><time>2026-04-06T14:52:29.999Z</time></trkpt><trkpt lat="44.878832884013335" lon="4.273704458730884"><ele>887.7142857142858</ele><time>2026-04-06T14:52:32.999Z</time></trkpt><trkpt lat="44.87886105736748" lon="4.273787121934898"><ele>891.8571428571429</ele><time>2026-04-06T14:52:34.999Z</time></trkpt><trkpt lat="44.87889730000073" lon="4.273873828253006"><ele>896.0</ele><time>2026-04-06T14:52:36.999Z</time></trkpt><trkpt lat="44.87894878872434" lon="4.273987285053991"><ele>896.0000000000001</ele><time>2026-04-06T14:52:39.999Z</time></trkpt><trkpt lat="44.87899769779616" lon="4.274069909191675"><ele>896.0</ele><time>2026-04-06T14:52:41.999Z</time></trkpt><trkpt lat="44.87907800495698" lon="4.274136609726386"><ele>896.0</ele><time>2026-04-06T14:52:43.999Z</time></trkpt><trkpt lat="44.87913966162188" lon="4.274292423572349"><ele>896.0</ele><time>2026-04-06T14:52:46Z</time></trkpt><trkpt lat="44.87918083474801" lon="4.274390000858106"><ele>896.0000000000001</ele><time>2026-04-06T14:52:48Z</time></trkpt><trkpt lat="44.87924512565791" lon="4.274390731857149"><ele>896.0</ele><time>2026-04-06T14:52:52Z</time></trkpt><trkpt lat="44.87927983435182" lon="4.27427683206164"><ele>896.0000000000001</ele><time>2026-04-06T14:52:54Z</time></trkpt><trkpt lat="44.87926347878627" lon="4.274177011464254"><ele>896.0</ele><time>2026-04-06T14:52:56Z</time></trkpt><trkpt lat="44.87932501813371" lon="4.274267861802887"><ele>896.0</ele><time>2026-04-06T14:53:06Z</time></trkpt><trkpt lat="44.8793659068047" lon="4.274373131124505"><ele>896.0</ele><time>2026-04-06T14:53:10Z</time></trkpt><trkpt lat="44.87942027803611" lon="4.274422579628799"><ele>896.0000000000001</ele><time>2026-04-06T14:53:11Z</time></trkpt><trkpt lat="44.87948256102951" lon="4.274484116755814"><ele>896.0</ele><time>2026-04-06T14:53:13Z</time></trkpt><trkpt lat="44.879552284306435" lon="4.2745216249753435"><ele>901.3333333333334</ele><time>2026-04-06T14:53:15Z</time></trkpt><trkpt lat="44.879613662103324" lon="4.274558536186279"><ele>906.6666666666667</ele><time>2026-04-06T14:53:17Z</time></trkpt><trkpt lat="44.879699989795384" lon="4.27454017540482"><ele>912.0</ele><time>2026-04-06T14:53:19Z</time></trkpt><trkpt lat="44.87976298073342" lon="4.2745532034232285"><ele>917.3333333333333</ele><time>2026-04-06T14:53:21Z</time></trkpt><trkpt lat="44.879860745207935" lon="4.274527969456608"><ele>922.6666666666666</ele><time>2026-04-06T14:53:22Z</time></trkpt><trkpt lat="44.879949327060615" lon="4.274514307584249"><ele>928.0</ele><time>2026-04-06T14:53:23Z</time></trkpt><trkpt lat="44.88003585845679" lon="4.274482029117298"><ele>929.4</ele><time>2026-04-06T14:53:24Z</time></trkpt><trkpt lat="44.880141451285915" lon="4.274420444195425"><ele>930.8</ele><time>2026-04-06T14:53:26Z</time></trkpt><trkpt lat="44.88023229122552" lon="4.274366329599073"><ele>932.2</ele><time>2026-04-06T14:53:28Z</time></trkpt><trkpt lat="44.88030120643727" lon="4.2743784765074"><ele>933.6</ele><time>2026-04-06T14:53:30Z</time></trkpt><trkpt lat="44.880375673944336" lon="4.2742688155272734"><ele>935.0</ele><time>2026-04-06T14:53:33Z</time></trkpt><trkpt lat="44.88044494363374" lon="4.2742427573210735"><ele>935.0000000000001</ele><time>2026-04-06T14:53:36Z</time></trkpt><trkpt lat="44.880545141877434" lon="4.274273988588535"><ele>935.0</ele><time>2026-04-06T14:53:39Z</time></trkpt><trkpt lat="44.88059903933073" lon="4.274225108394121"><ele>935.0</ele><time>2026-04-06T14:53:41Z</time></trkpt><trkpt lat="44.88067462952048" lon="4.274155683720497"><ele>935.0</ele><time>2026-04-06T14:53:45Z</time></trkpt><trkpt lat="44.880722920600576" lon="4.274085501565776"><ele>935.0000000000001</ele><time>2026-04-06T14:53:49Z</time></trkpt><trkpt lat="44.88076682485179" lon="4.274200487232954"><ele>935.0</ele><time>2026-04-06T14:54:03Z</time></trkpt><trkpt lat="44.880813937553775" lon="4.274136943761102"><ele>935.0000000000001</ele><time>2026-04-06T14:54:33Z</time></trkpt><trkpt lat="44.88087871446897" lon="4.2741427527751314"><ele>935.0</ele><time>2026-04-06T14:54:49.999Z</time></trkpt><trkpt lat="44.88096400448943" lon="4.274144801440325"><ele>935.0000000000001</ele><time>2026-04-06T14:54:59Z</time></trkpt><trkpt lat="44.88103388302007" lon="4.2741427246779145"><ele>935.0000000000001</ele><time>2026-04-06T14:55:01Z</time></trkpt><trkpt lat="44.881097275525896" lon="4.274182984413862"><ele>935.0</ele><time>2026-04-06T14:55:03Z</time></trkpt><trkpt lat="44.881155226973696" lon="4.274226515674791"><ele>935.0000000000001</ele><time>2026-04-06T14:55:04Z</time></trkpt><trkpt lat="44.881222889874735" lon="4.274249250853883"><ele>935.0000000000001</ele><time>2026-04-06T14:55:06Z</time></trkpt><trkpt lat="44.881297698371334" lon="4.274246671246401"><ele>935.8333333333334</ele><time>2026-04-06T14:55:07Z</time></trkpt><trkpt lat="44.881407432499515" lon="4.274244317733479"><ele>936.6666666666667</ele><time>2026-04-06T14:55:09Z</time></trkpt><trkpt lat="44.881479888571384" lon="4.274247223589163"><ele>937.5</ele><time>2026-04-06T14:55:11Z</time></trkpt><trkpt lat="44.88153181128971" lon="4.274182957434477"><ele>938.3333333333333</ele><time>2026-04-06T14:55:16Z</time></trkpt><trkpt lat="44.88159799807147" lon="4.274140726290962"><ele>939.1666666666666</ele><time>2026-04-06T14:55:19Z</time></trkpt><trkpt lat="44.88167449696975" lon="4.274121205648102"><ele>940.0</ele><time>2026-04-06T14:55:21Z</time></trkpt><trkpt lat="44.88175485568783" lon="4.274081471086038"><ele>940.8333333333333</ele><time>2026-04-06T14:55:24Z</time></trkpt><trkpt lat="44.8818227556379" lon="4.274058375680655"><ele>941.6666666666666</ele><time>2026-04-06T14:55:26Z</time></trkpt><trkpt lat="44.881904945041875" lon="4.274018079413564"><ele>942.5</ele><time>2026-04-06T14:55:27Z</time></trkpt><trkpt lat="44.88196821257824" lon="4.273953251841411"><ele>943.3333333333333</ele><time>2026-04-06T14:55:28Z</time></trkpt><trkpt lat="44.88203730197826" lon="4.27387839576817"><ele>944.1666666666666</ele><time>2026-04-06T14:55:30Z</time></trkpt><trkpt lat="44.882129558717914" lon="4.273785577390919"><ele>945.0</ele><time>2026-04-06T14:55:32Z</time></trkpt><trkpt lat="44.882188283494166" lon="4.273823725232445"><ele>950.2</ele><time>2026-04-06T14:55:35Z</time></trkpt><trkpt lat="44.88226190591757" lon="4.273825419157805"><ele>955.4</ele><time>2026-04-06T14:55:36Z</time></trkpt><trkpt lat="44.882346802981225" lon="4.2737654006887"><ele>960.5999999999999</ele><time>2026-04-06T14:55:38Z</time></trkpt><trkpt lat="44.88241054061675" lon="4.2737590142642485"><ele>965.8</ele><time>2026-04-06T14:55:40Z</time></trkpt><trkpt lat="44.882516551709074" lon="4.273687993169862"><ele>971.0</ele><time>2026-04-06T14:55:43Z</time></trkpt><trkpt lat="44.88262584748049" lon="4.273668867730239"><ele>972.8</ele><time>2026-04-06T14:55:46Z</time></trkpt><trkpt lat="44.88270083344032" lon="4.273541230464263"><ele>974.5999999999999</ele><time>2026-04-06T14:55:48Z</time></trkpt><trkpt lat="44.882761349909266" lon="4.273462084856341"><ele>976.4</ele><time>2026-04-06T14:55:49Z</time></trkpt><trkpt lat="44.88282974689206" lon="4.2733669024764795"><ele>978.2</ele><time>2026-04-06T14:55:50Z</time></trkpt><trkpt lat="44.88287107289318" lon="4.273274654554223"><ele>980.0</ele><time>2026-04-06T14:55:51Z</time></trkpt><trkpt lat="44.882918917688094" lon="4.273189098139473"><ele>981.0</ele><time>2026-04-06T14:55:52Z</time></trkpt><trkpt lat="44.882993341711426" lon="4.2730976052593945"><ele>982.0</ele><time>2026-04-06T14:55:54Z</time></trkpt><trkpt lat="44.883087819897995" lon="4.273033917397217"><ele>983.0</ele><time>2026-04-06T14:55:56Z</time></trkpt><trkpt lat="44.88319318743762" lon="4.272952867693323"><ele>984.0</ele><time>2026-04-06T14:55:58Z</time></trkpt><trkpt lat="44.88324647942453" lon="4.27285325621467"><ele>985.0</ele><time>2026-04-06T14:56:00Z</time></trkpt><trkpt lat="44.883288711693034" lon="4.272745942432495"><ele>985.0</ele><time>2026-04-06T14:56:03Z</time></trkpt><trkpt lat="44.88338325312287" lon="4.272751448997703"><ele>985.0</ele><time>2026-04-06T14:56:34Z</time></trkpt><trkpt lat="44.88348585926352" lon="4.272734567927854"><ele>985.0</ele><time>2026-04-06T14:56:38Z</time></trkpt><trkpt lat="44.88357815640045" lon="4.272687405133147"><ele>985.0</ele><time>2026-04-06T14:56:40Z</time></trkpt><trkpt lat="44.883623627001676" lon="4.27260223494882"><ele>985.0</ele><time>2026-04-06T14:56:41Z</time></trkpt><trkpt lat="44.88367231871118" lon="4.2725122798846"><ele>986.1666666666666</ele><time>2026-04-06T14:56:42Z</time></trkpt><trkpt lat="44.883725929751265" lon="4.272438066998216"><ele>987.3333333333333</ele><time>2026-04-06T14:56:43Z</time></trkpt><trkpt lat="44.883783724679816" lon="4.272361867916037"><ele>988.5</ele><time>2026-04-06T14:56:44Z</time></trkpt><trkpt lat="44.88384397698996" lon="4.272300823088588"><ele>989.6666666666667</ele><time>2026-04-06T14:56:45Z</time></trkpt><trkpt lat="44.88390561601607" lon="4.272226911100071"><ele>990.8333333333334</ele><time>2026-04-06T14:56:46Z</time></trkpt><trkpt lat="44.883955503189405" lon="4.272145937821731"><ele>992.0</ele><time>2026-04-06T14:56:47Z</time></trkpt><trkpt lat="44.883985918048396" lon="4.272060405428425"><ele>992.0000000000001</ele><time>2026-04-06T14:56:48Z</time></trkpt><trkpt lat="44.884022762480086" lon="4.271973423315224"><ele>992.0</ele><time>2026-04-06T14:56:49Z</time></trkpt><trkpt lat="44.88406427497611" lon="4.271874634545516"><ele>992.0</ele><time>2026-04-06T14:56:50Z</time></trkpt><trkpt lat="44.88410786410698" lon="4.2717598509383095"><ele>992.0</ele><time>2026-04-06T14:56:51Z</time></trkpt><trkpt lat="44.88413369866084" lon="4.271649987016889"><ele>992.0000000000001</ele><time>2026-04-06T14:56:51.999Z</time></trkpt><trkpt lat="44.88417431296191" lon="4.271543735283308"><ele>992.0</ele><time>2026-04-06T14:56:52.999Z</time></trkpt><trkpt lat="44.88421611630583" lon="4.271426341400275"><ele>990.8333333333334</ele><time>2026-04-06T14:56:53.999Z</time></trkpt><trkpt lat="44.884259457217475" lon="4.27133146906569"><ele>989.6666666666667</ele><time>2026-04-06T14:56:54.999Z</time></trkpt><trkpt lat="44.88430079094361" lon="4.271231435251187"><ele>988.5</ele><time>2026-04-06T14:56:55.999Z</time></trkpt><trkpt lat="44.88436647228035" lon="4.27114540136554"><ele>987.3333333333333</ele><time>2026-04-06T14:56:56.999Z</time></trkpt><trkpt lat="44.8844301916038" lon="4.271045489492296"><ele>986.1666666666666</ele><time>2026-04-06T14:56:58Z</time></trkpt><trkpt lat="44.88450432646996" lon="4.270967492961623"><ele>985.0</ele><time>2026-04-06T14:56:59Z</time></trkpt><trkpt lat="44.884575059925744" lon="4.270927331514847"><ele>986.8333333333333</ele><time>2026-04-06T14:57:00Z</time></trkpt><trkpt lat="44.88461695636105" lon="4.2708547422524505"><ele>988.6666666666666</ele><time>2026-04-06T14:57:01Z</time></trkpt><trkpt lat="44.88465502104945" lon="4.270753983061034"><ele>990.5</ele><time>2026-04-06T14:57:02Z</time></trkpt><trkpt lat="44.884696299919256" lon="4.270641670722226"><ele>992.3333333333333</ele><time>2026-04-06T14:57:03Z</time></trkpt><trkpt lat="44.884744514602104" lon="4.270528840597246"><ele>994.1666666666666</ele><time>2026-04-06T14:57:04Z</time></trkpt><trkpt lat="44.884802677927006" lon="4.270419224031578"><ele>996.0</ele><time>2026-04-06T14:57:05Z</time></trkpt><trkpt lat="44.8848649452957" lon="4.270293465039878"><ele>996.0</ele><time>2026-04-06T14:57:06Z</time></trkpt><trkpt lat="44.88491818376739" lon="4.270179864823721"><ele>995.9999999999999</ele><time>2026-04-06T14:57:07Z</time></trkpt><trkpt lat="44.88495674719464" lon="4.27005786267024"><ele>995.9999999999999</ele><time>2026-04-06T14:57:08Z</time></trkpt><trkpt lat="44.88502614517965" lon="4.269918195279439"><ele>996.0</ele><time>2026-04-06T14:57:09Z</time></trkpt><trkpt lat="44.88509386012837" lon="4.269785396239478"><ele>996.0</ele><time>2026-04-06T14:57:10Z</time></trkpt><trkpt lat="44.88516407884305" lon="4.269666507923988"><ele>1000.0</ele><time>2026-04-06T14:57:11Z</time></trkpt><trkpt lat="44.885231140551284" lon="4.269561654672815"><ele>1003.9999999999999</ele><time>2026-04-06T14:57:12Z</time></trkpt><trkpt lat="44.885313474538016" lon="4.2694557734494545"><ele>1007.9999999999999</ele><time>2026-04-06T14:57:13Z</time></trkpt><trkpt lat="44.885385244132685" lon="4.26933180760313"><ele>1012.0</ele><time>2026-04-06T14:57:14Z</time></trkpt><trkpt lat="44.88544118648961" lon="4.269188983387034"><ele>1016.0</ele><time>2026-04-06T14:57:15Z</time></trkpt><trkpt lat="44.885466032222205" lon="4.269029334107151"><ele>1013.5</ele><time>2026-04-06T14:57:16Z</time></trkpt><trkpt lat="44.885513702195375" lon="4.2688917098338255"><ele>1011.0</ele><time>2026-04-06T14:57:17Z</time></trkpt><trkpt lat="44.88554822358208" lon="4.268744889812982"><ele>1008.5</ele><time>2026-04-06T14:57:18Z</time></trkpt><trkpt lat="44.88558565821563" lon="4.268591768106481"><ele>1006.0</ele><time>2026-04-06T14:57:19Z</time></trkpt><trkpt lat="44.88562937553478" lon="4.268435335598569"><ele>1006.0</ele><time>2026-04-06T14:57:20Z</time></trkpt><trkpt lat="44.88568599564619" lon="4.268279406240103"><ele>1006.0</ele><time>2026-04-06T14:57:21Z</time></trkpt><trkpt lat="44.8857524616815" lon="4.268119499660308"><ele>1006.0</ele><time>2026-04-06T14:57:22Z</time></trkpt><trkpt lat="44.8858193900192" lon="4.267957954843092"><ele>1006.0</ele><time>2026-04-06T14:57:23Z</time></trkpt><trkpt lat="44.885877452122436" lon="4.267812216333492"><ele>1006.8</ele><time>2026-04-06T14:57:24Z</time></trkpt><trkpt lat="44.885919916772124" lon="4.2676749105179566"><ele>1007.5999999999999</ele><time>2026-04-06T14:57:25Z</time></trkpt><trkpt lat="44.885980631401274" lon="4.267533862926587"><ele>1008.4</ele><time>2026-04-06T14:57:26Z</time></trkpt><trkpt lat="44.88604691031126" lon="4.26740301861415"><ele>1009.2</ele><time>2026-04-06T14:57:27Z</time></trkpt><trkpt lat="44.886106888521645" lon="4.267277528719706"><ele>1010.0</ele><time>2026-04-06T14:57:28Z</time></trkpt><trkpt lat="44.88618512742015" lon="4.267169484570296"><ele>1010.0000000000001</ele><time>2026-04-06T14:57:29Z</time></trkpt><trkpt lat="44.88625344208822" lon="4.2670645335707"><ele>1010.0</ele><time>2026-04-06T14:57:30Z</time></trkpt><trkpt lat="44.88631704740254" lon="4.266977861438241"><ele>1010.0</ele><time>2026-04-06T14:57:31Z</time></trkpt><trkpt lat="44.88636572914281" lon="4.266895249870897"><ele>1010.0</ele><time>2026-04-06T14:57:32Z</time></trkpt><trkpt lat="44.886425575389815" lon="4.266799559194105"><ele>1010.0000000000001</ele><time>2026-04-06T14:57:34Z</time></trkpt><trkpt lat="44.886468900398526" lon="4.266717764574762"><ele>1010.0</ele><time>2026-04-06T14:57:37Z</time></trkpt><trkpt lat="44.88639275455598" lon="4.266807290663586"><ele>1010.0000000000001</ele><time>2026-04-06T14:57:49Z</time></trkpt><trkpt lat="44.88636476313601" lon="4.266897335520861"><ele>1010.0</ele><time>2026-04-06T14:58:07Z</time></trkpt><trkpt lat="44.886327275546314" lon="4.267038621797344"><ele>1010.0</ele><time>2026-04-06T14:59:13Z</time></trkpt><trkpt lat="44.88635291905386" lon="4.2669351630299435"><ele>1010.0</ele><time>2026-04-06T14:59:48Z</time></trkpt><trkpt lat="44.88634350723321" lon="4.2670278534340556"><ele>1010.0000000000001</ele><time>2026-04-06T15:00:06Z</time></trkpt><trkpt lat="44.886325013009476" lon="4.267126526766454"><ele>1010.0</ele><time>2026-04-06T15:00:51Z</time></trkpt><trkpt lat="44.88639705459063" lon="4.267110052536088"><ele>1010.0000000000001</ele><time>2026-04-06T15:01:00Z</time></trkpt><trkpt lat="44.886468867599476" lon="4.267096182103532"><ele>1010.0</ele><time>2026-04-06T15:01:02Z</time></trkpt><trkpt lat="44.88655151738178" lon="4.267087742514261"><ele>1010.0</ele><time>2026-04-06T15:01:05.999Z</time></trkpt><trkpt lat="44.88663013815711" lon="4.2670128415724715"><ele>1010.0</ele><time>2026-04-06T15:01:08.999Z</time></trkpt><trkpt lat="44.88670257494667" lon="4.266952506983628"><ele>1010.0000000000001</ele><time>2026-04-06T15:01:12Z</time></trkpt><trkpt lat="44.88680104564457" lon="4.266915422479246"><ele>1010.0</ele><time>2026-04-06T15:01:16Z</time></trkpt><trkpt lat="44.88687356953676" lon="4.266832967604126"><ele>1012.2</ele><time>2026-04-06T15:01:18Z</time></trkpt><trkpt lat="44.88695444073874" lon="4.266769098216493"><ele>1014.4</ele><time>2026-04-06T15:01:20Z</time></trkpt><trkpt lat="44.8870066287157" lon="4.266713042112903"><ele>1016.5999999999999</ele><time>2026-04-06T15:01:21Z</time></trkpt><trkpt lat="44.88708845478725" lon="4.266682597244821"><ele>1018.8</ele><time>2026-04-06T15:01:23Z</time></trkpt><trkpt lat="44.8871493115046" lon="4.266554256854472"><ele>1021.0</ele><time>2026-04-06T15:01:28Z</time></trkpt><trkpt lat="44.887209856725306" lon="4.2664304406320985"><ele>1020.9999999999999</ele><time>2026-04-06T15:01:31Z</time></trkpt><trkpt lat="44.88726452755632" lon="4.266372996625801"><ele>1021.0</ele><time>2026-04-06T15:01:33Z</time></trkpt><trkpt lat="44.88733717807274" lon="4.266249004964444"><ele>1021.0</ele><time>2026-04-06T15:01:35Z</time></trkpt><trkpt lat="44.8873995639281" lon="4.2662061878419895"><ele>1021.0</ele><time>2026-04-06T15:01:36Z</time></trkpt><trkpt lat="44.88746244112144" lon="4.266146816314022"><ele>1020.9999999999999</ele><time>2026-04-06T15:01:37Z</time></trkpt><trkpt lat="44.8875308580218" lon="4.266098491946883"><ele>1021.0</ele><time>2026-04-06T15:01:38Z</time></trkpt><trkpt lat="44.887593217731926" lon="4.266060284406851"><ele>1026.0</ele><time>2026-04-06T15:01:39Z</time></trkpt><trkpt lat="44.88765693197749" lon="4.266024147618468"><ele>1031.0</ele><time>2026-04-06T15:01:40Z</time></trkpt><trkpt lat="44.88776281389159" lon="4.265955768518046"><ele>1036.0</ele><time>2026-04-06T15:01:42Z</time></trkpt><trkpt lat="44.8878553327356" lon="4.265891493573744"><ele>1041.0</ele><time>2026-04-06T15:01:44Z</time></trkpt><trkpt lat="44.88794336189738" lon="4.265824363342378"><ele>1046.0</ele><time>2026-04-06T15:01:46Z</time></trkpt><trkpt lat="44.888032510526116" lon="4.26580367363484"><ele>1046.0</ele><time>2026-04-06T15:01:48Z</time></trkpt><trkpt lat="44.888095339378424" lon="4.265787083547231"><ele>1046.0</ele><time>2026-04-06T15:01:49Z</time></trkpt><trkpt lat="44.88820949726647" lon="4.26574784899846"><ele>1046.0</ele><time>2026-04-06T15:01:51Z</time></trkpt><trkpt lat="44.88828451828531" lon="4.2657237145301385"><ele>1046.0</ele><time>2026-04-06T15:01:53Z</time></trkpt><trkpt lat="44.88840255725686" lon="4.265685497400417"><ele>1046.0</ele><time>2026-04-06T15:01:58Z</time></trkpt><trkpt lat="44.888465689728605" lon="4.265602340280717"><ele>1047.9999999999998</ele><time>2026-04-06T15:02:01Z</time></trkpt><trkpt lat="44.888517345800864" lon="4.26554023409096"><ele>1050.0</ele><time>2026-04-06T15:02:02Z</time></trkpt><trkpt lat="44.88857762379059" lon="4.265484489621161"><ele>1052.0</ele><time>2026-04-06T15:02:04Z</time></trkpt><trkpt lat="44.888622203782525" lon="4.265420679741489"><ele>1054.0</ele><time>2026-04-06T15:02:07Z</time></trkpt><trkpt lat="44.88868593027988" lon="4.2653942579137984"><ele>1056.0</ele><time>2026-04-06T15:02:13Z</time></trkpt><trkpt lat="44.888722032156885" lon="4.265307215702432"><ele>1057.9999999999998</ele><time>2026-04-06T15:02:16Z</time></trkpt><trkpt lat="44.88867900826181" lon="4.265384894858351"><ele>1060.0</ele><time>2026-04-06T15:02:27Z</time></trkpt><trkpt lat="44.88868339561454" lon="4.265238842625769"><ele>1060.0</ele><time>2026-04-06T15:03:06.999Z</time></trkpt><trkpt lat="44.88866149546997" lon="4.265127789372838"><ele>1060.0</ele><time>2026-04-06T15:03:08.999Z</time></trkpt><trkpt lat="44.88867755623323" lon="4.26502835052098"><ele>1060.0</ele><time>2026-04-06T15:03:11.999Z</time></trkpt><trkpt lat="44.8887109178883" lon="4.264890166882592"><ele>1060.0</ele><time>2026-04-06T15:03:14.999Z</time></trkpt><trkpt lat="44.888754376967" lon="4.264800843237797"><ele>1060.0</ele><time>2026-04-06T15:03:17Z</time></trkpt><trkpt lat="44.88879843148273" lon="4.264685360753997"><ele>1060.0</ele><time>2026-04-06T15:03:19Z</time></trkpt><trkpt lat="44.888833163284964" lon="4.264571249356147"><ele>1061.0</ele><time>2026-04-06T15:03:21Z</time></trkpt><trkpt lat="44.88885269105483" lon="4.264481827148335"><ele>1062.0</ele><time>2026-04-06T15:03:23Z</time></trkpt><trkpt lat="44.88889913983857" lon="4.2644106156059784"><ele>1063.0</ele><time>2026-04-06T15:03:25Z</time></trkpt><trkpt lat="44.88891266106074" lon="4.264269635396596"><ele>1064.0</ele><time>2026-04-06T15:03:27Z</time></trkpt><trkpt lat="44.88892634702558" lon="4.264087021438471"><ele>1065.0</ele><time>2026-04-06T15:03:29Z</time></trkpt><trkpt lat="44.88893492263451" lon="4.263983406131976"><ele>1066.0</ele><time>2026-04-06T15:03:30Z</time></trkpt><trkpt lat="44.888942917016045" lon="4.263886404927311"><ele>1066.0</ele><time>2026-04-06T15:03:31Z</time></trkpt><trkpt lat="44.88895023624194" lon="4.263783812901865"><ele>1066.0</ele><time>2026-04-06T15:03:33Z</time></trkpt><trkpt lat="44.88900640005536" lon="4.263825659146293"><ele>1066.0</ele><time>2026-04-06T15:03:37Z</time></trkpt><trkpt lat="44.88900106412957" lon="4.263951073441397"><ele>1066.0</ele><time>2026-04-06T15:03:39Z</time></trkpt><trkpt lat="44.88902287185709" lon="4.264063199199285"><ele>1066.0</ele><time>2026-04-06T15:03:41Z</time></trkpt><trkpt lat="44.889092213014585" lon="4.264062452398988"><ele>1066.0</ele><time>2026-04-06T15:03:43Z</time></trkpt><trkpt lat="44.88911237092902" lon="4.263918095315128"><ele>1066.0</ele><time>2026-04-06T15:03:45Z</time></trkpt><trkpt lat="44.889139353195404" lon="4.263779025647689"><ele>1066.0</ele><time>2026-04-06T15:03:47Z</time></trkpt><trkpt lat="44.889156462514585" lon="4.26362175411812"><ele>1066.0</ele><time>2026-04-06T15:03:49Z</time></trkpt><trkpt lat="44.889169558560276" lon="4.263519419156979"><ele>1066.0</ele><time>2026-04-06T15:03:50Z</time></trkpt><trkpt lat="44.889211441732336" lon="4.263407415512542"><ele>1066.0</ele><time>2026-04-06T15:03:52Z</time></trkpt><trkpt lat="44.88927827761094" lon="4.263515341259116"><ele>1071.6</ele><time>2026-04-06T15:03:55Z</time></trkpt><trkpt lat="44.88927458853912" lon="4.263606032971184"><ele>1077.1999999999998</ele><time>2026-04-06T15:03:56Z</time></trkpt><trkpt lat="44.889269788010715" lon="4.263780417527724"><ele>1082.8000000000002</ele><time>2026-04-06T15:03:58Z</time></trkpt><trkpt lat="44.88928897810379" lon="4.263922023498137"><ele>1088.4</ele><time>2026-04-06T15:04:00Z</time></trkpt><trkpt lat="44.88936059198655" lon="4.263957197250992"><ele>1094.0</ele><time>2026-04-06T15:04:03Z</time></trkpt><trkpt lat="44.88941449911864" lon="4.263815799626892"><ele>1094.0</ele><time>2026-04-06T15:04:05Z</time></trkpt><trkpt lat="44.88944142375131" lon="4.263711224462214"><ele>1094.0</ele><time>2026-04-06T15:04:06Z</time></trkpt><trkpt lat="44.88945434476093" lon="4.263618441906087"><ele>1094.0</ele><time>2026-04-06T15:04:07Z</time></trkpt><trkpt lat="44.88949974103296" lon="4.263501503440277"><ele>1094.0</ele><time>2026-04-06T15:04:08Z</time></trkpt><trkpt lat="44.889555337140486" lon="4.2633998395539345"><ele>1094.0</ele><time>2026-04-06T15:04:09Z</time></trkpt><trkpt lat="44.88961825277834" lon="4.263300786298206"><ele>1094.0</ele><time>2026-04-06T15:04:10Z</time></trkpt><trkpt lat="44.88967035492244" lon="4.2632394772698605"><ele>1094.0</ele><time>2026-04-06T15:04:11Z</time></trkpt><trkpt lat="44.8897285167062" lon="4.263190625765106"><ele>1094.0</ele><time>2026-04-06T15:04:12Z</time></trkpt><trkpt lat="44.8897913678843" lon="4.26310727768232"><ele>1094.0</ele><time>2026-04-06T15:04:13Z</time></trkpt><trkpt lat="44.88985288950262" lon="4.263021297558917"><ele>1094.0</ele><time>2026-04-06T15:04:14Z</time></trkpt><trkpt lat="44.88990146643293" lon="4.262928025897958"><ele>1094.0</ele><time>2026-04-06T15:04:15Z</time></trkpt><trkpt lat="44.88993965526516" lon="4.262823235293608"><ele>1094.0</ele><time>2026-04-06T15:04:16Z</time></trkpt><trkpt lat="44.8899685790637" lon="4.2627289072550765"><ele>1093.8333333333335</ele><time>2026-04-06T15:04:17Z</time></trkpt><trkpt lat="44.889999712165604" lon="4.262646410204492"><ele>1093.6666666666667</ele><time>2026-04-06T15:04:18Z</time></trkpt><trkpt lat="44.890066974122355" lon="4.262497746712252"><ele>1093.5</ele><time>2026-04-06T15:04:20Z</time></trkpt><trkpt lat="44.8900887641538" lon="4.262409434121991"><ele>1093.3333333333333</ele><time>2026-04-06T15:04:21Z</time></trkpt><trkpt lat="44.890095964412765" lon="4.2622348233493375"><ele>1093.1666666666665</ele><time>2026-04-06T15:04:23Z</time></trkpt><trkpt lat="44.89007367854548" lon="4.262149682325766"><ele>1093.0</ele><time>2026-04-06T15:04:24Z</time></trkpt><trkpt lat="44.89002785807644" lon="4.262065866908901"><ele>1095.5</ele><time>2026-04-06T15:04:25Z</time></trkpt><trkpt lat="44.88992116984991" lon="4.261971451060726"><ele>1098.0</ele><time>2026-04-06T15:04:27Z</time></trkpt><trkpt lat="44.889849377913706" lon="4.261950907362174"><ele>1100.5</ele><time>2026-04-06T15:04:28Z</time></trkpt><trkpt lat="44.88992328497349" lon="4.261928590443653"><ele>1103.0</ele><time>2026-04-06T15:04:34Z</time></trkpt><trkpt lat="44.89000596904427" lon="4.261896169823324"><ele>1105.5</ele><time>2026-04-06T15:04:36Z</time></trkpt><trkpt lat="44.89006395762135" lon="4.261847321903039"><ele>1108.0</ele><time>2026-04-06T15:04:37Z</time></trkpt><trkpt lat="44.8901253751086" lon="4.2617954413093795"><ele>1109.8333333333333</ele><time>2026-04-06T15:04:38Z</time></trkpt><trkpt lat="44.890177355207676" lon="4.2617374534693315"><ele>1111.6666666666665</ele><time>2026-04-06T15:04:39Z</time></trkpt><trkpt lat="44.89022918634641" lon="4.26167502939422"><ele>1113.5</ele><time>2026-04-06T15:04:40Z</time></trkpt><trkpt lat="44.89032550849362" lon="4.2615454486203745"><ele>1115.3333333333333</ele><time>2026-04-06T15:04:42Z</time></trkpt><trkpt lat="44.89038051440034" lon="4.261482402872388"><ele>1117.1666666666667</ele><time>2026-04-06T15:04:43Z</time></trkpt><trkpt lat="44.890427820182516" lon="4.261398888387872"><ele>1119.0</ele><time>2026-04-06T15:04:44Z</time></trkpt><trkpt lat="44.89049161779277" lon="4.261295105221936"><ele>1120.6666666666667</ele><time>2026-04-06T15:04:45Z</time></trkpt><trkpt lat="44.890559341254225" lon="4.261182202472425"><ele>1122.3333333333333</ele><time>2026-04-06T15:04:46Z</time></trkpt><trkpt lat="44.89061083751628" lon="4.261093421721752"><ele>1124.0</ele><time>2026-04-06T15:04:47Z</time></trkpt><trkpt lat="44.890668453581476" lon="4.261029091000551"><ele>1125.6666666666665</ele><time>2026-04-06T15:04:48Z</time></trkpt><trkpt lat="44.89074518315077" lon="4.260963036676595"><ele>1127.3333333333333</ele><time>2026-04-06T15:04:49Z</time></trkpt><trkpt lat="44.890818996556405" lon="4.260933830113165"><ele>1129.0</ele><time>2026-04-06T15:04:50Z</time></trkpt><trkpt lat="44.89088053595435" lon="4.2608596743132745"><ele>1129.0</ele><time>2026-04-06T15:04:52Z</time></trkpt><trkpt lat="44.8908673509167" lon="4.260751745001783"><ele>1129.0</ele><time>2026-04-06T15:04:54Z</time></trkpt><trkpt lat="44.89069677031682" lon="4.260676012397299"><ele>1129.0</ele><time>2026-04-06T15:04:56Z</time></trkpt><trkpt lat="44.89056880390662" lon="4.260666568271101"><ele>1129.0</ele><time>2026-04-06T15:04:57Z</time></trkpt><trkpt lat="44.8904827478597" lon="4.260629209398012"><ele>1129.0</ele><time>2026-04-06T15:04:58Z</time></trkpt><trkpt lat="44.890393415655986" lon="4.260619960364291"><ele>1129.0</ele><time>2026-04-06T15:05:00Z</time></trkpt><trkpt lat="44.89047828298964" lon="4.260585329577103"><ele>1129.0</ele><time>2026-04-06T15:05:03Z</time></trkpt><trkpt lat="44.890623666851" lon="4.260556192145775"><ele>1129.0</ele><time>2026-04-06T15:05:06Z</time></trkpt><trkpt lat="44.890796425303556" lon="4.260565093835972"><ele>1131.5</ele><time>2026-04-06T15:05:06.999Z</time></trkpt><trkpt lat="44.890893478833" lon="4.260557645938944"><ele>1134.0</ele><time>2026-04-06T15:05:07.999Z</time></trkpt><trkpt lat="44.89096483035065" lon="4.26054921178674"><ele>1136.5</ele><time>2026-04-06T15:05:08.999Z</time></trkpt><trkpt lat="44.89103573478414" lon="4.260530486822423"><ele>1139.0</ele><time>2026-04-06T15:05:09.999Z</time></trkpt><trkpt lat="44.89112363086163" lon="4.260525447040451"><ele>1141.5</ele><time>2026-04-06T15:05:10.999Z</time></trkpt><trkpt lat="44.89119919745942" lon="4.260536803966392"><ele>1144.0</ele><time>2026-04-06T15:05:11.999Z</time></trkpt><trkpt lat="44.89126947728073" lon="4.260574923804173"><ele>1144.0</ele><time>2026-04-06T15:05:12.999Z</time></trkpt><trkpt lat="44.89136566350345" lon="4.260590800870816"><ele>1144.0</ele><time>2026-04-06T15:05:13.999Z</time></trkpt><trkpt lat="44.89147207275828" lon="4.2606082072863165"><ele>1144.0</ele><time>2026-04-06T15:05:14.999Z</time></trkpt><trkpt lat="44.89156446538709" lon="4.2606454803630305"><ele>1144.0</ele><time>2026-04-06T15:05:15.999Z</time></trkpt><trkpt lat="44.891629498745296" lon="4.260654045824253"><ele>1144.0</ele><time>2026-04-06T15:05:16.999Z</time></trkpt><trkpt lat="44.89171526623258" lon="4.260537384917691"><ele>1144.0</ele><time>2026-04-06T15:05:18.999Z</time></trkpt><trkpt lat="44.891751273576396" lon="4.260458123865943"><ele>1144.0</ele><time>2026-04-06T15:05:19.999Z</time></trkpt><trkpt lat="44.89180982605669" lon="4.260314850396699"><ele>1144.0</ele><time>2026-04-06T15:05:22Z</time></trkpt><trkpt lat="44.891846925495216" lon="4.260237839372232"><ele>1144.0</ele><time>2026-04-06T15:05:23Z</time></trkpt><trkpt lat="44.89189016472987" lon="4.260154753162947"><ele>1144.0</ele><time>2026-04-06T15:05:24Z</time></trkpt><trkpt lat="44.891923042667486" lon="4.260042712458545"><ele>1144.0</ele><time>2026-04-06T15:05:25Z</time></trkpt><trkpt lat="44.89195381441601" lon="4.259901538583722"><ele>1146.0</ele><time>2026-04-06T15:05:26Z</time></trkpt><trkpt lat="44.89198987523391" lon="4.25975133303934"><ele>1148.0</ele><time>2026-04-06T15:05:27Z</time></trkpt><trkpt lat="44.89201900416729" lon="4.259594441912608"><ele>1150.0</ele><time>2026-04-06T15:05:28Z</time></trkpt><trkpt lat="44.89203632742968" lon="4.259443495420184"><ele>1152.0</ele><time>2026-04-06T15:05:29Z</time></trkpt><trkpt lat="44.892051941971594" lon="4.259278468571413"><ele>1152.0</ele><time>2026-04-06T15:05:30Z</time></trkpt><trkpt lat="44.89207754090717" lon="4.259118695017572"><ele>1152.0</ele><time>2026-04-06T15:05:31Z</time></trkpt><trkpt lat="44.89210926340201" lon="4.25895782841738"><ele>1152.0</ele><time>2026-04-06T15:05:32Z</time></trkpt><trkpt lat="44.892147405307895" lon="4.258817111125089"><ele>1152.0</ele><time>2026-04-06T15:05:33Z</time></trkpt><trkpt lat="44.89218203398075" lon="4.258673584067761"><ele>1152.0</ele><time>2026-04-06T15:05:34Z</time></trkpt><trkpt lat="44.89221069758103" lon="4.2585410687429475"><ele>1152.8333333333333</ele><time>2026-04-06T15:05:35Z</time></trkpt><trkpt lat="44.89224218038094" lon="4.258417136480925"><ele>1153.6666666666667</ele><time>2026-04-06T15:05:36Z</time></trkpt><trkpt lat="44.8922663685589" lon="4.25829050874714"><ele>1154.5</ele><time>2026-04-06T15:05:37Z</time></trkpt><trkpt lat="44.89229322228467" lon="4.258168649472133"><ele>1155.3333333333335</ele><time>2026-04-06T15:05:38Z</time></trkpt><trkpt lat="44.89232612125628" lon="4.25809174500885"><ele>1156.1666666666667</ele><time>2026-04-06T15:05:39Z</time></trkpt><trkpt lat="44.89235274705119" lon="4.258010380162216"><ele>1157.0</ele><time>2026-04-06T15:05:40Z</time></trkpt><trkpt lat="44.89240268688018" lon="4.257894862060873"><ele>1157.8</ele><time>2026-04-06T15:05:42Z</time></trkpt><trkpt lat="44.89244502732012" lon="4.257961658553658"><ele>1158.6</ele><time>2026-04-06T15:05:45Z</time></trkpt><trkpt lat="44.892584969691164" lon="4.257978923130925"><ele>1159.3999999999999</ele><time>2026-04-06T15:06:12Z</time></trkpt><trkpt lat="44.89268023548991" lon="4.257985367642273"><ele>1160.2</ele><time>2026-04-06T15:06:13Z</time></trkpt><trkpt lat="44.89277278007362" lon="4.2580091733810255"><ele>1161.0</ele><time>2026-04-06T15:06:14Z</time></trkpt><trkpt lat="44.89288004047432" lon="4.258027229865919"><ele>1161.0</ele><time>2026-04-06T15:06:15Z</time></trkpt><trkpt lat="44.89297446572971" lon="4.258060923761294"><ele>1161.0</ele><time>2026-04-06T15:06:16Z</time></trkpt><trkpt lat="44.893102554160826" lon="4.258104384859599"><ele>1161.0</ele><time>2026-04-06T15:06:17Z</time></trkpt><trkpt lat="44.89321204907907" lon="4.25814087014024"><ele>1161.0</ele><time>2026-04-06T15:06:18Z</time></trkpt><trkpt lat="44.893318400507525" lon="4.258164931151552"><ele>1161.0</ele><time>2026-04-06T15:06:19Z</time></trkpt><trkpt lat="44.89341758405021" lon="4.258186485832936"><ele>1160.3333333333333</ele><time>2026-04-06T15:06:20Z</time></trkpt><trkpt lat="44.893506712961724" lon="4.258196258803618"><ele>1159.6666666666667</ele><time>2026-04-06T15:06:21Z</time></trkpt><trkpt lat="44.893595645267034" lon="4.258215935035269"><ele>1159.0</ele><time>2026-04-06T15:06:22Z</time></trkpt><trkpt lat="44.893681287496726" lon="4.258235940075704"><ele>1158.3333333333335</ele><time>2026-04-06T15:06:23Z</time></trkpt><trkpt lat="44.893767955983705" lon="4.258243649365385"><ele>1157.6666666666667</ele><time>2026-04-06T15:06:24Z</time></trkpt><trkpt lat="44.89386065210246" lon="4.258238141564538"><ele>1157.0</ele><time>2026-04-06T15:06:25Z</time></trkpt><trkpt lat="44.89395981667263" lon="4.258223003687099"><ele>1157.0</ele><time>2026-04-06T15:06:26Z</time></trkpt><trkpt lat="44.89407118809538" lon="4.258208804863438"><ele>1157.0</ele><time>2026-04-06T15:06:27Z</time></trkpt><trkpt lat="44.89417011097937" lon="4.258187791127275"><ele>1157.0</ele><time>2026-04-06T15:06:28Z</time></trkpt><trkpt lat="44.89427282775148" lon="4.258154313139907"><ele>1157.0</ele><time>2026-04-06T15:06:29Z</time></trkpt><trkpt lat="44.89437786334392" lon="4.25813581980777"><ele>1157.0</ele><time>2026-04-06T15:06:30Z</time></trkpt><trkpt lat="44.89448638327377" lon="4.258118225771835"><ele>1158.6</ele><time>2026-04-06T15:06:31Z</time></trkpt><trkpt lat="44.894592910219174" lon="4.25810867429126"><ele>1160.2</ele><time>2026-04-06T15:06:32Z</time></trkpt><trkpt lat="44.89469070534947" lon="4.258101849804897"><ele>1161.8</ele><time>2026-04-06T15:06:33Z</time></trkpt><trkpt lat="44.894790094429815" lon="4.258092615200371"><ele>1163.4</ele><time>2026-04-06T15:06:34Z</time></trkpt><trkpt lat="44.89488147081617" lon="4.258088134241738"><ele>1165.0</ele><time>2026-04-06T15:06:35Z</time></trkpt><trkpt lat="44.894984175650514" lon="4.25810856985945"><ele>1161.75</ele><time>2026-04-06T15:06:36Z</time></trkpt><trkpt lat="44.89509631154999" lon="4.258092763769489"><ele>1158.5</ele><time>2026-04-06T15:06:37Z</time></trkpt><trkpt lat="44.895203906284436" lon="4.258073729656989"><ele>1155.25</ele><time>2026-04-06T15:06:38Z</time></trkpt><trkpt lat="44.895328092393164" lon="4.258064598304533"><ele>1152.0</ele><time>2026-04-06T15:06:39Z</time></trkpt><trkpt lat="44.89544202548011" lon="4.258082599659872"><ele>1152.0</ele><time>2026-04-06T15:06:40Z</time></trkpt><trkpt lat="44.89554680110928" lon="4.258084312599022"><ele>1152.0</ele><time>2026-04-06T15:06:41Z</time></trkpt><trkpt lat="44.89564663260547" lon="4.258067576856354"><ele>1152.0</ele><time>2026-04-06T15:06:42Z</time></trkpt><trkpt lat="44.89574203670821" lon="4.258052377967096"><ele>1152.0</ele><time>2026-04-06T15:06:43Z</time></trkpt><trkpt lat="44.895839983315746" lon="4.258050658032306"><ele>1152.0</ele><time>2026-04-06T15:06:44Z</time></trkpt><trkpt lat="44.895954790415324" lon="4.258075543511606"><ele>1150.25</ele><time>2026-04-06T15:06:45Z</time></trkpt><trkpt lat="44.896086166654435" lon="4.258122028545143"><ele>1148.5</ele><time>2026-04-06T15:06:46Z</time></trkpt><trkpt lat="44.896219661649944" lon="4.258172049249686"><ele>1146.75</ele><time>2026-04-06T15:06:47Z</time></trkpt><trkpt lat="44.89633708668205" lon="4.258216585975876"><ele>1145.0</ele><time>2026-04-06T15:06:48Z</time></trkpt><trkpt lat="44.89645004771198" lon="4.2582513892521145"><ele>1145.0</ele><time>2026-04-06T15:06:49Z</time></trkpt><trkpt lat="44.89656314978958" lon="4.258293138216947"><ele>1145.0</ele><time>2026-04-06T15:06:50Z</time></trkpt><trkpt lat="44.89669840052" lon="4.258348133593001"><ele>1145.0</ele><time>2026-04-06T15:06:51Z</time></trkpt><trkpt lat="44.89685066085885" lon="4.258397753470308"><ele>1145.0</ele><time>2026-04-06T15:06:52Z</time></trkpt><trkpt lat="44.89701366870265" lon="4.258442810647068"><ele>1144.6666666666667</ele><time>2026-04-06T15:06:53Z</time></trkpt><trkpt lat="44.89717973038727" lon="4.258467852314254"><ele>1144.3333333333333</ele><time>2026-04-06T15:06:54Z</time></trkpt><trkpt lat="44.8973295833839" lon="4.258498738386973"><ele>1144.0</ele><time>2026-04-06T15:06:55Z</time></trkpt><trkpt lat="44.897483282988446" lon="4.258520783672448"><ele>1143.75</ele><time>2026-04-06T15:06:56Z</time></trkpt><trkpt lat="44.89763314075005" lon="4.258551336699501"><ele>1143.5</ele><time>2026-04-06T15:06:57Z</time></trkpt><trkpt lat="44.89776748630713" lon="4.258586796745686"><ele>1143.25</ele><time>2026-04-06T15:06:58Z</time></trkpt><trkpt lat="44.89790236644439" lon="4.258624933603285"><ele>1143.0</ele><time>2026-04-06T15:06:59Z</time></trkpt><trkpt lat="44.898039570625194" lon="4.258654346991264"><ele>1143.0</ele><time>2026-04-06T15:07:00Z</time></trkpt><trkpt lat="44.898173658204136" lon="4.25867127971131"><ele>1143.0</ele><time>2026-04-06T15:07:01Z</time></trkpt><trkpt lat="44.898321141314426" lon="4.25864606429201"><ele>1143.0</ele><time>2026-04-06T15:07:02Z</time></trkpt><trkpt lat="44.89846662819499" lon="4.258618823405116"><ele>1143.0</ele><time>2026-04-06T15:07:03Z</time></trkpt><trkpt lat="44.89861032461377" lon="4.258581084605374"><ele>1143.6666666666667</ele><time>2026-04-06T15:07:04Z</time></trkpt><trkpt lat="44.89875736806442" lon="4.258563070152647"><ele>1144.3333333333335</ele><time>2026-04-06T15:07:05Z</time></trkpt><trkpt lat="44.898912491002854" lon="4.258569629193506"><ele>1145.0</ele><time>2026-04-06T15:07:06Z</time></trkpt><trkpt lat="44.899068456469976" lon="4.258599959301309"><ele>1145.0</ele><time>2026-04-06T15:07:06.999Z</time></trkpt><trkpt lat="44.89920944832191" lon="4.258615115935574"><ele>1145.0</ele><time>2026-04-06T15:07:07.999Z</time></trkpt><trkpt lat="44.899342956532855" lon="4.25861720700987"><ele>1145.0</ele><time>2026-04-06T15:07:08.999Z</time></trkpt><trkpt lat="44.899464624385296" lon="4.258616263630712"><ele>1145.0</ele><time>2026-04-06T15:07:09.999Z</time></trkpt><trkpt lat="44.89955672117342" lon="4.258622439071799"><ele>1144.8333333333335</ele><time>2026-04-06T15:07:10.999Z</time></trkpt><trkpt lat="44.89963706845771" lon="4.258579291195441"><ele>1144.6666666666667</ele><time>2026-04-06T15:07:11.999Z</time></trkpt><trkpt lat="44.89970265772856" lon="4.258521689974711"><ele>1144.5</ele><time>2026-04-06T15:07:12.999Z</time></trkpt><trkpt lat="44.89976776870769" lon="4.2585028788679615"><ele>1144.3333333333333</ele><time>2026-04-06T15:07:13.999Z</time></trkpt><trkpt lat="44.89984648875453" lon="4.258530991846048"><ele>1144.1666666666665</ele><time>2026-04-06T15:07:14.999Z</time></trkpt><trkpt lat="44.8999401205768" lon="4.258607376845887"><ele>1144.0</ele><time>2026-04-06T15:07:15.999Z</time></trkpt><trkpt lat="44.900042459311955" lon="4.25868809927284"><ele>1144.0</ele><time>2026-04-06T15:07:16.999Z</time></trkpt><trkpt lat="44.90016435905134" lon="4.258769070657249"><ele>1144.0</ele><time>2026-04-06T15:07:17.999Z</time></trkpt><trkpt lat="44.90030325457371" lon="4.258836606147672"><ele>1144.0</ele><time>2026-04-06T15:07:18.999Z</time></trkpt><trkpt lat="44.90043965428137" lon="4.258897834492217"><ele>1144.0</ele><time>2026-04-06T15:07:19.999Z</time></trkpt><trkpt lat="44.90056809435159" lon="4.258966639290595"><ele>1143.2</ele><time>2026-04-06T15:07:20.999Z</time></trkpt><trkpt lat="44.900675823548475" lon="4.259035851837842"><ele>1142.4</ele><time>2026-04-06T15:07:21.999Z</time></trkpt><trkpt lat="44.90076338213662" lon="4.259110779394038"><ele>1141.6</ele><time>2026-04-06T15:07:22.999Z</time></trkpt><trkpt lat="44.900840765699726" lon="4.259212342190212"><ele>1140.8</ele><time>2026-04-06T15:07:23.999Z</time></trkpt><trkpt lat="44.90091850937803" lon="4.25932699067482"><ele>1140.0</ele><time>2026-04-06T15:07:24.999Z</time></trkpt><trkpt lat="44.90100994592775" lon="4.259439314817938"><ele>1140.0</ele><time>2026-04-06T15:07:25.999Z</time></trkpt><trkpt lat="44.90110348940445" lon="4.259543668998987"><ele>1140.0</ele><time>2026-04-06T15:07:26.999Z</time></trkpt><trkpt lat="44.901200658604914" lon="4.2596365262884825"><ele>1140.0</ele><time>2026-04-06T15:07:28Z</time></trkpt><trkpt lat="44.90129786603212" lon="4.25972175147458"><ele>1140.0</ele><time>2026-04-06T15:07:29Z</time></trkpt><trkpt lat="44.90140014523439" lon="4.259810168109581"><ele>1139.25</ele><time>2026-04-06T15:07:30Z</time></trkpt><trkpt lat="44.90149064301224" lon="4.259900706822665"><ele>1138.5</ele><time>2026-04-06T15:07:31Z</time></trkpt><trkpt lat="44.90158272807452" lon="4.2599997735957285"><ele>1137.75</ele><time>2026-04-06T15:07:32Z</time></trkpt><trkpt lat="44.90166108290342" lon="4.260118751398209"><ele>1137.0</ele><time>2026-04-06T15:07:33Z</time></trkpt><trkpt lat="44.90173708974678" lon="4.260239194479698"><ele>1136.8</ele><time>2026-04-06T15:07:34Z</time></trkpt><trkpt lat="44.901812293271384" lon="4.260357651656631"><ele>1136.6</ele><time>2026-04-06T15:07:35Z</time></trkpt><trkpt lat="44.901882436797955" lon="4.260475854553187"><ele>1136.3999999999999</ele><time>2026-04-06T15:07:36Z</time></trkpt><trkpt lat="44.90195427146047" lon="4.2605804302743016"><ele>1136.2</ele><time>2026-04-06T15:07:37Z</time></trkpt><trkpt lat="44.90202571642693" lon="4.260676849790794"><ele>1136.0</ele><time>2026-04-06T15:07:38Z</time></trkpt><trkpt lat="44.90208559593529" lon="4.2607775760435205"><ele>1135.3999999999999</ele><time>2026-04-06T15:07:39Z</time></trkpt><trkpt lat="44.9021473699466" lon="4.260885236832052"><ele>1134.8</ele><time>2026-04-06T15:07:40Z</time></trkpt><trkpt lat="44.902197953794484" lon="4.260986337539363"><ele>1134.1999999999998</ele><time>2026-04-06T15:07:41Z</time></trkpt><trkpt lat="44.902245421384826" lon="4.261084543061358"><ele>1133.6</ele><time>2026-04-06T15:07:42Z</time></trkpt><trkpt lat="44.90228644050394" lon="4.261170847509394"><ele>1133.0</ele><time>2026-04-06T15:07:43Z</time></trkpt><trkpt lat="44.90239897036229" lon="4.261177273028766"><ele>1133.0</ele><time>2026-04-06T15:07:44Z</time></trkpt><trkpt lat="44.902457136688746" lon="4.261302066287545"><ele>1133.0</ele><time>2026-04-06T15:07:46Z</time></trkpt><trkpt lat="44.90249762662359" lon="4.261388935641581"><ele>1133.0</ele><time>2026-04-06T15:07:48Z</time></trkpt><trkpt lat="44.902627180456975" lon="4.261682779693073"><ele>1133.0</ele><time>2026-04-06T15:07:49Z</time></trkpt><trkpt lat="44.902309286621254" lon="4.261793303879182"><ele>1132.75</ele><time>2026-04-06T15:07:50Z</time></trkpt><trkpt lat="44.90230817302987" lon="4.261962978171792"><ele>1132.5</ele><time>2026-04-06T15:07:51Z</time></trkpt><trkpt lat="44.902315209436495" lon="4.262141977605584"><ele>1132.25</ele><time>2026-04-06T15:07:52Z</time></trkpt><trkpt lat="44.9023275599763" lon="4.262356603900525"><ele>1132.0</ele><time>2026-04-06T15:07:53Z</time></trkpt><trkpt lat="44.902278551052305" lon="4.262585401370822"><ele>1131.3333333333333</ele><time>2026-04-06T15:07:54Z</time></trkpt><trkpt lat="44.90226343657446" lon="4.262823086382516"><ele>1130.6666666666667</ele><time>2026-04-06T15:07:55Z</time></trkpt><trkpt lat="44.90223633572215" lon="4.263083575133573"><ele>1130.0</ele><time>2026-04-06T15:07:56Z</time></trkpt><trkpt lat="44.90220481669057" lon="4.263343008818516"><ele>1128.3333333333335</ele><time>2026-04-06T15:07:57Z</time></trkpt><trkpt lat="44.90218169885703" lon="4.263616478908506"><ele>1126.6666666666667</ele><time>2026-04-06T15:07:58Z</time></trkpt><trkpt lat="44.90216693279085" lon="4.2638930324549555"><ele>1125.0</ele><time>2026-04-06T15:07:59Z</time></trkpt><trkpt lat="44.902152452481246" lon="4.264161246656182"><ele>1125.0</ele><time>2026-04-06T15:08:00Z</time></trkpt><trkpt lat="44.902141137535835" lon="4.264432783389508"><ele>1125.0</ele><time>2026-04-06T15:08:01Z</time></trkpt><trkpt lat="44.902112681713156" lon="4.264699041915264"><ele>1125.0</ele><time>2026-04-06T15:08:02Z</time></trkpt><trkpt lat="44.90207817593582" lon="4.2649777020170205"><ele>1125.3333333333333</ele><time>2026-04-06T15:08:03Z</time></trkpt><trkpt lat="44.902055524603824" lon="4.265255023633109"><ele>1125.6666666666665</ele><time>2026-04-06T15:08:04Z</time></trkpt><trkpt lat="44.9020418422576" lon="4.265519291735419"><ele>1126.0</ele><time>2026-04-06T15:08:05Z</time></trkpt><trkpt lat="44.90202095726265" lon="4.265774195546021"><ele>1126.3333333333333</ele><time>2026-04-06T15:08:06Z</time></trkpt><trkpt lat="44.902006031461106" lon="4.26600644476184"><ele>1126.6666666666667</ele><time>2026-04-06T15:08:07Z</time></trkpt><trkpt lat="44.902013578250376" lon="4.266227220535921"><ele>1127.0</ele><time>2026-04-06T15:08:08Z</time></trkpt><trkpt lat="44.90205721989145" lon="4.266434626609518"><ele>1126.3333333333335</ele><time>2026-04-06T15:08:09Z</time></trkpt><trkpt lat="44.90211243497634" lon="4.266657340295658"><ele>1125.6666666666667</ele><time>2026-04-06T15:08:10Z</time></trkpt><trkpt lat="44.90214179965534" lon="4.266882397008651"><ele>1125.0</ele><time>2026-04-06T15:08:11Z</time></trkpt><trkpt lat="44.902156504908426" lon="4.267119904369382"><ele>1124.75</ele><time>2026-04-06T15:08:12Z</time></trkpt><trkpt lat="44.90217052300594" lon="4.26735367666324"><ele>1124.5</ele><time>2026-04-06T15:08:13Z</time></trkpt><trkpt lat="44.90218828439605" lon="4.267561002088061"><ele>1124.25</ele><time>2026-04-06T15:08:14Z</time></trkpt><trkpt lat="44.902199087853546" lon="4.267734524318211"><ele>1124.0</ele><time>2026-04-06T15:08:15Z</time></trkpt><trkpt lat="44.902206121845005" lon="4.26788508978133"><ele>1124.0</ele><time>2026-04-06T15:08:16Z</time></trkpt><trkpt lat="44.90220484013968" lon="4.2680040304675"><ele>1124.0</ele><time>2026-04-06T15:08:17Z</time></trkpt><trkpt lat="44.9022122902173" lon="4.268129733207781"><ele>1124.0</ele><time>2026-04-06T15:08:18Z</time></trkpt><trkpt lat="44.90222137291398" lon="4.268235498807264"><ele>1124.0</ele><time>2026-04-06T15:08:19Z</time></trkpt><trkpt lat="44.902238608027375" lon="4.2683567585106"><ele>1124.0</ele><time>2026-04-06T15:08:20Z</time></trkpt><trkpt lat="44.902252263894795" lon="4.268490543291682"><ele>1124.0</ele><time>2026-04-06T15:08:21Z</time></trkpt><trkpt lat="44.90226574611883" lon="4.268627934551674"><ele>1124.0</ele><time>2026-04-06T15:08:22Z</time></trkpt><trkpt lat="44.9022747243103" lon="4.268766600273056"><ele>1124.0</ele><time>2026-04-06T15:08:23Z</time></trkpt><trkpt lat="44.90228047394904" lon="4.268924703225475"><ele>1124.0</ele><time>2026-04-06T15:08:24Z</time></trkpt><trkpt lat="44.90228655987626" lon="4.269129295499675"><ele>1124.0</ele><time>2026-04-06T15:08:25Z</time></trkpt><trkpt lat="44.90229287819687" lon="4.269341700298625"><ele>1124.0</ele><time>2026-04-06T15:08:26Z</time></trkpt><trkpt lat="44.902299371184746" lon="4.269542671430768"><ele>1124.0</ele><time>2026-04-06T15:08:27Z</time></trkpt><trkpt lat="44.90231033878402" lon="4.2697312534411385"><ele>1124.0</ele><time>2026-04-06T15:08:28Z</time></trkpt><trkpt lat="44.902331271671294" lon="4.269920962471986"><ele>1124.0</ele><time>2026-04-06T15:08:29Z</time></trkpt><trkpt lat="44.902363798585974" lon="4.270112079816831"><ele>1124.25</ele><time>2026-04-06T15:08:30Z</time></trkpt><trkpt lat="44.902399679405775" lon="4.270280945015655"><ele>1124.5</ele><time>2026-04-06T15:08:31Z</time></trkpt><trkpt lat="44.90245483734809" lon="4.270434943487036"><ele>1124.75</ele><time>2026-04-06T15:08:32Z</time></trkpt><trkpt lat="44.902504437978" lon="4.270571647659651"><ele>1125.0</ele><time>2026-04-06T15:08:33Z</time></trkpt><trkpt lat="44.902573944919844" lon="4.27069361246236"><ele>1125.0</ele><time>2026-04-06T15:08:34Z</time></trkpt><trkpt lat="44.90265751620635" lon="4.270806674659358"><ele>1125.0</ele><time>2026-04-06T15:08:35Z</time></trkpt><trkpt lat="44.90275235438112" lon="4.270905054165935"><ele>1125.0</ele><time>2026-04-06T15:08:36Z</time></trkpt><trkpt lat="44.902859581812535" lon="4.2709652002577005"><ele>1125.0</ele><time>2026-04-06T15:08:37Z</time></trkpt><trkpt lat="44.902962407153616" lon="4.271051074849044"><ele>1125.0</ele><time>2026-04-06T15:08:38Z</time></trkpt><trkpt lat="44.903068916085076" lon="4.271136738702579"><ele>1125.0</ele><time>2026-04-06T15:08:39Z</time></trkpt><trkpt lat="44.90316743149697" lon="4.271222162605282"><ele>1125.0</ele><time>2026-04-06T15:08:40Z</time></trkpt><trkpt lat="44.90326215058053" lon="4.271302820072614"><ele>1125.0</ele><time>2026-04-06T15:08:41Z</time></trkpt><trkpt lat="44.90336845283458" lon="4.27135149764855"><ele>1123.6666666666667</ele><time>2026-04-06T15:08:42Z</time></trkpt><trkpt lat="44.9034760541451" lon="4.271403090998793"><ele>1122.3333333333333</ele><time>2026-04-06T15:08:43Z</time></trkpt><trkpt lat="44.903544187999536" lon="4.271442788573932"><ele>1121.0</ele><time>2026-04-06T15:08:44Z</time></trkpt><trkpt lat="44.903630393933526" lon="4.27150539083843"><ele>1119.6666666666665</ele><time>2026-04-06T15:08:45Z</time></trkpt><trkpt lat="44.903687469480076" lon="4.271554789596958"><ele>1118.3333333333333</ele><time>2026-04-06T15:08:46Z</time></trkpt><trkpt lat="44.90371648135615" lon="4.271641218171684"><ele>1117.0</ele><time>2026-04-06T15:08:47Z</time></trkpt><trkpt lat="44.90373728422766" lon="4.271730459842593"><ele>1117.0</ele><time>2026-04-06T15:08:48Z</time></trkpt><trkpt lat="44.90368572426135" lon="4.2718548868708845"><ele>1117.0</ele><time>2026-04-06T15:08:49Z</time></trkpt><trkpt lat="44.903687893007834" lon="4.271967376259196"><ele>1117.0</ele><time>2026-04-06T15:08:50Z</time></trkpt><trkpt lat="44.903713542762745" lon="4.272150963220557"><ele>1117.0</ele><time>2026-04-06T15:08:51Z</time></trkpt><trkpt lat="44.903726275155314" lon="4.272305057639495"><ele>1117.0</ele><time>2026-04-06T15:08:52Z</time></trkpt><trkpt lat="44.90374099251189" lon="4.2724483628425975"><ele>1117.4</ele><time>2026-04-06T15:08:53Z</time></trkpt><trkpt lat="44.90377333786597" lon="4.272605131711147"><ele>1117.8000000000002</ele><time>2026-04-06T15:08:54Z</time></trkpt><trkpt lat="44.903800632327204" lon="4.272736697381336"><ele>1118.2</ele><time>2026-04-06T15:08:55Z</time></trkpt><trkpt lat="44.9038300284145" lon="4.272885587581918"><ele>1118.6000000000001</ele><time>2026-04-06T15:08:56Z</time></trkpt><trkpt lat="44.903863118942525" lon="4.273017406713479"><ele>1119.0</ele><time>2026-04-06T15:08:57Z</time></trkpt><trkpt lat="44.903919234960526" lon="4.273133722846389"><ele>1119.4</ele><time>2026-04-06T15:08:58Z</time></trkpt><trkpt lat="44.90397126911751" lon="4.273264387301738"><ele>1119.8000000000002</ele><time>2026-04-06T15:08:59Z</time></trkpt><trkpt lat="44.90401530153624" lon="4.27341048743866"><ele>1120.1999999999998</ele><time>2026-04-06T15:09:00Z</time></trkpt><trkpt lat="44.904081677878146" lon="4.273535875757225"><ele>1120.6</ele><time>2026-04-06T15:09:01Z</time></trkpt><trkpt lat="44.90415355246741" lon="4.2736697168610585"><ele>1121.0</ele><time>2026-04-06T15:09:02Z</time></trkpt><trkpt lat="44.90422084069708" lon="4.273785627043442"><ele>1116.2</ele><time>2026-04-06T15:09:03Z</time></trkpt><trkpt lat="44.9042901293114" lon="4.273897505233156"><ele>1111.3999999999999</ele><time>2026-04-06T15:09:04Z</time></trkpt><trkpt lat="44.90433751217783" lon="4.274026770518711"><ele>1106.6</ele><time>2026-04-06T15:09:05Z</time></trkpt><trkpt lat="44.904385236125194" lon="4.274168689240485"><ele>1101.8</ele><time>2026-04-06T15:09:06Z</time></trkpt><trkpt lat="44.90443659233033" lon="4.274330435705823"><ele>1097.0</ele><time>2026-04-06T15:09:07Z</time></trkpt><trkpt lat="44.90448555547614" lon="4.274491566429112"><ele>1097.0</ele><time>2026-04-06T15:09:08Z</time></trkpt><trkpt lat="44.904526502106" lon="4.274645721866454"><ele>1097.0</ele><time>2026-04-06T15:09:09Z</time></trkpt><trkpt lat="44.90455496266477" lon="4.274797173081775"><ele>1097.0</ele><time>2026-04-06T15:09:10Z</time></trkpt><trkpt lat="44.90457180766293" lon="4.2749450768735295"><ele>1097.0</ele><time>2026-04-06T15:09:11Z</time></trkpt><trkpt lat="44.904578814492645" lon="4.2751094473819755"><ele>1096.75</ele><time>2026-04-06T15:09:12Z</time></trkpt><trkpt lat="44.9045827408807" lon="4.275278554461377"><ele>1096.5</ele><time>2026-04-06T15:09:13Z</time></trkpt><trkpt lat="44.90458127820459" lon="4.275434425842957"><ele>1096.25</ele><time>2026-04-06T15:09:14Z</time></trkpt><trkpt lat="44.90457919046621" lon="4.275582002858598"><ele>1096.0</ele><time>2026-04-06T15:09:15Z</time></trkpt><trkpt lat="44.904576440738886" lon="4.275746948248903"><ele>1096.0</ele><time>2026-04-06T15:09:16Z</time></trkpt><trkpt lat="44.90457303718781" lon="4.275865642468001"><ele>1096.0</ele><time>2026-04-06T15:09:17Z</time></trkpt><trkpt lat="44.90456823255275" lon="4.2760331977067825"><ele>1096.0</ele><time>2026-04-06T15:09:18Z</time></trkpt><trkpt lat="44.90456732865388" lon="4.276174701540293"><ele>1096.0</ele><time>2026-04-06T15:09:19Z</time></trkpt><trkpt lat="44.904579354531094" lon="4.276348600298473"><ele>1096.0</ele><time>2026-04-06T15:09:20Z</time></trkpt><trkpt lat="44.90456244023359" lon="4.276494599197829"><ele>1095.75</ele><time>2026-04-06T15:09:21Z</time></trkpt><trkpt lat="44.904579235236525" lon="4.276666355791295"><ele>1095.5</ele><time>2026-04-06T15:09:22Z</time></trkpt><trkpt lat="44.90459150934342" lon="4.276830565607316"><ele>1095.25</ele><time>2026-04-06T15:09:23Z</time></trkpt><trkpt lat="44.90461939809486" lon="4.277011253829902"><ele>1095.0</ele><time>2026-04-06T15:09:24Z</time></trkpt><trkpt lat="44.9046527306081" lon="4.2771761643711885"><ele>1094.5</ele><time>2026-04-06T15:09:25Z</time></trkpt><trkpt lat="44.90470430787515" lon="4.277296245795169"><ele>1094.0</ele><time>2026-04-06T15:09:25.999Z</time></trkpt><trkpt lat="44.904751825435525" lon="4.277449114702835"><ele>1093.5</ele><time>2026-04-06T15:09:26.999Z</time></trkpt><trkpt lat="44.90479086309795" lon="4.277613305352201"><ele>1093.0</ele><time>2026-04-06T15:09:27.999Z</time></trkpt><trkpt lat="44.90483301014109" lon="4.277756179179894"><ele>1093.0</ele><time>2026-04-06T15:09:28.999Z</time></trkpt><trkpt lat="44.90487397153911" lon="4.277897246082801"><ele>1093.0</ele><time>2026-04-06T15:09:29.999Z</time></trkpt><trkpt lat="44.904908547137765" lon="4.278038737763721"><ele>1093.0</ele><time>2026-04-06T15:09:30.999Z</time></trkpt><trkpt lat="44.90493247327603" lon="4.278170373196621"><ele>1093.0</ele><time>2026-04-06T15:09:31.999Z</time></trkpt><trkpt lat="44.90494627428638" lon="4.278279805726456"><ele>1093.0</ele><time>2026-04-06T15:09:32.999Z</time></trkpt><trkpt lat="44.904956265777535" lon="4.278405808757433"><ele>1092.1666666666665</ele><time>2026-04-06T15:09:34Z</time></trkpt><trkpt lat="44.904955355634904" lon="4.2785158724381285"><ele>1091.3333333333333</ele><time>2026-04-06T15:09:35Z</time></trkpt><trkpt lat="44.90494567601103" lon="4.2786316736429795"><ele>1090.5</ele><time>2026-04-06T15:09:36Z</time></trkpt><trkpt lat="44.904908792494744" lon="4.2787135396889635"><ele>1089.6666666666667</ele><time>2026-04-06T15:09:37Z</time></trkpt><trkpt lat="44.90485756546724" lon="4.278806298410194"><ele>1088.8333333333335</ele><time>2026-04-06T15:09:38Z</time></trkpt><trkpt lat="44.904800289594036" lon="4.278940022338971"><ele>1088.0</ele><time>2026-04-06T15:09:39Z</time></trkpt><trkpt lat="44.90475910245092" lon="4.279057839240582"><ele>1086.2</ele><time>2026-04-06T15:09:40Z</time></trkpt><trkpt lat="44.90472669614503" lon="4.279178918214092"><ele>1084.4</ele><time>2026-04-06T15:09:41Z</time></trkpt><trkpt lat="44.90473021402024" lon="4.27929605372762"><ele>1082.6000000000001</ele><time>2026-04-06T15:09:42Z</time></trkpt><trkpt lat="44.904730596933895" lon="4.27943461001166"><ele>1080.8</ele><time>2026-04-06T15:09:43Z</time></trkpt><trkpt lat="44.90477480042894" lon="4.279560891824486"><ele>1079.0</ele><time>2026-04-06T15:09:44Z</time></trkpt><trkpt lat="44.90481140363076" lon="4.2796825516812005"><ele>1076.4</ele><time>2026-04-06T15:09:45Z</time></trkpt><trkpt lat="44.90486494017651" lon="4.27978712169824"><ele>1073.8000000000002</ele><time>2026-04-06T15:09:46Z</time></trkpt><trkpt lat="44.90493473675684" lon="4.2798650964024345"><ele>1071.1999999999998</ele><time>2026-04-06T15:09:47Z</time></trkpt><trkpt lat="44.90499246179028" lon="4.279982222990305"><ele>1068.6</ele><time>2026-04-06T15:09:48Z</time></trkpt><trkpt lat="44.905057029144345" lon="4.280077836099543"><ele>1066.0</ele><time>2026-04-06T15:09:49Z</time></trkpt><trkpt lat="44.905087913315825" lon="4.280196799274667"><ele>1064.2</ele><time>2026-04-06T15:09:50Z</time></trkpt><trkpt lat="44.90511739615656" lon="4.280325223788371"><ele>1062.3999999999999</ele><time>2026-04-06T15:09:51Z</time></trkpt><trkpt lat="44.90515603396446" lon="4.280455370986894"><ele>1060.6</ele><time>2026-04-06T15:09:52Z</time></trkpt><trkpt lat="44.905179752573794" lon="4.280635404830774"><ele>1058.8</ele><time>2026-04-06T15:09:53Z</time></trkpt><trkpt lat="44.905207962675966" lon="4.280771403995976"><ele>1057.0</ele><time>2026-04-06T15:09:54Z</time></trkpt><trkpt lat="44.90523531395771" lon="4.2809040351203995"><ele>1057.0</ele><time>2026-04-06T15:09:55Z</time></trkpt><trkpt lat="44.90526895697349" lon="4.281039820974905"><ele>1057.0</ele><time>2026-04-06T15:09:56Z</time></trkpt><trkpt lat="44.905302278671876" lon="4.281170467524649"><ele>1057.0</ele><time>2026-04-06T15:09:57Z</time></trkpt><trkpt lat="44.90533495003855" lon="4.281297724842359"><ele>1057.0</ele><time>2026-04-06T15:09:58Z</time></trkpt><trkpt lat="44.9053633143918" lon="4.281419254630215"><ele>1057.0</ele><time>2026-04-06T15:09:59Z</time></trkpt><trkpt lat="44.905388975512736" lon="4.281529202143487"><ele>1057.6</ele><time>2026-04-06T15:10:00Z</time></trkpt><trkpt lat="44.90541577733337" lon="4.281644037088782"><ele>1058.2</ele><time>2026-04-06T15:10:01Z</time></trkpt><trkpt lat="44.9054532704385" lon="4.281752297777944"><ele>1058.8</ele><time>2026-04-06T15:10:02Z</time></trkpt><trkpt lat="44.90548041640885" lon="4.2819209894121295"><ele>1059.4</ele><time>2026-04-06T15:10:03Z</time></trkpt><trkpt lat="44.90557172711928" lon="4.282055575272614"><ele>1060.0</ele><time>2026-04-06T15:10:04Z</time></trkpt><trkpt lat="44.90562838086642" lon="4.282208925384213"><ele>1060.5</ele><time>2026-04-06T15:10:05Z</time></trkpt><trkpt lat="44.90568373562454" lon="4.282376367493107"><ele>1061.0</ele><time>2026-04-06T15:10:06Z</time></trkpt><trkpt lat="44.90572648018695" lon="4.282574314360138"><ele>1061.5</ele><time>2026-04-06T15:10:07Z</time></trkpt><trkpt lat="44.905778154879336" lon="4.282771119348098"><ele>1062.0</ele><time>2026-04-06T15:10:08Z</time></trkpt><trkpt lat="44.90582150332529" lon="4.282976980839139"><ele>1064.0</ele><time>2026-04-06T15:10:09Z</time></trkpt><trkpt lat="44.905870557469555" lon="4.283203861736248"><ele>1066.0</ele><time>2026-04-06T15:10:10Z</time></trkpt><trkpt lat="44.905925113900324" lon="4.283434389278578"><ele>1068.0</ele><time>2026-04-06T15:10:11Z</time></trkpt><trkpt lat="44.905983920283994" lon="4.283643736652109"><ele>1065.5</ele><time>2026-04-06T15:10:12Z</time></trkpt><trkpt lat="44.90604801538188" lon="4.283840852673149"><ele>1063.0</ele><time>2026-04-06T15:10:13Z</time></trkpt><trkpt lat="44.906118116837526" lon="4.28401616720608"><ele>1060.5</ele><time>2026-04-06T15:10:14Z</time></trkpt><trkpt lat="44.906195400656" lon="4.2841892571547415"><ele>1058.0</ele><time>2026-04-06T15:10:15Z</time></trkpt><trkpt lat="44.90625184521349" lon="4.284351881907056"><ele>1058.0</ele><time>2026-04-06T15:10:16Z</time></trkpt><trkpt lat="44.90630354399989" lon="4.284539506949435"><ele>1058.0</ele><time>2026-04-06T15:10:17Z</time></trkpt><trkpt lat="44.906363348444586" lon="4.284708803977788"><ele>1058.0</ele><time>2026-04-06T15:10:18Z</time></trkpt><trkpt lat="44.906403070956905" lon="4.284873347099201"><ele>1058.0</ele><time>2026-04-06T15:10:19Z</time></trkpt><trkpt lat="44.90644998170818" lon="4.285050558801654"><ele>1058.75</ele><time>2026-04-06T15:10:20Z</time></trkpt><trkpt lat="44.90649318105522" lon="4.285216766179276"><ele>1059.5</ele><time>2026-04-06T15:10:21Z</time></trkpt><trkpt lat="44.90651795229247" lon="4.285377291772756"><ele>1060.25</ele><time>2026-04-06T15:10:22Z</time></trkpt><trkpt lat="44.906538256040356" lon="4.285578681582656"><ele>1061.0</ele><time>2026-04-06T15:10:23Z</time></trkpt><trkpt lat="44.90656329079264" lon="4.28578988624875"><ele>1061.0</ele><time>2026-04-06T15:10:24Z</time></trkpt><trkpt lat="44.90659317993109" lon="4.285974294901632"><ele>1061.0</ele><time>2026-04-06T15:10:25Z</time></trkpt><trkpt lat="44.90664116147554" lon="4.28617023868491"><ele>1061.0</ele><time>2026-04-06T15:10:26Z</time></trkpt><trkpt lat="44.90672837616221" lon="4.286372589345957"><ele>1061.0</ele><time>2026-04-06T15:10:27Z</time></trkpt><trkpt lat="44.906818887949086" lon="4.286594180671955"><ele>1061.6666666666667</ele><time>2026-04-06T15:10:28Z</time></trkpt><trkpt lat="44.90687601656628" lon="4.286832396586096"><ele>1062.3333333333333</ele><time>2026-04-06T15:10:29Z</time></trkpt><trkpt lat="44.90692491994312" lon="4.2870812816915596"><ele>1063.0</ele><time>2026-04-06T15:10:30Z</time></trkpt><trkpt lat="44.90696541860314" lon="4.28732822496821"><ele>1063.0</ele><time>2026-04-06T15:10:31Z</time></trkpt><trkpt lat="44.90699422874134" lon="4.287571136725454"><ele>1063.0</ele><time>2026-04-06T15:10:32Z</time></trkpt><trkpt lat="44.90699984809615" lon="4.2877974457590495"><ele>1063.0</ele><time>2026-04-06T15:10:33Z</time></trkpt><trkpt lat="44.906988374565195" lon="4.288053425066292"><ele>1064.0</ele><time>2026-04-06T15:10:34Z</time></trkpt><trkpt lat="44.90698735558491" lon="4.288334862630092"><ele>1065.0</ele><time>2026-04-06T15:10:35Z</time></trkpt><trkpt lat="44.90699183861139" lon="4.288612797285232"><ele>1066.0</ele><time>2026-04-06T15:10:36Z</time></trkpt><trkpt lat="44.90701305558396" lon="4.28886851418647"><ele>1065.6666666666665</ele><time>2026-04-06T15:10:37Z</time></trkpt><trkpt lat="44.90700025926802" lon="4.289114389761506"><ele>1065.3333333333333</ele><time>2026-04-06T15:10:38Z</time></trkpt><trkpt lat="44.90696784408779" lon="4.289354912128264"><ele>1065.0</ele><time>2026-04-06T15:10:39Z</time></trkpt><trkpt lat="44.906924289448796" lon="4.289588990726995"><ele>1060.6666666666667</ele><time>2026-04-06T15:10:40Z</time></trkpt><trkpt lat="44.90689875314491" lon="4.289825850348112"><ele>1056.3333333333335</ele><time>2026-04-06T15:10:41Z</time></trkpt><trkpt lat="44.90687328748117" lon="4.290037704615898"><ele>1052.0</ele><time>2026-04-06T15:10:42Z</time></trkpt><trkpt lat="44.90681620815596" lon="4.2902055645670645"><ele>1051.3333333333335</ele><time>2026-04-06T15:10:43Z</time></trkpt><trkpt lat="44.906736320894936" lon="4.290387275052113"><ele>1050.6666666666667</ele><time>2026-04-06T15:10:44Z</time></trkpt><trkpt lat="44.90664483440921" lon="4.290577058124898"><ele>1050.0</ele><time>2026-04-06T15:10:45Z</time></trkpt><trkpt lat="44.90654405734442" lon="4.290756919742027"><ele>1052.25</ele><time>2026-04-06T15:10:46Z</time></trkpt><trkpt lat="44.9064492730282" lon="4.290915930067092"><ele>1054.5</ele><time>2026-04-06T15:10:47Z</time></trkpt><trkpt lat="44.90635546279428" lon="4.291016376206618"><ele>1056.75</ele><time>2026-04-06T15:10:48Z</time></trkpt><trkpt lat="44.906243540604535" lon="4.291070320832482"><ele>1059.0</ele><time>2026-04-06T15:10:49Z</time></trkpt><trkpt lat="44.90610929048431" lon="4.291124341542978"><ele>1059.0</ele><time>2026-04-06T15:10:50Z</time></trkpt><trkpt lat="44.905991622210365" lon="4.29119932698711"><ele>1059.0</ele><time>2026-04-06T15:10:51Z</time></trkpt><trkpt lat="44.90588934821735" lon="4.291311889746765"><ele>1059.0</ele><time>2026-04-06T15:10:52Z</time></trkpt><trkpt lat="44.90580654433156" lon="4.291433602827217"><ele>1059.0</ele><time>2026-04-06T15:10:53Z</time></trkpt><trkpt lat="44.90574060901652" lon="4.291553302403657"><ele>1059.6666666666667</ele><time>2026-04-06T15:10:54Z</time></trkpt><trkpt lat="44.90570857140876" lon="4.291697109760378"><ele>1060.3333333333333</ele><time>2026-04-06T15:10:55Z</time></trkpt><trkpt lat="44.90570538555767" lon="4.291831403712655"><ele>1061.0</ele><time>2026-04-06T15:10:56Z</time></trkpt><trkpt lat="44.90574235350518" lon="4.291960603946564"><ele>1061.6666666666665</ele><time>2026-04-06T15:10:57Z</time></trkpt><trkpt lat="44.9057906868165" lon="4.292038113936798"><ele>1062.3333333333333</ele><time>2026-04-06T15:10:58Z</time></trkpt><trkpt lat="44.905852873542955" lon="4.292081679330864"><ele>1063.0</ele><time>2026-04-06T15:11:00Z</time></trkpt><trkpt lat="44.905923664837005" lon="4.292197526927284"><ele>1062.0</ele><time>2026-04-06T15:11:19Z</time></trkpt><trkpt lat="44.905982893607" lon="4.292271761727233"><ele>1061.0</ele><time>2026-04-06T15:11:20Z</time></trkpt><trkpt lat="44.90606009060408" lon="4.292350389467798"><ele>1060.0</ele><time>2026-04-06T15:11:21Z</time></trkpt><trkpt lat="44.90614609343445" lon="4.292407517626996"><ele>1059.0</ele><time>2026-04-06T15:11:22Z</time></trkpt><trkpt lat="44.90623401047639" lon="4.2924437340348085"><ele>1058.0</ele><time>2026-04-06T15:11:23Z</time></trkpt><trkpt lat="44.906320627567474" lon="4.292477499878214"><ele>1058.0</ele><time>2026-04-06T15:11:24Z</time></trkpt><trkpt lat="44.90640016283356" lon="4.292536290707884"><ele>1058.0</ele><time>2026-04-06T15:11:25Z</time></trkpt><trkpt lat="44.90647753401907" lon="4.2926055941173855"><ele>1058.0</ele><time>2026-04-06T15:11:26Z</time></trkpt><trkpt lat="44.90654770347079" lon="4.292677876802036"><ele>1058.0</ele><time>2026-04-06T15:11:27Z</time></trkpt><trkpt lat="44.90661780708605" lon="4.292750773475538"><ele>1058.0</ele><time>2026-04-06T15:11:28Z</time></trkpt><trkpt lat="44.90669065788867" lon="4.29282036518682"><ele>1058.0</ele><time>2026-04-06T15:11:29Z</time></trkpt><trkpt lat="44.906765704973004" lon="4.292893148969049"><ele>1055.2</ele><time>2026-04-06T15:11:30Z</time></trkpt><trkpt lat="44.906840149685095" lon="4.2929614116413175"><ele>1052.4</ele><time>2026-04-06T15:11:31Z</time></trkpt><trkpt lat="44.90690264475924" lon="4.293027983101242"><ele>1049.6000000000001</ele><time>2026-04-06T15:11:32Z</time></trkpt><trkpt lat="44.90693880449309" lon="4.293113950697488"><ele>1046.8</ele><time>2026-04-06T15:11:33Z</time></trkpt><trkpt lat="44.9069809178268" lon="4.2932679973750245"><ele>1044.0</ele><time>2026-04-06T15:11:35Z</time></trkpt><trkpt lat="44.90703042515637" lon="4.293407089477452"><ele>1044.0</ele><time>2026-04-06T15:11:37Z</time></trkpt><trkpt lat="44.907177527526265" lon="4.293471215452159"><ele>1044.0</ele><time>2026-04-06T15:11:39Z</time></trkpt><trkpt lat="44.90725146058434" lon="4.293504996549775"><ele>1044.0</ele><time>2026-04-06T15:11:40Z</time></trkpt><trkpt lat="44.907316069764214" lon="4.293551638019814"><ele>1044.0</ele><time>2026-04-06T15:11:41Z</time></trkpt><trkpt lat="44.90736641338671" lon="4.293657947275794"><ele>1044.0</ele><time>2026-04-06T15:11:42Z</time></trkpt><trkpt lat="44.90739561715751" lon="4.293778735921636"><ele>1044.0</ele><time>2026-04-06T15:11:43Z</time></trkpt><trkpt lat="44.907419051198026" lon="4.293903418333724"><ele>1044.0</ele><time>2026-04-06T15:11:44Z</time></trkpt><trkpt lat="44.90745507695893" lon="4.294022951474044"><ele>1044.0</ele><time>2026-04-06T15:11:45Z</time></trkpt><trkpt lat="44.90750258794155" lon="4.294125366608981"><ele>1044.0</ele><time>2026-04-06T15:11:46Z</time></trkpt><trkpt lat="44.90756633583741" lon="4.294215163620659"><ele>1044.0</ele><time>2026-04-06T15:11:47Z</time></trkpt><trkpt lat="44.90763865793368" lon="4.294320390377547"><ele>1039.6000000000001</ele><time>2026-04-06T15:11:48Z</time></trkpt><trkpt lat="44.90770467045806" lon="4.294432208373847"><ele>1035.2</ele><time>2026-04-06T15:11:49Z</time></trkpt><trkpt lat="44.907764422371756" lon="4.294565442396851"><ele>1030.8000000000002</ele><time>2026-04-06T15:11:50Z</time></trkpt><trkpt lat="44.90782946351932" lon="4.294696627198303"><ele>1026.4</ele><time>2026-04-06T15:11:51Z</time></trkpt><trkpt lat="44.907881729438465" lon="4.294824033814328"><ele>1022.0</ele><time>2026-04-06T15:11:52Z</time></trkpt><trkpt lat="44.907934388463936" lon="4.29495403938012"><ele>1022.0</ele><time>2026-04-06T15:11:53Z</time></trkpt><trkpt lat="44.9079837018121" lon="4.295096640551375"><ele>1022.0</ele><time>2026-04-06T15:11:54Z</time></trkpt><trkpt lat="44.908032722662504" lon="4.2952321870801144"><ele>1022.0</ele><time>2026-04-06T15:11:55Z</time></trkpt><trkpt lat="44.908093487795334" lon="4.295353563750927"><ele>1022.0</ele><time>2026-04-06T15:11:56Z</time></trkpt><trkpt lat="44.90815466299568" lon="4.295486587320519"><ele>1022.0</ele><time>2026-04-06T15:11:57Z</time></trkpt><trkpt lat="44.90820818346125" lon="4.295628660516309"><ele>1022.4000000000001</ele><time>2026-04-06T15:11:58Z</time></trkpt><trkpt lat="44.90825997844301" lon="4.2957671692228"><ele>1022.8000000000001</ele><time>2026-04-06T15:11:59Z</time></trkpt><trkpt lat="44.90830562585045" lon="4.295906586601701"><ele>1023.2</ele><time>2026-04-06T15:12:00Z</time></trkpt><trkpt lat="44.90835932528885" lon="4.29604030462305"><ele>1023.6</ele><time>2026-04-06T15:12:01Z</time></trkpt><trkpt lat="44.90842040770196" lon="4.2961716107518635"><ele>1024.0</ele><time>2026-04-06T15:12:02Z</time></trkpt><trkpt lat="44.90848127853201" lon="4.296299705232549"><ele>1024.8</ele><time>2026-04-06T15:12:03Z</time></trkpt><trkpt lat="44.90853938286428" lon="4.296418296118664"><ele>1025.6000000000001</ele><time>2026-04-06T15:12:04Z</time></trkpt><trkpt lat="44.90860179202838" lon="4.2965492484814325"><ele>1026.4</ele><time>2026-04-06T15:12:05Z</time></trkpt><trkpt lat="44.908652453948015" lon="4.296682563361842"><ele>1027.2</ele><time>2026-04-06T15:12:06Z</time></trkpt><trkpt lat="44.90869498055185" lon="4.296803671706651"><ele>1028.0</ele><time>2026-04-06T15:12:07Z</time></trkpt><trkpt lat="44.90872726144279" lon="4.29694003226082"><ele>1028.0</ele><time>2026-04-06T15:12:08Z</time></trkpt><trkpt lat="44.90877135599505" lon="4.297064304866361"><ele>1028.0</ele><time>2026-04-06T15:12:09Z</time></trkpt><trkpt lat="44.908805202418456" lon="4.29717291345356"><ele>1028.0</ele><time>2026-04-06T15:12:10Z</time></trkpt><trkpt lat="44.90883466224456" lon="4.297286839846617"><ele>1028.0</ele><time>2026-04-06T15:12:11Z</time></trkpt><trkpt lat="44.90887383263684" lon="4.297398144100792"><ele>1028.0</ele><time>2026-04-06T15:12:12Z</time></trkpt><trkpt lat="44.908935163053336" lon="4.297507222445147"><ele>1028.0</ele><time>2026-04-06T15:12:13Z</time></trkpt><trkpt lat="44.90901208787524" lon="4.297593393048083"><ele>1028.0</ele><time>2026-04-06T15:12:14Z</time></trkpt><trkpt lat="44.90909129806637" lon="4.2976702878179776"><ele>1028.0</ele><time>2026-04-06T15:12:15Z</time></trkpt><trkpt lat="44.90917105933194" lon="4.297733605644612"><ele>1028.0</ele><time>2026-04-06T15:12:16Z</time></trkpt><trkpt lat="44.90924639738972" lon="4.297770979940957"><ele>1028.0</ele><time>2026-04-06T15:12:17Z</time></trkpt><trkpt lat="44.909328557210756" lon="4.297779445493836"><ele>1028.0</ele><time>2026-04-06T15:12:18Z</time></trkpt><trkpt lat="44.9094131865226" lon="4.297786176026815"><ele>1028.0</ele><time>2026-04-06T15:12:19Z</time></trkpt><trkpt lat="44.90947490330852" lon="4.2977620821451925"><ele>1028.0</ele><time>2026-04-06T15:12:20Z</time></trkpt><trkpt lat="44.90956507810225" lon="4.297672087909656"><ele>1028.0</ele><time>2026-04-06T15:12:22Z</time></trkpt><trkpt lat="44.909640833711" lon="4.297679677663666"><ele>1028.0</ele><time>2026-04-06T15:12:24Z</time></trkpt><trkpt lat="44.909708673947115" lon="4.297731656652213"><ele>1028.0</ele><time>2026-04-06T15:12:27Z</time></trkpt><trkpt lat="44.90977266456939" lon="4.297726066309461"><ele>1028.0</ele><time>2026-04-06T15:12:32Z</time></trkpt><trkpt lat="44.90985580487936" lon="4.297732057348777"><ele>1028.0</ele><time>2026-04-06T15:12:34Z</time></trkpt><trkpt lat="44.90992027857786" lon="4.297741582674757"><ele>1028.0</ele><time>2026-04-06T15:12:35Z</time></trkpt><trkpt lat="44.910029421425406" lon="4.2977687969859835"><ele>1028.0</ele><time>2026-04-06T15:12:37Z</time></trkpt><trkpt lat="44.910111316731005" lon="4.297791591609202"><ele>1028.0</ele><time>2026-04-06T15:12:40Z</time></trkpt><trkpt lat="44.91018688274804" lon="4.297808034603736"><ele>1028.0</ele><time>2026-04-06T15:12:43Z</time></trkpt><trkpt lat="44.91025578973013" lon="4.297820795753134"><ele>1028.0</ele><time>2026-04-06T15:12:45Z</time></trkpt><trkpt lat="44.91033142502866" lon="4.297829348107464"><ele>1024.8</ele><time>2026-04-06T15:12:47Z</time></trkpt><trkpt lat="44.910443966907174" lon="4.297855942327204"><ele>1021.5999999999999</ele><time>2026-04-06T15:12:49Z</time></trkpt><trkpt lat="44.91054143201286" lon="4.29786547936641"><ele>1018.4000000000001</ele><time>2026-04-06T15:12:51Z</time></trkpt><trkpt lat="44.91062726731371" lon="4.297907353815439"><ele>1015.2</ele><time>2026-04-06T15:12:53Z</time></trkpt><trkpt lat="44.91069346294602" lon="4.297931681149869"><ele>1012.0</ele><time>2026-04-06T15:12:55Z</time></trkpt><trkpt lat="44.910783383309834" lon="4.297950446522618"><ele>1012.0</ele><time>2026-04-06T15:12:57Z</time></trkpt><trkpt lat="44.91087513860056" lon="4.297982228670654"><ele>1012.0</ele><time>2026-04-06T15:12:59Z</time></trkpt><trkpt lat="44.91098817751143" lon="4.298014813818171"><ele>1012.0</ele><time>2026-04-06T15:13:01Z</time></trkpt><trkpt lat="44.91111065265975" lon="4.298036912090507"><ele>1012.0</ele><time>2026-04-06T15:13:03Z</time></trkpt><trkpt lat="44.911171299431665" lon="4.298062396885779"><ele>1012.0</ele><time>2026-04-06T15:13:04Z</time></trkpt><trkpt lat="44.911229658790845" lon="4.298096046723634"><ele>1015.4999999999999</ele><time>2026-04-06T15:13:05Z</time></trkpt><trkpt lat="44.911292377589255" lon="4.29811418237831"><ele>1019.0</ele><time>2026-04-06T15:13:06Z</time></trkpt><trkpt lat="44.91135930562966" lon="4.298128975419512"><ele>1022.5</ele><time>2026-04-06T15:13:07Z</time></trkpt><trkpt lat="44.911419842897544" lon="4.29816421719403"><ele>1026.0</ele><time>2026-04-06T15:13:08Z</time></trkpt><trkpt lat="44.9115326584881" lon="4.298205588433723"><ele>1029.5</ele><time>2026-04-06T15:13:10Z</time></trkpt><trkpt lat="44.9116005587351" lon="4.298231815791459"><ele>1033.0</ele><time>2026-04-06T15:13:11Z</time></trkpt><trkpt lat="44.91170911954365" lon="4.298297657560148"><ele>1030.0</ele><time>2026-04-06T15:13:13Z</time></trkpt><trkpt lat="44.91182486534706" lon="4.298360265724207"><ele>1027.0</ele><time>2026-04-06T15:13:15Z</time></trkpt><trkpt lat="44.91188161405868" lon="4.298407103699559"><ele>1024.0</ele><time>2026-04-06T15:13:16Z</time></trkpt><trkpt lat="44.91194915231529" lon="4.298512061649472"><ele>1021.0</ele><time>2026-04-06T15:13:18Z</time></trkpt><trkpt lat="44.91196853715522" lon="4.298690012653783"><ele>1018.0</ele><time>2026-04-06T15:13:20Z</time></trkpt><trkpt lat="44.91197392910974" lon="4.298782083625012"><ele>1017.9999999999999</ele><time>2026-04-06T15:13:21Z</time></trkpt><trkpt lat="44.91196323725125" lon="4.298876889067822"><ele>1018.0</ele><time>2026-04-06T15:13:22Z</time></trkpt><trkpt lat="44.91193302357306" lon="4.298987504169838"><ele>1018.0</ele><time>2026-04-06T15:13:23Z</time></trkpt><trkpt lat="44.91192237271517" lon="4.299089550396899"><ele>1018.0</ele><time>2026-04-06T15:13:24Z</time></trkpt><trkpt lat="44.91191060863779" lon="4.299185500746737"><ele>1017.9999999999999</ele><time>2026-04-06T15:13:25Z</time></trkpt><trkpt lat="44.9119007544543" lon="4.2992783647402"><ele>1018.0</ele><time>2026-04-06T15:13:26Z</time></trkpt><trkpt lat="44.91186818226787" lon="4.299436168893743"><ele>1018.8333333333333</ele><time>2026-04-06T15:13:28Z</time></trkpt><trkpt lat="44.911861660016314" lon="4.299580846701987"><ele>1019.6666666666666</ele><time>2026-04-06T15:13:30Z</time></trkpt><trkpt lat="44.91184905501331" lon="4.299726957506186"><ele>1020.5</ele><time>2026-04-06T15:13:32Z</time></trkpt><trkpt lat="44.91184581383857" lon="4.299827372510238"><ele>1021.3333333333333</ele><time>2026-04-06T15:13:34Z</time></trkpt><trkpt lat="44.91185698580491" lon="4.2999419900610345"><ele>1022.1666666666666</ele><time>2026-04-06T15:13:35Z</time></trkpt><trkpt lat="44.911857087365675" lon="4.300052144351681"><ele>1023.0</ele><time>2026-04-06T15:13:37Z</time></trkpt><trkpt lat="44.91190316425256" lon="4.300209332593752"><ele>1023.0</ele><time>2026-04-06T15:13:38Z</time></trkpt><trkpt lat="44.911963895402096" lon="4.300318628056652"><ele>1023.0</ele><time>2026-04-06T15:13:40Z</time></trkpt><trkpt lat="44.912024305776505" lon="4.30042162699915"><ele>1023.0</ele><time>2026-04-06T15:13:42Z</time></trkpt><trkpt lat="44.912082701848" lon="4.300526741866727"><ele>1023.0</ele><time>2026-04-06T15:13:44Z</time></trkpt><trkpt lat="44.91210200114523" lon="4.300620863174613"><ele>1023.0</ele><time>2026-04-06T15:13:45Z</time></trkpt><trkpt lat="44.91216155366027" lon="4.300746745939153"><ele>1023.2</ele><time>2026-04-06T15:13:47Z</time></trkpt><trkpt lat="44.91222968606558" lon="4.300876882818726"><ele>1023.4</ele><time>2026-04-06T15:13:49Z</time></trkpt><trkpt lat="44.91226790152183" lon="4.300949616556913"><ele>1023.6000000000001</ele><time>2026-04-06T15:13:50Z</time></trkpt><trkpt lat="44.912294835508526" lon="4.301039376998161"><ele>1023.8000000000001</ele><time>2026-04-06T15:13:51Z</time></trkpt><trkpt lat="44.91236654105629" lon="4.301158331165153"><ele>1024.0</ele><time>2026-04-06T15:13:53Z</time></trkpt><trkpt lat="44.91239381780635" lon="4.301287455059403"><ele>1024.4</ele><time>2026-04-06T15:13:55Z</time></trkpt><trkpt lat="44.912431600722456" lon="4.301419006237691"><ele>1024.8000000000002</ele><time>2026-04-06T15:13:57Z</time></trkpt><trkpt lat="44.912445058014995" lon="4.301568322645021"><ele>1025.1999999999998</ele><time>2026-04-06T15:13:59Z</time></trkpt><trkpt lat="44.912435639563746" lon="4.301701693796395"><ele>1025.6</ele><time>2026-04-06T15:14:02Z</time></trkpt><trkpt lat="44.912439203958385" lon="4.301835501186475"><ele>1026.0</ele><time>2026-04-06T15:14:05Z</time></trkpt><trkpt lat="44.912464559749495" lon="4.302149646446543"><ele>1025.4285714285716</ele><time>2026-04-06T15:14:07Z</time></trkpt><trkpt lat="44.91247101690544" lon="4.302248682974785"><ele>1024.857142857143</ele><time>2026-04-06T15:14:09Z</time></trkpt><trkpt lat="44.91246731685942" lon="4.302366928333879"><ele>1024.2857142857142</ele><time>2026-04-06T15:14:12Z</time></trkpt><trkpt lat="44.912463715673674" lon="4.302459680264013"><ele>1023.7142857142858</ele><time>2026-04-06T15:14:14Z</time></trkpt><trkpt lat="44.9124731496305" lon="4.3025545591146495"><ele>1023.1428571428571</ele><time>2026-04-06T15:14:16Z</time></trkpt><trkpt lat="44.91246895563241" lon="4.302663027534169"><ele>1022.5714285714286</ele><time>2026-04-06T15:14:19Z</time></trkpt><trkpt lat="44.912448260709056" lon="4.302753460832819"><ele>1022.0</ele><time>2026-04-06T15:15:17Z</time></trkpt><trkpt lat="44.91243478285266" lon="4.302880214386063"><ele>1022.0</ele><time>2026-04-06T15:15:19Z</time></trkpt><trkpt lat="44.91241723873208" lon="4.303020109024915"><ele>1022.0</ele><time>2026-04-06T15:15:21Z</time></trkpt><trkpt lat="44.91240861235741" lon="4.303167326753918"><ele>1022.0</ele><time>2026-04-06T15:15:23Z</time></trkpt><trkpt lat="44.91238626562122" lon="4.303299266033382"><ele>1022.0</ele><time>2026-04-06T15:15:25Z</time></trkpt><trkpt lat="44.91232961121741" lon="4.3034183832273785"><ele>1022.0</ele><time>2026-04-06T15:15:27Z</time></trkpt><trkpt lat="44.91230824786373" lon="4.30358780450213"><ele>1021.0</ele><time>2026-04-06T15:15:29Z</time></trkpt><trkpt lat="44.91228231537593" lon="4.303734754675828"><ele>1020.0</ele><time>2026-04-06T15:15:31Z</time></trkpt><trkpt lat="44.91223368615303" lon="4.3038943059710375"><ele>1019.0</ele><time>2026-04-06T15:15:33Z</time></trkpt><trkpt lat="44.912193569272134" lon="4.304024211320309"><ele>1018.0</ele><time>2026-04-06T15:15:35Z</time></trkpt><trkpt lat="44.912173673132415" lon="4.304134617958313"><ele>1017.0</ele><time>2026-04-06T15:15:37Z</time></trkpt><trkpt lat="44.91214785368558" lon="4.304288931995888"><ele>1015.6</ele><time>2026-04-06T15:15:39Z</time></trkpt><trkpt lat="44.91215173534941" lon="4.304456662212696"><ele>1014.2</ele><time>2026-04-06T15:15:41Z</time></trkpt><trkpt lat="44.912125806975624" lon="4.304608870106832"><ele>1012.8</ele><time>2026-04-06T15:15:43Z</time></trkpt><trkpt lat="44.912133536045765" lon="4.30470000501004"><ele>1011.4</ele><time>2026-04-06T15:15:44Z</time></trkpt><trkpt lat="44.912135804556485" lon="4.304795581218999"><ele>1010.0</ele><time>2026-04-06T15:15:45Z</time></trkpt><trkpt lat="44.91211523738755" lon="4.304970312420744"><ele>1008.8333333333334</ele><time>2026-04-06T15:15:47Z</time></trkpt><trkpt lat="44.91212154365819" lon="4.3050665293169805"><ele>1007.6666666666667</ele><time>2026-04-06T15:15:48Z</time></trkpt><trkpt lat="44.91211942395997" lon="4.305158504003198"><ele>1006.5</ele><time>2026-04-06T15:15:49Z</time></trkpt><trkpt lat="44.912145856232364" lon="4.3052639137890365"><ele>1005.3333333333333</ele><time>2026-04-06T15:15:51Z</time></trkpt><trkpt lat="44.912128002973105" lon="4.305379178161308"><ele>1004.1666666666666</ele><time>2026-04-06T15:15:53Z</time></trkpt><trkpt lat="44.912134730030544" lon="4.30552973049693"><ele>1003.0</ele><time>2026-04-06T15:15:55Z</time></trkpt><trkpt lat="44.91214103781069" lon="4.3056289032984285"><ele>1002.25</ele><time>2026-04-06T15:15:58Z</time></trkpt><trkpt lat="44.91216407680916" lon="4.305722880349058"><ele>1001.5</ele><time>2026-04-06T15:16:00Z</time></trkpt><trkpt lat="44.91224546309418" lon="4.3060118236804135"><ele>1000.75</ele><time>2026-04-06T15:16:03Z</time></trkpt><trkpt lat="44.91233067412688" lon="4.306075286852214"><ele>1000.0</ele><time>2026-04-06T15:16:05Z</time></trkpt><trkpt lat="44.912370175753125" lon="4.3062156080071325"><ele>1000.0</ele><time>2026-04-06T15:16:07Z</time></trkpt><trkpt lat="44.912407205159816" lon="4.306386078850237"><ele>1000.0</ele><time>2026-04-06T15:16:09Z</time></trkpt><trkpt lat="44.91247317041961" lon="4.306501521981537"><ele>1000.0</ele><time>2026-04-06T15:16:11Z</time></trkpt><trkpt lat="44.91248800428167" lon="4.306628450335377"><ele>1000.0</ele><time>2026-04-06T15:16:13Z</time></trkpt><trkpt lat="44.91252680705138" lon="4.306700916424168"><ele>1000.0</ele><time>2026-04-06T15:16:21Z</time></trkpt><trkpt lat="44.91263319000365" lon="4.306779996754673"><ele>1000.4</ele><time>2026-04-06T15:18:15Z</time></trkpt><trkpt lat="44.912699335539" lon="4.306839000187029"><ele>1000.8</ele><time>2026-04-06T15:18:16Z</time></trkpt><trkpt lat="44.91280055849221" lon="4.306916373274861"><ele>1001.2</ele><time>2026-04-06T15:18:18Z</time></trkpt><trkpt lat="44.91289713156856" lon="4.307011657738026"><ele>1001.6</ele><time>2026-04-06T15:18:20Z</time></trkpt><trkpt lat="44.91297770483322" lon="4.307110368349978"><ele>1002.0</ele><time>2026-04-06T15:18:22Z</time></trkpt><trkpt lat="44.91307201128061" lon="4.307108067986354"><ele>1002.0</ele><time>2026-04-06T15:18:24Z</time></trkpt><trkpt lat="44.913158294478336" lon="4.307130822084264"><ele>1002.0</ele><time>2026-04-06T15:18:26Z</time></trkpt><trkpt lat="44.913202783942126" lon="4.307243820393944"><ele>1002.0</ele><time>2026-04-06T15:18:38Z</time></trkpt><trkpt lat="44.91320534124752" lon="4.307354064538517"><ele>1002.0</ele><time>2026-04-06T15:18:40Z</time></trkpt><trkpt lat="44.91320365441717" lon="4.307486884396685"><ele>1002.0</ele><time>2026-04-06T15:18:42Z</time></trkpt><trkpt lat="44.913221363637" lon="4.307585914632422"><ele>1002.0</ele><time>2026-04-06T15:18:44Z</time></trkpt><trkpt lat="44.91319927872927" lon="4.307712259367461"><ele>1002.5</ele><time>2026-04-06T15:18:47Z</time></trkpt><trkpt lat="44.913203549990136" lon="4.307834834952655"><ele>1003.0</ele><time>2026-04-06T15:18:49Z</time></trkpt><trkpt lat="44.913215723083404" lon="4.307944093961645"><ele>1003.5</ele><time>2026-04-06T15:18:51Z</time></trkpt><trkpt lat="44.91323079396583" lon="4.308058429104195"><ele>1004.0</ele><time>2026-04-06T15:18:53Z</time></trkpt><trkpt lat="44.91328243433917" lon="4.30816558902326"><ele>1004.5</ele><time>2026-04-06T15:18:55Z</time></trkpt><trkpt lat="44.91331032166662" lon="4.30829638320715"><ele>1005.0</ele><time>2026-04-06T15:18:57Z</time></trkpt><trkpt lat="44.91331396245494" lon="4.308409359549359"><ele>1003.0</ele><time>2026-04-06T15:18:59Z</time></trkpt><trkpt lat="44.91333509805259" lon="4.308550101241377"><ele>1001.0</ele><time>2026-04-06T15:19:02Z</time></trkpt><trkpt lat="44.91335424255249" lon="4.308709127582015"><ele>999.0</ele><time>2026-04-06T15:19:04Z</time></trkpt><trkpt lat="44.913401206977014" lon="4.308857936649043"><ele>997.0</ele><time>2026-04-06T15:19:06Z</time></trkpt><trkpt lat="44.9135002939568" lon="4.308968246366101"><ele>1001.8</ele><time>2026-04-06T15:19:08Z</time></trkpt><trkpt lat="44.91360528212251" lon="4.309069743699233"><ele>1006.6</ele><time>2026-04-06T15:19:10Z</time></trkpt><trkpt lat="44.913657820354906" lon="4.309121994050417"><ele>1011.3999999999999</ele><time>2026-04-06T15:19:11Z</time></trkpt><trkpt lat="44.91374235856355" lon="4.3092600541168915"><ele>1016.1999999999999</ele><time>2026-04-06T15:19:13Z</time></trkpt><trkpt lat="44.913804138504226" lon="4.309322992568447"><ele>1021.0</ele><time>2026-04-06T15:19:14Z</time></trkpt><trkpt lat="44.91385888775923" lon="4.30939130017509"><ele>1020.9999999999999</ele><time>2026-04-06T15:19:15Z</time></trkpt><trkpt lat="44.913960949897906" lon="4.309391695773431"><ele>1021.0</ele><time>2026-04-06T15:19:17Z</time></trkpt><trkpt lat="44.914028246462664" lon="4.309476435587943"><ele>1021.0</ele><time>2026-04-06T15:19:18Z</time></trkpt><trkpt lat="44.914090267000375" lon="4.30950505451318"><ele>1021.0</ele><time>2026-04-06T15:19:19Z</time></trkpt><trkpt lat="44.914175939153196" lon="4.309576009297156"><ele>1020.9999999999999</ele><time>2026-04-06T15:19:21Z</time></trkpt><trkpt lat="44.91419795614665" lon="4.309669452284162"><ele>1021.0</ele><time>2026-04-06T15:19:22Z</time></trkpt><trkpt lat="44.914245852728286" lon="4.3097602032557285"><ele>1023.6666666666666</ele><time>2026-04-06T15:19:23Z</time></trkpt><trkpt lat="44.91427497520924" lon="4.309846389643127"><ele>1026.3333333333333</ele><time>2026-04-06T15:19:24Z</time></trkpt><trkpt lat="44.91432741887696" lon="4.309916946327721"><ele>1029.0</ele><time>2026-04-06T15:19:25Z</time></trkpt><trkpt lat="44.91437322492248" lon="4.310009990250788"><ele>1031.6666666666667</ele><time>2026-04-06T15:19:26Z</time></trkpt><trkpt lat="44.91440827539679" lon="4.310100983665703"><ele>1034.3333333333335</ele><time>2026-04-06T15:19:27Z</time></trkpt><trkpt lat="44.91444475026943" lon="4.310182940940774"><ele>1037.0</ele><time>2026-04-06T15:19:28Z</time></trkpt><trkpt lat="44.91448450552278" lon="4.310307338585748"><ele>1037.0</ele><time>2026-04-06T15:19:30Z</time></trkpt><trkpt lat="44.914560025436074" lon="4.310391268253707"><ele>1037.0</ele><time>2026-04-06T15:19:32Z</time></trkpt><trkpt lat="44.914651064140614" lon="4.310481166895008"><ele>1037.0</ele><time>2026-04-06T15:19:34Z</time></trkpt><trkpt lat="44.91474678812487" lon="4.3105312591253675"><ele>1037.0</ele><time>2026-04-06T15:19:36Z</time></trkpt><trkpt lat="44.914811082314365" lon="4.310553572057734"><ele>1037.0</ele><time>2026-04-06T15:19:37Z</time></trkpt><trkpt lat="44.91488288558356" lon="4.310642752435016"><ele>1035.1666666666667</ele><time>2026-04-06T15:19:39Z</time></trkpt><trkpt lat="44.91496847771398" lon="4.310698705210401"><ele>1033.3333333333335</ele><time>2026-04-06T15:19:41Z</time></trkpt><trkpt lat="44.91507158454399" lon="4.310751424653288"><ele>1031.5</ele><time>2026-04-06T15:19:44Z</time></trkpt><trkpt lat="44.915134365576456" lon="4.310738619675607"><ele>1029.6666666666667</ele><time>2026-04-06T15:19:47Z</time></trkpt><trkpt lat="44.91516948130466" lon="4.310816966303618"><ele>1027.8333333333333</ele><time>2026-04-06T15:19:48Z</time></trkpt><trkpt lat="44.91524800286029" lon="4.310839762213349"><ele>1026.0</ele><time>2026-04-06T15:19:49Z</time></trkpt><trkpt lat="44.915326116433796" lon="4.310846018039535"><ele>1022.4</ele><time>2026-04-06T15:19:50Z</time></trkpt><trkpt lat="44.91539756968059" lon="4.310855720827972"><ele>1018.8</ele><time>2026-04-06T15:19:51Z</time></trkpt><trkpt lat="44.91551601459261" lon="4.310904230912827"><ele>1015.1999999999999</ele><time>2026-04-06T15:19:53Z</time></trkpt><trkpt lat="44.91562954347852" lon="4.310945974771344"><ele>1011.5999999999999</ele><time>2026-04-06T15:19:55Z</time></trkpt><trkpt lat="44.915677133135176" lon="4.311023157763222"><ele>1008.0</ele><time>2026-04-06T15:19:56.999Z</time></trkpt><trkpt lat="44.91574457149984" lon="4.311082729061752"><ele>1008.0</ele><time>2026-04-06T15:19:58.999Z</time></trkpt><trkpt lat="44.915784172737226" lon="4.311169736280235"><ele>1008.0</ele><time>2026-04-06T15:20:00.999Z</time></trkpt><trkpt lat="44.915838211694414" lon="4.311220386638644"><ele>1008.0</ele><time>2026-04-06T15:20:02.999Z</time></trkpt><trkpt lat="44.91590523939202" lon="4.311288388919493"><ele>1008.0</ele><time>2026-04-06T15:20:05Z</time></trkpt><trkpt lat="44.91594507509494" lon="4.311378061568889"><ele>1008.0</ele><time>2026-04-06T15:20:07Z</time></trkpt><trkpt lat="44.91598760519888" lon="4.3114539833045615"><ele>1008.0</ele><time>2026-04-06T15:20:09Z</time></trkpt><trkpt lat="44.916035131995436" lon="4.311527441414813"><ele>1008.0</ele><time>2026-04-06T15:20:12Z</time></trkpt><trkpt lat="44.91604432857141" lon="4.311393100638266"><ele>1002.6666666666666</ele><time>2026-04-06T15:20:15Z</time></trkpt><trkpt lat="44.916046167740134" lon="4.3113030908514896"><ele>997.3333333333333</ele><time>2026-04-06T15:20:17Z</time></trkpt><trkpt lat="44.91602506797273" lon="4.311181031004019"><ele>992.0</ele><time>2026-04-06T15:20:19Z</time></trkpt><trkpt lat="44.91604448040228" lon="4.31104908773734"><ele>986.6666666666666</ele><time>2026-04-06T15:20:21Z</time></trkpt><trkpt lat="44.916051883917184" lon="4.310889169801988"><ele>981.3333333333333</ele><time>2026-04-06T15:20:23Z</time></trkpt><trkpt lat="44.91605875954807" lon="4.310776210076417"><ele>976.0</ele><time>2026-04-06T15:20:25Z</time></trkpt><trkpt lat="44.91612413175254" lon="4.310688916991151"><ele>975.9999999999999</ele><time>2026-04-06T15:20:27Z</time></trkpt><trkpt lat="44.91610044587931" lon="4.3105859218265525"><ele>976.0</ele><time>2026-04-06T15:20:30Z</time></trkpt><trkpt lat="44.916168396763894" lon="4.310613495784348"><ele>976.0</ele><time>2026-04-06T15:20:35Z</time></trkpt><trkpt lat="44.91620562491318" lon="4.310714669963669"><ele>976.0</ele><time>2026-04-06T15:20:36Z</time></trkpt><trkpt lat="44.916295265480095" lon="4.310856687870897"><ele>975.9999999999999</ele><time>2026-04-06T15:20:39Z</time></trkpt><trkpt lat="44.916325939651855" lon="4.310966111042665"><ele>976.0</ele><time>2026-04-06T15:20:40Z</time></trkpt><trkpt lat="44.91637606401407" lon="4.311081772339993"><ele>976.0</ele><time>2026-04-06T15:20:42Z</time></trkpt><trkpt lat="44.91645545140488" lon="4.311195440980701"><ele>975.9999999999999</ele><time>2026-04-06T15:20:44Z</time></trkpt><trkpt lat="44.916543766486086" lon="4.311273124906768"><ele>975.9999999999999</ele><time>2026-04-06T15:20:46Z</time></trkpt><trkpt lat="44.91662223657123" lon="4.31123332872989"><ele>976.0</ele><time>2026-04-06T15:20:48Z</time></trkpt><trkpt lat="44.91671261921285" lon="4.311262365493661"><ele>976.0</ele><time>2026-04-06T15:20:50Z</time></trkpt><trkpt lat="44.916768172826686" lon="4.31132499625634"><ele>974.5999999999999</ele><time>2026-04-06T15:20:52Z</time></trkpt><trkpt lat="44.916829132330086" lon="4.3114324855811645"><ele>973.1999999999999</ele><time>2026-04-06T15:20:55Z</time></trkpt><trkpt lat="44.916940972230094" lon="4.3114942674667445"><ele>971.8000000000001</ele><time>2026-04-06T15:20:57Z</time></trkpt><trkpt lat="44.9170225632318" lon="4.3115372350184415"><ele>970.4000000000001</ele><time>2026-04-06T15:20:59Z</time></trkpt><trkpt lat="44.91712991774482" lon="4.311577033597672"><ele>969.0</ele><time>2026-04-06T15:21:01Z</time></trkpt><trkpt lat="44.91721413667514" lon="4.311567216209819"><ele>969.0</ele><time>2026-04-06T15:21:03Z</time></trkpt><trkpt lat="44.91729000212547" lon="4.311599850643753"><ele>969.0000000000001</ele><time>2026-04-06T15:21:06Z</time></trkpt><trkpt lat="44.917349994923796" lon="4.311754987643706"><ele>969.0000000000001</ele><time>2026-04-06T15:21:08Z</time></trkpt><trkpt lat="44.91742748383391" lon="4.311884854829529"><ele>969.0</ele><time>2026-04-06T15:21:09Z</time></trkpt><trkpt lat="44.91749755400118" lon="4.311968663281767"><ele>969.0</ele><time>2026-04-06T15:21:10Z</time></trkpt><trkpt lat="44.9175671826722" lon="4.3120367958287575"><ele>967.2</ele><time>2026-04-06T15:21:11Z</time></trkpt><trkpt lat="44.917672598568686" lon="4.312105051503701"><ele>965.4000000000001</ele><time>2026-04-06T15:21:12Z</time></trkpt><trkpt lat="44.91773392606441" lon="4.312207380172176"><ele>963.6</ele><time>2026-04-06T15:21:13Z</time></trkpt><trkpt lat="44.91781419473471" lon="4.3122872080886205"><ele>961.8</ele><time>2026-04-06T15:21:15Z</time></trkpt><trkpt lat="44.91784153518629" lon="4.312401322182114"><ele>960.0</ele><time>2026-04-06T15:21:18Z</time></trkpt><trkpt lat="44.91791022110451" lon="4.312471971236886"><ele>960.0</ele><time>2026-04-06T15:21:20Z</time></trkpt><trkpt lat="44.91813491321853" lon="4.312657256841509"><ele>960.0</ele><time>2026-04-06T15:21:23Z</time></trkpt><trkpt lat="44.91821438880659" lon="4.312734881739642"><ele>960.0</ele><time>2026-04-06T15:21:24Z</time></trkpt><trkpt lat="44.91826004471362" lon="4.312823876155614"><ele>960.0</ele><time>2026-04-06T15:21:25Z</time></trkpt><trkpt lat="44.91833370682907" lon="4.31292784508277"><ele>960.0</ele><time>2026-04-06T15:21:26Z</time></trkpt><trkpt lat="44.9183818938783" lon="4.312991460161393"><ele>960.0</ele><time>2026-04-06T15:21:27Z</time></trkpt><trkpt lat="44.918458767523326" lon="4.3130461403633"><ele>960.0</ele><time>2026-04-06T15:21:28Z</time></trkpt><trkpt lat="44.91852580341019" lon="4.313099141387694"><ele>960.0</ele><time>2026-04-06T15:21:29Z</time></trkpt><trkpt lat="44.9185893881629" lon="4.313163149629569"><ele>960.0</ele><time>2026-04-06T15:21:30Z</time></trkpt><trkpt lat="44.91864373289378" lon="4.313246942658829"><ele>960.0</ele><time>2026-04-06T15:21:31Z</time></trkpt><trkpt lat="44.91871433561164" lon="4.31331224670284"><ele>958.6</ele><time>2026-04-06T15:21:32Z</time></trkpt><trkpt lat="44.918768676836564" lon="4.313384320536781"><ele>957.2</ele><time>2026-04-06T15:21:33Z</time></trkpt><trkpt lat="44.91883133085707" lon="4.313409260246053"><ele>955.8</ele><time>2026-04-06T15:21:34Z</time></trkpt><trkpt lat="44.91889803063387" lon="4.313419340604069"><ele>954.4</ele><time>2026-04-06T15:21:35Z</time></trkpt><trkpt lat="44.918977453023395" lon="4.31353939722129"><ele>953.0</ele><time>2026-04-06T15:21:36Z</time></trkpt><trkpt lat="44.91904069394942" lon="4.31374268410049"><ele>953.0</ele><time>2026-04-06T15:21:38Z</time></trkpt><trkpt lat="44.91907938851938" lon="4.31383065999955"><ele>953.0</ele><time>2026-04-06T15:21:39Z</time></trkpt><trkpt lat="44.91912633841249" lon="4.313926608963026"><ele>953.0</ele><time>2026-04-06T15:21:40Z</time></trkpt><trkpt lat="44.91914421516021" lon="4.314153218123096"><ele>953.0</ele><time>2026-04-06T15:21:42Z</time></trkpt><trkpt lat="44.91919259438602" lon="4.314252699400174"><ele>953.0</ele><time>2026-04-06T15:21:43Z</time></trkpt><trkpt lat="44.919237868556586" lon="4.31431892341043"><ele>952.8</ele><time>2026-04-06T15:21:44Z</time></trkpt><trkpt lat="44.91927397425917" lon="4.314400992693065"><ele>952.5999999999999</ele><time>2026-04-06T15:21:47Z</time></trkpt><trkpt lat="44.91932253235441" lon="4.314333318846102"><ele>952.4000000000001</ele><time>2026-04-06T15:22:06.999Z</time></trkpt><trkpt lat="44.91944558634374" lon="4.3144147374645225"><ele>952.2</ele><time>2026-04-06T15:22:08.999Z</time></trkpt><trkpt lat="44.91956134443413" lon="4.314452561900798"><ele>952.0</ele><time>2026-04-06T15:22:10Z</time></trkpt><trkpt lat="44.919669926870235" lon="4.314505952883233"><ele>952.0</ele><time>2026-04-06T15:22:11Z</time></trkpt><trkpt lat="44.91975109271252" lon="4.314530541426094"><ele>952.0</ele><time>2026-04-06T15:22:12Z</time></trkpt><trkpt lat="44.91982969947043" lon="4.314569000492655"><ele>952.0</ele><time>2026-04-06T15:22:16Z</time></trkpt><trkpt lat="44.91989239521671" lon="4.314650903513805"><ele>952.0</ele><time>2026-04-06T15:22:19Z</time></trkpt><trkpt lat="44.91993866412367" lon="4.314746064341235"><ele>952.0</ele><time>2026-04-06T15:22:22Z</time></trkpt><trkpt lat="44.92005381687227" lon="4.314838251855462"><ele>951.8</ele><time>2026-04-06T15:22:23Z</time></trkpt><trkpt lat="44.92015223011058" lon="4.314948327412975"><ele>951.6</ele><time>2026-04-06T15:22:24Z</time></trkpt><trkpt lat="44.92021703906208" lon="4.315010648112322"><ele>951.3999999999999</ele><time>2026-04-06T15:22:25Z</time></trkpt><trkpt lat="44.9203050611178" lon="4.315068115834211"><ele>951.1999999999999</ele><time>2026-04-06T15:22:26Z</time></trkpt><trkpt lat="44.92037693866097" lon="4.315143518116006"><ele>951.0</ele><time>2026-04-06T15:22:27Z</time></trkpt><trkpt lat="44.92044816748251" lon="4.315224456562208"><ele>951.0</ele><time>2026-04-06T15:22:28Z</time></trkpt><trkpt lat="44.9205159281991" lon="4.315317674194392"><ele>950.9999999999999</ele><time>2026-04-06T15:22:29Z</time></trkpt><trkpt lat="44.92059369923086" lon="4.315416511071048"><ele>950.9999999999999</ele><time>2026-04-06T15:22:30Z</time></trkpt><trkpt lat="44.92064989376199" lon="4.31552670457742"><ele>951.0</ele><time>2026-04-06T15:22:31Z</time></trkpt><trkpt lat="44.92069025105408" lon="4.315602009176192"><ele>951.0</ele><time>2026-04-06T15:22:32Z</time></trkpt><trkpt lat="44.920748625770635" lon="4.315702008904932"><ele>950.5</ele><time>2026-04-06T15:22:33Z</time></trkpt><trkpt lat="44.92079546725462" lon="4.315776240697893"><ele>950.0</ele><time>2026-04-06T15:22:34Z</time></trkpt><trkpt lat="44.920856258730794" lon="4.315827925671231"><ele>949.5</ele><time>2026-04-06T15:22:35Z</time></trkpt><trkpt lat="44.920922841427235" lon="4.315871230177976"><ele>949.0</ele><time>2026-04-06T15:22:36Z</time></trkpt><trkpt lat="44.9209880060237" lon="4.315862465521361"><ele>948.5</ele><time>2026-04-06T15:22:37Z</time></trkpt><trkpt lat="44.921082757026234" lon="4.315769433354864"><ele>948.0</ele><time>2026-04-06T15:22:39Z</time></trkpt><trkpt lat="44.92113036178796" lon="4.315702337390361"><ele>946.5</ele><time>2026-04-06T15:22:40Z</time></trkpt><trkpt lat="44.92117882754419" lon="4.3156206240549535"><ele>945.0</ele><time>2026-04-06T15:22:41Z</time></trkpt><trkpt lat="44.92121362142959" lon="4.315539671956636"><ele>943.5</ele><time>2026-04-06T15:22:42Z</time></trkpt><trkpt lat="44.9212548441562" lon="4.315416375161478"><ele>942.0</ele><time>2026-04-06T15:22:44Z</time></trkpt><trkpt lat="44.92134004917571" lon="4.315404476265842"><ele>940.5</ele><time>2026-04-06T15:22:46Z</time></trkpt><trkpt lat="44.92136877840442" lon="4.315512483675938"><ele>939.0</ele><time>2026-04-06T15:22:49Z</time></trkpt><trkpt lat="44.92147926075077" lon="4.315550331623562"><ele>934.5</ele><time>2026-04-06T15:22:51Z</time></trkpt><trkpt lat="44.9217758405707" lon="4.3158935645198895"><ele>930.0</ele><time>2026-04-06T15:22:54Z</time></trkpt><trkpt lat="44.9218413370845" lon="4.3159513035881325"><ele>930.0</ele><time>2026-04-06T15:22:55Z</time></trkpt><trkpt lat="44.92190747630498" lon="4.31602530570565"><ele>930.0</ele><time>2026-04-06T15:22:56Z</time></trkpt><trkpt lat="44.92196194789617" lon="4.3160996268821865"><ele>930.0</ele><time>2026-04-06T15:22:57Z</time></trkpt><trkpt lat="44.922020847001576" lon="4.316175937933616"><ele>930.0</ele><time>2026-04-06T15:22:58Z</time></trkpt><trkpt lat="44.9220722884583" lon="4.316239938662991"><ele>930.0</ele><time>2026-04-06T15:22:59Z</time></trkpt><trkpt lat="44.922116000163015" lon="4.3163453871661055"><ele>930.0</ele><time>2026-04-06T15:23:00Z</time></trkpt><trkpt lat="44.922178700450885" lon="4.3164079505336765"><ele>929.8333333333334</ele><time>2026-04-06T15:23:01Z</time></trkpt><trkpt lat="44.92223567222425" lon="4.316471888178498"><ele>929.6666666666667</ele><time>2026-04-06T15:23:02Z</time></trkpt><trkpt lat="44.92228593428488" lon="4.3165477967503385"><ele>929.5</ele><time>2026-04-06T15:23:03Z</time></trkpt><trkpt lat="44.922348026567306" lon="4.316636457646396"><ele>929.3333333333334</ele><time>2026-04-06T15:23:04Z</time></trkpt><trkpt lat="44.92240330745821" lon="4.316700644805378"><ele>929.1666666666667</ele><time>2026-04-06T15:23:05Z</time></trkpt><trkpt lat="44.92246902861756" lon="4.316786249938333"><ele>929.0</ele><time>2026-04-06T15:23:06Z</time></trkpt><trkpt lat="44.92250446908892" lon="4.316886368895556"><ele>929.0</ele><time>2026-04-06T15:23:07Z</time></trkpt><trkpt lat="44.922559320591795" lon="4.316980705729928"><ele>929.0000000000001</ele><time>2026-04-06T15:23:08Z</time></trkpt><trkpt lat="44.92261984646358" lon="4.3170596596333946"><ele>929.0000000000001</ele><time>2026-04-06T15:23:09Z</time></trkpt><trkpt lat="44.922678771232064" lon="4.317154542849629"><ele>929.0</ele><time>2026-04-06T15:23:10Z</time></trkpt><trkpt lat="44.92274201961386" lon="4.317272537676693"><ele>929.0</ele><time>2026-04-06T15:23:11Z</time></trkpt><trkpt lat="44.92281081752655" lon="4.317359939779466"><ele>927.4000000000001</ele><time>2026-04-06T15:23:12Z</time></trkpt><trkpt lat="44.92286870744928" lon="4.31746096090326"><ele>925.8000000000001</ele><time>2026-04-06T15:23:13Z</time></trkpt><trkpt lat="44.922944130945126" lon="4.317562821776342"><ele>924.1999999999999</ele><time>2026-04-06T15:23:14Z</time></trkpt><trkpt lat="44.92299626718886" lon="4.31767468431699"><ele>922.5999999999999</ele><time>2026-04-06T15:23:15Z</time></trkpt><trkpt lat="44.92304926691561" lon="4.317789697866366"><ele>921.0</ele><time>2026-04-06T15:23:16Z</time></trkpt><trkpt lat="44.923106703656764" lon="4.317899382608611"><ele>921.0</ele><time>2026-04-06T15:23:17Z</time></trkpt><trkpt lat="44.923166266294665" lon="4.317989241654391"><ele>921.0</ele><time>2026-04-06T15:23:18Z</time></trkpt><trkpt lat="44.92321336287128" lon="4.318087705080255"><ele>921.0</ele><time>2026-04-06T15:23:19Z</time></trkpt><trkpt lat="44.92325888050994" lon="4.3181928424659235"><ele>921.0</ele><time>2026-04-06T15:23:20Z</time></trkpt><trkpt lat="44.92330253970771" lon="4.31830466951948"><ele>921.0</ele><time>2026-04-06T15:23:21Z</time></trkpt><trkpt lat="44.92335030997888" lon="4.318427612791993"><ele>921.0</ele><time>2026-04-06T15:23:22Z</time></trkpt><trkpt lat="44.92339836351349" lon="4.31854922492611"><ele>918.8333333333334</ele><time>2026-04-06T15:23:23Z</time></trkpt><trkpt lat="44.923434939360135" lon="4.318667461204811"><ele>916.6666666666667</ele><time>2026-04-06T15:23:24Z</time></trkpt><trkpt lat="44.92346887034317" lon="4.318783079366451"><ele>914.5</ele><time>2026-04-06T15:23:25Z</time></trkpt><trkpt lat="44.923505403559176" lon="4.318875922466387"><ele>912.3333333333334</ele><time>2026-04-06T15:23:26Z</time></trkpt><trkpt lat="44.923534777429744" lon="4.318985008269679"><ele>910.1666666666667</ele><time>2026-04-06T15:23:27Z</time></trkpt><trkpt lat="44.923565198948616" lon="4.319085234610937"><ele>908.0</ele><time>2026-04-06T15:23:28Z</time></trkpt><trkpt lat="44.923592570229594" lon="4.3191825695662125"><ele>908.0000000000001</ele><time>2026-04-06T15:23:29Z</time></trkpt><trkpt lat="44.92362237564459" lon="4.319282781373972"><ele>908.0</ele><time>2026-04-06T15:23:30Z</time></trkpt><trkpt lat="44.923653126973676" lon="4.319384924470394"><ele>908.0</ele><time>2026-04-06T15:23:31Z</time></trkpt><trkpt lat="44.92368372052829" lon="4.319486993585868"><ele>908.0</ele><time>2026-04-06T15:23:32Z</time></trkpt><trkpt lat="44.92372091761648" lon="4.3195768371580066"><ele>908.0000000000001</ele><time>2026-04-06T15:23:33Z</time></trkpt><trkpt lat="44.92375431670014" lon="4.319692480724792"><ele>908.0</ele><time>2026-04-06T15:23:34Z</time></trkpt><trkpt lat="44.923790844533194" lon="4.319787266996178"><ele>907.3333333333334</ele><time>2026-04-06T15:23:35Z</time></trkpt><trkpt lat="44.92382409184266" lon="4.319887616438942"><ele>906.6666666666667</ele><time>2026-04-06T15:23:36Z</time></trkpt><trkpt lat="44.92386499108027" lon="4.3199918121789915"><ele>906.0</ele><time>2026-04-06T15:23:37Z</time></trkpt><trkpt lat="44.92389990666081" lon="4.320083960711093"><ele>905.3333333333333</ele><time>2026-04-06T15:23:38Z</time></trkpt><trkpt lat="44.92393617363143" lon="4.3201767639806095"><ele>904.6666666666666</ele><time>2026-04-06T15:23:39Z</time></trkpt><trkpt lat="44.923956795936114" lon="4.320272314302823"><ele>904.0</ele><time>2026-04-06T15:23:40Z</time></trkpt><trkpt lat="44.92397597008684" lon="4.320378479115236"><ele>904.0</ele><time>2026-04-06T15:23:41Z</time></trkpt><trkpt lat="44.92400051537235" lon="4.320485218510526"><ele>904.0</ele><time>2026-04-06T15:23:42Z</time></trkpt><trkpt lat="44.924021774197776" lon="4.320588301235148"><ele>904.0</ele><time>2026-04-06T15:23:43Z</time></trkpt><trkpt lat="44.92403899015757" lon="4.320682968697063"><ele>904.0</ele><time>2026-04-06T15:23:44Z</time></trkpt><trkpt lat="44.924049780361415" lon="4.320773145362245"><ele>904.0</ele><time>2026-04-06T15:23:45Z</time></trkpt><trkpt lat="44.92406693503699" lon="4.3208723019796365"><ele>904.0</ele><time>2026-04-06T15:23:46Z</time></trkpt><trkpt lat="44.924096930884325" lon="4.320958180838388"><ele>904.0</ele><time>2026-04-06T15:23:47Z</time></trkpt><trkpt lat="44.92413342905039" lon="4.321034191086255"><ele>902.4000000000001</ele><time>2026-04-06T15:23:48Z</time></trkpt><trkpt lat="44.92417415930935" lon="4.321113957674192"><ele>900.8000000000001</ele><time>2026-04-06T15:23:49Z</time></trkpt><trkpt lat="44.92425052799853" lon="4.321265288377279"><ele>899.1999999999999</ele><time>2026-04-06T15:23:51Z</time></trkpt><trkpt lat="44.92429639863973" lon="4.321448628962528"><ele>897.5999999999999</ele><time>2026-04-06T15:23:53Z</time></trkpt><trkpt lat="44.92433131336737" lon="4.321545177295534"><ele>896.0</ele><time>2026-04-06T15:23:54Z</time></trkpt><trkpt lat="44.92436605205192" lon="4.321619497343225"><ele>892.1999999999999</ele><time>2026-04-06T15:23:55Z</time></trkpt><trkpt lat="44.924406856089426" lon="4.321759572573512"><ele>888.3999999999999</ele><time>2026-04-06T15:23:57Z</time></trkpt><trkpt lat="44.92445283347973" lon="4.3218777230691545"><ele>884.6</ele><time>2026-04-06T15:23:59Z</time></trkpt><trkpt lat="44.924498828069844" lon="4.322032050310031"><ele>880.8</ele><time>2026-04-06T15:24:00.999Z</time></trkpt><trkpt lat="44.92454271191948" lon="4.322163246804682"><ele>877.0</ele><time>2026-04-06T15:24:02.999Z</time></trkpt><trkpt lat="44.92459676240717" lon="4.322306901446628"><ele>877.0</ele><time>2026-04-06T15:24:04.999Z</time></trkpt><trkpt lat="44.924640273204815" lon="4.322465273131655"><ele>877.0</ele><time>2026-04-06T15:24:06.999Z</time></trkpt><trkpt lat="44.92468498530797" lon="4.322545195515557"><ele>877.0</ele><time>2026-04-06T15:24:07.999Z</time></trkpt><trkpt lat="44.9247523820887" lon="4.322639539684783"><ele>877.0</ele><time>2026-04-06T15:24:09.999Z</time></trkpt><trkpt lat="44.924812773862826" lon="4.322718521349994"><ele>877.0</ele><time>2026-04-06T15:24:12.999Z</time></trkpt><trkpt lat="44.92484435673222" lon="4.322828061094602"><ele>877.0</ele><time>2026-04-06T15:24:16Z</time></trkpt><trkpt lat="44.92488571281698" lon="4.322913441337471"><ele>877.0</ele><time>2026-04-06T15:24:18Z</time></trkpt><trkpt lat="44.92494708972869" lon="4.323063411733695"><ele>877.0</ele><time>2026-04-06T15:24:21Z</time></trkpt><trkpt lat="44.92498329299952" lon="4.323142129436707"><ele>877.0</ele><time>2026-04-06T15:24:22Z</time></trkpt><trkpt lat="44.92505161769482" lon="4.323286944802715"><ele>877.0</ele><time>2026-04-06T15:24:26Z</time></trkpt><trkpt lat="44.92510445159938" lon="4.323376181314168"><ele>875.6666666666666</ele><time>2026-04-06T15:24:27Z</time></trkpt><trkpt lat="44.92514901165091" lon="4.323518767763288"><ele>874.3333333333333</ele><time>2026-04-06T15:24:29Z</time></trkpt><trkpt lat="44.925184637533" lon="4.3235960912543865"><ele>873.0</ele><time>2026-04-06T15:24:30Z</time></trkpt><trkpt lat="44.925232414256044" lon="4.3236728292205076"><ele>871.6666666666667</ele><time>2026-04-06T15:24:31Z</time></trkpt><trkpt lat="44.9252740923144" lon="4.32374274701484"><ele>870.3333333333334</ele><time>2026-04-06T15:24:32Z</time></trkpt><trkpt lat="44.92532617773201" lon="4.323828878566344"><ele>869.0</ele><time>2026-04-06T15:24:33Z</time></trkpt><trkpt lat="44.925387231916154" lon="4.323905292345977"><ele>869.0000000000001</ele><time>2026-04-06T15:24:34Z</time></trkpt><trkpt lat="44.92545825710809" lon="4.323957392016922"><ele>869.0</ele><time>2026-04-06T15:24:35Z</time></trkpt><trkpt lat="44.925537304953814" lon="4.323979634027772"><ele>869.0</ele><time>2026-04-06T15:24:36Z</time></trkpt><trkpt lat="44.92560940600205" lon="4.323989927060373"><ele>869.0</ele><time>2026-04-06T15:24:37Z</time></trkpt><trkpt lat="44.92568165452973" lon="4.323998064872989"><ele>869.0000000000001</ele><time>2026-04-06T15:24:38Z</time></trkpt><trkpt lat="44.92574461019688" lon="4.323999066265152"><ele>869.0</ele><time>2026-04-06T15:24:39Z</time></trkpt><trkpt lat="44.92583167127492" lon="4.323974160535557"><ele>867.6666666666667</ele><time>2026-04-06T15:24:41Z</time></trkpt><trkpt lat="44.925929345189786" lon="4.323929735101261"><ele>866.3333333333334</ele><time>2026-04-06T15:25:09Z</time></trkpt><trkpt lat="44.92605214249753" lon="4.323914393476138"><ele>865.0</ele><time>2026-04-06T15:25:11Z</time></trkpt><trkpt lat="44.926116430412385" lon="4.323884487228638"><ele>863.6666666666667</ele><time>2026-04-06T15:25:12Z</time></trkpt><trkpt lat="44.92617983147786" lon="4.323834570481697"><ele>862.3333333333334</ele><time>2026-04-06T15:25:13Z</time></trkpt><trkpt lat="44.92623635514771" lon="4.323760691563561"><ele>861.0</ele><time>2026-04-06T15:25:15Z</time></trkpt><trkpt lat="44.92629218007045" lon="4.323809786964661"><ele>859.5</ele><time>2026-04-06T15:25:22Z</time></trkpt><trkpt lat="44.92624431243552" lon="4.32392410627542"><ele>858.0</ele><time>2026-04-06T15:25:25Z</time></trkpt><trkpt lat="44.92618937212949" lon="4.3240270049496905"><ele>856.5</ele><time>2026-04-06T15:25:29Z</time></trkpt><trkpt lat="44.926165366115114" lon="4.324113936070062"><ele>855.0</ele><time>2026-04-06T15:25:33Z</time></trkpt><trkpt lat="44.926125703926516" lon="4.324187502385738"><ele>853.5</ele><time>2026-04-06T15:25:35Z</time></trkpt><trkpt lat="44.9261163144343" lon="4.324286436118203"><ele>852.0</ele><time>2026-04-06T15:25:37Z</time></trkpt><trkpt lat="44.92610455342611" lon="4.324419396068822"><ele>852.0</ele><time>2026-04-06T15:25:40Z</time></trkpt><trkpt lat="44.926116297353154" lon="4.324559715339633"><ele>852.0</ele><time>2026-04-06T15:25:42Z</time></trkpt><trkpt lat="44.92612603087694" lon="4.324671376854391"><ele>852.0</ele><time>2026-04-06T15:25:46Z</time></trkpt><trkpt lat="44.92615414727415" lon="4.324763531311855"><ele>852.0</ele><time>2026-04-06T15:25:49Z</time></trkpt><trkpt lat="44.92619389356445" lon="4.324861831708541"><ele>852.0</ele><time>2026-04-06T15:25:53Z</time></trkpt><trkpt lat="44.92621805174485" lon="4.324966229201934"><ele>852.0</ele><time>2026-04-06T15:25:56Z</time></trkpt><trkpt lat="44.926272747575126" lon="4.325054202253857"><ele>850.0</ele><time>2026-04-06T15:25:58Z</time></trkpt><trkpt lat="44.92632680057688" lon="4.325107022018708"><ele>848.0</ele><time>2026-04-06T15:26:00Z</time></trkpt><trkpt lat="44.92639756509942" lon="4.325180482344603"><ele>846.0</ele><time>2026-04-06T15:26:03Z</time></trkpt><trkpt lat="44.92647375714817" lon="4.325277998216819"><ele>844.0</ele><time>2026-04-06T15:26:06Z</time></trkpt><trkpt lat="44.92654599902447" lon="4.32536546156329"><ele>842.0</ele><time>2026-04-06T15:26:08Z</time></trkpt><trkpt lat="44.9266413063647" lon="4.325428141696192"><ele>837.6666666666667</ele><time>2026-04-06T15:26:09.999Z</time></trkpt><trkpt lat="44.92673050866289" lon="4.325452751538013"><ele>833.3333333333334</ele><time>2026-04-06T15:26:11.999Z</time></trkpt><trkpt lat="44.92679451902539" lon="4.32553668003155"><ele>829.0</ele><time>2026-04-06T15:26:14.999Z</time></trkpt><trkpt lat="44.92685930552716" lon="4.325597343164123"><ele>824.6666666666667</ele><time>2026-04-06T15:26:16.999Z</time></trkpt><trkpt lat="44.92691023589442" lon="4.325660343361315"><ele>820.3333333333334</ele><time>2026-04-06T15:26:18.999Z</time></trkpt><trkpt lat="44.926979683347916" lon="4.325776172401917"><ele>816.0</ele><time>2026-04-06T15:26:22Z</time></trkpt><trkpt lat="44.92703200514207" lon="4.325900919417691"><ele>816.0</ele><time>2026-04-06T15:26:24Z</time></trkpt><trkpt lat="44.92710811512061" lon="4.326005076692268"><ele>816.0</ele><time>2026-04-06T15:26:25Z</time></trkpt><trkpt lat="44.92715416713743" lon="4.326087416230117"><ele>816.0</ele><time>2026-04-06T15:26:26Z</time></trkpt><trkpt lat="44.92723097292491" lon="4.3262253250208795"><ele>816.0</ele><time>2026-04-06T15:26:28Z</time></trkpt><trkpt lat="44.927267326000106" lon="4.32629792078431"><ele>816.0</ele><time>2026-04-06T15:26:29Z</time></trkpt><trkpt lat="44.92735124107796" lon="4.326382727922866"><ele>817.3333333333334</ele><time>2026-04-06T15:26:31Z</time></trkpt><trkpt lat="44.92743691117612" lon="4.326416754078031"><ele>818.6666666666667</ele><time>2026-04-06T15:26:33Z</time></trkpt><trkpt lat="44.9274815966607" lon="4.326489000882811"><ele>820.0</ele><time>2026-04-06T15:26:35Z</time></trkpt><trkpt lat="44.927520855147684" lon="4.326567684583485"><ele>821.3333333333334</ele><time>2026-04-06T15:26:39Z</time></trkpt><trkpt lat="44.92757104897177" lon="4.326645411583281"><ele>822.6666666666667</ele><time>2026-04-06T15:26:41Z</time></trkpt><trkpt lat="44.92764947021769" lon="4.326736196046984"><ele>824.0</ele><time>2026-04-06T15:26:44Z</time></trkpt><trkpt lat="44.92769917716567" lon="4.326837599942602"><ele>821.1666666666667</ele><time>2026-04-06T15:26:48Z</time></trkpt><trkpt lat="44.92775117825616" lon="4.326904353305702"><ele>818.3333333333334</ele><time>2026-04-06T15:26:51Z</time></trkpt><trkpt lat="44.927814454544155" lon="4.326921046714885"><ele>815.5</ele><time>2026-04-06T15:26:53Z</time></trkpt><trkpt lat="44.927875319159796" lon="4.326978744396196"><ele>812.6666666666667</ele><time>2026-04-06T15:26:55Z</time></trkpt><trkpt lat="44.927924265452404" lon="4.327042016783161"><ele>809.8333333333334</ele><time>2026-04-06T15:26:56Z</time></trkpt><trkpt lat="44.92805234876091" lon="4.327163567334086"><ele>807.0</ele><time>2026-04-06T15:26:58Z</time></trkpt><trkpt lat="44.928139005516556" lon="4.3272765773486555"><ele>807.0</ele><time>2026-04-06T15:27:00Z</time></trkpt><trkpt lat="44.92819939388355" lon="4.327302549894164"><ele>807.0</ele><time>2026-04-06T15:27:01Z</time></trkpt><trkpt lat="44.92827206194619" lon="4.327352067446131"><ele>807.0</ele><time>2026-04-06T15:27:02Z</time></trkpt><trkpt lat="44.92834046447914" lon="4.32742666670055"><ele>807.0</ele><time>2026-04-06T15:27:03Z</time></trkpt><trkpt lat="44.928401040534126" lon="4.32752967471975"><ele>807.0</ele><time>2026-04-06T15:27:04Z</time></trkpt><trkpt lat="44.928461229802586" lon="4.327623689214984"><ele>807.0</ele><time>2026-04-06T15:27:05Z</time></trkpt><trkpt lat="44.928506501565785" lon="4.327725011700288"><ele>804.8</ele><time>2026-04-06T15:27:06Z</time></trkpt><trkpt lat="44.92854236734674" lon="4.327830964576452"><ele>802.6</ele><time>2026-04-06T15:27:07Z</time></trkpt><trkpt lat="44.92859143581204" lon="4.32790987920486"><ele>800.4</ele><time>2026-04-06T15:27:08Z</time></trkpt><trkpt lat="44.928678054877416" lon="4.327971308380309"><ele>798.1999999999999</ele><time>2026-04-06T15:27:09Z</time></trkpt><trkpt lat="44.92878236279968" lon="4.328004988362906"><ele>796.0</ele><time>2026-04-06T15:27:10Z</time></trkpt><trkpt lat="44.92887675611032" lon="4.3280785498027345"><ele>795.9999999999999</ele><time>2026-04-06T15:27:11Z</time></trkpt><trkpt lat="44.92896793783606" lon="4.328134866316591"><ele>796.0</ele><time>2026-04-06T15:27:12Z</time></trkpt><trkpt lat="44.92904901728144" lon="4.328185371259005"><ele>796.0</ele><time>2026-04-06T15:27:13Z</time></trkpt><trkpt lat="44.92910656332119" lon="4.328235699769"><ele>796.0</ele><time>2026-04-06T15:27:14Z</time></trkpt><trkpt lat="44.929166770462594" lon="4.328331731510044"><ele>795.9999999999999</ele><time>2026-04-06T15:27:15Z</time></trkpt><trkpt lat="44.929229739650836" lon="4.328442130545498"><ele>796.0</ele><time>2026-04-06T15:27:16Z</time></trkpt><trkpt lat="44.92926441074113" lon="4.32856365598991"><ele>796.8333333333333</ele><time>2026-04-06T15:27:17Z</time></trkpt><trkpt lat="44.92931442753263" lon="4.328642446432373"><ele>797.6666666666666</ele><time>2026-04-06T15:27:18Z</time></trkpt><trkpt lat="44.929361889120145" lon="4.3287034871543915"><ele>798.5</ele><time>2026-04-06T15:27:19Z</time></trkpt><trkpt lat="44.92940368512351" lon="4.328775183062973"><ele>799.3333333333333</ele><time>2026-04-06T15:27:20Z</time></trkpt><trkpt lat="44.929412682888" lon="4.328864063359499"><ele>800.1666666666666</ele><time>2026-04-06T15:28:18Z</time></trkpt><trkpt lat="44.92949358023196" lon="4.32893673736724"><ele>801.0</ele><time>2026-04-06T15:28:20Z</time></trkpt><trkpt lat="44.92959039389766" lon="4.328993309397658"><ele>801.3333333333334</ele><time>2026-04-06T15:28:21.999Z</time></trkpt><trkpt lat="44.92967493154695" lon="4.32906191885752"><ele>801.6666666666667</ele><time>2026-04-06T15:28:23.999Z</time></trkpt><trkpt lat="44.92971806818642" lon="4.329144838873513"><ele>802.0</ele><time>2026-04-06T15:28:24.999Z</time></trkpt><trkpt lat="44.92976435569043" lon="4.329215920436101"><ele>802.3333333333334</ele><time>2026-04-06T15:28:25.999Z</time></trkpt><trkpt lat="44.92981802441071" lon="4.3293058635625465"><ele>802.6666666666667</ele><time>2026-04-06T15:28:26.999Z</time></trkpt><trkpt lat="44.92986889628815" lon="4.3294042190542825"><ele>803.0</ele><time>2026-04-06T15:28:28Z</time></trkpt><trkpt lat="44.9299190979747" lon="4.32949789499755"><ele>802.9999999999999</ele><time>2026-04-06T15:28:29Z</time></trkpt><trkpt lat="44.92996661142579" lon="4.329569482159733"><ele>803.0</ele><time>2026-04-06T15:28:30Z</time></trkpt><trkpt lat="44.93002341703972" lon="4.329631312049538"><ele>803.0</ele><time>2026-04-06T15:28:31Z</time></trkpt><trkpt lat="44.93007224609889" lon="4.329699872930989"><ele>803.0</ele><time>2026-04-06T15:28:32Z</time></trkpt><trkpt lat="44.93014203763019" lon="4.32976400462084"><ele>803.0</ele><time>2026-04-06T15:28:33Z</time></trkpt><trkpt lat="44.930202527733414" lon="4.329835298721475"><ele>802.9999999999999</ele><time>2026-04-06T15:28:34Z</time></trkpt><trkpt lat="44.93026649667044" lon="4.329892947240441"><ele>803.0</ele><time>2026-04-06T15:28:35Z</time></trkpt><trkpt lat="44.93032811177157" lon="4.329957384922125"><ele>807.0</ele><time>2026-04-06T15:28:36Z</time></trkpt><trkpt lat="44.93039302965126" lon="4.330013009159"><ele>811.0</ele><time>2026-04-06T15:28:37Z</time></trkpt><trkpt lat="44.93044699626449" lon="4.33005913944727"><ele>815.0</ele><time>2026-04-06T15:28:38Z</time></trkpt><trkpt lat="44.93055260670638" lon="4.330161221512536"><ele>819.0</ele><time>2026-04-06T15:28:40Z</time></trkpt><trkpt lat="44.930663637028644" lon="4.330265374016284"><ele>823.0</ele><time>2026-04-06T15:28:42Z</time></trkpt><trkpt lat="44.930717916891346" lon="4.330332209044591"><ele>822.9999999999999</ele><time>2026-04-06T15:28:43Z</time></trkpt><trkpt lat="44.93075535371794" lon="4.33041173309537"><ele>823.0</ele><time>2026-04-06T15:28:44Z</time></trkpt><trkpt lat="44.93079682740784" lon="4.330495869024819"><ele>823.0</ele><time>2026-04-06T15:28:45Z</time></trkpt><trkpt lat="44.93084526119463" lon="4.330575586846785"><ele>823.0</ele><time>2026-04-06T15:28:46Z</time></trkpt><trkpt lat="44.93089317948245" lon="4.330655498028369"><ele>822.9999999999999</ele><time>2026-04-06T15:28:47Z</time></trkpt><trkpt lat="44.93094873345734" lon="4.330720500333701"><ele>823.0</ele><time>2026-04-06T15:28:48Z</time></trkpt><trkpt lat="44.931036605305835" lon="4.330821918328024"><ele>823.75</ele><time>2026-04-06T15:28:50Z</time></trkpt><trkpt lat="44.93109050402903" lon="4.3309677570887795"><ele>824.5</ele><time>2026-04-06T15:28:52Z</time></trkpt><trkpt lat="44.93115884246801" lon="4.331112263901885"><ele>825.25</ele><time>2026-04-06T15:28:54Z</time></trkpt><trkpt lat="44.9312367777242" lon="4.331264917053948"><ele>826.0</ele><time>2026-04-06T15:28:56Z</time></trkpt><trkpt lat="44.931285438492104" lon="4.331392558888967"><ele>825.9999999999999</ele><time>2026-04-06T15:28:58Z</time></trkpt><trkpt lat="44.93127374217136" lon="4.331511719838517"><ele>826.0</ele><time>2026-04-06T15:29:00Z</time></trkpt><trkpt lat="44.93130503759788" lon="4.331633996220438"><ele>826.0</ele><time>2026-04-06T15:29:02Z</time></trkpt><trkpt lat="44.93133134775496" lon="4.331742715740585"><ele>826.0</ele><time>2026-04-06T15:29:06Z</time></trkpt><trkpt lat="44.931369907203276" lon="4.331893202519852"><ele>825.9999999999999</ele><time>2026-04-06T15:29:10Z</time></trkpt><trkpt lat="44.93139124454146" lon="4.331977172755131"><ele>826.0</ele><time>2026-04-06T15:29:11Z</time></trkpt><trkpt lat="44.931418405004344" lon="4.332066950964743"><ele>826.0</ele><time>2026-04-06T15:29:12Z</time></trkpt><trkpt lat="44.93144558261323" lon="4.332148249337237"><ele>826.0</ele><time>2026-04-06T15:29:13Z</time></trkpt><trkpt lat="44.93147115111575" lon="4.332238629901745"><ele>826.0</ele><time>2026-04-06T15:29:14Z</time></trkpt><trkpt lat="44.9314986139391" lon="4.332344197730823"><ele>826.0</ele><time>2026-04-06T15:29:15Z</time></trkpt><trkpt lat="44.93152331428931" lon="4.332455227457124"><ele>826.0</ele><time>2026-04-06T15:29:16Z</time></trkpt><trkpt lat="44.93154616925968" lon="4.332554613983612"><ele>826.0</ele><time>2026-04-06T15:29:17Z</time></trkpt><trkpt lat="44.93156729356772" lon="4.332646139271056"><ele>826.0</ele><time>2026-04-06T15:29:18Z</time></trkpt><trkpt lat="44.93158173251809" lon="4.332736347388856"><ele>825.4</ele><time>2026-04-06T15:29:19Z</time></trkpt><trkpt lat="44.93160469801294" lon="4.332822821010455"><ele>824.8</ele><time>2026-04-06T15:29:20Z</time></trkpt><trkpt lat="44.93161475304877" lon="4.332920809859631"><ele>824.1999999999999</ele><time>2026-04-06T15:29:21Z</time></trkpt><trkpt lat="44.93163529954789" lon="4.33307974695415"><ele>823.5999999999999</ele><time>2026-04-06T15:29:23Z</time></trkpt><trkpt lat="44.93168787230773" lon="4.33322149102632"><ele>823.0</ele><time>2026-04-06T15:29:25Z</time></trkpt><trkpt lat="44.931707810506616" lon="4.333386843348159"><ele>824.4</ele><time>2026-04-06T15:29:27Z</time></trkpt><trkpt lat="44.931744978745904" lon="4.333548419354264"><ele>825.8</ele><time>2026-04-06T15:29:29Z</time></trkpt><trkpt lat="44.931767982492914" lon="4.333636379491072"><ele>827.2</ele><time>2026-04-06T15:29:30Z</time></trkpt><trkpt lat="44.93179305730688" lon="4.333734606054647"><ele>828.6</ele><time>2026-04-06T15:29:31Z</time></trkpt><trkpt lat="44.93183921355796" lon="4.33387755219775"><ele>830.0</ele><time>2026-04-06T15:29:33Z</time></trkpt><trkpt lat="44.93186183694504" lon="4.334031975395432"><ele>830.0000000000001</ele><time>2026-04-06T15:29:35Z</time></trkpt><trkpt lat="44.9318698180733" lon="4.334125695748461"><ele>830.0</ele><time>2026-04-06T15:29:36Z</time></trkpt><trkpt lat="44.93189031386118" lon="4.334305936864396"><ele>830.0</ele><time>2026-04-06T15:29:38Z</time></trkpt><trkpt lat="44.9318994137228" lon="4.334407980979451"><ele>830.0</ele><time>2026-04-06T15:29:39Z</time></trkpt><trkpt lat="44.93191208974445" lon="4.33450431716564"><ele>830.0000000000001</ele><time>2026-04-06T15:29:40Z</time></trkpt><trkpt lat="44.931922960962574" lon="4.334593957367496"><ele>830.0</ele><time>2026-04-06T15:29:41Z</time></trkpt><trkpt lat="44.93194778409792" lon="4.334679141757688"><ele>828.1666666666667</ele><time>2026-04-06T15:29:42Z</time></trkpt><trkpt lat="44.93197489703683" lon="4.334760560985889"><ele>826.3333333333334</ele><time>2026-04-06T15:29:43Z</time></trkpt><trkpt lat="44.93199066782896" lon="4.334853083900159"><ele>824.5</ele><time>2026-04-06T15:29:44Z</time></trkpt><trkpt lat="44.93201299989433" lon="4.334952570844515"><ele>822.6666666666667</ele><time>2026-04-06T15:29:45Z</time></trkpt><trkpt lat="44.93204429747632" lon="4.335052789562641"><ele>820.8333333333334</ele><time>2026-04-06T15:29:46Z</time></trkpt><trkpt lat="44.932071623500555" lon="4.33516218748633"><ele>819.0</ele><time>2026-04-06T15:29:47Z</time></trkpt><trkpt lat="44.93208682220747" lon="4.335285604821704"><ele>819.0</ele><time>2026-04-06T15:29:48Z</time></trkpt><trkpt lat="44.932099320973705" lon="4.335410668049909"><ele>819.0</ele><time>2026-04-06T15:29:49Z</time></trkpt><trkpt lat="44.9321190631171" lon="4.3355304378964785"><ele>819.0</ele><time>2026-04-06T15:29:50Z</time></trkpt><trkpt lat="44.93212940401613" lon="4.3356443483912495"><ele>819.0</ele><time>2026-04-06T15:29:51Z</time></trkpt><trkpt lat="44.93213566091004" lon="4.33574995484112"><ele>819.0</ele><time>2026-04-06T15:29:52Z</time></trkpt><trkpt lat="44.93212683652899" lon="4.335839740400472"><ele>819.0</ele><time>2026-04-06T15:29:53Z</time></trkpt><trkpt lat="44.932118852073486" lon="4.335977301259663"><ele>818.1666666666666</ele><time>2026-04-06T15:29:55Z</time></trkpt><trkpt lat="44.93215055269532" lon="4.336081341076458"><ele>817.3333333333333</ele><time>2026-04-06T15:30:29.999Z</time></trkpt><trkpt lat="44.932236044184826" lon="4.3361581940881715"><ele>816.5</ele><time>2026-04-06T15:30:31.999Z</time></trkpt><trkpt lat="44.93231028811944" lon="4.336201801434193"><ele>815.6666666666666</ele><time>2026-04-06T15:30:34Z</time></trkpt><trkpt lat="44.932374385591686" lon="4.336229608674772"><ele>814.8333333333333</ele><time>2026-04-06T15:30:36Z</time></trkpt><trkpt lat="44.93244047712779" lon="4.336274859229332"><ele>814.0</ele><time>2026-04-06T15:30:38Z</time></trkpt><trkpt lat="44.93248255520332" lon="4.33636009962201"><ele>812.9999999999999</ele><time>2026-04-06T15:30:40Z</time></trkpt><trkpt lat="44.932504444051055" lon="4.336462898952926"><ele>812.0</ele><time>2026-04-06T15:30:42Z</time></trkpt><trkpt lat="44.93252842201909" lon="4.336564109823669"><ele>811.0</ele><time>2026-04-06T15:30:44Z</time></trkpt><trkpt lat="44.93256394244074" lon="4.336664386910467"><ele>810.0</ele><time>2026-04-06T15:30:46Z</time></trkpt><trkpt lat="44.932601025059526" lon="4.336777235237946"><ele>808.9999999999999</ele><time>2026-04-06T15:30:49Z</time></trkpt><trkpt lat="44.93260395036238" lon="4.336891399844958"><ele>808.0</ele><time>2026-04-06T15:30:52Z</time></trkpt><trkpt lat="44.93264836917195" lon="4.337008165189394"><ele>804.1666666666666</ele><time>2026-04-06T15:30:55Z</time></trkpt><trkpt lat="44.93267027777976" lon="4.337120473709595"><ele>800.3333333333333</ele><time>2026-04-06T15:30:58Z</time></trkpt><trkpt lat="44.93268214582451" lon="4.337222760591127"><ele>796.5</ele><time>2026-04-06T15:31:00Z</time></trkpt><trkpt lat="44.93270304443933" lon="4.337353803819997"><ele>792.6666666666667</ele><time>2026-04-06T15:31:02Z</time></trkpt><trkpt lat="44.93272703446662" lon="4.337501245628119"><ele>788.8333333333334</ele><time>2026-04-06T15:31:04Z</time></trkpt><trkpt lat="44.93274390314552" lon="4.337588893107378"><ele>785.0</ele><time>2026-04-06T15:31:05Z</time></trkpt><trkpt lat="44.932779856133244" lon="4.337721437769007"><ele>784.0</ele><time>2026-04-06T15:31:07Z</time></trkpt><trkpt lat="44.93282460794065" lon="4.33782813805514"><ele>783.0</ele><time>2026-04-06T15:31:09Z</time></trkpt><trkpt lat="44.93285453809831" lon="4.33794833241176"><ele>782.0</ele><time>2026-04-06T15:31:11Z</time></trkpt><trkpt lat="44.93291570052159" lon="4.33801772612565"><ele>781.0</ele><time>2026-04-06T15:31:12Z</time></trkpt><trkpt lat="44.93293817840787" lon="4.338163030807699"><ele>780.0</ele><time>2026-04-06T15:31:14Z</time></trkpt><trkpt lat="44.932970356245185" lon="4.338291650363802"><ele>780.0</ele><time>2026-04-06T15:31:16Z</time></trkpt><trkpt lat="44.93304466747981" lon="4.338431295046138"><ele>780.0</ele><time>2026-04-06T15:31:18Z</time></trkpt><trkpt lat="44.93308886741017" lon="4.338521045905248"><ele>780.0</ele><time>2026-04-06T15:31:19Z</time></trkpt><trkpt lat="44.93313496279122" lon="4.338596990920006"><ele>780.0</ele><time>2026-04-06T15:31:20Z</time></trkpt><trkpt lat="44.933175444897394" lon="4.33867099417743"><ele>780.0</ele><time>2026-04-06T15:31:21Z</time></trkpt><trkpt lat="44.93320916800854" lon="4.338750144352195"><ele>780.0</ele><time>2026-04-06T15:31:22Z</time></trkpt><trkpt lat="44.933272530572125" lon="4.338899098063832"><ele>780.0</ele><time>2026-04-06T15:31:24Z</time></trkpt><trkpt lat="44.93331630446745" lon="4.338976691776221"><ele>780.0</ele><time>2026-04-06T15:31:25Z</time></trkpt><trkpt lat="44.9333681456387" lon="4.3390550426923715"><ele>780.0</ele><time>2026-04-06T15:31:26Z</time></trkpt><trkpt lat="44.933419040712835" lon="4.339123436162923"><ele>780.0</ele><time>2026-04-06T15:31:27Z</time></trkpt><trkpt lat="44.933471546219074" lon="4.339231133371254"><ele>780.0</ele><time>2026-04-06T15:31:29Z</time></trkpt><trkpt lat="44.933533646634494" lon="4.3393273160494275"><ele>780.0</ele><time>2026-04-06T15:31:31Z</time></trkpt><trkpt lat="44.933606905755006" lon="4.339449873785732"><ele>780.0</ele><time>2026-04-06T15:31:33Z</time></trkpt><trkpt lat="44.93365151850875" lon="4.339577216505869"><ele>780.0</ele><time>2026-04-06T15:31:35Z</time></trkpt><trkpt lat="44.9336012501509" lon="4.33968695034686"><ele>780.0</ele><time>2026-04-06T15:31:39Z</time></trkpt><trkpt lat="44.93359291268682" lon="4.33977988233819"><ele>780.0</ele><time>2026-04-06T15:31:41Z</time></trkpt><trkpt lat="44.93358682679882" lon="4.339917319706353"><ele>780.0</ele><time>2026-04-06T15:31:44Z</time></trkpt><trkpt lat="44.93360593716812" lon="4.340003103505185"><ele>780.0</ele><time>2026-04-06T15:31:46Z</time></trkpt><trkpt lat="44.933701809871046" lon="4.340234691390814"><ele>781.5</ele><time>2026-04-06T15:31:49Z</time></trkpt><trkpt lat="44.93374046578522" lon="4.340355907727596"><ele>783.0</ele><time>2026-04-06T15:32:08Z</time></trkpt><trkpt lat="44.933780542787254" lon="4.340473331194839"><ele>784.5</ele><time>2026-04-06T15:32:10Z</time></trkpt><trkpt lat="44.93383000098786" lon="4.340587531400859"><ele>786.0</ele><time>2026-04-06T15:32:11Z</time></trkpt><trkpt lat="44.93386839781428" lon="4.34069694986565"><ele>787.5</ele><time>2026-04-06T15:32:13Z</time></trkpt><trkpt lat="44.93390595186226" lon="4.340789987627419"><ele>789.0</ele><time>2026-04-06T15:32:16Z</time></trkpt><trkpt lat="44.93393870662703" lon="4.340873900553266"><ele>789.4000000000001</ele><time>2026-04-06T15:32:18Z</time></trkpt><trkpt lat="44.93398936733476" lon="4.340988951845546"><ele>789.8</ele><time>2026-04-06T15:32:20Z</time></trkpt><trkpt lat="44.934058882238375" lon="4.341140445712963"><ele>790.2</ele><time>2026-04-06T15:32:22Z</time></trkpt><trkpt lat="44.93410102020034" lon="4.341245854725303"><ele>790.5999999999999</ele><time>2026-04-06T15:32:23Z</time></trkpt><trkpt lat="44.934137828319365" lon="4.3413906581933315"><ele>791.0</ele><time>2026-04-06T15:32:24.999Z</time></trkpt><trkpt lat="44.93416869940411" lon="4.341524584136906"><ele>791.0000000000001</ele><time>2026-04-06T15:32:26.999Z</time></trkpt><trkpt lat="44.93416841465032" lon="4.34163327545754"><ele>791.0</ele><time>2026-04-06T15:32:30.999Z</time></trkpt><trkpt lat="44.93417188316244" lon="4.341738521126205"><ele>791.0</ele><time>2026-04-06T15:32:32.999Z</time></trkpt><trkpt lat="44.934156688953735" lon="4.341867069928392"><ele>791.0</ele><time>2026-04-06T15:32:34.999Z</time></trkpt><trkpt lat="44.93412086096065" lon="4.341972713662471"><ele>791.0000000000001</ele><time>2026-04-06T15:32:36.999Z</time></trkpt><trkpt lat="44.93411997265981" lon="4.342081027000119"><ele>791.0</ele><time>2026-04-06T15:32:38.999Z</time></trkpt><trkpt lat="44.934277803658254" lon="4.342833894144664"><ele>796.0</ele><time>2026-04-06T15:32:41Z</time></trkpt><trkpt lat="44.93431738498939" lon="4.34301336770715"><ele>801.0</ele><time>2026-04-06T15:32:43Z</time></trkpt><trkpt lat="44.93434106066275" lon="4.343162821036608"><ele>806.0</ele><time>2026-04-06T15:32:45Z</time></trkpt><trkpt lat="44.934380285830464" lon="4.3432351477105495"><ele>811.0</ele><time>2026-04-06T15:32:47Z</time></trkpt><trkpt lat="44.934402005321864" lon="4.343335590344398"><ele>816.0</ele><time>2026-04-06T15:32:48Z</time></trkpt><trkpt lat="44.93444099753671" lon="4.343492437280484"><ele>816.0</ele><time>2026-04-06T15:32:50Z</time></trkpt><trkpt lat="44.934495197232565" lon="4.343660515065361"><ele>816.0</ele><time>2026-04-06T15:32:52Z</time></trkpt><trkpt lat="44.93453835544707" lon="4.343735876276561"><ele>816.0</ele><time>2026-04-06T15:32:53Z</time></trkpt><trkpt lat="44.93458571356693" lon="4.343910358804697"><ele>816.0</ele><time>2026-04-06T15:32:55Z</time></trkpt><trkpt lat="44.93463775992074" lon="4.344079278705494"><ele>813.5999999999999</ele><time>2026-04-06T15:32:57Z</time></trkpt><trkpt lat="44.934697924275675" lon="4.3442275091366565"><ele>811.2</ele><time>2026-04-06T15:32:59Z</time></trkpt><trkpt lat="44.934724803990306" lon="4.344372782129603"><ele>808.8</ele><time>2026-04-06T15:33:01Z</time></trkpt><trkpt lat="44.934718107049285" lon="4.344521801876095"><ele>806.4000000000001</ele><time>2026-04-06T15:33:03Z</time></trkpt><trkpt lat="44.93473490642822" lon="4.34467057055272"><ele>804.0</ele><time>2026-04-06T15:33:05Z</time></trkpt><trkpt lat="44.934777845593416" lon="4.344833093923195"><ele>801.6666666666666</ele><time>2026-04-06T15:33:07Z</time></trkpt><trkpt lat="44.93473417276799" lon="4.344974233187914"><ele>799.3333333333333</ele><time>2026-04-06T15:33:09Z</time></trkpt><trkpt lat="44.934768132466516" lon="4.345081007514545"><ele>797.0</ele><time>2026-04-06T15:33:12Z</time></trkpt><trkpt lat="44.934810920081006" lon="4.3451528649974325"><ele>794.6666666666666</ele><time>2026-04-06T15:33:13Z</time></trkpt><trkpt lat="44.934738419739155" lon="4.3452063919895245"><ele>792.3333333333333</ele><time>2026-04-06T15:33:15Z</time></trkpt><trkpt lat="44.93469158559371" lon="4.345268514171753"><ele>790.0</ele><time>2026-04-06T15:33:16Z</time></trkpt><trkpt lat="44.93467086165977" lon="4.345377722259797"><ele>790.4999999999999</ele><time>2026-04-06T15:33:17Z</time></trkpt><trkpt lat="44.934652836492496" lon="4.345561296007712"><ele>791.0</ele><time>2026-04-06T15:33:19Z</time></trkpt><trkpt lat="44.93469138707632" lon="4.345683227638055"><ele>791.5</ele><time>2026-04-06T15:33:46Z</time></trkpt><trkpt lat="44.934711192036126" lon="4.345769743694035"><ele>792.0</ele><time>2026-04-06T15:33:50Z</time></trkpt><trkpt lat="44.934700018250325" lon="4.345861227924438"><ele>792.4999999999999</ele><time>2026-04-06T15:34:39.999Z</time></trkpt><trkpt lat="44.93476072142639" lon="4.34595995464374"><ele>793.0</ele><time>2026-04-06T15:34:43.999Z</time></trkpt><trkpt lat="44.93481835280648" lon="4.346046714515381"><ele>793.0</ele><time>2026-04-06T15:34:46Z</time></trkpt><trkpt lat="44.93481770059753" lon="4.346148926772186"><ele>793.0</ele><time>2026-04-06T15:34:48Z</time></trkpt><trkpt lat="44.93483543473596" lon="4.346280053123932"><ele>793.0</ele><time>2026-04-06T15:34:50Z</time></trkpt><trkpt lat="44.93483876768835" lon="4.346404390017042"><ele>793.0</ele><time>2026-04-06T15:34:52Z</time></trkpt><trkpt lat="44.93485148614526" lon="4.346558600065291"><ele>793.0</ele><time>2026-04-06T15:34:54Z</time></trkpt><trkpt lat="44.93484206411015" lon="4.346701610549016"><ele>791.9999999999999</ele><time>2026-04-06T15:34:56Z</time></trkpt><trkpt lat="44.93481105441974" lon="4.346838267032537"><ele>791.0</ele><time>2026-04-06T15:34:58Z</time></trkpt><trkpt lat="44.93480848136816" lon="4.346956244387429"><ele>790.0</ele><time>2026-04-06T15:35:00Z</time></trkpt><trkpt lat="44.93485073857682" lon="4.347062793522228"><ele>789.0</ele><time>2026-04-06T15:35:02Z</time></trkpt><trkpt lat="44.93488902259216" lon="4.347142574642724"><ele>787.9999999999999</ele><time>2026-04-06T15:35:06Z</time></trkpt><trkpt lat="44.93488367032557" lon="4.3472533159472215"><ele>787.0</ele><time>2026-04-06T15:35:09Z</time></trkpt><trkpt lat="44.934859387119594" lon="4.34734219689618"><ele>785.0</ele><time>2026-04-06T15:35:12Z</time></trkpt><trkpt lat="44.93489108333606" lon="4.347424172105696"><ele>783.0</ele><time>2026-04-06T15:35:17Z</time></trkpt><trkpt lat="44.934917962418965" lon="4.347507826755037"><ele>781.0</ele><time>2026-04-06T15:35:22Z</time></trkpt><trkpt lat="44.93496679152972" lon="4.347578322410175"><ele>779.0</ele><time>2026-04-06T15:35:26Z</time></trkpt><trkpt lat="44.93502329978993" lon="4.347642790654088"><ele>777.0</ele><time>2026-04-06T15:35:34Z</time></trkpt><trkpt lat="44.935019533182846" lon="4.347746311411653"><ele>775.0</ele><time>2026-04-06T15:35:44Z</time></trkpt><trkpt lat="44.935066442591484" lon="4.347825031274942"><ele>773.0</ele><time>2026-04-06T15:35:49Z</time></trkpt><trkpt lat="44.93512302764213" lon="4.347781611414876"><ele>767.0000000000001</ele><time>2026-04-06T15:35:53Z</time></trkpt><trkpt lat="44.93519188791565" lon="4.347748210405019"><ele>761.0</ele><time>2026-04-06T15:35:58Z</time></trkpt><trkpt lat="44.935177651819366" lon="4.3478397680795915"><ele>755.0</ele><time>2026-04-06T15:36:01Z</time></trkpt><trkpt lat="44.9351186270018" lon="4.347906411462218"><ele>749.0</ele><time>2026-04-06T15:36:05Z</time></trkpt><trkpt lat="44.93517262201323" lon="4.347982279332769"><ele>743.0</ele><time>2026-04-06T15:36:07Z</time></trkpt><trkpt lat="44.93521435615095" lon="4.348071629497899"><ele>737.0</ele><time>2026-04-06T15:36:12Z</time></trkpt><trkpt lat="44.935179237581934" lon="4.348179127159534"><ele>734.5</ele><time>2026-04-06T15:36:15Z</time></trkpt><trkpt lat="44.9351531649998" lon="4.348285650383204"><ele>732.0</ele><time>2026-04-06T15:36:19Z</time></trkpt><trkpt lat="44.935145407176456" lon="4.348382607094236"><ele>729.5</ele><time>2026-04-06T15:36:22Z</time></trkpt><trkpt lat="44.93516146104714" lon="4.348497000451834"><ele>727.0</ele><time>2026-04-06T15:36:26Z</time></trkpt><trkpt lat="44.935179562328216" lon="4.34860439656126"><ele>724.5</ele><time>2026-04-06T15:36:29.999Z</time></trkpt><trkpt lat="44.93516932370356" lon="4.348711119007718"><ele>722.0</ele><time>2026-04-06T15:36:33.999Z</time></trkpt><trkpt lat="44.93519646431299" lon="4.34879494634642"><ele>721.0</ele><time>2026-04-06T15:36:36.999Z</time></trkpt><trkpt lat="44.93522816185213" lon="4.348881798331765"><ele>720.0</ele><time>2026-04-06T15:36:39.999Z</time></trkpt><trkpt lat="44.93524036301921" lon="4.34900493774043"><ele>719.0</ele><time>2026-04-06T15:36:42.999Z</time></trkpt><trkpt lat="44.93524531530396" lon="4.349101994102718"><ele>718.0</ele><time>2026-04-06T15:36:44.999Z</time></trkpt><trkpt lat="44.935259449492655" lon="4.349206220782409"><ele>717.0</ele><time>2026-04-06T15:36:46.999Z</time></trkpt><trkpt lat="44.93524761987443" lon="4.3493008521459755"><ele>716.0</ele><time>2026-04-06T15:36:48.999Z</time></trkpt><trkpt lat="44.935227265459545" lon="4.349422117237094"><ele>716.0</ele><time>2026-04-06T15:36:52Z</time></trkpt><trkpt lat="44.93520024887647" lon="4.349512852479482"><ele>716.0</ele><time>2026-04-06T15:36:55Z</time></trkpt><trkpt lat="44.93520448053847" lon="4.349611772617518"><ele>716.0</ele><time>2026-04-06T15:36:57Z</time></trkpt><trkpt lat="44.935207846878015" lon="4.349712803761333"><ele>716.0</ele><time>2026-04-06T15:36:59Z</time></trkpt><trkpt lat="44.93532291655813" lon="4.350151096489651"><ele>716.3333333333333</ele><time>2026-04-06T15:37:02Z</time></trkpt><trkpt lat="44.93536135524926" lon="4.350225066934312"><ele>716.6666666666666</ele><time>2026-04-06T15:37:03Z</time></trkpt><trkpt lat="44.935431973144894" lon="4.350353611580244"><ele>717.0</ele><time>2026-04-06T15:37:05Z</time></trkpt><trkpt lat="44.93541314536005" lon="4.350474371862653"><ele>717.3333333333334</ele><time>2026-04-06T15:37:08Z</time></trkpt><trkpt lat="44.93539478495029" lon="4.35057703697198"><ele>717.6666666666667</ele><time>2026-04-06T15:37:10Z</time></trkpt><trkpt lat="44.93537905330226" lon="4.350678555430541"><ele>718.0</ele><time>2026-04-06T15:37:12Z</time></trkpt><trkpt lat="44.935342693120845" lon="4.3507623077229285"><ele>718.0</ele><time>2026-04-06T15:37:15Z</time></trkpt><trkpt lat="44.93527633655801" lon="4.350737007459881"><ele>718.0</ele><time>2026-04-06T15:37:28Z</time></trkpt><trkpt lat="44.93522937455831" lon="4.3506733397738575"><ele>718.0</ele><time>2026-04-06T15:37:29Z</time></trkpt><trkpt lat="44.935183370439766" lon="4.35059398236937"><ele>718.0</ele><time>2026-04-06T15:37:30Z</time></trkpt><trkpt lat="44.93512725317335" lon="4.350528440898882"><ele>718.0</ele><time>2026-04-06T15:37:31Z</time></trkpt><trkpt lat="44.935051114953275" lon="4.350479586540557"><ele>718.0</ele><time>2026-04-06T15:37:32Z</time></trkpt><trkpt lat="44.93496804415503" lon="4.350427507055881"><ele>718.2</ele><time>2026-04-06T15:37:33Z</time></trkpt><trkpt lat="44.93488415184784" lon="4.3503846282904535"><ele>718.4</ele><time>2026-04-06T15:37:34Z</time></trkpt><trkpt lat="44.93478103991267" lon="4.350346908232153"><ele>718.6</ele><time>2026-04-06T15:37:35Z</time></trkpt><trkpt lat="44.93468129424994" lon="4.350312905492948"><ele>718.8000000000001</ele><time>2026-04-06T15:37:36Z</time></trkpt><trkpt lat="44.934579890963036" lon="4.350293591018407"><ele>719.0</ele><time>2026-04-06T15:37:37Z</time></trkpt><trkpt lat="44.9344787959008" lon="4.350290902485407"><ele>719.0</ele><time>2026-04-06T15:37:38Z</time></trkpt><trkpt lat="44.934385141863295" lon="4.3502785384119145"><ele>719.0</ele><time>2026-04-06T15:37:39Z</time></trkpt><trkpt lat="44.93429591980906" lon="4.350256319818261"><ele>719.0</ele><time>2026-04-06T15:37:40Z</time></trkpt><trkpt lat="44.934198266054246" lon="4.3502219916306375"><ele>719.0</ele><time>2026-04-06T15:37:41Z</time></trkpt><trkpt lat="44.93411596431337" lon="4.350193084906188"><ele>719.0</ele><time>2026-04-06T15:37:42Z</time></trkpt><trkpt lat="44.93402439938446" lon="4.350183526149256"><ele>717.0</ele><time>2026-04-06T15:37:43Z</time></trkpt><trkpt lat="44.93393979206801" lon="4.350162819045704"><ele>715.0</ele><time>2026-04-06T15:37:44Z</time></trkpt><trkpt lat="44.933848251186944" lon="4.350126075955193"><ele>713.0</ele><time>2026-04-06T15:37:45Z</time></trkpt><trkpt lat="44.93377038100876" lon="4.350117868345685"><ele>711.0</ele><time>2026-04-06T15:37:46Z</time></trkpt><trkpt lat="44.93369357518603" lon="4.35011593494523"><ele>709.0</ele><time>2026-04-06T15:37:47Z</time></trkpt><trkpt lat="44.93359803872303" lon="4.350133312624026"><ele>707.0</ele><time>2026-04-06T15:37:48Z</time></trkpt><trkpt lat="44.933512389278775" lon="4.350203121298097"><ele>707.0</ele><time>2026-04-06T15:37:49Z</time></trkpt><trkpt lat="44.933435130547245" lon="4.350271851186299"><ele>707.0</ele><time>2026-04-06T15:37:50Z</time></trkpt><trkpt lat="44.9333688780707" lon="4.350359638568563"><ele>707.0</ele><time>2026-04-06T15:37:51Z</time></trkpt><trkpt lat="44.933293161712974" lon="4.35043708025772"><ele>707.0</ele><time>2026-04-06T15:37:52Z</time></trkpt><trkpt lat="44.933240857912374" lon="4.350517682839032"><ele>707.0</ele><time>2026-04-06T15:37:53Z</time></trkpt><trkpt lat="44.933197035625255" lon="4.350591339727148"><ele>707.0</ele><time>2026-04-06T15:37:54Z</time></trkpt><trkpt lat="44.933140551606385" lon="4.350728248176045"><ele>701.4000000000001</ele><time>2026-04-06T15:37:56Z</time></trkpt><trkpt lat="44.933110568667836" lon="4.350886546592894"><ele>695.8000000000001</ele><time>2026-04-06T15:37:58Z</time></trkpt><trkpt lat="44.933123121385776" lon="4.350996652383051"><ele>690.2</ele><time>2026-04-06T15:37:59Z</time></trkpt><trkpt lat="44.933166714105646" lon="4.351091757197029"><ele>684.6</ele><time>2026-04-06T15:38:00Z</time></trkpt><trkpt lat="44.93325856048479" lon="4.35111359642286"><ele>679.0</ele><time>2026-04-06T15:38:01Z</time></trkpt><trkpt lat="44.9333717402169" lon="4.351130881912478"><ele>679.2</ele><time>2026-04-06T15:38:03Z</time></trkpt><trkpt lat="44.933487141183875" lon="4.351156280209622"><ele>679.4000000000001</ele><time>2026-04-06T15:38:05Z</time></trkpt><trkpt lat="44.93356774185716" lon="4.3510742116314285"><ele>679.6</ele><time>2026-04-06T15:38:06Z</time></trkpt><trkpt lat="44.93363430748373" lon="4.351080092437968"><ele>679.8</ele><time>2026-04-06T15:38:07Z</time></trkpt><trkpt lat="44.9337345574189" lon="4.351110294738293"><ele>680.0</ele><time>2026-04-06T15:38:09Z</time></trkpt><trkpt lat="44.933832009935145" lon="4.351259871193087"><ele>677.0</ele><time>2026-04-06T15:38:12Z</time></trkpt><trkpt lat="44.93385672618418" lon="4.351422745137236"><ele>674.0</ele><time>2026-04-06T15:38:14Z</time></trkpt><trkpt lat="44.93390467731797" lon="4.351547252566372"><ele>671.0</ele><time>2026-04-06T15:38:15Z</time></trkpt><trkpt lat="44.93391510019619" lon="4.351722150660681"><ele>668.0</ele><time>2026-04-06T15:38:17Z</time></trkpt><trkpt lat="44.93391721535991" lon="4.351882137903314"><ele>668.0</ele><time>2026-04-06T15:38:19Z</time></trkpt><trkpt lat="44.93390078160903" lon="4.3519934242435045"><ele>668.0</ele><time>2026-04-06T15:38:21Z</time></trkpt><trkpt lat="44.9338552331639" lon="4.352308311841775"><ele>668.0</ele><time>2026-04-06T15:38:23Z</time></trkpt><trkpt lat="44.93381792939818" lon="4.352447130843117"><ele>668.0</ele><time>2026-04-06T15:38:24Z</time></trkpt><trkpt lat="44.93378285225585" lon="4.352574403999765"><ele>668.1666666666666</ele><time>2026-04-06T15:38:25Z</time></trkpt><trkpt lat="44.933760043661266" lon="4.35269508734337"><ele>668.3333333333333</ele><time>2026-04-06T15:38:26Z</time></trkpt><trkpt lat="44.93373315578233" lon="4.352814605194775"><ele>668.5</ele><time>2026-04-06T15:38:27Z</time></trkpt><trkpt lat="44.93370551814222" lon="4.352928691423143"><ele>668.6666666666666</ele><time>2026-04-06T15:38:28Z</time></trkpt><trkpt lat="44.93367893976221" lon="4.353041469296058"><ele>668.8333333333334</ele><time>2026-04-06T15:38:29Z</time></trkpt><trkpt lat="44.933648936798654" lon="4.35313072072693"><ele>669.0</ele><time>2026-04-06T15:38:30Z</time></trkpt><trkpt lat="44.93361534551343" lon="4.353216489442552"><ele>669.0</ele><time>2026-04-06T15:38:31Z</time></trkpt><trkpt lat="44.933582976706134" lon="4.353295626400808"><ele>669.0</ele><time>2026-04-06T15:38:32Z</time></trkpt><trkpt lat="44.93353985949672" lon="4.353382180809811"><ele>669.0</ele><time>2026-04-06T15:38:33Z</time></trkpt><trkpt lat="44.93349334928761" lon="4.353469989639224"><ele>669.0</ele><time>2026-04-06T15:38:34Z</time></trkpt><trkpt lat="44.9334556260219" lon="4.353555307126964"><ele>669.0</ele><time>2026-04-06T15:38:35Z</time></trkpt><trkpt lat="44.93340874704515" lon="4.353633769492514"><ele>669.0</ele><time>2026-04-06T15:38:36Z</time></trkpt><trkpt lat="44.93336534183527" lon="4.3537081036108525"><ele>669.0</ele><time>2026-04-06T15:38:37Z</time></trkpt><trkpt lat="44.933314499055726" lon="4.3537654761614775"><ele>662.6666666666666</ele><time>2026-04-06T15:38:37.999Z</time></trkpt><trkpt lat="44.93326132763231" lon="4.353900707136963"><ele>656.3333333333334</ele><time>2026-04-06T15:38:39.999Z</time></trkpt><trkpt lat="44.933192558216845" lon="4.354020588228618"><ele>650.0</ele><time>2026-04-06T15:38:41.999Z</time></trkpt><trkpt lat="44.93316734397567" lon="4.354103908388415"><ele>643.6666666666667</ele><time>2026-04-06T15:38:42.999Z</time></trkpt><trkpt lat="44.93314762519618" lon="4.354189134928124"><ele>637.3333333333334</ele><time>2026-04-06T15:38:43.999Z</time></trkpt><trkpt lat="44.93312897921233" lon="4.354276885540608"><ele>631.0</ele><time>2026-04-06T15:38:44.999Z</time></trkpt><trkpt lat="44.93312305102352" lon="4.35437734306751"><ele>631.0</ele><time>2026-04-06T15:38:45.999Z</time></trkpt><trkpt lat="44.93306230230081" lon="4.354527199377872"><ele>631.0</ele><time>2026-04-06T15:38:47.999Z</time></trkpt><trkpt lat="44.93303888477986" lon="4.354618774356076"><ele>631.0</ele><time>2026-04-06T15:38:48.999Z</time></trkpt><trkpt lat="44.93301542764208" lon="4.354785930314113"><ele>631.0</ele><time>2026-04-06T15:38:50.999Z</time></trkpt><trkpt lat="44.93300739878821" lon="4.354949341791271"><ele>631.0</ele><time>2026-04-06T15:38:52.999Z</time></trkpt><trkpt lat="44.932986393114945" lon="4.355073636373357"><ele>630.1666666666667</ele><time>2026-04-06T15:38:54.999Z</time></trkpt><trkpt lat="44.9329685544996" lon="4.355162113536254"><ele>629.3333333333334</ele><time>2026-04-06T15:38:55.999Z</time></trkpt><trkpt lat="44.932989390250356" lon="4.3552653869165665"><ele>628.5</ele><time>2026-04-06T15:38:56.999Z</time></trkpt><trkpt lat="44.933039509086" lon="4.355370071630994"><ele>627.6666666666666</ele><time>2026-04-06T15:38:58Z</time></trkpt><trkpt lat="44.93307600968696" lon="4.355472358235073"><ele>626.8333333333333</ele><time>2026-04-06T15:38:59Z</time></trkpt><trkpt lat="44.9330886491741" lon="4.355562336840799"><ele>626.0</ele><time>2026-04-06T15:39:00Z</time></trkpt><trkpt lat="44.93304027725724" lon="4.3557213252760985"><ele>624.8</ele><time>2026-04-06T15:39:02Z</time></trkpt><trkpt lat="44.932965163272996" lon="4.3557516815707675"><ele>623.6</ele><time>2026-04-06T15:39:03Z</time></trkpt><trkpt lat="44.93290718043286" lon="4.355836707557894"><ele>622.4</ele><time>2026-04-06T15:39:04Z</time></trkpt><trkpt lat="44.93284082246954" lon="4.35593401481752"><ele>621.2</ele><time>2026-04-06T15:39:05Z</time></trkpt><trkpt lat="44.93276891605495" lon="4.356039458305852"><ele>620.0</ele><time>2026-04-06T15:39:06Z</time></trkpt><trkpt lat="44.93270036208415" lon="4.3561416570412"><ele>620.0</ele><time>2026-04-06T15:39:07Z</time></trkpt><trkpt lat="44.93263681042033" lon="4.356236486169054"><ele>620.0</ele><time>2026-04-06T15:39:08Z</time></trkpt><trkpt lat="44.9325863290318" lon="4.356339767349628"><ele>620.0</ele><time>2026-04-06T15:39:09Z</time></trkpt><trkpt lat="44.93255403727068" lon="4.356439118399799"><ele>620.0</ele><time>2026-04-06T15:39:10Z</time></trkpt><trkpt lat="44.9325200908971" lon="4.356530570419137"><ele>620.0</ele><time>2026-04-06T15:39:11Z</time></trkpt><trkpt lat="44.932489402685896" lon="4.356657222345697"><ele>620.0</ele><time>2026-04-06T15:39:13Z</time></trkpt><trkpt lat="44.932417638426" lon="4.356573194712266"><ele>613.0</ele><time>2026-04-06T15:39:16Z</time></trkpt><trkpt lat="44.93239928412324" lon="4.356438210497348"><ele>606.0</ele><time>2026-04-06T15:39:17Z</time></trkpt><trkpt lat="44.9323874314806" lon="4.356290255963908"><ele>599.0</ele><time>2026-04-06T15:39:18Z</time></trkpt><trkpt lat="44.932395892545145" lon="4.356171046785747"><ele>592.0</ele><time>2026-04-06T15:39:19Z</time></trkpt><trkpt lat="44.9323933587141" lon="4.356053036044257"><ele>585.0</ele><time>2026-04-06T15:39:20Z</time></trkpt><trkpt lat="44.93238196874316" lon="4.355928273027524"><ele>584.8</ele><time>2026-04-06T15:39:21Z</time></trkpt><trkpt lat="44.93234341940288" lon="4.355812268698682"><ele>584.6</ele><time>2026-04-06T15:39:22Z</time></trkpt><trkpt lat="44.93225279285976" lon="4.355730052071749"><ele>584.4</ele><time>2026-04-06T15:39:23Z</time></trkpt><trkpt lat="44.932220642097825" lon="4.35561227869703"><ele>584.2</ele><time>2026-04-06T15:39:24Z</time></trkpt><trkpt lat="44.93221445426614" lon="4.35547528989629"><ele>584.0</ele><time>2026-04-06T15:39:25Z</time></trkpt><trkpt lat="44.93219803824081" lon="4.355360603846415"><ele>584.8333333333333</ele><time>2026-04-06T15:39:26Z</time></trkpt><trkpt lat="44.932177748210606" lon="4.3552444641486865"><ele>585.6666666666666</ele><time>2026-04-06T15:39:27Z</time></trkpt><trkpt lat="44.932167556336736" lon="4.355130104707655"><ele>586.5</ele><time>2026-04-06T15:39:28Z</time></trkpt><trkpt lat="44.93215379564161" lon="4.355035070428537"><ele>587.3333333333334</ele><time>2026-04-06T15:39:29Z</time></trkpt><trkpt lat="44.93208636324287" lon="4.3549292081109705"><ele>588.1666666666667</ele><time>2026-04-06T15:39:31Z</time></trkpt><trkpt lat="44.93201128408092" lon="4.354973536339179"><ele>589.0</ele><time>2026-04-06T15:39:32Z</time></trkpt><trkpt lat="44.93192740892267" lon="4.355004492372578"><ele>589.0</ele><time>2026-04-06T15:39:33Z</time></trkpt><trkpt lat="44.9318427686817" lon="4.355066403359232"><ele>589.0</ele><time>2026-04-06T15:39:34Z</time></trkpt><trkpt lat="44.931753603425214" lon="4.355125522540385"><ele>589.0</ele><time>2026-04-06T15:39:35Z</time></trkpt><trkpt lat="44.931660816913464" lon="4.355185080950993"><ele>589.0</ele><time>2026-04-06T15:39:36Z</time></trkpt><trkpt lat="44.93156309491851" lon="4.3552378175890825"><ele>589.0</ele><time>2026-04-06T15:39:37Z</time></trkpt><trkpt lat="44.931472933853094" lon="4.355259177358115"><ele>586.6666666666667</ele><time>2026-04-06T15:39:38Z</time></trkpt><trkpt lat="44.931367980218255" lon="4.355262816766276"><ele>584.3333333333334</ele><time>2026-04-06T15:39:39Z</time></trkpt><trkpt lat="44.93127357435666" lon="4.355286281397858"><ele>582.0</ele><time>2026-04-06T15:39:40Z</time></trkpt><trkpt lat="44.93117591856737" lon="4.355303324067193"><ele>579.6666666666666</ele><time>2026-04-06T15:39:41Z</time></trkpt><trkpt lat="44.93111846971877" lon="4.3553664515445725"><ele>577.3333333333333</ele><time>2026-04-06T15:39:42Z</time></trkpt><trkpt lat="44.93106362638893" lon="4.355441510179967"><ele>575.0</ele><time>2026-04-06T15:39:43Z</time></trkpt><trkpt lat="44.931032365000526" lon="4.355567261522644"><ele>572.8</ele><time>2026-04-06T15:39:44Z</time></trkpt><trkpt lat="44.93101497701591" lon="4.355686339421234"><ele>570.6</ele><time>2026-04-06T15:39:45Z</time></trkpt><trkpt lat="44.93098430878959" lon="4.355792940565855"><ele>568.4</ele><time>2026-04-06T15:39:46Z</time></trkpt><trkpt lat="44.93091378949611" lon="4.3558298712795755"><ele>566.2</ele><time>2026-04-06T15:39:47Z</time></trkpt><trkpt lat="44.930802278767" lon="4.355786529580529"><ele>564.0</ele><time>2026-04-06T15:39:49Z</time></trkpt><trkpt lat="44.93071102711732" lon="4.3557657438847155"><ele>565.0</ele><time>2026-04-06T15:39:50Z</time></trkpt><trkpt lat="44.93063840750113" lon="4.355696855553642"><ele>566.0</ele><time>2026-04-06T15:39:51Z</time></trkpt><trkpt lat="44.930568454157694" lon="4.355614228422642"><ele>567.0</ele><time>2026-04-06T15:39:52Z</time></trkpt><trkpt lat="44.93052222190642" lon="4.355511797289282"><ele>568.0</ele><time>2026-04-06T15:39:53Z</time></trkpt><trkpt lat="44.930464224815026" lon="4.355433387986945"><ele>569.0</ele><time>2026-04-06T15:39:54Z</time></trkpt><trkpt lat="44.9304445425658" lon="4.355311833615466"><ele>570.0</ele><time>2026-04-06T15:39:55Z</time></trkpt><trkpt lat="44.9303985656516" lon="4.355209702399178"><ele>570.0</ele><time>2026-04-06T15:39:56Z</time></trkpt><trkpt lat="44.93035313722606" lon="4.355107123212348"><ele>570.0</ele><time>2026-04-06T15:39:57Z</time></trkpt><trkpt lat="44.9303002804412" lon="4.355010091150967"><ele>570.0</ele><time>2026-04-06T15:39:58Z</time></trkpt><trkpt lat="44.9302563699615" lon="4.354910513990645"><ele>570.0</ele><time>2026-04-06T15:39:59Z</time></trkpt><trkpt lat="44.9302109197117" lon="4.3548177087166"><ele>570.0</ele><time>2026-04-06T15:40:00Z</time></trkpt><trkpt lat="44.930157507841265" lon="4.354719910483825"><ele>570.0</ele><time>2026-04-06T15:40:01Z</time></trkpt><trkpt lat="44.93012834433444" lon="4.354616436585049"><ele>568.2</ele><time>2026-04-06T15:40:02Z</time></trkpt><trkpt lat="44.93005348178045" lon="4.354535586216902"><ele>566.4</ele><time>2026-04-06T15:40:04Z</time></trkpt><trkpt lat="44.92999393898612" lon="4.354497604781068"><ele>564.6</ele><time>2026-04-06T15:40:07Z</time></trkpt><trkpt lat="44.9299729200569" lon="4.35434472998502"><ele>562.8</ele><time>2026-04-06T15:40:08Z</time></trkpt><trkpt lat="44.92994241708933" lon="4.35422016957032"><ele>561.0</ele><time>2026-04-06T15:40:09Z</time></trkpt><trkpt lat="44.92990847036399" lon="4.354077384916677"><ele>561.0</ele><time>2026-04-06T15:40:10Z</time></trkpt><trkpt lat="44.92986586321419" lon="4.3538973061045825"><ele>561.0</ele><time>2026-04-06T15:40:11Z</time></trkpt><trkpt lat="44.92983002380399" lon="4.353700567186793"><ele>561.0</ele><time>2026-04-06T15:40:12Z</time></trkpt><trkpt lat="44.92980297183284" lon="4.353485407069657"><ele>561.0</ele><time>2026-04-06T15:40:13Z</time></trkpt><trkpt lat="44.92976935927533" lon="4.353239143179035"><ele>566.0</ele><time>2026-04-06T15:40:14Z</time></trkpt><trkpt lat="44.92975943457816" lon="4.353016877823902"><ele>571.0</ele><time>2026-04-06T15:40:15Z</time></trkpt><trkpt lat="44.9297241945501" lon="4.352820608147209"><ele>576.0</ele><time>2026-04-06T15:40:16Z</time></trkpt><trkpt lat="44.92966381608032" lon="4.352640084576875"><ele>581.0</ele><time>2026-04-06T15:40:17Z</time></trkpt><trkpt lat="44.929594566203775" lon="4.352471028171358"><ele>581.0</ele><time>2026-04-06T15:40:18Z</time></trkpt><trkpt lat="44.929489534032335" lon="4.352305614893645"><ele>581.0</ele><time>2026-04-06T15:40:19Z</time></trkpt><trkpt lat="44.92940422569223" lon="4.3521308250037505"><ele>581.0</ele><time>2026-04-06T15:40:20Z</time></trkpt><trkpt lat="44.929326648265466" lon="4.351948194306504"><ele>579.25</ele><time>2026-04-06T15:40:21Z</time></trkpt><trkpt lat="44.9292687103417" lon="4.351756567481931"><ele>577.5</ele><time>2026-04-06T15:40:22Z</time></trkpt><trkpt lat="44.92922725957864" lon="4.351557777197621"><ele>575.75</ele><time>2026-04-06T15:40:23Z</time></trkpt><trkpt lat="44.9291807541313" lon="4.35137875182636"><ele>574.0</ele><time>2026-04-06T15:40:24Z</time></trkpt><trkpt lat="44.92914627858116" lon="4.351205113036278"><ele>574.0</ele><time>2026-04-06T15:40:25Z</time></trkpt><trkpt lat="44.929134432655374" lon="4.351036820619153"><ele>574.0</ele><time>2026-04-06T15:40:26Z</time></trkpt><trkpt lat="44.92910693541395" lon="4.350892835239207"><ele>574.0</ele><time>2026-04-06T15:40:27Z</time></trkpt><trkpt lat="44.92908099774419" lon="4.350739300003292"><ele>574.0</ele><time>2026-04-06T15:40:28Z</time></trkpt><trkpt lat="44.92905549367442" lon="4.350601952720521"><ele>574.0</ele><time>2026-04-06T15:40:29Z</time></trkpt><trkpt lat="44.929048360014356" lon="4.35047159586561"><ele>574.8333333333334</ele><time>2026-04-06T15:40:30Z</time></trkpt><trkpt lat="44.92905295424823" lon="4.350367745997811"><ele>575.6666666666667</ele><time>2026-04-06T15:40:31Z</time></trkpt><trkpt lat="44.929058522153284" lon="4.350264996850926"><ele>576.5</ele><time>2026-04-06T15:40:32Z</time></trkpt><trkpt lat="44.929015795005654" lon="4.350164571418281"><ele>577.3333333333334</ele><time>2026-04-06T15:40:33Z</time></trkpt><trkpt lat="44.92897370291759" lon="4.350061410678413"><ele>578.1666666666666</ele><time>2026-04-06T15:40:34Z</time></trkpt><trkpt lat="44.92893612823172" lon="4.349963222007599"><ele>579.0</ele><time>2026-04-06T15:40:35Z</time></trkpt><trkpt lat="44.92890668038952" lon="4.349872865132193"><ele>579.0</ele><time>2026-04-06T15:40:36Z</time></trkpt><trkpt lat="44.92887523744469" lon="4.349721861708774"><ele>579.0</ele><time>2026-04-06T15:40:38Z</time></trkpt><trkpt lat="44.92885850708501" lon="4.349605556279781"><ele>585.0</ele><time>2026-04-06T15:40:40Z</time></trkpt><trkpt lat="44.928944151158326" lon="4.34961826164433"><ele>585.0</ele><time>2026-04-06T15:40:47.999Z</time></trkpt><trkpt lat="44.928955144381376" lon="4.349520841831388"><ele>585.0</ele><time>2026-04-06T15:41:36Z</time></trkpt></trkseg></trk></gpx>